<?xml version="1.0" encoding="UTF-8" standalone="no"?>
<gpx version="1.1" creator="GPX Editor 1.3.56.1423" xmlns="http://www.topografix.com/GPX/1/1" xmlns:xsi="http://www.w3.org/2001/XMLSchema-instance" xsi:schemaLocation="http://www.topografix.com/GPX/1/1 http://www.topografix.com/GPX/1/1/gpx.xsd">
<metadata>
	<name>(2014-04-13) - Stralsund - Grimmen - Loitz - Anklam</name>
	<link href="http://www.komoot.de">
		<text>komoot homepage</text>
		<type>text/html</type>
	</link>
	<bounds minlat="53.8116264343262" minlon="13.0253219604492" maxlat="54.3171615600586" maxlon="13.7009439468384" />
</metadata>
<trk>
	<name>(2014-04-13) - Stralsund - Grimmen - Loitz - Anklam</name>
	<trkseg>
		<trkpt lat="54.3171615600586" lon="13.0907125473022">
			<ele>57.7000007629395</ele>
			<time>2014-04-13T08:21:25Z</time>
		</trkpt>
		<trkpt lat="54.3171539306641" lon="13.0907945632935">
			<ele>59.5</ele>
			<time>2014-04-13T08:21:36Z</time>
		</trkpt>
		<trkpt lat="54.3171501159668" lon="13.0909032821655">
			<ele>56.5999984741211</ele>
			<time>2014-04-13T08:21:39Z</time>
		</trkpt>
		<trkpt lat="54.3171424865723" lon="13.0909938812256">
			<ele>53.2000007629395</ele>
			<time>2014-04-13T08:21:42Z</time>
		</trkpt>
		<trkpt lat="54.317138671875" lon="13.0910968780518">
			<ele>52.9000015258789</ele>
			<time>2014-04-13T08:21:44Z</time>
		</trkpt>
		<trkpt lat="54.3171119689941" lon="13.0911951065063">
			<ele>50.5999984741211</ele>
			<time>2014-04-13T08:21:46Z</time>
		</trkpt>
		<trkpt lat="54.3170928955078" lon="13.0912895202637">
			<ele>49.4000015258789</ele>
			<time>2014-04-13T08:21:48Z</time>
		</trkpt>
		<trkpt lat="54.3170738220215" lon="13.0913887023926">
			<ele>49.9000015258789</ele>
			<time>2014-04-13T08:21:50Z</time>
		</trkpt>
		<trkpt lat="54.317066192627" lon="13.0914821624756">
			<ele>51.2000007629395</ele>
			<time>2014-04-13T08:21:52Z</time>
		</trkpt>
		<trkpt lat="54.3170738220215" lon="13.0915803909302">
			<ele>51.5999984741211</ele>
			<time>2014-04-13T08:21:54Z</time>
		</trkpt>
		<trkpt lat="54.3170623779297" lon="13.0916891098022">
			<ele>51.7000007629395</ele>
			<time>2014-04-13T08:21:56Z</time>
		</trkpt>
		<trkpt lat="54.317008972168" lon="13.0917625427246">
			<ele>50.5</ele>
			<time>2014-04-13T08:21:58Z</time>
		</trkpt>
		<trkpt lat="54.3169250488281" lon="13.0919303894043">
			<ele>57.4000015258789</ele>
			<time>2014-04-13T08:22:00Z</time>
		</trkpt>
		<trkpt lat="54.3168754577637" lon="13.0920429229736">
			<ele>55.5999984741211</ele>
			<time>2014-04-13T08:22:02Z</time>
		</trkpt>
		<trkpt lat="54.3168258666992" lon="13.0921297073364">
			<ele>54.0999984741211</ele>
			<time>2014-04-13T08:22:04Z</time>
		</trkpt>
		<trkpt lat="54.3167839050293" lon="13.0922079086304">
			<ele>57</ele>
			<time>2014-04-13T08:22:05Z</time>
		</trkpt>
		<trkpt lat="54.316722869873" lon="13.0922975540161">
			<ele>56.9000015258789</ele>
			<time>2014-04-13T08:22:07Z</time>
		</trkpt>
		<trkpt lat="54.3166618347168" lon="13.0923480987549">
			<ele>50.7999992370605</ele>
			<time>2014-04-13T08:22:10Z</time>
		</trkpt>
		<trkpt lat="54.3166007995605" lon="13.0924167633057">
			<ele>50.2999992370605</ele>
			<time>2014-04-13T08:22:12Z</time>
		</trkpt>
		<trkpt lat="54.3165512084961" lon="13.0924978256226">
			<ele>50.5</ele>
			<time>2014-04-13T08:22:14Z</time>
		</trkpt>
		<trkpt lat="54.3165054321289" lon="13.0925712585449">
			<ele>50.0999984741211</ele>
			<time>2014-04-13T08:22:16Z</time>
		</trkpt>
		<trkpt lat="54.3164558410645" lon="13.0925998687744">
			<ele>49.7999992370605</ele>
			<time>2014-04-13T08:22:17Z</time>
		</trkpt>
		<trkpt lat="54.31640625" lon="13.0925617218018">
			<ele>49.7000007629395</ele>
			<time>2014-04-13T08:22:20Z</time>
		</trkpt>
		<trkpt lat="54.3164367675781" lon="13.0924558639526">
			<ele>50</ele>
			<time>2014-04-13T08:22:24Z</time>
		</trkpt>
		<trkpt lat="54.3164710998535" lon="13.0923881530762">
			<ele>50</ele>
			<time>2014-04-13T08:22:26Z</time>
		</trkpt>
		<trkpt lat="54.3163604736328" lon="13.0924024581909">
			<ele>50.2999992370605</ele>
			<time>2014-04-13T08:22:26Z</time>
		</trkpt>
		<trkpt lat="54.3162841796875" lon="13.092414855957">
			<ele>50.7000007629395</ele>
			<time>2014-04-13T08:22:28Z</time>
		</trkpt>
		<trkpt lat="54.3162307739258" lon="13.092432975769">
			<ele>51</ele>
			<time>2014-04-13T08:22:29Z</time>
		</trkpt>
		<trkpt lat="54.3161506652832" lon="13.0924482345581">
			<ele>51.4000015258789</ele>
			<time>2014-04-13T08:22:31Z</time>
		</trkpt>
		<trkpt lat="54.3160743713379" lon="13.0924873352051">
			<ele>51.9000015258789</ele>
			<time>2014-04-13T08:22:33Z</time>
		</trkpt>
		<trkpt lat="54.3159980773926" lon="13.0925016403198">
			<ele>52.5999984741211</ele>
			<time>2014-04-13T08:22:35Z</time>
		</trkpt>
		<trkpt lat="54.3159370422363" lon="13.0925054550171">
			<ele>51.7000007629395</ele>
			<time>2014-04-13T08:22:37Z</time>
		</trkpt>
		<trkpt lat="54.3159027099609" lon="13.0924053192139">
			<ele>48.7999992370605</ele>
			<time>2014-04-13T08:22:39Z</time>
		</trkpt>
		<trkpt lat="54.3158645629883" lon="13.092360496521">
			<ele>46.4000015258789</ele>
			<time>2014-04-13T08:22:42Z</time>
		</trkpt>
		<trkpt lat="54.3158111572266" lon="13.0923500061035">
			<ele>46.7999992370605</ele>
			<time>2014-04-13T08:22:44Z</time>
		</trkpt>
		<trkpt lat="54.3157577514648" lon="13.0923376083374">
			<ele>47</ele>
			<time>2014-04-13T08:22:46Z</time>
		</trkpt>
		<trkpt lat="54.3157653808594" lon="13.0924644470215">
			<ele>49.7000007629395</ele>
			<time>2014-04-13T08:22:49Z</time>
		</trkpt>
		<trkpt lat="54.3157691955566" lon="13.0925588607788">
			<ele>49.7000007629395</ele>
			<time>2014-04-13T08:22:51Z</time>
		</trkpt>
		<trkpt lat="54.3157615661621" lon="13.0926628112793">
			<ele>48.2999992370605</ele>
			<time>2014-04-13T08:22:53Z</time>
		</trkpt>
		<trkpt lat="54.3157539367676" lon="13.0927705764771">
			<ele>48</ele>
			<time>2014-04-13T08:22:55Z</time>
		</trkpt>
		<trkpt lat="54.3157501220703" lon="13.0928745269775">
			<ele>48.5999984741211</ele>
			<time>2014-04-13T08:22:57Z</time>
		</trkpt>
		<trkpt lat="54.315746307373" lon="13.0929670333862">
			<ele>46.5999984741211</ele>
			<time>2014-04-13T08:22:59Z</time>
		</trkpt>
		<trkpt lat="54.3157424926758" lon="13.0930690765381">
			<ele>47.5999984741211</ele>
			<time>2014-04-13T08:23:01Z</time>
		</trkpt>
		<trkpt lat="54.3157386779785" lon="13.0931901931763">
			<ele>48.2000007629395</ele>
			<time>2014-04-13T08:23:03Z</time>
		</trkpt>
		<trkpt lat="54.315731048584" lon="13.0932989120483">
			<ele>48.4000015258789</ele>
			<time>2014-04-13T08:23:05Z</time>
		</trkpt>
		<trkpt lat="54.3157272338867" lon="13.0934143066406">
			<ele>48.5999984741211</ele>
			<time>2014-04-13T08:23:07Z</time>
		</trkpt>
		<trkpt lat="54.3157081604004" lon="13.0935335159302">
			<ele>46.7999992370605</ele>
			<time>2014-04-13T08:23:09Z</time>
		</trkpt>
		<trkpt lat="54.3156967163086" lon="13.093653678894">
			<ele>45.7999992370605</ele>
			<time>2014-04-13T08:23:11Z</time>
		</trkpt>
		<trkpt lat="54.3156814575195" lon="13.0937776565552">
			<ele>45.7999992370605</ele>
			<time>2014-04-13T08:23:13Z</time>
		</trkpt>
		<trkpt lat="54.3156661987305" lon="13.0939016342163">
			<ele>45.9000015258789</ele>
			<time>2014-04-13T08:23:15Z</time>
		</trkpt>
		<trkpt lat="54.3156471252441" lon="13.0940217971802">
			<ele>45.5999984741211</ele>
			<time>2014-04-13T08:23:17Z</time>
		</trkpt>
		<trkpt lat="54.3156318664551" lon="13.0941305160522">
			<ele>45.5</ele>
			<time>2014-04-13T08:23:19Z</time>
		</trkpt>
		<trkpt lat="54.3156204223633" lon="13.09423828125">
			<ele>46.4000015258789</ele>
			<time>2014-04-13T08:23:21Z</time>
		</trkpt>
		<trkpt lat="54.3155975341797" lon="13.0943574905396">
			<ele>45.5</ele>
			<time>2014-04-13T08:23:23Z</time>
		</trkpt>
		<trkpt lat="54.3155899047852" lon="13.0944538116455">
			<ele>45.5</ele>
			<time>2014-04-13T08:23:25Z</time>
		</trkpt>
		<trkpt lat="54.3155479431152" lon="13.0945453643799">
			<ele>45.0999984741211</ele>
			<time>2014-04-13T08:23:27Z</time>
		</trkpt>
		<trkpt lat="54.3155479431152" lon="13.0946321487427">
			<ele>44.7999992370605</ele>
			<time>2014-04-13T08:23:29Z</time>
		</trkpt>
		<trkpt lat="54.3155479431152" lon="13.0947217941284">
			<ele>44</ele>
			<time>2014-04-13T08:23:31Z</time>
		</trkpt>
		<trkpt lat="54.3155403137207" lon="13.0947980880737">
			<ele>43.2000007629395</ele>
			<time>2014-04-13T08:23:32Z</time>
		</trkpt>
		<trkpt lat="54.3155250549316" lon="13.0948810577393">
			<ele>41.9000015258789</ele>
			<time>2014-04-13T08:23:34Z</time>
		</trkpt>
		<trkpt lat="54.3155403137207" lon="13.0949592590332">
			<ele>44</ele>
			<time>2014-04-13T08:23:49Z</time>
		</trkpt>
		<trkpt lat="54.3155860900879" lon="13.0949907302856">
			<ele>41.2000007629395</ele>
			<time>2014-04-13T08:23:58Z</time>
		</trkpt>
		<trkpt lat="54.3154983520508" lon="13.0950021743774">
			<ele>39.9000015258789</ele>
			<time>2014-04-13T08:24:00Z</time>
		</trkpt>
		<trkpt lat="54.3154449462891" lon="13.0950260162354">
			<ele>39</ele>
			<time>2014-04-13T08:24:02Z</time>
		</trkpt>
		<trkpt lat="54.3153953552246" lon="13.0950508117676">
			<ele>39.7000007629395</ele>
			<time>2014-04-13T08:24:04Z</time>
		</trkpt>
		<trkpt lat="54.3153419494629" lon="13.0951299667358">
			<ele>40.4000015258789</ele>
			<time>2014-04-13T08:24:07Z</time>
		</trkpt>
		<trkpt lat="54.3152770996094" lon="13.0951900482178">
			<ele>40.4000015258789</ele>
			<time>2014-04-13T08:24:09Z</time>
		</trkpt>
		<trkpt lat="54.3152275085449" lon="13.0952196121216">
			<ele>40.4000015258789</ele>
			<time>2014-04-13T08:24:10Z</time>
		</trkpt>
		<trkpt lat="54.3151626586914" lon="13.0952882766724">
			<ele>41.7999992370605</ele>
			<time>2014-04-13T08:24:12Z</time>
		</trkpt>
		<trkpt lat="54.3151054382324" lon="13.0953350067139">
			<ele>41.7000007629395</ele>
			<time>2014-04-13T08:24:15Z</time>
		</trkpt>
		<trkpt lat="54.3150444030762" lon="13.0953693389893">
			<ele>42.5999984741211</ele>
			<time>2014-04-13T08:24:18Z</time>
		</trkpt>
		<trkpt lat="54.3149833679199" lon="13.0954256057739">
			<ele>43.2000007629395</ele>
			<time>2014-04-13T08:24:20Z</time>
		</trkpt>
		<trkpt lat="54.3149070739746" lon="13.0955142974854">
			<ele>43.9000015258789</ele>
			<time>2014-04-13T08:24:21Z</time>
		</trkpt>
		<trkpt lat="54.3148384094238" lon="13.0955791473389">
			<ele>44</ele>
			<time>2014-04-13T08:24:22Z</time>
		</trkpt>
		<trkpt lat="54.314769744873" lon="13.0956192016602">
			<ele>45.5</ele>
			<time>2014-04-13T08:24:23Z</time>
		</trkpt>
		<trkpt lat="54.3147277832031" lon="13.0956678390503">
			<ele>45.7000007629395</ele>
			<time>2014-04-13T08:24:25Z</time>
		</trkpt>
		<trkpt lat="54.3146896362305" lon="13.0957164764404">
			<ele>44.9000015258789</ele>
			<time>2014-04-13T08:24:25Z</time>
		</trkpt>
		<trkpt lat="54.3146209716797" lon="13.0956954956055">
			<ele>40.0999984741211</ele>
			<time>2014-04-13T08:24:28Z</time>
		</trkpt>
		<trkpt lat="54.3145408630371" lon="13.0957107543945">
			<ele>41.5</ele>
			<time>2014-04-13T08:24:30Z</time>
		</trkpt>
		<trkpt lat="54.3144454956055" lon="13.0957365036011">
			<ele>42</ele>
			<time>2014-04-13T08:24:32Z</time>
		</trkpt>
		<trkpt lat="54.314395904541" lon="13.0957632064819">
			<ele>42.7000007629395</ele>
			<time>2014-04-13T08:24:33Z</time>
		</trkpt>
		<trkpt lat="54.3143463134766" lon="13.0958051681519">
			<ele>42.7000007629395</ele>
			<time>2014-04-13T08:24:34Z</time>
		</trkpt>
		<trkpt lat="54.3142967224121" lon="13.0958471298218">
			<ele>42.5</ele>
			<time>2014-04-13T08:24:35Z</time>
		</trkpt>
		<trkpt lat="54.3142471313477" lon="13.0958786010742">
			<ele>43</ele>
			<time>2014-04-13T08:24:36Z</time>
		</trkpt>
		<trkpt lat="54.3141975402832" lon="13.0959100723267">
			<ele>43.0999984741211</ele>
			<time>2014-04-13T08:24:37Z</time>
		</trkpt>
		<trkpt lat="54.3141937255859" lon="13.095832824707">
			<ele>41.0999984741211</ele>
			<time>2014-04-13T08:24:38Z</time>
		</trkpt>
		<trkpt lat="54.314136505127" lon="13.0958127975464">
			<ele>40.2000007629395</ele>
			<time>2014-04-13T08:24:40Z</time>
		</trkpt>
		<trkpt lat="54.3140754699707" lon="13.0958137512207">
			<ele>40.4000015258789</ele>
			<time>2014-04-13T08:24:42Z</time>
		</trkpt>
		<trkpt lat="54.3140106201172" lon="13.0958290100098">
			<ele>41.5</ele>
			<time>2014-04-13T08:24:44Z</time>
		</trkpt>
		<trkpt lat="54.3139305114746" lon="13.0958499908447">
			<ele>42.5</ele>
			<time>2014-04-13T08:24:47Z</time>
		</trkpt>
		<trkpt lat="54.3138580322266" lon="13.0958786010742">
			<ele>43.9000015258789</ele>
			<time>2014-04-13T08:24:49Z</time>
		</trkpt>
		<trkpt lat="54.3137969970703" lon="13.0958843231201">
			<ele>44.7000007629395</ele>
			<time>2014-04-13T08:24:50Z</time>
		</trkpt>
		<trkpt lat="54.3137359619141" lon="13.0958881378174">
			<ele>43.4000015258789</ele>
			<time>2014-04-13T08:24:53Z</time>
		</trkpt>
		<trkpt lat="54.3136863708496" lon="13.0958700180054">
			<ele>42.9000015258789</ele>
			<time>2014-04-13T08:24:54Z</time>
		</trkpt>
		<trkpt lat="54.3136100769043" lon="13.0958967208862">
			<ele>42</ele>
			<time>2014-04-13T08:24:56Z</time>
		</trkpt>
		<trkpt lat="54.3135299682617" lon="13.0959320068359">
			<ele>42</ele>
			<time>2014-04-13T08:24:58Z</time>
		</trkpt>
		<trkpt lat="54.3134841918945" lon="13.0959539413452">
			<ele>43.4000015258789</ele>
			<time>2014-04-13T08:24:59Z</time>
		</trkpt>
		<trkpt lat="54.3134307861328" lon="13.0959854125977">
			<ele>44.9000015258789</ele>
			<time>2014-04-13T08:25:00Z</time>
		</trkpt>
		<trkpt lat="54.3133850097656" lon="13.0960254669189">
			<ele>45</ele>
			<time>2014-04-13T08:25:01Z</time>
		</trkpt>
		<trkpt lat="54.3133506774902" lon="13.0959663391113">
			<ele>42.9000015258789</ele>
			<time>2014-04-13T08:25:03Z</time>
		</trkpt>
		<trkpt lat="54.3132934570313" lon="13.0959663391113">
			<ele>42.2000007629395</ele>
			<time>2014-04-13T08:25:05Z</time>
		</trkpt>
		<trkpt lat="54.3132286071777" lon="13.0959787368774">
			<ele>42.2000007629395</ele>
			<time>2014-04-13T08:25:07Z</time>
		</trkpt>
		<trkpt lat="54.3131637573242" lon="13.0960102081299">
			<ele>42.4000015258789</ele>
			<time>2014-04-13T08:25:09Z</time>
		</trkpt>
		<trkpt lat="54.3131065368652" lon="13.0960664749146">
			<ele>42.2999992370605</ele>
			<time>2014-04-13T08:25:11Z</time>
		</trkpt>
		<trkpt lat="54.3130378723145" lon="13.0961132049561">
			<ele>43.2000007629395</ele>
			<time>2014-04-13T08:25:13Z</time>
		</trkpt>
		<trkpt lat="54.3129806518555" lon="13.0961837768555">
			<ele>38.2999992370605</ele>
			<time>2014-04-13T08:25:15Z</time>
		</trkpt>
		<trkpt lat="54.3129196166992" lon="13.0962390899658">
			<ele>37.4000015258789</ele>
			<time>2014-04-13T08:25:17Z</time>
		</trkpt>
		<trkpt lat="54.3128433227539" lon="13.096248626709">
			<ele>37.2000007629395</ele>
			<time>2014-04-13T08:25:20Z</time>
		</trkpt>
		<trkpt lat="54.3127975463867" lon="13.0962715148926">
			<ele>37.9000015258789</ele>
			<time>2014-04-13T08:25:21Z</time>
		</trkpt>
		<trkpt lat="54.3127555847168" lon="13.0963277816772">
			<ele>38</ele>
			<time>2014-04-13T08:25:23Z</time>
		</trkpt>
		<trkpt lat="54.3127059936523" lon="13.0963258743286">
			<ele>44.0999984741211</ele>
			<time>2014-04-13T08:25:46Z</time>
		</trkpt>
		<trkpt lat="54.3126373291016" lon="13.0963773727417">
			<ele>41.4000015258789</ele>
			<time>2014-04-13T08:25:49Z</time>
		</trkpt>
		<trkpt lat="54.3125877380371" lon="13.0964393615723">
			<ele>42.2000007629395</ele>
			<time>2014-04-13T08:25:51Z</time>
		</trkpt>
		<trkpt lat="54.3125534057617" lon="13.0965032577515">
			<ele>43.4000015258789</ele>
			<time>2014-04-13T08:25:53Z</time>
		</trkpt>
		<trkpt lat="54.3125076293945" lon="13.0965518951416">
			<ele>44</ele>
			<time>2014-04-13T08:25:55Z</time>
		</trkpt>
		<trkpt lat="54.312442779541" lon="13.0966014862061">
			<ele>44.0999984741211</ele>
			<time>2014-04-13T08:25:57Z</time>
		</trkpt>
		<trkpt lat="54.312370300293" lon="13.0966501235962">
			<ele>45.0999984741211</ele>
			<time>2014-04-13T08:25:59Z</time>
		</trkpt>
		<trkpt lat="54.3122863769531" lon="13.0966672897339">
			<ele>45.0999984741211</ele>
			<time>2014-04-13T08:26:01Z</time>
		</trkpt>
		<trkpt lat="54.3122482299805" lon="13.0967025756836">
			<ele>43.5999984741211</ele>
			<time>2014-04-13T08:26:02Z</time>
		</trkpt>
		<trkpt lat="54.3122100830078" lon="13.0967578887939">
			<ele>42</ele>
			<time>2014-04-13T08:26:03Z</time>
		</trkpt>
		<trkpt lat="54.3121490478516" lon="13.096851348877">
			<ele>41.2000007629395</ele>
			<time>2014-04-13T08:26:05Z</time>
		</trkpt>
		<trkpt lat="54.3120803833008" lon="13.0969381332397">
			<ele>42.4000015258789</ele>
			<time>2014-04-13T08:26:08Z</time>
		</trkpt>
		<trkpt lat="54.3120079040527" lon="13.0970268249512">
			<ele>43.2000007629395</ele>
			<time>2014-04-13T08:26:09Z</time>
		</trkpt>
		<trkpt lat="54.3119697570801" lon="13.0970659255981">
			<ele>43.5</ele>
			<time>2014-04-13T08:26:10Z</time>
		</trkpt>
		<trkpt lat="54.311897277832" lon="13.0970945358276">
			<ele>42.9000015258789</ele>
			<time>2014-04-13T08:26:12Z</time>
		</trkpt>
		<trkpt lat="54.3118515014648" lon="13.0971250534058">
			<ele>43.2999992370605</ele>
			<time>2014-04-13T08:26:13Z</time>
		</trkpt>
		<trkpt lat="54.3118057250977" lon="13.0971479415894">
			<ele>41.9000015258789</ele>
			<time>2014-04-13T08:26:14Z</time>
		</trkpt>
		<trkpt lat="54.3117179870605" lon="13.0971555709839">
			<ele>41.7000007629395</ele>
			<time>2014-04-13T08:26:16Z</time>
		</trkpt>
		<trkpt lat="54.3116302490234" lon="13.0971603393555">
			<ele>42.2999992370605</ele>
			<time>2014-04-13T08:26:19Z</time>
		</trkpt>
		<trkpt lat="54.3115844726563" lon="13.0971803665161">
			<ele>43.2000007629395</ele>
			<time>2014-04-13T08:26:20Z</time>
		</trkpt>
		<trkpt lat="54.3115043640137" lon="13.0971698760986">
			<ele>43.7999992370605</ele>
			<time>2014-04-13T08:26:22Z</time>
		</trkpt>
		<trkpt lat="54.3114242553711" lon="13.0971956253052">
			<ele>42.2000007629395</ele>
			<time>2014-04-13T08:26:24Z</time>
		</trkpt>
		<trkpt lat="54.3113746643066" lon="13.097204208374">
			<ele>41.2999992370605</ele>
			<time>2014-04-13T08:26:24Z</time>
		</trkpt>
		<trkpt lat="54.3112983703613" lon="13.0972318649292">
			<ele>41.4000015258789</ele>
			<time>2014-04-13T08:26:27Z</time>
		</trkpt>
		<trkpt lat="54.3112144470215" lon="13.0972576141357">
			<ele>41.4000015258789</ele>
			<time>2014-04-13T08:26:29Z</time>
		</trkpt>
		<trkpt lat="54.3111305236816" lon="13.0972766876221">
			<ele>41.7999992370605</ele>
			<time>2014-04-13T08:26:31Z</time>
		</trkpt>
		<trkpt lat="54.3110542297363" lon="13.0972967147827">
			<ele>41.2999992370605</ele>
			<time>2014-04-13T08:26:33Z</time>
		</trkpt>
		<trkpt lat="54.3109703063965" lon="13.0973272323608">
			<ele>42.2999992370605</ele>
			<time>2014-04-13T08:26:34Z</time>
		</trkpt>
		<trkpt lat="54.3108863830566" lon="13.0973415374756">
			<ele>42.4000015258789</ele>
			<time>2014-04-13T08:26:36Z</time>
		</trkpt>
		<trkpt lat="54.3107986450195" lon="13.0973558425903">
			<ele>42.0999984741211</ele>
			<time>2014-04-13T08:26:38Z</time>
		</trkpt>
		<trkpt lat="54.3107566833496" lon="13.0973615646362">
			<ele>42.5999984741211</ele>
			<time>2014-04-13T08:26:40Z</time>
		</trkpt>
		<trkpt lat="54.3107109069824" lon="13.0973815917969">
			<ele>42.7999992370605</ele>
			<time>2014-04-13T08:26:40Z</time>
		</trkpt>
		<trkpt lat="54.310619354248" lon="13.0974149703979">
			<ele>43</ele>
			<time>2014-04-13T08:26:42Z</time>
		</trkpt>
		<trkpt lat="54.3105773925781" lon="13.0974359512329">
			<ele>42.9000015258789</ele>
			<time>2014-04-13T08:26:43Z</time>
		</trkpt>
		<trkpt lat="54.310489654541" lon="13.0974636077881">
			<ele>43.0999984741211</ele>
			<time>2014-04-13T08:26:45Z</time>
		</trkpt>
		<trkpt lat="54.3104019165039" lon="13.0974855422974">
			<ele>43.5</ele>
			<time>2014-04-13T08:26:47Z</time>
		</trkpt>
		<trkpt lat="54.3103256225586" lon="13.09752368927">
			<ele>39.7999992370605</ele>
			<time>2014-04-13T08:26:49Z</time>
		</trkpt>
		<trkpt lat="54.3102531433105" lon="13.0975866317749">
			<ele>37.9000015258789</ele>
			<time>2014-04-13T08:26:52Z</time>
		</trkpt>
		<trkpt lat="54.3101806640625" lon="13.0976552963257">
			<ele>37.2000007629395</ele>
			<time>2014-04-13T08:26:53Z</time>
		</trkpt>
		<trkpt lat="54.3101081848145" lon="13.0976839065552">
			<ele>37.0999984741211</ele>
			<time>2014-04-13T08:26:55Z</time>
		</trkpt>
		<trkpt lat="54.3100624084473" lon="13.0976982116699">
			<ele>36.9000015258789</ele>
			<time>2014-04-13T08:26:57Z</time>
		</trkpt>
		<trkpt lat="54.3099822998047" lon="13.0977449417114">
			<ele>37.5999984741211</ele>
			<time>2014-04-13T08:26:58Z</time>
		</trkpt>
		<trkpt lat="54.3099212646484" lon="13.0977363586426">
			<ele>37.7000007629395</ele>
			<time>2014-04-13T08:27:00Z</time>
		</trkpt>
		<trkpt lat="54.3098602294922" lon="13.0977458953857">
			<ele>37.7999992370605</ele>
			<time>2014-04-13T08:27:00Z</time>
		</trkpt>
		<trkpt lat="54.309814453125" lon="13.0977573394775">
			<ele>38.2999992370605</ele>
			<time>2014-04-13T08:27:01Z</time>
		</trkpt>
		<trkpt lat="54.3097496032715" lon="13.0977230072021">
			<ele>39.9000015258789</ele>
			<time>2014-04-13T08:27:02Z</time>
		</trkpt>
		<trkpt lat="54.309700012207" lon="13.0977039337158">
			<ele>40.5999984741211</ele>
			<time>2014-04-13T08:27:03Z</time>
		</trkpt>
		<trkpt lat="54.3096542358398" lon="13.0977087020874">
			<ele>39.7999992370605</ele>
			<time>2014-04-13T08:27:04Z</time>
		</trkpt>
		<trkpt lat="54.3096008300781" lon="13.0977296829224">
			<ele>39.4000015258789</ele>
			<time>2014-04-13T08:27:05Z</time>
		</trkpt>
		<trkpt lat="54.3095474243164" lon="13.0977382659912">
			<ele>39.5999984741211</ele>
			<time>2014-04-13T08:27:06Z</time>
		</trkpt>
		<trkpt lat="54.309497833252" lon="13.0977363586426">
			<ele>40</ele>
			<time>2014-04-13T08:27:07Z</time>
		</trkpt>
		<trkpt lat="54.309440612793" lon="13.0977363586426">
			<ele>40.0999984741211</ele>
			<time>2014-04-13T08:27:08Z</time>
		</trkpt>
		<trkpt lat="54.3093910217285" lon="13.0977373123169">
			<ele>40.5</ele>
			<time>2014-04-13T08:27:09Z</time>
		</trkpt>
		<trkpt lat="54.3092994689941" lon="13.0977201461792">
			<ele>40.5999984741211</ele>
			<time>2014-04-13T08:27:11Z</time>
		</trkpt>
		<trkpt lat="54.309253692627" lon="13.0977230072021">
			<ele>40.9000015258789</ele>
			<time>2014-04-13T08:27:12Z</time>
		</trkpt>
		<trkpt lat="54.309196472168" lon="13.097731590271">
			<ele>41.2999992370605</ele>
			<time>2014-04-13T08:27:13Z</time>
		</trkpt>
		<trkpt lat="54.3091468811035" lon="13.0977411270142">
			<ele>41.5</ele>
			<time>2014-04-13T08:27:14Z</time>
		</trkpt>
		<trkpt lat="54.3090896606445" lon="13.0976505279541">
			<ele>41.7999992370605</ele>
			<time>2014-04-13T08:27:17Z</time>
		</trkpt>
		<trkpt lat="54.3090286254883" lon="13.0975723266602">
			<ele>42.5999984741211</ele>
			<time>2014-04-13T08:27:18Z</time>
		</trkpt>
		<trkpt lat="54.3089637756348" lon="13.097526550293">
			<ele>42.9000015258789</ele>
			<time>2014-04-13T08:27:20Z</time>
		</trkpt>
		<trkpt lat="54.3088874816895" lon="13.097508430481">
			<ele>42.4000015258789</ele>
			<time>2014-04-13T08:27:22Z</time>
		</trkpt>
		<trkpt lat="54.3088073730469" lon="13.0975027084351">
			<ele>42</ele>
			<time>2014-04-13T08:27:25Z</time>
		</trkpt>
		<trkpt lat="54.3087577819824" lon="13.0975284576416">
			<ele>41.7999992370605</ele>
			<time>2014-04-13T08:27:25Z</time>
		</trkpt>
		<trkpt lat="54.308650970459" lon="13.0976085662842">
			<ele>45</ele>
			<time>2014-04-13T08:27:27Z</time>
		</trkpt>
		<trkpt lat="54.3085823059082" lon="13.0977039337158">
			<ele>46.5</ele>
			<time>2014-04-13T08:27:28Z</time>
		</trkpt>
		<trkpt lat="54.3085250854492" lon="13.0977382659912">
			<ele>47.7999992370605</ele>
			<time>2014-04-13T08:27:29Z</time>
		</trkpt>
		<trkpt lat="54.3084259033203" lon="13.0977725982666">
			<ele>49.2000007629395</ele>
			<time>2014-04-13T08:27:31Z</time>
		</trkpt>
		<trkpt lat="54.3083724975586" lon="13.0977849960327">
			<ele>49</ele>
			<time>2014-04-13T08:27:32Z</time>
		</trkpt>
		<trkpt lat="54.3083190917969" lon="13.0977878570557">
			<ele>49</ele>
			<time>2014-04-13T08:27:33Z</time>
		</trkpt>
		<trkpt lat="54.3082656860352" lon="13.0977821350098">
			<ele>48.5</ele>
			<time>2014-04-13T08:27:34Z</time>
		</trkpt>
		<trkpt lat="54.3082160949707" lon="13.0977926254272">
			<ele>48.2999992370605</ele>
			<time>2014-04-13T08:27:35Z</time>
		</trkpt>
		<trkpt lat="54.308162689209" lon="13.0978002548218">
			<ele>48.5</ele>
			<time>2014-04-13T08:27:36Z</time>
		</trkpt>
		<trkpt lat="54.3081130981445" lon="13.0978078842163">
			<ele>48.2000007629395</ele>
			<time>2014-04-13T08:27:37Z</time>
		</trkpt>
		<trkpt lat="54.3080596923828" lon="13.0978116989136">
			<ele>47.5</ele>
			<time>2014-04-13T08:27:38Z</time>
		</trkpt>
		<trkpt lat="54.3080101013184" lon="13.0978193283081">
			<ele>47.5</ele>
			<time>2014-04-13T08:27:39Z</time>
		</trkpt>
		<trkpt lat="54.3079566955566" lon="13.0978336334229">
			<ele>47.2000007629395</ele>
			<time>2014-04-13T08:27:40Z</time>
		</trkpt>
		<trkpt lat="54.3079071044922" lon="13.0978441238403">
			<ele>47.0999984741211</ele>
			<time>2014-04-13T08:27:41Z</time>
		</trkpt>
		<trkpt lat="54.3078536987305" lon="13.0978565216064">
			<ele>46.5999984741211</ele>
			<time>2014-04-13T08:27:42Z</time>
		</trkpt>
		<trkpt lat="54.3078002929688" lon="13.0978717803955">
			<ele>46</ele>
			<time>2014-04-13T08:27:43Z</time>
		</trkpt>
		<trkpt lat="54.307746887207" lon="13.0978832244873">
			<ele>45.7000007629395</ele>
			<time>2014-04-13T08:27:44Z</time>
		</trkpt>
		<trkpt lat="54.307689666748" lon="13.0978908538818">
			<ele>45.2999992370605</ele>
			<time>2014-04-13T08:27:45Z</time>
		</trkpt>
		<trkpt lat="54.3076324462891" lon="13.0979013442993">
			<ele>45.5999984741211</ele>
			<time>2014-04-13T08:27:46Z</time>
		</trkpt>
		<trkpt lat="54.3075790405273" lon="13.0979061126709">
			<ele>45.7000007629395</ele>
			<time>2014-04-13T08:27:47Z</time>
		</trkpt>
		<trkpt lat="54.3075218200684" lon="13.0979089736938">
			<ele>45.5999984741211</ele>
			<time>2014-04-13T08:27:48Z</time>
		</trkpt>
		<trkpt lat="54.3074684143066" lon="13.0979328155518">
			<ele>45.5999984741211</ele>
			<time>2014-04-13T08:27:49Z</time>
		</trkpt>
		<trkpt lat="54.3074073791504" lon="13.0979509353638">
			<ele>45.5</ele>
			<time>2014-04-13T08:27:50Z</time>
		</trkpt>
		<trkpt lat="54.3073539733887" lon="13.0979661941528">
			<ele>45.4000015258789</ele>
			<time>2014-04-13T08:27:51Z</time>
		</trkpt>
		<trkpt lat="54.3073043823242" lon="13.0979986190796">
			<ele>45</ele>
			<time>2014-04-13T08:27:52Z</time>
		</trkpt>
		<trkpt lat="54.3072471618652" lon="13.0980014801025">
			<ele>44.7999992370605</ele>
			<time>2014-04-13T08:27:53Z</time>
		</trkpt>
		<trkpt lat="54.307186126709" lon="13.0980091094971">
			<ele>45.2999992370605</ele>
			<time>2014-04-13T08:27:54Z</time>
		</trkpt>
		<trkpt lat="54.3071403503418" lon="13.0979928970337">
			<ele>44.7000007629395</ele>
			<time>2014-04-13T08:27:55Z</time>
		</trkpt>
		<trkpt lat="54.3070869445801" lon="13.0980005264282">
			<ele>44.9000015258789</ele>
			<time>2014-04-13T08:27:56Z</time>
		</trkpt>
		<trkpt lat="54.3070373535156" lon="13.09801197052">
			<ele>45.0999984741211</ele>
			<time>2014-04-13T08:27:57Z</time>
		</trkpt>
		<trkpt lat="54.3069877624512" lon="13.0980043411255">
			<ele>45.7999992370605</ele>
			<time>2014-04-13T08:27:58Z</time>
		</trkpt>
		<trkpt lat="54.3069267272949" lon="13.0980424880981">
			<ele>45.5</ele>
			<time>2014-04-13T08:27:59Z</time>
		</trkpt>
		<trkpt lat="54.3068809509277" lon="13.0980453491211">
			<ele>45.9000015258789</ele>
			<time>2014-04-13T08:28:00Z</time>
		</trkpt>
		<trkpt lat="54.3067893981934" lon="13.0980548858643">
			<ele>45</ele>
			<time>2014-04-13T08:28:02Z</time>
		</trkpt>
		<trkpt lat="54.3067398071289" lon="13.0980653762817">
			<ele>44.7999992370605</ele>
			<time>2014-04-13T08:28:03Z</time>
		</trkpt>
		<trkpt lat="54.3066902160645" lon="13.0980701446533">
			<ele>44.7000007629395</ele>
			<time>2014-04-13T08:28:05Z</time>
		</trkpt>
		<trkpt lat="54.3066482543945" lon="13.0980815887451">
			<ele>44.9000015258789</ele>
			<time>2014-04-13T08:28:05Z</time>
		</trkpt>
		<trkpt lat="54.3065986633301" lon="13.0980949401855">
			<ele>45.2000007629395</ele>
			<time>2014-04-13T08:28:06Z</time>
		</trkpt>
		<trkpt lat="54.306510925293" lon="13.0980968475342">
			<ele>45.4000015258789</ele>
			<time>2014-04-13T08:28:08Z</time>
		</trkpt>
		<trkpt lat="54.3064613342285" lon="13.0980978012085">
			<ele>45.2000007629395</ele>
			<time>2014-04-13T08:28:09Z</time>
		</trkpt>
		<trkpt lat="54.3064117431641" lon="13.0980911254883">
			<ele>44.9000015258789</ele>
			<time>2014-04-13T08:28:10Z</time>
		</trkpt>
		<trkpt lat="54.3063621520996" lon="13.0980911254883">
			<ele>44.7999992370605</ele>
			<time>2014-04-13T08:28:11Z</time>
		</trkpt>
		<trkpt lat="54.3063125610352" lon="13.0980768203735">
			<ele>44.7000007629395</ele>
			<time>2014-04-13T08:28:12Z</time>
		</trkpt>
		<trkpt lat="54.306224822998" lon="13.0980272293091">
			<ele>44.4000015258789</ele>
			<time>2014-04-13T08:28:14Z</time>
		</trkpt>
		<trkpt lat="54.3061485290527" lon="13.0979499816895">
			<ele>44.5999984741211</ele>
			<time>2014-04-13T08:28:16Z</time>
		</trkpt>
		<trkpt lat="54.3060836791992" lon="13.0978717803955">
			<ele>44.4000015258789</ele>
			<time>2014-04-13T08:28:18Z</time>
		</trkpt>
		<trkpt lat="54.3060035705566" lon="13.0978050231934">
			<ele>44.0999984741211</ele>
			<time>2014-04-13T08:28:20Z</time>
		</trkpt>
		<trkpt lat="54.3059577941895" lon="13.0977830886841">
			<ele>44.2999992370605</ele>
			<time>2014-04-13T08:28:21Z</time>
		</trkpt>
		<trkpt lat="54.3059120178223" lon="13.0977582931519">
			<ele>43.4000015258789</ele>
			<time>2014-04-13T08:28:22Z</time>
		</trkpt>
		<trkpt lat="54.3058700561523" lon="13.097728729248">
			<ele>43.5999984741211</ele>
			<time>2014-04-13T08:28:23Z</time>
		</trkpt>
		<trkpt lat="54.3057861328125" lon="13.0976810455322">
			<ele>43.5</ele>
			<time>2014-04-13T08:28:25Z</time>
		</trkpt>
		<trkpt lat="54.3057060241699" lon="13.0976409912109">
			<ele>43.5999984741211</ele>
			<time>2014-04-13T08:28:27Z</time>
		</trkpt>
		<trkpt lat="54.3056297302246" lon="13.097580909729">
			<ele>43.2000007629395</ele>
			<time>2014-04-13T08:28:29Z</time>
		</trkpt>
		<trkpt lat="54.3055686950684" lon="13.0974912643433">
			<ele>43.7999992370605</ele>
			<time>2014-04-13T08:28:31Z</time>
		</trkpt>
		<trkpt lat="54.3054885864258" lon="13.0974359512329">
			<ele>43.0999984741211</ele>
			<time>2014-04-13T08:28:33Z</time>
		</trkpt>
		<trkpt lat="54.3054428100586" lon="13.0974235534668">
			<ele>43</ele>
			<time>2014-04-13T08:28:34Z</time>
		</trkpt>
		<trkpt lat="54.3053588867188" lon="13.0973863601685">
			<ele>42.5999984741211</ele>
			<time>2014-04-13T08:28:36Z</time>
		</trkpt>
		<trkpt lat="54.3052787780762" lon="13.0973358154297">
			<ele>41.9000015258789</ele>
			<time>2014-04-13T08:28:38Z</time>
		</trkpt>
		<trkpt lat="54.3051986694336" lon="13.0972719192505">
			<ele>42.2000007629395</ele>
			<time>2014-04-13T08:28:40Z</time>
		</trkpt>
		<trkpt lat="54.3051223754883" lon="13.0972156524658">
			<ele>41.2999992370605</ele>
			<time>2014-04-13T08:28:42Z</time>
		</trkpt>
		<trkpt lat="54.3050765991211" lon="13.0972003936768">
			<ele>41.9000015258789</ele>
			<time>2014-04-13T08:28:43Z</time>
		</trkpt>
		<trkpt lat="54.3049964904785" lon="13.0971565246582">
			<ele>42.2000007629395</ele>
			<time>2014-04-13T08:28:45Z</time>
		</trkpt>
		<trkpt lat="54.3049240112305" lon="13.097071647644">
			<ele>42.5999984741211</ele>
			<time>2014-04-13T08:28:47Z</time>
		</trkpt>
		<trkpt lat="54.3048477172852" lon="13.0970230102539">
			<ele>42.4000015258789</ele>
			<time>2014-04-13T08:28:49Z</time>
		</trkpt>
		<trkpt lat="54.3047714233398" lon="13.0969619750977">
			<ele>42.5</ele>
			<time>2014-04-13T08:28:51Z</time>
		</trkpt>
		<trkpt lat="54.3046989440918" lon="13.0968999862671">
			<ele>42.2999992370605</ele>
			<time>2014-04-13T08:28:53Z</time>
		</trkpt>
		<trkpt lat="54.3046188354492" lon="13.0968561172485">
			<ele>41.9000015258789</ele>
			<time>2014-04-13T08:28:55Z</time>
		</trkpt>
		<trkpt lat="54.3045501708984" lon="13.0967960357666">
			<ele>42.0999984741211</ele>
			<time>2014-04-13T08:28:57Z</time>
		</trkpt>
		<trkpt lat="54.3044738769531" lon="13.0967493057251">
			<ele>41.9000015258789</ele>
			<time>2014-04-13T08:28:59Z</time>
		</trkpt>
		<trkpt lat="54.3044013977051" lon="13.0966854095459">
			<ele>42</ele>
			<time>2014-04-13T08:29:01Z</time>
		</trkpt>
		<trkpt lat="54.3043251037598" lon="13.0966377258301">
			<ele>41.9000015258789</ele>
			<time>2014-04-13T08:29:04Z</time>
		</trkpt>
		<trkpt lat="54.3042449951172" lon="13.096583366394">
			<ele>42.2999992370605</ele>
			<time>2014-04-13T08:29:05Z</time>
		</trkpt>
		<trkpt lat="54.3041687011719" lon="13.0965251922607">
			<ele>42.0999984741211</ele>
			<time>2014-04-13T08:29:07Z</time>
		</trkpt>
		<trkpt lat="54.304126739502" lon="13.0964984893799">
			<ele>41.9000015258789</ele>
			<time>2014-04-13T08:29:08Z</time>
		</trkpt>
		<trkpt lat="54.3040466308594" lon="13.0964345932007">
			<ele>42.2000007629395</ele>
			<time>2014-04-13T08:29:10Z</time>
		</trkpt>
		<trkpt lat="54.3039665222168" lon="13.096381187439">
			<ele>42.2999992370605</ele>
			<time>2014-04-13T08:29:12Z</time>
		</trkpt>
		<trkpt lat="54.3038864135742" lon="13.0963201522827">
			<ele>42.4000015258789</ele>
			<time>2014-04-13T08:29:14Z</time>
		</trkpt>
		<trkpt lat="54.3038444519043" lon="13.0962924957275">
			<ele>42.2999992370605</ele>
			<time>2014-04-13T08:29:15Z</time>
		</trkpt>
		<trkpt lat="54.3038024902344" lon="13.096263885498">
			<ele>42.0999984741211</ele>
			<time>2014-04-13T08:29:16Z</time>
		</trkpt>
		<trkpt lat="54.3037605285645" lon="13.0962314605713">
			<ele>41.5999984741211</ele>
			<time>2014-04-13T08:29:17Z</time>
		</trkpt>
		<trkpt lat="54.3037109375" lon="13.0962018966675">
			<ele>41.4000015258789</ele>
			<time>2014-04-13T08:29:18Z</time>
		</trkpt>
		<trkpt lat="54.3036651611328" lon="13.0961637496948">
			<ele>41.2000007629395</ele>
			<time>2014-04-13T08:29:19Z</time>
		</trkpt>
		<trkpt lat="54.3036193847656" lon="13.0961303710938">
			<ele>40.9000015258789</ele>
			<time>2014-04-13T08:29:20Z</time>
		</trkpt>
		<trkpt lat="54.3035697937012" lon="13.0960865020752">
			<ele>40.2999992370605</ele>
			<time>2014-04-13T08:29:22Z</time>
		</trkpt>
		<trkpt lat="54.3035202026367" lon="13.0960502624512">
			<ele>39.7999992370605</ele>
			<time>2014-04-13T08:29:23Z</time>
		</trkpt>
		<trkpt lat="54.303466796875" lon="13.0960063934326">
			<ele>39.5999984741211</ele>
			<time>2014-04-13T08:29:24Z</time>
		</trkpt>
		<trkpt lat="54.3034133911133" lon="13.09596824646">
			<ele>39.4000015258789</ele>
			<time>2014-04-13T08:29:25Z</time>
		</trkpt>
		<trkpt lat="54.3033561706543" lon="13.0959253311157">
			<ele>39.4000015258789</ele>
			<time>2014-04-13T08:29:25Z</time>
		</trkpt>
		<trkpt lat="54.3032989501953" lon="13.0958881378174">
			<ele>39.5</ele>
			<time>2014-04-13T08:29:27Z</time>
		</trkpt>
		<trkpt lat="54.3032455444336" lon="13.0958442687988">
			<ele>39.5999984741211</ele>
			<time>2014-04-13T08:29:27Z</time>
		</trkpt>
		<trkpt lat="54.3031921386719" lon="13.0958032608032">
			<ele>39.0999984741211</ele>
			<time>2014-04-13T08:29:28Z</time>
		</trkpt>
		<trkpt lat="54.3031387329102" lon="13.095757484436">
			<ele>38.7999992370605</ele>
			<time>2014-04-13T08:29:29Z</time>
		</trkpt>
		<trkpt lat="54.3030853271484" lon="13.0957126617432">
			<ele>38.7999992370605</ele>
			<time>2014-04-13T08:29:30Z</time>
		</trkpt>
		<trkpt lat="54.303035736084" lon="13.0956716537476">
			<ele>38.5999984741211</ele>
			<time>2014-04-13T08:29:32Z</time>
		</trkpt>
		<trkpt lat="54.3029823303223" lon="13.0956296920776">
			<ele>38.5999984741211</ele>
			<time>2014-04-13T08:29:32Z</time>
		</trkpt>
		<trkpt lat="54.3029327392578" lon="13.0955820083618">
			<ele>38.7999992370605</ele>
			<time>2014-04-13T08:29:33Z</time>
		</trkpt>
		<trkpt lat="54.3028793334961" lon="13.0955381393433">
			<ele>38.9000015258789</ele>
			<time>2014-04-13T08:29:34Z</time>
		</trkpt>
		<trkpt lat="54.3028221130371" lon="13.0954933166504">
			<ele>38.7999992370605</ele>
			<time>2014-04-13T08:29:36Z</time>
		</trkpt>
		<trkpt lat="54.3027725219727" lon="13.0954551696777">
			<ele>38.4000015258789</ele>
			<time>2014-04-13T08:29:36Z</time>
		</trkpt>
		<trkpt lat="54.3027153015137" lon="13.0954303741455">
			<ele>38.2000007629395</ele>
			<time>2014-04-13T08:29:37Z</time>
		</trkpt>
		<trkpt lat="54.3026657104492" lon="13.0953941345215">
			<ele>38.5</ele>
			<time>2014-04-13T08:29:38Z</time>
		</trkpt>
		<trkpt lat="54.3026161193848" lon="13.0953636169434">
			<ele>38.0999984741211</ele>
			<time>2014-04-13T08:29:39Z</time>
		</trkpt>
		<trkpt lat="54.302562713623" lon="13.0953302383423">
			<ele>38.5</ele>
			<time>2014-04-13T08:29:40Z</time>
		</trkpt>
		<trkpt lat="54.3025131225586" lon="13.0952978134155">
			<ele>38.2999992370605</ele>
			<time>2014-04-13T08:29:41Z</time>
		</trkpt>
		<trkpt lat="54.3024597167969" lon="13.0952596664429">
			<ele>38.2000007629395</ele>
			<time>2014-04-13T08:29:42Z</time>
		</trkpt>
		<trkpt lat="54.3024101257324" lon="13.0952186584473">
			<ele>38.2999992370605</ele>
			<time>2014-04-13T08:29:43Z</time>
		</trkpt>
		<trkpt lat="54.302360534668" lon="13.0951805114746">
			<ele>38.2000007629395</ele>
			<time>2014-04-13T08:29:44Z</time>
		</trkpt>
		<trkpt lat="54.3023109436035" lon="13.095142364502">
			<ele>37.9000015258789</ele>
			<time>2014-04-13T08:29:45Z</time>
		</trkpt>
		<trkpt lat="54.3022613525391" lon="13.0951042175293">
			<ele>38</ele>
			<time>2014-04-13T08:29:46Z</time>
		</trkpt>
		<trkpt lat="54.3022117614746" lon="13.0950689315796">
			<ele>37.9000015258789</ele>
			<time>2014-04-13T08:29:47Z</time>
		</trkpt>
		<trkpt lat="54.3021659851074" lon="13.0950336456299">
			<ele>38</ele>
			<time>2014-04-13T08:29:48Z</time>
		</trkpt>
		<trkpt lat="54.302116394043" lon="13.0950031280518">
			<ele>37.9000015258789</ele>
			<time>2014-04-13T08:29:49Z</time>
		</trkpt>
		<trkpt lat="54.3020706176758" lon="13.0949687957764">
			<ele>38.0999984741211</ele>
			<time>2014-04-13T08:29:50Z</time>
		</trkpt>
		<trkpt lat="54.3020286560059" lon="13.0949354171753">
			<ele>38.2999992370605</ele>
			<time>2014-04-13T08:29:51Z</time>
		</trkpt>
		<trkpt lat="54.3019828796387" lon="13.094895362854">
			<ele>38.7999992370605</ele>
			<time>2014-04-13T08:29:53Z</time>
		</trkpt>
		<trkpt lat="54.301944732666" lon="13.0948467254639">
			<ele>38.9000015258789</ele>
			<time>2014-04-13T08:29:53Z</time>
		</trkpt>
		<trkpt lat="54.3019142150879" lon="13.0947866439819">
			<ele>38.7999992370605</ele>
			<time>2014-04-13T08:29:54Z</time>
		</trkpt>
		<trkpt lat="54.3018913269043" lon="13.0947217941284">
			<ele>38.5999984741211</ele>
			<time>2014-04-13T08:29:55Z</time>
		</trkpt>
		<trkpt lat="54.3018379211426" lon="13.0946102142334">
			<ele>39.0999984741211</ele>
			<time>2014-04-13T08:29:57Z</time>
		</trkpt>
		<trkpt lat="54.3017921447754" lon="13.0946073532104">
			<ele>38.7000007629395</ele>
			<time>2014-04-13T08:29:59Z</time>
		</trkpt>
		<trkpt lat="54.3017158508301" lon="13.094614982605">
			<ele>38.9000015258789</ele>
			<time>2014-04-13T08:30:01Z</time>
		</trkpt>
		<trkpt lat="54.3016700744629" lon="13.0946617126465">
			<ele>38.5999984741211</ele>
			<time>2014-04-13T08:30:03Z</time>
		</trkpt>
		<trkpt lat="54.3016510009766" lon="13.0947570800781">
			<ele>38.0999984741211</ele>
			<time>2014-04-13T08:30:05Z</time>
		</trkpt>
		<trkpt lat="54.3016242980957" lon="13.0948686599731">
			<ele>37.5999984741211</ele>
			<time>2014-04-13T08:30:07Z</time>
		</trkpt>
		<trkpt lat="54.3015632629395" lon="13.0949220657349">
			<ele>38.2000007629395</ele>
			<time>2014-04-13T08:30:09Z</time>
		</trkpt>
		<trkpt lat="54.3014907836914" lon="13.0948686599731">
			<ele>38.4000015258789</ele>
			<time>2014-04-13T08:30:11Z</time>
		</trkpt>
		<trkpt lat="54.3014144897461" lon="13.0948104858398">
			<ele>38.5</ele>
			<time>2014-04-13T08:30:13Z</time>
		</trkpt>
		<trkpt lat="54.3013343811035" lon="13.094747543335">
			<ele>38.5</ele>
			<time>2014-04-13T08:30:15Z</time>
		</trkpt>
		<trkpt lat="54.3012924194336" lon="13.0947189331055">
			<ele>38.4000015258789</ele>
			<time>2014-04-13T08:30:16Z</time>
		</trkpt>
		<trkpt lat="54.3012161254883" lon="13.0946645736694">
			<ele>38.5</ele>
			<time>2014-04-13T08:30:17Z</time>
		</trkpt>
		<trkpt lat="54.3011360168457" lon="13.094614982605">
			<ele>38.7999992370605</ele>
			<time>2014-04-13T08:30:20Z</time>
		</trkpt>
		<trkpt lat="54.3010559082031" lon="13.0945634841919">
			<ele>39.0999984741211</ele>
			<time>2014-04-13T08:30:22Z</time>
		</trkpt>
		<trkpt lat="54.3009757995605" lon="13.0945024490356">
			<ele>39.5999984741211</ele>
			<time>2014-04-13T08:30:24Z</time>
		</trkpt>
		<trkpt lat="54.300895690918" lon="13.0944480895996">
			<ele>39.7999992370605</ele>
			<time>2014-04-13T08:30:26Z</time>
		</trkpt>
		<trkpt lat="54.3008193969727" lon="13.0943870544434">
			<ele>39.9000015258789</ele>
			<time>2014-04-13T08:30:28Z</time>
		</trkpt>
		<trkpt lat="54.3007354736328" lon="13.0943269729614">
			<ele>39.7999992370605</ele>
			<time>2014-04-13T08:30:29Z</time>
		</trkpt>
		<trkpt lat="54.300651550293" lon="13.094274520874">
			<ele>39.4000015258789</ele>
			<time>2014-04-13T08:30:32Z</time>
		</trkpt>
		<trkpt lat="54.3005714416504" lon="13.0942125320435">
			<ele>39.4000015258789</ele>
			<time>2014-04-13T08:30:34Z</time>
		</trkpt>
		<trkpt lat="54.3004913330078" lon="13.0941495895386">
			<ele>39.2999992370605</ele>
			<time>2014-04-13T08:30:36Z</time>
		</trkpt>
		<trkpt lat="54.3004455566406" lon="13.0941162109375">
			<ele>39.5</ele>
			<time>2014-04-13T08:30:36Z</time>
		</trkpt>
		<trkpt lat="54.3003692626953" lon="13.0940561294556">
			<ele>39.7000007629395</ele>
			<time>2014-04-13T08:30:39Z</time>
		</trkpt>
		<trkpt lat="54.30029296875" lon="13.0939970016479">
			<ele>39.7000007629395</ele>
			<time>2014-04-13T08:30:41Z</time>
		</trkpt>
		<trkpt lat="54.3002510070801" lon="13.0939655303955">
			<ele>39.9000015258789</ele>
			<time>2014-04-13T08:30:42Z</time>
		</trkpt>
		<trkpt lat="54.3002090454102" lon="13.0939311981201">
			<ele>39.7999992370605</ele>
			<time>2014-04-13T08:30:42Z</time>
		</trkpt>
		<trkpt lat="54.3001289367676" lon="13.0938749313354">
			<ele>39.7000007629395</ele>
			<time>2014-04-13T08:30:45Z</time>
		</trkpt>
		<trkpt lat="54.3000869750977" lon="13.093846321106">
			<ele>39.9000015258789</ele>
			<time>2014-04-13T08:30:46Z</time>
		</trkpt>
		<trkpt lat="54.3000030517578" lon="13.0938014984131">
			<ele>39.9000015258789</ele>
			<time>2014-04-13T08:30:48Z</time>
		</trkpt>
		<trkpt lat="54.2999610900879" lon="13.0937805175781">
			<ele>39.7999992370605</ele>
			<time>2014-04-13T08:30:49Z</time>
		</trkpt>
		<trkpt lat="54.299877166748" lon="13.093731880188">
			<ele>39.9000015258789</ele>
			<time>2014-04-13T08:30:51Z</time>
		</trkpt>
		<trkpt lat="54.2997970581055" lon="13.0936889648438">
			<ele>40</ele>
			<time>2014-04-13T08:30:53Z</time>
		</trkpt>
		<trkpt lat="54.2997245788574" lon="13.0936527252197">
			<ele>39.9000015258789</ele>
			<time>2014-04-13T08:30:55Z</time>
		</trkpt>
		<trkpt lat="54.299674987793" lon="13.0936231613159">
			<ele>39.9000015258789</ele>
			<time>2014-04-13T08:30:57Z</time>
		</trkpt>
		<trkpt lat="54.2996253967285" lon="13.0935907363892">
			<ele>39.9000015258789</ele>
			<time>2014-04-13T08:30:59Z</time>
		</trkpt>
		<trkpt lat="54.2995872497559" lon="13.0935592651367">
			<ele>40.0999984741211</ele>
			<time>2014-04-13T08:31:02Z</time>
		</trkpt>
		<trkpt lat="54.2995262145996" lon="13.0935144424438">
			<ele>40.2000007629395</ele>
			<time>2014-04-13T08:31:05Z</time>
		</trkpt>
		<trkpt lat="54.2994766235352" lon="13.0934829711914">
			<ele>39.7000007629395</ele>
			<time>2014-04-13T08:31:09Z</time>
		</trkpt>
		<trkpt lat="54.2994232177734" lon="13.0934419631958">
			<ele>41.2999992370605</ele>
			<time>2014-04-13T08:31:39Z</time>
		</trkpt>
		<trkpt lat="54.299373626709" lon="13.0934028625488">
			<ele>41.0999984741211</ele>
			<time>2014-04-13T08:31:41Z</time>
		</trkpt>
		<trkpt lat="54.2993202209473" lon="13.093358039856">
			<ele>40.7000007629395</ele>
			<time>2014-04-13T08:31:43Z</time>
		</trkpt>
		<trkpt lat="54.2992630004883" lon="13.0933027267456">
			<ele>40.2999992370605</ele>
			<time>2014-04-13T08:31:45Z</time>
		</trkpt>
		<trkpt lat="54.2991905212402" lon="13.09326171875">
			<ele>39.5999984741211</ele>
			<time>2014-04-13T08:31:47Z</time>
		</trkpt>
		<trkpt lat="54.2991027832031" lon="13.0932245254517">
			<ele>39.5</ele>
			<time>2014-04-13T08:31:49Z</time>
		</trkpt>
		<trkpt lat="54.2990608215332" lon="13.0931987762451">
			<ele>39.2999992370605</ele>
			<time>2014-04-13T08:31:50Z</time>
		</trkpt>
		<trkpt lat="54.2989807128906" lon="13.0931606292725">
			<ele>39.7999992370605</ele>
			<time>2014-04-13T08:31:52Z</time>
		</trkpt>
		<trkpt lat="54.2989082336426" lon="13.0931129455566">
			<ele>40.2000007629395</ele>
			<time>2014-04-13T08:31:54Z</time>
		</trkpt>
		<trkpt lat="54.2988471984863" lon="13.0930490493774">
			<ele>39.5999984741211</ele>
			<time>2014-04-13T08:31:56Z</time>
		</trkpt>
		<trkpt lat="54.298770904541" lon="13.0929985046387">
			<ele>40</ele>
			<time>2014-04-13T08:31:57Z</time>
		</trkpt>
		<trkpt lat="54.2987060546875" lon="13.0929365158081">
			<ele>40.2999992370605</ele>
			<time>2014-04-13T08:32:00Z</time>
		</trkpt>
		<trkpt lat="54.2986450195313" lon="13.0928621292114">
			<ele>40.7000007629395</ele>
			<time>2014-04-13T08:32:02Z</time>
		</trkpt>
		<trkpt lat="54.2985877990723" lon="13.0927886962891">
			<ele>41.0999984741211</ele>
			<time>2014-04-13T08:32:04Z</time>
		</trkpt>
		<trkpt lat="54.2985229492188" lon="13.0927209854126">
			<ele>41.0999984741211</ele>
			<time>2014-04-13T08:32:06Z</time>
		</trkpt>
		<trkpt lat="54.2984504699707" lon="13.0926675796509">
			<ele>40.5999984741211</ele>
			<time>2014-04-13T08:32:08Z</time>
		</trkpt>
		<trkpt lat="54.2983741760254" lon="13.0926160812378">
			<ele>40.5</ele>
			<time>2014-04-13T08:32:10Z</time>
		</trkpt>
		<trkpt lat="54.2982902526855" lon="13.0925693511963">
			<ele>38.7999992370605</ele>
			<time>2014-04-13T08:32:12Z</time>
		</trkpt>
		<trkpt lat="54.2982444763184" lon="13.0925312042236">
			<ele>39.7000007629395</ele>
			<time>2014-04-13T08:32:13Z</time>
		</trkpt>
		<trkpt lat="54.2981605529785" lon="13.0924816131592">
			<ele>39.4000015258789</ele>
			<time>2014-04-13T08:32:14Z</time>
		</trkpt>
		<trkpt lat="54.2980804443359" lon="13.0924425125122">
			<ele>39.2999992370605</ele>
			<time>2014-04-13T08:32:17Z</time>
		</trkpt>
		<trkpt lat="54.2980079650879" lon="13.0923843383789">
			<ele>39.2999992370605</ele>
			<time>2014-04-13T08:32:19Z</time>
		</trkpt>
		<trkpt lat="54.2979354858398" lon="13.0923433303833">
			<ele>39</ele>
			<time>2014-04-13T08:32:21Z</time>
		</trkpt>
		<trkpt lat="54.2978591918945" lon="13.0923042297363">
			<ele>38.5999984741211</ele>
			<time>2014-04-13T08:32:23Z</time>
		</trkpt>
		<trkpt lat="54.2977867126465" lon="13.0922660827637">
			<ele>38.7000007629395</ele>
			<time>2014-04-13T08:32:25Z</time>
		</trkpt>
		<trkpt lat="54.2977180480957" lon="13.092230796814">
			<ele>38.9000015258789</ele>
			<time>2014-04-13T08:32:27Z</time>
		</trkpt>
		<trkpt lat="54.2976455688477" lon="13.0921907424927">
			<ele>38.7000007629395</ele>
			<time>2014-04-13T08:32:28Z</time>
		</trkpt>
		<trkpt lat="54.2975273132324" lon="13.0921363830566">
			<ele>38.7999992370605</ele>
			<time>2014-04-13T08:32:32Z</time>
		</trkpt>
		<trkpt lat="54.2974548339844" lon="13.0921049118042">
			<ele>39.4000015258789</ele>
			<time>2014-04-13T08:32:37Z</time>
		</trkpt>
		<trkpt lat="54.2973136901855" lon="13.0920219421387">
			<ele>39.5999984741211</ele>
			<time>2014-04-13T08:32:38Z</time>
		</trkpt>
		<trkpt lat="54.2972373962402" lon="13.0919761657715">
			<ele>40</ele>
			<time>2014-04-13T08:32:40Z</time>
		</trkpt>
		<trkpt lat="54.2971305847168" lon="13.0919275283813">
			<ele>40</ele>
			<time>2014-04-13T08:32:43Z</time>
		</trkpt>
		<trkpt lat="54.2970542907715" lon="13.0918846130371">
			<ele>40.2000007629395</ele>
			<time>2014-04-13T08:32:45Z</time>
		</trkpt>
		<trkpt lat="54.2969856262207" lon="13.0918483734131">
			<ele>40.2999992370605</ele>
			<time>2014-04-13T08:32:47Z</time>
		</trkpt>
		<trkpt lat="54.2969093322754" lon="13.0918169021606">
			<ele>40.4000015258789</ele>
			<time>2014-04-13T08:32:49Z</time>
		</trkpt>
		<trkpt lat="54.2968368530273" lon="13.0917806625366">
			<ele>41.0999984741211</ele>
			<time>2014-04-13T08:32:51Z</time>
		</trkpt>
		<trkpt lat="54.296760559082" lon="13.0917692184448">
			<ele>41</ele>
			<time>2014-04-13T08:32:53Z</time>
		</trkpt>
		<trkpt lat="54.2966957092285" lon="13.0917692184448">
			<ele>40.0999984741211</ele>
			<time>2014-04-13T08:32:55Z</time>
		</trkpt>
		<trkpt lat="54.2966270446777" lon="13.0917472839355">
			<ele>39.7000007629395</ele>
			<time>2014-04-13T08:32:57Z</time>
		</trkpt>
		<trkpt lat="54.2965507507324" lon="13.0917329788208">
			<ele>39.9000015258789</ele>
			<time>2014-04-13T08:32:59Z</time>
		</trkpt>
		<trkpt lat="54.2964744567871" lon="13.0917224884033">
			<ele>40.5999984741211</ele>
			<time>2014-04-13T08:33:01Z</time>
		</trkpt>
		<trkpt lat="54.2964057922363" lon="13.0917148590088">
			<ele>40.7000007629395</ele>
			<time>2014-04-13T08:33:03Z</time>
		</trkpt>
		<trkpt lat="54.2963333129883" lon="13.0917053222656">
			<ele>40.9000015258789</ele>
			<time>2014-04-13T08:33:05Z</time>
		</trkpt>
		<trkpt lat="54.2962608337402" lon="13.0916929244995">
			<ele>41</ele>
			<time>2014-04-13T08:33:07Z</time>
		</trkpt>
		<trkpt lat="54.2961921691895" lon="13.0916814804077">
			<ele>41.5999984741211</ele>
			<time>2014-04-13T08:33:09Z</time>
		</trkpt>
		<trkpt lat="54.2961235046387" lon="13.0916757583618">
			<ele>41.9000015258789</ele>
			<time>2014-04-13T08:33:10Z</time>
		</trkpt>
		<trkpt lat="54.2960548400879" lon="13.0916728973389">
			<ele>42.2000007629395</ele>
			<time>2014-04-13T08:33:13Z</time>
		</trkpt>
		<trkpt lat="54.2959785461426" lon="13.09166431427">
			<ele>42.7999992370605</ele>
			<time>2014-04-13T08:33:14Z</time>
		</trkpt>
		<trkpt lat="54.2959098815918" lon="13.091667175293">
			<ele>43</ele>
			<time>2014-04-13T08:33:16Z</time>
		</trkpt>
		<trkpt lat="54.295841217041" lon="13.0916719436646">
			<ele>43.4000015258789</ele>
			<time>2014-04-13T08:33:18Z</time>
		</trkpt>
		<trkpt lat="54.2957763671875" lon="13.0916738510132">
			<ele>44.0999984741211</ele>
			<time>2014-04-13T08:33:20Z</time>
		</trkpt>
		<trkpt lat="54.2957077026367" lon="13.0916757583618">
			<ele>44.4000015258789</ele>
			<time>2014-04-13T08:33:22Z</time>
		</trkpt>
		<trkpt lat="54.2956390380859" lon="13.0916748046875">
			<ele>44.4000015258789</ele>
			<time>2014-04-13T08:33:24Z</time>
		</trkpt>
		<trkpt lat="54.2955703735352" lon="13.0916805267334">
			<ele>44.2999992370605</ele>
			<time>2014-04-13T08:33:26Z</time>
		</trkpt>
		<trkpt lat="54.2954940795898" lon="13.0916833877563">
			<ele>44.2000007629395</ele>
			<time>2014-04-13T08:33:28Z</time>
		</trkpt>
		<trkpt lat="54.2954254150391" lon="13.0916843414307">
			<ele>44.2000007629395</ele>
			<time>2014-04-13T08:33:30Z</time>
		</trkpt>
		<trkpt lat="54.295352935791" lon="13.0916891098022">
			<ele>44.5</ele>
			<time>2014-04-13T08:33:32Z</time>
		</trkpt>
		<trkpt lat="54.295280456543" lon="13.0916986465454">
			<ele>44.5</ele>
			<time>2014-04-13T08:33:34Z</time>
		</trkpt>
		<trkpt lat="54.2952079772949" lon="13.0917119979858">
			<ele>44.7999992370605</ele>
			<time>2014-04-13T08:33:36Z</time>
		</trkpt>
		<trkpt lat="54.2951354980469" lon="13.0917177200317">
			<ele>44.7999992370605</ele>
			<time>2014-04-13T08:33:38Z</time>
		</trkpt>
		<trkpt lat="54.2950630187988" lon="13.0917301177979">
			<ele>44.9000015258789</ele>
			<time>2014-04-13T08:33:40Z</time>
		</trkpt>
		<trkpt lat="54.2949905395508" lon="13.0917510986328">
			<ele>45.0999984741211</ele>
			<time>2014-04-13T08:33:42Z</time>
		</trkpt>
		<trkpt lat="54.2949180603027" lon="13.0917730331421">
			<ele>45.2000007629395</ele>
			<time>2014-04-13T08:33:44Z</time>
		</trkpt>
		<trkpt lat="54.2948455810547" lon="13.0917949676514">
			<ele>45.2999992370605</ele>
			<time>2014-04-13T08:33:46Z</time>
		</trkpt>
		<trkpt lat="54.2947654724121" lon="13.0918159484863">
			<ele>45.5</ele>
			<time>2014-04-13T08:33:48Z</time>
		</trkpt>
		<trkpt lat="54.2946929931641" lon="13.0918455123901">
			<ele>45.9000015258789</ele>
			<time>2014-04-13T08:33:50Z</time>
		</trkpt>
		<trkpt lat="54.2946128845215" lon="13.0918731689453">
			<ele>46.0999984741211</ele>
			<time>2014-04-13T08:33:52Z</time>
		</trkpt>
		<trkpt lat="54.2945327758789" lon="13.0919027328491">
			<ele>46.2000007629395</ele>
			<time>2014-04-13T08:33:54Z</time>
		</trkpt>
		<trkpt lat="54.2944488525391" lon="13.0919256210327">
			<ele>46.2999992370605</ele>
			<time>2014-04-13T08:33:56Z</time>
		</trkpt>
		<trkpt lat="54.2943687438965" lon="13.0919599533081">
			<ele>46.7000007629395</ele>
			<time>2014-04-13T08:33:58Z</time>
		</trkpt>
		<trkpt lat="54.2942848205566" lon="13.0919885635376">
			<ele>46.9000015258789</ele>
			<time>2014-04-13T08:34:00Z</time>
		</trkpt>
		<trkpt lat="54.2942008972168" lon="13.0920181274414">
			<ele>47.0999984741211</ele>
			<time>2014-04-13T08:34:02Z</time>
		</trkpt>
		<trkpt lat="54.294116973877" lon="13.0920562744141">
			<ele>47.0999984741211</ele>
			<time>2014-04-13T08:34:04Z</time>
		</trkpt>
		<trkpt lat="54.2940368652344" lon="13.0920925140381">
			<ele>47.2000007629395</ele>
			<time>2014-04-13T08:34:06Z</time>
		</trkpt>
		<trkpt lat="54.2939643859863" lon="13.0921220779419">
			<ele>47.5</ele>
			<time>2014-04-13T08:34:08Z</time>
		</trkpt>
		<trkpt lat="54.2939262390137" lon="13.0920877456665">
			<ele>47.2999992370605</ele>
			<time>2014-04-13T08:34:09Z</time>
		</trkpt>
		<trkpt lat="54.2938461303711" lon="13.0920534133911">
			<ele>47.4000015258789</ele>
			<time>2014-04-13T08:34:11Z</time>
		</trkpt>
		<trkpt lat="54.293758392334" lon="13.09206199646">
			<ele>47.2000007629395</ele>
			<time>2014-04-13T08:34:13Z</time>
		</trkpt>
		<trkpt lat="54.2936782836914" lon="13.0921096801758">
			<ele>47.2999992370605</ele>
			<time>2014-04-13T08:34:15Z</time>
		</trkpt>
		<trkpt lat="54.2935981750488" lon="13.0921697616577">
			<ele>47.9000015258789</ele>
			<time>2014-04-13T08:34:17Z</time>
		</trkpt>
		<trkpt lat="54.2935218811035" lon="13.0922288894653">
			<ele>47.9000015258789</ele>
			<time>2014-04-13T08:34:19Z</time>
		</trkpt>
		<trkpt lat="54.2934455871582" lon="13.0922861099243">
			<ele>48.4000015258789</ele>
			<time>2014-04-13T08:34:21Z</time>
		</trkpt>
		<trkpt lat="54.2933616638184" lon="13.0923337936401">
			<ele>48.2999992370605</ele>
			<time>2014-04-13T08:34:23Z</time>
		</trkpt>
		<trkpt lat="54.2932815551758" lon="13.0923891067505">
			<ele>48.0999984741211</ele>
			<time>2014-04-13T08:34:25Z</time>
		</trkpt>
		<trkpt lat="54.2931976318359" lon="13.0924377441406">
			<ele>48.5</ele>
			<time>2014-04-13T08:34:27Z</time>
		</trkpt>
		<trkpt lat="54.2931175231934" lon="13.0924816131592">
			<ele>48.7000007629395</ele>
			<time>2014-04-13T08:34:29Z</time>
		</trkpt>
		<trkpt lat="54.2930755615234" lon="13.0925149917603">
			<ele>49.2999992370605</ele>
			<time>2014-04-13T08:34:30Z</time>
		</trkpt>
		<trkpt lat="54.2929954528809" lon="13.0925722122192">
			<ele>49.7000007629395</ele>
			<time>2014-04-13T08:34:32Z</time>
		</trkpt>
		<trkpt lat="54.2929496765137" lon="13.0925827026367">
			<ele>50</ele>
			<time>2014-04-13T08:34:33Z</time>
		</trkpt>
		<trkpt lat="54.2928657531738" lon="13.0926160812378">
			<ele>50.2000007629395</ele>
			<time>2014-04-13T08:34:35Z</time>
		</trkpt>
		<trkpt lat="54.292797088623" lon="13.0926637649536">
			<ele>50.2000007629395</ele>
			<time>2014-04-13T08:34:38Z</time>
		</trkpt>
		<trkpt lat="54.2927207946777" lon="13.0927085876465">
			<ele>50.7000007629395</ele>
			<time>2014-04-13T08:34:39Z</time>
		</trkpt>
		<trkpt lat="54.2926559448242" lon="13.0927772521973">
			<ele>50.7999992370605</ele>
			<time>2014-04-13T08:34:41Z</time>
		</trkpt>
		<trkpt lat="54.2925834655762" lon="13.0928449630737">
			<ele>51.2000007629395</ele>
			<time>2014-04-13T08:34:43Z</time>
		</trkpt>
		<trkpt lat="54.2925109863281" lon="13.0929088592529">
			<ele>51.2999992370605</ele>
			<time>2014-04-13T08:34:46Z</time>
		</trkpt>
		<trkpt lat="54.2924346923828" lon="13.0929584503174">
			<ele>51.5999984741211</ele>
			<time>2014-04-13T08:34:47Z</time>
		</trkpt>
		<trkpt lat="54.2923622131348" lon="13.0930118560791">
			<ele>51.7000007629395</ele>
			<time>2014-04-13T08:34:49Z</time>
		</trkpt>
		<trkpt lat="54.2922897338867" lon="13.093056678772">
			<ele>51.7999992370605</ele>
			<time>2014-04-13T08:34:52Z</time>
		</trkpt>
		<trkpt lat="54.2922172546387" lon="13.0931034088135">
			<ele>51.9000015258789</ele>
			<time>2014-04-13T08:34:54Z</time>
		</trkpt>
		<trkpt lat="54.2921485900879" lon="13.093147277832">
			<ele>52.0999984741211</ele>
			<time>2014-04-13T08:34:55Z</time>
		</trkpt>
		<trkpt lat="54.2920761108398" lon="13.0931921005249">
			<ele>52.5</ele>
			<time>2014-04-13T08:34:57Z</time>
		</trkpt>
		<trkpt lat="54.2920074462891" lon="13.0932350158691">
			<ele>52.5999984741211</ele>
			<time>2014-04-13T08:34:59Z</time>
		</trkpt>
		<trkpt lat="54.291934967041" lon="13.0932722091675">
			<ele>52.5</ele>
			<time>2014-04-13T08:35:02Z</time>
		</trkpt>
		<trkpt lat="54.2918701171875" lon="13.0933170318604">
			<ele>52.5</ele>
			<time>2014-04-13T08:35:03Z</time>
		</trkpt>
		<trkpt lat="54.2918014526367" lon="13.0933618545532">
			<ele>52.2000007629395</ele>
			<time>2014-04-13T08:35:05Z</time>
		</trkpt>
		<trkpt lat="54.2917289733887" lon="13.0934114456177">
			<ele>52</ele>
			<time>2014-04-13T08:35:07Z</time>
		</trkpt>
		<trkpt lat="54.2916641235352" lon="13.093451499939">
			<ele>51.7000007629395</ele>
			<time>2014-04-13T08:35:10Z</time>
		</trkpt>
		<trkpt lat="54.2915878295898" lon="13.0934829711914">
			<ele>51.2999992370605</ele>
			<time>2014-04-13T08:35:11Z</time>
		</trkpt>
		<trkpt lat="54.2915153503418" lon="13.0935173034668">
			<ele>51.4000015258789</ele>
			<time>2014-04-13T08:35:13Z</time>
		</trkpt>
		<trkpt lat="54.2914428710938" lon="13.0935640335083">
			<ele>51.5999984741211</ele>
			<time>2014-04-13T08:35:15Z</time>
		</trkpt>
		<trkpt lat="54.2913703918457" lon="13.0936136245728">
			<ele>52.0999984741211</ele>
			<time>2014-04-13T08:35:18Z</time>
		</trkpt>
		<trkpt lat="54.2912940979004" lon="13.0936756134033">
			<ele>52.4000015258789</ele>
			<time>2014-04-13T08:35:19Z</time>
		</trkpt>
		<trkpt lat="54.2912292480469" lon="13.0937328338623">
			<ele>52.7000007629395</ele>
			<time>2014-04-13T08:35:21Z</time>
		</trkpt>
		<trkpt lat="54.2911605834961" lon="13.0937795639038">
			<ele>53.2000007629395</ele>
			<time>2014-04-13T08:35:23Z</time>
		</trkpt>
		<trkpt lat="54.2910919189453" lon="13.0938339233398">
			<ele>53.7000007629395</ele>
			<time>2014-04-13T08:35:26Z</time>
		</trkpt>
		<trkpt lat="54.2910118103027" lon="13.0938835144043">
			<ele>53.4000015258789</ele>
			<time>2014-04-13T08:35:27Z</time>
		</trkpt>
		<trkpt lat="54.2909278869629" lon="13.0939435958862">
			<ele>53.2000007629395</ele>
			<time>2014-04-13T08:35:29Z</time>
		</trkpt>
		<trkpt lat="54.290885925293" lon="13.0939712524414">
			<ele>53.5999984741211</ele>
			<time>2014-04-13T08:35:30Z</time>
		</trkpt>
		<trkpt lat="54.2908325195313" lon="13.0939998626709">
			<ele>53.4000015258789</ele>
			<time>2014-04-13T08:35:31Z</time>
		</trkpt>
		<trkpt lat="54.2907867431641" lon="13.0940246582031">
			<ele>53.5</ele>
			<time>2014-04-13T08:35:33Z</time>
		</trkpt>
		<trkpt lat="54.2907066345215" lon="13.0940713882446">
			<ele>53.7000007629395</ele>
			<time>2014-04-13T08:35:34Z</time>
		</trkpt>
		<trkpt lat="54.2906303405762" lon="13.0941257476807">
			<ele>54</ele>
			<time>2014-04-13T08:35:36Z</time>
		</trkpt>
		<trkpt lat="54.2905502319336" lon="13.0941667556763">
			<ele>53.5</ele>
			<time>2014-04-13T08:35:38Z</time>
		</trkpt>
		<trkpt lat="54.290470123291" lon="13.0942010879517">
			<ele>53.4000015258789</ele>
			<time>2014-04-13T08:35:40Z</time>
		</trkpt>
		<trkpt lat="54.2904014587402" lon="13.0942344665527">
			<ele>52.7000007629395</ele>
			<time>2014-04-13T08:35:43Z</time>
		</trkpt>
		<trkpt lat="54.2903480529785" lon="13.0942907333374">
			<ele>52.5</ele>
			<time>2014-04-13T08:35:44Z</time>
		</trkpt>
		<trkpt lat="54.2902755737305" lon="13.0943441390991">
			<ele>52.7999992370605</ele>
			<time>2014-04-13T08:35:47Z</time>
		</trkpt>
		<trkpt lat="54.290210723877" lon="13.094386100769">
			<ele>52.9000015258789</ele>
			<time>2014-04-13T08:35:49Z</time>
		</trkpt>
		<trkpt lat="54.2901496887207" lon="13.0944709777832">
			<ele>53</ele>
			<time>2014-04-13T08:35:50Z</time>
		</trkpt>
		<trkpt lat="54.2900810241699" lon="13.0945348739624">
			<ele>53.7000007629395</ele>
			<time>2014-04-13T08:35:52Z</time>
		</trkpt>
		<trkpt lat="54.2899932861328" lon="13.0945835113525">
			<ele>53.7000007629395</ele>
			<time>2014-04-13T08:35:54Z</time>
		</trkpt>
		<trkpt lat="54.2899513244629" lon="13.0946102142334">
			<ele>53.5</ele>
			<time>2014-04-13T08:35:55Z</time>
		</trkpt>
		<trkpt lat="54.289909362793" lon="13.0946378707886">
			<ele>53.4000015258789</ele>
			<time>2014-04-13T08:35:57Z</time>
		</trkpt>
		<trkpt lat="54.2898635864258" lon="13.0946702957153">
			<ele>53.0999984741211</ele>
			<time>2014-04-13T08:35:58Z</time>
		</trkpt>
		<trkpt lat="54.2897796630859" lon="13.0947132110596">
			<ele>53.2999992370605</ele>
			<time>2014-04-13T08:35:59Z</time>
		</trkpt>
		<trkpt lat="54.2896919250488" lon="13.0947694778442">
			<ele>53.2000007629395</ele>
			<time>2014-04-13T08:36:01Z</time>
		</trkpt>
		<trkpt lat="54.2896461486816" lon="13.0948028564453">
			<ele>52.9000015258789</ele>
			<time>2014-04-13T08:36:02Z</time>
		</trkpt>
		<trkpt lat="54.2896041870117" lon="13.0948333740234">
			<ele>53</ele>
			<time>2014-04-13T08:36:03Z</time>
		</trkpt>
		<trkpt lat="54.2895240783691" lon="13.0948963165283">
			<ele>53.4000015258789</ele>
			<time>2014-04-13T08:36:05Z</time>
		</trkpt>
		<trkpt lat="54.289436340332" lon="13.0949487686157">
			<ele>53</ele>
			<time>2014-04-13T08:36:07Z</time>
		</trkpt>
		<trkpt lat="54.2893943786621" lon="13.0949792861938">
			<ele>53.4000015258789</ele>
			<time>2014-04-13T08:36:08Z</time>
		</trkpt>
		<trkpt lat="54.2893486022949" lon="13.0950136184692">
			<ele>53.4000015258789</ele>
			<time>2014-04-13T08:36:09Z</time>
		</trkpt>
		<trkpt lat="54.2893028259277" lon="13.0950422286987">
			<ele>53.5</ele>
			<time>2014-04-13T08:36:10Z</time>
		</trkpt>
		<trkpt lat="54.2892532348633" lon="13.0950717926025">
			<ele>53.2000007629395</ele>
			<time>2014-04-13T08:36:11Z</time>
		</trkpt>
		<trkpt lat="54.2892112731934" lon="13.095100402832">
			<ele>53.0999984741211</ele>
			<time>2014-04-13T08:36:12Z</time>
		</trkpt>
		<trkpt lat="54.2891616821289" lon="13.0951290130615">
			<ele>52.9000015258789</ele>
			<time>2014-04-13T08:36:14Z</time>
		</trkpt>
		<trkpt lat="54.2891159057617" lon="13.0951566696167">
			<ele>52.7000007629395</ele>
			<time>2014-04-13T08:36:14Z</time>
		</trkpt>
		<trkpt lat="54.2890701293945" lon="13.0951919555664">
			<ele>52.7000007629395</ele>
			<time>2014-04-13T08:36:15Z</time>
		</trkpt>
		<trkpt lat="54.2890205383301" lon="13.0952215194702">
			<ele>52.7999992370605</ele>
			<time>2014-04-13T08:36:16Z</time>
		</trkpt>
		<trkpt lat="54.2889747619629" lon="13.095253944397">
			<ele>52.9000015258789</ele>
			<time>2014-04-13T08:36:17Z</time>
		</trkpt>
		<trkpt lat="54.2889251708984" lon="13.0952854156494">
			<ele>52.2999992370605</ele>
			<time>2014-04-13T08:36:19Z</time>
		</trkpt>
		<trkpt lat="54.2888793945313" lon="13.0953168869019">
			<ele>52.2000007629395</ele>
			<time>2014-04-13T08:36:20Z</time>
		</trkpt>
		<trkpt lat="54.2888298034668" lon="13.0953502655029">
			<ele>52.5</ele>
			<time>2014-04-13T08:36:20Z</time>
		</trkpt>
		<trkpt lat="54.2887840270996" lon="13.0953855514526">
			<ele>52.0999984741211</ele>
			<time>2014-04-13T08:36:21Z</time>
		</trkpt>
		<trkpt lat="54.2887344360352" lon="13.0954208374023">
			<ele>52.2000007629395</ele>
			<time>2014-04-13T08:36:22Z</time>
		</trkpt>
		<trkpt lat="54.2886848449707" lon="13.0954504013062">
			<ele>52.2999992370605</ele>
			<time>2014-04-13T08:36:23Z</time>
		</trkpt>
		<trkpt lat="54.2886352539063" lon="13.09547996521">
			<ele>52.2999992370605</ele>
			<time>2014-04-13T08:36:24Z</time>
		</trkpt>
		<trkpt lat="54.2885856628418" lon="13.0955123901367">
			<ele>52.4000015258789</ele>
			<time>2014-04-13T08:36:25Z</time>
		</trkpt>
		<trkpt lat="54.2885398864746" lon="13.0955457687378">
			<ele>52.2000007629395</ele>
			<time>2014-04-13T08:36:26Z</time>
		</trkpt>
		<trkpt lat="54.2884902954102" lon="13.0955829620361">
			<ele>52</ele>
			<time>2014-04-13T08:36:28Z</time>
		</trkpt>
		<trkpt lat="54.2884407043457" lon="13.0956144332886">
			<ele>51.9000015258789</ele>
			<time>2014-04-13T08:36:28Z</time>
		</trkpt>
		<trkpt lat="54.2883949279785" lon="13.0956354141235">
			<ele>52</ele>
			<time>2014-04-13T08:36:29Z</time>
		</trkpt>
		<trkpt lat="54.2883415222168" lon="13.0956211090088">
			<ele>51.5999984741211</ele>
			<time>2014-04-13T08:36:30Z</time>
		</trkpt>
		<trkpt lat="54.2882919311523" lon="13.0955791473389">
			<ele>51.7000007629395</ele>
			<time>2014-04-13T08:36:31Z</time>
		</trkpt>
		<trkpt lat="54.2882614135742" lon="13.095498085022">
			<ele>51.5</ele>
			<time>2014-04-13T08:36:32Z</time>
		</trkpt>
		<trkpt lat="54.2882385253906" lon="13.0954036712646">
			<ele>51.2000007629395</ele>
			<time>2014-04-13T08:36:33Z</time>
		</trkpt>
		<trkpt lat="54.2882232666016" lon="13.0953168869019">
			<ele>51</ele>
			<time>2014-04-13T08:36:35Z</time>
		</trkpt>
		<trkpt lat="54.2882118225098" lon="13.0951652526855">
			<ele>49.4000015258789</ele>
			<time>2014-04-13T08:36:36Z</time>
		</trkpt>
		<trkpt lat="54.2881965637207" lon="13.0950727462769">
			<ele>49.4000015258789</ele>
			<time>2014-04-13T08:36:38Z</time>
		</trkpt>
		<trkpt lat="54.2881774902344" lon="13.0949859619141">
			<ele>48.7000007629395</ele>
			<time>2014-04-13T08:36:38Z</time>
		</trkpt>
		<trkpt lat="54.2881622314453" lon="13.0949068069458">
			<ele>48.0999984741211</ele>
			<time>2014-04-13T08:36:39Z</time>
		</trkpt>
		<trkpt lat="54.2881469726563" lon="13.094822883606">
			<ele>48.2000007629395</ele>
			<time>2014-04-13T08:36:40Z</time>
		</trkpt>
		<trkpt lat="54.2881164550781" lon="13.0946588516235">
			<ele>48.4000015258789</ele>
			<time>2014-04-13T08:36:42Z</time>
		</trkpt>
		<trkpt lat="54.2881011962891" lon="13.0945558547974">
			<ele>48</ele>
			<time>2014-04-13T08:36:43Z</time>
		</trkpt>
		<trkpt lat="54.2880821228027" lon="13.0944719314575">
			<ele>48.0999984741211</ele>
			<time>2014-04-13T08:36:44Z</time>
		</trkpt>
		<trkpt lat="54.2880668640137" lon="13.0943908691406">
			<ele>48.5999984741211</ele>
			<time>2014-04-13T08:36:45Z</time>
		</trkpt>
		<trkpt lat="54.2880554199219" lon="13.0943183898926">
			<ele>49.0999984741211</ele>
			<time>2014-04-13T08:36:46Z</time>
		</trkpt>
		<trkpt lat="54.2880401611328" lon="13.0942440032959">
			<ele>48.7999992370605</ele>
			<time>2014-04-13T08:36:47Z</time>
		</trkpt>
		<trkpt lat="54.288013458252" lon="13.0941066741943">
			<ele>48.5999984741211</ele>
			<time>2014-04-13T08:36:50Z</time>
		</trkpt>
		<trkpt lat="54.2879981994629" lon="13.094033241272">
			<ele>48.9000015258789</ele>
			<time>2014-04-13T08:36:50Z</time>
		</trkpt>
		<trkpt lat="54.2879753112793" lon="13.093900680542">
			<ele>48.4000015258789</ele>
			<time>2014-04-13T08:36:53Z</time>
		</trkpt>
		<trkpt lat="54.2879600524902" lon="13.0938158035278">
			<ele>49.2000007629395</ele>
			<time>2014-04-13T08:36:54Z</time>
		</trkpt>
		<trkpt lat="54.2879447937012" lon="13.0937395095825">
			<ele>49.0999984741211</ele>
			<time>2014-04-13T08:36:54Z</time>
		</trkpt>
		<trkpt lat="54.2879295349121" lon="13.0936670303345">
			<ele>49.2000007629395</ele>
			<time>2014-04-13T08:36:55Z</time>
		</trkpt>
		<trkpt lat="54.287899017334" lon="13.0935325622559">
			<ele>48.7000007629395</ele>
			<time>2014-04-13T08:36:57Z</time>
		</trkpt>
		<trkpt lat="54.2878723144531" lon="13.0933885574341">
			<ele>48.4000015258789</ele>
			<time>2014-04-13T08:36:59Z</time>
		</trkpt>
		<trkpt lat="54.2878494262695" lon="13.0932493209839">
			<ele>48.9000015258789</ele>
			<time>2014-04-13T08:37:01Z</time>
		</trkpt>
		<trkpt lat="54.2878189086914" lon="13.0931100845337">
			<ele>48.4000015258789</ele>
			<time>2014-04-13T08:37:03Z</time>
		</trkpt>
		<trkpt lat="54.2877922058105" lon="13.0929746627808">
			<ele>48.2999992370605</ele>
			<time>2014-04-13T08:37:05Z</time>
		</trkpt>
		<trkpt lat="54.2877807617188" lon="13.0928983688354">
			<ele>47.9000015258789</ele>
			<time>2014-04-13T08:37:06Z</time>
		</trkpt>
		<trkpt lat="54.2877616882324" lon="13.0928220748901">
			<ele>48.0999984741211</ele>
			<time>2014-04-13T08:37:07Z</time>
		</trkpt>
		<trkpt lat="54.2877388000488" lon="13.0927495956421">
			<ele>48.0999984741211</ele>
			<time>2014-04-13T08:37:08Z</time>
		</trkpt>
		<trkpt lat="54.2877235412598" lon="13.0926733016968">
			<ele>48.4000015258789</ele>
			<time>2014-04-13T08:37:09Z</time>
		</trkpt>
		<trkpt lat="54.2876892089844" lon="13.0925483703613">
			<ele>49.0999984741211</ele>
			<time>2014-04-13T08:37:11Z</time>
		</trkpt>
		<trkpt lat="54.2876625061035" lon="13.0924091339111">
			<ele>49.2999992370605</ele>
			<time>2014-04-13T08:37:13Z</time>
		</trkpt>
		<trkpt lat="54.2876434326172" lon="13.092264175415">
			<ele>49.2999992370605</ele>
			<time>2014-04-13T08:37:15Z</time>
		</trkpt>
		<trkpt lat="54.2876319885254" lon="13.0921878814697">
			<ele>49</ele>
			<time>2014-04-13T08:37:16Z</time>
		</trkpt>
		<trkpt lat="54.2876129150391" lon="13.0920438766479">
			<ele>49.0999984741211</ele>
			<time>2014-04-13T08:37:18Z</time>
		</trkpt>
		<trkpt lat="54.2875938415527" lon="13.0918989181519">
			<ele>49.0999984741211</ele>
			<time>2014-04-13T08:37:20Z</time>
		</trkpt>
		<trkpt lat="54.2875823974609" lon="13.0917615890503">
			<ele>49.0999984741211</ele>
			<time>2014-04-13T08:37:22Z</time>
		</trkpt>
		<trkpt lat="54.2875633239746" lon="13.0916242599487">
			<ele>49.2999992370605</ele>
			<time>2014-04-13T08:37:24Z</time>
		</trkpt>
		<trkpt lat="54.2875366210938" lon="13.0914888381958">
			<ele>49.5999984741211</ele>
			<time>2014-04-13T08:37:26Z</time>
		</trkpt>
		<trkpt lat="54.287483215332" lon="13.0913896560669">
			<ele>49.5</ele>
			<time>2014-04-13T08:37:28Z</time>
		</trkpt>
		<trkpt lat="54.2874374389648" lon="13.0913829803467">
			<ele>49.4000015258789</ele>
			<time>2014-04-13T08:37:29Z</time>
		</trkpt>
		<trkpt lat="54.2873916625977" lon="13.0913734436035">
			<ele>49.2999992370605</ele>
			<time>2014-04-13T08:37:30Z</time>
		</trkpt>
		<trkpt lat="54.2873001098633" lon="13.0913896560669">
			<ele>49.2000007629395</ele>
			<time>2014-04-13T08:37:33Z</time>
		</trkpt>
		<trkpt lat="54.2872543334961" lon="13.0914077758789">
			<ele>49</ele>
			<time>2014-04-13T08:37:34Z</time>
		</trkpt>
		<trkpt lat="54.2872085571289" lon="13.0914211273193">
			<ele>49.0999984741211</ele>
			<time>2014-04-13T08:37:35Z</time>
		</trkpt>
		<trkpt lat="54.2871589660645" lon="13.0914335250854">
			<ele>49.4000015258789</ele>
			<time>2014-04-13T08:37:35Z</time>
		</trkpt>
		<trkpt lat="54.2871131896973" lon="13.0914497375488">
			<ele>49.4000015258789</ele>
			<time>2014-04-13T08:37:37Z</time>
		</trkpt>
		<trkpt lat="54.2870635986328" lon="13.091459274292">
			<ele>49.4000015258789</ele>
			<time>2014-04-13T08:37:38Z</time>
		</trkpt>
		<trkpt lat="54.2870216369629" lon="13.0914707183838">
			<ele>49.5999984741211</ele>
			<time>2014-04-13T08:37:39Z</time>
		</trkpt>
		<trkpt lat="54.2869758605957" lon="13.091477394104">
			<ele>49.5</ele>
			<time>2014-04-13T08:37:40Z</time>
		</trkpt>
		<trkpt lat="54.2869262695313" lon="13.091480255127">
			<ele>49.5</ele>
			<time>2014-04-13T08:37:41Z</time>
		</trkpt>
		<trkpt lat="54.2868804931641" lon="13.091477394104">
			<ele>49.5999984741211</ele>
			<time>2014-04-13T08:37:42Z</time>
		</trkpt>
		<trkpt lat="54.2868347167969" lon="13.0914678573608">
			<ele>49.4000015258789</ele>
			<time>2014-04-13T08:37:43Z</time>
		</trkpt>
		<trkpt lat="54.2867889404297" lon="13.0914602279663">
			<ele>49.5</ele>
			<time>2014-04-13T08:37:43Z</time>
		</trkpt>
		<trkpt lat="54.2867431640625" lon="13.0914525985718">
			<ele>49.5</ele>
			<time>2014-04-13T08:37:45Z</time>
		</trkpt>
		<trkpt lat="54.286693572998" lon="13.0914459228516">
			<ele>49.2000007629395</ele>
			<time>2014-04-13T08:37:46Z</time>
		</trkpt>
		<trkpt lat="54.2866477966309" lon="13.0914297103882">
			<ele>49.0999984741211</ele>
			<time>2014-04-13T08:37:47Z</time>
		</trkpt>
		<trkpt lat="54.2866020202637" lon="13.0914173126221">
			<ele>48.7999992370605</ele>
			<time>2014-04-13T08:37:48Z</time>
		</trkpt>
		<trkpt lat="54.2865562438965" lon="13.0914030075073">
			<ele>48.7000007629395</ele>
			<time>2014-04-13T08:37:49Z</time>
		</trkpt>
		<trkpt lat="54.2865104675293" lon="13.0913887023926">
			<ele>48.7999992370605</ele>
			<time>2014-04-13T08:37:50Z</time>
		</trkpt>
		<trkpt lat="54.2864646911621" lon="13.0913686752319">
			<ele>48.7999992370605</ele>
			<time>2014-04-13T08:37:50Z</time>
		</trkpt>
		<trkpt lat="54.2864189147949" lon="13.0913496017456">
			<ele>48.9000015258789</ele>
			<time>2014-04-13T08:37:51Z</time>
		</trkpt>
		<trkpt lat="54.2863731384277" lon="13.0913238525391">
			<ele>49</ele>
			<time>2014-04-13T08:37:53Z</time>
		</trkpt>
		<trkpt lat="54.2863273620605" lon="13.0912990570068">
			<ele>48.7999992370605</ele>
			<time>2014-04-13T08:37:53Z</time>
		</trkpt>
		<trkpt lat="54.2862815856934" lon="13.091272354126">
			<ele>48.7000007629395</ele>
			<time>2014-04-13T08:37:55Z</time>
		</trkpt>
		<trkpt lat="54.2861976623535" lon="13.0912218093872">
			<ele>48.5999984741211</ele>
			<time>2014-04-13T08:37:57Z</time>
		</trkpt>
		<trkpt lat="54.2861557006836" lon="13.0911998748779">
			<ele>48.7999992370605</ele>
			<time>2014-04-13T08:37:58Z</time>
		</trkpt>
		<trkpt lat="54.2861099243164" lon="13.0911684036255">
			<ele>48.5999984741211</ele>
			<time>2014-04-13T08:37:59Z</time>
		</trkpt>
		<trkpt lat="54.2860679626465" lon="13.0911417007446">
			<ele>48.5999984741211</ele>
			<time>2014-04-13T08:38:00Z</time>
		</trkpt>
		<trkpt lat="54.2860260009766" lon="13.0911073684692">
			<ele>48.7999992370605</ele>
			<time>2014-04-13T08:38:01Z</time>
		</trkpt>
		<trkpt lat="54.2859840393066" lon="13.0910711288452">
			<ele>49.0999984741211</ele>
			<time>2014-04-13T08:38:02Z</time>
		</trkpt>
		<trkpt lat="54.2859497070313" lon="13.0910272598267">
			<ele>49</ele>
			<time>2014-04-13T08:38:03Z</time>
		</trkpt>
		<trkpt lat="54.2858695983887" lon="13.0909471511841">
			<ele>48.7999992370605</ele>
			<time>2014-04-13T08:38:05Z</time>
		</trkpt>
		<trkpt lat="54.285831451416" lon="13.0909070968628">
			<ele>48.5999984741211</ele>
			<time>2014-04-13T08:38:06Z</time>
		</trkpt>
		<trkpt lat="54.2857933044434" lon="13.0908651351929">
			<ele>48.7000007629395</ele>
			<time>2014-04-13T08:38:07Z</time>
		</trkpt>
		<trkpt lat="54.2857208251953" lon="13.0907888412476">
			<ele>48.5</ele>
			<time>2014-04-13T08:38:09Z</time>
		</trkpt>
		<trkpt lat="54.2856864929199" lon="13.0907382965088">
			<ele>48.2999992370605</ele>
			<time>2014-04-13T08:38:10Z</time>
		</trkpt>
		<trkpt lat="54.2856483459473" lon="13.0907030105591">
			<ele>48.5999984741211</ele>
			<time>2014-04-13T08:38:11Z</time>
		</trkpt>
		<trkpt lat="54.2856101989746" lon="13.0906553268433">
			<ele>48.4000015258789</ele>
			<time>2014-04-13T08:38:11Z</time>
		</trkpt>
		<trkpt lat="54.2855415344238" lon="13.0905647277832">
			<ele>48.4000015258789</ele>
			<time>2014-04-13T08:38:14Z</time>
		</trkpt>
		<trkpt lat="54.2854804992676" lon="13.0904684066772">
			<ele>49</ele>
			<time>2014-04-13T08:38:16Z</time>
		</trkpt>
		<trkpt lat="54.2854118347168" lon="13.0903739929199">
			<ele>49.2999992370605</ele>
			<time>2014-04-13T08:38:18Z</time>
		</trkpt>
		<trkpt lat="54.2853469848633" lon="13.0902862548828">
			<ele>48.7000007629395</ele>
			<time>2014-04-13T08:38:20Z</time>
		</trkpt>
		<trkpt lat="54.2852821350098" lon="13.090184211731">
			<ele>48.7000007629395</ele>
			<time>2014-04-13T08:38:22Z</time>
		</trkpt>
		<trkpt lat="54.2852249145508" lon="13.0900907516479">
			<ele>49.0999984741211</ele>
			<time>2014-04-13T08:38:24Z</time>
		</trkpt>
		<trkpt lat="54.2851600646973" lon="13.089991569519">
			<ele>49.4000015258789</ele>
			<time>2014-04-13T08:38:26Z</time>
		</trkpt>
		<trkpt lat="54.2851066589355" lon="13.0898895263672">
			<ele>49.5</ele>
			<time>2014-04-13T08:38:27Z</time>
		</trkpt>
		<trkpt lat="54.285041809082" lon="13.089804649353">
			<ele>49.4000015258789</ele>
			<time>2014-04-13T08:38:30Z</time>
		</trkpt>
		<trkpt lat="54.2849769592285" lon="13.0897245407104">
			<ele>49.4000015258789</ele>
			<time>2014-04-13T08:38:32Z</time>
		</trkpt>
		<trkpt lat="54.2849044799805" lon="13.0896425247192">
			<ele>50</ele>
			<time>2014-04-13T08:38:34Z</time>
		</trkpt>
		<trkpt lat="54.2848281860352" lon="13.0895776748657">
			<ele>50.2000007629395</ele>
			<time>2014-04-13T08:38:36Z</time>
		</trkpt>
		<trkpt lat="54.2847442626953" lon="13.0895595550537">
			<ele>50.2999992370605</ele>
			<time>2014-04-13T08:38:38Z</time>
		</trkpt>
		<trkpt lat="54.2847023010254" lon="13.0896081924438">
			<ele>50.0999984741211</ele>
			<time>2014-04-13T08:38:39Z</time>
		</trkpt>
		<trkpt lat="54.2846298217773" lon="13.0896911621094">
			<ele>50.2000007629395</ele>
			<time>2014-04-13T08:38:41Z</time>
		</trkpt>
		<trkpt lat="54.2845840454102" lon="13.0897159576416">
			<ele>49.9000015258789</ele>
			<time>2014-04-13T08:38:42Z</time>
		</trkpt>
		<trkpt lat="54.2845344543457" lon="13.0897188186646">
			<ele>50.0999984741211</ele>
			<time>2014-04-13T08:38:43Z</time>
		</trkpt>
		<trkpt lat="54.2844886779785" lon="13.0896978378296">
			<ele>50.0999984741211</ele>
			<time>2014-04-13T08:38:44Z</time>
		</trkpt>
		<trkpt lat="54.2844467163086" lon="13.0896816253662">
			<ele>50</ele>
			<time>2014-04-13T08:38:45Z</time>
		</trkpt>
		<trkpt lat="54.2843971252441" lon="13.0896682739258">
			<ele>49.7999992370605</ele>
			<time>2014-04-13T08:38:45Z</time>
		</trkpt>
		<trkpt lat="54.284351348877" lon="13.089653968811">
			<ele>49.7999992370605</ele>
			<time>2014-04-13T08:38:47Z</time>
		</trkpt>
		<trkpt lat="54.2843017578125" lon="13.0896415710449">
			<ele>50</ele>
			<time>2014-04-13T08:38:48Z</time>
		</trkpt>
		<trkpt lat="54.2842178344727" lon="13.0896158218384">
			<ele>50.4000015258789</ele>
			<time>2014-04-13T08:38:50Z</time>
		</trkpt>
		<trkpt lat="54.2841720581055" lon="13.0896072387695">
			<ele>50.2000007629395</ele>
			<time>2014-04-13T08:38:51Z</time>
		</trkpt>
		<trkpt lat="54.284122467041" lon="13.0895938873291">
			<ele>50.5</ele>
			<time>2014-04-13T08:38:52Z</time>
		</trkpt>
		<trkpt lat="54.2840347290039" lon="13.0895671844482">
			<ele>50.5999984741211</ele>
			<time>2014-04-13T08:38:54Z</time>
		</trkpt>
		<trkpt lat="54.2839851379395" lon="13.0895557403564">
			<ele>50.5</ele>
			<time>2014-04-13T08:38:55Z</time>
		</trkpt>
		<trkpt lat="54.2839012145996" lon="13.0895376205444">
			<ele>50.7999992370605</ele>
			<time>2014-04-13T08:38:57Z</time>
		</trkpt>
		<trkpt lat="54.2838172912598" lon="13.0895299911499">
			<ele>50.7999992370605</ele>
			<time>2014-04-13T08:38:59Z</time>
		</trkpt>
		<trkpt lat="54.2837295532227" lon="13.0895223617554">
			<ele>51.0999984741211</ele>
			<time>2014-04-13T08:39:01Z</time>
		</trkpt>
		<trkpt lat="54.2836418151855" lon="13.0895137786865">
			<ele>51.2000007629395</ele>
			<time>2014-04-13T08:39:03Z</time>
		</trkpt>
		<trkpt lat="54.2835578918457" lon="13.0895109176636">
			<ele>51.2999992370605</ele>
			<time>2014-04-13T08:39:05Z</time>
		</trkpt>
		<trkpt lat="54.2835121154785" lon="13.0895137786865">
			<ele>50.9000015258789</ele>
			<time>2014-04-13T08:39:06Z</time>
		</trkpt>
		<trkpt lat="54.2834625244141" lon="13.0895214080811">
			<ele>50.9000015258789</ele>
			<time>2014-04-13T08:39:07Z</time>
		</trkpt>
		<trkpt lat="54.283374786377" lon="13.0895309448242">
			<ele>51.0999984741211</ele>
			<time>2014-04-13T08:39:09Z</time>
		</trkpt>
		<trkpt lat="54.2832870483398" lon="13.0895280838013">
			<ele>51.2000007629395</ele>
			<time>2014-04-13T08:39:11Z</time>
		</trkpt>
		<trkpt lat="54.2832412719727" lon="13.0895338058472">
			<ele>51.5</ele>
			<time>2014-04-13T08:39:12Z</time>
		</trkpt>
		<trkpt lat="54.2831954956055" lon="13.0895347595215">
			<ele>51.5</ele>
			<time>2014-04-13T08:39:13Z</time>
		</trkpt>
		<trkpt lat="54.2831077575684" lon="13.0895366668701">
			<ele>51.5</ele>
			<time>2014-04-13T08:39:15Z</time>
		</trkpt>
		<trkpt lat="54.2830619812012" lon="13.0895376205444">
			<ele>51.7000007629395</ele>
			<time>2014-04-13T08:39:16Z</time>
		</trkpt>
		<trkpt lat="54.2830123901367" lon="13.0895385742188">
			<ele>51.7000007629395</ele>
			<time>2014-04-13T08:39:17Z</time>
		</trkpt>
		<trkpt lat="54.2829666137695" lon="13.0895404815674">
			<ele>51.7000007629395</ele>
			<time>2014-04-13T08:39:18Z</time>
		</trkpt>
		<trkpt lat="54.2829208374023" lon="13.0895395278931">
			<ele>51.7000007629395</ele>
			<time>2014-04-13T08:39:19Z</time>
		</trkpt>
		<trkpt lat="54.2828712463379" lon="13.0895385742188">
			<ele>51.7000007629395</ele>
			<time>2014-04-13T08:39:20Z</time>
		</trkpt>
		<trkpt lat="54.2828254699707" lon="13.0895404815674">
			<ele>51.7000007629395</ele>
			<time>2014-04-13T08:39:21Z</time>
		</trkpt>
		<trkpt lat="54.282772064209" lon="13.089545249939">
			<ele>51.7000007629395</ele>
			<time>2014-04-13T08:39:21Z</time>
		</trkpt>
		<trkpt lat="54.2827224731445" lon="13.089545249939">
			<ele>51.5999984741211</ele>
			<time>2014-04-13T08:39:23Z</time>
		</trkpt>
		<trkpt lat="54.2826728820801" lon="13.0895462036133">
			<ele>51.9000015258789</ele>
			<time>2014-04-13T08:39:24Z</time>
		</trkpt>
		<trkpt lat="54.2826232910156" lon="13.0895576477051">
			<ele>52.0999984741211</ele>
			<time>2014-04-13T08:39:25Z</time>
		</trkpt>
		<trkpt lat="54.2825736999512" lon="13.0895662307739">
			<ele>51.9000015258789</ele>
			<time>2014-04-13T08:39:26Z</time>
		</trkpt>
		<trkpt lat="54.282527923584" lon="13.0895700454712">
			<ele>52.0999984741211</ele>
			<time>2014-04-13T08:39:27Z</time>
		</trkpt>
		<trkpt lat="54.2824821472168" lon="13.0895700454712">
			<ele>52.0999984741211</ele>
			<time>2014-04-13T08:39:28Z</time>
		</trkpt>
		<trkpt lat="54.2824325561523" lon="13.0895719528198">
			<ele>52.2000007629395</ele>
			<time>2014-04-13T08:39:29Z</time>
		</trkpt>
		<trkpt lat="54.282341003418" lon="13.0895805358887">
			<ele>52</ele>
			<time>2014-04-13T08:39:31Z</time>
		</trkpt>
		<trkpt lat="54.2822952270508" lon="13.0895872116089">
			<ele>51.7999992370605</ele>
			<time>2014-04-13T08:39:32Z</time>
		</trkpt>
		<trkpt lat="54.2822456359863" lon="13.0895910263062">
			<ele>51.7999992370605</ele>
			<time>2014-04-13T08:39:32Z</time>
		</trkpt>
		<trkpt lat="54.2821998596191" lon="13.0895910263062">
			<ele>51.9000015258789</ele>
			<time>2014-04-13T08:39:34Z</time>
		</trkpt>
		<trkpt lat="54.282154083252" lon="13.0895900726318">
			<ele>52</ele>
			<time>2014-04-13T08:39:35Z</time>
		</trkpt>
		<trkpt lat="54.2821083068848" lon="13.0895900726318">
			<ele>52.0999984741211</ele>
			<time>2014-04-13T08:39:36Z</time>
		</trkpt>
		<trkpt lat="54.2820587158203" lon="13.0895938873291">
			<ele>52.2000007629395</ele>
			<time>2014-04-13T08:39:37Z</time>
		</trkpt>
		<trkpt lat="54.2820129394531" lon="13.0895967483521">
			<ele>52.4000015258789</ele>
			<time>2014-04-13T08:39:38Z</time>
		</trkpt>
		<trkpt lat="54.2819213867188" lon="13.0895986557007">
			<ele>52.0999984741211</ele>
			<time>2014-04-13T08:39:40Z</time>
		</trkpt>
		<trkpt lat="54.2818756103516" lon="13.0896015167236">
			<ele>52.0999984741211</ele>
			<time>2014-04-13T08:39:41Z</time>
		</trkpt>
		<trkpt lat="54.2817878723145" lon="13.0896034240723">
			<ele>51.7999992370605</ele>
			<time>2014-04-13T08:39:43Z</time>
		</trkpt>
		<trkpt lat="54.2817420959473" lon="13.0896072387695">
			<ele>51.5999984741211</ele>
			<time>2014-04-13T08:39:44Z</time>
		</trkpt>
		<trkpt lat="54.2816963195801" lon="13.0896091461182">
			<ele>51.5999984741211</ele>
			<time>2014-04-13T08:39:45Z</time>
		</trkpt>
		<trkpt lat="54.2816467285156" lon="13.0896034240723">
			<ele>51.7999992370605</ele>
			<time>2014-04-13T08:39:46Z</time>
		</trkpt>
		<trkpt lat="54.2815971374512" lon="13.0896129608154">
			<ele>51.4000015258789</ele>
			<time>2014-04-13T08:39:47Z</time>
		</trkpt>
		<trkpt lat="54.281551361084" lon="13.0896062850952">
			<ele>51.5999984741211</ele>
			<time>2014-04-13T08:39:47Z</time>
		</trkpt>
		<trkpt lat="54.2814559936523" lon="13.0896129608154">
			<ele>51.5</ele>
			<time>2014-04-13T08:39:50Z</time>
		</trkpt>
		<trkpt lat="54.2814102172852" lon="13.0896167755127">
			<ele>51.7000007629395</ele>
			<time>2014-04-13T08:39:51Z</time>
		</trkpt>
		<trkpt lat="54.2813606262207" lon="13.0896224975586">
			<ele>51.5999984741211</ele>
			<time>2014-04-13T08:39:52Z</time>
		</trkpt>
		<trkpt lat="54.2813110351563" lon="13.08962059021">
			<ele>51.7999992370605</ele>
			<time>2014-04-13T08:39:53Z</time>
		</trkpt>
		<trkpt lat="54.2812614440918" lon="13.0896215438843">
			<ele>51.7999992370605</ele>
			<time>2014-04-13T08:39:54Z</time>
		</trkpt>
		<trkpt lat="54.2812156677246" lon="13.0896244049072">
			<ele>52.0999984741211</ele>
			<time>2014-04-13T08:39:55Z</time>
		</trkpt>
		<trkpt lat="54.2811660766602" lon="13.0896348953247">
			<ele>52.0999984741211</ele>
			<time>2014-04-13T08:39:56Z</time>
		</trkpt>
		<trkpt lat="54.281120300293" lon="13.0896406173706">
			<ele>52.2999992370605</ele>
			<time>2014-04-13T08:39:57Z</time>
		</trkpt>
		<trkpt lat="54.2810363769531" lon="13.0896434783936">
			<ele>53.0999984741211</ele>
			<time>2014-04-13T08:39:59Z</time>
		</trkpt>
		<trkpt lat="54.2809867858887" lon="13.0896368026733">
			<ele>52.7000007629395</ele>
			<time>2014-04-13T08:40:00Z</time>
		</trkpt>
		<trkpt lat="54.2809410095215" lon="13.089638710022">
			<ele>52.9000015258789</ele>
			<time>2014-04-13T08:40:01Z</time>
		</trkpt>
		<trkpt lat="54.2808532714844" lon="13.0896301269531">
			<ele>52.9000015258789</ele>
			<time>2014-04-13T08:40:03Z</time>
		</trkpt>
		<trkpt lat="54.2807655334473" lon="13.0896272659302">
			<ele>52.5999984741211</ele>
			<time>2014-04-13T08:40:05Z</time>
		</trkpt>
		<trkpt lat="54.2806854248047" lon="13.0896167755127">
			<ele>53</ele>
			<time>2014-04-13T08:40:07Z</time>
		</trkpt>
		<trkpt lat="54.2805938720703" lon="13.0896100997925">
			<ele>53</ele>
			<time>2014-04-13T08:40:09Z</time>
		</trkpt>
		<trkpt lat="54.2805480957031" lon="13.0896034240723">
			<ele>53.0999984741211</ele>
			<time>2014-04-13T08:40:10Z</time>
		</trkpt>
		<trkpt lat="54.2804985046387" lon="13.0896053314209">
			<ele>52.9000015258789</ele>
			<time>2014-04-13T08:40:11Z</time>
		</trkpt>
		<trkpt lat="54.2804107666016" lon="13.0896005630493">
			<ele>52.9000015258789</ele>
			<time>2014-04-13T08:40:12Z</time>
		</trkpt>
		<trkpt lat="54.2803649902344" lon="13.0895986557007">
			<ele>53</ele>
			<time>2014-04-13T08:40:14Z</time>
		</trkpt>
		<trkpt lat="54.2802772521973" lon="13.0895948410034">
			<ele>53</ele>
			<time>2014-04-13T08:40:16Z</time>
		</trkpt>
		<trkpt lat="54.2802314758301" lon="13.0895833969116">
			<ele>53</ele>
			<time>2014-04-13T08:40:17Z</time>
		</trkpt>
		<trkpt lat="54.2801856994629" lon="13.0895671844482">
			<ele>52.7999992370605</ele>
			<time>2014-04-13T08:40:17Z</time>
		</trkpt>
		<trkpt lat="54.2801361083984" lon="13.0895528793335">
			<ele>53.2999992370605</ele>
			<time>2014-04-13T08:40:19Z</time>
		</trkpt>
		<trkpt lat="54.280086517334" lon="13.0895538330078">
			<ele>53.5999984741211</ele>
			<time>2014-04-13T08:40:20Z</time>
		</trkpt>
		<trkpt lat="54.2799987792969" lon="13.0895442962646">
			<ele>53</ele>
			<time>2014-04-13T08:40:22Z</time>
		</trkpt>
		<trkpt lat="54.2799110412598" lon="13.0895347595215">
			<ele>52.9000015258789</ele>
			<time>2014-04-13T08:40:23Z</time>
		</trkpt>
		<trkpt lat="54.2798233032227" lon="13.0895490646362">
			<ele>52.9000015258789</ele>
			<time>2014-04-13T08:40:26Z</time>
		</trkpt>
		<trkpt lat="54.2797393798828" lon="13.0895500183105">
			<ele>53</ele>
			<time>2014-04-13T08:40:28Z</time>
		</trkpt>
		<trkpt lat="54.279655456543" lon="13.0895366668701">
			<ele>53.2000007629395</ele>
			<time>2014-04-13T08:40:29Z</time>
		</trkpt>
		<trkpt lat="54.2795715332031" lon="13.0895328521729">
			<ele>53.2999992370605</ele>
			<time>2014-04-13T08:40:32Z</time>
		</trkpt>
		<trkpt lat="54.2794799804688" lon="13.089527130127">
			<ele>52.7000007629395</ele>
			<time>2014-04-13T08:40:34Z</time>
		</trkpt>
		<trkpt lat="54.2793922424316" lon="13.089527130127">
			<ele>53.2000007629395</ele>
			<time>2014-04-13T08:40:36Z</time>
		</trkpt>
		<trkpt lat="54.2793464660645" lon="13.089527130127">
			<ele>52.9000015258789</ele>
			<time>2014-04-13T08:40:37Z</time>
		</trkpt>
		<trkpt lat="54.2792625427246" lon="13.0895185470581">
			<ele>53</ele>
			<time>2014-04-13T08:40:39Z</time>
		</trkpt>
		<trkpt lat="54.2791748046875" lon="13.0895328521729">
			<ele>53.0999984741211</ele>
			<time>2014-04-13T08:40:41Z</time>
		</trkpt>
		<trkpt lat="54.2790908813477" lon="13.089545249939">
			<ele>53.4000015258789</ele>
			<time>2014-04-13T08:40:43Z</time>
		</trkpt>
		<trkpt lat="54.2790031433105" lon="13.0895671844482">
			<ele>53.7000007629395</ele>
			<time>2014-04-13T08:40:45Z</time>
		</trkpt>
		<trkpt lat="54.2789192199707" lon="13.0895957946777">
			<ele>53.7000007629395</ele>
			<time>2014-04-13T08:40:47Z</time>
		</trkpt>
		<trkpt lat="54.2788314819336" lon="13.0896320343018">
			<ele>53.7000007629395</ele>
			<time>2014-04-13T08:40:49Z</time>
		</trkpt>
		<trkpt lat="54.2787590026855" lon="13.0896453857422">
			<ele>53.5999984741211</ele>
			<time>2014-04-13T08:40:51Z</time>
		</trkpt>
		<trkpt lat="54.2787132263184" lon="13.089656829834">
			<ele>53.4000015258789</ele>
			<time>2014-04-13T08:40:52Z</time>
		</trkpt>
		<trkpt lat="54.2786293029785" lon="13.0896844863892">
			<ele>54.2000007629395</ele>
			<time>2014-04-13T08:40:53Z</time>
		</trkpt>
		<trkpt lat="54.2785835266113" lon="13.0897045135498">
			<ele>54.2999992370605</ele>
			<time>2014-04-13T08:40:55Z</time>
		</trkpt>
		<trkpt lat="54.2784996032715" lon="13.0897397994995">
			<ele>54.7999992370605</ele>
			<time>2014-04-13T08:40:57Z</time>
		</trkpt>
		<trkpt lat="54.2784118652344" lon="13.0897636413574">
			<ele>54.7999992370605</ele>
			<time>2014-04-13T08:40:58Z</time>
		</trkpt>
		<trkpt lat="54.2783317565918" lon="13.0898008346558">
			<ele>55.0999984741211</ele>
			<time>2014-04-13T08:41:01Z</time>
		</trkpt>
		<trkpt lat="54.278247833252" lon="13.0898380279541">
			<ele>55.0999984741211</ele>
			<time>2014-04-13T08:41:03Z</time>
		</trkpt>
		<trkpt lat="54.2782020568848" lon="13.0898590087891">
			<ele>55.2999992370605</ele>
			<time>2014-04-13T08:41:03Z</time>
		</trkpt>
		<trkpt lat="54.2781143188477" lon="13.0898904800415">
			<ele>54.5</ele>
			<time>2014-04-13T08:41:06Z</time>
		</trkpt>
		<trkpt lat="54.2780723571777" lon="13.0899076461792">
			<ele>54.2999992370605</ele>
			<time>2014-04-13T08:41:07Z</time>
		</trkpt>
		<trkpt lat="54.2780265808105" lon="13.0899305343628">
			<ele>54.5999984741211</ele>
			<time>2014-04-13T08:41:08Z</time>
		</trkpt>
		<trkpt lat="54.2779808044434" lon="13.089955329895">
			<ele>54.5</ele>
			<time>2014-04-13T08:41:09Z</time>
		</trkpt>
		<trkpt lat="54.2779350280762" lon="13.0899848937988">
			<ele>54.0999984741211</ele>
			<time>2014-04-13T08:41:10Z</time>
		</trkpt>
		<trkpt lat="54.2778854370117" lon="13.0900087356567">
			<ele>53.9000015258789</ele>
			<time>2014-04-13T08:41:11Z</time>
		</trkpt>
		<trkpt lat="54.2778358459473" lon="13.0900392532349">
			<ele>54.2000007629395</ele>
			<time>2014-04-13T08:41:12Z</time>
		</trkpt>
		<trkpt lat="54.2777862548828" lon="13.0900573730469">
			<ele>53.7999992370605</ele>
			<time>2014-04-13T08:41:13Z</time>
		</trkpt>
		<trkpt lat="54.2777366638184" lon="13.0900840759277">
			<ele>54.0999984741211</ele>
			<time>2014-04-13T08:41:14Z</time>
		</trkpt>
		<trkpt lat="54.2776870727539" lon="13.0901031494141">
			<ele>54.4000015258789</ele>
			<time>2014-04-13T08:41:15Z</time>
		</trkpt>
		<trkpt lat="54.2776336669922" lon="13.0901212692261">
			<ele>54.5999984741211</ele>
			<time>2014-04-13T08:41:16Z</time>
		</trkpt>
		<trkpt lat="54.2775802612305" lon="13.0901355743408">
			<ele>54.2000007629395</ele>
			<time>2014-04-13T08:41:17Z</time>
		</trkpt>
		<trkpt lat="54.2775344848633" lon="13.0901498794556">
			<ele>53.7999992370605</ele>
			<time>2014-04-13T08:41:18Z</time>
		</trkpt>
		<trkpt lat="54.2774848937988" lon="13.0901584625244">
			<ele>54</ele>
			<time>2014-04-13T08:41:19Z</time>
		</trkpt>
		<trkpt lat="54.2774353027344" lon="13.0901737213135">
			<ele>54.2000007629395</ele>
			<time>2014-04-13T08:41:20Z</time>
		</trkpt>
		<trkpt lat="54.2773857116699" lon="13.0901823043823">
			<ele>54.0999984741211</ele>
			<time>2014-04-13T08:41:21Z</time>
		</trkpt>
		<trkpt lat="54.2772941589355" lon="13.090181350708">
			<ele>54.0999984741211</ele>
			<time>2014-04-13T08:41:23Z</time>
		</trkpt>
		<trkpt lat="54.2772445678711" lon="13.0901708602905">
			<ele>54.0999984741211</ele>
			<time>2014-04-13T08:41:23Z</time>
		</trkpt>
		<trkpt lat="54.2771949768066" lon="13.0901622772217">
			<ele>54</ele>
			<time>2014-04-13T08:41:25Z</time>
		</trkpt>
		<trkpt lat="54.2771492004395" lon="13.0901546478271">
			<ele>54.2000007629395</ele>
			<time>2014-04-13T08:41:26Z</time>
		</trkpt>
		<trkpt lat="54.2770614624023" lon="13.0901460647583">
			<ele>54.7000007629395</ele>
			<time>2014-04-13T08:41:28Z</time>
		</trkpt>
		<trkpt lat="54.2769737243652" lon="13.0901470184326">
			<ele>55.2000007629395</ele>
			<time>2014-04-13T08:41:30Z</time>
		</trkpt>
		<trkpt lat="54.2768936157227" lon="13.0901231765747">
			<ele>55</ele>
			<time>2014-04-13T08:41:32Z</time>
		</trkpt>
		<trkpt lat="54.2768135070801" lon="13.0901002883911">
			<ele>55</ele>
			<time>2014-04-13T08:41:33Z</time>
		</trkpt>
		<trkpt lat="54.2767295837402" lon="13.0900917053223">
			<ele>54.5999984741211</ele>
			<time>2014-04-13T08:41:36Z</time>
		</trkpt>
		<trkpt lat="54.2766456604004" lon="13.09006690979">
			<ele>54.4000015258789</ele>
			<time>2014-04-13T08:41:38Z</time>
		</trkpt>
		<trkpt lat="54.2765655517578" lon="13.0900392532349">
			<ele>54.2999992370605</ele>
			<time>2014-04-13T08:41:40Z</time>
		</trkpt>
		<trkpt lat="54.2764778137207" lon="13.0900173187256">
			<ele>53.7999992370605</ele>
			<time>2014-04-13T08:41:42Z</time>
		</trkpt>
		<trkpt lat="54.2763862609863" lon="13.0899934768677">
			<ele>53.5</ele>
			<time>2014-04-13T08:41:43Z</time>
		</trkpt>
		<trkpt lat="54.2763366699219" lon="13.0899791717529">
			<ele>53.4000015258789</ele>
			<time>2014-04-13T08:41:45Z</time>
		</trkpt>
		<trkpt lat="54.2762908935547" lon="13.0899648666382">
			<ele>53.2999992370605</ele>
			<time>2014-04-13T08:41:46Z</time>
		</trkpt>
		<trkpt lat="54.2762451171875" lon="13.0899477005005">
			<ele>53.2000007629395</ele>
			<time>2014-04-13T08:41:47Z</time>
		</trkpt>
		<trkpt lat="54.276195526123" lon="13.0899295806885">
			<ele>52.9000015258789</ele>
			<time>2014-04-13T08:41:48Z</time>
		</trkpt>
		<trkpt lat="54.2761497497559" lon="13.0899171829224">
			<ele>52.5999984741211</ele>
			<time>2014-04-13T08:41:49Z</time>
		</trkpt>
		<trkpt lat="54.2761001586914" lon="13.0899076461792">
			<ele>52.7000007629395</ele>
			<time>2014-04-13T08:41:50Z</time>
		</trkpt>
		<trkpt lat="54.276050567627" lon="13.0898971557617">
			<ele>52.5</ele>
			<time>2014-04-13T08:41:51Z</time>
		</trkpt>
		<trkpt lat="54.2759971618652" lon="13.0898857116699">
			<ele>52.2999992370605</ele>
			<time>2014-04-13T08:41:52Z</time>
		</trkpt>
		<trkpt lat="54.2759437561035" lon="13.0898742675781">
			<ele>52.0999984741211</ele>
			<time>2014-04-13T08:41:53Z</time>
		</trkpt>
		<trkpt lat="54.2758941650391" lon="13.0898628234863">
			<ele>52.2000007629395</ele>
			<time>2014-04-13T08:41:53Z</time>
		</trkpt>
		<trkpt lat="54.2758407592773" lon="13.0898494720459">
			<ele>52</ele>
			<time>2014-04-13T08:41:55Z</time>
		</trkpt>
		<trkpt lat="54.2757835388184" lon="13.08984375">
			<ele>51.7000007629395</ele>
			<time>2014-04-13T08:41:56Z</time>
		</trkpt>
		<trkpt lat="54.2757263183594" lon="13.0898456573486">
			<ele>51.5999984741211</ele>
			<time>2014-04-13T08:41:56Z</time>
		</trkpt>
		<trkpt lat="54.2756729125977" lon="13.0898504257202">
			<ele>51.4000015258789</ele>
			<time>2014-04-13T08:41:58Z</time>
		</trkpt>
		<trkpt lat="54.2756156921387" lon="13.0898551940918">
			<ele>51.2000007629395</ele>
			<time>2014-04-13T08:41:59Z</time>
		</trkpt>
		<trkpt lat="54.275562286377" lon="13.089861869812">
			<ele>51.0999984741211</ele>
			<time>2014-04-13T08:42:00Z</time>
		</trkpt>
		<trkpt lat="54.2755012512207" lon="13.0898714065552">
			<ele>51.2999992370605</ele>
			<time>2014-04-13T08:42:00Z</time>
		</trkpt>
		<trkpt lat="54.275447845459" lon="13.0898838043213">
			<ele>51.5999984741211</ele>
			<time>2014-04-13T08:42:02Z</time>
		</trkpt>
		<trkpt lat="54.2753944396973" lon="13.0898904800415">
			<ele>51.5999984741211</ele>
			<time>2014-04-13T08:42:03Z</time>
		</trkpt>
		<trkpt lat="54.2753372192383" lon="13.0899105072021">
			<ele>51.5</ele>
			<time>2014-04-13T08:42:04Z</time>
		</trkpt>
		<trkpt lat="54.2752838134766" lon="13.0899314880371">
			<ele>51.2999992370605</ele>
			<time>2014-04-13T08:42:04Z</time>
		</trkpt>
		<trkpt lat="54.2752304077148" lon="13.089955329895">
			<ele>51.2000007629395</ele>
			<time>2014-04-13T08:42:06Z</time>
		</trkpt>
		<trkpt lat="54.2751770019531" lon="13.0899820327759">
			<ele>51.2999992370605</ele>
			<time>2014-04-13T08:42:07Z</time>
		</trkpt>
		<trkpt lat="54.2751235961914" lon="13.0900106430054">
			<ele>51.4000015258789</ele>
			<time>2014-04-13T08:42:08Z</time>
		</trkpt>
		<trkpt lat="54.2750701904297" lon="13.0900497436523">
			<ele>51.7000007629395</ele>
			<time>2014-04-13T08:42:09Z</time>
		</trkpt>
		<trkpt lat="54.2750205993652" lon="13.0900812149048">
			<ele>52.0999984741211</ele>
			<time>2014-04-13T08:42:10Z</time>
		</trkpt>
		<trkpt lat="54.2749671936035" lon="13.0901174545288">
			<ele>52.4000015258789</ele>
			<time>2014-04-13T08:42:11Z</time>
		</trkpt>
		<trkpt lat="54.2749137878418" lon="13.0901546478271">
			<ele>52.4000015258789</ele>
			<time>2014-04-13T08:42:12Z</time>
		</trkpt>
		<trkpt lat="54.2748641967773" lon="13.0901861190796">
			<ele>52.5999984741211</ele>
			<time>2014-04-13T08:42:13Z</time>
		</trkpt>
		<trkpt lat="54.2748146057129" lon="13.090220451355">
			<ele>52.5</ele>
			<time>2014-04-13T08:42:14Z</time>
		</trkpt>
		<trkpt lat="54.2747650146484" lon="13.0902509689331">
			<ele>52.5</ele>
			<time>2014-04-13T08:42:15Z</time>
		</trkpt>
		<trkpt lat="54.274715423584" lon="13.0902891159058">
			<ele>52.2999992370605</ele>
			<time>2014-04-13T08:42:16Z</time>
		</trkpt>
		<trkpt lat="54.2746696472168" lon="13.0903263092041">
			<ele>52.0999984741211</ele>
			<time>2014-04-13T08:42:17Z</time>
		</trkpt>
		<trkpt lat="54.2746200561523" lon="13.0903587341309">
			<ele>52.0999984741211</ele>
			<time>2014-04-13T08:42:18Z</time>
		</trkpt>
		<trkpt lat="54.2745666503906" lon="13.0903854370117">
			<ele>52.2000007629395</ele>
			<time>2014-04-13T08:42:18Z</time>
		</trkpt>
		<trkpt lat="54.2745170593262" lon="13.0904140472412">
			<ele>52.5</ele>
			<time>2014-04-13T08:42:20Z</time>
		</trkpt>
		<trkpt lat="54.274471282959" lon="13.0904417037964">
			<ele>52.7000007629395</ele>
			<time>2014-04-13T08:42:21Z</time>
		</trkpt>
		<trkpt lat="54.2744216918945" lon="13.0904664993286">
			<ele>52.7999992370605</ele>
			<time>2014-04-13T08:42:22Z</time>
		</trkpt>
		<trkpt lat="54.2743721008301" lon="13.0904865264893">
			<ele>53.2000007629395</ele>
			<time>2014-04-13T08:42:22Z</time>
		</trkpt>
		<trkpt lat="54.2743225097656" lon="13.0905141830444">
			<ele>53</ele>
			<time>2014-04-13T08:42:24Z</time>
		</trkpt>
		<trkpt lat="54.2742767333984" lon="13.0905342102051">
			<ele>53</ele>
			<time>2014-04-13T08:42:25Z</time>
		</trkpt>
		<trkpt lat="54.2742309570313" lon="13.0905609130859">
			<ele>53.2999992370605</ele>
			<time>2014-04-13T08:42:26Z</time>
		</trkpt>
		<trkpt lat="54.2741813659668" lon="13.0905838012695">
			<ele>53.0999984741211</ele>
			<time>2014-04-13T08:42:27Z</time>
		</trkpt>
		<trkpt lat="54.2741355895996" lon="13.0906038284302">
			<ele>53.0999984741211</ele>
			<time>2014-04-13T08:42:28Z</time>
		</trkpt>
		<trkpt lat="54.2740936279297" lon="13.0906257629395">
			<ele>53.2999992370605</ele>
			<time>2014-04-13T08:42:29Z</time>
		</trkpt>
		<trkpt lat="54.2740478515625" lon="13.0906505584717">
			<ele>53.5</ele>
			<time>2014-04-13T08:42:30Z</time>
		</trkpt>
		<trkpt lat="54.2739677429199" lon="13.0906953811646">
			<ele>53.2000007629395</ele>
			<time>2014-04-13T08:42:32Z</time>
		</trkpt>
		<trkpt lat="54.2738800048828" lon="13.0907373428345">
			<ele>53.4000015258789</ele>
			<time>2014-04-13T08:42:34Z</time>
		</trkpt>
		<trkpt lat="54.2737922668457" lon="13.0907754898071">
			<ele>53.7999992370605</ele>
			<time>2014-04-13T08:42:36Z</time>
		</trkpt>
		<trkpt lat="54.2737503051758" lon="13.0907926559448">
			<ele>53.9000015258789</ele>
			<time>2014-04-13T08:42:37Z</time>
		</trkpt>
		<trkpt lat="54.2736663818359" lon="13.0908317565918">
			<ele>53.7999992370605</ele>
			<time>2014-04-13T08:42:39Z</time>
		</trkpt>
		<trkpt lat="54.2736206054688" lon="13.0908422470093">
			<ele>53.7000007629395</ele>
			<time>2014-04-13T08:42:40Z</time>
		</trkpt>
		<trkpt lat="54.2735748291016" lon="13.090856552124">
			<ele>53.9000015258789</ele>
			<time>2014-04-13T08:42:41Z</time>
		</trkpt>
		<trkpt lat="54.2734794616699" lon="13.0908794403076">
			<ele>54.0999984741211</ele>
			<time>2014-04-13T08:42:43Z</time>
		</trkpt>
		<trkpt lat="54.2733993530273" lon="13.0908899307251">
			<ele>53.7999992370605</ele>
			<time>2014-04-13T08:42:45Z</time>
		</trkpt>
		<trkpt lat="54.2733459472656" lon="13.0909042358398">
			<ele>53.5</ele>
			<time>2014-04-13T08:42:46Z</time>
		</trkpt>
		<trkpt lat="54.2732925415039" lon="13.090913772583">
			<ele>53.2000007629395</ele>
			<time>2014-04-13T08:42:47Z</time>
		</trkpt>
		<trkpt lat="54.2732391357422" lon="13.0909204483032">
			<ele>53</ele>
			<time>2014-04-13T08:42:48Z</time>
		</trkpt>
		<trkpt lat="54.2731857299805" lon="13.0909280776978">
			<ele>53</ele>
			<time>2014-04-13T08:42:49Z</time>
		</trkpt>
		<trkpt lat="54.2731323242188" lon="13.0909452438354">
			<ele>53</ele>
			<time>2014-04-13T08:42:50Z</time>
		</trkpt>
		<trkpt lat="54.2730712890625" lon="13.0909547805786">
			<ele>52.9000015258789</ele>
			<time>2014-04-13T08:42:50Z</time>
		</trkpt>
		<trkpt lat="54.2730140686035" lon="13.0909538269043">
			<ele>53.2000007629395</ele>
			<time>2014-04-13T08:42:52Z</time>
		</trkpt>
		<trkpt lat="54.2729530334473" lon="13.0909652709961">
			<ele>53</ele>
			<time>2014-04-13T08:42:53Z</time>
		</trkpt>
		<trkpt lat="54.2729034423828" lon="13.090968132019">
			<ele>53</ele>
			<time>2014-04-13T08:42:54Z</time>
		</trkpt>
		<trkpt lat="54.2728424072266" lon="13.0909862518311">
			<ele>53.0999984741211</ele>
			<time>2014-04-13T08:42:54Z</time>
		</trkpt>
		<trkpt lat="54.2727851867676" lon="13.0909967422485">
			<ele>52.5999984741211</ele>
			<time>2014-04-13T08:42:56Z</time>
		</trkpt>
		<trkpt lat="54.2727279663086" lon="13.0910024642944">
			<ele>53</ele>
			<time>2014-04-13T08:42:56Z</time>
		</trkpt>
		<trkpt lat="54.2726783752441" lon="13.0910167694092">
			<ele>52.7999992370605</ele>
			<time>2014-04-13T08:42:58Z</time>
		</trkpt>
		<trkpt lat="54.2726249694824" lon="13.0910301208496">
			<ele>52.5999984741211</ele>
			<time>2014-04-13T08:42:59Z</time>
		</trkpt>
		<trkpt lat="54.272575378418" lon="13.0910387039185">
			<ele>52.9000015258789</ele>
			<time>2014-04-13T08:43:00Z</time>
		</trkpt>
		<trkpt lat="54.2725219726563" lon="13.0910472869873">
			<ele>53.0999984741211</ele>
			<time>2014-04-13T08:43:01Z</time>
		</trkpt>
		<trkpt lat="54.2724723815918" lon="13.0910530090332">
			<ele>53.0999984741211</ele>
			<time>2014-04-13T08:43:02Z</time>
		</trkpt>
		<trkpt lat="54.2724227905273" lon="13.0910549163818">
			<ele>53</ele>
			<time>2014-04-13T08:43:03Z</time>
		</trkpt>
		<trkpt lat="54.2723731994629" lon="13.0910558700562">
			<ele>52.7000007629395</ele>
			<time>2014-04-13T08:43:03Z</time>
		</trkpt>
		<trkpt lat="54.2723236083984" lon="13.0910549163818">
			<ele>52.4000015258789</ele>
			<time>2014-04-13T08:43:05Z</time>
		</trkpt>
		<trkpt lat="54.2722778320313" lon="13.0910501480103">
			<ele>52.5</ele>
			<time>2014-04-13T08:43:06Z</time>
		</trkpt>
		<trkpt lat="54.2721900939941" lon="13.0910329818726">
			<ele>52.5999984741211</ele>
			<time>2014-04-13T08:43:08Z</time>
		</trkpt>
		<trkpt lat="54.2721061706543" lon="13.0910129547119">
			<ele>52.5</ele>
			<time>2014-04-13T08:43:10Z</time>
		</trkpt>
		<trkpt lat="54.2720184326172" lon="13.0909862518311">
			<ele>52.4000015258789</ele>
			<time>2014-04-13T08:43:12Z</time>
		</trkpt>
		<trkpt lat="54.27197265625" lon="13.0909757614136">
			<ele>52.2000007629395</ele>
			<time>2014-04-13T08:43:13Z</time>
		</trkpt>
		<trkpt lat="54.2719268798828" lon="13.0909595489502">
			<ele>51.9000015258789</ele>
			<time>2014-04-13T08:43:14Z</time>
		</trkpt>
		<trkpt lat="54.2718811035156" lon="13.0909423828125">
			<ele>51.7000007629395</ele>
			<time>2014-04-13T08:43:15Z</time>
		</trkpt>
		<trkpt lat="54.2718315124512" lon="13.0909261703491">
			<ele>51.5999984741211</ele>
			<time>2014-04-13T08:43:15Z</time>
		</trkpt>
		<trkpt lat="54.271785736084" lon="13.0909109115601">
			<ele>51.7999992370605</ele>
			<time>2014-04-13T08:43:16Z</time>
		</trkpt>
		<trkpt lat="54.2717399597168" lon="13.0908899307251">
			<ele>52</ele>
			<time>2014-04-13T08:43:18Z</time>
		</trkpt>
		<trkpt lat="54.2716941833496" lon="13.0908679962158">
			<ele>52.2000007629395</ele>
			<time>2014-04-13T08:43:19Z</time>
		</trkpt>
		<trkpt lat="54.2716484069824" lon="13.0908527374268">
			<ele>52.2999992370605</ele>
			<time>2014-04-13T08:43:20Z</time>
		</trkpt>
		<trkpt lat="54.2716026306152" lon="13.0908336639404">
			<ele>52.2999992370605</ele>
			<time>2014-04-13T08:43:21Z</time>
		</trkpt>
		<trkpt lat="54.2715187072754" lon="13.0907850265503">
			<ele>52.5999984741211</ele>
			<time>2014-04-13T08:43:23Z</time>
		</trkpt>
		<trkpt lat="54.2714729309082" lon="13.0907621383667">
			<ele>52.5999984741211</ele>
			<time>2014-04-13T08:43:23Z</time>
		</trkpt>
		<trkpt lat="54.2714233398438" lon="13.0907573699951">
			<ele>52.7000007629395</ele>
			<time>2014-04-13T08:43:25Z</time>
		</trkpt>
		<trkpt lat="54.2713737487793" lon="13.0907354354858">
			<ele>52.5</ele>
			<time>2014-04-13T08:43:26Z</time>
		</trkpt>
		<trkpt lat="54.2713241577148" lon="13.0907154083252">
			<ele>52.5</ele>
			<time>2014-04-13T08:43:27Z</time>
		</trkpt>
		<trkpt lat="54.2712745666504" lon="13.0907011032104">
			<ele>52.4000015258789</ele>
			<time>2014-04-13T08:43:28Z</time>
		</trkpt>
		<trkpt lat="54.2712249755859" lon="13.0906887054443">
			<ele>52.4000015258789</ele>
			<time>2014-04-13T08:43:29Z</time>
		</trkpt>
		<trkpt lat="54.2711715698242" lon="13.0906782150269">
			<ele>52.5</ele>
			<time>2014-04-13T08:43:30Z</time>
		</trkpt>
		<trkpt lat="54.2710762023926" lon="13.090651512146">
			<ele>52</ele>
			<time>2014-04-13T08:43:32Z</time>
		</trkpt>
		<trkpt lat="54.2710227966309" lon="13.0906372070313">
			<ele>52</ele>
			<time>2014-04-13T08:43:33Z</time>
		</trkpt>
		<trkpt lat="54.2709693908691" lon="13.0906200408936">
			<ele>51.7999992370605</ele>
			<time>2014-04-13T08:43:34Z</time>
		</trkpt>
		<trkpt lat="54.2709159851074" lon="13.0905981063843">
			<ele>52.2000007629395</ele>
			<time>2014-04-13T08:43:35Z</time>
		</trkpt>
		<trkpt lat="54.270866394043" lon="13.0905752182007">
			<ele>52.0999984741211</ele>
			<time>2014-04-13T08:43:36Z</time>
		</trkpt>
		<trkpt lat="54.2708168029785" lon="13.0905466079712">
			<ele>52.4000015258789</ele>
			<time>2014-04-13T08:43:37Z</time>
		</trkpt>
		<trkpt lat="54.2707710266113" lon="13.0905246734619">
			<ele>52.5</ele>
			<time>2014-04-13T08:43:38Z</time>
		</trkpt>
		<trkpt lat="54.2707290649414" lon="13.0904951095581">
			<ele>52.7999992370605</ele>
			<time>2014-04-13T08:43:39Z</time>
		</trkpt>
		<trkpt lat="54.270679473877" lon="13.0904712677002">
			<ele>52.2999992370605</ele>
			<time>2014-04-13T08:43:40Z</time>
		</trkpt>
		<trkpt lat="54.2706298828125" lon="13.0904502868652">
			<ele>52.2999992370605</ele>
			<time>2014-04-13T08:43:41Z</time>
		</trkpt>
		<trkpt lat="54.2705841064453" lon="13.0904216766357">
			<ele>52.2000007629395</ele>
			<time>2014-04-13T08:43:41Z</time>
		</trkpt>
		<trkpt lat="54.2705421447754" lon="13.0903768539429">
			<ele>52.5</ele>
			<time>2014-04-13T08:43:43Z</time>
		</trkpt>
		<trkpt lat="54.2705001831055" lon="13.0903415679932">
			<ele>52.5999984741211</ele>
			<time>2014-04-13T08:43:44Z</time>
		</trkpt>
		<trkpt lat="54.2704200744629" lon="13.0902814865112">
			<ele>52.9000015258789</ele>
			<time>2014-04-13T08:43:46Z</time>
		</trkpt>
		<trkpt lat="54.270378112793" lon="13.0902414321899">
			<ele>53.0999984741211</ele>
			<time>2014-04-13T08:43:47Z</time>
		</trkpt>
		<trkpt lat="54.2703399658203" lon="13.090202331543">
			<ele>53.2000007629395</ele>
			<time>2014-04-13T08:43:48Z</time>
		</trkpt>
		<trkpt lat="54.2702980041504" lon="13.0901699066162">
			<ele>53.0999984741211</ele>
			<time>2014-04-13T08:43:48Z</time>
		</trkpt>
		<trkpt lat="54.2702217102051" lon="13.0901031494141">
			<ele>53.4000015258789</ele>
			<time>2014-04-13T08:43:51Z</time>
		</trkpt>
		<trkpt lat="54.2701530456543" lon="13.0900478363037">
			<ele>52.9000015258789</ele>
			<time>2014-04-13T08:43:53Z</time>
		</trkpt>
		<trkpt lat="54.2700843811035" lon="13.0899839401245">
			<ele>53.2999992370605</ele>
			<time>2014-04-13T08:43:54Z</time>
		</trkpt>
		<trkpt lat="54.27001953125" lon="13.0899085998535">
			<ele>54.2999992370605</ele>
			<time>2014-04-13T08:43:57Z</time>
		</trkpt>
		<trkpt lat="54.269962310791" lon="13.0898571014404">
			<ele>54.9000015258789</ele>
			<time>2014-04-13T08:43:59Z</time>
		</trkpt>
		<trkpt lat="54.2698936462402" lon="13.0898084640503">
			<ele>54.7000007629395</ele>
			<time>2014-04-13T08:44:01Z</time>
		</trkpt>
		<trkpt lat="54.2698364257813" lon="13.0897636413574">
			<ele>55.2999992370605</ele>
			<time>2014-04-13T08:44:03Z</time>
		</trkpt>
		<trkpt lat="54.2697677612305" lon="13.0897092819214">
			<ele>55.5999984741211</ele>
			<time>2014-04-13T08:44:05Z</time>
		</trkpt>
		<trkpt lat="54.2696914672852" lon="13.0896844863892">
			<ele>55.7000007629395</ele>
			<time>2014-04-13T08:44:06Z</time>
		</trkpt>
		<trkpt lat="54.2696075439453" lon="13.0896472930908">
			<ele>56.2000007629395</ele>
			<time>2014-04-13T08:44:09Z</time>
		</trkpt>
		<trkpt lat="54.2695350646973" lon="13.08962059021">
			<ele>55.4000015258789</ele>
			<time>2014-04-13T08:44:11Z</time>
		</trkpt>
		<trkpt lat="54.2694664001465" lon="13.089581489563">
			<ele>54.9000015258789</ele>
			<time>2014-04-13T08:44:13Z</time>
		</trkpt>
		<trkpt lat="54.2693977355957" lon="13.0895690917969">
			<ele>54.5999984741211</ele>
			<time>2014-04-13T08:44:15Z</time>
		</trkpt>
		<trkpt lat="54.2693367004395" lon="13.089545249939">
			<ele>54.2000007629395</ele>
			<time>2014-04-13T08:44:17Z</time>
		</trkpt>
		<trkpt lat="54.2692832946777" lon="13.0895223617554">
			<ele>54.5</ele>
			<time>2014-04-13T08:44:20Z</time>
		</trkpt>
		<trkpt lat="54.2692375183105" lon="13.089524269104">
			<ele>56.5</ele>
			<time>2014-04-13T08:46:04Z</time>
		</trkpt>
		<trkpt lat="54.2691841125488" lon="13.0895414352417">
			<ele>57.2000007629395</ele>
			<time>2014-04-13T08:46:08Z</time>
		</trkpt>
		<trkpt lat="54.2691230773926" lon="13.0895195007324">
			<ele>57.0999984741211</ele>
			<time>2014-04-13T08:46:10Z</time>
		</trkpt>
		<trkpt lat="54.2690620422363" lon="13.0894889831543">
			<ele>56.5999984741211</ele>
			<time>2014-04-13T08:46:12Z</time>
		</trkpt>
		<trkpt lat="54.2689819335938" lon="13.0894632339478">
			<ele>56.0999984741211</ele>
			<time>2014-04-13T08:46:14Z</time>
		</trkpt>
		<trkpt lat="54.2689361572266" lon="13.0894470214844">
			<ele>56</ele>
			<time>2014-04-13T08:46:15Z</time>
		</trkpt>
		<trkpt lat="54.2688903808594" lon="13.0894298553467">
			<ele>55.7999992370605</ele>
			<time>2014-04-13T08:46:16Z</time>
		</trkpt>
		<trkpt lat="54.2688484191895" lon="13.0894155502319">
			<ele>55.5</ele>
			<time>2014-04-13T08:46:17Z</time>
		</trkpt>
		<trkpt lat="54.268798828125" lon="13.0894012451172">
			<ele>55.4000015258789</ele>
			<time>2014-04-13T08:46:18Z</time>
		</trkpt>
		<trkpt lat="54.2687492370605" lon="13.0893840789795">
			<ele>55.0999984741211</ele>
			<time>2014-04-13T08:46:20Z</time>
		</trkpt>
		<trkpt lat="54.2686996459961" lon="13.0893630981445">
			<ele>54.7000007629395</ele>
			<time>2014-04-13T08:46:21Z</time>
		</trkpt>
		<trkpt lat="54.2686424255371" lon="13.0893335342407">
			<ele>54.0999984741211</ele>
			<time>2014-04-13T08:46:23Z</time>
		</trkpt>
		<trkpt lat="54.2685317993164" lon="13.0892839431763">
			<ele>54</ele>
			<time>2014-04-13T08:46:25Z</time>
		</trkpt>
		<trkpt lat="54.2684745788574" lon="13.0892667770386">
			<ele>53.5999984741211</ele>
			<time>2014-04-13T08:46:25Z</time>
		</trkpt>
		<trkpt lat="54.2683639526367" lon="13.0892095565796">
			<ele>54.4000015258789</ele>
			<time>2014-04-13T08:46:26Z</time>
		</trkpt>
		<trkpt lat="54.2683067321777" lon="13.0891847610474">
			<ele>54.4000015258789</ele>
			<time>2014-04-13T08:46:27Z</time>
		</trkpt>
		<trkpt lat="54.268253326416" lon="13.0891590118408">
			<ele>54</ele>
			<time>2014-04-13T08:46:28Z</time>
		</trkpt>
		<trkpt lat="54.268196105957" lon="13.089129447937">
			<ele>53.7999992370605</ele>
			<time>2014-04-13T08:46:29Z</time>
		</trkpt>
		<trkpt lat="54.2681427001953" lon="13.0891046524048">
			<ele>54.0999984741211</ele>
			<time>2014-04-13T08:46:30Z</time>
		</trkpt>
		<trkpt lat="54.2680892944336" lon="13.0890779495239">
			<ele>53.7999992370605</ele>
			<time>2014-04-13T08:46:31Z</time>
		</trkpt>
		<trkpt lat="54.2680320739746" lon="13.0890417098999">
			<ele>53.9000015258789</ele>
			<time>2014-04-13T08:46:32Z</time>
		</trkpt>
		<trkpt lat="54.2679824829102" lon="13.0890140533447">
			<ele>53.7000007629395</ele>
			<time>2014-04-13T08:46:33Z</time>
		</trkpt>
		<trkpt lat="54.2679214477539" lon="13.0889863967896">
			<ele>53.5</ele>
			<time>2014-04-13T08:46:34Z</time>
		</trkpt>
		<trkpt lat="54.2678642272949" lon="13.0889587402344">
			<ele>53.9000015258789</ele>
			<time>2014-04-13T08:46:35Z</time>
		</trkpt>
		<trkpt lat="54.2678146362305" lon="13.0889282226563">
			<ele>53.9000015258789</ele>
			<time>2014-04-13T08:46:36Z</time>
		</trkpt>
		<trkpt lat="54.2677612304688" lon="13.0889015197754">
			<ele>53.9000015258789</ele>
			<time>2014-04-13T08:46:37Z</time>
		</trkpt>
		<trkpt lat="54.2677040100098" lon="13.0888671875">
			<ele>53.5</ele>
			<time>2014-04-13T08:46:38Z</time>
		</trkpt>
		<trkpt lat="54.2676429748535" lon="13.0888347625732">
			<ele>53.2999992370605</ele>
			<time>2014-04-13T08:46:39Z</time>
		</trkpt>
		<trkpt lat="54.2675895690918" lon="13.088812828064">
			<ele>52.7000007629395</ele>
			<time>2014-04-13T08:46:40Z</time>
		</trkpt>
		<trkpt lat="54.2675247192383" lon="13.0887966156006">
			<ele>52.5999984741211</ele>
			<time>2014-04-13T08:46:41Z</time>
		</trkpt>
		<trkpt lat="54.2674713134766" lon="13.0887660980225">
			<ele>51.9000015258789</ele>
			<time>2014-04-13T08:46:42Z</time>
		</trkpt>
		<trkpt lat="54.2674026489258" lon="13.0887413024902">
			<ele>51.2999992370605</ele>
			<time>2014-04-13T08:46:43Z</time>
		</trkpt>
		<trkpt lat="54.2673416137695" lon="13.0887098312378">
			<ele>51</ele>
			<time>2014-04-13T08:46:44Z</time>
		</trkpt>
		<trkpt lat="54.2672805786133" lon="13.0886783599854">
			<ele>51.2999992370605</ele>
			<time>2014-04-13T08:46:45Z</time>
		</trkpt>
		<trkpt lat="54.2672233581543" lon="13.0886468887329">
			<ele>51.5</ele>
			<time>2014-04-13T08:46:46Z</time>
		</trkpt>
		<trkpt lat="54.267162322998" lon="13.0886192321777">
			<ele>51.5</ele>
			<time>2014-04-13T08:46:47Z</time>
		</trkpt>
		<trkpt lat="54.2671051025391" lon="13.0885848999023">
			<ele>51.2000007629395</ele>
			<time>2014-04-13T08:46:48Z</time>
		</trkpt>
		<trkpt lat="54.2670516967773" lon="13.088547706604">
			<ele>50.7999992370605</ele>
			<time>2014-04-13T08:46:49Z</time>
		</trkpt>
		<trkpt lat="54.2669944763184" lon="13.0885171890259">
			<ele>50.5999984741211</ele>
			<time>2014-04-13T08:46:50Z</time>
		</trkpt>
		<trkpt lat="54.2669410705566" lon="13.0884771347046">
			<ele>50.4000015258789</ele>
			<time>2014-04-13T08:46:52Z</time>
		</trkpt>
		<trkpt lat="54.2668304443359" lon="13.0884027481079">
			<ele>50.2000007629395</ele>
			<time>2014-04-13T08:46:53Z</time>
		</trkpt>
		<trkpt lat="54.266773223877" lon="13.0883626937866">
			<ele>50.0999984741211</ele>
			<time>2014-04-13T08:46:54Z</time>
		</trkpt>
		<trkpt lat="54.2667121887207" lon="13.0883388519287">
			<ele>50.2000007629395</ele>
			<time>2014-04-13T08:46:55Z</time>
		</trkpt>
		<trkpt lat="54.2666549682617" lon="13.0883054733276">
			<ele>50.0999984741211</ele>
			<time>2014-04-13T08:46:56Z</time>
		</trkpt>
		<trkpt lat="54.2666015625" lon="13.0882682800293">
			<ele>50.2999992370605</ele>
			<time>2014-04-13T08:46:57Z</time>
		</trkpt>
		<trkpt lat="54.266544342041" lon="13.0882320404053">
			<ele>50.2999992370605</ele>
			<time>2014-04-13T08:46:57Z</time>
		</trkpt>
		<trkpt lat="54.2664947509766" lon="13.088191986084">
			<ele>50.2999992370605</ele>
			<time>2014-04-13T08:46:58Z</time>
		</trkpt>
		<trkpt lat="54.2664413452148" lon="13.0881471633911">
			<ele>50.2000007629395</ele>
			<time>2014-04-13T08:47:00Z</time>
		</trkpt>
		<trkpt lat="54.2663917541504" lon="13.0881004333496">
			<ele>49.7999992370605</ele>
			<time>2014-04-13T08:47:01Z</time>
		</trkpt>
		<trkpt lat="54.2663383483887" lon="13.0880537033081">
			<ele>49.9000015258789</ele>
			<time>2014-04-13T08:47:02Z</time>
		</trkpt>
		<trkpt lat="54.2662887573242" lon="13.0880002975464">
			<ele>50</ele>
			<time>2014-04-13T08:47:03Z</time>
		</trkpt>
		<trkpt lat="54.2662391662598" lon="13.0879554748535">
			<ele>50.0999984741211</ele>
			<time>2014-04-13T08:47:04Z</time>
		</trkpt>
		<trkpt lat="54.2661895751953" lon="13.0879077911377">
			<ele>50</ele>
			<time>2014-04-13T08:47:04Z</time>
		</trkpt>
		<trkpt lat="54.2661361694336" lon="13.0878591537476">
			<ele>50.0999984741211</ele>
			<time>2014-04-13T08:47:06Z</time>
		</trkpt>
		<trkpt lat="54.2660903930664" lon="13.0878105163574">
			<ele>50</ele>
			<time>2014-04-13T08:47:07Z</time>
		</trkpt>
		<trkpt lat="54.2660446166992" lon="13.0877618789673">
			<ele>50.0999984741211</ele>
			<time>2014-04-13T08:47:08Z</time>
		</trkpt>
		<trkpt lat="54.2659950256348" lon="13.0877161026001">
			<ele>50.5</ele>
			<time>2014-04-13T08:47:09Z</time>
		</trkpt>
		<trkpt lat="54.2659530639648" lon="13.0876684188843">
			<ele>50.7000007629395</ele>
			<time>2014-04-13T08:47:10Z</time>
		</trkpt>
		<trkpt lat="54.2658996582031" lon="13.08762550354">
			<ele>50.5999984741211</ele>
			<time>2014-04-13T08:47:11Z</time>
		</trkpt>
		<trkpt lat="54.2658309936523" lon="13.0875406265259">
			<ele>50.7000007629395</ele>
			<time>2014-04-13T08:47:13Z</time>
		</trkpt>
		<trkpt lat="54.2657775878906" lon="13.0874862670898">
			<ele>50.4000015258789</ele>
			<time>2014-04-13T08:47:14Z</time>
		</trkpt>
		<trkpt lat="54.2657318115234" lon="13.0874242782593">
			<ele>50.0999984741211</ele>
			<time>2014-04-13T08:47:15Z</time>
		</trkpt>
		<trkpt lat="54.265682220459" lon="13.0873899459839">
			<ele>50.4000015258789</ele>
			<time>2014-04-13T08:47:15Z</time>
		</trkpt>
		<trkpt lat="54.2656288146973" lon="13.0873107910156">
			<ele>50.7000007629395</ele>
			<time>2014-04-13T08:47:18Z</time>
		</trkpt>
		<trkpt lat="54.2655487060547" lon="13.0872459411621">
			<ele>50.5999984741211</ele>
			<time>2014-04-13T08:47:20Z</time>
		</trkpt>
		<trkpt lat="54.2655029296875" lon="13.0872001647949">
			<ele>50.2000007629395</ele>
			<time>2014-04-13T08:47:21Z</time>
		</trkpt>
		<trkpt lat="54.2654647827148" lon="13.0871543884277">
			<ele>50</ele>
			<time>2014-04-13T08:47:22Z</time>
		</trkpt>
		<trkpt lat="54.2654266357422" lon="13.0871076583862">
			<ele>50.4000015258789</ele>
			<time>2014-04-13T08:47:23Z</time>
		</trkpt>
		<trkpt lat="54.2653846740723" lon="13.087064743042">
			<ele>50.7000007629395</ele>
			<time>2014-04-13T08:47:23Z</time>
		</trkpt>
		<trkpt lat="54.2653121948242" lon="13.0869760513306">
			<ele>51.2999992370605</ele>
			<time>2014-04-13T08:47:26Z</time>
		</trkpt>
		<trkpt lat="54.2652397155762" lon="13.0868988037109">
			<ele>51.7000007629395</ele>
			<time>2014-04-13T08:47:28Z</time>
		</trkpt>
		<trkpt lat="54.2651710510254" lon="13.0868330001831">
			<ele>52.0999984741211</ele>
			<time>2014-04-13T08:47:30Z</time>
		</trkpt>
		<trkpt lat="54.2651062011719" lon="13.0867624282837">
			<ele>51.9000015258789</ele>
			<time>2014-04-13T08:47:31Z</time>
		</trkpt>
		<trkpt lat="54.2650489807129" lon="13.0866966247559">
			<ele>52.0999984741211</ele>
			<time>2014-04-13T08:47:34Z</time>
		</trkpt>
		<trkpt lat="54.2649917602539" lon="13.0866260528564">
			<ele>52.2000007629395</ele>
			<time>2014-04-13T08:47:35Z</time>
		</trkpt>
		<trkpt lat="54.2649345397949" lon="13.0865650177002">
			<ele>51.9000015258789</ele>
			<time>2014-04-13T08:47:38Z</time>
		</trkpt>
		<trkpt lat="54.2648735046387" lon="13.0865001678467">
			<ele>52</ele>
			<time>2014-04-13T08:47:39Z</time>
		</trkpt>
		<trkpt lat="54.2648124694824" lon="13.0864315032959">
			<ele>51.7999992370605</ele>
			<time>2014-04-13T08:47:41Z</time>
		</trkpt>
		<trkpt lat="54.2647552490234" lon="13.0863609313965">
			<ele>51.5</ele>
			<time>2014-04-13T08:47:44Z</time>
		</trkpt>
		<trkpt lat="54.2647018432617" lon="13.0862913131714">
			<ele>51.2999992370605</ele>
			<time>2014-04-13T08:47:46Z</time>
		</trkpt>
		<trkpt lat="54.2646446228027" lon="13.0862245559692">
			<ele>51.2999992370605</ele>
			<time>2014-04-13T08:47:47Z</time>
		</trkpt>
		<trkpt lat="54.2645797729492" lon="13.0861539840698">
			<ele>51</ele>
			<time>2014-04-13T08:47:49Z</time>
		</trkpt>
		<trkpt lat="54.2645149230957" lon="13.0860815048218">
			<ele>51.0999984741211</ele>
			<time>2014-04-13T08:47:53Z</time>
		</trkpt>
		<trkpt lat="54.2644538879395" lon="13.0860061645508">
			<ele>50.7000007629395</ele>
			<time>2014-04-13T08:47:54Z</time>
		</trkpt>
		<trkpt lat="54.2643928527832" lon="13.0859317779541">
			<ele>50.9000015258789</ele>
			<time>2014-04-13T08:47:56Z</time>
		</trkpt>
		<trkpt lat="54.264331817627" lon="13.0858612060547">
			<ele>50.5999984741211</ele>
			<time>2014-04-13T08:47:58Z</time>
		</trkpt>
		<trkpt lat="54.2642669677734" lon="13.0857877731323">
			<ele>50.4000015258789</ele>
			<time>2014-04-13T08:48:00Z</time>
		</trkpt>
		<trkpt lat="54.2641639709473" lon="13.0856790542603">
			<ele>50.5</ele>
			<time>2014-04-13T08:48:03Z</time>
		</trkpt>
		<trkpt lat="54.2640953063965" lon="13.085599899292">
			<ele>50.2999992370605</ele>
			<time>2014-04-13T08:48:05Z</time>
		</trkpt>
		<trkpt lat="54.2640266418457" lon="13.085521697998">
			<ele>50.2000007629395</ele>
			<time>2014-04-13T08:48:07Z</time>
		</trkpt>
		<trkpt lat="54.2639541625977" lon="13.0854377746582">
			<ele>50.2000007629395</ele>
			<time>2014-04-13T08:48:09Z</time>
		</trkpt>
		<trkpt lat="54.2638854980469" lon="13.0853633880615">
			<ele>50.0999984741211</ele>
			<time>2014-04-13T08:48:10Z</time>
		</trkpt>
		<trkpt lat="54.2638168334961" lon="13.0852851867676">
			<ele>50.0999984741211</ele>
			<time>2014-04-13T08:48:13Z</time>
		</trkpt>
		<trkpt lat="54.2637481689453" lon="13.0852088928223">
			<ele>50</ele>
			<time>2014-04-13T08:48:15Z</time>
		</trkpt>
		<trkpt lat="54.2636795043945" lon="13.0851316452026">
			<ele>50.0999984741211</ele>
			<time>2014-04-13T08:48:17Z</time>
		</trkpt>
		<trkpt lat="54.2636108398438" lon="13.085057258606">
			<ele>50.2000007629395</ele>
			<time>2014-04-13T08:48:18Z</time>
		</trkpt>
		<trkpt lat="54.2635498046875" lon="13.0849800109863">
			<ele>50.2000007629395</ele>
			<time>2014-04-13T08:48:21Z</time>
		</trkpt>
		<trkpt lat="54.263484954834" lon="13.0849075317383">
			<ele>50.2000007629395</ele>
			<time>2014-04-13T08:48:22Z</time>
		</trkpt>
		<trkpt lat="54.2634239196777" lon="13.0848331451416">
			<ele>50.0999984741211</ele>
			<time>2014-04-13T08:48:25Z</time>
		</trkpt>
		<trkpt lat="54.2633590698242" lon="13.0847587585449">
			<ele>49.9000015258789</ele>
			<time>2014-04-13T08:48:27Z</time>
		</trkpt>
		<trkpt lat="54.2632904052734" lon="13.0846834182739">
			<ele>50.0999984741211</ele>
			<time>2014-04-13T08:48:29Z</time>
		</trkpt>
		<trkpt lat="54.2632255554199" lon="13.0846109390259">
			<ele>49.7999992370605</ele>
			<time>2014-04-13T08:48:30Z</time>
		</trkpt>
		<trkpt lat="54.2631607055664" lon="13.0845317840576">
			<ele>49.9000015258789</ele>
			<time>2014-04-13T08:48:33Z</time>
		</trkpt>
		<trkpt lat="54.2630920410156" lon="13.0844535827637">
			<ele>50</ele>
			<time>2014-04-13T08:48:34Z</time>
		</trkpt>
		<trkpt lat="54.2630233764648" lon="13.084379196167">
			<ele>49.9000015258789</ele>
			<time>2014-04-13T08:48:37Z</time>
		</trkpt>
		<trkpt lat="54.2629585266113" lon="13.0842971801758">
			<ele>50</ele>
			<time>2014-04-13T08:48:39Z</time>
		</trkpt>
		<trkpt lat="54.2628860473633" lon="13.0842199325562">
			<ele>49.7000007629395</ele>
			<time>2014-04-13T08:48:41Z</time>
		</trkpt>
		<trkpt lat="54.2628135681152" lon="13.0841436386108">
			<ele>49.7999992370605</ele>
			<time>2014-04-13T08:48:43Z</time>
		</trkpt>
		<trkpt lat="54.2627487182617" lon="13.0840549468994">
			<ele>49.7000007629395</ele>
			<time>2014-04-13T08:48:44Z</time>
		</trkpt>
		<trkpt lat="54.2626800537109" lon="13.0839719772339">
			<ele>50.2000007629395</ele>
			<time>2014-04-13T08:48:47Z</time>
		</trkpt>
		<trkpt lat="54.2626190185547" lon="13.0839023590088">
			<ele>50.5</ele>
			<time>2014-04-13T08:48:49Z</time>
		</trkpt>
		<trkpt lat="54.2625541687012" lon="13.0838308334351">
			<ele>50.5</ele>
			<time>2014-04-13T08:48:51Z</time>
		</trkpt>
		<trkpt lat="54.2624931335449" lon="13.0837554931641">
			<ele>50.5999984741211</ele>
			<time>2014-04-13T08:48:53Z</time>
		</trkpt>
		<trkpt lat="54.2624282836914" lon="13.0836763381958">
			<ele>50.5</ele>
			<time>2014-04-13T08:48:55Z</time>
		</trkpt>
		<trkpt lat="54.262378692627" lon="13.0836029052734">
			<ele>50.7000007629395</ele>
			<time>2014-04-13T08:48:57Z</time>
		</trkpt>
		<trkpt lat="54.2623252868652" lon="13.0835418701172">
			<ele>50.5999984741211</ele>
			<time>2014-04-13T08:48:59Z</time>
		</trkpt>
		<trkpt lat="54.262264251709" lon="13.0834636688232">
			<ele>50.5</ele>
			<time>2014-04-13T08:49:01Z</time>
		</trkpt>
		<trkpt lat="54.26220703125" lon="13.0834007263184">
			<ele>50</ele>
			<time>2014-04-13T08:49:03Z</time>
		</trkpt>
		<trkpt lat="54.2621459960938" lon="13.0833196640015">
			<ele>49.7000007629395</ele>
			<time>2014-04-13T08:49:05Z</time>
		</trkpt>
		<trkpt lat="54.2620811462402" lon="13.0832376480103">
			<ele>49.5</ele>
			<time>2014-04-13T08:49:06Z</time>
		</trkpt>
		<trkpt lat="54.2620162963867" lon="13.0831470489502">
			<ele>49</ele>
			<time>2014-04-13T08:49:09Z</time>
		</trkpt>
		<trkpt lat="54.2619476318359" lon="13.0830488204956">
			<ele>48.9000015258789</ele>
			<time>2014-04-13T08:49:11Z</time>
		</trkpt>
		<trkpt lat="54.2619094848633" lon="13.0829973220825">
			<ele>48.5999984741211</ele>
			<time>2014-04-13T08:49:12Z</time>
		</trkpt>
		<trkpt lat="54.2618675231934" lon="13.0829429626465">
			<ele>48.4000015258789</ele>
			<time>2014-04-13T08:49:13Z</time>
		</trkpt>
		<trkpt lat="54.2618255615234" lon="13.0828886032104">
			<ele>48.2999992370605</ele>
			<time>2014-04-13T08:49:14Z</time>
		</trkpt>
		<trkpt lat="54.2617835998535" lon="13.0828323364258">
			<ele>48.2000007629395</ele>
			<time>2014-04-13T08:49:15Z</time>
		</trkpt>
		<trkpt lat="54.2617416381836" lon="13.0827760696411">
			<ele>47.9000015258789</ele>
			<time>2014-04-13T08:49:15Z</time>
		</trkpt>
		<trkpt lat="54.2616996765137" lon="13.0827226638794">
			<ele>47.5999984741211</ele>
			<time>2014-04-13T08:49:17Z</time>
		</trkpt>
		<trkpt lat="54.2616539001465" lon="13.0826683044434">
			<ele>47.4000015258789</ele>
			<time>2014-04-13T08:49:17Z</time>
		</trkpt>
		<trkpt lat="54.2616119384766" lon="13.0826177597046">
			<ele>47.4000015258789</ele>
			<time>2014-04-13T08:49:19Z</time>
		</trkpt>
		<trkpt lat="54.2615737915039" lon="13.0825700759888">
			<ele>47.5999984741211</ele>
			<time>2014-04-13T08:49:20Z</time>
		</trkpt>
		<trkpt lat="54.2615394592285" lon="13.0825214385986">
			<ele>47.7000007629395</ele>
			<time>2014-04-13T08:49:21Z</time>
		</trkpt>
		<trkpt lat="54.2615013122559" lon="13.0824766159058">
			<ele>47.7000007629395</ele>
			<time>2014-04-13T08:49:22Z</time>
		</trkpt>
		<trkpt lat="54.2614326477051" lon="13.0823755264282">
			<ele>47.9000015258789</ele>
			<time>2014-04-13T08:49:24Z</time>
		</trkpt>
		<trkpt lat="54.2613945007324" lon="13.0823240280151">
			<ele>48</ele>
			<time>2014-04-13T08:49:24Z</time>
		</trkpt>
		<trkpt lat="54.261360168457" lon="13.0822677612305">
			<ele>48.2000007629395</ele>
			<time>2014-04-13T08:49:26Z</time>
		</trkpt>
		<trkpt lat="54.2613296508789" lon="13.0822124481201">
			<ele>48.2999992370605</ele>
			<time>2014-04-13T08:49:27Z</time>
		</trkpt>
		<trkpt lat="54.2612609863281" lon="13.0821237564087">
			<ele>48.5999984741211</ele>
			<time>2014-04-13T08:49:28Z</time>
		</trkpt>
		<trkpt lat="54.2612037658691" lon="13.082049369812">
			<ele>49.2000007629395</ele>
			<time>2014-04-13T08:49:31Z</time>
		</trkpt>
		<trkpt lat="54.2611503601074" lon="13.0819835662842">
			<ele>49.5999984741211</ele>
			<time>2014-04-13T08:49:33Z</time>
		</trkpt>
		<trkpt lat="54.2611083984375" lon="13.0819225311279">
			<ele>50.0999984741211</ele>
			<time>2014-04-13T08:49:35Z</time>
		</trkpt>
		<trkpt lat="54.2610702514648" lon="13.0818662643433">
			<ele>50.4000015258789</ele>
			<time>2014-04-13T08:49:37Z</time>
		</trkpt>
		<trkpt lat="54.2610244750977" lon="13.0818109512329">
			<ele>50.5</ele>
			<time>2014-04-13T08:49:38Z</time>
		</trkpt>
		<trkpt lat="54.2609825134277" lon="13.0817527770996">
			<ele>50.5</ele>
			<time>2014-04-13T08:49:41Z</time>
		</trkpt>
		<trkpt lat="54.2609329223633" lon="13.081693649292">
			<ele>50.5</ele>
			<time>2014-04-13T08:49:43Z</time>
		</trkpt>
		<trkpt lat="54.2608795166016" lon="13.0816173553467">
			<ele>50.2999992370605</ele>
			<time>2014-04-13T08:49:44Z</time>
		</trkpt>
		<trkpt lat="54.260814666748" lon="13.0815439224243">
			<ele>50.2000007629395</ele>
			<time>2014-04-13T08:49:46Z</time>
		</trkpt>
		<trkpt lat="54.2607765197754" lon="13.0815000534058">
			<ele>49.7999992370605</ele>
			<time>2014-04-13T08:49:48Z</time>
		</trkpt>
		<trkpt lat="54.2607345581055" lon="13.0814542770386">
			<ele>49.7999992370605</ele>
			<time>2014-04-13T08:49:48Z</time>
		</trkpt>
		<trkpt lat="54.2606964111328" lon="13.0814151763916">
			<ele>49.9000015258789</ele>
			<time>2014-04-13T08:49:50Z</time>
		</trkpt>
		<trkpt lat="54.2606201171875" lon="13.0813465118408">
			<ele>49.5</ele>
			<time>2014-04-13T08:49:51Z</time>
		</trkpt>
		<trkpt lat="54.260555267334" lon="13.0812788009644">
			<ele>49.5</ele>
			<time>2014-04-13T08:49:54Z</time>
		</trkpt>
		<trkpt lat="54.2604904174805" lon="13.0812101364136">
			<ele>49.7999992370605</ele>
			<time>2014-04-13T08:49:56Z</time>
		</trkpt>
		<trkpt lat="54.260425567627" lon="13.0811452865601">
			<ele>50.2000007629395</ele>
			<time>2014-04-13T08:49:58Z</time>
		</trkpt>
		<trkpt lat="54.260368347168" lon="13.0810832977295">
			<ele>50.5</ele>
			<time>2014-04-13T08:49:59Z</time>
		</trkpt>
		<trkpt lat="54.260311126709" lon="13.0810222625732">
			<ele>50.7000007629395</ele>
			<time>2014-04-13T08:50:02Z</time>
		</trkpt>
		<trkpt lat="54.26025390625" lon="13.0809717178345">
			<ele>50.5</ele>
			<time>2014-04-13T08:50:04Z</time>
		</trkpt>
		<trkpt lat="54.260196685791" lon="13.0809202194214">
			<ele>50.5999984741211</ele>
			<time>2014-04-13T08:50:06Z</time>
		</trkpt>
		<trkpt lat="54.2601356506348" lon="13.0808687210083">
			<ele>50.5999984741211</ele>
			<time>2014-04-13T08:50:08Z</time>
		</trkpt>
		<trkpt lat="54.2600784301758" lon="13.0807991027832">
			<ele>50.5999984741211</ele>
			<time>2014-04-13T08:50:10Z</time>
		</trkpt>
		<trkpt lat="54.260009765625" lon="13.0807323455811">
			<ele>50.2999992370605</ele>
			<time>2014-04-13T08:50:11Z</time>
		</trkpt>
		<trkpt lat="54.259937286377" lon="13.080662727356">
			<ele>50</ele>
			<time>2014-04-13T08:50:14Z</time>
		</trkpt>
		<trkpt lat="54.2598609924316" lon="13.0805835723877">
			<ele>49.7000007629395</ele>
			<time>2014-04-13T08:50:16Z</time>
		</trkpt>
		<trkpt lat="54.259822845459" lon="13.0805435180664">
			<ele>49.5</ele>
			<time>2014-04-13T08:50:17Z</time>
		</trkpt>
		<trkpt lat="54.2597465515137" lon="13.080470085144">
			<ele>49.4000015258789</ele>
			<time>2014-04-13T08:50:19Z</time>
		</trkpt>
		<trkpt lat="54.2596702575684" lon="13.0803966522217">
			<ele>49.5</ele>
			<time>2014-04-13T08:50:20Z</time>
		</trkpt>
		<trkpt lat="54.2595977783203" lon="13.0803232192993">
			<ele>49.7000007629395</ele>
			<time>2014-04-13T08:50:23Z</time>
		</trkpt>
		<trkpt lat="54.2595291137695" lon="13.0802526473999">
			<ele>49.5</ele>
			<time>2014-04-13T08:50:24Z</time>
		</trkpt>
		<trkpt lat="54.2594566345215" lon="13.0801877975464">
			<ele>49.5999984741211</ele>
			<time>2014-04-13T08:50:27Z</time>
		</trkpt>
		<trkpt lat="54.2593803405762" lon="13.080135345459">
			<ele>49.7000007629395</ele>
			<time>2014-04-13T08:50:29Z</time>
		</trkpt>
		<trkpt lat="54.2593116760254" lon="13.0800762176514">
			<ele>49.7999992370605</ele>
			<time>2014-04-13T08:50:31Z</time>
		</trkpt>
		<trkpt lat="54.2592430114746" lon="13.0800189971924">
			<ele>50.0999984741211</ele>
			<time>2014-04-13T08:50:33Z</time>
		</trkpt>
		<trkpt lat="54.2591743469238" lon="13.0799694061279">
			<ele>50.2000007629395</ele>
			<time>2014-04-13T08:50:35Z</time>
		</trkpt>
		<trkpt lat="54.2591133117676" lon="13.0799188613892">
			<ele>50.5</ele>
			<time>2014-04-13T08:50:37Z</time>
		</trkpt>
		<trkpt lat="54.2590560913086" lon="13.0798759460449">
			<ele>50.7000007629395</ele>
			<time>2014-04-13T08:50:39Z</time>
		</trkpt>
		<trkpt lat="54.2590026855469" lon="13.0798416137695">
			<ele>50.7999992370605</ele>
			<time>2014-04-13T08:50:40Z</time>
		</trkpt>
		<trkpt lat="54.2589530944824" lon="13.0798015594482">
			<ele>51.2000007629395</ele>
			<time>2014-04-13T08:50:43Z</time>
		</trkpt>
		<trkpt lat="54.2588996887207" lon="13.0797624588013">
			<ele>51.5</ele>
			<time>2014-04-13T08:50:45Z</time>
		</trkpt>
		<trkpt lat="54.258846282959" lon="13.0797252655029">
			<ele>51.7000007629395</ele>
			<time>2014-04-13T08:50:47Z</time>
		</trkpt>
		<trkpt lat="54.2587966918945" lon="13.079683303833">
			<ele>51.9000015258789</ele>
			<time>2014-04-13T08:50:49Z</time>
		</trkpt>
		<trkpt lat="54.2587471008301" lon="13.0796480178833">
			<ele>52.2000007629395</ele>
			<time>2014-04-13T08:50:51Z</time>
		</trkpt>
		<trkpt lat="54.2586936950684" lon="13.0796127319336">
			<ele>52.2999992370605</ele>
			<time>2014-04-13T08:50:53Z</time>
		</trkpt>
		<trkpt lat="54.2586441040039" lon="13.0795764923096">
			<ele>52.5999984741211</ele>
			<time>2014-04-13T08:50:55Z</time>
		</trkpt>
		<trkpt lat="54.2585945129395" lon="13.0795431137085">
			<ele>52.7000007629395</ele>
			<time>2014-04-13T08:50:57Z</time>
		</trkpt>
		<trkpt lat="54.258544921875" lon="13.0795059204102">
			<ele>53</ele>
			<time>2014-04-13T08:50:59Z</time>
		</trkpt>
		<trkpt lat="54.2584991455078" lon="13.0794687271118">
			<ele>53.0999984741211</ele>
			<time>2014-04-13T08:51:01Z</time>
		</trkpt>
		<trkpt lat="54.2584457397461" lon="13.0794324874878">
			<ele>53.0999984741211</ele>
			<time>2014-04-13T08:51:03Z</time>
		</trkpt>
		<trkpt lat="54.2583923339844" lon="13.0793933868408">
			<ele>53.2999992370605</ele>
			<time>2014-04-13T08:51:05Z</time>
		</trkpt>
		<trkpt lat="54.2583389282227" lon="13.0793561935425">
			<ele>53.2999992370605</ele>
			<time>2014-04-13T08:51:07Z</time>
		</trkpt>
		<trkpt lat="54.2582855224609" lon="13.0793199539185">
			<ele>53.2999992370605</ele>
			<time>2014-04-13T08:51:09Z</time>
		</trkpt>
		<trkpt lat="54.2582321166992" lon="13.0792837142944">
			<ele>53.5999984741211</ele>
			<time>2014-04-13T08:51:11Z</time>
		</trkpt>
		<trkpt lat="54.2581787109375" lon="13.0792474746704">
			<ele>53.4000015258789</ele>
			<time>2014-04-13T08:51:13Z</time>
		</trkpt>
		<trkpt lat="54.2581214904785" lon="13.079213142395">
			<ele>53.4000015258789</ele>
			<time>2014-04-13T08:51:15Z</time>
		</trkpt>
		<trkpt lat="54.2580604553223" lon="13.079174041748">
			<ele>53.4000015258789</ele>
			<time>2014-04-13T08:51:17Z</time>
		</trkpt>
		<trkpt lat="54.2579956054688" lon="13.0791254043579">
			<ele>53.4000015258789</ele>
			<time>2014-04-13T08:51:19Z</time>
		</trkpt>
		<trkpt lat="54.257926940918" lon="13.0790901184082">
			<ele>53.4000015258789</ele>
			<time>2014-04-13T08:51:21Z</time>
		</trkpt>
		<trkpt lat="54.2578468322754" lon="13.0790510177612">
			<ele>53.5</ele>
			<time>2014-04-13T08:51:23Z</time>
		</trkpt>
		<trkpt lat="54.2577705383301" lon="13.0789985656738">
			<ele>53.4000015258789</ele>
			<time>2014-04-13T08:51:25Z</time>
		</trkpt>
		<trkpt lat="54.2576904296875" lon="13.0789394378662">
			<ele>53.2000007629395</ele>
			<time>2014-04-13T08:51:27Z</time>
		</trkpt>
		<trkpt lat="54.2576141357422" lon="13.0788803100586">
			<ele>53.2000007629395</ele>
			<time>2014-04-13T08:51:29Z</time>
		</trkpt>
		<trkpt lat="54.2575378417969" lon="13.0788221359253">
			<ele>53.2000007629395</ele>
			<time>2014-04-13T08:51:31Z</time>
		</trkpt>
		<trkpt lat="54.257453918457" lon="13.078763961792">
			<ele>52.5999984741211</ele>
			<time>2014-04-13T08:51:33Z</time>
		</trkpt>
		<trkpt lat="54.2574119567871" lon="13.0787296295166">
			<ele>52.5999984741211</ele>
			<time>2014-04-13T08:51:34Z</time>
		</trkpt>
		<trkpt lat="54.2573318481445" lon="13.0786619186401">
			<ele>52.5</ele>
			<time>2014-04-13T08:51:36Z</time>
		</trkpt>
		<trkpt lat="54.257251739502" lon="13.0785961151123">
			<ele>52.0999984741211</ele>
			<time>2014-04-13T08:51:38Z</time>
		</trkpt>
		<trkpt lat="54.2571754455566" lon="13.0785245895386">
			<ele>52.2000007629395</ele>
			<time>2014-04-13T08:51:40Z</time>
		</trkpt>
		<trkpt lat="54.2570953369141" lon="13.0784645080566">
			<ele>52.2000007629395</ele>
			<time>2014-04-13T08:51:42Z</time>
		</trkpt>
		<trkpt lat="54.2570152282715" lon="13.0784015655518">
			<ele>52.2000007629395</ele>
			<time>2014-04-13T08:51:44Z</time>
		</trkpt>
		<trkpt lat="54.2569770812988" lon="13.0783662796021">
			<ele>52.2999992370605</ele>
			<time>2014-04-13T08:51:44Z</time>
		</trkpt>
		<trkpt lat="54.2568969726563" lon="13.0782947540283">
			<ele>52.5</ele>
			<time>2014-04-13T08:51:47Z</time>
		</trkpt>
		<trkpt lat="54.2568244934082" lon="13.0782260894775">
			<ele>52.0999984741211</ele>
			<time>2014-04-13T08:51:49Z</time>
		</trkpt>
		<trkpt lat="54.2567520141602" lon="13.0781621932983">
			<ele>51.7000007629395</ele>
			<time>2014-04-13T08:51:51Z</time>
		</trkpt>
		<trkpt lat="54.2566795349121" lon="13.0780916213989">
			<ele>52.4000015258789</ele>
			<time>2014-04-13T08:51:53Z</time>
		</trkpt>
		<trkpt lat="54.2566108703613" lon="13.0780239105225">
			<ele>52.7999992370605</ele>
			<time>2014-04-13T08:51:55Z</time>
		</trkpt>
		<trkpt lat="54.2565422058105" lon="13.0779628753662">
			<ele>53.0999984741211</ele>
			<time>2014-04-13T08:51:57Z</time>
		</trkpt>
		<trkpt lat="54.256477355957" lon="13.0779008865356">
			<ele>53.5999984741211</ele>
			<time>2014-04-13T08:51:59Z</time>
		</trkpt>
		<trkpt lat="54.2564163208008" lon="13.077844619751">
			<ele>53.7000007629395</ele>
			<time>2014-04-13T08:52:01Z</time>
		</trkpt>
		<trkpt lat="54.2563629150391" lon="13.0777835845947">
			<ele>53.7000007629395</ele>
			<time>2014-04-13T08:52:03Z</time>
		</trkpt>
		<trkpt lat="54.2563133239746" lon="13.0777254104614">
			<ele>54.0999984741211</ele>
			<time>2014-04-13T08:52:04Z</time>
		</trkpt>
		<trkpt lat="54.2562675476074" lon="13.0776605606079">
			<ele>54</ele>
			<time>2014-04-13T08:52:07Z</time>
		</trkpt>
		<trkpt lat="54.256217956543" lon="13.0776128768921">
			<ele>54.0999984741211</ele>
			<time>2014-04-13T08:52:09Z</time>
		</trkpt>
		<trkpt lat="54.2561645507813" lon="13.0775527954102">
			<ele>54.2000007629395</ele>
			<time>2014-04-13T08:52:11Z</time>
		</trkpt>
		<trkpt lat="54.2561111450195" lon="13.0775089263916">
			<ele>54.2000007629395</ele>
			<time>2014-04-13T08:52:13Z</time>
		</trkpt>
		<trkpt lat="54.2560539245605" lon="13.0774631500244">
			<ele>53.9000015258789</ele>
			<time>2014-04-13T08:52:15Z</time>
		</trkpt>
		<trkpt lat="54.2560005187988" lon="13.0774173736572">
			<ele>53.5999984741211</ele>
			<time>2014-04-13T08:52:17Z</time>
		</trkpt>
		<trkpt lat="54.2559509277344" lon="13.0773639678955">
			<ele>53.5</ele>
			<time>2014-04-13T08:52:19Z</time>
		</trkpt>
		<trkpt lat="54.2559013366699" lon="13.0773134231567">
			<ele>53.7999992370605</ele>
			<time>2014-04-13T08:52:21Z</time>
		</trkpt>
		<trkpt lat="54.2558517456055" lon="13.0772552490234">
			<ele>54</ele>
			<time>2014-04-13T08:52:23Z</time>
		</trkpt>
		<trkpt lat="54.255802154541" lon="13.0771970748901">
			<ele>53.9000015258789</ele>
			<time>2014-04-13T08:52:25Z</time>
		</trkpt>
		<trkpt lat="54.2557487487793" lon="13.0771560668945">
			<ele>54.4000015258789</ele>
			<time>2014-04-13T08:52:26Z</time>
		</trkpt>
		<trkpt lat="54.2556953430176" lon="13.0771074295044">
			<ele>54.2999992370605</ele>
			<time>2014-04-13T08:52:29Z</time>
		</trkpt>
		<trkpt lat="54.2556381225586" lon="13.0770463943481">
			<ele>54.5999984741211</ele>
			<time>2014-04-13T08:52:31Z</time>
		</trkpt>
		<trkpt lat="54.2555809020996" lon="13.0769777297974">
			<ele>55</ele>
			<time>2014-04-13T08:52:33Z</time>
		</trkpt>
		<trkpt lat="54.2555198669434" lon="13.0769138336182">
			<ele>55</ele>
			<time>2014-04-13T08:52:35Z</time>
		</trkpt>
		<trkpt lat="54.2554588317871" lon="13.0768518447876">
			<ele>55</ele>
			<time>2014-04-13T08:52:36Z</time>
		</trkpt>
		<trkpt lat="54.2553977966309" lon="13.0767765045166">
			<ele>55.0999984741211</ele>
			<time>2014-04-13T08:52:39Z</time>
		</trkpt>
		<trkpt lat="54.2553329467773" lon="13.0766973495483">
			<ele>54.9000015258789</ele>
			<time>2014-04-13T08:52:41Z</time>
		</trkpt>
		<trkpt lat="54.255256652832" lon="13.0766429901123">
			<ele>54.4000015258789</ele>
			<time>2014-04-13T08:52:43Z</time>
		</trkpt>
		<trkpt lat="54.255184173584" lon="13.0765800476074">
			<ele>54.0999984741211</ele>
			<time>2014-04-13T08:52:45Z</time>
		</trkpt>
		<trkpt lat="54.2551422119141" lon="13.0765399932861">
			<ele>53.9000015258789</ele>
			<time>2014-04-13T08:52:46Z</time>
		</trkpt>
		<trkpt lat="54.2551078796387" lon="13.0764980316162">
			<ele>53.5999984741211</ele>
			<time>2014-04-13T08:52:47Z</time>
		</trkpt>
		<trkpt lat="54.2550659179688" lon="13.0764513015747">
			<ele>53.5</ele>
			<time>2014-04-13T08:52:48Z</time>
		</trkpt>
		<trkpt lat="54.2550277709961" lon="13.0764102935791">
			<ele>53.4000015258789</ele>
			<time>2014-04-13T08:52:49Z</time>
		</trkpt>
		<trkpt lat="54.2549858093262" lon="13.0763683319092">
			<ele>53.2999992370605</ele>
			<time>2014-04-13T08:52:50Z</time>
		</trkpt>
		<trkpt lat="54.2549438476563" lon="13.0763206481934">
			<ele>53.2000007629395</ele>
			<time>2014-04-13T08:52:51Z</time>
		</trkpt>
		<trkpt lat="54.2549057006836" lon="13.0762767791748">
			<ele>52.9000015258789</ele>
			<time>2014-04-13T08:52:52Z</time>
		</trkpt>
		<trkpt lat="54.2548599243164" lon="13.0762271881104">
			<ele>52.7000007629395</ele>
			<time>2014-04-13T08:52:53Z</time>
		</trkpt>
		<trkpt lat="54.2548179626465" lon="13.0761737823486">
			<ele>52.4000015258789</ele>
			<time>2014-04-13T08:52:54Z</time>
		</trkpt>
		<trkpt lat="54.2547721862793" lon="13.0761260986328">
			<ele>52.7000007629395</ele>
			<time>2014-04-13T08:52:54Z</time>
		</trkpt>
		<trkpt lat="54.2547302246094" lon="13.0760822296143">
			<ele>52.4000015258789</ele>
			<time>2014-04-13T08:52:56Z</time>
		</trkpt>
		<trkpt lat="54.2546882629395" lon="13.0760431289673">
			<ele>52.2999992370605</ele>
			<time>2014-04-13T08:52:57Z</time>
		</trkpt>
		<trkpt lat="54.2546463012695" lon="13.0760049819946">
			<ele>52.5</ele>
			<time>2014-04-13T08:52:58Z</time>
		</trkpt>
		<trkpt lat="54.2545738220215" lon="13.0759153366089">
			<ele>52.7000007629395</ele>
			<time>2014-04-13T08:52:59Z</time>
		</trkpt>
		<trkpt lat="54.2545013427734" lon="13.0758333206177">
			<ele>52.5</ele>
			<time>2014-04-13T08:53:02Z</time>
		</trkpt>
		<trkpt lat="54.2544212341309" lon="13.0757741928101">
			<ele>52.5</ele>
			<time>2014-04-13T08:53:04Z</time>
		</trkpt>
		<trkpt lat="54.2543487548828" lon="13.0757026672363">
			<ele>52.7999992370605</ele>
			<time>2014-04-13T08:53:06Z</time>
		</trkpt>
		<trkpt lat="54.2542724609375" lon="13.0756435394287">
			<ele>52.7000007629395</ele>
			<time>2014-04-13T08:53:08Z</time>
		</trkpt>
		<trkpt lat="54.2541999816895" lon="13.0755844116211">
			<ele>52.4000015258789</ele>
			<time>2014-04-13T08:53:10Z</time>
		</trkpt>
		<trkpt lat="54.2541313171387" lon="13.0755224227905">
			<ele>52.0999984741211</ele>
			<time>2014-04-13T08:53:12Z</time>
		</trkpt>
		<trkpt lat="54.2540550231934" lon="13.0754690170288">
			<ele>52.2000007629395</ele>
			<time>2014-04-13T08:53:14Z</time>
		</trkpt>
		<trkpt lat="54.2539863586426" lon="13.0754156112671">
			<ele>52.7999992370605</ele>
			<time>2014-04-13T08:53:15Z</time>
		</trkpt>
		<trkpt lat="54.2539215087891" lon="13.0753507614136">
			<ele>52.9000015258789</ele>
			<time>2014-04-13T08:53:18Z</time>
		</trkpt>
		<trkpt lat="54.253849029541" lon="13.0753030776978">
			<ele>53.2000007629395</ele>
			<time>2014-04-13T08:53:20Z</time>
		</trkpt>
		<trkpt lat="54.2537803649902" lon="13.0752515792847">
			<ele>53.2999992370605</ele>
			<time>2014-04-13T08:53:22Z</time>
		</trkpt>
		<trkpt lat="54.2537155151367" lon="13.0752048492432">
			<ele>53.2999992370605</ele>
			<time>2014-04-13T08:53:24Z</time>
		</trkpt>
		<trkpt lat="54.2536468505859" lon="13.0751638412476">
			<ele>53.4000015258789</ele>
			<time>2014-04-13T08:53:26Z</time>
		</trkpt>
		<trkpt lat="54.2535820007324" lon="13.0751123428345">
			<ele>53.7000007629395</ele>
			<time>2014-04-13T08:53:28Z</time>
		</trkpt>
		<trkpt lat="54.2535285949707" lon="13.0750646591187">
			<ele>53.7999992370605</ele>
			<time>2014-04-13T08:53:30Z</time>
		</trkpt>
		<trkpt lat="54.2534713745117" lon="13.0750207901001">
			<ele>54</ele>
			<time>2014-04-13T08:53:32Z</time>
		</trkpt>
		<trkpt lat="54.2534141540527" lon="13.0749778747559">
			<ele>53.9000015258789</ele>
			<time>2014-04-13T08:53:34Z</time>
		</trkpt>
		<trkpt lat="54.253360748291" lon="13.0749292373657">
			<ele>54.2999992370605</ele>
			<time>2014-04-13T08:53:36Z</time>
		</trkpt>
		<trkpt lat="54.253303527832" lon="13.0748844146729">
			<ele>54.4000015258789</ele>
			<time>2014-04-13T08:53:38Z</time>
		</trkpt>
		<trkpt lat="54.253246307373" lon="13.0748338699341">
			<ele>54.7999992370605</ele>
			<time>2014-04-13T08:53:40Z</time>
		</trkpt>
		<trkpt lat="54.2531890869141" lon="13.0747842788696">
			<ele>54.9000015258789</ele>
			<time>2014-04-13T08:53:42Z</time>
		</trkpt>
		<trkpt lat="54.2531318664551" lon="13.0747346878052">
			<ele>54.9000015258789</ele>
			<time>2014-04-13T08:53:44Z</time>
		</trkpt>
		<trkpt lat="54.2530670166016" lon="13.0746784210205">
			<ele>54.9000015258789</ele>
			<time>2014-04-13T08:53:46Z</time>
		</trkpt>
		<trkpt lat="54.253002166748" lon="13.0746278762817">
			<ele>54.4000015258789</ele>
			<time>2014-04-13T08:53:48Z</time>
		</trkpt>
		<trkpt lat="54.2529411315918" lon="13.0745677947998">
			<ele>54.2000007629395</ele>
			<time>2014-04-13T08:53:50Z</time>
		</trkpt>
		<trkpt lat="54.2528762817383" lon="13.0745153427124">
			<ele>54.5999984741211</ele>
			<time>2014-04-13T08:53:52Z</time>
		</trkpt>
		<trkpt lat="54.252815246582" lon="13.0744647979736">
			<ele>54.5999984741211</ele>
			<time>2014-04-13T08:53:54Z</time>
		</trkpt>
		<trkpt lat="54.2527542114258" lon="13.0744123458862">
			<ele>54.4000015258789</ele>
			<time>2014-04-13T08:53:56Z</time>
		</trkpt>
		<trkpt lat="54.2526893615723" lon="13.0743637084961">
			<ele>54.7000007629395</ele>
			<time>2014-04-13T08:53:58Z</time>
		</trkpt>
		<trkpt lat="54.2526245117188" lon="13.074312210083">
			<ele>54.7999992370605</ele>
			<time>2014-04-13T08:54:00Z</time>
		</trkpt>
		<trkpt lat="54.2525634765625" lon="13.0742721557617">
			<ele>54.9000015258789</ele>
			<time>2014-04-13T08:54:02Z</time>
		</trkpt>
		<trkpt lat="54.2525024414063" lon="13.0742254257202">
			<ele>54.9000015258789</ele>
			<time>2014-04-13T08:54:04Z</time>
		</trkpt>
		<trkpt lat="54.25244140625" lon="13.0741786956787">
			<ele>54.7999992370605</ele>
			<time>2014-04-13T08:54:06Z</time>
		</trkpt>
		<trkpt lat="54.2523803710938" lon="13.0741329193115">
			<ele>54.7000007629395</ele>
			<time>2014-04-13T08:54:07Z</time>
		</trkpt>
		<trkpt lat="54.252326965332" lon="13.0740747451782">
			<ele>54.5</ele>
			<time>2014-04-13T08:54:10Z</time>
		</trkpt>
		<trkpt lat="54.2522735595703" lon="13.0740165710449">
			<ele>54.7000007629395</ele>
			<time>2014-04-13T08:54:12Z</time>
		</trkpt>
		<trkpt lat="54.2522125244141" lon="13.0739698410034">
			<ele>54.7000007629395</ele>
			<time>2014-04-13T08:54:14Z</time>
		</trkpt>
		<trkpt lat="54.2521514892578" lon="13.0739307403564">
			<ele>55</ele>
			<time>2014-04-13T08:54:16Z</time>
		</trkpt>
		<trkpt lat="54.2520866394043" lon="13.0738868713379">
			<ele>55.2000007629395</ele>
			<time>2014-04-13T08:54:18Z</time>
		</trkpt>
		<trkpt lat="54.252025604248" lon="13.0738401412964">
			<ele>55.2000007629395</ele>
			<time>2014-04-13T08:54:20Z</time>
		</trkpt>
		<trkpt lat="54.2519645690918" lon="13.0737905502319">
			<ele>55</ele>
			<time>2014-04-13T08:54:22Z</time>
		</trkpt>
		<trkpt lat="54.2518997192383" lon="13.0737409591675">
			<ele>54.9000015258789</ele>
			<time>2014-04-13T08:54:24Z</time>
		</trkpt>
		<trkpt lat="54.251838684082" lon="13.073691368103">
			<ele>54.7000007629395</ele>
			<time>2014-04-13T08:54:26Z</time>
		</trkpt>
		<trkpt lat="54.2517776489258" lon="13.0736389160156">
			<ele>54.5999984741211</ele>
			<time>2014-04-13T08:54:28Z</time>
		</trkpt>
		<trkpt lat="54.2517166137695" lon="13.0735902786255">
			<ele>54.7000007629395</ele>
			<time>2014-04-13T08:54:30Z</time>
		</trkpt>
		<trkpt lat="54.2516555786133" lon="13.0735378265381">
			<ele>54.7000007629395</ele>
			<time>2014-04-13T08:54:32Z</time>
		</trkpt>
		<trkpt lat="54.251594543457" lon="13.0734853744507">
			<ele>54.9000015258789</ele>
			<time>2014-04-13T08:54:34Z</time>
		</trkpt>
		<trkpt lat="54.2515411376953" lon="13.0734357833862">
			<ele>55.2000007629395</ele>
			<time>2014-04-13T08:54:36Z</time>
		</trkpt>
		<trkpt lat="54.2514801025391" lon="13.0733852386475">
			<ele>55.7000007629395</ele>
			<time>2014-04-13T08:54:37Z</time>
		</trkpt>
		<trkpt lat="54.2514228820801" lon="13.073338508606">
			<ele>55.7999992370605</ele>
			<time>2014-04-13T08:54:40Z</time>
		</trkpt>
		<trkpt lat="54.2513656616211" lon="13.0732936859131">
			<ele>56</ele>
			<time>2014-04-13T08:54:42Z</time>
		</trkpt>
		<trkpt lat="54.2513084411621" lon="13.0732460021973">
			<ele>56.0999984741211</ele>
			<time>2014-04-13T08:54:44Z</time>
		</trkpt>
		<trkpt lat="54.2512512207031" lon="13.0731945037842">
			<ele>56.2999992370605</ele>
			<time>2014-04-13T08:54:46Z</time>
		</trkpt>
		<trkpt lat="54.2511940002441" lon="13.0731477737427">
			<ele>56.5999984741211</ele>
			<time>2014-04-13T08:54:48Z</time>
		</trkpt>
		<trkpt lat="54.2511367797852" lon="13.073094367981">
			<ele>56.5</ele>
			<time>2014-04-13T08:54:50Z</time>
		</trkpt>
		<trkpt lat="54.2510795593262" lon="13.0730419158936">
			<ele>56.7000007629395</ele>
			<time>2014-04-13T08:54:52Z</time>
		</trkpt>
		<trkpt lat="54.2510223388672" lon="13.0729951858521">
			<ele>56.7999992370605</ele>
			<time>2014-04-13T08:54:54Z</time>
		</trkpt>
		<trkpt lat="54.2509651184082" lon="13.0729427337646">
			<ele>56.7999992370605</ele>
			<time>2014-04-13T08:54:55Z</time>
		</trkpt>
		<trkpt lat="54.2509078979492" lon="13.0728921890259">
			<ele>57</ele>
			<time>2014-04-13T08:54:58Z</time>
		</trkpt>
		<trkpt lat="54.2508544921875" lon="13.0728425979614">
			<ele>56.9000015258789</ele>
			<time>2014-04-13T08:55:00Z</time>
		</trkpt>
		<trkpt lat="54.2507972717285" lon="13.0728092193604">
			<ele>56.7000007629395</ele>
			<time>2014-04-13T08:55:02Z</time>
		</trkpt>
		<trkpt lat="54.2507400512695" lon="13.0727577209473">
			<ele>56.5999984741211</ele>
			<time>2014-04-13T08:55:04Z</time>
		</trkpt>
		<trkpt lat="54.2506904602051" lon="13.0727033615112">
			<ele>56.5999984741211</ele>
			<time>2014-04-13T08:55:06Z</time>
		</trkpt>
		<trkpt lat="54.2506370544434" lon="13.0726490020752">
			<ele>56.5</ele>
			<time>2014-04-13T08:55:07Z</time>
		</trkpt>
		<trkpt lat="54.2505760192871" lon="13.072603225708">
			<ele>56.7000007629395</ele>
			<time>2014-04-13T08:55:10Z</time>
		</trkpt>
		<trkpt lat="54.2505187988281" lon="13.0725593566895">
			<ele>56.5999984741211</ele>
			<time>2014-04-13T08:55:12Z</time>
		</trkpt>
		<trkpt lat="54.2504463195801" lon="13.072509765625">
			<ele>55.7999992370605</ele>
			<time>2014-04-13T08:55:13Z</time>
		</trkpt>
		<trkpt lat="54.2503776550293" lon="13.0724592208862">
			<ele>55.5999984741211</ele>
			<time>2014-04-13T08:55:16Z</time>
		</trkpt>
		<trkpt lat="54.2503128051758" lon="13.0724182128906">
			<ele>55.0999984741211</ele>
			<time>2014-04-13T08:55:18Z</time>
		</trkpt>
		<trkpt lat="54.2502288818359" lon="13.0723791122437">
			<ele>54.4000015258789</ele>
			<time>2014-04-13T08:55:20Z</time>
		</trkpt>
		<trkpt lat="54.2501564025879" lon="13.0723323822021">
			<ele>53.5999984741211</ele>
			<time>2014-04-13T08:55:22Z</time>
		</trkpt>
		<trkpt lat="54.2500801086426" lon="13.072286605835">
			<ele>53.7999992370605</ele>
			<time>2014-04-13T08:55:24Z</time>
		</trkpt>
		<trkpt lat="54.2500038146973" lon="13.0722360610962">
			<ele>53.4000015258789</ele>
			<time>2014-04-13T08:55:26Z</time>
		</trkpt>
		<trkpt lat="54.2499237060547" lon="13.0721893310547">
			<ele>53.2000007629395</ele>
			<time>2014-04-13T08:55:28Z</time>
		</trkpt>
		<trkpt lat="54.2498474121094" lon="13.07213306427">
			<ele>53.0999984741211</ele>
			<time>2014-04-13T08:55:30Z</time>
		</trkpt>
		<trkpt lat="54.2497749328613" lon="13.0720825195313">
			<ele>52.7000007629395</ele>
			<time>2014-04-13T08:55:32Z</time>
		</trkpt>
		<trkpt lat="54.2496948242188" lon="13.0720472335815">
			<ele>52.7999992370605</ele>
			<time>2014-04-13T08:55:34Z</time>
		</trkpt>
		<trkpt lat="54.2496185302734" lon="13.0720167160034">
			<ele>52.7999992370605</ele>
			<time>2014-04-13T08:55:36Z</time>
		</trkpt>
		<trkpt lat="54.2495422363281" lon="13.071982383728">
			<ele>53.5999984741211</ele>
			<time>2014-04-13T08:55:37Z</time>
		</trkpt>
		<trkpt lat="54.2494659423828" lon="13.0719575881958">
			<ele>53.7999992370605</ele>
			<time>2014-04-13T08:55:40Z</time>
		</trkpt>
		<trkpt lat="54.2493896484375" lon="13.0719308853149">
			<ele>53.7999992370605</ele>
			<time>2014-04-13T08:55:41Z</time>
		</trkpt>
		<trkpt lat="54.2493171691895" lon="13.0718975067139">
			<ele>54</ele>
			<time>2014-04-13T08:55:44Z</time>
		</trkpt>
		<trkpt lat="54.2492408752441" lon="13.071870803833">
			<ele>54</ele>
			<time>2014-04-13T08:55:46Z</time>
		</trkpt>
		<trkpt lat="54.2491683959961" lon="13.0718431472778">
			<ele>54.2000007629395</ele>
			<time>2014-04-13T08:55:48Z</time>
		</trkpt>
		<trkpt lat="54.2490844726563" lon="13.0718212127686">
			<ele>53.9000015258789</ele>
			<time>2014-04-13T08:55:50Z</time>
		</trkpt>
		<trkpt lat="54.2490119934082" lon="13.0718059539795">
			<ele>54</ele>
			<time>2014-04-13T08:55:52Z</time>
		</trkpt>
		<trkpt lat="54.2489318847656" lon="13.0717840194702">
			<ele>53.7000007629395</ele>
			<time>2014-04-13T08:55:54Z</time>
		</trkpt>
		<trkpt lat="54.248851776123" lon="13.071756362915">
			<ele>53.7000007629395</ele>
			<time>2014-04-13T08:55:56Z</time>
		</trkpt>
		<trkpt lat="54.2487754821777" lon="13.0717372894287">
			<ele>53.7999992370605</ele>
			<time>2014-04-13T08:55:58Z</time>
		</trkpt>
		<trkpt lat="54.2486991882324" lon="13.0717258453369">
			<ele>53.9000015258789</ele>
			<time>2014-04-13T08:56:00Z</time>
		</trkpt>
		<trkpt lat="54.2486305236816" lon="13.0717144012451">
			<ele>53.7999992370605</ele>
			<time>2014-04-13T08:56:02Z</time>
		</trkpt>
		<trkpt lat="54.2485580444336" lon="13.0716972351074">
			<ele>54.0999984741211</ele>
			<time>2014-04-13T08:56:04Z</time>
		</trkpt>
		<trkpt lat="54.248477935791" lon="13.0716819763184">
			<ele>54.5</ele>
			<time>2014-04-13T08:56:06Z</time>
		</trkpt>
		<trkpt lat="54.2483978271484" lon="13.0716733932495">
			<ele>54.7000007629395</ele>
			<time>2014-04-13T08:56:08Z</time>
		</trkpt>
		<trkpt lat="54.2483253479004" lon="13.0716581344604">
			<ele>54.7999992370605</ele>
			<time>2014-04-13T08:56:10Z</time>
		</trkpt>
		<trkpt lat="54.2482528686523" lon="13.0716495513916">
			<ele>54.5999984741211</ele>
			<time>2014-04-13T08:56:12Z</time>
		</trkpt>
		<trkpt lat="54.248176574707" lon="13.0716285705566">
			<ele>54.2999992370605</ele>
			<time>2014-04-13T08:56:14Z</time>
		</trkpt>
		<trkpt lat="54.2481002807617" lon="13.0716114044189">
			<ele>54.4000015258789</ele>
			<time>2014-04-13T08:56:16Z</time>
		</trkpt>
		<trkpt lat="54.2480201721191" lon="13.0715990066528">
			<ele>55.4000015258789</ele>
			<time>2014-04-13T08:56:17Z</time>
		</trkpt>
		<trkpt lat="54.2479438781738" lon="13.0715856552124">
			<ele>55.5</ele>
			<time>2014-04-13T08:56:20Z</time>
		</trkpt>
		<trkpt lat="54.2478675842285" lon="13.0715656280518">
			<ele>55.5</ele>
			<time>2014-04-13T08:56:22Z</time>
		</trkpt>
		<trkpt lat="54.2477912902832" lon="13.07155418396">
			<ele>55.5</ele>
			<time>2014-04-13T08:56:24Z</time>
		</trkpt>
		<trkpt lat="54.2477188110352" lon="13.0715475082397">
			<ele>55.2999992370605</ele>
			<time>2014-04-13T08:56:26Z</time>
		</trkpt>
		<trkpt lat="54.2476425170898" lon="13.0715255737305">
			<ele>55.2000007629395</ele>
			<time>2014-04-13T08:56:28Z</time>
		</trkpt>
		<trkpt lat="54.2475662231445" lon="13.0715141296387">
			<ele>55.0999984741211</ele>
			<time>2014-04-13T08:56:30Z</time>
		</trkpt>
		<trkpt lat="54.2474822998047" lon="13.07151222229">
			<ele>55.4000015258789</ele>
			<time>2014-04-13T08:56:32Z</time>
		</trkpt>
		<trkpt lat="54.2474365234375" lon="13.0715141296387">
			<ele>55.5</ele>
			<time>2014-04-13T08:56:33Z</time>
		</trkpt>
		<trkpt lat="54.2473526000977" lon="13.0715045928955">
			<ele>55.5999984741211</ele>
			<time>2014-04-13T08:56:35Z</time>
		</trkpt>
		<trkpt lat="54.2473030090332" lon="13.0715093612671">
			<ele>54.9000015258789</ele>
			<time>2014-04-13T08:56:36Z</time>
		</trkpt>
		<trkpt lat="54.247257232666" lon="13.0715065002441">
			<ele>54.5</ele>
			<time>2014-04-13T08:56:37Z</time>
		</trkpt>
		<trkpt lat="54.2472114562988" lon="13.0715055465698">
			<ele>54.4000015258789</ele>
			<time>2014-04-13T08:56:38Z</time>
		</trkpt>
		<trkpt lat="54.2471656799316" lon="13.0715026855469">
			<ele>54.5</ele>
			<time>2014-04-13T08:56:39Z</time>
		</trkpt>
		<trkpt lat="54.2471160888672" lon="13.07151222229">
			<ele>54.4000015258789</ele>
			<time>2014-04-13T08:56:40Z</time>
		</trkpt>
		<trkpt lat="54.2470703125" lon="13.0715084075928">
			<ele>54.9000015258789</ele>
			<time>2014-04-13T08:56:41Z</time>
		</trkpt>
		<trkpt lat="54.2470245361328" lon="13.0715093612671">
			<ele>54.9000015258789</ele>
			<time>2014-04-13T08:56:42Z</time>
		</trkpt>
		<trkpt lat="54.2469329833984" lon="13.0715036392212">
			<ele>55.2999992370605</ele>
			<time>2014-04-13T08:56:44Z</time>
		</trkpt>
		<trkpt lat="54.2468910217285" lon="13.0715007781982">
			<ele>55.2000007629395</ele>
			<time>2014-04-13T08:56:45Z</time>
		</trkpt>
		<trkpt lat="54.2468414306641" lon="13.0715160369873">
			<ele>55</ele>
			<time>2014-04-13T08:56:46Z</time>
		</trkpt>
		<trkpt lat="54.2467956542969" lon="13.0715274810791">
			<ele>54.7000007629395</ele>
			<time>2014-04-13T08:56:47Z</time>
		</trkpt>
		<trkpt lat="54.2467079162598" lon="13.071533203125">
			<ele>53.7999992370605</ele>
			<time>2014-04-13T08:56:49Z</time>
		</trkpt>
		<trkpt lat="54.2466621398926" lon="13.0715436935425">
			<ele>54.0999984741211</ele>
			<time>2014-04-13T08:56:50Z</time>
		</trkpt>
		<trkpt lat="54.2465858459473" lon="13.0715446472168">
			<ele>54.7000007629395</ele>
			<time>2014-04-13T08:56:52Z</time>
		</trkpt>
		<trkpt lat="54.2465133666992" lon="13.0715522766113">
			<ele>55.0999984741211</ele>
			<time>2014-04-13T08:56:54Z</time>
		</trkpt>
		<trkpt lat="54.2464370727539" lon="13.0715703964233">
			<ele>55.4000015258789</ele>
			<time>2014-04-13T08:56:56Z</time>
		</trkpt>
		<trkpt lat="54.2463607788086" lon="13.0715789794922">
			<ele>55.4000015258789</ele>
			<time>2014-04-13T08:56:58Z</time>
		</trkpt>
		<trkpt lat="54.2462882995605" lon="13.071605682373">
			<ele>55.5</ele>
			<time>2014-04-13T08:57:00Z</time>
		</trkpt>
		<trkpt lat="54.2462120056152" lon="13.0716381072998">
			<ele>55.7000007629395</ele>
			<time>2014-04-13T08:57:01Z</time>
		</trkpt>
		<trkpt lat="54.2461357116699" lon="13.0716724395752">
			<ele>55.7999992370605</ele>
			<time>2014-04-13T08:57:04Z</time>
		</trkpt>
		<trkpt lat="54.2460594177246" lon="13.0717058181763">
			<ele>55.7999992370605</ele>
			<time>2014-04-13T08:57:06Z</time>
		</trkpt>
		<trkpt lat="54.245979309082" lon="13.0717401504517">
			<ele>55.7000007629395</ele>
			<time>2014-04-13T08:57:08Z</time>
		</trkpt>
		<trkpt lat="54.2458953857422" lon="13.0717782974243">
			<ele>55.7000007629395</ele>
			<time>2014-04-13T08:57:10Z</time>
		</trkpt>
		<trkpt lat="54.2458152770996" lon="13.071813583374">
			<ele>55.5</ele>
			<time>2014-04-13T08:57:12Z</time>
		</trkpt>
		<trkpt lat="54.2457313537598" lon="13.071852684021">
			<ele>55.2999992370605</ele>
			<time>2014-04-13T08:57:14Z</time>
		</trkpt>
		<trkpt lat="54.2456512451172" lon="13.0718936920166">
			<ele>55.2999992370605</ele>
			<time>2014-04-13T08:57:16Z</time>
		</trkpt>
		<trkpt lat="54.2455673217773" lon="13.071928024292">
			<ele>55.2999992370605</ele>
			<time>2014-04-13T08:57:18Z</time>
		</trkpt>
		<trkpt lat="54.2454872131348" lon="13.0719718933105">
			<ele>55.2000007629395</ele>
			<time>2014-04-13T08:57:20Z</time>
		</trkpt>
		<trkpt lat="54.2454071044922" lon="13.0720148086548">
			<ele>54.9000015258789</ele>
			<time>2014-04-13T08:57:22Z</time>
		</trkpt>
		<trkpt lat="54.245361328125" lon="13.0720291137695">
			<ele>54.9000015258789</ele>
			<time>2014-04-13T08:57:23Z</time>
		</trkpt>
		<trkpt lat="54.2453155517578" lon="13.0720453262329">
			<ele>55</ele>
			<time>2014-04-13T08:57:24Z</time>
		</trkpt>
		<trkpt lat="54.2452697753906" lon="13.0720596313477">
			<ele>54.7999992370605</ele>
			<time>2014-04-13T08:57:24Z</time>
		</trkpt>
		<trkpt lat="54.2451820373535" lon="13.0720977783203">
			<ele>54.7999992370605</ele>
			<time>2014-04-13T08:57:27Z</time>
		</trkpt>
		<trkpt lat="54.2451400756836" lon="13.0721168518066">
			<ele>54.7999992370605</ele>
			<time>2014-04-13T08:57:28Z</time>
		</trkpt>
		<trkpt lat="54.2450523376465" lon="13.0721569061279">
			<ele>54.7999992370605</ele>
			<time>2014-04-13T08:57:30Z</time>
		</trkpt>
		<trkpt lat="54.2450065612793" lon="13.0721759796143">
			<ele>54.7000007629395</ele>
			<time>2014-04-13T08:57:31Z</time>
		</trkpt>
		<trkpt lat="54.2449226379395" lon="13.0722188949585">
			<ele>54.5</ele>
			<time>2014-04-13T08:57:33Z</time>
		</trkpt>
		<trkpt lat="54.2448768615723" lon="13.0722389221191">
			<ele>54.5999984741211</ele>
			<time>2014-04-13T08:57:34Z</time>
		</trkpt>
		<trkpt lat="54.2448310852051" lon="13.0722608566284">
			<ele>54.5999984741211</ele>
			<time>2014-04-13T08:57:35Z</time>
		</trkpt>
		<trkpt lat="54.2447891235352" lon="13.0722780227661">
			<ele>54.4000015258789</ele>
			<time>2014-04-13T08:57:36Z</time>
		</trkpt>
		<trkpt lat="54.244743347168" lon="13.0722990036011">
			<ele>54.2000007629395</ele>
			<time>2014-04-13T08:57:37Z</time>
		</trkpt>
		<trkpt lat="54.2446975708008" lon="13.0723152160645">
			<ele>54.0999984741211</ele>
			<time>2014-04-13T08:57:38Z</time>
		</trkpt>
		<trkpt lat="54.2446479797363" lon="13.072338104248">
			<ele>53.9000015258789</ele>
			<time>2014-04-13T08:57:39Z</time>
		</trkpt>
		<trkpt lat="54.2446022033691" lon="13.0723628997803">
			<ele>53.9000015258789</ele>
			<time>2014-04-13T08:57:40Z</time>
		</trkpt>
		<trkpt lat="54.244556427002" lon="13.0723876953125">
			<ele>53.9000015258789</ele>
			<time>2014-04-13T08:57:41Z</time>
		</trkpt>
		<trkpt lat="54.2445068359375" lon="13.0724067687988">
			<ele>54</ele>
			<time>2014-04-13T08:57:42Z</time>
		</trkpt>
		<trkpt lat="54.2444610595703" lon="13.0724267959595">
			<ele>54</ele>
			<time>2014-04-13T08:57:43Z</time>
		</trkpt>
		<trkpt lat="54.2444152832031" lon="13.0724458694458">
			<ele>54</ele>
			<time>2014-04-13T08:57:43Z</time>
		</trkpt>
		<trkpt lat="54.2443656921387" lon="13.0724687576294">
			<ele>54</ele>
			<time>2014-04-13T08:57:45Z</time>
		</trkpt>
		<trkpt lat="54.2443199157715" lon="13.072491645813">
			<ele>53.9000015258789</ele>
			<time>2014-04-13T08:57:46Z</time>
		</trkpt>
		<trkpt lat="54.2442741394043" lon="13.072509765625">
			<ele>54.0999984741211</ele>
			<time>2014-04-13T08:57:47Z</time>
		</trkpt>
		<trkpt lat="54.2442283630371" lon="13.07253074646">
			<ele>54.0999984741211</ele>
			<time>2014-04-13T08:57:48Z</time>
		</trkpt>
		<trkpt lat="54.2441825866699" lon="13.0725564956665">
			<ele>54.2000007629395</ele>
			<time>2014-04-13T08:57:49Z</time>
		</trkpt>
		<trkpt lat="54.244140625" lon="13.0725774765015">
			<ele>53.9000015258789</ele>
			<time>2014-04-13T08:57:50Z</time>
		</trkpt>
		<trkpt lat="54.2440910339355" lon="13.0725984573364">
			<ele>53.9000015258789</ele>
			<time>2014-04-13T08:57:51Z</time>
		</trkpt>
		<trkpt lat="54.2440414428711" lon="13.072624206543">
			<ele>53.7999992370605</ele>
			<time>2014-04-13T08:57:52Z</time>
		</trkpt>
		<trkpt lat="54.2439918518066" lon="13.0726451873779">
			<ele>53.9000015258789</ele>
			<time>2014-04-13T08:57:53Z</time>
		</trkpt>
		<trkpt lat="54.2439460754395" lon="13.0726652145386">
			<ele>53.9000015258789</ele>
			<time>2014-04-13T08:57:54Z</time>
		</trkpt>
		<trkpt lat="54.2438926696777" lon="13.0726842880249">
			<ele>53.9000015258789</ele>
			<time>2014-04-13T08:57:55Z</time>
		</trkpt>
		<trkpt lat="54.2438430786133" lon="13.0727109909058">
			<ele>53.7999992370605</ele>
			<time>2014-04-13T08:57:56Z</time>
		</trkpt>
		<trkpt lat="54.2437934875488" lon="13.0727376937866">
			<ele>53.9000015258789</ele>
			<time>2014-04-13T08:57:57Z</time>
		</trkpt>
		<trkpt lat="54.2437477111816" lon="13.0727624893188">
			<ele>53.7999992370605</ele>
			<time>2014-04-13T08:57:58Z</time>
		</trkpt>
		<trkpt lat="54.2436981201172" lon="13.0727844238281">
			<ele>53.7999992370605</ele>
			<time>2014-04-13T08:57:59Z</time>
		</trkpt>
		<trkpt lat="54.24365234375" lon="13.0728130340576">
			<ele>53.7999992370605</ele>
			<time>2014-04-13T08:58:00Z</time>
		</trkpt>
		<trkpt lat="54.2436027526855" lon="13.0728349685669">
			<ele>54</ele>
			<time>2014-04-13T08:58:01Z</time>
		</trkpt>
		<trkpt lat="54.2435531616211" lon="13.0728540420532">
			<ele>53.7000007629395</ele>
			<time>2014-04-13T08:58:02Z</time>
		</trkpt>
		<trkpt lat="54.2435035705566" lon="13.0728750228882">
			<ele>53.4000015258789</ele>
			<time>2014-04-13T08:58:03Z</time>
		</trkpt>
		<trkpt lat="54.2434463500977" lon="13.0728969573975">
			<ele>53.2999992370605</ele>
			<time>2014-04-13T08:58:04Z</time>
		</trkpt>
		<trkpt lat="54.2433967590332" lon="13.0729246139526">
			<ele>53.2000007629395</ele>
			<time>2014-04-13T08:58:05Z</time>
		</trkpt>
		<trkpt lat="54.2433471679688" lon="13.0729465484619">
			<ele>53.0999984741211</ele>
			<time>2014-04-13T08:58:06Z</time>
		</trkpt>
		<trkpt lat="54.243293762207" lon="13.0729684829712">
			<ele>53.4000015258789</ele>
			<time>2014-04-13T08:58:07Z</time>
		</trkpt>
		<trkpt lat="54.2432441711426" lon="13.0729923248291">
			<ele>53.5</ele>
			<time>2014-04-13T08:58:08Z</time>
		</trkpt>
		<trkpt lat="54.2431945800781" lon="13.0730152130127">
			<ele>53.7999992370605</ele>
			<time>2014-04-13T08:58:09Z</time>
		</trkpt>
		<trkpt lat="54.2431488037109" lon="13.0730428695679">
			<ele>53.7999992370605</ele>
			<time>2014-04-13T08:58:10Z</time>
		</trkpt>
		<trkpt lat="54.2430953979492" lon="13.0730667114258">
			<ele>53.5999984741211</ele>
			<time>2014-04-13T08:58:11Z</time>
		</trkpt>
		<trkpt lat="54.2430458068848" lon="13.0730848312378">
			<ele>53.5999984741211</ele>
			<time>2014-04-13T08:58:12Z</time>
		</trkpt>
		<trkpt lat="54.2429962158203" lon="13.07310962677">
			<ele>53.7000007629395</ele>
			<time>2014-04-13T08:58:13Z</time>
		</trkpt>
		<trkpt lat="54.2429466247559" lon="13.0731344223022">
			<ele>53.5</ele>
			<time>2014-04-13T08:58:14Z</time>
		</trkpt>
		<trkpt lat="54.2428970336914" lon="13.0731563568115">
			<ele>53.2999992370605</ele>
			<time>2014-04-13T08:58:15Z</time>
		</trkpt>
		<trkpt lat="54.2428436279297" lon="13.0731792449951">
			<ele>53.2000007629395</ele>
			<time>2014-04-13T08:58:16Z</time>
		</trkpt>
		<trkpt lat="54.242790222168" lon="13.0732040405273">
			<ele>53</ele>
			<time>2014-04-13T08:58:17Z</time>
		</trkpt>
		<trkpt lat="54.2427368164063" lon="13.0732288360596">
			<ele>52.5999984741211</ele>
			<time>2014-04-13T08:58:18Z</time>
		</trkpt>
		<trkpt lat="54.24267578125" lon="13.0732622146606">
			<ele>52.7999992370605</ele>
			<time>2014-04-13T08:58:19Z</time>
		</trkpt>
		<trkpt lat="54.242618560791" lon="13.073281288147">
			<ele>53.2999992370605</ele>
			<time>2014-04-13T08:58:20Z</time>
		</trkpt>
		<trkpt lat="54.242561340332" lon="13.0733108520508">
			<ele>53.4000015258789</ele>
			<time>2014-04-13T08:58:21Z</time>
		</trkpt>
		<trkpt lat="54.242504119873" lon="13.0733327865601">
			<ele>53.2000007629395</ele>
			<time>2014-04-13T08:58:24Z</time>
		</trkpt>
		<trkpt lat="54.2423973083496" lon="13.0733995437622">
			<ele>53.2000007629395</ele>
			<time>2014-04-13T08:58:24Z</time>
		</trkpt>
		<trkpt lat="54.2423439025879" lon="13.0734243392944">
			<ele>53</ele>
			<time>2014-04-13T08:58:25Z</time>
		</trkpt>
		<trkpt lat="54.2422943115234" lon="13.0734443664551">
			<ele>53</ele>
			<time>2014-04-13T08:58:26Z</time>
		</trkpt>
		<trkpt lat="54.242244720459" lon="13.0734691619873">
			<ele>52.7999992370605</ele>
			<time>2014-04-13T08:58:27Z</time>
		</trkpt>
		<trkpt lat="54.2421951293945" lon="13.0735025405884">
			<ele>52.7000007629395</ele>
			<time>2014-04-13T08:58:28Z</time>
		</trkpt>
		<trkpt lat="54.2421417236328" lon="13.0735301971436">
			<ele>52.7000007629395</ele>
			<time>2014-04-13T08:58:29Z</time>
		</trkpt>
		<trkpt lat="54.2420921325684" lon="13.0735540390015">
			<ele>52.7000007629395</ele>
			<time>2014-04-13T08:58:30Z</time>
		</trkpt>
		<trkpt lat="54.2420387268066" lon="13.0735759735107">
			<ele>52.5999984741211</ele>
			<time>2014-04-13T08:58:31Z</time>
		</trkpt>
		<trkpt lat="54.2419853210449" lon="13.073600769043">
			<ele>52.5999984741211</ele>
			<time>2014-04-13T08:58:32Z</time>
		</trkpt>
		<trkpt lat="54.2419319152832" lon="13.0736246109009">
			<ele>52.5999984741211</ele>
			<time>2014-04-13T08:58:33Z</time>
		</trkpt>
		<trkpt lat="54.2418746948242" lon="13.0736484527588">
			<ele>52.5</ele>
			<time>2014-04-13T08:58:34Z</time>
		</trkpt>
		<trkpt lat="54.2418174743652" lon="13.0736694335938">
			<ele>52.5</ele>
			<time>2014-04-13T08:58:36Z</time>
		</trkpt>
		<trkpt lat="54.2417602539063" lon="13.0736904144287">
			<ele>52.5</ele>
			<time>2014-04-13T08:58:36Z</time>
		</trkpt>
		<trkpt lat="54.24169921875" lon="13.073709487915">
			<ele>52.2999992370605</ele>
			<time>2014-04-13T08:58:37Z</time>
		</trkpt>
		<trkpt lat="54.241641998291" lon="13.0737257003784">
			<ele>52.2000007629395</ele>
			<time>2014-04-13T08:58:38Z</time>
		</trkpt>
		<trkpt lat="54.241584777832" lon="13.0737342834473">
			<ele>52.2999992370605</ele>
			<time>2014-04-13T08:58:39Z</time>
		</trkpt>
		<trkpt lat="54.2415237426758" lon="13.0737333297729">
			<ele>52.4000015258789</ele>
			<time>2014-04-13T08:58:40Z</time>
		</trkpt>
		<trkpt lat="54.2414665222168" lon="13.0737361907959">
			<ele>52.2999992370605</ele>
			<time>2014-04-13T08:58:41Z</time>
		</trkpt>
		<trkpt lat="54.2414054870605" lon="13.0737390518188">
			<ele>52</ele>
			<time>2014-04-13T08:58:42Z</time>
		</trkpt>
		<trkpt lat="54.2413520812988" lon="13.0737333297729">
			<ele>51.9000015258789</ele>
			<time>2014-04-13T08:58:43Z</time>
		</trkpt>
		<trkpt lat="54.2412986755371" lon="13.07373046875">
			<ele>52.2000007629395</ele>
			<time>2014-04-13T08:58:44Z</time>
		</trkpt>
		<trkpt lat="54.2412414550781" lon="13.0737218856812">
			<ele>52.0999984741211</ele>
			<time>2014-04-13T08:58:45Z</time>
		</trkpt>
		<trkpt lat="54.2411880493164" lon="13.0737161636353">
			<ele>52.0999984741211</ele>
			<time>2014-04-13T08:58:46Z</time>
		</trkpt>
		<trkpt lat="54.2411308288574" lon="13.0737066268921">
			<ele>52.2999992370605</ele>
			<time>2014-04-13T08:58:47Z</time>
		</trkpt>
		<trkpt lat="54.2410736083984" lon="13.073694229126">
			<ele>52.2999992370605</ele>
			<time>2014-04-13T08:58:48Z</time>
		</trkpt>
		<trkpt lat="54.2410202026367" lon="13.0736865997314">
			<ele>52.0999984741211</ele>
			<time>2014-04-13T08:58:49Z</time>
		</trkpt>
		<trkpt lat="54.2409629821777" lon="13.0736837387085">
			<ele>51.7999992370605</ele>
			<time>2014-04-13T08:58:50Z</time>
		</trkpt>
		<trkpt lat="54.240909576416" lon="13.0736713409424">
			<ele>51.7000007629395</ele>
			<time>2014-04-13T08:58:51Z</time>
		</trkpt>
		<trkpt lat="54.2408561706543" lon="13.0736589431763">
			<ele>51.4000015258789</ele>
			<time>2014-04-13T08:58:52Z</time>
		</trkpt>
		<trkpt lat="54.2408027648926" lon="13.0736455917358">
			<ele>51.7000007629395</ele>
			<time>2014-04-13T08:58:53Z</time>
		</trkpt>
		<trkpt lat="54.2407493591309" lon="13.073637008667">
			<ele>51.7000007629395</ele>
			<time>2014-04-13T08:58:54Z</time>
		</trkpt>
		<trkpt lat="54.2406959533691" lon="13.0736179351807">
			<ele>51.9000015258789</ele>
			<time>2014-04-13T08:58:55Z</time>
		</trkpt>
		<trkpt lat="54.2406463623047" lon="13.0735988616943">
			<ele>52</ele>
			<time>2014-04-13T08:58:56Z</time>
		</trkpt>
		<trkpt lat="54.240592956543" lon="13.073579788208">
			<ele>52</ele>
			<time>2014-04-13T08:58:57Z</time>
		</trkpt>
		<trkpt lat="54.2405433654785" lon="13.0735569000244">
			<ele>52</ele>
			<time>2014-04-13T08:58:58Z</time>
		</trkpt>
		<trkpt lat="54.2404937744141" lon="13.0735349655151">
			<ele>51.9000015258789</ele>
			<time>2014-04-13T08:58:59Z</time>
		</trkpt>
		<trkpt lat="54.2404403686523" lon="13.0735082626343">
			<ele>51.9000015258789</ele>
			<time>2014-04-13T08:59:00Z</time>
		</trkpt>
		<trkpt lat="54.2403831481934" lon="13.0734777450562">
			<ele>51.5999984741211</ele>
			<time>2014-04-13T08:59:01Z</time>
		</trkpt>
		<trkpt lat="54.2403297424316" lon="13.0734605789185">
			<ele>51.7999992370605</ele>
			<time>2014-04-13T08:59:02Z</time>
		</trkpt>
		<trkpt lat="54.2402763366699" lon="13.0734424591064">
			<ele>51.7999992370605</ele>
			<time>2014-04-13T08:59:03Z</time>
		</trkpt>
		<trkpt lat="54.2402267456055" lon="13.0734252929688">
			<ele>51.9000015258789</ele>
			<time>2014-04-13T08:59:04Z</time>
		</trkpt>
		<trkpt lat="54.2401847839355" lon="13.0734014511108">
			<ele>51.7999992370605</ele>
			<time>2014-04-13T08:59:05Z</time>
		</trkpt>
		<trkpt lat="54.2401351928711" lon="13.0733833312988">
			<ele>52.0999984741211</ele>
			<time>2014-04-13T08:59:06Z</time>
		</trkpt>
		<trkpt lat="54.2400817871094" lon="13.0733699798584">
			<ele>52.2000007629395</ele>
			<time>2014-04-13T08:59:07Z</time>
		</trkpt>
		<trkpt lat="54.2400321960449" lon="13.0733613967896">
			<ele>52.5999984741211</ele>
			<time>2014-04-13T08:59:08Z</time>
		</trkpt>
		<trkpt lat="54.2399787902832" lon="13.0733652114868">
			<ele>52.5</ele>
			<time>2014-04-13T08:59:09Z</time>
		</trkpt>
		<trkpt lat="54.2399291992188" lon="13.0733709335327">
			<ele>52.5999984741211</ele>
			<time>2014-04-13T08:59:10Z</time>
		</trkpt>
		<trkpt lat="54.2398834228516" lon="13.0733671188354">
			<ele>52.7000007629395</ele>
			<time>2014-04-13T08:59:11Z</time>
		</trkpt>
		<trkpt lat="54.2398338317871" lon="13.0733757019043">
			<ele>52.7000007629395</ele>
			<time>2014-04-13T08:59:12Z</time>
		</trkpt>
		<trkpt lat="54.2397842407227" lon="13.0733861923218">
			<ele>52.7000007629395</ele>
			<time>2014-04-13T08:59:13Z</time>
		</trkpt>
		<trkpt lat="54.2397384643555" lon="13.0733995437622">
			<ele>52.7999992370605</ele>
			<time>2014-04-13T08:59:14Z</time>
		</trkpt>
		<trkpt lat="54.239688873291" lon="13.0734081268311">
			<ele>52.9000015258789</ele>
			<time>2014-04-13T08:59:15Z</time>
		</trkpt>
		<trkpt lat="54.2396392822266" lon="13.0734148025513">
			<ele>53</ele>
			<time>2014-04-13T08:59:16Z</time>
		</trkpt>
		<trkpt lat="54.2395935058594" lon="13.0734272003174">
			<ele>52.7000007629395</ele>
			<time>2014-04-13T08:59:17Z</time>
		</trkpt>
		<trkpt lat="54.2395401000977" lon="13.0734405517578">
			<ele>52.9000015258789</ele>
			<time>2014-04-13T08:59:18Z</time>
		</trkpt>
		<trkpt lat="54.2394943237305" lon="13.073450088501">
			<ele>52.7000007629395</ele>
			<time>2014-04-13T08:59:19Z</time>
		</trkpt>
		<trkpt lat="54.239444732666" lon="13.0734539031982">
			<ele>52.5999984741211</ele>
			<time>2014-04-13T08:59:20Z</time>
		</trkpt>
		<trkpt lat="54.2393951416016" lon="13.0734624862671">
			<ele>52.5999984741211</ele>
			<time>2014-04-13T08:59:21Z</time>
		</trkpt>
		<trkpt lat="54.2393417358398" lon="13.073468208313">
			<ele>52.7000007629395</ele>
			<time>2014-04-13T08:59:22Z</time>
		</trkpt>
		<trkpt lat="54.2392921447754" lon="13.0734853744507">
			<ele>52.5999984741211</ele>
			<time>2014-04-13T08:59:23Z</time>
		</trkpt>
		<trkpt lat="54.2392387390137" lon="13.0735006332397">
			<ele>52.5999984741211</ele>
			<time>2014-04-13T08:59:24Z</time>
		</trkpt>
		<trkpt lat="54.2391929626465" lon="13.07350730896">
			<ele>52.7999992370605</ele>
			<time>2014-04-13T08:59:25Z</time>
		</trkpt>
		<trkpt lat="54.2391510009766" lon="13.0734691619873">
			<ele>52.7999992370605</ele>
			<time>2014-04-13T08:59:26Z</time>
		</trkpt>
		<trkpt lat="54.2391052246094" lon="13.0734453201294">
			<ele>52.7000007629395</ele>
			<time>2014-04-13T08:59:28Z</time>
		</trkpt>
		<trkpt lat="54.2390098571777" lon="13.0733842849731">
			<ele>52.7999992370605</ele>
			<time>2014-04-13T08:59:29Z</time>
		</trkpt>
		<trkpt lat="54.238956451416" lon="13.0733642578125">
			<ele>52.7999992370605</ele>
			<time>2014-04-13T08:59:30Z</time>
		</trkpt>
		<trkpt lat="54.2389183044434" lon="13.0733261108398">
			<ele>52.7999992370605</ele>
			<time>2014-04-13T08:59:31Z</time>
		</trkpt>
		<trkpt lat="54.2388687133789" lon="13.0732984542847">
			<ele>52.7999992370605</ele>
			<time>2014-04-13T08:59:32Z</time>
		</trkpt>
		<trkpt lat="54.2388191223145" lon="13.0732736587524">
			<ele>52.7999992370605</ele>
			<time>2014-04-13T08:59:33Z</time>
		</trkpt>
		<trkpt lat="54.23876953125" lon="13.0732393264771">
			<ele>53.0999984741211</ele>
			<time>2014-04-13T08:59:35Z</time>
		</trkpt>
		<trkpt lat="54.2387237548828" lon="13.0732049942017">
			<ele>53.2000007629395</ele>
			<time>2014-04-13T08:59:35Z</time>
		</trkpt>
		<trkpt lat="54.2386856079102" lon="13.0731639862061">
			<ele>53.2999992370605</ele>
			<time>2014-04-13T08:59:36Z</time>
		</trkpt>
		<trkpt lat="54.2386436462402" lon="13.0731267929077">
			<ele>53.4000015258789</ele>
			<time>2014-04-13T08:59:37Z</time>
		</trkpt>
		<trkpt lat="54.238597869873" lon="13.0730924606323">
			<ele>53.4000015258789</ele>
			<time>2014-04-13T08:59:38Z</time>
		</trkpt>
		<trkpt lat="54.2385101318359" lon="13.0730133056641">
			<ele>53.9000015258789</ele>
			<time>2014-04-13T08:59:40Z</time>
		</trkpt>
		<trkpt lat="54.2384719848633" lon="13.0729742050171">
			<ele>53.7000007629395</ele>
			<time>2014-04-13T08:59:41Z</time>
		</trkpt>
		<trkpt lat="54.2384262084961" lon="13.0729284286499">
			<ele>53.5</ele>
			<time>2014-04-13T08:59:42Z</time>
		</trkpt>
		<trkpt lat="54.2383842468262" lon="13.0728874206543">
			<ele>54</ele>
			<time>2014-04-13T08:59:43Z</time>
		</trkpt>
		<trkpt lat="54.2383422851563" lon="13.0728435516357">
			<ele>54.2999992370605</ele>
			<time>2014-04-13T08:59:44Z</time>
		</trkpt>
		<trkpt lat="54.2383003234863" lon="13.0728044509888">
			<ele>54.0999984741211</ele>
			<time>2014-04-13T08:59:45Z</time>
		</trkpt>
		<trkpt lat="54.2382583618164" lon="13.0727605819702">
			<ele>54.0999984741211</ele>
			<time>2014-04-13T08:59:46Z</time>
		</trkpt>
		<trkpt lat="54.2382164001465" lon="13.0727195739746">
			<ele>54.2999992370605</ele>
			<time>2014-04-13T08:59:47Z</time>
		</trkpt>
		<trkpt lat="54.2381744384766" lon="13.0726776123047">
			<ele>54.4000015258789</ele>
			<time>2014-04-13T08:59:48Z</time>
		</trkpt>
		<trkpt lat="54.2381362915039" lon="13.0726289749146">
			<ele>53.9000015258789</ele>
			<time>2014-04-13T08:59:49Z</time>
		</trkpt>
		<trkpt lat="54.238094329834" lon="13.0725860595703">
			<ele>53.7999992370605</ele>
			<time>2014-04-13T08:59:50Z</time>
		</trkpt>
		<trkpt lat="54.2380523681641" lon="13.0725402832031">
			<ele>53.9000015258789</ele>
			<time>2014-04-13T08:59:51Z</time>
		</trkpt>
		<trkpt lat="54.2380104064941" lon="13.0724935531616">
			<ele>53.5999984741211</ele>
			<time>2014-04-13T08:59:52Z</time>
		</trkpt>
		<trkpt lat="54.2379722595215" lon="13.0724487304688">
			<ele>53.5999984741211</ele>
			<time>2014-04-13T08:59:53Z</time>
		</trkpt>
		<trkpt lat="54.2379302978516" lon="13.0723972320557">
			<ele>53.7999992370605</ele>
			<time>2014-04-13T08:59:54Z</time>
		</trkpt>
		<trkpt lat="54.2378921508789" lon="13.0723438262939">
			<ele>54.2000007629395</ele>
			<time>2014-04-13T08:59:55Z</time>
		</trkpt>
		<trkpt lat="54.2378463745117" lon="13.0722942352295">
			<ele>54.0999984741211</ele>
			<time>2014-04-13T08:59:56Z</time>
		</trkpt>
		<trkpt lat="54.2378082275391" lon="13.0722379684448">
			<ele>54.0999984741211</ele>
			<time>2014-04-13T08:59:57Z</time>
		</trkpt>
		<trkpt lat="54.2377700805664" lon="13.0721864700317">
			<ele>54</ele>
			<time>2014-04-13T08:59:58Z</time>
		</trkpt>
		<trkpt lat="54.2377319335938" lon="13.0721378326416">
			<ele>53.7999992370605</ele>
			<time>2014-04-13T08:59:59Z</time>
		</trkpt>
		<trkpt lat="54.2376899719238" lon="13.0720844268799">
			<ele>53.9000015258789</ele>
			<time>2014-04-13T09:00:00Z</time>
		</trkpt>
		<trkpt lat="54.2376518249512" lon="13.0720272064209">
			<ele>54.0999984741211</ele>
			<time>2014-04-13T09:00:00Z</time>
		</trkpt>
		<trkpt lat="54.2376098632813" lon="13.0719699859619">
			<ele>54.4000015258789</ele>
			<time>2014-04-13T09:00:02Z</time>
		</trkpt>
		<trkpt lat="54.2375717163086" lon="13.0719175338745">
			<ele>54.2999992370605</ele>
			<time>2014-04-13T09:00:03Z</time>
		</trkpt>
		<trkpt lat="54.2375297546387" lon="13.0718631744385">
			<ele>54.2000007629395</ele>
			<time>2014-04-13T09:00:04Z</time>
		</trkpt>
		<trkpt lat="54.2374877929688" lon="13.0718078613281">
			<ele>54</ele>
			<time>2014-04-13T09:00:05Z</time>
		</trkpt>
		<trkpt lat="54.2374496459961" lon="13.0717554092407">
			<ele>54</ele>
			<time>2014-04-13T09:00:06Z</time>
		</trkpt>
		<trkpt lat="54.2374076843262" lon="13.0716953277588">
			<ele>53.9000015258789</ele>
			<time>2014-04-13T09:00:07Z</time>
		</trkpt>
		<trkpt lat="54.237361907959" lon="13.0716390609741">
			<ele>54.2000007629395</ele>
			<time>2014-04-13T09:00:08Z</time>
		</trkpt>
		<trkpt lat="54.2373199462891" lon="13.0715837478638">
			<ele>54.0999984741211</ele>
			<time>2014-04-13T09:00:09Z</time>
		</trkpt>
		<trkpt lat="54.2372779846191" lon="13.0715198516846">
			<ele>54</ele>
			<time>2014-04-13T09:00:10Z</time>
		</trkpt>
		<trkpt lat="54.2372360229492" lon="13.0714530944824">
			<ele>54.0999984741211</ele>
			<time>2014-04-13T09:00:11Z</time>
		</trkpt>
		<trkpt lat="54.2371978759766" lon="13.0713920593262">
			<ele>54</ele>
			<time>2014-04-13T09:00:12Z</time>
		</trkpt>
		<trkpt lat="54.2371559143066" lon="13.0713272094727">
			<ele>53.7000007629395</ele>
			<time>2014-04-13T09:00:13Z</time>
		</trkpt>
		<trkpt lat="54.2371139526367" lon="13.0712537765503">
			<ele>53.5999984741211</ele>
			<time>2014-04-13T09:00:14Z</time>
		</trkpt>
		<trkpt lat="54.2370719909668" lon="13.0711822509766">
			<ele>53.5</ele>
			<time>2014-04-13T09:00:15Z</time>
		</trkpt>
		<trkpt lat="54.2370376586914" lon="13.0711050033569">
			<ele>53.7000007629395</ele>
			<time>2014-04-13T09:00:16Z</time>
		</trkpt>
		<trkpt lat="54.237003326416" lon="13.0710277557373">
			<ele>53.9000015258789</ele>
			<time>2014-04-13T09:00:17Z</time>
		</trkpt>
		<trkpt lat="54.2369651794434" lon="13.0709457397461">
			<ele>53.7000007629395</ele>
			<time>2014-04-13T09:00:18Z</time>
		</trkpt>
		<trkpt lat="54.2369346618652" lon="13.0708637237549">
			<ele>53.7000007629395</ele>
			<time>2014-04-13T09:00:19Z</time>
		</trkpt>
		<trkpt lat="54.2369079589844" lon="13.0707740783691">
			<ele>53.2000007629395</ele>
			<time>2014-04-13T09:00:20Z</time>
		</trkpt>
		<trkpt lat="54.2368927001953" lon="13.0706787109375">
			<ele>53.0999984741211</ele>
			<time>2014-04-13T09:00:21Z</time>
		</trkpt>
		<trkpt lat="54.2368812561035" lon="13.0705833435059">
			<ele>52.7999992370605</ele>
			<time>2014-04-13T09:00:22Z</time>
		</trkpt>
		<trkpt lat="54.236873626709" lon="13.0704908370972">
			<ele>52.7999992370605</ele>
			<time>2014-04-13T09:00:23Z</time>
		</trkpt>
		<trkpt lat="54.2368659973145" lon="13.0703964233398">
			<ele>52.5999984741211</ele>
			<time>2014-04-13T09:00:24Z</time>
		</trkpt>
		<trkpt lat="54.2368621826172" lon="13.0703039169312">
			<ele>52.5</ele>
			<time>2014-04-13T09:00:25Z</time>
		</trkpt>
		<trkpt lat="54.2368583679199" lon="13.0702095031738">
			<ele>52.4000015258789</ele>
			<time>2014-04-13T09:00:26Z</time>
		</trkpt>
		<trkpt lat="54.2368545532227" lon="13.0701169967651">
			<ele>52.4000015258789</ele>
			<time>2014-04-13T09:00:27Z</time>
		</trkpt>
		<trkpt lat="54.2368469238281" lon="13.0700273513794">
			<ele>51.9000015258789</ele>
			<time>2014-04-13T09:00:28Z</time>
		</trkpt>
		<trkpt lat="54.2368431091309" lon="13.0699367523193">
			<ele>51.9000015258789</ele>
			<time>2014-04-13T09:00:29Z</time>
		</trkpt>
		<trkpt lat="54.2368392944336" lon="13.0698490142822">
			<ele>51.5999984741211</ele>
			<time>2014-04-13T09:00:30Z</time>
		</trkpt>
		<trkpt lat="54.2368354797363" lon="13.0697593688965">
			<ele>51.7000007629395</ele>
			<time>2014-04-13T09:00:30Z</time>
		</trkpt>
		<trkpt lat="54.2368202209473" lon="13.0696697235107">
			<ele>51.7000007629395</ele>
			<time>2014-04-13T09:00:32Z</time>
		</trkpt>
		<trkpt lat="54.2368011474609" lon="13.0695877075195">
			<ele>51.7000007629395</ele>
			<time>2014-04-13T09:00:33Z</time>
		</trkpt>
		<trkpt lat="54.2367820739746" lon="13.0695056915283">
			<ele>51.5999984741211</ele>
			<time>2014-04-13T09:00:34Z</time>
		</trkpt>
		<trkpt lat="54.2367630004883" lon="13.0694284439087">
			<ele>51.9000015258789</ele>
			<time>2014-04-13T09:00:35Z</time>
		</trkpt>
		<trkpt lat="54.2367286682129" lon="13.0692796707153">
			<ele>51.7000007629395</ele>
			<time>2014-04-13T09:00:37Z</time>
		</trkpt>
		<trkpt lat="54.2366905212402" lon="13.0691404342651">
			<ele>51.5</ele>
			<time>2014-04-13T09:00:39Z</time>
		</trkpt>
		<trkpt lat="54.2366714477539" lon="13.0690689086914">
			<ele>51.5</ele>
			<time>2014-04-13T09:00:40Z</time>
		</trkpt>
		<trkpt lat="54.2366523742676" lon="13.0689973831177">
			<ele>51.4000015258789</ele>
			<time>2014-04-13T09:00:41Z</time>
		</trkpt>
		<trkpt lat="54.236629486084" lon="13.0689306259155">
			<ele>51.5</ele>
			<time>2014-04-13T09:00:42Z</time>
		</trkpt>
		<trkpt lat="54.2366065979004" lon="13.0688581466675">
			<ele>51.4000015258789</ele>
			<time>2014-04-13T09:00:43Z</time>
		</trkpt>
		<trkpt lat="54.2365837097168" lon="13.0687875747681">
			<ele>51.5999984741211</ele>
			<time>2014-04-13T09:00:44Z</time>
		</trkpt>
		<trkpt lat="54.2365570068359" lon="13.0687170028687">
			<ele>51.5</ele>
			<time>2014-04-13T09:00:45Z</time>
		</trkpt>
		<trkpt lat="54.2365341186523" lon="13.0686464309692">
			<ele>51.7000007629395</ele>
			<time>2014-04-13T09:00:45Z</time>
		</trkpt>
		<trkpt lat="54.2365074157715" lon="13.0685796737671">
			<ele>51.5999984741211</ele>
			<time>2014-04-13T09:00:47Z</time>
		</trkpt>
		<trkpt lat="54.2364845275879" lon="13.0685110092163">
			<ele>51.5</ele>
			<time>2014-04-13T09:00:47Z</time>
		</trkpt>
		<trkpt lat="54.2364349365234" lon="13.0683822631836">
			<ele>51.4000015258789</ele>
			<time>2014-04-13T09:00:50Z</time>
		</trkpt>
		<trkpt lat="54.2364044189453" lon="13.0683155059814">
			<ele>51.5999984741211</ele>
			<time>2014-04-13T09:00:51Z</time>
		</trkpt>
		<trkpt lat="54.2363510131836" lon="13.0681962966919">
			<ele>52</ele>
			<time>2014-04-13T09:00:53Z</time>
		</trkpt>
		<trkpt lat="54.2362976074219" lon="13.0680818557739">
			<ele>52</ele>
			<time>2014-04-13T09:00:55Z</time>
		</trkpt>
		<trkpt lat="54.2362480163574" lon="13.067964553833">
			<ele>52.2000007629395</ele>
			<time>2014-04-13T09:00:57Z</time>
		</trkpt>
		<trkpt lat="54.2362174987793" lon="13.0679025650024">
			<ele>52.2000007629395</ele>
			<time>2014-04-13T09:00:58Z</time>
		</trkpt>
		<trkpt lat="54.2361717224121" lon="13.0677881240845">
			<ele>52.0999984741211</ele>
			<time>2014-04-13T09:01:00Z</time>
		</trkpt>
		<trkpt lat="54.2361297607422" lon="13.067666053772">
			<ele>52.0999984741211</ele>
			<time>2014-04-13T09:01:02Z</time>
		</trkpt>
		<trkpt lat="54.2360687255859" lon="13.0675563812256">
			<ele>52.2999992370605</ele>
			<time>2014-04-13T09:01:04Z</time>
		</trkpt>
		<trkpt lat="54.2360229492188" lon="13.0674324035645">
			<ele>52.5999984741211</ele>
			<time>2014-04-13T09:01:06Z</time>
		</trkpt>
		<trkpt lat="54.235969543457" lon="13.0673151016235">
			<ele>52.7000007629395</ele>
			<time>2014-04-13T09:01:08Z</time>
		</trkpt>
		<trkpt lat="54.2359199523926" lon="13.0671939849854">
			<ele>53.0999984741211</ele>
			<time>2014-04-13T09:01:10Z</time>
		</trkpt>
		<trkpt lat="54.2358703613281" lon="13.0670785903931">
			<ele>52.9000015258789</ele>
			<time>2014-04-13T09:01:12Z</time>
		</trkpt>
		<trkpt lat="54.2358207702637" lon="13.0669641494751">
			<ele>53.4000015258789</ele>
			<time>2014-04-13T09:01:14Z</time>
		</trkpt>
		<trkpt lat="54.2357749938965" lon="13.0668506622314">
			<ele>53.7999992370605</ele>
			<time>2014-04-13T09:01:16Z</time>
		</trkpt>
		<trkpt lat="54.235725402832" lon="13.0667457580566">
			<ele>54</ele>
			<time>2014-04-13T09:01:18Z</time>
		</trkpt>
		<trkpt lat="54.235668182373" lon="13.0666532516479">
			<ele>54.2999992370605</ele>
			<time>2014-04-13T09:01:20Z</time>
		</trkpt>
		<trkpt lat="54.2356109619141" lon="13.0665597915649">
			<ele>54.0999984741211</ele>
			<time>2014-04-13T09:01:22Z</time>
		</trkpt>
		<trkpt lat="54.2355499267578" lon="13.066478729248">
			<ele>53.5999984741211</ele>
			<time>2014-04-13T09:01:24Z</time>
		</trkpt>
		<trkpt lat="54.2354774475098" lon="13.0664033889771">
			<ele>53.5</ele>
			<time>2014-04-13T09:01:26Z</time>
		</trkpt>
		<trkpt lat="54.2354011535645" lon="13.0663452148438">
			<ele>53</ele>
			<time>2014-04-13T09:01:28Z</time>
		</trkpt>
		<trkpt lat="54.2353324890137" lon="13.0662956237793">
			<ele>53</ele>
			<time>2014-04-13T09:01:30Z</time>
		</trkpt>
		<trkpt lat="54.2352600097656" lon="13.0662641525269">
			<ele>53</ele>
			<time>2014-04-13T09:01:32Z</time>
		</trkpt>
		<trkpt lat="54.235179901123" lon="13.0662231445313">
			<ele>53.4000015258789</ele>
			<time>2014-04-13T09:01:34Z</time>
		</trkpt>
		<trkpt lat="54.2350959777832" lon="13.0661973953247">
			<ele>53.5</ele>
			<time>2014-04-13T09:01:36Z</time>
		</trkpt>
		<trkpt lat="54.2350120544434" lon="13.0661687850952">
			<ele>53.7000007629395</ele>
			<time>2014-04-13T09:01:37Z</time>
		</trkpt>
		<trkpt lat="54.2349319458008" lon="13.0661468505859">
			<ele>53.7000007629395</ele>
			<time>2014-04-13T09:01:40Z</time>
		</trkpt>
		<trkpt lat="54.2348480224609" lon="13.0661182403564">
			<ele>53.4000015258789</ele>
			<time>2014-04-13T09:01:42Z</time>
		</trkpt>
		<trkpt lat="54.2347679138184" lon="13.0660886764526">
			<ele>53.5</ele>
			<time>2014-04-13T09:01:44Z</time>
		</trkpt>
		<trkpt lat="54.2346878051758" lon="13.0660533905029">
			<ele>53.2000007629395</ele>
			<time>2014-04-13T09:01:46Z</time>
		</trkpt>
		<trkpt lat="54.2346038818359" lon="13.0660200119019">
			<ele>53.2000007629395</ele>
			<time>2014-04-13T09:01:48Z</time>
		</trkpt>
		<trkpt lat="54.2345199584961" lon="13.0659761428833">
			<ele>53.0999984741211</ele>
			<time>2014-04-13T09:01:50Z</time>
		</trkpt>
		<trkpt lat="54.2344360351563" lon="13.0659351348877">
			<ele>53</ele>
			<time>2014-04-13T09:01:52Z</time>
		</trkpt>
		<trkpt lat="54.2342643737793" lon="13.0658435821533">
			<ele>53.0999984741211</ele>
			<time>2014-04-13T09:02:00Z</time>
		</trkpt>
		<trkpt lat="54.2341003417969" lon="13.0657501220703">
			<ele>53</ele>
			<time>2014-04-13T09:02:01Z</time>
		</trkpt>
		<trkpt lat="54.2342224121094" lon="13.0658206939697">
			<ele>53</ele>
			<time>2014-04-13T09:02:03Z</time>
		</trkpt>
		<trkpt lat="54.2340240478516" lon="13.0657005310059">
			<ele>52</ele>
			<time>2014-04-13T09:02:03Z</time>
		</trkpt>
		<trkpt lat="54.233943939209" lon="13.0656538009644">
			<ele>52.4000015258789</ele>
			<time>2014-04-13T09:02:05Z</time>
		</trkpt>
		<trkpt lat="54.2338600158691" lon="13.0655965805054">
			<ele>52.2999992370605</ele>
			<time>2014-04-13T09:02:06Z</time>
		</trkpt>
		<trkpt lat="54.2337799072266" lon="13.0655288696289">
			<ele>52.0999984741211</ele>
			<time>2014-04-13T09:02:08Z</time>
		</trkpt>
		<trkpt lat="54.2336959838867" lon="13.0654716491699">
			<ele>51.9000015258789</ele>
			<time>2014-04-13T09:02:10Z</time>
		</trkpt>
		<trkpt lat="54.2336540222168" lon="13.0654411315918">
			<ele>51.7999992370605</ele>
			<time>2014-04-13T09:02:11Z</time>
		</trkpt>
		<trkpt lat="54.2336120605469" lon="13.0654106140137">
			<ele>51.7999992370605</ele>
			<time>2014-04-13T09:02:12Z</time>
		</trkpt>
		<trkpt lat="54.2335662841797" lon="13.0653810501099">
			<ele>51.9000015258789</ele>
			<time>2014-04-13T09:02:14Z</time>
		</trkpt>
		<trkpt lat="54.2334823608398" lon="13.0653219223022">
			<ele>52.0999984741211</ele>
			<time>2014-04-13T09:02:16Z</time>
		</trkpt>
		<trkpt lat="54.2334442138672" lon="13.0652894973755">
			<ele>51.7999992370605</ele>
			<time>2014-04-13T09:02:16Z</time>
		</trkpt>
		<trkpt lat="54.2333984375" lon="13.0652637481689">
			<ele>51.5999984741211</ele>
			<time>2014-04-13T09:02:17Z</time>
		</trkpt>
		<trkpt lat="54.2333564758301" lon="13.0652275085449">
			<ele>51.7999992370605</ele>
			<time>2014-04-13T09:02:18Z</time>
		</trkpt>
		<trkpt lat="54.2332725524902" lon="13.0651721954346">
			<ele>51.5999984741211</ele>
			<time>2014-04-13T09:02:20Z</time>
		</trkpt>
		<trkpt lat="54.233226776123" lon="13.0651473999023">
			<ele>51.2999992370605</ele>
			<time>2014-04-13T09:02:21Z</time>
		</trkpt>
		<trkpt lat="54.2331848144531" lon="13.0651235580444">
			<ele>50.7999992370605</ele>
			<time>2014-04-13T09:02:22Z</time>
		</trkpt>
		<trkpt lat="54.2331008911133" lon="13.0650997161865">
			<ele>50.2999992370605</ele>
			<time>2014-04-13T09:02:23Z</time>
		</trkpt>
		<trkpt lat="54.2330513000488" lon="13.0650854110718">
			<ele>50.2000007629395</ele>
			<time>2014-04-13T09:02:25Z</time>
		</trkpt>
		<trkpt lat="54.2330055236816" lon="13.0650835037231">
			<ele>50.4000015258789</ele>
			<time>2014-04-13T09:02:25Z</time>
		</trkpt>
		<trkpt lat="54.2329559326172" lon="13.0650968551636">
			<ele>50.2000007629395</ele>
			<time>2014-04-13T09:02:26Z</time>
		</trkpt>
		<trkpt lat="54.2328987121582" lon="13.0651044845581">
			<ele>48.9000015258789</ele>
			<time>2014-04-13T09:02:27Z</time>
		</trkpt>
		<trkpt lat="54.2328414916992" lon="13.0651082992554">
			<ele>49.5999984741211</ele>
			<time>2014-04-13T09:02:28Z</time>
		</trkpt>
		<trkpt lat="54.2327766418457" lon="13.0651054382324">
			<ele>50.7000007629395</ele>
			<time>2014-04-13T09:02:29Z</time>
		</trkpt>
		<trkpt lat="54.2326927185059" lon="13.065071105957">
			<ele>50</ele>
			<time>2014-04-13T09:02:32Z</time>
		</trkpt>
		<trkpt lat="54.2326431274414" lon="13.0650701522827">
			<ele>50.2000007629395</ele>
			<time>2014-04-13T09:02:32Z</time>
		</trkpt>
		<trkpt lat="54.232593536377" lon="13.0650672912598">
			<ele>50.4000015258789</ele>
			<time>2014-04-13T09:02:34Z</time>
		</trkpt>
		<trkpt lat="54.2325439453125" lon="13.0650758743286">
			<ele>51</ele>
			<time>2014-04-13T09:02:34Z</time>
		</trkpt>
		<trkpt lat="54.232494354248" lon="13.06507396698">
			<ele>51.2999992370605</ele>
			<time>2014-04-13T09:02:35Z</time>
		</trkpt>
		<trkpt lat="54.2324485778809" lon="13.0650758743286">
			<ele>51.2999992370605</ele>
			<time>2014-04-13T09:02:37Z</time>
		</trkpt>
		<trkpt lat="54.232364654541" lon="13.0650615692139">
			<ele>51.5</ele>
			<time>2014-04-13T09:02:39Z</time>
		</trkpt>
		<trkpt lat="54.2323150634766" lon="13.0650625228882">
			<ele>51.5</ele>
			<time>2014-04-13T09:02:40Z</time>
		</trkpt>
		<trkpt lat="54.2322578430176" lon="13.0650901794434">
			<ele>52</ele>
			<time>2014-04-13T09:02:41Z</time>
		</trkpt>
		<trkpt lat="54.2322044372559" lon="13.0651016235352">
			<ele>52.2999992370605</ele>
			<time>2014-04-13T09:02:42Z</time>
		</trkpt>
		<trkpt lat="54.2321548461914" lon="13.0650987625122">
			<ele>52.5</ele>
			<time>2014-04-13T09:02:43Z</time>
		</trkpt>
		<trkpt lat="54.2320861816406" lon="13.0650835037231">
			<ele>51.7000007629395</ele>
			<time>2014-04-13T09:02:44Z</time>
		</trkpt>
		<trkpt lat="54.2319946289063" lon="13.0650949478149">
			<ele>51.4000015258789</ele>
			<time>2014-04-13T09:02:46Z</time>
		</trkpt>
		<trkpt lat="54.2319297790527" lon="13.0650835037231">
			<ele>51.5999984741211</ele>
			<time>2014-04-13T09:02:49Z</time>
		</trkpt>
		<trkpt lat="54.2318649291992" lon="13.0650796890259">
			<ele>53.2000007629395</ele>
			<time>2014-04-13T09:02:50Z</time>
		</trkpt>
		<trkpt lat="54.2318077087402" lon="13.0650882720947">
			<ele>53.5999984741211</ele>
			<time>2014-04-13T09:02:52Z</time>
		</trkpt>
		<trkpt lat="54.2317581176758" lon="13.0651025772095">
			<ele>53.2999992370605</ele>
			<time>2014-04-13T09:03:29Z</time>
		</trkpt>
		<trkpt lat="54.2317085266113" lon="13.0650997161865">
			<ele>54</ele>
			<time>2014-04-13T09:03:31Z</time>
		</trkpt>
		<trkpt lat="54.2316513061523" lon="13.0650930404663">
			<ele>54.4000015258789</ele>
			<time>2014-04-13T09:03:33Z</time>
		</trkpt>
		<trkpt lat="54.2315788269043" lon="13.065092086792">
			<ele>54.9000015258789</ele>
			<time>2014-04-13T09:03:35Z</time>
		</trkpt>
		<trkpt lat="54.231502532959" lon="13.0650949478149">
			<ele>55.0999984741211</ele>
			<time>2014-04-13T09:03:37Z</time>
		</trkpt>
		<trkpt lat="54.2314300537109" lon="13.0650844573975">
			<ele>56.2999992370605</ele>
			<time>2014-04-13T09:03:39Z</time>
		</trkpt>
		<trkpt lat="54.2313842773438" lon="13.0650787353516">
			<ele>55.7999992370605</ele>
			<time>2014-04-13T09:03:40Z</time>
		</trkpt>
		<trkpt lat="54.2313041687012" lon="13.0650911331177">
			<ele>55.5999984741211</ele>
			<time>2014-04-13T09:03:42Z</time>
		</trkpt>
		<trkpt lat="54.2312202453613" lon="13.065089225769">
			<ele>56.2999992370605</ele>
			<time>2014-04-13T09:03:44Z</time>
		</trkpt>
		<trkpt lat="54.2311363220215" lon="13.0650911331177">
			<ele>56.2999992370605</ele>
			<time>2014-04-13T09:03:46Z</time>
		</trkpt>
		<trkpt lat="54.2310638427734" lon="13.0650835037231">
			<ele>56.5999984741211</ele>
			<time>2014-04-13T09:03:48Z</time>
		</trkpt>
		<trkpt lat="54.2309913635254" lon="13.0650691986084">
			<ele>56.5999984741211</ele>
			<time>2014-04-13T09:03:50Z</time>
		</trkpt>
		<trkpt lat="54.2309112548828" lon="13.0650644302368">
			<ele>56.0999984741211</ele>
			<time>2014-04-13T09:03:52Z</time>
		</trkpt>
		<trkpt lat="54.2308311462402" lon="13.0650615692139">
			<ele>56.5999984741211</ele>
			<time>2014-04-13T09:03:54Z</time>
		</trkpt>
		<trkpt lat="54.2307624816895" lon="13.0650625228882">
			<ele>56.4000015258789</ele>
			<time>2014-04-13T09:03:57Z</time>
		</trkpt>
		<trkpt lat="54.2306785583496" lon="13.0650749206543">
			<ele>57.4000015258789</ele>
			<time>2014-04-13T09:03:58Z</time>
		</trkpt>
		<trkpt lat="54.2306327819824" lon="13.0650768280029">
			<ele>57</ele>
			<time>2014-04-13T09:03:59Z</time>
		</trkpt>
		<trkpt lat="54.2305450439453" lon="13.0650806427002">
			<ele>57.2000007629395</ele>
			<time>2014-04-13T09:04:01Z</time>
		</trkpt>
		<trkpt lat="54.2304649353027" lon="13.0650644302368">
			<ele>57.2000007629395</ele>
			<time>2014-04-13T09:04:03Z</time>
		</trkpt>
		<trkpt lat="54.2303695678711" lon="13.0650625228882">
			<ele>56.7000007629395</ele>
			<time>2014-04-13T09:04:05Z</time>
		</trkpt>
		<trkpt lat="54.230281829834" lon="13.0650720596313">
			<ele>56.9000015258789</ele>
			<time>2014-04-13T09:04:07Z</time>
		</trkpt>
		<trkpt lat="54.2302360534668" lon="13.065071105957">
			<ele>56.5</ele>
			<time>2014-04-13T09:04:08Z</time>
		</trkpt>
		<trkpt lat="54.2301826477051" lon="13.0650749206543">
			<ele>56.4000015258789</ele>
			<time>2014-04-13T09:04:09Z</time>
		</trkpt>
		<trkpt lat="54.2301025390625" lon="13.0650577545166">
			<ele>56.5999984741211</ele>
			<time>2014-04-13T09:04:11Z</time>
		</trkpt>
		<trkpt lat="54.230052947998" lon="13.0650634765625">
			<ele>56.5999984741211</ele>
			<time>2014-04-13T09:04:12Z</time>
		</trkpt>
		<trkpt lat="54.2300033569336" lon="13.0650720596313">
			<ele>56.5999984741211</ele>
			<time>2014-04-13T09:04:13Z</time>
		</trkpt>
		<trkpt lat="54.2299156188965" lon="13.065071105957">
			<ele>56.5999984741211</ele>
			<time>2014-04-13T09:04:16Z</time>
		</trkpt>
		<trkpt lat="54.2298316955566" lon="13.0650663375854">
			<ele>58.0999984741211</ele>
			<time>2014-04-13T09:04:18Z</time>
		</trkpt>
		<trkpt lat="54.2297477722168" lon="13.0650625228882">
			<ele>58.5</ele>
			<time>2014-04-13T09:04:19Z</time>
		</trkpt>
		<trkpt lat="54.2296676635742" lon="13.0650539398193">
			<ele>58.0999984741211</ele>
			<time>2014-04-13T09:04:21Z</time>
		</trkpt>
		<trkpt lat="54.2295837402344" lon="13.0650587081909">
			<ele>57.9000015258789</ele>
			<time>2014-04-13T09:04:23Z</time>
		</trkpt>
		<trkpt lat="54.2295379638672" lon="13.0650606155396">
			<ele>57.9000015258789</ele>
			<time>2014-04-13T09:04:24Z</time>
		</trkpt>
		<trkpt lat="54.2294883728027" lon="13.0650701522827">
			<ele>58.0999984741211</ele>
			<time>2014-04-13T09:04:25Z</time>
		</trkpt>
		<trkpt lat="54.2294044494629" lon="13.0650577545166">
			<ele>57.5999984741211</ele>
			<time>2014-04-13T09:04:27Z</time>
		</trkpt>
		<trkpt lat="54.229320526123" lon="13.0650587081909">
			<ele>57.4000015258789</ele>
			<time>2014-04-13T09:04:29Z</time>
		</trkpt>
		<trkpt lat="54.2292327880859" lon="13.0650510787964">
			<ele>58</ele>
			<time>2014-04-13T09:04:31Z</time>
		</trkpt>
		<trkpt lat="54.2291831970215" lon="13.0650482177734">
			<ele>57.9000015258789</ele>
			<time>2014-04-13T09:04:32Z</time>
		</trkpt>
		<trkpt lat="54.2291297912598" lon="13.0650501251221">
			<ele>57.9000015258789</ele>
			<time>2014-04-13T09:04:33Z</time>
		</trkpt>
		<trkpt lat="54.2290382385254" lon="13.0650339126587">
			<ele>57.2000007629395</ele>
			<time>2014-04-13T09:04:35Z</time>
		</trkpt>
		<trkpt lat="54.2289924621582" lon="13.0650310516357">
			<ele>56.9000015258789</ele>
			<time>2014-04-13T09:04:37Z</time>
		</trkpt>
		<trkpt lat="54.2289428710938" lon="13.0650320053101">
			<ele>56.7000007629395</ele>
			<time>2014-04-13T09:04:37Z</time>
		</trkpt>
		<trkpt lat="54.228889465332" lon="13.065034866333">
			<ele>56.9000015258789</ele>
			<time>2014-04-13T09:04:38Z</time>
		</trkpt>
		<trkpt lat="54.2288436889648" lon="13.0650358200073">
			<ele>56.7000007629395</ele>
			<time>2014-04-13T09:04:39Z</time>
		</trkpt>
		<trkpt lat="54.2287826538086" lon="13.0650520324707">
			<ele>56.7000007629395</ele>
			<time>2014-04-13T09:04:41Z</time>
		</trkpt>
		<trkpt lat="54.2287368774414" lon="13.0650415420532">
			<ele>56.4000015258789</ele>
			<time>2014-04-13T09:04:41Z</time>
		</trkpt>
		<trkpt lat="54.2286796569824" lon="13.0650453567505">
			<ele>56.4000015258789</ele>
			<time>2014-04-13T09:04:42Z</time>
		</trkpt>
		<trkpt lat="54.2286262512207" lon="13.0650625228882">
			<ele>56.9000015258789</ele>
			<time>2014-04-13T09:04:43Z</time>
		</trkpt>
		<trkpt lat="54.228572845459" lon="13.0650587081909">
			<ele>56.5</ele>
			<time>2014-04-13T09:04:44Z</time>
		</trkpt>
		<trkpt lat="54.2285232543945" lon="13.0650596618652">
			<ele>57</ele>
			<time>2014-04-13T09:04:46Z</time>
		</trkpt>
		<trkpt lat="54.2284660339355" lon="13.0650596618652">
			<ele>56.7999992370605</ele>
			<time>2014-04-13T09:04:46Z</time>
		</trkpt>
		<trkpt lat="54.2284049987793" lon="13.06507396698">
			<ele>57.2999992370605</ele>
			<time>2014-04-13T09:04:47Z</time>
		</trkpt>
		<trkpt lat="54.2283172607422" lon="13.0650672912598">
			<ele>57.0999984741211</ele>
			<time>2014-04-13T09:04:49Z</time>
		</trkpt>
		<trkpt lat="54.2282333374023" lon="13.0650615692139">
			<ele>57.5</ele>
			<time>2014-04-13T09:04:51Z</time>
		</trkpt>
		<trkpt lat="54.2281532287598" lon="13.0650520324707">
			<ele>57.4000015258789</ele>
			<time>2014-04-13T09:04:54Z</time>
		</trkpt>
		<trkpt lat="54.2280693054199" lon="13.0650415420532">
			<ele>56.5999984741211</ele>
			<time>2014-04-13T09:04:56Z</time>
		</trkpt>
		<trkpt lat="54.2279853820801" lon="13.0650339126587">
			<ele>56.7999992370605</ele>
			<time>2014-04-13T09:04:57Z</time>
		</trkpt>
		<trkpt lat="54.2279014587402" lon="13.0650405883789">
			<ele>56.5</ele>
			<time>2014-04-13T09:04:59Z</time>
		</trkpt>
		<trkpt lat="54.2278213500977" lon="13.0650405883789">
			<ele>56.5</ele>
			<time>2014-04-13T09:05:02Z</time>
		</trkpt>
		<trkpt lat="54.2277450561523" lon="13.0650358200073">
			<ele>56.5</ele>
			<time>2014-04-13T09:05:03Z</time>
		</trkpt>
		<trkpt lat="54.2276649475098" lon="13.0650396347046">
			<ele>56.2000007629395</ele>
			<time>2014-04-13T09:05:05Z</time>
		</trkpt>
		<trkpt lat="54.2275924682617" lon="13.0650434494019">
			<ele>56.5</ele>
			<time>2014-04-13T09:05:07Z</time>
		</trkpt>
		<trkpt lat="54.2275123596191" lon="13.0650482177734">
			<ele>56.5</ele>
			<time>2014-04-13T09:05:09Z</time>
		</trkpt>
		<trkpt lat="54.2274398803711" lon="13.0650415420532">
			<ele>56.9000015258789</ele>
			<time>2014-04-13T09:05:11Z</time>
		</trkpt>
		<trkpt lat="54.2273597717285" lon="13.0650405883789">
			<ele>57.0999984741211</ele>
			<time>2014-04-13T09:05:13Z</time>
		</trkpt>
		<trkpt lat="54.2272872924805" lon="13.0650434494019">
			<ele>57</ele>
			<time>2014-04-13T09:05:15Z</time>
		</trkpt>
		<trkpt lat="54.2272109985352" lon="13.0650453567505">
			<ele>57.2999992370605</ele>
			<time>2014-04-13T09:05:17Z</time>
		</trkpt>
		<trkpt lat="54.2271308898926" lon="13.0650405883789">
			<ele>57.2000007629395</ele>
			<time>2014-04-13T09:05:19Z</time>
		</trkpt>
		<trkpt lat="54.2270584106445" lon="13.0650415420532">
			<ele>57.4000015258789</ele>
			<time>2014-04-13T09:05:21Z</time>
		</trkpt>
		<trkpt lat="54.2269897460938" lon="13.0650472640991">
			<ele>57.2000007629395</ele>
			<time>2014-04-13T09:05:23Z</time>
		</trkpt>
		<trkpt lat="54.2269248962402" lon="13.0650386810303">
			<ele>57.4000015258789</ele>
			<time>2014-04-13T09:05:25Z</time>
		</trkpt>
		<trkpt lat="54.2268524169922" lon="13.065034866333">
			<ele>57.2000007629395</ele>
			<time>2014-04-13T09:05:27Z</time>
		</trkpt>
		<trkpt lat="54.2267799377441" lon="13.0650396347046">
			<ele>57.0999984741211</ele>
			<time>2014-04-13T09:05:29Z</time>
		</trkpt>
		<trkpt lat="54.2267074584961" lon="13.0650367736816">
			<ele>57.4000015258789</ele>
			<time>2014-04-13T09:05:31Z</time>
		</trkpt>
		<trkpt lat="54.226634979248" lon="13.0650300979614">
			<ele>57.7000007629395</ele>
			<time>2014-04-13T09:05:33Z</time>
		</trkpt>
		<trkpt lat="54.2265663146973" lon="13.0650234222412">
			<ele>57.7000007629395</ele>
			<time>2014-04-13T09:05:35Z</time>
		</trkpt>
		<trkpt lat="54.2264938354492" lon="13.0650243759155">
			<ele>57.5</ele>
			<time>2014-04-13T09:05:37Z</time>
		</trkpt>
		<trkpt lat="54.2264251708984" lon="13.0650186538696">
			<ele>57.7000007629395</ele>
			<time>2014-04-13T09:05:39Z</time>
		</trkpt>
		<trkpt lat="54.2263565063477" lon="13.0650177001953">
			<ele>58</ele>
			<time>2014-04-13T09:05:41Z</time>
		</trkpt>
		<trkpt lat="54.2262878417969" lon="13.065016746521">
			<ele>58</ele>
			<time>2014-04-13T09:05:43Z</time>
		</trkpt>
		<trkpt lat="54.2262191772461" lon="13.0650205612183">
			<ele>58.4000015258789</ele>
			<time>2014-04-13T09:05:45Z</time>
		</trkpt>
		<trkpt lat="54.2261505126953" lon="13.0650205612183">
			<ele>58.5</ele>
			<time>2014-04-13T09:05:47Z</time>
		</trkpt>
		<trkpt lat="54.2260818481445" lon="13.065013885498">
			<ele>58.5</ele>
			<time>2014-04-13T09:05:50Z</time>
		</trkpt>
		<trkpt lat="54.2260093688965" lon="13.0650100708008">
			<ele>58.2000007629395</ele>
			<time>2014-04-13T09:05:52Z</time>
		</trkpt>
		<trkpt lat="54.2259368896484" lon="13.0650110244751">
			<ele>58.5</ele>
			<time>2014-04-13T09:05:53Z</time>
		</trkpt>
		<trkpt lat="54.2258720397949" lon="13.0650100708008">
			<ele>58.7000007629395</ele>
			<time>2014-04-13T09:05:56Z</time>
		</trkpt>
		<trkpt lat="54.2258071899414" lon="13.0650072097778">
			<ele>59</ele>
			<time>2014-04-13T09:05:57Z</time>
		</trkpt>
		<trkpt lat="54.2257347106934" lon="13.0650053024292">
			<ele>59.2999992370605</ele>
			<time>2014-04-13T09:05:59Z</time>
		</trkpt>
		<trkpt lat="54.2256698608398" lon="13.0650062561035">
			<ele>59.0999984741211</ele>
			<time>2014-04-13T09:06:02Z</time>
		</trkpt>
		<trkpt lat="54.2256011962891" lon="13.0650033950806">
			<ele>60.0999984741211</ele>
			<time>2014-04-13T09:06:03Z</time>
		</trkpt>
		<trkpt lat="54.2255325317383" lon="13.0650062561035">
			<ele>60.4000015258789</ele>
			<time>2014-04-13T09:06:05Z</time>
		</trkpt>
		<trkpt lat="54.2254638671875" lon="13.0650072097778">
			<ele>60.7000007629395</ele>
			<time>2014-04-13T09:06:07Z</time>
		</trkpt>
		<trkpt lat="54.225399017334" lon="13.0650062561035">
			<ele>61</ele>
			<time>2014-04-13T09:06:09Z</time>
		</trkpt>
		<trkpt lat="54.2253341674805" lon="13.0650043487549">
			<ele>61</ele>
			<time>2014-04-13T09:06:11Z</time>
		</trkpt>
		<trkpt lat="54.225269317627" lon="13.0650005340576">
			<ele>61.2000007629395</ele>
			<time>2014-04-13T09:06:13Z</time>
		</trkpt>
		<trkpt lat="54.2252044677734" lon="13.064995765686">
			<ele>61.4000015258789</ele>
			<time>2014-04-13T09:06:15Z</time>
		</trkpt>
		<trkpt lat="54.2251434326172" lon="13.0649976730347">
			<ele>61.2000007629395</ele>
			<time>2014-04-13T09:06:17Z</time>
		</trkpt>
		<trkpt lat="54.2250747680664" lon="13.0649948120117">
			<ele>61.2000007629395</ele>
			<time>2014-04-13T09:06:20Z</time>
		</trkpt>
		<trkpt lat="54.2250061035156" lon="13.0649929046631">
			<ele>61.2999992370605</ele>
			<time>2014-04-13T09:06:21Z</time>
		</trkpt>
		<trkpt lat="54.2249336242676" lon="13.0649900436401">
			<ele>61.0999984741211</ele>
			<time>2014-04-13T09:06:24Z</time>
		</trkpt>
		<trkpt lat="54.2248611450195" lon="13.0649900436401">
			<ele>61</ele>
			<time>2014-04-13T09:06:25Z</time>
		</trkpt>
		<trkpt lat="54.2247886657715" lon="13.0649881362915">
			<ele>61</ele>
			<time>2014-04-13T09:06:27Z</time>
		</trkpt>
		<trkpt lat="54.2247161865234" lon="13.0649814605713">
			<ele>61</ele>
			<time>2014-04-13T09:06:30Z</time>
		</trkpt>
		<trkpt lat="54.2246437072754" lon="13.0649843215942">
			<ele>60.9000015258789</ele>
			<time>2014-04-13T09:06:31Z</time>
		</trkpt>
		<trkpt lat="54.2245712280273" lon="13.0649833679199">
			<ele>61.0999984741211</ele>
			<time>2014-04-13T09:06:33Z</time>
		</trkpt>
		<trkpt lat="54.2244987487793" lon="13.0649824142456">
			<ele>61.4000015258789</ele>
			<time>2014-04-13T09:06:35Z</time>
		</trkpt>
		<trkpt lat="54.2244300842285" lon="13.0649795532227">
			<ele>61.2999992370605</ele>
			<time>2014-04-13T09:06:37Z</time>
		</trkpt>
		<trkpt lat="54.2243576049805" lon="13.0649795532227">
			<ele>61.2000007629395</ele>
			<time>2014-04-13T09:06:39Z</time>
		</trkpt>
		<trkpt lat="54.2242851257324" lon="13.0649728775024">
			<ele>61.2000007629395</ele>
			<time>2014-04-13T09:06:41Z</time>
		</trkpt>
		<trkpt lat="54.2242126464844" lon="13.0649747848511">
			<ele>61.0999984741211</ele>
			<time>2014-04-13T09:06:43Z</time>
		</trkpt>
		<trkpt lat="54.2241401672363" lon="13.0649747848511">
			<ele>61.4000015258789</ele>
			<time>2014-04-13T09:06:45Z</time>
		</trkpt>
		<trkpt lat="54.2240676879883" lon="13.0649700164795">
			<ele>61.4000015258789</ele>
			<time>2014-04-13T09:06:47Z</time>
		</trkpt>
		<trkpt lat="54.2239952087402" lon="13.0649719238281">
			<ele>61.2999992370605</ele>
			<time>2014-04-13T09:06:49Z</time>
		</trkpt>
		<trkpt lat="54.2239265441895" lon="13.0649700164795">
			<ele>61.4000015258789</ele>
			<time>2014-04-13T09:06:52Z</time>
		</trkpt>
		<trkpt lat="54.2238540649414" lon="13.0649690628052">
			<ele>61.5999984741211</ele>
			<time>2014-04-13T09:06:53Z</time>
		</trkpt>
		<trkpt lat="54.2237854003906" lon="13.0649671554565">
			<ele>61.9000015258789</ele>
			<time>2014-04-13T09:06:55Z</time>
		</trkpt>
		<trkpt lat="54.2237129211426" lon="13.0649662017822">
			<ele>61.7999992370605</ele>
			<time>2014-04-13T09:06:57Z</time>
		</trkpt>
		<trkpt lat="54.2236404418945" lon="13.0649633407593">
			<ele>62</ele>
			<time>2014-04-13T09:06:59Z</time>
		</trkpt>
		<trkpt lat="54.2235679626465" lon="13.0649633407593">
			<ele>62</ele>
			<time>2014-04-13T09:07:02Z</time>
		</trkpt>
		<trkpt lat="54.2234916687012" lon="13.0649604797363">
			<ele>62.0999984741211</ele>
			<time>2014-04-13T09:07:03Z</time>
		</trkpt>
		<trkpt lat="54.2234230041504" lon="13.0649662017822">
			<ele>62.2000007629395</ele>
			<time>2014-04-13T09:07:05Z</time>
		</trkpt>
		<trkpt lat="54.2233467102051" lon="13.0649614334106">
			<ele>62.2000007629395</ele>
			<time>2014-04-13T09:07:07Z</time>
		</trkpt>
		<trkpt lat="54.223274230957" lon="13.0649614334106">
			<ele>62.4000015258789</ele>
			<time>2014-04-13T09:07:10Z</time>
		</trkpt>
		<trkpt lat="54.223201751709" lon="13.064962387085">
			<ele>62.7000007629395</ele>
			<time>2014-04-13T09:07:11Z</time>
		</trkpt>
		<trkpt lat="54.2231254577637" lon="13.0649614334106">
			<ele>62.4000015258789</ele>
			<time>2014-04-13T09:07:13Z</time>
		</trkpt>
		<trkpt lat="54.2230529785156" lon="13.0649604797363">
			<ele>62</ele>
			<time>2014-04-13T09:07:15Z</time>
		</trkpt>
		<trkpt lat="54.2229881286621" lon="13.0649509429932">
			<ele>62.5</ele>
			<time>2014-04-13T09:07:17Z</time>
		</trkpt>
		<trkpt lat="54.2229194641113" lon="13.0649480819702">
			<ele>62.7999992370605</ele>
			<time>2014-04-13T09:07:19Z</time>
		</trkpt>
		<trkpt lat="54.2228393554688" lon="13.0649480819702">
			<ele>63.7000007629395</ele>
			<time>2014-04-13T09:07:21Z</time>
		</trkpt>
		<trkpt lat="54.2227630615234" lon="13.0649499893188">
			<ele>63.2999992370605</ele>
			<time>2014-04-13T09:07:23Z</time>
		</trkpt>
		<trkpt lat="54.2226905822754" lon="13.0649509429932">
			<ele>63.0999984741211</ele>
			<time>2014-04-13T09:07:26Z</time>
		</trkpt>
		<trkpt lat="54.2226142883301" lon="13.0649518966675">
			<ele>63.0999984741211</ele>
			<time>2014-04-13T09:07:27Z</time>
		</trkpt>
		<trkpt lat="54.2225303649902" lon="13.0649490356445">
			<ele>63.9000015258789</ele>
			<time>2014-04-13T09:07:29Z</time>
		</trkpt>
		<trkpt lat="54.2224540710449" lon="13.0649423599243">
			<ele>64.0999984741211</ele>
			<time>2014-04-13T09:07:31Z</time>
		</trkpt>
		<trkpt lat="54.2223739624023" lon="13.0649299621582">
			<ele>63.9000015258789</ele>
			<time>2014-04-13T09:07:33Z</time>
		</trkpt>
		<trkpt lat="54.2223014831543" lon="13.0649375915527">
			<ele>64.4000015258789</ele>
			<time>2014-04-13T09:07:35Z</time>
		</trkpt>
		<trkpt lat="54.2222366333008" lon="13.0649375915527">
			<ele>64.0999984741211</ele>
			<time>2014-04-13T09:07:37Z</time>
		</trkpt>
		<trkpt lat="54.2221527099609" lon="13.0649423599243">
			<ele>64</ele>
			<time>2014-04-13T09:07:39Z</time>
		</trkpt>
		<trkpt lat="54.2220764160156" lon="13.0649433135986">
			<ele>63.7000007629395</ele>
			<time>2014-04-13T09:07:42Z</time>
		</trkpt>
		<trkpt lat="54.2220039367676" lon="13.06494140625">
			<ele>63.0999984741211</ele>
			<time>2014-04-13T09:07:43Z</time>
		</trkpt>
		<trkpt lat="54.2219352722168" lon="13.0649404525757">
			<ele>63.2999992370605</ele>
			<time>2014-04-13T09:07:45Z</time>
		</trkpt>
		<trkpt lat="54.2218589782715" lon="13.0649318695068">
			<ele>63.4000015258789</ele>
			<time>2014-04-13T09:07:47Z</time>
		</trkpt>
		<trkpt lat="54.2217864990234" lon="13.0649309158325">
			<ele>63.2999992370605</ele>
			<time>2014-04-13T09:07:49Z</time>
		</trkpt>
		<trkpt lat="54.2217025756836" lon="13.0649366378784">
			<ele>63.5</ele>
			<time>2014-04-13T09:07:51Z</time>
		</trkpt>
		<trkpt lat="54.2216339111328" lon="13.0649328231812">
			<ele>63.0999984741211</ele>
			<time>2014-04-13T09:07:53Z</time>
		</trkpt>
		<trkpt lat="54.2215576171875" lon="13.0649242401123">
			<ele>63.5</ele>
			<time>2014-04-13T09:07:55Z</time>
		</trkpt>
		<trkpt lat="54.2214736938477" lon="13.0649309158325">
			<ele>62.2999992370605</ele>
			<time>2014-04-13T09:07:57Z</time>
		</trkpt>
		<trkpt lat="54.2214012145996" lon="13.0649356842041">
			<ele>62</ele>
			<time>2014-04-13T09:07:59Z</time>
		</trkpt>
		<trkpt lat="54.2213249206543" lon="13.06494140625">
			<ele>62.2999992370605</ele>
			<time>2014-04-13T09:08:01Z</time>
		</trkpt>
		<trkpt lat="54.2212409973145" lon="13.0649328231812">
			<ele>62.2000007629395</ele>
			<time>2014-04-13T09:08:03Z</time>
		</trkpt>
		<trkpt lat="54.2211608886719" lon="13.0649280548096">
			<ele>61.5</ele>
			<time>2014-04-13T09:08:05Z</time>
		</trkpt>
		<trkpt lat="54.2210845947266" lon="13.0649194717407">
			<ele>62.2999992370605</ele>
			<time>2014-04-13T09:08:07Z</time>
		</trkpt>
		<trkpt lat="54.2210159301758" lon="13.0649185180664">
			<ele>63</ele>
			<time>2014-04-13T09:08:09Z</time>
		</trkpt>
		<trkpt lat="54.2209396362305" lon="13.0649147033691">
			<ele>63.0999984741211</ele>
			<time>2014-04-13T09:08:11Z</time>
		</trkpt>
		<trkpt lat="54.2208633422852" lon="13.0649290084839">
			<ele>63.4000015258789</ele>
			<time>2014-04-13T09:08:14Z</time>
		</trkpt>
		<trkpt lat="54.2207870483398" lon="13.0649166107178">
			<ele>63.7999992370605</ele>
			<time>2014-04-13T09:08:15Z</time>
		</trkpt>
		<trkpt lat="54.2207145690918" lon="13.064920425415">
			<ele>63.9000015258789</ele>
			<time>2014-04-13T09:08:17Z</time>
		</trkpt>
		<trkpt lat="54.2206687927246" lon="13.0649166107178">
			<ele>63.9000015258789</ele>
			<time>2014-04-13T09:08:18Z</time>
		</trkpt>
		<trkpt lat="54.2206230163574" lon="13.064920425415">
			<ele>63.5999984741211</ele>
			<time>2014-04-13T09:08:19Z</time>
		</trkpt>
		<trkpt lat="54.2205467224121" lon="13.0649251937866">
			<ele>63</ele>
			<time>2014-04-13T09:08:21Z</time>
		</trkpt>
		<trkpt lat="54.2205009460449" lon="13.0649223327637">
			<ele>63.7000007629395</ele>
			<time>2014-04-13T09:08:22Z</time>
		</trkpt>
		<trkpt lat="54.2204284667969" lon="13.0649223327637">
			<ele>63.9000015258789</ele>
			<time>2014-04-13T09:08:24Z</time>
		</trkpt>
		<trkpt lat="54.2203521728516" lon="13.0649213790894">
			<ele>63.7000007629395</ele>
			<time>2014-04-13T09:08:26Z</time>
		</trkpt>
		<trkpt lat="54.2202758789063" lon="13.0649175643921">
			<ele>64</ele>
			<time>2014-04-13T09:08:28Z</time>
		</trkpt>
		<trkpt lat="54.2201995849609" lon="13.064902305603">
			<ele>63.5999984741211</ele>
			<time>2014-04-13T09:08:30Z</time>
		</trkpt>
		<trkpt lat="54.2201232910156" lon="13.0649089813232">
			<ele>63.0999984741211</ele>
			<time>2014-04-13T09:08:32Z</time>
		</trkpt>
		<trkpt lat="54.2200775146484" lon="13.0649089813232">
			<ele>62.7000007629395</ele>
			<time>2014-04-13T09:08:33Z</time>
		</trkpt>
		<trkpt lat="54.220027923584" lon="13.0649061203003">
			<ele>62.9000015258789</ele>
			<time>2014-04-13T09:08:34Z</time>
		</trkpt>
		<trkpt lat="54.2199478149414" lon="13.0649032592773">
			<ele>62.5999984741211</ele>
			<time>2014-04-13T09:08:36Z</time>
		</trkpt>
		<trkpt lat="54.2199020385742" lon="13.0649061203003">
			<ele>62</ele>
			<time>2014-04-13T09:08:38Z</time>
		</trkpt>
		<trkpt lat="54.2198143005371" lon="13.0649089813232">
			<ele>62.2999992370605</ele>
			<time>2014-04-13T09:08:39Z</time>
		</trkpt>
		<trkpt lat="54.2197685241699" lon="13.0649080276489">
			<ele>61.9000015258789</ele>
			<time>2014-04-13T09:08:40Z</time>
		</trkpt>
		<trkpt lat="54.2196807861328" lon="13.0649099349976">
			<ele>61.9000015258789</ele>
			<time>2014-04-13T09:08:42Z</time>
		</trkpt>
		<trkpt lat="54.2196311950684" lon="13.0649061203003">
			<ele>61.7000007629395</ele>
			<time>2014-04-13T09:08:43Z</time>
		</trkpt>
		<trkpt lat="54.2195854187012" lon="13.0649070739746">
			<ele>61.2000007629395</ele>
			<time>2014-04-13T09:08:44Z</time>
		</trkpt>
		<trkpt lat="54.219539642334" lon="13.0649003982544">
			<ele>61.0999984741211</ele>
			<time>2014-04-13T09:08:46Z</time>
		</trkpt>
		<trkpt lat="54.2194900512695" lon="13.0649003982544">
			<ele>60.7999992370605</ele>
			<time>2014-04-13T09:08:46Z</time>
		</trkpt>
		<trkpt lat="54.2194442749023" lon="13.0648984909058">
			<ele>60.7999992370605</ele>
			<time>2014-04-13T09:08:47Z</time>
		</trkpt>
		<trkpt lat="54.219352722168" lon="13.0648946762085">
			<ele>60.5</ele>
			<time>2014-04-13T09:08:49Z</time>
		</trkpt>
		<trkpt lat="54.2193031311035" lon="13.0648956298828">
			<ele>60.5</ele>
			<time>2014-04-13T09:08:50Z</time>
		</trkpt>
		<trkpt lat="54.2192192077637" lon="13.0648803710938">
			<ele>61.2999992370605</ele>
			<time>2014-04-13T09:08:52Z</time>
		</trkpt>
		<trkpt lat="54.2191696166992" lon="13.0648727416992">
			<ele>61.5</ele>
			<time>2014-04-13T09:08:53Z</time>
		</trkpt>
		<trkpt lat="54.2191162109375" lon="13.0648727416992">
			<ele>61.4000015258789</ele>
			<time>2014-04-13T09:08:54Z</time>
		</trkpt>
		<trkpt lat="54.2190704345703" lon="13.0648651123047">
			<ele>61.7000007629395</ele>
			<time>2014-04-13T09:08:56Z</time>
		</trkpt>
		<trkpt lat="54.2190208435059" lon="13.0648574829102">
			<ele>61.7000007629395</ele>
			<time>2014-04-13T09:08:56Z</time>
		</trkpt>
		<trkpt lat="54.2189750671387" lon="13.0648412704468">
			<ele>62</ele>
			<time>2014-04-13T09:08:57Z</time>
		</trkpt>
		<trkpt lat="54.218879699707" lon="13.06480884552">
			<ele>62.5999984741211</ele>
			<time>2014-04-13T09:08:59Z</time>
		</trkpt>
		<trkpt lat="54.2188339233398" lon="13.0647850036621">
			<ele>62.7999992370605</ele>
			<time>2014-04-13T09:09:00Z</time>
		</trkpt>
		<trkpt lat="54.2187843322754" lon="13.0647706985474">
			<ele>62.5999984741211</ele>
			<time>2014-04-13T09:09:01Z</time>
		</trkpt>
		<trkpt lat="54.2186889648438" lon="13.064736366272">
			<ele>63.7999992370605</ele>
			<time>2014-04-13T09:09:04Z</time>
		</trkpt>
		<trkpt lat="54.2186431884766" lon="13.0647201538086">
			<ele>63.9000015258789</ele>
			<time>2014-04-13T09:09:04Z</time>
		</trkpt>
		<trkpt lat="54.2185935974121" lon="13.0646991729736">
			<ele>63.7000007629395</ele>
			<time>2014-04-13T09:09:05Z</time>
		</trkpt>
		<trkpt lat="54.2185096740723" lon="13.0646572113037">
			<ele>64.0999984741211</ele>
			<time>2014-04-13T09:09:07Z</time>
		</trkpt>
		<trkpt lat="54.2184638977051" lon="13.0646305084229">
			<ele>63.5</ele>
			<time>2014-04-13T09:09:08Z</time>
		</trkpt>
		<trkpt lat="54.2183799743652" lon="13.0645837783813">
			<ele>64.1999969482422</ele>
			<time>2014-04-13T09:09:10Z</time>
		</trkpt>
		<trkpt lat="54.2182960510254" lon="13.0645513534546">
			<ele>64.1999969482422</ele>
			<time>2014-04-13T09:09:12Z</time>
		</trkpt>
		<trkpt lat="54.2182159423828" lon="13.0644960403442">
			<ele>64.0999984741211</ele>
			<time>2014-04-13T09:09:14Z</time>
		</trkpt>
		<trkpt lat="54.2181396484375" lon="13.0644664764404">
			<ele>64.0999984741211</ele>
			<time>2014-04-13T09:09:16Z</time>
		</trkpt>
		<trkpt lat="54.2180633544922" lon="13.0644311904907">
			<ele>63.4000015258789</ele>
			<time>2014-04-13T09:09:18Z</time>
		</trkpt>
		<trkpt lat="54.2179756164551" lon="13.0643949508667">
			<ele>62.2999992370605</ele>
			<time>2014-04-13T09:09:20Z</time>
		</trkpt>
		<trkpt lat="54.2178916931152" lon="13.0643558502197">
			<ele>62.7000007629395</ele>
			<time>2014-04-13T09:09:22Z</time>
		</trkpt>
		<trkpt lat="54.2178192138672" lon="13.0643157958984">
			<ele>63.4000015258789</ele>
			<time>2014-04-13T09:09:24Z</time>
		</trkpt>
		<trkpt lat="54.2177429199219" lon="13.064284324646">
			<ele>63.2999992370605</ele>
			<time>2014-04-13T09:09:27Z</time>
		</trkpt>
		<trkpt lat="54.2176704406738" lon="13.0642509460449">
			<ele>62.5999984741211</ele>
			<time>2014-04-13T09:09:28Z</time>
		</trkpt>
		<trkpt lat="54.2175979614258" lon="13.0642375946045">
			<ele>63.2000007629395</ele>
			<time>2014-04-13T09:09:30Z</time>
		</trkpt>
		<trkpt lat="54.2175216674805" lon="13.0641994476318">
			<ele>63.2999992370605</ele>
			<time>2014-04-13T09:09:32Z</time>
		</trkpt>
		<trkpt lat="54.2174530029297" lon="13.0641565322876">
			<ele>63.2000007629395</ele>
			<time>2014-04-13T09:09:34Z</time>
		</trkpt>
		<trkpt lat="54.2173881530762" lon="13.0641250610352">
			<ele>65</ele>
			<time>2014-04-13T09:09:36Z</time>
		</trkpt>
		<trkpt lat="54.2173271179199" lon="13.0640859603882">
			<ele>64.6999969482422</ele>
			<time>2014-04-13T09:09:38Z</time>
		</trkpt>
		<trkpt lat="54.2172584533691" lon="13.0640316009521">
			<ele>64.5999984741211</ele>
			<time>2014-04-13T09:09:40Z</time>
		</trkpt>
		<trkpt lat="54.2171897888184" lon="13.0639925003052">
			<ele>64</ele>
			<time>2014-04-13T09:09:42Z</time>
		</trkpt>
		<trkpt lat="54.2171211242676" lon="13.0640096664429">
			<ele>63.7999992370605</ele>
			<time>2014-04-13T09:09:44Z</time>
		</trkpt>
		<trkpt lat="54.2170677185059" lon="13.0640935897827">
			<ele>63.5999984741211</ele>
			<time>2014-04-13T09:09:46Z</time>
		</trkpt>
		<trkpt lat="54.2170639038086" lon="13.0642213821411">
			<ele>63.2000007629395</ele>
			<time>2014-04-13T09:09:48Z</time>
		</trkpt>
		<trkpt lat="54.2170486450195" lon="13.0643453598022">
			<ele>63.7000007629395</ele>
			<time>2014-04-13T09:09:50Z</time>
		</trkpt>
		<trkpt lat="54.2170295715332" lon="13.0644731521606">
			<ele>63.9000015258789</ele>
			<time>2014-04-13T09:09:52Z</time>
		</trkpt>
		<trkpt lat="54.2170181274414" lon="13.0645990371704">
			<ele>64.0999984741211</ele>
			<time>2014-04-13T09:09:54Z</time>
		</trkpt>
		<trkpt lat="54.2169990539551" lon="13.0647211074829">
			<ele>64</ele>
			<time>2014-04-13T09:09:58Z</time>
		</trkpt>
		<trkpt lat="54.2169799804688" lon="13.064847946167">
			<ele>64.5</ele>
			<time>2014-04-13T09:09:59Z</time>
		</trkpt>
		<trkpt lat="54.2169418334961" lon="13.0650415420532">
			<ele>64.3000030517578</ele>
			<time>2014-04-13T09:10:01Z</time>
		</trkpt>
		<trkpt lat="54.2168998718262" lon="13.0651607513428">
			<ele>64</ele>
			<time>2014-04-13T09:10:04Z</time>
		</trkpt>
		<trkpt lat="54.2168388366699" lon="13.0652503967285">
			<ele>64.3000030517578</ele>
			<time>2014-04-13T09:10:05Z</time>
		</trkpt>
		<trkpt lat="54.2167739868164" lon="13.0653209686279">
			<ele>64.5</ele>
			<time>2014-04-13T09:10:08Z</time>
		</trkpt>
		<trkpt lat="54.2167053222656" lon="13.065390586853">
			<ele>64.0999984741211</ele>
			<time>2014-04-13T09:10:10Z</time>
		</trkpt>
		<trkpt lat="54.2166328430176" lon="13.0654544830322">
			<ele>64.1999969482422</ele>
			<time>2014-04-13T09:10:12Z</time>
		</trkpt>
		<trkpt lat="54.2165603637695" lon="13.0655164718628">
			<ele>64.4000015258789</ele>
			<time>2014-04-13T09:10:14Z</time>
		</trkpt>
		<trkpt lat="54.2164878845215" lon="13.0655813217163">
			<ele>64.6999969482422</ele>
			<time>2014-04-13T09:10:16Z</time>
		</trkpt>
		<trkpt lat="54.2164154052734" lon="13.0656480789185">
			<ele>64.5999984741211</ele>
			<time>2014-04-13T09:10:18Z</time>
		</trkpt>
		<trkpt lat="54.2163505554199" lon="13.0657110214233">
			<ele>64.4000015258789</ele>
			<time>2014-04-13T09:10:20Z</time>
		</trkpt>
		<trkpt lat="54.2162857055664" lon="13.0657720565796">
			<ele>64.5999984741211</ele>
			<time>2014-04-13T09:10:22Z</time>
		</trkpt>
		<trkpt lat="54.2162246704102" lon="13.0658550262451">
			<ele>64.3000030517578</ele>
			<time>2014-04-13T09:10:24Z</time>
		</trkpt>
		<trkpt lat="54.2161674499512" lon="13.0659456253052">
			<ele>64</ele>
			<time>2014-04-13T09:10:26Z</time>
		</trkpt>
		<trkpt lat="54.2161140441895" lon="13.0660352706909">
			<ele>64.6999969482422</ele>
			<time>2014-04-13T09:10:28Z</time>
		</trkpt>
		<trkpt lat="54.2160568237305" lon="13.066125869751">
			<ele>64.5</ele>
			<time>2014-04-13T09:10:30Z</time>
		</trkpt>
		<trkpt lat="54.2160034179688" lon="13.0662136077881">
			<ele>64.5999984741211</ele>
			<time>2014-04-13T09:10:32Z</time>
		</trkpt>
		<trkpt lat="54.215950012207" lon="13.066294670105">
			<ele>64.6999969482422</ele>
			<time>2014-04-13T09:10:34Z</time>
		</trkpt>
		<trkpt lat="54.215892791748" lon="13.0663805007935">
			<ele>65</ele>
			<time>2014-04-13T09:10:36Z</time>
		</trkpt>
		<trkpt lat="54.2158355712891" lon="13.0664596557617">
			<ele>65.6999969482422</ele>
			<time>2014-04-13T09:10:38Z</time>
		</trkpt>
		<trkpt lat="54.2157707214355" lon="13.0665140151978">
			<ele>64.8000030517578</ele>
			<time>2014-04-13T09:10:40Z</time>
		</trkpt>
		<trkpt lat="54.2156867980957" lon="13.0665273666382">
			<ele>63.2999992370605</ele>
			<time>2014-04-13T09:10:41Z</time>
		</trkpt>
		<trkpt lat="54.2156143188477" lon="13.0664930343628">
			<ele>64.5</ele>
			<time>2014-04-13T09:10:44Z</time>
		</trkpt>
		<trkpt lat="54.2155380249023" lon="13.0664758682251">
			<ele>64.4000015258789</ele>
			<time>2014-04-13T09:10:46Z</time>
		</trkpt>
		<trkpt lat="54.215461730957" lon="13.0664577484131">
			<ele>64.1999969482422</ele>
			<time>2014-04-13T09:10:48Z</time>
		</trkpt>
		<trkpt lat="54.2153816223145" lon="13.0664377212524">
			<ele>64.5999984741211</ele>
			<time>2014-04-13T09:10:50Z</time>
		</trkpt>
		<trkpt lat="54.2153053283691" lon="13.0664167404175">
			<ele>64.5</ele>
			<time>2014-04-13T09:10:52Z</time>
		</trkpt>
		<trkpt lat="54.2152328491211" lon="13.0663995742798">
			<ele>64.1999969482422</ele>
			<time>2014-04-13T09:10:54Z</time>
		</trkpt>
		<trkpt lat="54.215160369873" lon="13.0663795471191">
			<ele>64.0999984741211</ele>
			<time>2014-04-13T09:10:57Z</time>
		</trkpt>
		<trkpt lat="54.2150840759277" lon="13.0663633346558">
			<ele>62.9000015258789</ele>
			<time>2014-04-13T09:10:58Z</time>
		</trkpt>
		<trkpt lat="54.2150077819824" lon="13.0663356781006">
			<ele>64.1999969482422</ele>
			<time>2014-04-13T09:11:00Z</time>
		</trkpt>
		<trkpt lat="54.2148628234863" lon="13.0662956237793">
			<ele>64.1999969482422</ele>
			<time>2014-04-13T09:11:06Z</time>
		</trkpt>
		<trkpt lat="54.214714050293" lon="13.0662565231323">
			<ele>64</ele>
			<time>2014-04-13T09:11:08Z</time>
		</trkpt>
		<trkpt lat="54.2146415710449" lon="13.066234588623">
			<ele>64</ele>
			<time>2014-04-13T09:11:10Z</time>
		</trkpt>
		<trkpt lat="54.2145652770996" lon="13.0662136077881">
			<ele>64</ele>
			<time>2014-04-13T09:11:11Z</time>
		</trkpt>
		<trkpt lat="54.2144927978516" lon="13.0661916732788">
			<ele>63.9000015258789</ele>
			<time>2014-04-13T09:11:14Z</time>
		</trkpt>
		<trkpt lat="54.2144203186035" lon="13.0661754608154">
			<ele>63.9000015258789</ele>
			<time>2014-04-13T09:11:16Z</time>
		</trkpt>
		<trkpt lat="54.2143478393555" lon="13.0661487579346">
			<ele>64.0999984741211</ele>
			<time>2014-04-13T09:11:18Z</time>
		</trkpt>
		<trkpt lat="54.2142715454102" lon="13.0661296844482">
			<ele>63.9000015258789</ele>
			<time>2014-04-13T09:11:19Z</time>
		</trkpt>
		<trkpt lat="54.2141914367676" lon="13.066107749939">
			<ele>63.9000015258789</ele>
			<time>2014-04-13T09:11:21Z</time>
		</trkpt>
		<trkpt lat="54.2141151428223" lon="13.0660820007324">
			<ele>64.0999984741211</ele>
			<time>2014-04-13T09:11:24Z</time>
		</trkpt>
		<trkpt lat="54.2140350341797" lon="13.0660619735718">
			<ele>63.9000015258789</ele>
			<time>2014-04-13T09:11:25Z</time>
		</trkpt>
		<trkpt lat="54.2139587402344" lon="13.0660390853882">
			<ele>63.7999992370605</ele>
			<time>2014-04-13T09:11:28Z</time>
		</trkpt>
		<trkpt lat="54.2138824462891" lon="13.0660171508789">
			<ele>63.5999984741211</ele>
			<time>2014-04-13T09:11:31Z</time>
		</trkpt>
		<trkpt lat="54.2138023376465" lon="13.0659971237183">
			<ele>63.7999992370605</ele>
			<time>2014-04-13T09:11:31Z</time>
		</trkpt>
		<trkpt lat="54.2137222290039" lon="13.0659694671631">
			<ele>63.7000007629395</ele>
			<time>2014-04-13T09:11:33Z</time>
		</trkpt>
		<trkpt lat="54.2136459350586" lon="13.0659379959106">
			<ele>64.0999984741211</ele>
			<time>2014-04-13T09:11:35Z</time>
		</trkpt>
		<trkpt lat="54.213565826416" lon="13.0659170150757">
			<ele>64.0999984741211</ele>
			<time>2014-04-13T09:11:37Z</time>
		</trkpt>
		<trkpt lat="54.2134895324707" lon="13.0658941268921">
			<ele>64.4000015258789</ele>
			<time>2014-04-13T09:11:39Z</time>
		</trkpt>
		<trkpt lat="54.2134132385254" lon="13.0658731460571">
			<ele>64.3000030517578</ele>
			<time>2014-04-13T09:11:41Z</time>
		</trkpt>
		<trkpt lat="54.2133331298828" lon="13.0658521652222">
			<ele>64.4000015258789</ele>
			<time>2014-04-13T09:11:43Z</time>
		</trkpt>
		<trkpt lat="54.2132530212402" lon="13.0658378601074">
			<ele>64.4000015258789</ele>
			<time>2014-04-13T09:11:45Z</time>
		</trkpt>
		<trkpt lat="54.2131729125977" lon="13.0658464431763">
			<ele>64.1999969482422</ele>
			<time>2014-04-13T09:11:47Z</time>
		</trkpt>
		<trkpt lat="54.2130966186523" lon="13.0658693313599">
			<ele>64.0999984741211</ele>
			<time>2014-04-13T09:11:50Z</time>
		</trkpt>
		<trkpt lat="54.213020324707" lon="13.0659074783325">
			<ele>63.4000015258789</ele>
			<time>2014-04-13T09:11:51Z</time>
		</trkpt>
		<trkpt lat="54.2129745483398" lon="13.0659294128418">
			<ele>64.6999969482422</ele>
			<time>2014-04-13T09:11:52Z</time>
		</trkpt>
		<trkpt lat="54.2128944396973" lon="13.0659713745117">
			<ele>64.5</ele>
			<time>2014-04-13T09:11:54Z</time>
		</trkpt>
		<trkpt lat="54.2128486633301" lon="13.065993309021">
			<ele>64.5</ele>
			<time>2014-04-13T09:11:55Z</time>
		</trkpt>
		<trkpt lat="54.2128067016602" lon="13.0660190582275">
			<ele>64.5</ele>
			<time>2014-04-13T09:11:56Z</time>
		</trkpt>
		<trkpt lat="54.212760925293" lon="13.0660409927368">
			<ele>64.8000030517578</ele>
			<time>2014-04-13T09:11:58Z</time>
		</trkpt>
		<trkpt lat="54.212718963623" lon="13.0660696029663">
			<ele>64.4000015258789</ele>
			<time>2014-04-13T09:11:58Z</time>
		</trkpt>
		<trkpt lat="54.2126693725586" lon="13.066089630127">
			<ele>64.4000015258789</ele>
			<time>2014-04-13T09:12:00Z</time>
		</trkpt>
		<trkpt lat="54.2126274108887" lon="13.0661182403564">
			<ele>64.0999984741211</ele>
			<time>2014-04-13T09:12:00Z</time>
		</trkpt>
		<trkpt lat="54.2125778198242" lon="13.0661458969116">
			<ele>64.1999969482422</ele>
			<time>2014-04-13T09:12:01Z</time>
		</trkpt>
		<trkpt lat="54.212532043457" lon="13.0661668777466">
			<ele>64.1999969482422</ele>
			<time>2014-04-13T09:12:02Z</time>
		</trkpt>
		<trkpt lat="54.2124862670898" lon="13.0661945343018">
			<ele>64</ele>
			<time>2014-04-13T09:12:03Z</time>
		</trkpt>
		<trkpt lat="54.2124366760254" lon="13.0662250518799">
			<ele>63.9000015258789</ele>
			<time>2014-04-13T09:12:04Z</time>
		</trkpt>
		<trkpt lat="54.2123908996582" lon="13.0662517547607">
			<ele>63.7000007629395</ele>
			<time>2014-04-13T09:12:05Z</time>
		</trkpt>
		<trkpt lat="54.212345123291" lon="13.0662775039673">
			<ele>63.7000007629395</ele>
			<time>2014-04-13T09:12:06Z</time>
		</trkpt>
		<trkpt lat="54.2122955322266" lon="13.0663032531738">
			<ele>63.5999984741211</ele>
			<time>2014-04-13T09:12:07Z</time>
		</trkpt>
		<trkpt lat="54.2122421264648" lon="13.0663251876831">
			<ele>63.2999992370605</ele>
			<time>2014-04-13T09:12:08Z</time>
		</trkpt>
		<trkpt lat="54.2121925354004" lon="13.0663509368896">
			<ele>63.2999992370605</ele>
			<time>2014-04-13T09:12:09Z</time>
		</trkpt>
		<trkpt lat="54.2121391296387" lon="13.0663785934448">
			<ele>63.2999992370605</ele>
			<time>2014-04-13T09:12:10Z</time>
		</trkpt>
		<trkpt lat="54.2120895385742" lon="13.0664072036743">
			<ele>63.2999992370605</ele>
			<time>2014-04-13T09:12:11Z</time>
		</trkpt>
		<trkpt lat="54.2120399475098" lon="13.0664348602295">
			<ele>63.2000007629395</ele>
			<time>2014-04-13T09:12:12Z</time>
		</trkpt>
		<trkpt lat="54.2119903564453" lon="13.066463470459">
			<ele>63.4000015258789</ele>
			<time>2014-04-13T09:12:13Z</time>
		</trkpt>
		<trkpt lat="54.2119369506836" lon="13.0664901733398">
			<ele>63.2999992370605</ele>
			<time>2014-04-13T09:12:14Z</time>
		</trkpt>
		<trkpt lat="54.2118873596191" lon="13.0665159225464">
			<ele>63.2999992370605</ele>
			<time>2014-04-13T09:12:15Z</time>
		</trkpt>
		<trkpt lat="54.2118377685547" lon="13.0665454864502">
			<ele>63.2000007629395</ele>
			<time>2014-04-13T09:12:17Z</time>
		</trkpt>
		<trkpt lat="54.2117881774902" lon="13.0665740966797">
			<ele>63.0999984741211</ele>
			<time>2014-04-13T09:12:18Z</time>
		</trkpt>
		<trkpt lat="54.2117347717285" lon="13.0666017532349">
			<ele>63.2000007629395</ele>
			<time>2014-04-13T09:12:18Z</time>
		</trkpt>
		<trkpt lat="54.2116813659668" lon="13.0666275024414">
			<ele>63.2999992370605</ele>
			<time>2014-04-13T09:12:19Z</time>
		</trkpt>
		<trkpt lat="54.2116317749023" lon="13.0666542053223">
			<ele>63.2000007629395</ele>
			<time>2014-04-13T09:12:20Z</time>
		</trkpt>
		<trkpt lat="54.2115821838379" lon="13.0666856765747">
			<ele>63.2000007629395</ele>
			<time>2014-04-13T09:12:21Z</time>
		</trkpt>
		<trkpt lat="54.2115287780762" lon="13.0667133331299">
			<ele>63</ele>
			<time>2014-04-13T09:12:22Z</time>
		</trkpt>
		<trkpt lat="54.2114791870117" lon="13.0667390823364">
			<ele>62.9000015258789</ele>
			<time>2014-04-13T09:12:24Z</time>
		</trkpt>
		<trkpt lat="54.21142578125" lon="13.0667629241943">
			<ele>63</ele>
			<time>2014-04-13T09:12:25Z</time>
		</trkpt>
		<trkpt lat="54.2113761901855" lon="13.0667819976807">
			<ele>62.9000015258789</ele>
			<time>2014-04-13T09:12:25Z</time>
		</trkpt>
		<trkpt lat="54.2113227844238" lon="13.066801071167">
			<ele>62.5</ele>
			<time>2014-04-13T09:12:26Z</time>
		</trkpt>
		<trkpt lat="54.2112693786621" lon="13.0668258666992">
			<ele>62.7000007629395</ele>
			<time>2014-04-13T09:12:27Z</time>
		</trkpt>
		<trkpt lat="54.2112159729004" lon="13.0668487548828">
			<ele>62.7000007629395</ele>
			<time>2014-04-13T09:12:28Z</time>
		</trkpt>
		<trkpt lat="54.2111625671387" lon="13.0668725967407">
			<ele>62.5999984741211</ele>
			<time>2014-04-13T09:12:29Z</time>
		</trkpt>
		<trkpt lat="54.2111053466797" lon="13.0668888092041">
			<ele>62.5999984741211</ele>
			<time>2014-04-13T09:12:30Z</time>
		</trkpt>
		<trkpt lat="54.2110481262207" lon="13.0669021606445">
			<ele>62.7000007629395</ele>
			<time>2014-04-13T09:12:32Z</time>
		</trkpt>
		<trkpt lat="54.2109985351563" lon="13.0669174194336">
			<ele>62.9000015258789</ele>
			<time>2014-04-13T09:12:33Z</time>
		</trkpt>
		<trkpt lat="54.2109413146973" lon="13.0669317245483">
			<ele>63.0999984741211</ele>
			<time>2014-04-13T09:12:34Z</time>
		</trkpt>
		<trkpt lat="54.2108840942383" lon="13.0669374465942">
			<ele>63.0999984741211</ele>
			<time>2014-04-13T09:12:35Z</time>
		</trkpt>
		<trkpt lat="54.2108306884766" lon="13.0669422149658">
			<ele>62.9000015258789</ele>
			<time>2014-04-13T09:12:36Z</time>
		</trkpt>
		<trkpt lat="54.2107734680176" lon="13.0669450759888">
			<ele>62.9000015258789</ele>
			<time>2014-04-13T09:12:37Z</time>
		</trkpt>
		<trkpt lat="54.2107162475586" lon="13.066948890686">
			<ele>63.2000007629395</ele>
			<time>2014-04-13T09:12:38Z</time>
		</trkpt>
		<trkpt lat="54.2106590270996" lon="13.066951751709">
			<ele>63</ele>
			<time>2014-04-13T09:12:39Z</time>
		</trkpt>
		<trkpt lat="54.2106056213379" lon="13.066951751709">
			<ele>63.0999984741211</ele>
			<time>2014-04-13T09:12:40Z</time>
		</trkpt>
		<trkpt lat="54.2105484008789" lon="13.0669507980347">
			<ele>63</ele>
			<time>2014-04-13T09:12:40Z</time>
		</trkpt>
		<trkpt lat="54.2104911804199" lon="13.066951751709">
			<ele>62.7000007629395</ele>
			<time>2014-04-13T09:12:42Z</time>
		</trkpt>
		<trkpt lat="54.2104339599609" lon="13.0669527053833">
			<ele>62.5999984741211</ele>
			<time>2014-04-13T09:12:43Z</time>
		</trkpt>
		<trkpt lat="54.210376739502" lon="13.0669479370117">
			<ele>62.5999984741211</ele>
			<time>2014-04-13T09:12:44Z</time>
		</trkpt>
		<trkpt lat="54.210319519043" lon="13.0669498443604">
			<ele>62.5</ele>
			<time>2014-04-13T09:12:45Z</time>
		</trkpt>
		<trkpt lat="54.210262298584" lon="13.0669507980347">
			<ele>62.5999984741211</ele>
			<time>2014-04-13T09:12:45Z</time>
		</trkpt>
		<trkpt lat="54.210205078125" lon="13.0669527053833">
			<ele>62.7000007629395</ele>
			<time>2014-04-13T09:12:46Z</time>
		</trkpt>
		<trkpt lat="54.210147857666" lon="13.0669546127319">
			<ele>62.7000007629395</ele>
			<time>2014-04-13T09:12:48Z</time>
		</trkpt>
		<trkpt lat="54.2100944519043" lon="13.0669593811035">
			<ele>62.5999984741211</ele>
			<time>2014-04-13T09:12:48Z</time>
		</trkpt>
		<trkpt lat="54.2100372314453" lon="13.0669679641724">
			<ele>62.7999992370605</ele>
			<time>2014-04-13T09:12:49Z</time>
		</trkpt>
		<trkpt lat="54.2099838256836" lon="13.0669727325439">
			<ele>62.7000007629395</ele>
			<time>2014-04-13T09:12:50Z</time>
		</trkpt>
		<trkpt lat="54.2099266052246" lon="13.0669822692871">
			<ele>62.5</ele>
			<time>2014-04-13T09:12:51Z</time>
		</trkpt>
		<trkpt lat="54.2098731994629" lon="13.0669946670532">
			<ele>62.4000015258789</ele>
			<time>2014-04-13T09:12:52Z</time>
		</trkpt>
		<trkpt lat="54.2098159790039" lon="13.0670127868652">
			<ele>62.5</ele>
			<time>2014-04-13T09:12:54Z</time>
		</trkpt>
		<trkpt lat="54.2097625732422" lon="13.0670289993286">
			<ele>62.7999992370605</ele>
			<time>2014-04-13T09:12:54Z</time>
		</trkpt>
		<trkpt lat="54.2097091674805" lon="13.0670404434204">
			<ele>62.4000015258789</ele>
			<time>2014-04-13T09:12:55Z</time>
		</trkpt>
		<trkpt lat="54.2096557617188" lon="13.0670547485352">
			<ele>62.7999992370605</ele>
			<time>2014-04-13T09:12:56Z</time>
		</trkpt>
		<trkpt lat="54.2096061706543" lon="13.0670719146729">
			<ele>62.5</ele>
			<time>2014-04-13T09:12:58Z</time>
		</trkpt>
		<trkpt lat="54.2095527648926" lon="13.0670862197876">
			<ele>62.5</ele>
			<time>2014-04-13T09:12:58Z</time>
		</trkpt>
		<trkpt lat="54.2094993591309" lon="13.0671014785767">
			<ele>62.5</ele>
			<time>2014-04-13T09:12:59Z</time>
		</trkpt>
		<trkpt lat="54.2094459533691" lon="13.0671157836914">
			<ele>62.2999992370605</ele>
			<time>2014-04-13T09:13:00Z</time>
		</trkpt>
		<trkpt lat="54.2093925476074" lon="13.0671243667603">
			<ele>62.4000015258789</ele>
			<time>2014-04-13T09:13:01Z</time>
		</trkpt>
		<trkpt lat="54.2093391418457" lon="13.0671348571777">
			<ele>62.4000015258789</ele>
			<time>2014-04-13T09:13:02Z</time>
		</trkpt>
		<trkpt lat="54.2092895507813" lon="13.0671453475952">
			<ele>62.4000015258789</ele>
			<time>2014-04-13T09:13:03Z</time>
		</trkpt>
		<trkpt lat="54.2092361450195" lon="13.0671586990356">
			<ele>62.4000015258789</ele>
			<time>2014-04-13T09:13:04Z</time>
		</trkpt>
		<trkpt lat="54.2091827392578" lon="13.0671691894531">
			<ele>62.5</ele>
			<time>2014-04-13T09:13:05Z</time>
		</trkpt>
		<trkpt lat="54.2091255187988" lon="13.0671863555908">
			<ele>62.4000015258789</ele>
			<time>2014-04-13T09:13:06Z</time>
		</trkpt>
		<trkpt lat="54.2090721130371" lon="13.0672035217285">
			<ele>62.4000015258789</ele>
			<time>2014-04-13T09:13:07Z</time>
		</trkpt>
		<trkpt lat="54.2090148925781" lon="13.0672216415405">
			<ele>62.5999984741211</ele>
			<time>2014-04-13T09:13:08Z</time>
		</trkpt>
		<trkpt lat="54.2089576721191" lon="13.0672340393066">
			<ele>62.5</ele>
			<time>2014-04-13T09:13:09Z</time>
		</trkpt>
		<trkpt lat="54.2089042663574" lon="13.0672483444214">
			<ele>62.4000015258789</ele>
			<time>2014-04-13T09:13:10Z</time>
		</trkpt>
		<trkpt lat="54.2088470458984" lon="13.0672636032104">
			<ele>62.2000007629395</ele>
			<time>2014-04-13T09:13:11Z</time>
		</trkpt>
		<trkpt lat="54.2087936401367" lon="13.0672807693481">
			<ele>62.2999992370605</ele>
			<time>2014-04-13T09:13:12Z</time>
		</trkpt>
		<trkpt lat="54.2087364196777" lon="13.0672960281372">
			<ele>62.2999992370605</ele>
			<time>2014-04-13T09:13:13Z</time>
		</trkpt>
		<trkpt lat="54.2086791992188" lon="13.067310333252">
			<ele>62.2999992370605</ele>
			<time>2014-04-13T09:13:14Z</time>
		</trkpt>
		<trkpt lat="54.2086219787598" lon="13.0673294067383">
			<ele>62.4000015258789</ele>
			<time>2014-04-13T09:13:15Z</time>
		</trkpt>
		<trkpt lat="54.208568572998" lon="13.067346572876">
			<ele>62.4000015258789</ele>
			<time>2014-04-13T09:13:16Z</time>
		</trkpt>
		<trkpt lat="54.2085151672363" lon="13.0673627853394">
			<ele>62.5999984741211</ele>
			<time>2014-04-13T09:13:17Z</time>
		</trkpt>
		<trkpt lat="54.2084617614746" lon="13.0673837661743">
			<ele>62.5</ele>
			<time>2014-04-13T09:13:18Z</time>
		</trkpt>
		<trkpt lat="54.2084083557129" lon="13.067403793335">
			<ele>62.4000015258789</ele>
			<time>2014-04-13T09:13:19Z</time>
		</trkpt>
		<trkpt lat="54.2083587646484" lon="13.067421913147">
			<ele>62.5</ele>
			<time>2014-04-13T09:13:20Z</time>
		</trkpt>
		<trkpt lat="54.208309173584" lon="13.0674438476563">
			<ele>62.5</ele>
			<time>2014-04-13T09:13:21Z</time>
		</trkpt>
		<trkpt lat="54.2082595825195" lon="13.067458152771">
			<ele>62.7999992370605</ele>
			<time>2014-04-13T09:13:22Z</time>
		</trkpt>
		<trkpt lat="54.2082099914551" lon="13.0674705505371">
			<ele>62.7000007629395</ele>
			<time>2014-04-13T09:13:23Z</time>
		</trkpt>
		<trkpt lat="54.2081604003906" lon="13.0674896240234">
			<ele>62.5999984741211</ele>
			<time>2014-04-13T09:13:24Z</time>
		</trkpt>
		<trkpt lat="54.2081108093262" lon="13.0675096511841">
			<ele>62.5</ele>
			<time>2014-04-13T09:13:25Z</time>
		</trkpt>
		<trkpt lat="54.2080574035645" lon="13.0675325393677">
			<ele>62.2999992370605</ele>
			<time>2014-04-13T09:13:26Z</time>
		</trkpt>
		<trkpt lat="54.2080039978027" lon="13.067551612854">
			<ele>62.0999984741211</ele>
			<time>2014-04-13T09:13:28Z</time>
		</trkpt>
		<trkpt lat="54.2079582214355" lon="13.0675716400146">
			<ele>61.7999992370605</ele>
			<time>2014-04-13T09:13:28Z</time>
		</trkpt>
		<trkpt lat="54.2079048156738" lon="13.0675888061523">
			<ele>62.0999984741211</ele>
			<time>2014-04-13T09:13:29Z</time>
		</trkpt>
		<trkpt lat="54.2078590393066" lon="13.067608833313">
			<ele>61.7999992370605</ele>
			<time>2014-04-13T09:13:30Z</time>
		</trkpt>
		<trkpt lat="54.2078056335449" lon="13.0676326751709">
			<ele>62.2000007629395</ele>
			<time>2014-04-13T09:13:31Z</time>
		</trkpt>
		<trkpt lat="54.2077560424805" lon="13.0676546096802">
			<ele>61.9000015258789</ele>
			<time>2014-04-13T09:13:33Z</time>
		</trkpt>
		<trkpt lat="54.207706451416" lon="13.0676765441895">
			<ele>62.0999984741211</ele>
			<time>2014-04-13T09:13:33Z</time>
		</trkpt>
		<trkpt lat="54.2076568603516" lon="13.0677003860474">
			<ele>62</ele>
			<time>2014-04-13T09:13:34Z</time>
		</trkpt>
		<trkpt lat="54.2076072692871" lon="13.0677242279053">
			<ele>61.9000015258789</ele>
			<time>2014-04-13T09:13:35Z</time>
		</trkpt>
		<trkpt lat="54.2075576782227" lon="13.0677499771118">
			<ele>61.7000007629395</ele>
			<time>2014-04-13T09:13:36Z</time>
		</trkpt>
		<trkpt lat="54.2075080871582" lon="13.0677633285522">
			<ele>61.7999992370605</ele>
			<time>2014-04-13T09:13:37Z</time>
		</trkpt>
		<trkpt lat="54.207462310791" lon="13.067774772644">
			<ele>61.7999992370605</ele>
			<time>2014-04-13T09:13:38Z</time>
		</trkpt>
		<trkpt lat="54.207405090332" lon="13.0678033828735">
			<ele>61.5999984741211</ele>
			<time>2014-04-13T09:13:39Z</time>
		</trkpt>
		<trkpt lat="54.2073554992676" lon="13.0678224563599">
			<ele>61.7999992370605</ele>
			<time>2014-04-13T09:13:40Z</time>
		</trkpt>
		<trkpt lat="54.2073020935059" lon="13.0678434371948">
			<ele>61.7000007629395</ele>
			<time>2014-04-13T09:13:41Z</time>
		</trkpt>
		<trkpt lat="54.2072525024414" lon="13.0678615570068">
			<ele>61.5999984741211</ele>
			<time>2014-04-13T09:13:42Z</time>
		</trkpt>
		<trkpt lat="54.207202911377" lon="13.0678796768188">
			<ele>61.2999992370605</ele>
			<time>2014-04-13T09:13:43Z</time>
		</trkpt>
		<trkpt lat="54.2071495056152" lon="13.0679016113281">
			<ele>61</ele>
			<time>2014-04-13T09:13:44Z</time>
		</trkpt>
		<trkpt lat="54.2070960998535" lon="13.0679197311401">
			<ele>61.2999992370605</ele>
			<time>2014-04-13T09:13:45Z</time>
		</trkpt>
		<trkpt lat="54.2070465087891" lon="13.0679407119751">
			<ele>61.2000007629395</ele>
			<time>2014-04-13T09:13:46Z</time>
		</trkpt>
		<trkpt lat="54.2069931030273" lon="13.0679607391357">
			<ele>61.2999992370605</ele>
			<time>2014-04-13T09:13:47Z</time>
		</trkpt>
		<trkpt lat="54.2069435119629" lon="13.0679807662964">
			<ele>61.2999992370605</ele>
			<time>2014-04-13T09:13:48Z</time>
		</trkpt>
		<trkpt lat="54.2068939208984" lon="13.0679979324341">
			<ele>61.2000007629395</ele>
			<time>2014-04-13T09:13:49Z</time>
		</trkpt>
		<trkpt lat="54.206844329834" lon="13.0680170059204">
			<ele>61</ele>
			<time>2014-04-13T09:13:50Z</time>
		</trkpt>
		<trkpt lat="54.2067985534668" lon="13.0680360794067">
			<ele>61.0999984741211</ele>
			<time>2014-04-13T09:13:51Z</time>
		</trkpt>
		<trkpt lat="54.2067489624023" lon="13.0680561065674">
			<ele>61</ele>
			<time>2014-04-13T09:13:52Z</time>
		</trkpt>
		<trkpt lat="54.2066993713379" lon="13.0680751800537">
			<ele>60.7000007629395</ele>
			<time>2014-04-13T09:13:53Z</time>
		</trkpt>
		<trkpt lat="54.2066497802734" lon="13.0680932998657">
			<ele>60.5999984741211</ele>
			<time>2014-04-13T09:13:54Z</time>
		</trkpt>
		<trkpt lat="54.2066040039063" lon="13.0681095123291">
			<ele>60.5</ele>
			<time>2014-04-13T09:13:55Z</time>
		</trkpt>
		<trkpt lat="54.2065544128418" lon="13.0681285858154">
			<ele>60.0999984741211</ele>
			<time>2014-04-13T09:13:56Z</time>
		</trkpt>
		<trkpt lat="54.2065086364746" lon="13.0681457519531">
			<ele>60.2999992370605</ele>
			<time>2014-04-13T09:13:57Z</time>
		</trkpt>
		<trkpt lat="54.206413269043" lon="13.0681819915771">
			<ele>60.0999984741211</ele>
			<time>2014-04-13T09:13:59Z</time>
		</trkpt>
		<trkpt lat="54.2063293457031" lon="13.068208694458">
			<ele>60.2999992370605</ele>
			<time>2014-04-13T09:14:01Z</time>
		</trkpt>
		<trkpt lat="54.2062835693359" lon="13.0682210922241">
			<ele>60</ele>
			<time>2014-04-13T09:14:02Z</time>
		</trkpt>
		<trkpt lat="54.2062034606934" lon="13.0682506561279">
			<ele>60.2000007629395</ele>
			<time>2014-04-13T09:14:04Z</time>
		</trkpt>
		<trkpt lat="54.2061233520508" lon="13.0682897567749">
			<ele>60.9000015258789</ele>
			<time>2014-04-13T09:14:06Z</time>
		</trkpt>
		<trkpt lat="54.2060432434082" lon="13.0683212280273">
			<ele>61.2999992370605</ele>
			<time>2014-04-13T09:14:09Z</time>
		</trkpt>
		<trkpt lat="54.2059593200684" lon="13.0683622360229">
			<ele>61.2000007629395</ele>
			<time>2014-04-13T09:14:10Z</time>
		</trkpt>
		<trkpt lat="54.2058753967285" lon="13.0683946609497">
			<ele>61.2999992370605</ele>
			<time>2014-04-13T09:14:12Z</time>
		</trkpt>
		<trkpt lat="54.2058296203613" lon="13.0684118270874">
			<ele>61.4000015258789</ele>
			<time>2014-04-13T09:14:14Z</time>
		</trkpt>
		<trkpt lat="54.2057456970215" lon="13.0684509277344">
			<ele>61.7999992370605</ele>
			<time>2014-04-13T09:14:16Z</time>
		</trkpt>
		<trkpt lat="54.2056579589844" lon="13.0684928894043">
			<ele>61.9000015258789</ele>
			<time>2014-04-13T09:14:18Z</time>
		</trkpt>
		<trkpt lat="54.2056159973145" lon="13.0685110092163">
			<ele>61.7000007629395</ele>
			<time>2014-04-13T09:14:18Z</time>
		</trkpt>
		<trkpt lat="54.2055702209473" lon="13.0685300827026">
			<ele>61.7000007629395</ele>
			<time>2014-04-13T09:14:19Z</time>
		</trkpt>
		<trkpt lat="54.2054824829102" lon="13.0685691833496">
			<ele>61.5</ele>
			<time>2014-04-13T09:14:22Z</time>
		</trkpt>
		<trkpt lat="54.205436706543" lon="13.0685920715332">
			<ele>61.2000007629395</ele>
			<time>2014-04-13T09:14:22Z</time>
		</trkpt>
		<trkpt lat="54.205394744873" lon="13.0686073303223">
			<ele>61.2000007629395</ele>
			<time>2014-04-13T09:14:23Z</time>
		</trkpt>
		<trkpt lat="54.2053489685059" lon="13.0686349868774">
			<ele>61</ele>
			<time>2014-04-13T09:14:25Z</time>
		</trkpt>
		<trkpt lat="54.2053031921387" lon="13.0686540603638">
			<ele>61.0999984741211</ele>
			<time>2014-04-13T09:14:25Z</time>
		</trkpt>
		<trkpt lat="54.2052192687988" lon="13.0687026977539">
			<ele>61.0999984741211</ele>
			<time>2014-04-13T09:14:27Z</time>
		</trkpt>
		<trkpt lat="54.2051734924316" lon="13.0687208175659">
			<ele>61.2000007629395</ele>
			<time>2014-04-13T09:14:28Z</time>
		</trkpt>
		<trkpt lat="54.2051277160645" lon="13.0687427520752">
			<ele>61.2000007629395</ele>
			<time>2014-04-13T09:14:30Z</time>
		</trkpt>
		<trkpt lat="54.2050819396973" lon="13.0687637329102">
			<ele>61.0999984741211</ele>
			<time>2014-04-13T09:14:30Z</time>
		</trkpt>
		<trkpt lat="54.2050323486328" lon="13.0687808990479">
			<ele>61</ele>
			<time>2014-04-13T09:14:31Z</time>
		</trkpt>
		<trkpt lat="54.2049865722656" lon="13.0687990188599">
			<ele>60.9000015258789</ele>
			<time>2014-04-13T09:14:33Z</time>
		</trkpt>
		<trkpt lat="54.2049407958984" lon="13.0688238143921">
			<ele>60.5</ele>
			<time>2014-04-13T09:14:33Z</time>
		</trkpt>
		<trkpt lat="54.2048950195313" lon="13.0688486099243">
			<ele>60.2999992370605</ele>
			<time>2014-04-13T09:14:34Z</time>
		</trkpt>
		<trkpt lat="54.2048530578613" lon="13.0688667297363">
			<ele>60.0999984741211</ele>
			<time>2014-04-13T09:14:35Z</time>
		</trkpt>
		<trkpt lat="54.2048034667969" lon="13.0688886642456">
			<ele>60.5</ele>
			<time>2014-04-13T09:14:36Z</time>
		</trkpt>
		<trkpt lat="54.2047538757324" lon="13.0689134597778">
			<ele>60.5</ele>
			<time>2014-04-13T09:14:37Z</time>
		</trkpt>
		<trkpt lat="54.204704284668" lon="13.0689420700073">
			<ele>60.4000015258789</ele>
			<time>2014-04-13T09:14:38Z</time>
		</trkpt>
		<trkpt lat="54.2046546936035" lon="13.0689573287964">
			<ele>60.2999992370605</ele>
			<time>2014-04-13T09:14:39Z</time>
		</trkpt>
		<trkpt lat="54.2046089172363" lon="13.0689878463745">
			<ele>60.2000007629395</ele>
			<time>2014-04-13T09:14:40Z</time>
		</trkpt>
		<trkpt lat="54.2045631408691" lon="13.0690078735352">
			<ele>60.2999992370605</ele>
			<time>2014-04-13T09:14:41Z</time>
		</trkpt>
		<trkpt lat="54.2045059204102" lon="13.0690402984619">
			<ele>60.4000015258789</ele>
			<time>2014-04-13T09:14:42Z</time>
		</trkpt>
		<trkpt lat="54.2044563293457" lon="13.0690574645996">
			<ele>60.0999984741211</ele>
			<time>2014-04-13T09:14:43Z</time>
		</trkpt>
		<trkpt lat="54.2044067382813" lon="13.0690765380859">
			<ele>60</ele>
			<time>2014-04-13T09:14:44Z</time>
		</trkpt>
		<trkpt lat="54.2043647766113" lon="13.0691013336182">
			<ele>59.7999992370605</ele>
			<time>2014-04-13T09:14:46Z</time>
		</trkpt>
		<trkpt lat="54.2043151855469" lon="13.0691242218018">
			<ele>60.2999992370605</ele>
			<time>2014-04-13T09:14:46Z</time>
		</trkpt>
		<trkpt lat="54.2042694091797" lon="13.0691480636597">
			<ele>60.2999992370605</ele>
			<time>2014-04-13T09:14:48Z</time>
		</trkpt>
		<trkpt lat="54.2042198181152" lon="13.069167137146">
			<ele>60.4000015258789</ele>
			<time>2014-04-13T09:14:49Z</time>
		</trkpt>
		<trkpt lat="54.2041702270508" lon="13.0691928863525">
			<ele>60.2999992370605</ele>
			<time>2014-04-13T09:14:49Z</time>
		</trkpt>
		<trkpt lat="54.2041168212891" lon="13.0692167282104">
			<ele>60.2999992370605</ele>
			<time>2014-04-13T09:14:50Z</time>
		</trkpt>
		<trkpt lat="54.2040672302246" lon="13.0692405700684">
			<ele>60.7000007629395</ele>
			<time>2014-04-13T09:14:51Z</time>
		</trkpt>
		<trkpt lat="54.2040176391602" lon="13.0692663192749">
			<ele>60.7000007629395</ele>
			<time>2014-04-13T09:14:52Z</time>
		</trkpt>
		<trkpt lat="54.2039680480957" lon="13.0692939758301">
			<ele>60.4000015258789</ele>
			<time>2014-04-13T09:14:53Z</time>
		</trkpt>
		<trkpt lat="54.2039222717285" lon="13.069314956665">
			<ele>60.2999992370605</ele>
			<time>2014-04-13T09:14:54Z</time>
		</trkpt>
		<trkpt lat="54.2038764953613" lon="13.0693359375">
			<ele>60.2999992370605</ele>
			<time>2014-04-13T09:14:55Z</time>
		</trkpt>
		<trkpt lat="54.2038307189941" lon="13.0693588256836">
			<ele>60.4000015258789</ele>
			<time>2014-04-13T09:14:56Z</time>
		</trkpt>
		<trkpt lat="54.203784942627" lon="13.0693788528442">
			<ele>60.7999992370605</ele>
			<time>2014-04-13T09:14:58Z</time>
		</trkpt>
		<trkpt lat="54.2037010192871" lon="13.0694227218628">
			<ele>60.5999984741211</ele>
			<time>2014-04-13T09:14:59Z</time>
		</trkpt>
		<trkpt lat="54.2036209106445" lon="13.0694551467896">
			<ele>60.9000015258789</ele>
			<time>2014-04-13T09:15:01Z</time>
		</trkpt>
		<trkpt lat="54.2035369873047" lon="13.0695018768311">
			<ele>60.2999992370605</ele>
			<time>2014-04-13T09:15:03Z</time>
		</trkpt>
		<trkpt lat="54.2034492492676" lon="13.0695428848267">
			<ele>59.7000007629395</ele>
			<time>2014-04-13T09:15:05Z</time>
		</trkpt>
		<trkpt lat="54.2034034729004" lon="13.0695552825928">
			<ele>59.7000007629395</ele>
			<time>2014-04-13T09:15:06Z</time>
		</trkpt>
		<trkpt lat="54.2033615112305" lon="13.0695819854736">
			<ele>59.7000007629395</ele>
			<time>2014-04-13T09:15:07Z</time>
		</trkpt>
		<trkpt lat="54.2033081054688" lon="13.0696144104004">
			<ele>59.5</ele>
			<time>2014-04-13T09:15:08Z</time>
		</trkpt>
		<trkpt lat="54.2032623291016" lon="13.0696392059326">
			<ele>59.4000015258789</ele>
			<time>2014-04-13T09:15:09Z</time>
		</trkpt>
		<trkpt lat="54.2032089233398" lon="13.0696668624878">
			<ele>59</ele>
			<time>2014-04-13T09:15:10Z</time>
		</trkpt>
		<trkpt lat="54.2031517028809" lon="13.0697021484375">
			<ele>59.0999984741211</ele>
			<time>2014-04-13T09:15:12Z</time>
		</trkpt>
		<trkpt lat="54.2030944824219" lon="13.0697336196899">
			<ele>58.5999984741211</ele>
			<time>2014-04-13T09:15:13Z</time>
		</trkpt>
		<trkpt lat="54.2030410766602" lon="13.0697612762451">
			<ele>58.5999984741211</ele>
			<time>2014-04-13T09:15:13Z</time>
		</trkpt>
		<trkpt lat="54.2029800415039" lon="13.0697870254517">
			<ele>58.9000015258789</ele>
			<time>2014-04-13T09:15:14Z</time>
		</trkpt>
		<trkpt lat="54.2029228210449" lon="13.0698184967041">
			<ele>58.7999992370605</ele>
			<time>2014-04-13T09:15:16Z</time>
		</trkpt>
		<trkpt lat="54.2028656005859" lon="13.0698442459106">
			<ele>59</ele>
			<time>2014-04-13T09:15:16Z</time>
		</trkpt>
		<trkpt lat="54.202808380127" lon="13.0698699951172">
			<ele>59</ele>
			<time>2014-04-13T09:15:18Z</time>
		</trkpt>
		<trkpt lat="54.202751159668" lon="13.0698900222778">
			<ele>59.2999992370605</ele>
			<time>2014-04-13T09:15:18Z</time>
		</trkpt>
		<trkpt lat="54.2026977539063" lon="13.0699071884155">
			<ele>59.0999984741211</ele>
			<time>2014-04-13T09:15:19Z</time>
		</trkpt>
		<trkpt lat="54.2026481628418" lon="13.0699281692505">
			<ele>59.2999992370605</ele>
			<time>2014-04-13T09:15:20Z</time>
		</trkpt>
		<trkpt lat="54.2025947570801" lon="13.06995677948">
			<ele>59</ele>
			<time>2014-04-13T09:15:21Z</time>
		</trkpt>
		<trkpt lat="54.2025413513184" lon="13.0699729919434">
			<ele>59.4000015258789</ele>
			<time>2014-04-13T09:15:22Z</time>
		</trkpt>
		<trkpt lat="54.2024841308594" lon="13.0699949264526">
			<ele>59.5</ele>
			<time>2014-04-13T09:15:23Z</time>
		</trkpt>
		<trkpt lat="54.2024269104004" lon="13.0700149536133">
			<ele>59.7999992370605</ele>
			<time>2014-04-13T09:15:24Z</time>
		</trkpt>
		<trkpt lat="54.2023696899414" lon="13.0700349807739">
			<ele>60.0999984741211</ele>
			<time>2014-04-13T09:15:25Z</time>
		</trkpt>
		<trkpt lat="54.2023086547852" lon="13.0700674057007">
			<ele>59.9000015258789</ele>
			<time>2014-04-13T09:15:26Z</time>
		</trkpt>
		<trkpt lat="54.2022552490234" lon="13.0700912475586">
			<ele>60.2000007629395</ele>
			<time>2014-04-13T09:15:27Z</time>
		</trkpt>
		<trkpt lat="54.2021980285645" lon="13.070125579834">
			<ele>60.2000007629395</ele>
			<time>2014-04-13T09:15:28Z</time>
		</trkpt>
		<trkpt lat="54.2021408081055" lon="13.0701599121094">
			<ele>60.5</ele>
			<time>2014-04-13T09:15:29Z</time>
		</trkpt>
		<trkpt lat="54.202091217041" lon="13.0701789855957">
			<ele>61.7000007629395</ele>
			<time>2014-04-13T09:15:30Z</time>
		</trkpt>
		<trkpt lat="54.202033996582" lon="13.0701961517334">
			<ele>62.4000015258789</ele>
			<time>2014-04-13T09:15:31Z</time>
		</trkpt>
		<trkpt lat="54.2019805908203" lon="13.0702238082886">
			<ele>63.2000007629395</ele>
			<time>2014-04-13T09:15:32Z</time>
		</trkpt>
		<trkpt lat="54.2019195556641" lon="13.0702562332153">
			<ele>63</ele>
			<time>2014-04-13T09:15:33Z</time>
		</trkpt>
		<trkpt lat="54.2018699645996" lon="13.0702810287476">
			<ele>62.7999992370605</ele>
			<time>2014-04-13T09:15:34Z</time>
		</trkpt>
		<trkpt lat="54.2018203735352" lon="13.070294380188">
			<ele>63</ele>
			<time>2014-04-13T09:15:35Z</time>
		</trkpt>
		<trkpt lat="54.2017669677734" lon="13.0703172683716">
			<ele>63</ele>
			<time>2014-04-13T09:15:36Z</time>
		</trkpt>
		<trkpt lat="54.2017135620117" lon="13.070333480835">
			<ele>62.7999992370605</ele>
			<time>2014-04-13T09:15:37Z</time>
		</trkpt>
		<trkpt lat="54.2016525268555" lon="13.070366859436">
			<ele>62.4000015258789</ele>
			<time>2014-04-13T09:15:38Z</time>
		</trkpt>
		<trkpt lat="54.2015953063965" lon="13.0703983306885">
			<ele>62.2000007629395</ele>
			<time>2014-04-13T09:15:39Z</time>
		</trkpt>
		<trkpt lat="54.201545715332" lon="13.0704183578491">
			<ele>62.5</ele>
			<time>2014-04-13T09:15:40Z</time>
		</trkpt>
		<trkpt lat="54.201488494873" lon="13.0704431533813">
			<ele>62.7000007629395</ele>
			<time>2014-04-13T09:15:41Z</time>
		</trkpt>
		<trkpt lat="54.2014274597168" lon="13.0704879760742">
			<ele>62.5</ele>
			<time>2014-04-13T09:15:42Z</time>
		</trkpt>
		<trkpt lat="54.2013702392578" lon="13.0705194473267">
			<ele>62.2999992370605</ele>
			<time>2014-04-13T09:15:43Z</time>
		</trkpt>
		<trkpt lat="54.2013168334961" lon="13.0705585479736">
			<ele>61.7000007629395</ele>
			<time>2014-04-13T09:15:44Z</time>
		</trkpt>
		<trkpt lat="54.2012634277344" lon="13.0705842971802">
			<ele>61.9000015258789</ele>
			<time>2014-04-13T09:15:45Z</time>
		</trkpt>
		<trkpt lat="54.2012062072754" lon="13.0706148147583">
			<ele>61.4000015258789</ele>
			<time>2014-04-13T09:15:46Z</time>
		</trkpt>
		<trkpt lat="54.2011604309082" lon="13.0706443786621">
			<ele>61.4000015258789</ele>
			<time>2014-04-13T09:15:47Z</time>
		</trkpt>
		<trkpt lat="54.2011032104492" lon="13.070671081543">
			<ele>61.0999984741211</ele>
			<time>2014-04-13T09:15:48Z</time>
		</trkpt>
		<trkpt lat="54.2010536193848" lon="13.0706872940063">
			<ele>61</ele>
			<time>2014-04-13T09:15:49Z</time>
		</trkpt>
		<trkpt lat="54.2010078430176" lon="13.0707025527954">
			<ele>60.7999992370605</ele>
			<time>2014-04-13T09:15:50Z</time>
		</trkpt>
		<trkpt lat="54.2009658813477" lon="13.0707130432129">
			<ele>61.2999992370605</ele>
			<time>2014-04-13T09:15:51Z</time>
		</trkpt>
		<trkpt lat="54.2009086608887" lon="13.0707359313965">
			<ele>60.7999992370605</ele>
			<time>2014-04-13T09:15:52Z</time>
		</trkpt>
		<trkpt lat="54.2008628845215" lon="13.0707502365112">
			<ele>61.5</ele>
			<time>2014-04-13T09:15:53Z</time>
		</trkpt>
		<trkpt lat="54.200813293457" lon="13.0707569122314">
			<ele>61.2999992370605</ele>
			<time>2014-04-13T09:15:54Z</time>
		</trkpt>
		<trkpt lat="54.200756072998" lon="13.0707674026489">
			<ele>61.0999984741211</ele>
			<time>2014-04-13T09:15:55Z</time>
		</trkpt>
		<trkpt lat="54.2006988525391" lon="13.0707664489746">
			<ele>61.2000007629395</ele>
			<time>2014-04-13T09:15:56Z</time>
		</trkpt>
		<trkpt lat="54.2006454467773" lon="13.0707578659058">
			<ele>61.4000015258789</ele>
			<time>2014-04-13T09:15:58Z</time>
		</trkpt>
		<trkpt lat="54.2005882263184" lon="13.0707540512085">
			<ele>61.7000007629395</ele>
			<time>2014-04-13T09:15:58Z</time>
		</trkpt>
		<trkpt lat="54.2005424499512" lon="13.0707502365112">
			<ele>61.9000015258789</ele>
			<time>2014-04-13T09:15:59Z</time>
		</trkpt>
		<trkpt lat="54.200496673584" lon="13.0707292556763">
			<ele>61.7999992370605</ele>
			<time>2014-04-13T09:16:00Z</time>
		</trkpt>
		<trkpt lat="54.2004470825195" lon="13.070725440979">
			<ele>60.9000015258789</ele>
			<time>2014-04-13T09:16:01Z</time>
		</trkpt>
		<trkpt lat="54.2003974914551" lon="13.0707263946533">
			<ele>61.0999984741211</ele>
			<time>2014-04-13T09:16:02Z</time>
		</trkpt>
		<trkpt lat="54.2003402709961" lon="13.0707187652588">
			<ele>60.9000015258789</ele>
			<time>2014-04-13T09:16:03Z</time>
		</trkpt>
		<trkpt lat="54.2002868652344" lon="13.0707015991211">
			<ele>60.9000015258789</ele>
			<time>2014-04-13T09:16:04Z</time>
		</trkpt>
		<trkpt lat="54.2002334594727" lon="13.0706872940063">
			<ele>60.9000015258789</ele>
			<time>2014-04-13T09:16:05Z</time>
		</trkpt>
		<trkpt lat="54.2001838684082" lon="13.0706672668457">
			<ele>61.2999992370605</ele>
			<time>2014-04-13T09:16:06Z</time>
		</trkpt>
		<trkpt lat="54.2001304626465" lon="13.0706491470337">
			<ele>61.2999992370605</ele>
			<time>2014-04-13T09:16:07Z</time>
		</trkpt>
		<trkpt lat="54.2000770568848" lon="13.0706262588501">
			<ele>61.2000007629395</ele>
			<time>2014-04-13T09:16:08Z</time>
		</trkpt>
		<trkpt lat="54.2000274658203" lon="13.0706014633179">
			<ele>61.2999992370605</ele>
			<time>2014-04-13T09:16:09Z</time>
		</trkpt>
		<trkpt lat="54.1999740600586" lon="13.0705966949463">
			<ele>61.7999992370605</ele>
			<time>2014-04-13T09:16:10Z</time>
		</trkpt>
		<trkpt lat="54.1999244689941" lon="13.0705709457397">
			<ele>61.9000015258789</ele>
			<time>2014-04-13T09:16:11Z</time>
		</trkpt>
		<trkpt lat="54.1998748779297" lon="13.0705633163452">
			<ele>61.7999992370605</ele>
			<time>2014-04-13T09:16:12Z</time>
		</trkpt>
		<trkpt lat="54.199821472168" lon="13.0705451965332">
			<ele>61.7000007629395</ele>
			<time>2014-04-13T09:16:13Z</time>
		</trkpt>
		<trkpt lat="54.199779510498" lon="13.0705165863037">
			<ele>61.5</ele>
			<time>2014-04-13T09:16:14Z</time>
		</trkpt>
		<trkpt lat="54.1997261047363" lon="13.0704936981201">
			<ele>61.9000015258789</ele>
			<time>2014-04-13T09:16:15Z</time>
		</trkpt>
		<trkpt lat="54.1996803283691" lon="13.0704727172852">
			<ele>61.5</ele>
			<time>2014-04-13T09:16:16Z</time>
		</trkpt>
		<trkpt lat="54.1996307373047" lon="13.0704517364502">
			<ele>61.5999984741211</ele>
			<time>2014-04-13T09:16:17Z</time>
		</trkpt>
		<trkpt lat="54.199577331543" lon="13.0704317092896">
			<ele>61.4000015258789</ele>
			<time>2014-04-13T09:16:18Z</time>
		</trkpt>
		<trkpt lat="54.1995239257813" lon="13.0704135894775">
			<ele>61.2999992370605</ele>
			<time>2014-04-13T09:16:20Z</time>
		</trkpt>
		<trkpt lat="54.1994781494141" lon="13.0703897476196">
			<ele>61.4000015258789</ele>
			<time>2014-04-13T09:16:20Z</time>
		</trkpt>
		<trkpt lat="54.1994285583496" lon="13.0703744888306">
			<ele>61.2000007629395</ele>
			<time>2014-04-13T09:16:21Z</time>
		</trkpt>
		<trkpt lat="54.1993789672852" lon="13.0703582763672">
			<ele>61</ele>
			<time>2014-04-13T09:16:22Z</time>
		</trkpt>
		<trkpt lat="54.1993293762207" lon="13.0703353881836">
			<ele>60.7999992370605</ele>
			<time>2014-04-13T09:16:24Z</time>
		</trkpt>
		<trkpt lat="54.199275970459" lon="13.0703191757202">
			<ele>61</ele>
			<time>2014-04-13T09:16:24Z</time>
		</trkpt>
		<trkpt lat="54.1992263793945" lon="13.0702981948853">
			<ele>61.2999992370605</ele>
			<time>2014-04-13T09:16:25Z</time>
		</trkpt>
		<trkpt lat="54.1991767883301" lon="13.0702686309814">
			<ele>61.2999992370605</ele>
			<time>2014-04-13T09:16:26Z</time>
		</trkpt>
		<trkpt lat="54.1991233825684" lon="13.0702476501465">
			<ele>61.2000007629395</ele>
			<time>2014-04-13T09:16:27Z</time>
		</trkpt>
		<trkpt lat="54.1990737915039" lon="13.0702247619629">
			<ele>61</ele>
			<time>2014-04-13T09:16:28Z</time>
		</trkpt>
		<trkpt lat="54.1990242004395" lon="13.0702056884766">
			<ele>60.9000015258789</ele>
			<time>2014-04-13T09:16:29Z</time>
		</trkpt>
		<trkpt lat="54.1989707946777" lon="13.0701875686646">
			<ele>60.9000015258789</ele>
			<time>2014-04-13T09:16:30Z</time>
		</trkpt>
		<trkpt lat="54.198917388916" lon="13.0701704025269">
			<ele>60.7000007629395</ele>
			<time>2014-04-13T09:16:31Z</time>
		</trkpt>
		<trkpt lat="54.1988677978516" lon="13.0701484680176">
			<ele>60.7000007629395</ele>
			<time>2014-04-13T09:16:32Z</time>
		</trkpt>
		<trkpt lat="54.1988220214844" lon="13.0701246261597">
			<ele>60.5</ele>
			<time>2014-04-13T09:16:33Z</time>
		</trkpt>
		<trkpt lat="54.1987724304199" lon="13.070107460022">
			<ele>60.4000015258789</ele>
			<time>2014-04-13T09:16:34Z</time>
		</trkpt>
		<trkpt lat="54.1987228393555" lon="13.0700912475586">
			<ele>60.2000007629395</ele>
			<time>2014-04-13T09:16:35Z</time>
		</trkpt>
		<trkpt lat="54.198673248291" lon="13.0700798034668">
			<ele>59.9000015258789</ele>
			<time>2014-04-13T09:16:36Z</time>
		</trkpt>
		<trkpt lat="54.1986274719238" lon="13.0700540542603">
			<ele>59.7999992370605</ele>
			<time>2014-04-13T09:16:37Z</time>
		</trkpt>
		<trkpt lat="54.1985740661621" lon="13.0700397491455">
			<ele>59.7000007629395</ele>
			<time>2014-04-13T09:16:38Z</time>
		</trkpt>
		<trkpt lat="54.1985282897949" lon="13.0700206756592">
			<ele>60.0999984741211</ele>
			<time>2014-04-13T09:16:39Z</time>
		</trkpt>
		<trkpt lat="54.1984825134277" lon="13.0699939727783">
			<ele>60.4000015258789</ele>
			<time>2014-04-13T09:16:40Z</time>
		</trkpt>
		<trkpt lat="54.1984367370605" lon="13.0699739456177">
			<ele>60.5</ele>
			<time>2014-04-13T09:16:41Z</time>
		</trkpt>
		<trkpt lat="54.1983909606934" lon="13.0699501037598">
			<ele>60.7000007629395</ele>
			<time>2014-04-13T09:16:42Z</time>
		</trkpt>
		<trkpt lat="54.1983451843262" lon="13.0699243545532">
			<ele>61</ele>
			<time>2014-04-13T09:16:43Z</time>
		</trkpt>
		<trkpt lat="54.198299407959" lon="13.0699033737183">
			<ele>61.0999984741211</ele>
			<time>2014-04-13T09:16:44Z</time>
		</trkpt>
		<trkpt lat="54.1982498168945" lon="13.0698871612549">
			<ele>60.9000015258789</ele>
			<time>2014-04-13T09:16:45Z</time>
		</trkpt>
		<trkpt lat="54.1982002258301" lon="13.0698671340942">
			<ele>60.7999992370605</ele>
			<time>2014-04-13T09:16:46Z</time>
		</trkpt>
		<trkpt lat="54.1981506347656" lon="13.0698461532593">
			<ele>61</ele>
			<time>2014-04-13T09:16:47Z</time>
		</trkpt>
		<trkpt lat="54.1981010437012" lon="13.0698280334473">
			<ele>60.7999992370605</ele>
			<time>2014-04-13T09:16:48Z</time>
		</trkpt>
		<trkpt lat="54.1980514526367" lon="13.0697965621948">
			<ele>60.9000015258789</ele>
			<time>2014-04-13T09:16:49Z</time>
		</trkpt>
		<trkpt lat="54.1980056762695" lon="13.0697832107544">
			<ele>60.7999992370605</ele>
			<time>2014-04-13T09:16:50Z</time>
		</trkpt>
		<trkpt lat="54.1979560852051" lon="13.0697660446167">
			<ele>60.5999984741211</ele>
			<time>2014-04-13T09:16:52Z</time>
		</trkpt>
		<trkpt lat="54.1979026794434" lon="13.0697460174561">
			<ele>60.4000015258789</ele>
			<time>2014-04-13T09:16:52Z</time>
		</trkpt>
		<trkpt lat="54.1978569030762" lon="13.0697240829468">
			<ele>60.2999992370605</ele>
			<time>2014-04-13T09:16:53Z</time>
		</trkpt>
		<trkpt lat="54.1978073120117" lon="13.0696983337402">
			<ele>60.2999992370605</ele>
			<time>2014-04-13T09:16:54Z</time>
		</trkpt>
		<trkpt lat="54.1977615356445" lon="13.0696859359741">
			<ele>60.2000007629395</ele>
			<time>2014-04-13T09:16:55Z</time>
		</trkpt>
		<trkpt lat="54.1977119445801" lon="13.0696678161621">
			<ele>59.9000015258789</ele>
			<time>2014-04-13T09:16:56Z</time>
		</trkpt>
		<trkpt lat="54.1976623535156" lon="13.0696477890015">
			<ele>59.7999992370605</ele>
			<time>2014-04-13T09:16:57Z</time>
		</trkpt>
		<trkpt lat="54.1976127624512" lon="13.0696353912354">
			<ele>59.7000007629395</ele>
			<time>2014-04-13T09:16:58Z</time>
		</trkpt>
		<trkpt lat="54.1975631713867" lon="13.0696249008179">
			<ele>59.2999992370605</ele>
			<time>2014-04-13T09:16:59Z</time>
		</trkpt>
		<trkpt lat="54.1975212097168" lon="13.0695972442627">
			<ele>59.2999992370605</ele>
			<time>2014-04-13T09:17:00Z</time>
		</trkpt>
		<trkpt lat="54.1974716186523" lon="13.0695838928223">
			<ele>59.0999984741211</ele>
			<time>2014-04-13T09:17:01Z</time>
		</trkpt>
		<trkpt lat="54.1974220275879" lon="13.0695648193359">
			<ele>59</ele>
			<time>2014-04-13T09:17:02Z</time>
		</trkpt>
		<trkpt lat="54.1973762512207" lon="13.0695486068726">
			<ele>59.2000007629395</ele>
			<time>2014-04-13T09:17:03Z</time>
		</trkpt>
		<trkpt lat="54.1973304748535" lon="13.0695314407349">
			<ele>59</ele>
			<time>2014-04-13T09:17:04Z</time>
		</trkpt>
		<trkpt lat="54.1972770690918" lon="13.0695171356201">
			<ele>59.0999984741211</ele>
			<time>2014-04-13T09:17:05Z</time>
		</trkpt>
		<trkpt lat="54.1972312927246" lon="13.0694971084595">
			<ele>59.0999984741211</ele>
			<time>2014-04-13T09:17:06Z</time>
		</trkpt>
		<trkpt lat="54.1971817016602" lon="13.0694808959961">
			<ele>59.2000007629395</ele>
			<time>2014-04-13T09:17:07Z</time>
		</trkpt>
		<trkpt lat="54.197135925293" lon="13.0694570541382">
			<ele>59.2999992370605</ele>
			<time>2014-04-13T09:17:08Z</time>
		</trkpt>
		<trkpt lat="54.197093963623" lon="13.0694351196289">
			<ele>59.7000007629395</ele>
			<time>2014-04-13T09:17:09Z</time>
		</trkpt>
		<trkpt lat="54.1970367431641" lon="13.0694227218628">
			<ele>59.4000015258789</ele>
			<time>2014-04-13T09:17:10Z</time>
		</trkpt>
		<trkpt lat="54.1969871520996" lon="13.0694103240967">
			<ele>59.4000015258789</ele>
			<time>2014-04-13T09:17:11Z</time>
		</trkpt>
		<trkpt lat="54.1969299316406" lon="13.0693969726563">
			<ele>59.5</ele>
			<time>2014-04-13T09:17:12Z</time>
		</trkpt>
		<trkpt lat="54.1968841552734" lon="13.0693864822388">
			<ele>59.4000015258789</ele>
			<time>2014-04-13T09:17:13Z</time>
		</trkpt>
		<trkpt lat="54.1968307495117" lon="13.0693798065186">
			<ele>59.0999984741211</ele>
			<time>2014-04-13T09:17:14Z</time>
		</trkpt>
		<trkpt lat="54.1967811584473" lon="13.0693635940552">
			<ele>58.9000015258789</ele>
			<time>2014-04-13T09:17:15Z</time>
		</trkpt>
		<trkpt lat="54.1967315673828" lon="13.0693426132202">
			<ele>58.5999984741211</ele>
			<time>2014-04-13T09:17:16Z</time>
		</trkpt>
		<trkpt lat="54.1966857910156" lon="13.0693168640137">
			<ele>58.5</ele>
			<time>2014-04-13T09:17:17Z</time>
		</trkpt>
		<trkpt lat="54.1965942382813" lon="13.0693035125732">
			<ele>58</ele>
			<time>2014-04-13T09:17:19Z</time>
		</trkpt>
		<trkpt lat="54.1965484619141" lon="13.0693006515503">
			<ele>57.9000015258789</ele>
			<time>2014-04-13T09:17:20Z</time>
		</trkpt>
		<trkpt lat="54.1964988708496" lon="13.0692901611328">
			<ele>58.2000007629395</ele>
			<time>2014-04-13T09:17:21Z</time>
		</trkpt>
		<trkpt lat="54.1964111328125" lon="13.0692720413208">
			<ele>58.2000007629395</ele>
			<time>2014-04-13T09:17:23Z</time>
		</trkpt>
		<trkpt lat="54.1963653564453" lon="13.0692663192749">
			<ele>58.7000007629395</ele>
			<time>2014-04-13T09:17:24Z</time>
		</trkpt>
		<trkpt lat="54.1963157653809" lon="13.0692644119263">
			<ele>58.5999984741211</ele>
			<time>2014-04-13T09:17:25Z</time>
		</trkpt>
		<trkpt lat="54.1962699890137" lon="13.069260597229">
			<ele>58.7000007629395</ele>
			<time>2014-04-13T09:17:26Z</time>
		</trkpt>
		<trkpt lat="54.1962203979492" lon="13.0692558288574">
			<ele>58.7000007629395</ele>
			<time>2014-04-13T09:17:27Z</time>
		</trkpt>
		<trkpt lat="54.196174621582" lon="13.0692415237427">
			<ele>58.5</ele>
			<time>2014-04-13T09:17:28Z</time>
		</trkpt>
		<trkpt lat="54.1961250305176" lon="13.0692481994629">
			<ele>58</ele>
			<time>2014-04-13T09:17:29Z</time>
		</trkpt>
		<trkpt lat="54.1960754394531" lon="13.0692462921143">
			<ele>58.0999984741211</ele>
			<time>2014-04-13T09:17:30Z</time>
		</trkpt>
		<trkpt lat="54.195987701416" lon="13.0692329406738">
			<ele>58</ele>
			<time>2014-04-13T09:17:32Z</time>
		</trkpt>
		<trkpt lat="54.1958961486816" lon="13.0692148208618">
			<ele>58.2000007629395</ele>
			<time>2014-04-13T09:17:34Z</time>
		</trkpt>
		<trkpt lat="54.1958503723145" lon="13.0692167282104">
			<ele>58</ele>
			<time>2014-04-13T09:17:35Z</time>
		</trkpt>
		<trkpt lat="54.19580078125" lon="13.0692138671875">
			<ele>58.2000007629395</ele>
			<time>2014-04-13T09:17:36Z</time>
		</trkpt>
		<trkpt lat="54.1957473754883" lon="13.0692176818848">
			<ele>58.2000007629395</ele>
			<time>2014-04-13T09:17:37Z</time>
		</trkpt>
		<trkpt lat="54.1956977844238" lon="13.0692176818848">
			<ele>58.5999984741211</ele>
			<time>2014-04-13T09:17:38Z</time>
		</trkpt>
		<trkpt lat="54.1956443786621" lon="13.0692167282104">
			<ele>59</ele>
			<time>2014-04-13T09:17:39Z</time>
		</trkpt>
		<trkpt lat="54.1955909729004" lon="13.0692253112793">
			<ele>59.5</ele>
			<time>2014-04-13T09:17:40Z</time>
		</trkpt>
		<trkpt lat="54.1955299377441" lon="13.0692319869995">
			<ele>60</ele>
			<time>2014-04-13T09:17:42Z</time>
		</trkpt>
		<trkpt lat="54.1954727172852" lon="13.0692262649536">
			<ele>59.9000015258789</ele>
			<time>2014-04-13T09:17:42Z</time>
		</trkpt>
		<trkpt lat="54.1954193115234" lon="13.0692272186279">
			<ele>59.7999992370605</ele>
			<time>2014-04-13T09:17:45Z</time>
		</trkpt>
		<trkpt lat="54.1953163146973" lon="13.0692262649536">
			<ele>59.2999992370605</ele>
			<time>2014-04-13T09:17:46Z</time>
		</trkpt>
		<trkpt lat="54.1952667236328" lon="13.0692329406738">
			<ele>59.2000007629395</ele>
			<time>2014-04-13T09:17:47Z</time>
		</trkpt>
		<trkpt lat="54.1951637268066" lon="13.0692415237427">
			<ele>59</ele>
			<time>2014-04-13T09:17:49Z</time>
		</trkpt>
		<trkpt lat="54.1951141357422" lon="13.069242477417">
			<ele>58.9000015258789</ele>
			<time>2014-04-13T09:17:50Z</time>
		</trkpt>
		<trkpt lat="54.1950645446777" lon="13.0692358016968">
			<ele>58.5</ele>
			<time>2014-04-13T09:17:50Z</time>
		</trkpt>
		<trkpt lat="54.1950149536133" lon="13.0692367553711">
			<ele>58.2999992370605</ele>
			<time>2014-04-13T09:17:51Z</time>
		</trkpt>
		<trkpt lat="54.1949653625488" lon="13.0692300796509">
			<ele>58.4000015258789</ele>
			<time>2014-04-13T09:17:52Z</time>
		</trkpt>
		<trkpt lat="54.1949119567871" lon="13.0692367553711">
			<ele>58.2999992370605</ele>
			<time>2014-04-13T09:17:53Z</time>
		</trkpt>
		<trkpt lat="54.1948547363281" lon="13.0692453384399">
			<ele>58.7000007629395</ele>
			<time>2014-04-13T09:17:54Z</time>
		</trkpt>
		<trkpt lat="54.1948013305664" lon="13.0692405700684">
			<ele>59.0999984741211</ele>
			<time>2014-04-13T09:17:55Z</time>
		</trkpt>
		<trkpt lat="54.1947441101074" lon="13.0692405700684">
			<ele>59.0999984741211</ele>
			<time>2014-04-13T09:17:58Z</time>
		</trkpt>
		<trkpt lat="54.194694519043" lon="13.0692386627197">
			<ele>59</ele>
			<time>2014-04-13T09:17:58Z</time>
		</trkpt>
		<trkpt lat="54.194637298584" lon="13.0692529678345">
			<ele>58.9000015258789</ele>
			<time>2014-04-13T09:17:59Z</time>
		</trkpt>
		<trkpt lat="54.1945610046387" lon="13.0692596435547">
			<ele>60.4000015258789</ele>
			<time>2014-04-13T09:18:00Z</time>
		</trkpt>
		<trkpt lat="54.1945114135742" lon="13.0692720413208">
			<ele>59.9000015258789</ele>
			<time>2014-04-13T09:18:01Z</time>
		</trkpt>
		<trkpt lat="54.194450378418" lon="13.0692758560181">
			<ele>61.2000007629395</ele>
			<time>2014-04-13T09:18:02Z</time>
		</trkpt>
		<trkpt lat="54.1944046020508" lon="13.069260597229">
			<ele>61.0999984741211</ele>
			<time>2014-04-13T09:18:03Z</time>
		</trkpt>
		<trkpt lat="54.1943511962891" lon="13.0692644119263">
			<ele>61.2999992370605</ele>
			<time>2014-04-13T09:18:04Z</time>
		</trkpt>
		<trkpt lat="54.1942672729492" lon="13.0692615509033">
			<ele>58.7000007629395</ele>
			<time>2014-04-13T09:18:06Z</time>
		</trkpt>
		<trkpt lat="54.1942138671875" lon="13.069260597229">
			<ele>58.5999984741211</ele>
			<time>2014-04-13T09:18:07Z</time>
		</trkpt>
		<trkpt lat="54.1941566467285" lon="13.0692596435547">
			<ele>59</ele>
			<time>2014-04-13T09:18:08Z</time>
		</trkpt>
		<trkpt lat="54.1941032409668" lon="13.0692472457886">
			<ele>58.9000015258789</ele>
			<time>2014-04-13T09:18:09Z</time>
		</trkpt>
		<trkpt lat="54.1940460205078" lon="13.069242477417">
			<ele>58.5999984741211</ele>
			<time>2014-04-13T09:18:10Z</time>
		</trkpt>
		<trkpt lat="54.1939926147461" lon="13.0692481994629">
			<ele>58.4000015258789</ele>
			<time>2014-04-13T09:18:11Z</time>
		</trkpt>
		<trkpt lat="54.1939086914063" lon="13.0692300796509">
			<ele>57.5</ele>
			<time>2014-04-13T09:18:13Z</time>
		</trkpt>
		<trkpt lat="54.1938514709473" lon="13.0692596435547">
			<ele>56.7999992370605</ele>
			<time>2014-04-13T09:18:14Z</time>
		</trkpt>
		<trkpt lat="54.1937789916992" lon="13.0692758560181">
			<ele>57.2999992370605</ele>
			<time>2014-04-13T09:18:15Z</time>
		</trkpt>
		<trkpt lat="54.193717956543" lon="13.0692834854126">
			<ele>56.5999984741211</ele>
			<time>2014-04-13T09:18:16Z</time>
		</trkpt>
		<trkpt lat="54.1936645507813" lon="13.0692720413208">
			<ele>56.9000015258789</ele>
			<time>2014-04-13T09:18:17Z</time>
		</trkpt>
		<trkpt lat="54.1936073303223" lon="13.0692768096924">
			<ele>56.5999984741211</ele>
			<time>2014-04-13T09:18:18Z</time>
		</trkpt>
		<trkpt lat="54.1935539245605" lon="13.0692806243896">
			<ele>56.7000007629395</ele>
			<time>2014-04-13T09:18:19Z</time>
		</trkpt>
		<trkpt lat="54.1935005187988" lon="13.0692958831787">
			<ele>56.7999992370605</ele>
			<time>2014-04-13T09:18:20Z</time>
		</trkpt>
		<trkpt lat="54.1934471130371" lon="13.0692987442017">
			<ele>56.5</ele>
			<time>2014-04-13T09:18:21Z</time>
		</trkpt>
		<trkpt lat="54.1933898925781" lon="13.0693035125732">
			<ele>56.7000007629395</ele>
			<time>2014-04-13T09:18:22Z</time>
		</trkpt>
		<trkpt lat="54.1933364868164" lon="13.0693073272705">
			<ele>56.7000007629395</ele>
			<time>2014-04-13T09:18:23Z</time>
		</trkpt>
		<trkpt lat="54.193286895752" lon="13.0693025588989">
			<ele>56.9000015258789</ele>
			<time>2014-04-13T09:18:24Z</time>
		</trkpt>
		<trkpt lat="54.1932334899902" lon="13.0693054199219">
			<ele>56.7000007629395</ele>
			<time>2014-04-13T09:18:25Z</time>
		</trkpt>
		<trkpt lat="54.1931800842285" lon="13.0693063735962">
			<ele>56.5999984741211</ele>
			<time>2014-04-13T09:18:26Z</time>
		</trkpt>
		<trkpt lat="54.1931266784668" lon="13.0693197250366">
			<ele>56.5999984741211</ele>
			<time>2014-04-13T09:18:27Z</time>
		</trkpt>
		<trkpt lat="54.1930732727051" lon="13.0693159103394">
			<ele>56.9000015258789</ele>
			<time>2014-04-13T09:18:28Z</time>
		</trkpt>
		<trkpt lat="54.1930122375488" lon="13.0693283081055">
			<ele>57</ele>
			<time>2014-04-13T09:18:28Z</time>
		</trkpt>
		<trkpt lat="54.1929588317871" lon="13.0693368911743">
			<ele>57.2999992370605</ele>
			<time>2014-04-13T09:18:29Z</time>
		</trkpt>
		<trkpt lat="54.1929054260254" lon="13.0693387985229">
			<ele>57.4000015258789</ele>
			<time>2014-04-13T09:18:30Z</time>
		</trkpt>
		<trkpt lat="54.1928558349609" lon="13.0693492889404">
			<ele>56.9000015258789</ele>
			<time>2014-04-13T09:18:31Z</time>
		</trkpt>
		<trkpt lat="54.1928024291992" lon="13.069354057312">
			<ele>56.5999984741211</ele>
			<time>2014-04-13T09:18:32Z</time>
		</trkpt>
		<trkpt lat="54.1927528381348" lon="13.0693521499634">
			<ele>56.7999992370605</ele>
			<time>2014-04-13T09:18:33Z</time>
		</trkpt>
		<trkpt lat="54.1927032470703" lon="13.0693473815918">
			<ele>57</ele>
			<time>2014-04-13T09:18:34Z</time>
		</trkpt>
		<trkpt lat="54.1926498413086" lon="13.0693645477295">
			<ele>57.2999992370605</ele>
			<time>2014-04-13T09:18:40Z</time>
		</trkpt>
		<trkpt lat="54.1923828125" lon="13.0693674087524">
			<ele>58.2999992370605</ele>
			<time>2014-04-13T09:18:41Z</time>
		</trkpt>
		<trkpt lat="54.1923217773438" lon="13.0693807601929">
			<ele>59.2000007629395</ele>
			<time>2014-04-13T09:18:42Z</time>
		</trkpt>
		<trkpt lat="54.192268371582" lon="13.0693941116333">
			<ele>60.7999992370605</ele>
			<time>2014-04-13T09:18:42Z</time>
		</trkpt>
		<trkpt lat="54.1922149658203" lon="13.0693941116333">
			<ele>60.7999992370605</ele>
			<time>2014-04-13T09:18:43Z</time>
		</trkpt>
		<trkpt lat="54.1921653747559" lon="13.0694007873535">
			<ele>60.7000007629395</ele>
			<time>2014-04-13T09:18:44Z</time>
		</trkpt>
		<trkpt lat="54.1921119689941" lon="13.0693950653076">
			<ele>60.2999992370605</ele>
			<time>2014-04-13T09:18:45Z</time>
		</trkpt>
		<trkpt lat="54.1920127868652" lon="13.0693874359131">
			<ele>60.5999984741211</ele>
			<time>2014-04-13T09:18:47Z</time>
		</trkpt>
		<trkpt lat="54.191951751709" lon="13.0693836212158">
			<ele>61.5999984741211</ele>
			<time>2014-04-13T09:18:48Z</time>
		</trkpt>
		<trkpt lat="54.19189453125" lon="13.0693922042847">
			<ele>61.5</ele>
			<time>2014-04-13T09:18:49Z</time>
		</trkpt>
		<trkpt lat="54.1918411254883" lon="13.0694036483765">
			<ele>61.4000015258789</ele>
			<time>2014-04-13T09:18:50Z</time>
		</trkpt>
		<trkpt lat="54.1917877197266" lon="13.0694093704224">
			<ele>61.4000015258789</ele>
			<time>2014-04-13T09:18:51Z</time>
		</trkpt>
		<trkpt lat="54.1917304992676" lon="13.0694208145142">
			<ele>61</ele>
			<time>2014-04-13T09:18:52Z</time>
		</trkpt>
		<trkpt lat="54.1916694641113" lon="13.069429397583">
			<ele>60.4000015258789</ele>
			<time>2014-04-13T09:18:53Z</time>
		</trkpt>
		<trkpt lat="54.1916160583496" lon="13.0694379806519">
			<ele>59.9000015258789</ele>
			<time>2014-04-13T09:18:54Z</time>
		</trkpt>
		<trkpt lat="54.1915664672852" lon="13.0694541931152">
			<ele>58.2000007629395</ele>
			<time>2014-04-13T09:18:55Z</time>
		</trkpt>
		<trkpt lat="54.1915130615234" lon="13.0694713592529">
			<ele>57.4000015258789</ele>
			<time>2014-04-13T09:18:56Z</time>
		</trkpt>
		<trkpt lat="54.1914443969727" lon="13.0694952011108">
			<ele>55.7999992370605</ele>
			<time>2014-04-13T09:18:57Z</time>
		</trkpt>
		<trkpt lat="54.1913833618164" lon="13.0695190429688">
			<ele>55.2999992370605</ele>
			<time>2014-04-13T09:18:59Z</time>
		</trkpt>
		<trkpt lat="54.1913375854492" lon="13.0695352554321">
			<ele>54.2999992370605</ele>
			<time>2014-04-13T09:18:59Z</time>
		</trkpt>
		<trkpt lat="54.1912841796875" lon="13.069540977478">
			<ele>54.4000015258789</ele>
			<time>2014-04-13T09:19:00Z</time>
		</trkpt>
		<trkpt lat="54.1912384033203" lon="13.0695457458496">
			<ele>54.7000007629395</ele>
			<time>2014-04-13T09:19:01Z</time>
		</trkpt>
		<trkpt lat="54.1911888122559" lon="13.0695657730103">
			<ele>54.7000007629395</ele>
			<time>2014-04-13T09:19:02Z</time>
		</trkpt>
		<trkpt lat="54.1911468505859" lon="13.0695629119873">
			<ele>55.2999992370605</ele>
			<time>2014-04-13T09:19:03Z</time>
		</trkpt>
		<trkpt lat="54.191089630127" lon="13.0695772171021">
			<ele>55.5</ele>
			<time>2014-04-13T09:19:04Z</time>
		</trkpt>
		<trkpt lat="54.1910362243652" lon="13.0695858001709">
			<ele>55.7000007629395</ele>
			<time>2014-04-13T09:19:05Z</time>
		</trkpt>
		<trkpt lat="54.1909790039063" lon="13.0695953369141">
			<ele>55.5999984741211</ele>
			<time>2014-04-13T09:19:06Z</time>
		</trkpt>
		<trkpt lat="54.1909294128418" lon="13.0696048736572">
			<ele>56.2000007629395</ele>
			<time>2014-04-13T09:19:07Z</time>
		</trkpt>
		<trkpt lat="54.1908798217773" lon="13.069619178772">
			<ele>56.4000015258789</ele>
			<time>2014-04-13T09:19:08Z</time>
		</trkpt>
		<trkpt lat="54.1908302307129" lon="13.0696325302124">
			<ele>56.5999984741211</ele>
			<time>2014-04-13T09:19:09Z</time>
		</trkpt>
		<trkpt lat="54.1907768249512" lon="13.0696468353271">
			<ele>56.7000007629395</ele>
			<time>2014-04-13T09:19:10Z</time>
		</trkpt>
		<trkpt lat="54.1907272338867" lon="13.0696630477905">
			<ele>56.9000015258789</ele>
			<time>2014-04-13T09:19:11Z</time>
		</trkpt>
		<trkpt lat="54.1906776428223" lon="13.0696706771851">
			<ele>57.0999984741211</ele>
			<time>2014-04-13T09:19:12Z</time>
		</trkpt>
		<trkpt lat="54.1906280517578" lon="13.0696792602539">
			<ele>56.7999992370605</ele>
			<time>2014-04-13T09:19:13Z</time>
		</trkpt>
		<trkpt lat="54.1905670166016" lon="13.0696926116943">
			<ele>56.7000007629395</ele>
			<time>2014-04-13T09:19:14Z</time>
		</trkpt>
		<trkpt lat="54.1905174255371" lon="13.0697031021118">
			<ele>56.9000015258789</ele>
			<time>2014-04-13T09:19:15Z</time>
		</trkpt>
		<trkpt lat="54.1904602050781" lon="13.0697164535522">
			<ele>56.4000015258789</ele>
			<time>2014-04-13T09:19:16Z</time>
		</trkpt>
		<trkpt lat="54.1904029846191" lon="13.069727897644">
			<ele>56.7000007629395</ele>
			<time>2014-04-13T09:19:17Z</time>
		</trkpt>
		<trkpt lat="54.1903457641602" lon="13.0697507858276">
			<ele>56.5999984741211</ele>
			<time>2014-04-13T09:19:18Z</time>
		</trkpt>
		<trkpt lat="54.1902885437012" lon="13.0697689056396">
			<ele>56.7999992370605</ele>
			<time>2014-04-13T09:19:19Z</time>
		</trkpt>
		<trkpt lat="54.1902351379395" lon="13.0697784423828">
			<ele>57.5</ele>
			<time>2014-04-13T09:19:20Z</time>
		</trkpt>
		<trkpt lat="54.1901779174805" lon="13.0697946548462">
			<ele>57.2000007629395</ele>
			<time>2014-04-13T09:19:21Z</time>
		</trkpt>
		<trkpt lat="54.1901245117188" lon="13.069803237915">
			<ele>57.0999984741211</ele>
			<time>2014-04-13T09:19:22Z</time>
		</trkpt>
		<trkpt lat="54.1900749206543" lon="13.0698118209839">
			<ele>56.9000015258789</ele>
			<time>2014-04-13T09:19:23Z</time>
		</trkpt>
		<trkpt lat="54.1900215148926" lon="13.0698261260986">
			<ele>57</ele>
			<time>2014-04-13T09:19:24Z</time>
		</trkpt>
		<trkpt lat="54.1899642944336" lon="13.0698394775391">
			<ele>57.0999984741211</ele>
			<time>2014-04-13T09:19:25Z</time>
		</trkpt>
		<trkpt lat="54.1899108886719" lon="13.0698490142822">
			<ele>57.2999992370605</ele>
			<time>2014-04-13T09:19:26Z</time>
		</trkpt>
		<trkpt lat="54.1898536682129" lon="13.0698671340942">
			<ele>57.2000007629395</ele>
			<time>2014-04-13T09:19:27Z</time>
		</trkpt>
		<trkpt lat="54.1898002624512" lon="13.0698823928833">
			<ele>57.4000015258789</ele>
			<time>2014-04-13T09:19:28Z</time>
		</trkpt>
		<trkpt lat="54.1897506713867" lon="13.0698881149292">
			<ele>57.5</ele>
			<time>2014-04-13T09:19:29Z</time>
		</trkpt>
		<trkpt lat="54.1896934509277" lon="13.0699138641357">
			<ele>57</ele>
			<time>2014-04-13T09:19:30Z</time>
		</trkpt>
		<trkpt lat="54.189640045166" lon="13.0699319839478">
			<ele>57</ele>
			<time>2014-04-13T09:19:31Z</time>
		</trkpt>
		<trkpt lat="54.1895790100098" lon="13.0699481964111">
			<ele>57.2000007629395</ele>
			<time>2014-04-13T09:19:32Z</time>
		</trkpt>
		<trkpt lat="54.1895217895508" lon="13.0699644088745">
			<ele>57.2000007629395</ele>
			<time>2014-04-13T09:19:33Z</time>
		</trkpt>
		<trkpt lat="54.1894683837891" lon="13.069974899292">
			<ele>57.4000015258789</ele>
			<time>2014-04-13T09:19:34Z</time>
		</trkpt>
		<trkpt lat="54.1894149780273" lon="13.069993019104">
			<ele>57.9000015258789</ele>
			<time>2014-04-13T09:19:35Z</time>
		</trkpt>
		<trkpt lat="54.1893539428711" lon="13.0700073242188">
			<ele>57.9000015258789</ele>
			<time>2014-04-13T09:19:36Z</time>
		</trkpt>
		<trkpt lat="54.1893005371094" lon="13.0700197219849">
			<ele>58</ele>
			<time>2014-04-13T09:19:37Z</time>
		</trkpt>
		<trkpt lat="54.1892433166504" lon="13.0700311660767">
			<ele>58.0999984741211</ele>
			<time>2014-04-13T09:19:38Z</time>
		</trkpt>
		<trkpt lat="54.1891860961914" lon="13.0700426101685">
			<ele>57.9000015258789</ele>
			<time>2014-04-13T09:19:39Z</time>
		</trkpt>
		<trkpt lat="54.1891326904297" lon="13.0700616836548">
			<ele>58</ele>
			<time>2014-04-13T09:19:40Z</time>
		</trkpt>
		<trkpt lat="54.189079284668" lon="13.0700788497925">
			<ele>57.9000015258789</ele>
			<time>2014-04-13T09:19:41Z</time>
		</trkpt>
		<trkpt lat="54.189022064209" lon="13.0700922012329">
			<ele>57.9000015258789</ele>
			<time>2014-04-13T09:19:42Z</time>
		</trkpt>
		<trkpt lat="54.18896484375" lon="13.0701065063477">
			<ele>57.7000007629395</ele>
			<time>2014-04-13T09:19:43Z</time>
		</trkpt>
		<trkpt lat="54.1889114379883" lon="13.0701179504395">
			<ele>57.5</ele>
			<time>2014-04-13T09:19:44Z</time>
		</trkpt>
		<trkpt lat="54.1888542175293" lon="13.070125579834">
			<ele>57.5</ele>
			<time>2014-04-13T09:19:45Z</time>
		</trkpt>
		<trkpt lat="54.1888008117676" lon="13.0701427459717">
			<ele>57.4000015258789</ele>
			<time>2014-04-13T09:19:46Z</time>
		</trkpt>
		<trkpt lat="54.1887435913086" lon="13.0701637268066">
			<ele>57.2999992370605</ele>
			<time>2014-04-13T09:19:47Z</time>
		</trkpt>
		<trkpt lat="54.1886978149414" lon="13.0701732635498">
			<ele>57.5</ele>
			<time>2014-04-13T09:19:48Z</time>
		</trkpt>
		<trkpt lat="54.1886405944824" lon="13.0701780319214">
			<ele>57.5</ele>
			<time>2014-04-13T09:19:49Z</time>
		</trkpt>
		<trkpt lat="54.1885871887207" lon="13.0701932907104">
			<ele>57.7000007629395</ele>
			<time>2014-04-13T09:19:50Z</time>
		</trkpt>
		<trkpt lat="54.188533782959" lon="13.0702066421509">
			<ele>58</ele>
			<time>2014-04-13T09:19:51Z</time>
		</trkpt>
		<trkpt lat="54.1884803771973" lon="13.0702152252197">
			<ele>58.0999984741211</ele>
			<time>2014-04-13T09:19:52Z</time>
		</trkpt>
		<trkpt lat="54.1884307861328" lon="13.0702266693115">
			<ele>58.5</ele>
			<time>2014-04-13T09:19:53Z</time>
		</trkpt>
		<trkpt lat="54.1883811950684" lon="13.070237159729">
			<ele>58.7999992370605</ele>
			<time>2014-04-13T09:19:54Z</time>
		</trkpt>
		<trkpt lat="54.1883277893066" lon="13.0702390670776">
			<ele>58.7000007629395</ele>
			<time>2014-04-13T09:19:55Z</time>
		</trkpt>
		<trkpt lat="54.1882743835449" lon="13.0702505111694">
			<ele>58.5</ele>
			<time>2014-04-13T09:19:57Z</time>
		</trkpt>
		<trkpt lat="54.1882209777832" lon="13.0702514648438">
			<ele>58.5</ele>
			<time>2014-04-13T09:19:59Z</time>
		</trkpt>
		<trkpt lat="54.1881141662598" lon="13.070273399353">
			<ele>58.2999992370605</ele>
			<time>2014-04-13T09:20:01Z</time>
		</trkpt>
		<trkpt lat="54.1880073547363" lon="13.0702724456787">
			<ele>58.4000015258789</ele>
			<time>2014-04-13T09:20:03Z</time>
		</trkpt>
		<trkpt lat="54.1879005432129" lon="13.0702714920044">
			<ele>58.7000007629395</ele>
			<time>2014-04-13T09:20:03Z</time>
		</trkpt>
		<trkpt lat="54.1878433227539" lon="13.0702638626099">
			<ele>58.5</ele>
			<time>2014-04-13T09:20:04Z</time>
		</trkpt>
		<trkpt lat="54.1877861022949" lon="13.0702629089355">
			<ele>58.4000015258789</ele>
			<time>2014-04-13T09:20:05Z</time>
		</trkpt>
		<trkpt lat="54.1877365112305" lon="13.0702533721924">
			<ele>58.7000007629395</ele>
			<time>2014-04-13T09:20:06Z</time>
		</trkpt>
		<trkpt lat="54.1876831054688" lon="13.0702438354492">
			<ele>58.7999992370605</ele>
			<time>2014-04-13T09:20:07Z</time>
		</trkpt>
		<trkpt lat="54.187629699707" lon="13.070240020752">
			<ele>59.0999984741211</ele>
			<time>2014-04-13T09:20:08Z</time>
		</trkpt>
		<trkpt lat="54.1875762939453" lon="13.0702304840088">
			<ele>59.2000007629395</ele>
			<time>2014-04-13T09:20:09Z</time>
		</trkpt>
		<trkpt lat="54.1875228881836" lon="13.0702228546143">
			<ele>59.5</ele>
			<time>2014-04-13T09:20:10Z</time>
		</trkpt>
		<trkpt lat="54.1874694824219" lon="13.0702152252197">
			<ele>59.7999992370605</ele>
			<time>2014-04-13T09:20:11Z</time>
		</trkpt>
		<trkpt lat="54.1874198913574" lon="13.0702095031738">
			<ele>60</ele>
			<time>2014-04-13T09:20:12Z</time>
		</trkpt>
		<trkpt lat="54.1873664855957" lon="13.0701999664307">
			<ele>60.0999984741211</ele>
			<time>2014-04-13T09:20:13Z</time>
		</trkpt>
		<trkpt lat="54.1873168945313" lon="13.0701875686646">
			<ele>59.9000015258789</ele>
			<time>2014-04-13T09:20:14Z</time>
		</trkpt>
		<trkpt lat="54.1872634887695" lon="13.0701742172241">
			<ele>60</ele>
			<time>2014-04-13T09:20:15Z</time>
		</trkpt>
		<trkpt lat="54.1872100830078" lon="13.0701665878296">
			<ele>59.7999992370605</ele>
			<time>2014-04-13T09:20:16Z</time>
		</trkpt>
		<trkpt lat="54.1871566772461" lon="13.0701551437378">
			<ele>59.9000015258789</ele>
			<time>2014-04-13T09:20:17Z</time>
		</trkpt>
		<trkpt lat="54.1871070861816" lon="13.0701427459717">
			<ele>59.9000015258789</ele>
			<time>2014-04-13T09:20:18Z</time>
		</trkpt>
		<trkpt lat="54.1870498657227" lon="13.0701332092285">
			<ele>59.7999992370605</ele>
			<time>2014-04-13T09:20:19Z</time>
		</trkpt>
		<trkpt lat="54.1870002746582" lon="13.0701169967651">
			<ele>59.9000015258789</ele>
			<time>2014-04-13T09:20:21Z</time>
		</trkpt>
		<trkpt lat="54.1869468688965" lon="13.0701065063477">
			<ele>60.0999984741211</ele>
			<time>2014-04-13T09:20:21Z</time>
		</trkpt>
		<trkpt lat="54.1868934631348" lon="13.0700950622559">
			<ele>60</ele>
			<time>2014-04-13T09:20:22Z</time>
		</trkpt>
		<trkpt lat="54.186840057373" lon="13.0700826644897">
			<ele>60.0999984741211</ele>
			<time>2014-04-13T09:20:23Z</time>
		</trkpt>
		<trkpt lat="54.1867904663086" lon="13.0700731277466">
			<ele>60</ele>
			<time>2014-04-13T09:20:24Z</time>
		</trkpt>
		<trkpt lat="54.1867408752441" lon="13.0700674057007">
			<ele>60.0999984741211</ele>
			<time>2014-04-13T09:20:25Z</time>
		</trkpt>
		<trkpt lat="54.1866912841797" lon="13.0700569152832">
			<ele>60.0999984741211</ele>
			<time>2014-04-13T09:20:26Z</time>
		</trkpt>
		<trkpt lat="54.1866455078125" lon="13.0700492858887">
			<ele>60.2000007629395</ele>
			<time>2014-04-13T09:20:27Z</time>
		</trkpt>
		<trkpt lat="54.1865997314453" lon="13.0700416564941">
			<ele>60.4000015258789</ele>
			<time>2014-04-13T09:20:28Z</time>
		</trkpt>
		<trkpt lat="54.1865501403809" lon="13.0700349807739">
			<ele>60.5999984741211</ele>
			<time>2014-04-13T09:20:29Z</time>
		</trkpt>
		<trkpt lat="54.1864929199219" lon="13.0700254440308">
			<ele>60.5999984741211</ele>
			<time>2014-04-13T09:20:30Z</time>
		</trkpt>
		<trkpt lat="54.1864471435547" lon="13.0700149536133">
			<ele>60.7000007629395</ele>
			<time>2014-04-13T09:20:31Z</time>
		</trkpt>
		<trkpt lat="54.1863975524902" lon="13.0700187683105">
			<ele>60.5999984741211</ele>
			<time>2014-04-13T09:20:32Z</time>
		</trkpt>
		<trkpt lat="54.1863441467285" lon="13.070011138916">
			<ele>60.5</ele>
			<time>2014-04-13T09:20:33Z</time>
		</trkpt>
		<trkpt lat="54.1862907409668" lon="13.0700063705444">
			<ele>60</ele>
			<time>2014-04-13T09:20:34Z</time>
		</trkpt>
		<trkpt lat="54.1862373352051" lon="13.0699977874756">
			<ele>60</ele>
			<time>2014-04-13T09:20:35Z</time>
		</trkpt>
		<trkpt lat="54.1861877441406" lon="13.0699968338013">
			<ele>60.2999992370605</ele>
			<time>2014-04-13T09:20:36Z</time>
		</trkpt>
		<trkpt lat="54.1861343383789" lon="13.0699901580811">
			<ele>60.0999984741211</ele>
			<time>2014-04-13T09:20:37Z</time>
		</trkpt>
		<trkpt lat="54.1860809326172" lon="13.0699825286865">
			<ele>60.2000007629395</ele>
			<time>2014-04-13T09:20:38Z</time>
		</trkpt>
		<trkpt lat="54.1860275268555" lon="13.0699768066406">
			<ele>60</ele>
			<time>2014-04-13T09:20:40Z</time>
		</trkpt>
		<trkpt lat="54.1859741210938" lon="13.0699710845947">
			<ele>59.9000015258789</ele>
			<time>2014-04-13T09:20:41Z</time>
		</trkpt>
		<trkpt lat="54.185920715332" lon="13.0699663162231">
			<ele>59.7000007629395</ele>
			<time>2014-04-13T09:20:41Z</time>
		</trkpt>
		<trkpt lat="54.1858711242676" lon="13.06995677948">
			<ele>59.7000007629395</ele>
			<time>2014-04-13T09:20:42Z</time>
		</trkpt>
		<trkpt lat="54.1858177185059" lon="13.069953918457">
			<ele>59.5</ele>
			<time>2014-04-13T09:20:43Z</time>
		</trkpt>
		<trkpt lat="54.1857643127441" lon="13.0699510574341">
			<ele>59.7999992370605</ele>
			<time>2014-04-13T09:20:44Z</time>
		</trkpt>
		<trkpt lat="54.1857109069824" lon="13.0699472427368">
			<ele>59.7000007629395</ele>
			<time>2014-04-13T09:20:45Z</time>
		</trkpt>
		<trkpt lat="54.185661315918" lon="13.0699424743652">
			<ele>60.0999984741211</ele>
			<time>2014-04-13T09:20:46Z</time>
		</trkpt>
		<trkpt lat="54.1856117248535" lon="13.0699367523193">
			<ele>60.2000007629395</ele>
			<time>2014-04-13T09:20:47Z</time>
		</trkpt>
		<trkpt lat="54.1855621337891" lon="13.0699310302734">
			<ele>60.4000015258789</ele>
			<time>2014-04-13T09:20:48Z</time>
		</trkpt>
		<trkpt lat="54.1855087280273" lon="13.0699262619019">
			<ele>60.2999992370605</ele>
			<time>2014-04-13T09:20:49Z</time>
		</trkpt>
		<trkpt lat="54.1854553222656" lon="13.0699224472046">
			<ele>60.4000015258789</ele>
			<time>2014-04-13T09:20:50Z</time>
		</trkpt>
		<trkpt lat="54.1854057312012" lon="13.069917678833">
			<ele>60</ele>
			<time>2014-04-13T09:20:51Z</time>
		</trkpt>
		<trkpt lat="54.1853523254395" lon="13.0699090957642">
			<ele>60.0999984741211</ele>
			<time>2014-04-13T09:20:52Z</time>
		</trkpt>
		<trkpt lat="54.185302734375" lon="13.0699014663696">
			<ele>60.2999992370605</ele>
			<time>2014-04-13T09:20:53Z</time>
		</trkpt>
		<trkpt lat="54.1852493286133" lon="13.0698957443237">
			<ele>60.2999992370605</ele>
			<time>2014-04-13T09:20:54Z</time>
		</trkpt>
		<trkpt lat="54.1851959228516" lon="13.0698862075806">
			<ele>60.2999992370605</ele>
			<time>2014-04-13T09:20:55Z</time>
		</trkpt>
		<trkpt lat="54.1851463317871" lon="13.069881439209">
			<ele>60.2000007629395</ele>
			<time>2014-04-13T09:20:56Z</time>
		</trkpt>
		<trkpt lat="54.1851005554199" lon="13.0698757171631">
			<ele>60.2000007629395</ele>
			<time>2014-04-13T09:20:57Z</time>
		</trkpt>
		<trkpt lat="54.1850509643555" lon="13.0698728561401">
			<ele>60.9000015258789</ele>
			<time>2014-04-13T09:20:59Z</time>
		</trkpt>
		<trkpt lat="54.185001373291" lon="13.069863319397">
			<ele>60.7000007629395</ele>
			<time>2014-04-13T09:20:59Z</time>
		</trkpt>
		<trkpt lat="54.1849555969238" lon="13.0698566436768">
			<ele>60.5999984741211</ele>
			<time>2014-04-13T09:21:01Z</time>
		</trkpt>
		<trkpt lat="54.1849098205566" lon="13.0698471069336">
			<ele>60.7000007629395</ele>
			<time>2014-04-13T09:21:01Z</time>
		</trkpt>
		<trkpt lat="54.1848602294922" lon="13.0698356628418">
			<ele>60.7000007629395</ele>
			<time>2014-04-13T09:21:02Z</time>
		</trkpt>
		<trkpt lat="54.1848068237305" lon="13.0698270797729">
			<ele>61.0999984741211</ele>
			<time>2014-04-13T09:21:03Z</time>
		</trkpt>
		<trkpt lat="54.1847610473633" lon="13.0698165893555">
			<ele>61.2000007629395</ele>
			<time>2014-04-13T09:21:04Z</time>
		</trkpt>
		<trkpt lat="54.1847114562988" lon="13.0698146820068">
			<ele>61.5</ele>
			<time>2014-04-13T09:21:05Z</time>
		</trkpt>
		<trkpt lat="54.1846656799316" lon="13.0698080062866">
			<ele>61.4000015258789</ele>
			<time>2014-04-13T09:21:06Z</time>
		</trkpt>
		<trkpt lat="54.1846199035645" lon="13.0698013305664">
			<ele>61.5999984741211</ele>
			<time>2014-04-13T09:21:07Z</time>
		</trkpt>
		<trkpt lat="54.1845741271973" lon="13.0698041915894">
			<ele>61.7000007629395</ele>
			<time>2014-04-13T09:21:08Z</time>
		</trkpt>
		<trkpt lat="54.1845245361328" lon="13.0698003768921">
			<ele>61.7999992370605</ele>
			<time>2014-04-13T09:21:09Z</time>
		</trkpt>
		<trkpt lat="54.1844787597656" lon="13.0698156356812">
			<ele>61.7999992370605</ele>
			<time>2014-04-13T09:21:10Z</time>
		</trkpt>
		<trkpt lat="54.1844291687012" lon="13.0698270797729">
			<ele>61.5</ele>
			<time>2014-04-13T09:21:11Z</time>
		</trkpt>
		<trkpt lat="54.184383392334" lon="13.0698394775391">
			<ele>61.5</ele>
			<time>2014-04-13T09:21:12Z</time>
		</trkpt>
		<trkpt lat="54.1843338012695" lon="13.0698528289795">
			<ele>61.5</ele>
			<time>2014-04-13T09:21:13Z</time>
		</trkpt>
		<trkpt lat="54.1842880249023" lon="13.0698642730713">
			<ele>61.5999984741211</ele>
			<time>2014-04-13T09:21:14Z</time>
		</trkpt>
		<trkpt lat="54.1842422485352" lon="13.0698776245117">
			<ele>61.5</ele>
			<time>2014-04-13T09:21:15Z</time>
		</trkpt>
		<trkpt lat="54.184196472168" lon="13.0698909759521">
			<ele>61.9000015258789</ele>
			<time>2014-04-13T09:21:16Z</time>
		</trkpt>
		<trkpt lat="54.1841125488281" lon="13.0699033737183">
			<ele>62.2000007629395</ele>
			<time>2014-04-13T09:21:18Z</time>
		</trkpt>
		<trkpt lat="54.1840667724609" lon="13.0699129104614">
			<ele>62.0999984741211</ele>
			<time>2014-04-13T09:21:19Z</time>
		</trkpt>
		<trkpt lat="54.1839866638184" lon="13.0699310302734">
			<ele>61.7999992370605</ele>
			<time>2014-04-13T09:21:21Z</time>
		</trkpt>
		<trkpt lat="54.1839179992676" lon="13.0699663162231">
			<ele>61.2000007629395</ele>
			<time>2014-04-13T09:21:24Z</time>
		</trkpt>
		<trkpt lat="54.1838760375977" lon="13.0700016021729">
			<ele>61.5999984741211</ele>
			<time>2014-04-13T09:21:28Z</time>
		</trkpt>
		<trkpt lat="54.183837890625" lon="13.0701065063477">
			<ele>62.2999992370605</ele>
			<time>2014-04-13T09:21:30Z</time>
		</trkpt>
		<trkpt lat="54.1838531494141" lon="13.0702285766602">
			<ele>62</ele>
			<time>2014-04-13T09:21:30Z</time>
		</trkpt>
		<trkpt lat="54.1838607788086" lon="13.0703659057617">
			<ele>61.9000015258789</ele>
			<time>2014-04-13T09:21:32Z</time>
		</trkpt>
		<trkpt lat="54.1838722229004" lon="13.0705060958862">
			<ele>61.7000007629395</ele>
			<time>2014-04-13T09:21:34Z</time>
		</trkpt>
		<trkpt lat="54.1838836669922" lon="13.0706548690796">
			<ele>61.7999992370605</ele>
			<time>2014-04-13T09:21:36Z</time>
		</trkpt>
		<trkpt lat="54.1838989257813" lon="13.0708074569702">
			<ele>61.9000015258789</ele>
			<time>2014-04-13T09:21:38Z</time>
		</trkpt>
		<trkpt lat="54.1838989257813" lon="13.0708856582642">
			<ele>62.5</ele>
			<time>2014-04-13T09:21:39Z</time>
		</trkpt>
		<trkpt lat="54.183895111084" lon="13.0709619522095">
			<ele>62.2999992370605</ele>
			<time>2014-04-13T09:21:40Z</time>
		</trkpt>
		<trkpt lat="54.1838569641113" lon="13.0710353851318">
			<ele>61.7000007629395</ele>
			<time>2014-04-13T09:21:41Z</time>
		</trkpt>
		<trkpt lat="54.1838188171387" lon="13.0710926055908">
			<ele>61.7000007629395</ele>
			<time>2014-04-13T09:21:42Z</time>
		</trkpt>
		<trkpt lat="54.1837768554688" lon="13.0711345672607">
			<ele>62</ele>
			<time>2014-04-13T09:21:43Z</time>
		</trkpt>
		<trkpt lat="54.1837348937988" lon="13.0711793899536">
			<ele>61.9000015258789</ele>
			<time>2014-04-13T09:21:44Z</time>
		</trkpt>
		<trkpt lat="54.1836929321289" lon="13.0712251663208">
			<ele>61.7000007629395</ele>
			<time>2014-04-13T09:21:45Z</time>
		</trkpt>
		<trkpt lat="54.183650970459" lon="13.0712766647339">
			<ele>61.7000007629395</ele>
			<time>2014-04-13T09:21:46Z</time>
		</trkpt>
		<trkpt lat="54.1836090087891" lon="13.0713243484497">
			<ele>61.7999992370605</ele>
			<time>2014-04-13T09:21:47Z</time>
		</trkpt>
		<trkpt lat="54.1835632324219" lon="13.0713729858398">
			<ele>61.7999992370605</ele>
			<time>2014-04-13T09:21:48Z</time>
		</trkpt>
		<trkpt lat="54.1835174560547" lon="13.0714225769043">
			<ele>61.4000015258789</ele>
			<time>2014-04-13T09:21:49Z</time>
		</trkpt>
		<trkpt lat="54.183479309082" lon="13.0714702606201">
			<ele>61.0999984741211</ele>
			<time>2014-04-13T09:21:51Z</time>
		</trkpt>
		<trkpt lat="54.1834335327148" lon="13.0715217590332">
			<ele>61</ele>
			<time>2014-04-13T09:21:51Z</time>
		</trkpt>
		<trkpt lat="54.1833915710449" lon="13.0715751647949">
			<ele>60.9000015258789</ele>
			<time>2014-04-13T09:21:52Z</time>
		</trkpt>
		<trkpt lat="54.183349609375" lon="13.071626663208">
			<ele>61.2000007629395</ele>
			<time>2014-04-13T09:21:53Z</time>
		</trkpt>
		<trkpt lat="54.1833076477051" lon="13.0716781616211">
			<ele>60.9000015258789</ele>
			<time>2014-04-13T09:21:54Z</time>
		</trkpt>
		<trkpt lat="54.1832580566406" lon="13.0717258453369">
			<ele>61.2999992370605</ele>
			<time>2014-04-13T09:21:55Z</time>
		</trkpt>
		<trkpt lat="54.1832122802734" lon="13.0717811584473">
			<ele>61.5</ele>
			<time>2014-04-13T09:21:56Z</time>
		</trkpt>
		<trkpt lat="54.1831665039063" lon="13.0718355178833">
			<ele>61.0999984741211</ele>
			<time>2014-04-13T09:21:57Z</time>
		</trkpt>
		<trkpt lat="54.1831207275391" lon="13.0718860626221">
			<ele>61.0999984741211</ele>
			<time>2014-04-13T09:21:59Z</time>
		</trkpt>
		<trkpt lat="54.1830787658691" lon="13.0719347000122">
			<ele>61.0999984741211</ele>
			<time>2014-04-13T09:21:59Z</time>
		</trkpt>
		<trkpt lat="54.1830291748047" lon="13.0719900131226">
			<ele>61.0999984741211</ele>
			<time>2014-04-13T09:22:00Z</time>
		</trkpt>
		<trkpt lat="54.1829833984375" lon="13.072039604187">
			<ele>60.7999992370605</ele>
			<time>2014-04-13T09:22:01Z</time>
		</trkpt>
		<trkpt lat="54.182933807373" lon="13.0720930099487">
			<ele>60.7999992370605</ele>
			<time>2014-04-13T09:22:02Z</time>
		</trkpt>
		<trkpt lat="54.1828842163086" lon="13.0721435546875">
			<ele>60.7000007629395</ele>
			<time>2014-04-13T09:22:03Z</time>
		</trkpt>
		<trkpt lat="54.1828346252441" lon="13.0721912384033">
			<ele>60.5</ele>
			<time>2014-04-13T09:22:04Z</time>
		</trkpt>
		<trkpt lat="54.1827812194824" lon="13.072244644165">
			<ele>60.5</ele>
			<time>2014-04-13T09:22:05Z</time>
		</trkpt>
		<trkpt lat="54.182731628418" lon="13.0722913742065">
			<ele>60.7999992370605</ele>
			<time>2014-04-13T09:22:06Z</time>
		</trkpt>
		<trkpt lat="54.1826782226563" lon="13.0723323822021">
			<ele>60.4000015258789</ele>
			<time>2014-04-13T09:22:07Z</time>
		</trkpt>
		<trkpt lat="54.1826286315918" lon="13.0723705291748">
			<ele>60.2000007629395</ele>
			<time>2014-04-13T09:22:08Z</time>
		</trkpt>
		<trkpt lat="54.1825752258301" lon="13.0724039077759">
			<ele>60</ele>
			<time>2014-04-13T09:22:09Z</time>
		</trkpt>
		<trkpt lat="54.1825256347656" lon="13.0724391937256">
			<ele>60.2000007629395</ele>
			<time>2014-04-13T09:22:10Z</time>
		</trkpt>
		<trkpt lat="54.1824722290039" lon="13.0724754333496">
			<ele>60.0999984741211</ele>
			<time>2014-04-13T09:22:11Z</time>
		</trkpt>
		<trkpt lat="54.1824226379395" lon="13.0725221633911">
			<ele>60.2000007629395</ele>
			<time>2014-04-13T09:22:12Z</time>
		</trkpt>
		<trkpt lat="54.1823692321777" lon="13.0725688934326">
			<ele>60.2000007629395</ele>
			<time>2014-04-13T09:22:14Z</time>
		</trkpt>
		<trkpt lat="54.182315826416" lon="13.0726165771484">
			<ele>60.0999984741211</ele>
			<time>2014-04-13T09:22:14Z</time>
		</trkpt>
		<trkpt lat="54.1822624206543" lon="13.072660446167">
			<ele>60.7000007629395</ele>
			<time>2014-04-13T09:22:15Z</time>
		</trkpt>
		<trkpt lat="54.1822052001953" lon="13.072699546814">
			<ele>60.7999992370605</ele>
			<time>2014-04-13T09:22:16Z</time>
		</trkpt>
		<trkpt lat="54.1821556091309" lon="13.072732925415">
			<ele>60.7000007629395</ele>
			<time>2014-04-13T09:22:17Z</time>
		</trkpt>
		<trkpt lat="54.1821060180664" lon="13.0727710723877">
			<ele>60.4000015258789</ele>
			<time>2014-04-13T09:22:18Z</time>
		</trkpt>
		<trkpt lat="54.1820487976074" lon="13.0728130340576">
			<ele>60.0999984741211</ele>
			<time>2014-04-13T09:22:19Z</time>
		</trkpt>
		<trkpt lat="54.1819953918457" lon="13.072850227356">
			<ele>59.5999984741211</ele>
			<time>2014-04-13T09:22:20Z</time>
		</trkpt>
		<trkpt lat="54.181941986084" lon="13.0728883743286">
			<ele>59.5</ele>
			<time>2014-04-13T09:22:21Z</time>
		</trkpt>
		<trkpt lat="54.181884765625" lon="13.0729303359985">
			<ele>59.2000007629395</ele>
			<time>2014-04-13T09:22:22Z</time>
		</trkpt>
		<trkpt lat="54.181827545166" lon="13.0729703903198">
			<ele>59.5</ele>
			<time>2014-04-13T09:22:23Z</time>
		</trkpt>
		<trkpt lat="54.1817741394043" lon="13.0730104446411">
			<ele>59.0999984741211</ele>
			<time>2014-04-13T09:22:24Z</time>
		</trkpt>
		<trkpt lat="54.1817207336426" lon="13.073052406311">
			<ele>59.5</ele>
			<time>2014-04-13T09:22:25Z</time>
		</trkpt>
		<trkpt lat="54.1816635131836" lon="13.0730981826782">
			<ele>59.4000015258789</ele>
			<time>2014-04-13T09:22:26Z</time>
		</trkpt>
		<trkpt lat="54.1816024780273" lon="13.0731449127197">
			<ele>59.4000015258789</ele>
			<time>2014-04-13T09:22:27Z</time>
		</trkpt>
		<trkpt lat="54.1815452575684" lon="13.0731906890869">
			<ele>58.7999992370605</ele>
			<time>2014-04-13T09:22:28Z</time>
		</trkpt>
		<trkpt lat="54.1814842224121" lon="13.0732326507568">
			<ele>58.5</ele>
			<time>2014-04-13T09:22:29Z</time>
		</trkpt>
		<trkpt lat="54.1814231872559" lon="13.0732736587524">
			<ele>58.2999992370605</ele>
			<time>2014-04-13T09:22:30Z</time>
		</trkpt>
		<trkpt lat="54.1813621520996" lon="13.073317527771">
			<ele>58.4000015258789</ele>
			<time>2014-04-13T09:22:31Z</time>
		</trkpt>
		<trkpt lat="54.1813011169434" lon="13.0733613967896">
			<ele>58.2999992370605</ele>
			<time>2014-04-13T09:22:32Z</time>
		</trkpt>
		<trkpt lat="54.1812400817871" lon="13.0734128952026">
			<ele>58.4000015258789</ele>
			<time>2014-04-13T09:22:33Z</time>
		</trkpt>
		<trkpt lat="54.1811790466309" lon="13.0734558105469">
			<ele>58.0999984741211</ele>
			<time>2014-04-13T09:22:34Z</time>
		</trkpt>
		<trkpt lat="54.1811180114746" lon="13.0735025405884">
			<ele>58</ele>
			<time>2014-04-13T09:22:35Z</time>
		</trkpt>
		<trkpt lat="54.1810646057129" lon="13.0735483169556">
			<ele>58.2000007629395</ele>
			<time>2014-04-13T09:22:36Z</time>
		</trkpt>
		<trkpt lat="54.1810035705566" lon="13.0735950469971">
			<ele>58.2000007629395</ele>
			<time>2014-04-13T09:22:37Z</time>
		</trkpt>
		<trkpt lat="54.1809425354004" lon="13.0736436843872">
			<ele>58.0999984741211</ele>
			<time>2014-04-13T09:22:38Z</time>
		</trkpt>
		<trkpt lat="54.1808853149414" lon="13.073691368103">
			<ele>58</ele>
			<time>2014-04-13T09:22:39Z</time>
		</trkpt>
		<trkpt lat="54.1808242797852" lon="13.0737380981445">
			<ele>57.9000015258789</ele>
			<time>2014-04-13T09:22:40Z</time>
		</trkpt>
		<trkpt lat="54.1807632446289" lon="13.0737829208374">
			<ele>57.7000007629395</ele>
			<time>2014-04-13T09:22:41Z</time>
		</trkpt>
		<trkpt lat="54.1807060241699" lon="13.0738277435303">
			<ele>57.5</ele>
			<time>2014-04-13T09:22:42Z</time>
		</trkpt>
		<trkpt lat="54.1806449890137" lon="13.0738706588745">
			<ele>57.5999984741211</ele>
			<time>2014-04-13T09:22:43Z</time>
		</trkpt>
		<trkpt lat="54.1805877685547" lon="13.0739135742188">
			<ele>57.7000007629395</ele>
			<time>2014-04-13T09:22:44Z</time>
		</trkpt>
		<trkpt lat="54.1805267333984" lon="13.0739593505859">
			<ele>57.7999992370605</ele>
			<time>2014-04-13T09:22:45Z</time>
		</trkpt>
		<trkpt lat="54.1804695129395" lon="13.0740003585815">
			<ele>57.7000007629395</ele>
			<time>2014-04-13T09:22:46Z</time>
		</trkpt>
		<trkpt lat="54.1804084777832" lon="13.0740365982056">
			<ele>57.5</ele>
			<time>2014-04-13T09:22:47Z</time>
		</trkpt>
		<trkpt lat="54.180347442627" lon="13.074068069458">
			<ele>57.7000007629395</ele>
			<time>2014-04-13T09:22:48Z</time>
		</trkpt>
		<trkpt lat="54.1802864074707" lon="13.0741024017334">
			<ele>57.7999992370605</ele>
			<time>2014-04-13T09:22:49Z</time>
		</trkpt>
		<trkpt lat="54.1802291870117" lon="13.0741357803345">
			<ele>57.5999984741211</ele>
			<time>2014-04-13T09:22:51Z</time>
		</trkpt>
		<trkpt lat="54.1801681518555" lon="13.0741662979126">
			<ele>57.5</ele>
			<time>2014-04-13T09:22:51Z</time>
		</trkpt>
		<trkpt lat="54.1801109313965" lon="13.0741987228394">
			<ele>57.4000015258789</ele>
			<time>2014-04-13T09:22:52Z</time>
		</trkpt>
		<trkpt lat="54.1800498962402" lon="13.0742235183716">
			<ele>57.2999992370605</ele>
			<time>2014-04-13T09:22:53Z</time>
		</trkpt>
		<trkpt lat="54.179988861084" lon="13.0742521286011">
			<ele>56.9000015258789</ele>
			<time>2014-04-13T09:22:54Z</time>
		</trkpt>
		<trkpt lat="54.1799278259277" lon="13.0742826461792">
			<ele>57</ele>
			<time>2014-04-13T09:22:55Z</time>
		</trkpt>
		<trkpt lat="54.1798629760742" lon="13.0743093490601">
			<ele>56.9000015258789</ele>
			<time>2014-04-13T09:22:57Z</time>
		</trkpt>
		<trkpt lat="54.1797981262207" lon="13.074333190918">
			<ele>57</ele>
			<time>2014-04-13T09:22:57Z</time>
		</trkpt>
		<trkpt lat="54.1797370910645" lon="13.0743589401245">
			<ele>56.7999992370605</ele>
			<time>2014-04-13T09:22:58Z</time>
		</trkpt>
		<trkpt lat="54.1796760559082" lon="13.0743885040283">
			<ele>57.2000007629395</ele>
			<time>2014-04-13T09:22:59Z</time>
		</trkpt>
		<trkpt lat="54.1796112060547" lon="13.0744199752808">
			<ele>57.4000015258789</ele>
			<time>2014-04-13T09:23:00Z</time>
		</trkpt>
		<trkpt lat="54.1795501708984" lon="13.0744504928589">
			<ele>57.5</ele>
			<time>2014-04-13T09:23:02Z</time>
		</trkpt>
		<trkpt lat="54.1794929504395" lon="13.074481010437">
			<ele>57.4000015258789</ele>
			<time>2014-04-13T09:23:02Z</time>
		</trkpt>
		<trkpt lat="54.1794319152832" lon="13.0745134353638">
			<ele>57.2000007629395</ele>
			<time>2014-04-13T09:23:03Z</time>
		</trkpt>
		<trkpt lat="54.1793785095215" lon="13.0745439529419">
			<ele>56.5</ele>
			<time>2014-04-13T09:23:04Z</time>
		</trkpt>
		<trkpt lat="54.179328918457" lon="13.0745735168457">
			<ele>55.7999992370605</ele>
			<time>2014-04-13T09:23:05Z</time>
		</trkpt>
		<trkpt lat="54.179271697998" lon="13.0745983123779">
			<ele>55.7999992370605</ele>
			<time>2014-04-13T09:23:06Z</time>
		</trkpt>
		<trkpt lat="54.1792068481445" lon="13.0746326446533">
			<ele>55.7000007629395</ele>
			<time>2014-04-13T09:23:07Z</time>
		</trkpt>
		<trkpt lat="54.1791534423828" lon="13.0746536254883">
			<ele>55.7999992370605</ele>
			<time>2014-04-13T09:23:08Z</time>
		</trkpt>
		<trkpt lat="54.1790924072266" lon="13.0746784210205">
			<ele>56.2000007629395</ele>
			<time>2014-04-13T09:23:10Z</time>
		</trkpt>
		<trkpt lat="54.1790390014648" lon="13.0746994018555">
			<ele>55.9000015258789</ele>
			<time>2014-04-13T09:23:10Z</time>
		</trkpt>
		<trkpt lat="54.1789779663086" lon="13.0747213363647">
			<ele>56.5999984741211</ele>
			<time>2014-04-13T09:23:11Z</time>
		</trkpt>
		<trkpt lat="54.1789245605469" lon="13.0747394561768">
			<ele>56.7999992370605</ele>
			<time>2014-04-13T09:23:12Z</time>
		</trkpt>
		<trkpt lat="54.1788711547852" lon="13.0747671127319">
			<ele>58</ele>
			<time>2014-04-13T09:23:13Z</time>
		</trkpt>
		<trkpt lat="54.1788177490234" lon="13.0747909545898">
			<ele>57.5999984741211</ele>
			<time>2014-04-13T09:23:14Z</time>
		</trkpt>
		<trkpt lat="54.1787605285645" lon="13.0748062133789">
			<ele>57.5999984741211</ele>
			<time>2014-04-13T09:23:15Z</time>
		</trkpt>
		<trkpt lat="54.1787033081055" lon="13.0748119354248">
			<ele>57.9000015258789</ele>
			<time>2014-04-13T09:23:16Z</time>
		</trkpt>
		<trkpt lat="54.1786499023438" lon="13.0748205184937">
			<ele>58.2000007629395</ele>
			<time>2014-04-13T09:23:18Z</time>
		</trkpt>
		<trkpt lat="54.1785926818848" lon="13.0748300552368">
			<ele>58.2999992370605</ele>
			<time>2014-04-13T09:23:18Z</time>
		</trkpt>
		<trkpt lat="54.1785354614258" lon="13.0748386383057">
			<ele>59.2000007629395</ele>
			<time>2014-04-13T09:23:20Z</time>
		</trkpt>
		<trkpt lat="54.1784744262695" lon="13.0748500823975">
			<ele>59.0999984741211</ele>
			<time>2014-04-13T09:23:20Z</time>
		</trkpt>
		<trkpt lat="54.1784172058105" lon="13.0748586654663">
			<ele>58.7999992370605</ele>
			<time>2014-04-13T09:23:22Z</time>
		</trkpt>
		<trkpt lat="54.1783638000488" lon="13.0748643875122">
			<ele>58.4000015258789</ele>
			<time>2014-04-13T09:23:22Z</time>
		</trkpt>
		<trkpt lat="54.1783065795898" lon="13.0748710632324">
			<ele>58.5</ele>
			<time>2014-04-13T09:23:24Z</time>
		</trkpt>
		<trkpt lat="54.1782455444336" lon="13.0748701095581">
			<ele>59</ele>
			<time>2014-04-13T09:23:24Z</time>
		</trkpt>
		<trkpt lat="54.1781845092773" lon="13.0748662948608">
			<ele>58.4000015258789</ele>
			<time>2014-04-13T09:23:25Z</time>
		</trkpt>
		<trkpt lat="54.1781234741211" lon="13.0748643875122">
			<ele>58.5</ele>
			<time>2014-04-13T09:23:26Z</time>
		</trkpt>
		<trkpt lat="54.1780662536621" lon="13.0748624801636">
			<ele>58.2999992370605</ele>
			<time>2014-04-13T09:23:27Z</time>
		</trkpt>
		<trkpt lat="54.1780090332031" lon="13.0748634338379">
			<ele>58.4000015258789</ele>
			<time>2014-04-13T09:23:28Z</time>
		</trkpt>
		<trkpt lat="54.1779518127441" lon="13.0748586654663">
			<ele>58.2999992370605</ele>
			<time>2014-04-13T09:23:30Z</time>
		</trkpt>
		<trkpt lat="54.1778945922852" lon="13.0748538970947">
			<ele>58.0999984741211</ele>
			<time>2014-04-13T09:23:30Z</time>
		</trkpt>
		<trkpt lat="54.1778335571289" lon="13.0748529434204">
			<ele>58.0999984741211</ele>
			<time>2014-04-13T09:23:32Z</time>
		</trkpt>
		<trkpt lat="54.1777763366699" lon="13.0748529434204">
			<ele>58.0999984741211</ele>
			<time>2014-04-13T09:23:33Z</time>
		</trkpt>
		<trkpt lat="54.1777191162109" lon="13.0748510360718">
			<ele>57.7000007629395</ele>
			<time>2014-04-13T09:23:34Z</time>
		</trkpt>
		<trkpt lat="54.177661895752" lon="13.0748500823975">
			<ele>57.7000007629395</ele>
			<time>2014-04-13T09:23:35Z</time>
		</trkpt>
		<trkpt lat="54.177604675293" lon="13.0748481750488">
			<ele>57.9000015258789</ele>
			<time>2014-04-13T09:23:36Z</time>
		</trkpt>
		<trkpt lat="54.1775436401367" lon="13.0748434066772">
			<ele>58.2000007629395</ele>
			<time>2014-04-13T09:23:37Z</time>
		</trkpt>
		<trkpt lat="54.1774864196777" lon="13.0748405456543">
			<ele>58.0999984741211</ele>
			<time>2014-04-13T09:23:37Z</time>
		</trkpt>
		<trkpt lat="54.1774215698242" lon="13.0748319625854">
			<ele>58</ele>
			<time>2014-04-13T09:23:39Z</time>
		</trkpt>
		<trkpt lat="54.1773643493652" lon="13.0748205184937">
			<ele>57.9000015258789</ele>
			<time>2014-04-13T09:23:40Z</time>
		</trkpt>
		<trkpt lat="54.177303314209" lon="13.0748062133789">
			<ele>57.7999992370605</ele>
			<time>2014-04-13T09:23:41Z</time>
		</trkpt>
		<trkpt lat="54.1772422790527" lon="13.0747909545898">
			<ele>58.2999992370605</ele>
			<time>2014-04-13T09:23:41Z</time>
		</trkpt>
		<trkpt lat="54.1771850585938" lon="13.0747852325439">
			<ele>58</ele>
			<time>2014-04-13T09:23:42Z</time>
		</trkpt>
		<trkpt lat="54.1771278381348" lon="13.0747804641724">
			<ele>57.5999984741211</ele>
			<time>2014-04-13T09:23:43Z</time>
		</trkpt>
		<trkpt lat="54.1770629882813" lon="13.0747594833374">
			<ele>58.2000007629395</ele>
			<time>2014-04-13T09:23:45Z</time>
		</trkpt>
		<trkpt lat="54.1770057678223" lon="13.0747423171997">
			<ele>58</ele>
			<time>2014-04-13T09:23:45Z</time>
		</trkpt>
		<trkpt lat="54.1769409179688" lon="13.0747213363647">
			<ele>58.4000015258789</ele>
			<time>2014-04-13T09:23:46Z</time>
		</trkpt>
		<trkpt lat="54.1768836975098" lon="13.0746955871582">
			<ele>58.0999984741211</ele>
			<time>2014-04-13T09:23:49Z</time>
		</trkpt>
		<trkpt lat="54.1767616271973" lon="13.0746545791626">
			<ele>58.0999984741211</ele>
			<time>2014-04-13T09:23:51Z</time>
		</trkpt>
		<trkpt lat="54.176643371582" lon="13.0746212005615">
			<ele>58.4000015258789</ele>
			<time>2014-04-13T09:23:53Z</time>
		</trkpt>
		<trkpt lat="54.1765823364258" lon="13.0746002197266">
			<ele>58.5</ele>
			<time>2014-04-13T09:23:54Z</time>
		</trkpt>
		<trkpt lat="54.1765213012695" lon="13.0745859146118">
			<ele>58.5</ele>
			<time>2014-04-13T09:23:55Z</time>
		</trkpt>
		<trkpt lat="54.1764030456543" lon="13.0745573043823">
			<ele>58.7000007629395</ele>
			<time>2014-04-13T09:23:56Z</time>
		</trkpt>
		<trkpt lat="54.1763458251953" lon="13.0745515823364">
			<ele>58.5</ele>
			<time>2014-04-13T09:23:57Z</time>
		</trkpt>
		<trkpt lat="54.1762809753418" lon="13.0745372772217">
			<ele>58.2999992370605</ele>
			<time>2014-04-13T09:23:58Z</time>
		</trkpt>
		<trkpt lat="54.1762199401855" lon="13.0745239257813">
			<ele>58.2999992370605</ele>
			<time>2014-04-13T09:23:59Z</time>
		</trkpt>
		<trkpt lat="54.1761627197266" lon="13.0745058059692">
			<ele>58.2999992370605</ele>
			<time>2014-04-13T09:24:00Z</time>
		</trkpt>
		<trkpt lat="54.1761016845703" lon="13.0744934082031">
			<ele>58.4000015258789</ele>
			<time>2014-04-13T09:24:01Z</time>
		</trkpt>
		<trkpt lat="54.1760444641113" lon="13.0744724273682">
			<ele>58.5</ele>
			<time>2014-04-13T09:24:02Z</time>
		</trkpt>
		<trkpt lat="54.1759910583496" lon="13.0744485855103">
			<ele>58.2000007629395</ele>
			<time>2014-04-13T09:24:03Z</time>
		</trkpt>
		<trkpt lat="54.1759338378906" lon="13.074426651001">
			<ele>58.2000007629395</ele>
			<time>2014-04-13T09:24:04Z</time>
		</trkpt>
		<trkpt lat="54.1758689880371" lon="13.0744152069092">
			<ele>58.5</ele>
			<time>2014-04-13T09:24:05Z</time>
		</trkpt>
		<trkpt lat="54.1758079528809" lon="13.0743923187256">
			<ele>57.9000015258789</ele>
			<time>2014-04-13T09:24:06Z</time>
		</trkpt>
		<trkpt lat="54.1757507324219" lon="13.0743675231934">
			<ele>57.7999992370605</ele>
			<time>2014-04-13T09:24:07Z</time>
		</trkpt>
		<trkpt lat="54.1756896972656" lon="13.0743446350098">
			<ele>57.4000015258789</ele>
			<time>2014-04-13T09:24:08Z</time>
		</trkpt>
		<trkpt lat="54.1756324768066" lon="13.0743188858032">
			<ele>57.4000015258789</ele>
			<time>2014-04-13T09:24:09Z</time>
		</trkpt>
		<trkpt lat="54.1755752563477" lon="13.0742959976196">
			<ele>57.5</ele>
			<time>2014-04-13T09:24:10Z</time>
		</trkpt>
		<trkpt lat="54.1755142211914" lon="13.0742692947388">
			<ele>57.5</ele>
			<time>2014-04-13T09:24:11Z</time>
		</trkpt>
		<trkpt lat="54.1754570007324" lon="13.0742416381836">
			<ele>57.4000015258789</ele>
			<time>2014-04-13T09:24:12Z</time>
		</trkpt>
		<trkpt lat="54.1753997802734" lon="13.0742158889771">
			<ele>57.4000015258789</ele>
			<time>2014-04-13T09:24:13Z</time>
		</trkpt>
		<trkpt lat="54.1753387451172" lon="13.0741930007935">
			<ele>57.7999992370605</ele>
			<time>2014-04-13T09:24:14Z</time>
		</trkpt>
		<trkpt lat="54.1752815246582" lon="13.074164390564">
			<ele>57.9000015258789</ele>
			<time>2014-04-13T09:24:15Z</time>
		</trkpt>
		<trkpt lat="54.1752243041992" lon="13.0741367340088">
			<ele>58</ele>
			<time>2014-04-13T09:24:16Z</time>
		</trkpt>
		<trkpt lat="54.1751670837402" lon="13.0741090774536">
			<ele>58.4000015258789</ele>
			<time>2014-04-13T09:24:17Z</time>
		</trkpt>
		<trkpt lat="54.1751098632813" lon="13.0740785598755">
			<ele>58.5999984741211</ele>
			<time>2014-04-13T09:24:18Z</time>
		</trkpt>
		<trkpt lat="54.1750526428223" lon="13.0740518569946">
			<ele>58.5</ele>
			<time>2014-04-13T09:24:19Z</time>
		</trkpt>
		<trkpt lat="54.1749954223633" lon="13.0740232467651">
			<ele>58.4000015258789</ele>
			<time>2014-04-13T09:24:20Z</time>
		</trkpt>
		<trkpt lat="54.1749382019043" lon="13.0740022659302">
			<ele>58.5</ele>
			<time>2014-04-13T09:24:21Z</time>
		</trkpt>
		<trkpt lat="54.1748809814453" lon="13.0739736557007">
			<ele>58.4000015258789</ele>
			<time>2014-04-13T09:24:22Z</time>
		</trkpt>
		<trkpt lat="54.1748275756836" lon="13.0739459991455">
			<ele>58.4000015258789</ele>
			<time>2014-04-13T09:24:23Z</time>
		</trkpt>
		<trkpt lat="54.1747703552246" lon="13.0739221572876">
			<ele>58.0999984741211</ele>
			<time>2014-04-13T09:24:24Z</time>
		</trkpt>
		<trkpt lat="54.1747131347656" lon="13.0738906860352">
			<ele>58.2000007629395</ele>
			<time>2014-04-13T09:24:25Z</time>
		</trkpt>
		<trkpt lat="54.1746559143066" lon="13.073860168457">
			<ele>58.2000007629395</ele>
			<time>2014-04-13T09:24:26Z</time>
		</trkpt>
		<trkpt lat="54.1746025085449" lon="13.0738363265991">
			<ele>58.0999984741211</ele>
			<time>2014-04-13T09:24:27Z</time>
		</trkpt>
		<trkpt lat="54.1745452880859" lon="13.0738067626953">
			<ele>57.7999992370605</ele>
			<time>2014-04-13T09:24:28Z</time>
		</trkpt>
		<trkpt lat="54.174488067627" lon="13.0737829208374">
			<ele>57.7999992370605</ele>
			<time>2014-04-13T09:24:29Z</time>
		</trkpt>
		<trkpt lat="54.1744346618652" lon="13.0737504959106">
			<ele>58</ele>
			<time>2014-04-13T09:24:30Z</time>
		</trkpt>
		<trkpt lat="54.1743774414063" lon="13.0737247467041">
			<ele>57.7999992370605</ele>
			<time>2014-04-13T09:24:31Z</time>
		</trkpt>
		<trkpt lat="54.1743202209473" lon="13.0736932754517">
			<ele>57.7000007629395</ele>
			<time>2014-04-13T09:24:32Z</time>
		</trkpt>
		<trkpt lat="54.174259185791" lon="13.0736627578735">
			<ele>57.5999984741211</ele>
			<time>2014-04-13T09:24:33Z</time>
		</trkpt>
		<trkpt lat="54.174201965332" lon="13.0736398696899">
			<ele>57.7000007629395</ele>
			<time>2014-04-13T09:24:34Z</time>
		</trkpt>
		<trkpt lat="54.174144744873" lon="13.0736122131348">
			<ele>57.7000007629395</ele>
			<time>2014-04-13T09:24:35Z</time>
		</trkpt>
		<trkpt lat="54.1740837097168" lon="13.0735845565796">
			<ele>57.9000015258789</ele>
			<time>2014-04-13T09:24:36Z</time>
		</trkpt>
		<trkpt lat="54.1740226745605" lon="13.0735521316528">
			<ele>57.7999992370605</ele>
			<time>2014-04-13T09:24:37Z</time>
		</trkpt>
		<trkpt lat="54.1739616394043" lon="13.0735244750977">
			<ele>57.7999992370605</ele>
			<time>2014-04-13T09:24:38Z</time>
		</trkpt>
		<trkpt lat="54.173900604248" lon="13.0734996795654">
			<ele>57.7999992370605</ele>
			<time>2014-04-13T09:24:39Z</time>
		</trkpt>
		<trkpt lat="54.1738395690918" lon="13.0734701156616">
			<ele>57.4000015258789</ele>
			<time>2014-04-13T09:24:40Z</time>
		</trkpt>
		<trkpt lat="54.1737785339355" lon="13.0734510421753">
			<ele>57.2000007629395</ele>
			<time>2014-04-13T09:24:41Z</time>
		</trkpt>
		<trkpt lat="54.1737174987793" lon="13.073429107666">
			<ele>57.0999984741211</ele>
			<time>2014-04-13T09:24:42Z</time>
		</trkpt>
		<trkpt lat="54.1736602783203" lon="13.0734024047852">
			<ele>56.7000007629395</ele>
			<time>2014-04-13T09:24:43Z</time>
		</trkpt>
		<trkpt lat="54.1736030578613" lon="13.0733795166016">
			<ele>56.7999992370605</ele>
			<time>2014-04-13T09:24:44Z</time>
		</trkpt>
		<trkpt lat="54.1735458374023" lon="13.0733671188354">
			<ele>56.2999992370605</ele>
			<time>2014-04-13T09:24:45Z</time>
		</trkpt>
		<trkpt lat="54.1734886169434" lon="13.0733461380005">
			<ele>56.7000007629395</ele>
			<time>2014-04-13T09:24:46Z</time>
		</trkpt>
		<trkpt lat="54.1734352111816" lon="13.0733222961426">
			<ele>56.9000015258789</ele>
			<time>2014-04-13T09:24:47Z</time>
		</trkpt>
		<trkpt lat="54.1733703613281" lon="13.0733089447021">
			<ele>56.2999992370605</ele>
			<time>2014-04-13T09:24:48Z</time>
		</trkpt>
		<trkpt lat="54.1733093261719" lon="13.073296546936">
			<ele>56</ele>
			<time>2014-04-13T09:24:49Z</time>
		</trkpt>
		<trkpt lat="54.1732597351074" lon="13.0732507705688">
			<ele>56.2000007629395</ele>
			<time>2014-04-13T09:24:50Z</time>
		</trkpt>
		<trkpt lat="54.1731948852539" lon="13.0732421875">
			<ele>55.9000015258789</ele>
			<time>2014-04-13T09:24:51Z</time>
		</trkpt>
		<trkpt lat="54.1731414794922" lon="13.0732097625732">
			<ele>56.2000007629395</ele>
			<time>2014-04-13T09:24:52Z</time>
		</trkpt>
		<trkpt lat="54.1730918884277" lon="13.0731792449951">
			<ele>55.7999992370605</ele>
			<time>2014-04-13T09:24:53Z</time>
		</trkpt>
		<trkpt lat="54.1730461120605" lon="13.0731573104858">
			<ele>55.7999992370605</ele>
			<time>2014-04-13T09:24:54Z</time>
		</trkpt>
		<trkpt lat="54.1729927062988" lon="13.0731325149536">
			<ele>55.7999992370605</ele>
			<time>2014-04-13T09:24:55Z</time>
		</trkpt>
		<trkpt lat="54.172908782959" lon="13.0730514526367">
			<ele>55.4000015258789</ele>
			<time>2014-04-13T09:24:57Z</time>
		</trkpt>
		<trkpt lat="54.1728591918945" lon="13.0730257034302">
			<ele>55.4000015258789</ele>
			<time>2014-04-13T09:24:58Z</time>
		</trkpt>
		<trkpt lat="54.1728134155273" lon="13.0729894638062">
			<ele>55.4000015258789</ele>
			<time>2014-04-13T09:24:59Z</time>
		</trkpt>
		<trkpt lat="54.1727638244629" lon="13.0729722976685">
			<ele>56</ele>
			<time>2014-04-13T09:25:00Z</time>
		</trkpt>
		<trkpt lat="54.1726875305176" lon="13.0728874206543">
			<ele>56.7000007629395</ele>
			<time>2014-04-13T09:25:02Z</time>
		</trkpt>
		<trkpt lat="54.1726455688477" lon="13.0728521347046">
			<ele>56.4000015258789</ele>
			<time>2014-04-13T09:25:03Z</time>
		</trkpt>
		<trkpt lat="54.1725997924805" lon="13.0728206634521">
			<ele>56.4000015258789</ele>
			<time>2014-04-13T09:25:04Z</time>
		</trkpt>
		<trkpt lat="54.1725540161133" lon="13.0728139877319">
			<ele>56</ele>
			<time>2014-04-13T09:25:05Z</time>
		</trkpt>
		<trkpt lat="54.1725044250488" lon="13.0727863311768">
			<ele>55.5999984741211</ele>
			<time>2014-04-13T09:25:06Z</time>
		</trkpt>
		<trkpt lat="54.1724281311035" lon="13.072717666626">
			<ele>55.7000007629395</ele>
			<time>2014-04-13T09:25:08Z</time>
		</trkpt>
		<trkpt lat="54.1723861694336" lon="13.0726871490479">
			<ele>55.2999992370605</ele>
			<time>2014-04-13T09:25:09Z</time>
		</trkpt>
		<trkpt lat="54.1722984313965" lon="13.0726413726807">
			<ele>54</ele>
			<time>2014-04-13T09:25:11Z</time>
		</trkpt>
		<trkpt lat="54.1722564697266" lon="13.0726137161255">
			<ele>53.7000007629395</ele>
			<time>2014-04-13T09:25:12Z</time>
		</trkpt>
		<trkpt lat="54.1722030639648" lon="13.0725927352905">
			<ele>53.7000007629395</ele>
			<time>2014-04-13T09:25:13Z</time>
		</trkpt>
		<trkpt lat="54.1721611022949" lon="13.0725440979004">
			<ele>53.0999984741211</ele>
			<time>2014-04-13T09:25:14Z</time>
		</trkpt>
		<trkpt lat="54.1721115112305" lon="13.072527885437">
			<ele>53.0999984741211</ele>
			<time>2014-04-13T09:25:15Z</time>
		</trkpt>
		<trkpt lat="54.172061920166" lon="13.0724954605103">
			<ele>53</ele>
			<time>2014-04-13T09:25:16Z</time>
		</trkpt>
		<trkpt lat="54.1720161437988" lon="13.072470664978">
			<ele>52.5999984741211</ele>
			<time>2014-04-13T09:25:17Z</time>
		</trkpt>
		<trkpt lat="54.1719741821289" lon="13.0724420547485">
			<ele>52.2999992370605</ele>
			<time>2014-04-13T09:25:18Z</time>
		</trkpt>
		<trkpt lat="54.171932220459" lon="13.0723991394043">
			<ele>51.9000015258789</ele>
			<time>2014-04-13T09:25:19Z</time>
		</trkpt>
		<trkpt lat="54.1718788146973" lon="13.0723724365234">
			<ele>52.2999992370605</ele>
			<time>2014-04-13T09:25:20Z</time>
		</trkpt>
		<trkpt lat="54.1718292236328" lon="13.0723505020142">
			<ele>52.0999984741211</ele>
			<time>2014-04-13T09:25:21Z</time>
		</trkpt>
		<trkpt lat="54.1717643737793" lon="13.0723400115967">
			<ele>52.4000015258789</ele>
			<time>2014-04-13T09:25:22Z</time>
		</trkpt>
		<trkpt lat="54.1717071533203" lon="13.0723352432251">
			<ele>52.9000015258789</ele>
			<time>2014-04-13T09:25:23Z</time>
		</trkpt>
		<trkpt lat="54.171630859375" lon="13.0723190307617">
			<ele>52.9000015258789</ele>
			<time>2014-04-13T09:25:25Z</time>
		</trkpt>
		<trkpt lat="54.1715774536133" lon="13.0723085403442">
			<ele>53.2000007629395</ele>
			<time>2014-04-13T09:25:26Z</time>
		</trkpt>
		<trkpt lat="54.171501159668" lon="13.0723094940186">
			<ele>52.5</ele>
			<time>2014-04-13T09:25:28Z</time>
		</trkpt>
		<trkpt lat="54.171443939209" lon="13.072304725647">
			<ele>52.2999992370605</ele>
			<time>2014-04-13T09:25:29Z</time>
		</trkpt>
		<trkpt lat="54.1713905334473" lon="13.0723028182983">
			<ele>51.2999992370605</ele>
			<time>2014-04-13T09:25:30Z</time>
		</trkpt>
		<trkpt lat="54.1713180541992" lon="13.0723247528076">
			<ele>54.9000015258789</ele>
			<time>2014-04-13T09:25:31Z</time>
		</trkpt>
		<trkpt lat="54.1712532043457" lon="13.0723352432251">
			<ele>56.2999992370605</ele>
			<time>2014-04-13T09:25:32Z</time>
		</trkpt>
		<trkpt lat="54.1711959838867" lon="13.0723571777344">
			<ele>56.5999984741211</ele>
			<time>2014-04-13T09:25:33Z</time>
		</trkpt>
		<trkpt lat="54.1711463928223" lon="13.0723762512207">
			<ele>57.0999984741211</ele>
			<time>2014-04-13T09:25:34Z</time>
		</trkpt>
		<trkpt lat="54.171085357666" lon="13.0723514556885">
			<ele>56.0999984741211</ele>
			<time>2014-04-13T09:25:36Z</time>
		</trkpt>
		<trkpt lat="54.1709594726563" lon="13.0723886489868">
			<ele>54.0999984741211</ele>
			<time>2014-04-13T09:25:38Z</time>
		</trkpt>
		<trkpt lat="54.1708946228027" lon="13.0724267959595">
			<ele>53.4000015258789</ele>
			<time>2014-04-13T09:25:39Z</time>
		</trkpt>
		<trkpt lat="54.1708297729492" lon="13.0724401473999">
			<ele>52.7999992370605</ele>
			<time>2014-04-13T09:25:40Z</time>
		</trkpt>
		<trkpt lat="54.170783996582" lon="13.0724601745605">
			<ele>52.7999992370605</ele>
			<time>2014-04-13T09:25:41Z</time>
		</trkpt>
		<trkpt lat="54.1707305908203" lon="13.0724620819092">
			<ele>52.9000015258789</ele>
			<time>2014-04-13T09:25:42Z</time>
		</trkpt>
		<trkpt lat="54.1706428527832" lon="13.072491645813">
			<ele>53</ele>
			<time>2014-04-13T09:25:44Z</time>
		</trkpt>
		<trkpt lat="54.1705780029297" lon="13.0725030899048">
			<ele>55.2000007629395</ele>
			<time>2014-04-13T09:25:45Z</time>
		</trkpt>
		<trkpt lat="54.170524597168" lon="13.0725088119507">
			<ele>56.2999992370605</ele>
			<time>2014-04-13T09:25:46Z</time>
		</trkpt>
		<trkpt lat="54.1704750061035" lon="13.0725059509277">
			<ele>56.2000007629395</ele>
			<time>2014-04-13T09:25:47Z</time>
		</trkpt>
		<trkpt lat="54.1704216003418" lon="13.0725021362305">
			<ele>55.5999984741211</ele>
			<time>2014-04-13T09:25:48Z</time>
		</trkpt>
		<trkpt lat="54.1703681945801" lon="13.0724925994873">
			<ele>56.2000007629395</ele>
			<time>2014-04-13T09:25:49Z</time>
		</trkpt>
		<trkpt lat="54.1703071594238" lon="13.0724849700928">
			<ele>55.5</ele>
			<time>2014-04-13T09:25:50Z</time>
		</trkpt>
		<trkpt lat="54.1702499389648" lon="13.0725078582764">
			<ele>55.2999992370605</ele>
			<time>2014-04-13T09:25:51Z</time>
		</trkpt>
		<trkpt lat="54.1701965332031" lon="13.0725145339966">
			<ele>54.9000015258789</ele>
			<time>2014-04-13T09:25:52Z</time>
		</trkpt>
		<trkpt lat="54.1700897216797" lon="13.0724935531616">
			<ele>56.0999984741211</ele>
			<time>2014-04-13T09:25:54Z</time>
		</trkpt>
		<trkpt lat="54.1700134277344" lon="13.0724925994873">
			<ele>56.5999984741211</ele>
			<time>2014-04-13T09:25:55Z</time>
		</trkpt>
		<trkpt lat="54.1699447631836" lon="13.072491645813">
			<ele>56.7999992370605</ele>
			<time>2014-04-13T09:25:56Z</time>
		</trkpt>
		<trkpt lat="54.1698875427246" lon="13.0724687576294">
			<ele>57.0999984741211</ele>
			<time>2014-04-13T09:25:57Z</time>
		</trkpt>
		<trkpt lat="54.1698188781738" lon="13.0724611282349">
			<ele>57.0999984741211</ele>
			<time>2014-04-13T09:25:58Z</time>
		</trkpt>
		<trkpt lat="54.1697540283203" lon="13.0724515914917">
			<ele>57</ele>
			<time>2014-04-13T09:25:59Z</time>
		</trkpt>
		<trkpt lat="54.1696929931641" lon="13.0724239349365">
			<ele>57.2000007629395</ele>
			<time>2014-04-13T09:26:00Z</time>
		</trkpt>
		<trkpt lat="54.1696281433105" lon="13.0724010467529">
			<ele>57.4000015258789</ele>
			<time>2014-04-13T09:26:01Z</time>
		</trkpt>
		<trkpt lat="54.1695709228516" lon="13.0723638534546">
			<ele>57.5</ele>
			<time>2014-04-13T09:26:02Z</time>
		</trkpt>
		<trkpt lat="54.1695137023926" lon="13.0723466873169">
			<ele>57.0999984741211</ele>
			<time>2014-04-13T09:26:03Z</time>
		</trkpt>
		<trkpt lat="54.1694602966309" lon="13.0723152160645">
			<ele>57.2000007629395</ele>
			<time>2014-04-13T09:26:04Z</time>
		</trkpt>
		<trkpt lat="54.1694068908691" lon="13.0722751617432">
			<ele>58</ele>
			<time>2014-04-13T09:26:05Z</time>
		</trkpt>
		<trkpt lat="54.1693572998047" lon="13.0722255706787">
			<ele>57.5</ele>
			<time>2014-04-13T09:26:06Z</time>
		</trkpt>
		<trkpt lat="54.1693077087402" lon="13.0721759796143">
			<ele>57.0999984741211</ele>
			<time>2014-04-13T09:26:07Z</time>
		</trkpt>
		<trkpt lat="54.1692543029785" lon="13.0721311569214">
			<ele>57.2000007629395</ele>
			<time>2014-04-13T09:26:08Z</time>
		</trkpt>
		<trkpt lat="54.1692085266113" lon="13.072096824646">
			<ele>57.5999984741211</ele>
			<time>2014-04-13T09:26:09Z</time>
		</trkpt>
		<trkpt lat="54.1691551208496" lon="13.0720643997192">
			<ele>57.9000015258789</ele>
			<time>2014-04-13T09:26:10Z</time>
		</trkpt>
		<trkpt lat="54.1691055297852" lon="13.07204246521">
			<ele>58.2999992370605</ele>
			<time>2014-04-13T09:26:11Z</time>
		</trkpt>
		<trkpt lat="54.1690559387207" lon="13.0720233917236">
			<ele>58.7000007629395</ele>
			<time>2014-04-13T09:26:12Z</time>
		</trkpt>
		<trkpt lat="54.1689987182617" lon="13.0720043182373">
			<ele>58.5</ele>
			<time>2014-04-13T09:26:13Z</time>
		</trkpt>
		<trkpt lat="54.1689453125" lon="13.0719833374023">
			<ele>58.7000007629395</ele>
			<time>2014-04-13T09:26:14Z</time>
		</trkpt>
		<trkpt lat="54.168888092041" lon="13.0719861984253">
			<ele>58.9000015258789</ele>
			<time>2014-04-13T09:26:15Z</time>
		</trkpt>
		<trkpt lat="54.1688346862793" lon="13.0719795227051">
			<ele>58.5999984741211</ele>
			<time>2014-04-13T09:26:16Z</time>
		</trkpt>
		<trkpt lat="54.1687774658203" lon="13.0719795227051">
			<ele>58.5999984741211</ele>
			<time>2014-04-13T09:26:17Z</time>
		</trkpt>
		<trkpt lat="54.1687240600586" lon="13.0719776153564">
			<ele>58.2999992370605</ele>
			<time>2014-04-13T09:26:18Z</time>
		</trkpt>
		<trkpt lat="54.1686325073242" lon="13.0719652175903">
			<ele>56</ele>
			<time>2014-04-13T09:26:20Z</time>
		</trkpt>
		<trkpt lat="54.1685791015625" lon="13.0719652175903">
			<ele>56</ele>
			<time>2014-04-13T09:26:21Z</time>
		</trkpt>
		<trkpt lat="54.168529510498" lon="13.0719575881958">
			<ele>56.0999984741211</ele>
			<time>2014-04-13T09:26:22Z</time>
		</trkpt>
		<trkpt lat="54.1684799194336" lon="13.0719442367554">
			<ele>56.4000015258789</ele>
			<time>2014-04-13T09:26:23Z</time>
		</trkpt>
		<trkpt lat="54.1684341430664" lon="13.0719270706177">
			<ele>56.7999992370605</ele>
			<time>2014-04-13T09:26:24Z</time>
		</trkpt>
		<trkpt lat="54.168384552002" lon="13.071925163269">
			<ele>56.7000007629395</ele>
			<time>2014-04-13T09:26:25Z</time>
		</trkpt>
		<trkpt lat="54.1683311462402" lon="13.0719194412231">
			<ele>56.5</ele>
			<time>2014-04-13T09:26:26Z</time>
		</trkpt>
		<trkpt lat="54.1682739257813" lon="13.0719223022461">
			<ele>56.7000007629395</ele>
			<time>2014-04-13T09:26:27Z</time>
		</trkpt>
		<trkpt lat="54.1682205200195" lon="13.0719194412231">
			<ele>56.7999992370605</ele>
			<time>2014-04-13T09:26:28Z</time>
		</trkpt>
		<trkpt lat="54.1681671142578" lon="13.0719261169434">
			<ele>57.9000015258789</ele>
			<time>2014-04-13T09:26:29Z</time>
		</trkpt>
		<trkpt lat="54.1681213378906" lon="13.0719213485718">
			<ele>57.5</ele>
			<time>2014-04-13T09:26:30Z</time>
		</trkpt>
		<trkpt lat="54.168025970459" lon="13.0719184875488">
			<ele>57.9000015258789</ele>
			<time>2014-04-13T09:26:32Z</time>
		</trkpt>
		<trkpt lat="54.1679763793945" lon="13.071925163269">
			<ele>57.2999992370605</ele>
			<time>2014-04-13T09:26:33Z</time>
		</trkpt>
		<trkpt lat="54.1679267883301" lon="13.0719308853149">
			<ele>57.2999992370605</ele>
			<time>2014-04-13T09:26:34Z</time>
		</trkpt>
		<trkpt lat="54.1678695678711" lon="13.0719213485718">
			<ele>56.5999984741211</ele>
			<time>2014-04-13T09:26:35Z</time>
		</trkpt>
		<trkpt lat="54.1678085327148" lon="13.0719299316406">
			<ele>57.4000015258789</ele>
			<time>2014-04-13T09:26:36Z</time>
		</trkpt>
		<trkpt lat="54.1677207946777" lon="13.0719203948975">
			<ele>58.2000007629395</ele>
			<time>2014-04-13T09:26:38Z</time>
		</trkpt>
		<trkpt lat="54.1676750183105" lon="13.071925163269">
			<ele>58.4000015258789</ele>
			<time>2014-04-13T09:26:39Z</time>
		</trkpt>
		<trkpt lat="54.1676254272461" lon="13.0719289779663">
			<ele>58.5999984741211</ele>
			<time>2014-04-13T09:26:40Z</time>
		</trkpt>
		<trkpt lat="54.1675758361816" lon="13.0719356536865">
			<ele>58.4000015258789</ele>
			<time>2014-04-13T09:26:41Z</time>
		</trkpt>
		<trkpt lat="54.1675300598145" lon="13.0719394683838">
			<ele>58.2999992370605</ele>
			<time>2014-04-13T09:26:42Z</time>
		</trkpt>
		<trkpt lat="54.16748046875" lon="13.0719432830811">
			<ele>58.4000015258789</ele>
			<time>2014-04-13T09:26:43Z</time>
		</trkpt>
		<trkpt lat="54.1674308776855" lon="13.0719442367554">
			<ele>58.5999984741211</ele>
			<time>2014-04-13T09:26:44Z</time>
		</trkpt>
		<trkpt lat="54.1673851013184" lon="13.0719432830811">
			<ele>58.4000015258789</ele>
			<time>2014-04-13T09:26:45Z</time>
		</trkpt>
		<trkpt lat="54.1672973632813" lon="13.0719442367554">
			<ele>58.7000007629395</ele>
			<time>2014-04-13T09:26:47Z</time>
		</trkpt>
		<trkpt lat="54.1672477722168" lon="13.071946144104">
			<ele>58.5999984741211</ele>
			<time>2014-04-13T09:26:48Z</time>
		</trkpt>
		<trkpt lat="54.1671562194824" lon="13.0719547271729">
			<ele>58.5999984741211</ele>
			<time>2014-04-13T09:26:50Z</time>
		</trkpt>
		<trkpt lat="54.1670684814453" lon="13.0719652175903">
			<ele>58.5</ele>
			<time>2014-04-13T09:26:52Z</time>
		</trkpt>
		<trkpt lat="54.1669883728027" lon="13.0719709396362">
			<ele>58.4000015258789</ele>
			<time>2014-04-13T09:26:54Z</time>
		</trkpt>
		<trkpt lat="54.1669425964355" lon="13.0719776153564">
			<ele>58.5999984741211</ele>
			<time>2014-04-13T09:26:55Z</time>
		</trkpt>
		<trkpt lat="54.1668930053711" lon="13.0719900131226">
			<ele>58.5</ele>
			<time>2014-04-13T09:26:56Z</time>
		</trkpt>
		<trkpt lat="54.1668090820313" lon="13.0720043182373">
			<ele>59.0999984741211</ele>
			<time>2014-04-13T09:26:58Z</time>
		</trkpt>
		<trkpt lat="54.1667251586914" lon="13.072021484375">
			<ele>59.0999984741211</ele>
			<time>2014-04-13T09:27:00Z</time>
		</trkpt>
		<trkpt lat="54.1666412353516" lon="13.072039604187">
			<ele>58.9000015258789</ele>
			<time>2014-04-13T09:27:02Z</time>
		</trkpt>
		<trkpt lat="54.1665954589844" lon="13.0720481872559">
			<ele>58.9000015258789</ele>
			<time>2014-04-13T09:27:03Z</time>
		</trkpt>
		<trkpt lat="54.1665496826172" lon="13.0720586776733">
			<ele>58.7999992370605</ele>
			<time>2014-04-13T09:27:04Z</time>
		</trkpt>
		<trkpt lat="54.1664619445801" lon="13.0720720291138">
			<ele>58.5999984741211</ele>
			<time>2014-04-13T09:27:06Z</time>
		</trkpt>
		<trkpt lat="54.166374206543" lon="13.0720891952515">
			<ele>58.7000007629395</ele>
			<time>2014-04-13T09:27:08Z</time>
		</trkpt>
		<trkpt lat="54.1662902832031" lon="13.0721111297607">
			<ele>58.9000015258789</ele>
			<time>2014-04-13T09:27:10Z</time>
		</trkpt>
		<trkpt lat="54.1662063598633" lon="13.0721302032471">
			<ele>58.9000015258789</ele>
			<time>2014-04-13T09:27:12Z</time>
		</trkpt>
		<trkpt lat="54.1661224365234" lon="13.0721473693848">
			<ele>58.5999984741211</ele>
			<time>2014-04-13T09:27:14Z</time>
		</trkpt>
		<trkpt lat="54.1660423278809" lon="13.0721645355225">
			<ele>59.0999984741211</ele>
			<time>2014-04-13T09:27:16Z</time>
		</trkpt>
		<trkpt lat="54.165958404541" lon="13.0721864700317">
			<ele>59.2000007629395</ele>
			<time>2014-04-13T09:27:18Z</time>
		</trkpt>
		<trkpt lat="54.1658821105957" lon="13.072208404541">
			<ele>58.7999992370605</ele>
			<time>2014-04-13T09:27:20Z</time>
		</trkpt>
		<trkpt lat="54.1657981872559" lon="13.0722208023071">
			<ele>58.9000015258789</ele>
			<time>2014-04-13T09:27:22Z</time>
		</trkpt>
		<trkpt lat="54.1657218933105" lon="13.0722465515137">
			<ele>58.9000015258789</ele>
			<time>2014-04-13T09:27:24Z</time>
		</trkpt>
		<trkpt lat="54.165641784668" lon="13.0722665786743">
			<ele>59.2000007629395</ele>
			<time>2014-04-13T09:27:26Z</time>
		</trkpt>
		<trkpt lat="54.1655654907227" lon="13.0722808837891">
			<ele>59.5</ele>
			<time>2014-04-13T09:27:28Z</time>
		</trkpt>
		<trkpt lat="54.1654930114746" lon="13.0722999572754">
			<ele>60</ele>
			<time>2014-04-13T09:27:30Z</time>
		</trkpt>
		<trkpt lat="54.1654205322266" lon="13.0723190307617">
			<ele>60.2999992370605</ele>
			<time>2014-04-13T09:27:32Z</time>
		</trkpt>
		<trkpt lat="54.1653480529785" lon="13.0723342895508">
			<ele>60.2999992370605</ele>
			<time>2014-04-13T09:27:34Z</time>
		</trkpt>
		<trkpt lat="54.1652755737305" lon="13.0723476409912">
			<ele>60.2999992370605</ele>
			<time>2014-04-13T09:27:36Z</time>
		</trkpt>
		<trkpt lat="54.1652069091797" lon="13.072361946106">
			<ele>60.2000007629395</ele>
			<time>2014-04-13T09:27:38Z</time>
		</trkpt>
		<trkpt lat="54.1651382446289" lon="13.072377204895">
			<ele>60.0999984741211</ele>
			<time>2014-04-13T09:27:40Z</time>
		</trkpt>
		<trkpt lat="54.1650733947754" lon="13.0723943710327">
			<ele>60.2000007629395</ele>
			<time>2014-04-13T09:27:42Z</time>
		</trkpt>
		<trkpt lat="54.1650009155273" lon="13.0724086761475">
			<ele>60.4000015258789</ele>
			<time>2014-04-13T09:27:44Z</time>
		</trkpt>
		<trkpt lat="54.1649360656738" lon="13.0724258422852">
			<ele>60.5</ele>
			<time>2014-04-13T09:27:46Z</time>
		</trkpt>
		<trkpt lat="54.164867401123" lon="13.0724430084229">
			<ele>60.7000007629395</ele>
			<time>2014-04-13T09:27:48Z</time>
		</trkpt>
		<trkpt lat="54.1648025512695" lon="13.0724611282349">
			<ele>60.5999984741211</ele>
			<time>2014-04-13T09:27:50Z</time>
		</trkpt>
		<trkpt lat="54.164737701416" lon="13.072473526001">
			<ele>60.5999984741211</ele>
			<time>2014-04-13T09:27:52Z</time>
		</trkpt>
		<trkpt lat="54.164665222168" lon="13.0724897384644">
			<ele>60.5999984741211</ele>
			<time>2014-04-13T09:27:54Z</time>
		</trkpt>
		<trkpt lat="54.1645965576172" lon="13.0725030899048">
			<ele>60.7999992370605</ele>
			<time>2014-04-13T09:27:56Z</time>
		</trkpt>
		<trkpt lat="54.1645240783691" lon="13.0725145339966">
			<ele>60.9000015258789</ele>
			<time>2014-04-13T09:27:58Z</time>
		</trkpt>
		<trkpt lat="54.1644515991211" lon="13.0725374221802">
			<ele>61</ele>
			<time>2014-04-13T09:28:00Z</time>
		</trkpt>
		<trkpt lat="54.164379119873" lon="13.0725517272949">
			<ele>61.2999992370605</ele>
			<time>2014-04-13T09:28:02Z</time>
		</trkpt>
		<trkpt lat="54.164306640625" lon="13.072564125061">
			<ele>61.2000007629395</ele>
			<time>2014-04-13T09:28:04Z</time>
		</trkpt>
		<trkpt lat="54.164234161377" lon="13.0725774765015">
			<ele>61.2999992370605</ele>
			<time>2014-04-13T09:28:06Z</time>
		</trkpt>
		<trkpt lat="54.1641616821289" lon="13.0725898742676">
			<ele>61.2999992370605</ele>
			<time>2014-04-13T09:28:08Z</time>
		</trkpt>
		<trkpt lat="54.1640853881836" lon="13.0726022720337">
			<ele>61.5</ele>
			<time>2014-04-13T09:28:10Z</time>
		</trkpt>
		<trkpt lat="54.1640090942383" lon="13.0726146697998">
			<ele>61.7999992370605</ele>
			<time>2014-04-13T09:28:12Z</time>
		</trkpt>
		<trkpt lat="54.163932800293" lon="13.0726318359375">
			<ele>61.9000015258789</ele>
			<time>2014-04-13T09:28:14Z</time>
		</trkpt>
		<trkpt lat="54.1638488769531" lon="13.072642326355">
			<ele>62</ele>
			<time>2014-04-13T09:28:16Z</time>
		</trkpt>
		<trkpt lat="54.163761138916" lon="13.0726547241211">
			<ele>62.0999984741211</ele>
			<time>2014-04-13T09:28:18Z</time>
		</trkpt>
		<trkpt lat="54.1636695861816" lon="13.0726652145386">
			<ele>62.0999984741211</ele>
			<time>2014-04-13T09:28:20Z</time>
		</trkpt>
		<trkpt lat="54.1636238098145" lon="13.0726699829102">
			<ele>62</ele>
			<time>2014-04-13T09:28:21Z</time>
		</trkpt>
		<trkpt lat="54.1635780334473" lon="13.0726795196533">
			<ele>62.0999984741211</ele>
			<time>2014-04-13T09:28:22Z</time>
		</trkpt>
		<trkpt lat="54.1635322570801" lon="13.0726871490479">
			<ele>61.9000015258789</ele>
			<time>2014-04-13T09:28:23Z</time>
		</trkpt>
		<trkpt lat="54.1634826660156" lon="13.0726900100708">
			<ele>62.0999984741211</ele>
			<time>2014-04-13T09:28:24Z</time>
		</trkpt>
		<trkpt lat="54.1634368896484" lon="13.072699546814">
			<ele>61.9000015258789</ele>
			<time>2014-04-13T09:28:25Z</time>
		</trkpt>
		<trkpt lat="54.163387298584" lon="13.0727100372314">
			<ele>61.7999992370605</ele>
			<time>2014-04-13T09:28:26Z</time>
		</trkpt>
		<trkpt lat="54.1633377075195" lon="13.0727167129517">
			<ele>61.7999992370605</ele>
			<time>2014-04-13T09:28:27Z</time>
		</trkpt>
		<trkpt lat="54.1632881164551" lon="13.0727243423462">
			<ele>61.7999992370605</ele>
			<time>2014-04-13T09:28:28Z</time>
		</trkpt>
		<trkpt lat="54.1632385253906" lon="13.0727319717407">
			<ele>61.7000007629395</ele>
			<time>2014-04-13T09:28:29Z</time>
		</trkpt>
		<trkpt lat="54.1631889343262" lon="13.0727386474609">
			<ele>61.9000015258789</ele>
			<time>2014-04-13T09:28:30Z</time>
		</trkpt>
		<trkpt lat="54.1631393432617" lon="13.0727443695068">
			<ele>62</ele>
			<time>2014-04-13T09:28:31Z</time>
		</trkpt>
		<trkpt lat="54.1630897521973" lon="13.07275390625">
			<ele>62.0999984741211</ele>
			<time>2014-04-13T09:28:32Z</time>
		</trkpt>
		<trkpt lat="54.1630363464355" lon="13.0727624893188">
			<ele>62.0999984741211</ele>
			<time>2014-04-13T09:28:33Z</time>
		</trkpt>
		<trkpt lat="54.1629905700684" lon="13.0727682113647">
			<ele>62.0999984741211</ele>
			<time>2014-04-13T09:28:34Z</time>
		</trkpt>
		<trkpt lat="54.1629409790039" lon="13.072774887085">
			<ele>62</ele>
			<time>2014-04-13T09:28:35Z</time>
		</trkpt>
		<trkpt lat="54.1628913879395" lon="13.0727815628052">
			<ele>62</ele>
			<time>2014-04-13T09:28:36Z</time>
		</trkpt>
		<trkpt lat="54.1628456115723" lon="13.0727882385254">
			<ele>62.0999984741211</ele>
			<time>2014-04-13T09:28:37Z</time>
		</trkpt>
		<trkpt lat="54.1627960205078" lon="13.0727968215942">
			<ele>61.9000015258789</ele>
			<time>2014-04-13T09:28:38Z</time>
		</trkpt>
		<trkpt lat="54.1627464294434" lon="13.0728034973145">
			<ele>61.7999992370605</ele>
			<time>2014-04-13T09:28:39Z</time>
		</trkpt>
		<trkpt lat="54.1626968383789" lon="13.072811126709">
			<ele>61.7000007629395</ele>
			<time>2014-04-13T09:28:40Z</time>
		</trkpt>
		<trkpt lat="54.1626434326172" lon="13.0728197097778">
			<ele>61.7000007629395</ele>
			<time>2014-04-13T09:28:41Z</time>
		</trkpt>
		<trkpt lat="54.1625938415527" lon="13.0728311538696">
			<ele>61.5</ele>
			<time>2014-04-13T09:28:42Z</time>
		</trkpt>
		<trkpt lat="54.1625442504883" lon="13.0728397369385">
			<ele>61.5999984741211</ele>
			<time>2014-04-13T09:28:43Z</time>
		</trkpt>
		<trkpt lat="54.1624908447266" lon="13.072850227356">
			<ele>61.5</ele>
			<time>2014-04-13T09:28:44Z</time>
		</trkpt>
		<trkpt lat="54.1624374389648" lon="13.0728588104248">
			<ele>61.4000015258789</ele>
			<time>2014-04-13T09:28:45Z</time>
		</trkpt>
		<trkpt lat="54.1623840332031" lon="13.0728664398193">
			<ele>61.2999992370605</ele>
			<time>2014-04-13T09:28:46Z</time>
		</trkpt>
		<trkpt lat="54.1623268127441" lon="13.0728769302368">
			<ele>61.0999984741211</ele>
			<time>2014-04-13T09:28:47Z</time>
		</trkpt>
		<trkpt lat="54.1622734069824" lon="13.0728893280029">
			<ele>60.9000015258789</ele>
			<time>2014-04-13T09:28:48Z</time>
		</trkpt>
		<trkpt lat="54.1622161865234" lon="13.0728969573975">
			<ele>60.5999984741211</ele>
			<time>2014-04-13T09:28:49Z</time>
		</trkpt>
		<trkpt lat="54.1621627807617" lon="13.0729112625122">
			<ele>60.5</ele>
			<time>2014-04-13T09:28:50Z</time>
		</trkpt>
		<trkpt lat="54.162109375" lon="13.072925567627">
			<ele>60.2000007629395</ele>
			<time>2014-04-13T09:28:51Z</time>
		</trkpt>
		<trkpt lat="54.162052154541" lon="13.072940826416">
			<ele>60.2999992370605</ele>
			<time>2014-04-13T09:28:52Z</time>
		</trkpt>
		<trkpt lat="54.1619911193848" lon="13.0729513168335">
			<ele>60.0999984741211</ele>
			<time>2014-04-13T09:28:53Z</time>
		</trkpt>
		<trkpt lat="54.1619338989258" lon="13.0729656219482">
			<ele>59.9000015258789</ele>
			<time>2014-04-13T09:28:54Z</time>
		</trkpt>
		<trkpt lat="54.1618766784668" lon="13.0729827880859">
			<ele>59.7999992370605</ele>
			<time>2014-04-13T09:28:55Z</time>
		</trkpt>
		<trkpt lat="54.1618194580078" lon="13.0730009078979">
			<ele>59.5999984741211</ele>
			<time>2014-04-13T09:28:56Z</time>
		</trkpt>
		<trkpt lat="54.1617622375488" lon="13.0730199813843">
			<ele>59.2999992370605</ele>
			<time>2014-04-13T09:28:57Z</time>
		</trkpt>
		<trkpt lat="54.1617050170898" lon="13.0730390548706">
			<ele>59.0999984741211</ele>
			<time>2014-04-13T09:28:58Z</time>
		</trkpt>
		<trkpt lat="54.1616477966309" lon="13.0730581283569">
			<ele>58.7000007629395</ele>
			<time>2014-04-13T09:28:59Z</time>
		</trkpt>
		<trkpt lat="54.1615905761719" lon="13.0730781555176">
			<ele>58.5</ele>
			<time>2014-04-13T09:29:00Z</time>
		</trkpt>
		<trkpt lat="54.1615333557129" lon="13.0731048583984">
			<ele>58.4000015258789</ele>
			<time>2014-04-13T09:29:01Z</time>
		</trkpt>
		<trkpt lat="54.1614761352539" lon="13.073130607605">
			<ele>58.2999992370605</ele>
			<time>2014-04-13T09:29:02Z</time>
		</trkpt>
		<trkpt lat="54.1614151000977" lon="13.0731573104858">
			<ele>58</ele>
			<time>2014-04-13T09:29:03Z</time>
		</trkpt>
		<trkpt lat="54.1613616943359" lon="13.0731868743896">
			<ele>57.7999992370605</ele>
			<time>2014-04-13T09:29:04Z</time>
		</trkpt>
		<trkpt lat="54.161304473877" lon="13.0732202529907">
			<ele>57.9000015258789</ele>
			<time>2014-04-13T09:29:05Z</time>
		</trkpt>
		<trkpt lat="54.161247253418" lon="13.0732498168945">
			<ele>57.7000007629395</ele>
			<time>2014-04-13T09:29:06Z</time>
		</trkpt>
		<trkpt lat="54.1611938476563" lon="13.073281288147">
			<ele>57.5</ele>
			<time>2014-04-13T09:29:07Z</time>
		</trkpt>
		<trkpt lat="54.1611366271973" lon="13.0733165740967">
			<ele>57.4000015258789</ele>
			<time>2014-04-13T09:29:08Z</time>
		</trkpt>
		<trkpt lat="54.1610832214355" lon="13.0733509063721">
			<ele>57.4000015258789</ele>
			<time>2014-04-13T09:29:09Z</time>
		</trkpt>
		<trkpt lat="54.1610260009766" lon="13.0733861923218">
			<ele>57</ele>
			<time>2014-04-13T09:29:10Z</time>
		</trkpt>
		<trkpt lat="54.1609764099121" lon="13.0734243392944">
			<ele>56.7999992370605</ele>
			<time>2014-04-13T09:29:11Z</time>
		</trkpt>
		<trkpt lat="54.1609153747559" lon="13.0734596252441">
			<ele>56.7000007629395</ele>
			<time>2014-04-13T09:29:12Z</time>
		</trkpt>
		<trkpt lat="54.1608619689941" lon="13.0734977722168">
			<ele>56.7000007629395</ele>
			<time>2014-04-13T09:29:13Z</time>
		</trkpt>
		<trkpt lat="54.1608085632324" lon="13.0735368728638">
			<ele>56.5999984741211</ele>
			<time>2014-04-13T09:29:14Z</time>
		</trkpt>
		<trkpt lat="54.1607551574707" lon="13.0735740661621">
			<ele>56.5999984741211</ele>
			<time>2014-04-13T09:29:15Z</time>
		</trkpt>
		<trkpt lat="54.1606979370117" lon="13.0736179351807">
			<ele>56.4000015258789</ele>
			<time>2014-04-13T09:29:16Z</time>
		</trkpt>
		<trkpt lat="54.16064453125" lon="13.0736589431763">
			<ele>56.2999992370605</ele>
			<time>2014-04-13T09:29:17Z</time>
		</trkpt>
		<trkpt lat="54.1605911254883" lon="13.0737018585205">
			<ele>56.2999992370605</ele>
			<time>2014-04-13T09:29:18Z</time>
		</trkpt>
		<trkpt lat="54.1605339050293" lon="13.0737409591675">
			<ele>56</ele>
			<time>2014-04-13T09:29:19Z</time>
		</trkpt>
		<trkpt lat="54.1604804992676" lon="13.0737781524658">
			<ele>55.9000015258789</ele>
			<time>2014-04-13T09:29:20Z</time>
		</trkpt>
		<trkpt lat="54.1604232788086" lon="13.0738182067871">
			<ele>55.9000015258789</ele>
			<time>2014-04-13T09:29:21Z</time>
		</trkpt>
		<trkpt lat="54.1603698730469" lon="13.0738582611084">
			<ele>55.7999992370605</ele>
			<time>2014-04-13T09:29:22Z</time>
		</trkpt>
		<trkpt lat="54.1603126525879" lon="13.0739002227783">
			<ele>55.9000015258789</ele>
			<time>2014-04-13T09:29:23Z</time>
		</trkpt>
		<trkpt lat="54.1602630615234" lon="13.0739412307739">
			<ele>55.5999984741211</ele>
			<time>2014-04-13T09:29:24Z</time>
		</trkpt>
		<trkpt lat="54.1602096557617" lon="13.0739774703979">
			<ele>55.7000007629395</ele>
			<time>2014-04-13T09:29:25Z</time>
		</trkpt>
		<trkpt lat="54.16015625" lon="13.0740146636963">
			<ele>55.5</ele>
			<time>2014-04-13T09:29:26Z</time>
		</trkpt>
		<trkpt lat="54.1601028442383" lon="13.074049949646">
			<ele>55.7000007629395</ele>
			<time>2014-04-13T09:29:27Z</time>
		</trkpt>
		<trkpt lat="54.1600494384766" lon="13.0740900039673">
			<ele>55.7000007629395</ele>
			<time>2014-04-13T09:29:28Z</time>
		</trkpt>
		<trkpt lat="54.1599960327148" lon="13.0741262435913">
			<ele>55.7999992370605</ele>
			<time>2014-04-13T09:29:29Z</time>
		</trkpt>
		<trkpt lat="54.1599426269531" lon="13.0741662979126">
			<ele>55.7999992370605</ele>
			<time>2014-04-13T09:29:30Z</time>
		</trkpt>
		<trkpt lat="54.1598892211914" lon="13.0742025375366">
			<ele>55.7000007629395</ele>
			<time>2014-04-13T09:29:31Z</time>
		</trkpt>
		<trkpt lat="54.1598320007324" lon="13.0742416381836">
			<ele>55.7000007629395</ele>
			<time>2014-04-13T09:29:32Z</time>
		</trkpt>
		<trkpt lat="54.1597785949707" lon="13.0742845535278">
			<ele>55.5999984741211</ele>
			<time>2014-04-13T09:29:35Z</time>
		</trkpt>
		<trkpt lat="54.15966796875" lon="13.0743637084961">
			<ele>55.0999984741211</ele>
			<time>2014-04-13T09:29:36Z</time>
		</trkpt>
		<trkpt lat="54.1596031188965" lon="13.0744066238403">
			<ele>54.4000015258789</ele>
			<time>2014-04-13T09:29:36Z</time>
		</trkpt>
		<trkpt lat="54.1595458984375" lon="13.0744590759277">
			<ele>54</ele>
			<time>2014-04-13T09:29:38Z</time>
		</trkpt>
		<trkpt lat="54.1594886779785" lon="13.0745115280151">
			<ele>54</ele>
			<time>2014-04-13T09:29:38Z</time>
		</trkpt>
		<trkpt lat="54.1594161987305" lon="13.0745639801025">
			<ele>53.5999984741211</ele>
			<time>2014-04-13T09:29:40Z</time>
		</trkpt>
		<trkpt lat="54.1593627929688" lon="13.0746440887451">
			<ele>53.9000015258789</ele>
			<time>2014-04-13T09:29:40Z</time>
		</trkpt>
		<trkpt lat="54.1593208312988" lon="13.0747356414795">
			<ele>54</ele>
			<time>2014-04-13T09:29:41Z</time>
		</trkpt>
		<trkpt lat="54.1592864990234" lon="13.0748462677002">
			<ele>54.2000007629395</ele>
			<time>2014-04-13T09:29:42Z</time>
		</trkpt>
		<trkpt lat="54.159252166748" lon="13.0749540328979">
			<ele>53.4000015258789</ele>
			<time>2014-04-13T09:29:43Z</time>
		</trkpt>
		<trkpt lat="54.1592254638672" lon="13.075065612793">
			<ele>53.4000015258789</ele>
			<time>2014-04-13T09:29:44Z</time>
		</trkpt>
		<trkpt lat="54.1591987609863" lon="13.0751781463623">
			<ele>53.5</ele>
			<time>2014-04-13T09:29:45Z</time>
		</trkpt>
		<trkpt lat="54.1591873168945" lon="13.0752906799316">
			<ele>54.0999984741211</ele>
			<time>2014-04-13T09:29:46Z</time>
		</trkpt>
		<trkpt lat="54.1591758728027" lon="13.0754022598267">
			<ele>53.5</ele>
			<time>2014-04-13T09:29:47Z</time>
		</trkpt>
		<trkpt lat="54.1591529846191" lon="13.0755186080933">
			<ele>53.5999984741211</ele>
			<time>2014-04-13T09:29:48Z</time>
		</trkpt>
		<trkpt lat="54.1591339111328" lon="13.075626373291">
			<ele>53.5</ele>
			<time>2014-04-13T09:29:49Z</time>
		</trkpt>
		<trkpt lat="54.1591110229492" lon="13.0757465362549">
			<ele>54.5</ele>
			<time>2014-04-13T09:29:50Z</time>
		</trkpt>
		<trkpt lat="54.1590919494629" lon="13.0758666992188">
			<ele>54.4000015258789</ele>
			<time>2014-04-13T09:29:51Z</time>
		</trkpt>
		<trkpt lat="54.1590766906738" lon="13.0759792327881">
			<ele>54.5999984741211</ele>
			<time>2014-04-13T09:29:52Z</time>
		</trkpt>
		<trkpt lat="54.1590538024902" lon="13.0760946273804">
			<ele>54.9000015258789</ele>
			<time>2014-04-13T09:29:53Z</time>
		</trkpt>
		<trkpt lat="54.1590156555176" lon="13.0761985778809">
			<ele>54.7999992370605</ele>
			<time>2014-04-13T09:29:54Z</time>
		</trkpt>
		<trkpt lat="54.1589736938477" lon="13.0762910842896">
			<ele>54.9000015258789</ele>
			<time>2014-04-13T09:29:55Z</time>
		</trkpt>
		<trkpt lat="54.1589164733887" lon="13.0763731002808">
			<ele>55</ele>
			<time>2014-04-13T09:29:56Z</time>
		</trkpt>
		<trkpt lat="54.1588668823242" lon="13.076452255249">
			<ele>54.9000015258789</ele>
			<time>2014-04-13T09:29:57Z</time>
		</trkpt>
		<trkpt lat="54.158821105957" lon="13.0765333175659">
			<ele>54.9000015258789</ele>
			<time>2014-04-13T09:29:58Z</time>
		</trkpt>
		<trkpt lat="54.1587715148926" lon="13.0766134262085">
			<ele>54.7999992370605</ele>
			<time>2014-04-13T09:29:59Z</time>
		</trkpt>
		<trkpt lat="54.1587257385254" lon="13.076696395874">
			<ele>54.5999984741211</ele>
			<time>2014-04-13T09:30:01Z</time>
		</trkpt>
		<trkpt lat="54.1586761474609" lon="13.0767707824707">
			<ele>55</ele>
			<time>2014-04-13T09:30:01Z</time>
		</trkpt>
		<trkpt lat="54.1586265563965" lon="13.076847076416">
			<ele>54.7999992370605</ele>
			<time>2014-04-13T09:30:02Z</time>
		</trkpt>
		<trkpt lat="54.1585807800293" lon="13.0769262313843">
			<ele>54.7999992370605</ele>
			<time>2014-04-13T09:30:03Z</time>
		</trkpt>
		<trkpt lat="54.1585388183594" lon="13.0770092010498">
			<ele>54.7000007629395</ele>
			<time>2014-04-13T09:30:04Z</time>
		</trkpt>
		<trkpt lat="54.1584930419922" lon="13.0770902633667">
			<ele>54.5999984741211</ele>
			<time>2014-04-13T09:30:05Z</time>
		</trkpt>
		<trkpt lat="54.1584434509277" lon="13.077169418335">
			<ele>54.7000007629395</ele>
			<time>2014-04-13T09:30:06Z</time>
		</trkpt>
		<trkpt lat="54.1583976745605" lon="13.0772457122803">
			<ele>54.5999984741211</ele>
			<time>2014-04-13T09:30:07Z</time>
		</trkpt>
		<trkpt lat="54.1583518981934" lon="13.0773229598999">
			<ele>54.5</ele>
			<time>2014-04-13T09:30:08Z</time>
		</trkpt>
		<trkpt lat="54.1583061218262" lon="13.0773963928223">
			<ele>54.2000007629395</ele>
			<time>2014-04-13T09:30:09Z</time>
		</trkpt>
		<trkpt lat="54.1582641601563" lon="13.0774784088135">
			<ele>54.2000007629395</ele>
			<time>2014-04-13T09:30:10Z</time>
		</trkpt>
		<trkpt lat="54.1582145690918" lon="13.0775585174561">
			<ele>53.9000015258789</ele>
			<time>2014-04-13T09:30:11Z</time>
		</trkpt>
		<trkpt lat="54.1581649780273" lon="13.07763671875">
			<ele>53.7000007629395</ele>
			<time>2014-04-13T09:30:12Z</time>
		</trkpt>
		<trkpt lat="54.1581115722656" lon="13.077712059021">
			<ele>53.7999992370605</ele>
			<time>2014-04-13T09:30:13Z</time>
		</trkpt>
		<trkpt lat="54.1580581665039" lon="13.0777797698975">
			<ele>53.5</ele>
			<time>2014-04-13T09:30:14Z</time>
		</trkpt>
		<trkpt lat="54.1580047607422" lon="13.0778379440308">
			<ele>53.7000007629395</ele>
			<time>2014-04-13T09:30:15Z</time>
		</trkpt>
		<trkpt lat="54.1579551696777" lon="13.0779027938843">
			<ele>53.7999992370605</ele>
			<time>2014-04-13T09:30:16Z</time>
		</trkpt>
		<trkpt lat="54.157901763916" lon="13.0779705047607">
			<ele>53.7999992370605</ele>
			<time>2014-04-13T09:30:17Z</time>
		</trkpt>
		<trkpt lat="54.1578521728516" lon="13.0780353546143">
			<ele>54</ele>
			<time>2014-04-13T09:30:18Z</time>
		</trkpt>
		<trkpt lat="54.1578025817871" lon="13.0780839920044">
			<ele>53.7000007629395</ele>
			<time>2014-04-13T09:30:19Z</time>
		</trkpt>
		<trkpt lat="54.1577606201172" lon="13.0781230926514">
			<ele>54.4000015258789</ele>
			<time>2014-04-13T09:30:20Z</time>
		</trkpt>
		<trkpt lat="54.1577186584473" lon="13.0781736373901">
			<ele>54.2999992370605</ele>
			<time>2014-04-13T09:30:21Z</time>
		</trkpt>
		<trkpt lat="54.1576766967773" lon="13.0782155990601">
			<ele>54.5</ele>
			<time>2014-04-13T09:30:22Z</time>
		</trkpt>
		<trkpt lat="54.1576347351074" lon="13.0782623291016">
			<ele>54.5999984741211</ele>
			<time>2014-04-13T09:30:23Z</time>
		</trkpt>
		<trkpt lat="54.1575927734375" lon="13.0783081054688">
			<ele>54.5</ele>
			<time>2014-04-13T09:30:24Z</time>
		</trkpt>
		<trkpt lat="54.1575508117676" lon="13.0783376693726">
			<ele>54.5999984741211</ele>
			<time>2014-04-13T09:30:25Z</time>
		</trkpt>
		<trkpt lat="54.1575126647949" lon="13.0783767700195">
			<ele>54.0999984741211</ele>
			<time>2014-04-13T09:30:26Z</time>
		</trkpt>
		<trkpt lat="54.1574630737305" lon="13.078441619873">
			<ele>54.2000007629395</ele>
			<time>2014-04-13T09:30:28Z</time>
		</trkpt>
		<trkpt lat="54.157413482666" lon="13.0784473419189">
			<ele>53.2000007629395</ele>
			<time>2014-04-13T09:30:30Z</time>
		</trkpt>
		<trkpt lat="54.1573677062988" lon="13.0784254074097">
			<ele>54.5</ele>
			<time>2014-04-13T09:30:33Z</time>
		</trkpt>
		<trkpt lat="54.1573371887207" lon="13.0783462524414">
			<ele>54.5</ele>
			<time>2014-04-13T09:30:36Z</time>
		</trkpt>
		<trkpt lat="54.1572875976563" lon="13.0782642364502">
			<ele>55.2999992370605</ele>
			<time>2014-04-13T09:31:43Z</time>
		</trkpt>
		<trkpt lat="54.1572341918945" lon="13.0780582427979">
			<ele>55.2999992370605</ele>
			<time>2014-04-13T09:31:46Z</time>
		</trkpt>
		<trkpt lat="54.1572036743164" lon="13.0779447555542">
			<ele>55.7999992370605</ele>
			<time>2014-04-13T09:31:48Z</time>
		</trkpt>
		<trkpt lat="54.1571731567383" lon="13.0778026580811">
			<ele>55.2000007629395</ele>
			<time>2014-04-13T09:31:50Z</time>
		</trkpt>
		<trkpt lat="54.1571350097656" lon="13.0776643753052">
			<ele>55</ele>
			<time>2014-04-13T09:31:52Z</time>
		</trkpt>
		<trkpt lat="54.157112121582" lon="13.0775947570801">
			<ele>54.5999984741211</ele>
			<time>2014-04-13T09:31:53Z</time>
		</trkpt>
		<trkpt lat="54.1570892333984" lon="13.0775213241577">
			<ele>54.5</ele>
			<time>2014-04-13T09:31:54Z</time>
		</trkpt>
		<trkpt lat="54.1570663452148" lon="13.077449798584">
			<ele>54.2999992370605</ele>
			<time>2014-04-13T09:31:55Z</time>
		</trkpt>
		<trkpt lat="54.1570472717285" lon="13.0773754119873">
			<ele>54.4000015258789</ele>
			<time>2014-04-13T09:31:56Z</time>
		</trkpt>
		<trkpt lat="54.1570243835449" lon="13.0773048400879">
			<ele>54.7000007629395</ele>
			<time>2014-04-13T09:31:57Z</time>
		</trkpt>
		<trkpt lat="54.1570014953613" lon="13.0772352218628">
			<ele>54.5</ele>
			<time>2014-04-13T09:31:58Z</time>
		</trkpt>
		<trkpt lat="54.1569747924805" lon="13.0771627426147">
			<ele>54.4000015258789</ele>
			<time>2014-04-13T09:31:59Z</time>
		</trkpt>
		<trkpt lat="54.1569480895996" lon="13.0770921707153">
			<ele>54.2999992370605</ele>
			<time>2014-04-13T09:32:00Z</time>
		</trkpt>
		<trkpt lat="54.1569213867188" lon="13.0770215988159">
			<ele>54.0999984741211</ele>
			<time>2014-04-13T09:32:01Z</time>
		</trkpt>
		<trkpt lat="54.1568946838379" lon="13.0769481658936">
			<ele>53.7999992370605</ele>
			<time>2014-04-13T09:32:02Z</time>
		</trkpt>
		<trkpt lat="54.156867980957" lon="13.0768785476685">
			<ele>53.7999992370605</ele>
			<time>2014-04-13T09:32:03Z</time>
		</trkpt>
		<trkpt lat="54.1568374633789" lon="13.076810836792">
			<ele>53.5999984741211</ele>
			<time>2014-04-13T09:32:04Z</time>
		</trkpt>
		<trkpt lat="54.1568069458008" lon="13.0767393112183">
			<ele>53.5</ele>
			<time>2014-04-13T09:32:05Z</time>
		</trkpt>
		<trkpt lat="54.1567764282227" lon="13.0766744613647">
			<ele>53.5</ele>
			<time>2014-04-13T09:32:06Z</time>
		</trkpt>
		<trkpt lat="54.1567420959473" lon="13.0766077041626">
			<ele>53.5999984741211</ele>
			<time>2014-04-13T09:32:07Z</time>
		</trkpt>
		<trkpt lat="54.1567077636719" lon="13.0765428543091">
			<ele>53.5999984741211</ele>
			<time>2014-04-13T09:32:08Z</time>
		</trkpt>
		<trkpt lat="54.1566772460938" lon="13.0764722824097">
			<ele>53.4000015258789</ele>
			<time>2014-04-13T09:32:09Z</time>
		</trkpt>
		<trkpt lat="54.1566467285156" lon="13.0764064788818">
			<ele>53.5</ele>
			<time>2014-04-13T09:32:10Z</time>
		</trkpt>
		<trkpt lat="54.156608581543" lon="13.076340675354">
			<ele>53.4000015258789</ele>
			<time>2014-04-13T09:32:11Z</time>
		</trkpt>
		<trkpt lat="54.1565742492676" lon="13.0762701034546">
			<ele>53.2999992370605</ele>
			<time>2014-04-13T09:32:12Z</time>
		</trkpt>
		<trkpt lat="54.1565361022949" lon="13.0762052536011">
			<ele>53.2000007629395</ele>
			<time>2014-04-13T09:32:13Z</time>
		</trkpt>
		<trkpt lat="54.1565017700195" lon="13.0761461257935">
			<ele>53.4000015258789</ele>
			<time>2014-04-13T09:32:14Z</time>
		</trkpt>
		<trkpt lat="54.1564674377441" lon="13.076078414917">
			<ele>53.5</ele>
			<time>2014-04-13T09:32:15Z</time>
		</trkpt>
		<trkpt lat="54.1564331054688" lon="13.0760126113892">
			<ele>53.7000007629395</ele>
			<time>2014-04-13T09:32:16Z</time>
		</trkpt>
		<trkpt lat="54.1563987731934" lon="13.0759496688843">
			<ele>53.5999984741211</ele>
			<time>2014-04-13T09:32:17Z</time>
		</trkpt>
		<trkpt lat="54.1563377380371" lon="13.0758266448975">
			<ele>53.7999992370605</ele>
			<time>2014-04-13T09:32:19Z</time>
		</trkpt>
		<trkpt lat="54.1563110351563" lon="13.0757637023926">
			<ele>54</ele>
			<time>2014-04-13T09:32:20Z</time>
		</trkpt>
		<trkpt lat="54.15625" lon="13.0756530761719">
			<ele>54.0999984741211</ele>
			<time>2014-04-13T09:32:22Z</time>
		</trkpt>
		<trkpt lat="54.1562156677246" lon="13.0756006240845">
			<ele>54.0999984741211</ele>
			<time>2014-04-13T09:32:23Z</time>
		</trkpt>
		<trkpt lat="54.1561813354492" lon="13.0755472183228">
			<ele>54.0999984741211</ele>
			<time>2014-04-13T09:32:24Z</time>
		</trkpt>
		<trkpt lat="54.156120300293" lon="13.0754413604736">
			<ele>53.4000015258789</ele>
			<time>2014-04-13T09:32:26Z</time>
		</trkpt>
		<trkpt lat="54.1560592651367" lon="13.0753335952759">
			<ele>53.4000015258789</ele>
			<time>2014-04-13T09:32:28Z</time>
		</trkpt>
		<trkpt lat="54.1559982299805" lon="13.0752449035645">
			<ele>53.2000007629395</ele>
			<time>2014-04-13T09:32:30Z</time>
		</trkpt>
		<trkpt lat="54.1559371948242" lon="13.0751552581787">
			<ele>53.7000007629395</ele>
			<time>2014-04-13T09:32:32Z</time>
		</trkpt>
		<trkpt lat="54.155876159668" lon="13.075083732605">
			<ele>53.7999992370605</ele>
			<time>2014-04-13T09:32:34Z</time>
		</trkpt>
		<trkpt lat="54.1558036804199" lon="13.0750122070313">
			<ele>54.0999984741211</ele>
			<time>2014-04-13T09:32:36Z</time>
		</trkpt>
		<trkpt lat="54.15576171875" lon="13.0749750137329">
			<ele>53.9000015258789</ele>
			<time>2014-04-13T09:32:37Z</time>
		</trkpt>
		<trkpt lat="54.1556816101074" lon="13.0749130249023">
			<ele>54.0999984741211</ele>
			<time>2014-04-13T09:32:39Z</time>
		</trkpt>
		<trkpt lat="54.1556358337402" lon="13.0748815536499">
			<ele>54.4000015258789</ele>
			<time>2014-04-13T09:32:40Z</time>
		</trkpt>
		<trkpt lat="54.1555862426758" lon="13.0748538970947">
			<ele>53.9000015258789</ele>
			<time>2014-04-13T09:32:41Z</time>
		</trkpt>
		<trkpt lat="54.1555404663086" lon="13.0748233795166">
			<ele>53.5999984741211</ele>
			<time>2014-04-13T09:32:42Z</time>
		</trkpt>
		<trkpt lat="54.1554908752441" lon="13.0748052597046">
			<ele>53.4000015258789</ele>
			<time>2014-04-13T09:32:43Z</time>
		</trkpt>
		<trkpt lat="54.1554412841797" lon="13.0747785568237">
			<ele>53</ele>
			<time>2014-04-13T09:32:44Z</time>
		</trkpt>
		<trkpt lat="54.155387878418" lon="13.0747442245483">
			<ele>52.7000007629395</ele>
			<time>2014-04-13T09:32:45Z</time>
		</trkpt>
		<trkpt lat="54.1553382873535" lon="13.0747127532959">
			<ele>52.5999984741211</ele>
			<time>2014-04-13T09:32:46Z</time>
		</trkpt>
		<trkpt lat="54.1552925109863" lon="13.0746784210205">
			<ele>52.2999992370605</ele>
			<time>2014-04-13T09:32:47Z</time>
		</trkpt>
		<trkpt lat="54.1552429199219" lon="13.0746374130249">
			<ele>52.2999992370605</ele>
			<time>2014-04-13T09:32:48Z</time>
		</trkpt>
		<trkpt lat="54.1551933288574" lon="13.0745983123779">
			<ele>52.4000015258789</ele>
			<time>2014-04-13T09:32:49Z</time>
		</trkpt>
		<trkpt lat="54.1551513671875" lon="13.0745544433594">
			<ele>52.4000015258789</ele>
			<time>2014-04-13T09:32:51Z</time>
		</trkpt>
		<trkpt lat="54.1551094055176" lon="13.0745115280151">
			<ele>52.7000007629395</ele>
			<time>2014-04-13T09:32:52Z</time>
		</trkpt>
		<trkpt lat="54.1550636291504" lon="13.0744667053223">
			<ele>52.4000015258789</ele>
			<time>2014-04-13T09:32:53Z</time>
		</trkpt>
		<trkpt lat="54.1550178527832" lon="13.074423789978">
			<ele>52.2999992370605</ele>
			<time>2014-04-13T09:32:53Z</time>
		</trkpt>
		<trkpt lat="54.1549758911133" lon="13.0743837356567">
			<ele>52.4000015258789</ele>
			<time>2014-04-13T09:32:54Z</time>
		</trkpt>
		<trkpt lat="54.1549339294434" lon="13.0743503570557">
			<ele>52.5</ele>
			<time>2014-04-13T09:32:55Z</time>
		</trkpt>
		<trkpt lat="54.1548843383789" lon="13.0743179321289">
			<ele>52.5999984741211</ele>
			<time>2014-04-13T09:32:56Z</time>
		</trkpt>
		<trkpt lat="54.1548385620117" lon="13.0742979049683">
			<ele>52.5</ele>
			<time>2014-04-13T09:32:57Z</time>
		</trkpt>
		<trkpt lat="54.1547889709473" lon="13.074275970459">
			<ele>52.5999984741211</ele>
			<time>2014-04-13T09:32:58Z</time>
		</trkpt>
		<trkpt lat="54.1547431945801" lon="13.074257850647">
			<ele>52.4000015258789</ele>
			<time>2014-04-13T09:32:59Z</time>
		</trkpt>
		<trkpt lat="54.1546974182129" lon="13.074239730835">
			<ele>52.2999992370605</ele>
			<time>2014-04-13T09:33:00Z</time>
		</trkpt>
		<trkpt lat="54.1546478271484" lon="13.0742263793945">
			<ele>52.2000007629395</ele>
			<time>2014-04-13T09:33:01Z</time>
		</trkpt>
		<trkpt lat="54.154598236084" lon="13.0742073059082">
			<ele>52.4000015258789</ele>
			<time>2014-04-13T09:33:02Z</time>
		</trkpt>
		<trkpt lat="54.1545486450195" lon="13.0741872787476">
			<ele>52.5</ele>
			<time>2014-04-13T09:33:03Z</time>
		</trkpt>
		<trkpt lat="54.1545028686523" lon="13.0741691589355">
			<ele>52.5999984741211</ele>
			<time>2014-04-13T09:33:04Z</time>
		</trkpt>
		<trkpt lat="54.1544570922852" lon="13.0741500854492">
			<ele>52.5999984741211</ele>
			<time>2014-04-13T09:33:05Z</time>
		</trkpt>
		<trkpt lat="54.1544075012207" lon="13.0741348266602">
			<ele>52.5</ele>
			<time>2014-04-13T09:33:06Z</time>
		</trkpt>
		<trkpt lat="54.1543617248535" lon="13.074107170105">
			<ele>52.5</ele>
			<time>2014-04-13T09:33:07Z</time>
		</trkpt>
		<trkpt lat="54.1543159484863" lon="13.0740823745728">
			<ele>52.5999984741211</ele>
			<time>2014-04-13T09:33:08Z</time>
		</trkpt>
		<trkpt lat="54.1542701721191" lon="13.0740556716919">
			<ele>52.2999992370605</ele>
			<time>2014-04-13T09:33:09Z</time>
		</trkpt>
		<trkpt lat="54.154224395752" lon="13.0740270614624">
			<ele>52.5</ele>
			<time>2014-04-13T09:33:10Z</time>
		</trkpt>
		<trkpt lat="54.154182434082" lon="13.0739965438843">
			<ele>52.7999992370605</ele>
			<time>2014-04-13T09:33:11Z</time>
		</trkpt>
		<trkpt lat="54.1541366577148" lon="13.0739650726318">
			<ele>52.7999992370605</ele>
			<time>2014-04-13T09:33:12Z</time>
		</trkpt>
		<trkpt lat="54.1540946960449" lon="13.0739259719849">
			<ele>53</ele>
			<time>2014-04-13T09:33:13Z</time>
		</trkpt>
		<trkpt lat="54.1540489196777" lon="13.0738859176636">
			<ele>53.0999984741211</ele>
			<time>2014-04-13T09:33:14Z</time>
		</trkpt>
		<trkpt lat="54.1540031433105" lon="13.0738487243652">
			<ele>53.2999992370605</ele>
			<time>2014-04-13T09:33:15Z</time>
		</trkpt>
		<trkpt lat="54.1539535522461" lon="13.0738143920898">
			<ele>53.5</ele>
			<time>2014-04-13T09:33:16Z</time>
		</trkpt>
		<trkpt lat="54.1539077758789" lon="13.0737810134888">
			<ele>53.5999984741211</ele>
			<time>2014-04-13T09:33:17Z</time>
		</trkpt>
		<trkpt lat="54.153865814209" lon="13.0737419128418">
			<ele>53.5999984741211</ele>
			<time>2014-04-13T09:33:18Z</time>
		</trkpt>
		<trkpt lat="54.1538200378418" lon="13.0737028121948">
			<ele>53.7000007629395</ele>
			<time>2014-04-13T09:33:19Z</time>
		</trkpt>
		<trkpt lat="54.1537818908691" lon="13.0736656188965">
			<ele>54</ele>
			<time>2014-04-13T09:33:20Z</time>
		</trkpt>
		<trkpt lat="54.1537399291992" lon="13.0736246109009">
			<ele>53.9000015258789</ele>
			<time>2014-04-13T09:33:21Z</time>
		</trkpt>
		<trkpt lat="54.1537017822266" lon="13.0735845565796">
			<ele>54.0999984741211</ele>
			<time>2014-04-13T09:33:22Z</time>
		</trkpt>
		<trkpt lat="54.1536636352539" lon="13.0735445022583">
			<ele>53.9000015258789</ele>
			<time>2014-04-13T09:33:23Z</time>
		</trkpt>
		<trkpt lat="54.1536254882813" lon="13.0735034942627">
			<ele>54.2000007629395</ele>
			<time>2014-04-13T09:33:24Z</time>
		</trkpt>
		<trkpt lat="54.1535835266113" lon="13.0734634399414">
			<ele>54.5</ele>
			<time>2014-04-13T09:33:25Z</time>
		</trkpt>
		<trkpt lat="54.1535415649414" lon="13.0734243392944">
			<ele>54.5</ele>
			<time>2014-04-13T09:33:26Z</time>
		</trkpt>
		<trkpt lat="54.1534996032715" lon="13.0733842849731">
			<ele>54.7000007629395</ele>
			<time>2014-04-13T09:33:27Z</time>
		</trkpt>
		<trkpt lat="54.1534614562988" lon="13.0733499526978">
			<ele>54.7999992370605</ele>
			<time>2014-04-13T09:33:28Z</time>
		</trkpt>
		<trkpt lat="54.1534194946289" lon="13.0733003616333">
			<ele>54.7999992370605</ele>
			<time>2014-04-13T09:33:29Z</time>
		</trkpt>
		<trkpt lat="54.153377532959" lon="13.0732564926147">
			<ele>54.7000007629395</ele>
			<time>2014-04-13T09:33:30Z</time>
		</trkpt>
		<trkpt lat="54.1533393859863" lon="13.0732154846191">
			<ele>54.5</ele>
			<time>2014-04-13T09:33:31Z</time>
		</trkpt>
		<trkpt lat="54.1532592773438" lon="13.0731410980225">
			<ele>54.0999984741211</ele>
			<time>2014-04-13T09:33:33Z</time>
		</trkpt>
		<trkpt lat="54.1532135009766" lon="13.0730857849121">
			<ele>54.0999984741211</ele>
			<time>2014-04-13T09:33:34Z</time>
		</trkpt>
		<trkpt lat="54.1531715393066" lon="13.0730419158936">
			<ele>54</ele>
			<time>2014-04-13T09:33:35Z</time>
		</trkpt>
		<trkpt lat="54.1531219482422" lon="13.0729961395264">
			<ele>54.2000007629395</ele>
			<time>2014-04-13T09:33:36Z</time>
		</trkpt>
		<trkpt lat="54.1530838012695" lon="13.0729579925537">
			<ele>54.4000015258789</ele>
			<time>2014-04-13T09:33:37Z</time>
		</trkpt>
		<trkpt lat="54.1530418395996" lon="13.0729160308838">
			<ele>54.7000007629395</ele>
			<time>2014-04-13T09:33:38Z</time>
		</trkpt>
		<trkpt lat="54.1529998779297" lon="13.0728740692139">
			<ele>54.7000007629395</ele>
			<time>2014-04-13T09:33:39Z</time>
		</trkpt>
		<trkpt lat="54.1529579162598" lon="13.0728302001953">
			<ele>54.5</ele>
			<time>2014-04-13T09:33:40Z</time>
		</trkpt>
		<trkpt lat="54.1529159545898" lon="13.0727863311768">
			<ele>54.4000015258789</ele>
			<time>2014-04-13T09:33:41Z</time>
		</trkpt>
		<trkpt lat="54.1528739929199" lon="13.0727443695068">
			<ele>54.2000007629395</ele>
			<time>2014-04-13T09:33:42Z</time>
		</trkpt>
		<trkpt lat="54.1528282165527" lon="13.0726985931396">
			<ele>54.0999984741211</ele>
			<time>2014-04-13T09:33:43Z</time>
		</trkpt>
		<trkpt lat="54.1527824401855" lon="13.0726642608643">
			<ele>54.2999992370605</ele>
			<time>2014-04-13T09:33:44Z</time>
		</trkpt>
		<trkpt lat="54.1527366638184" lon="13.0726261138916">
			<ele>54.0999984741211</ele>
			<time>2014-04-13T09:33:45Z</time>
		</trkpt>
		<trkpt lat="54.1526908874512" lon="13.0725898742676">
			<ele>54.2000007629395</ele>
			<time>2014-04-13T09:33:46Z</time>
		</trkpt>
		<trkpt lat="54.1526412963867" lon="13.0725498199463">
			<ele>54.0999984741211</ele>
			<time>2014-04-13T09:33:47Z</time>
		</trkpt>
		<trkpt lat="54.1525955200195" lon="13.0725107192993">
			<ele>53.2000007629395</ele>
			<time>2014-04-13T09:33:48Z</time>
		</trkpt>
		<trkpt lat="54.1525459289551" lon="13.072470664978">
			<ele>52.9000015258789</ele>
			<time>2014-04-13T09:33:49Z</time>
		</trkpt>
		<trkpt lat="54.1525001525879" lon="13.0724315643311">
			<ele>53.4000015258789</ele>
			<time>2014-04-13T09:33:50Z</time>
		</trkpt>
		<trkpt lat="54.1524543762207" lon="13.0723876953125">
			<ele>53.7999992370605</ele>
			<time>2014-04-13T09:33:51Z</time>
		</trkpt>
		<trkpt lat="54.1524047851563" lon="13.072338104248">
			<ele>53.7999992370605</ele>
			<time>2014-04-13T09:33:52Z</time>
		</trkpt>
		<trkpt lat="54.1523590087891" lon="13.0722904205322">
			<ele>53.7999992370605</ele>
			<time>2014-04-13T09:33:53Z</time>
		</trkpt>
		<trkpt lat="54.1523132324219" lon="13.0722503662109">
			<ele>53.7000007629395</ele>
			<time>2014-04-13T09:33:54Z</time>
		</trkpt>
		<trkpt lat="54.1522674560547" lon="13.0722131729126">
			<ele>53.4000015258789</ele>
			<time>2014-04-13T09:33:55Z</time>
		</trkpt>
		<trkpt lat="54.1522216796875" lon="13.0721712112427">
			<ele>53.4000015258789</ele>
			<time>2014-04-13T09:33:56Z</time>
		</trkpt>
		<trkpt lat="54.152172088623" lon="13.0721349716187">
			<ele>53.0999984741211</ele>
			<time>2014-04-13T09:33:57Z</time>
		</trkpt>
		<trkpt lat="54.1521301269531" lon="13.0720872879028">
			<ele>53.5999984741211</ele>
			<time>2014-04-13T09:33:58Z</time>
		</trkpt>
		<trkpt lat="54.1520805358887" lon="13.0720415115356">
			<ele>53.5</ele>
			<time>2014-04-13T09:33:59Z</time>
		</trkpt>
		<trkpt lat="54.1520309448242" lon="13.0720052719116">
			<ele>53.5</ele>
			<time>2014-04-13T09:34:00Z</time>
		</trkpt>
		<trkpt lat="54.1519813537598" lon="13.0719680786133">
			<ele>53.5</ele>
			<time>2014-04-13T09:34:01Z</time>
		</trkpt>
		<trkpt lat="54.1519355773926" lon="13.0719318389893">
			<ele>53.5999984741211</ele>
			<time>2014-04-13T09:34:02Z</time>
		</trkpt>
		<trkpt lat="54.1518859863281" lon="13.0718908309937">
			<ele>53.5</ele>
			<time>2014-04-13T09:34:03Z</time>
		</trkpt>
		<trkpt lat="54.1518440246582" lon="13.0718517303467">
			<ele>53.7000007629395</ele>
			<time>2014-04-13T09:34:04Z</time>
		</trkpt>
		<trkpt lat="54.1517944335938" lon="13.0718116760254">
			<ele>53.7000007629395</ele>
			<time>2014-04-13T09:34:05Z</time>
		</trkpt>
		<trkpt lat="54.1517524719238" lon="13.0717716217041">
			<ele>53.9000015258789</ele>
			<time>2014-04-13T09:34:06Z</time>
		</trkpt>
		<trkpt lat="54.1517066955566" lon="13.0717296600342">
			<ele>54</ele>
			<time>2014-04-13T09:34:07Z</time>
		</trkpt>
		<trkpt lat="54.1516571044922" lon="13.0716876983643">
			<ele>54.0999984741211</ele>
			<time>2014-04-13T09:34:08Z</time>
		</trkpt>
		<trkpt lat="54.151611328125" lon="13.0716457366943">
			<ele>54.0999984741211</ele>
			<time>2014-04-13T09:34:09Z</time>
		</trkpt>
		<trkpt lat="54.1515655517578" lon="13.0716028213501">
			<ele>54.0999984741211</ele>
			<time>2014-04-13T09:34:10Z</time>
		</trkpt>
		<trkpt lat="54.1515197753906" lon="13.0715608596802">
			<ele>54</ele>
			<time>2014-04-13T09:34:11Z</time>
		</trkpt>
		<trkpt lat="54.1514778137207" lon="13.071515083313">
			<ele>54</ele>
			<time>2014-04-13T09:34:12Z</time>
		</trkpt>
		<trkpt lat="54.1514320373535" lon="13.0714731216431">
			<ele>54</ele>
			<time>2014-04-13T09:34:13Z</time>
		</trkpt>
		<trkpt lat="54.1513900756836" lon="13.0714330673218">
			<ele>54.0999984741211</ele>
			<time>2014-04-13T09:34:14Z</time>
		</trkpt>
		<trkpt lat="54.1513481140137" lon="13.0713891983032">
			<ele>54.2999992370605</ele>
			<time>2014-04-13T09:34:15Z</time>
		</trkpt>
		<trkpt lat="54.1513023376465" lon="13.0713453292847">
			<ele>54.2999992370605</ele>
			<time>2014-04-13T09:34:16Z</time>
		</trkpt>
		<trkpt lat="54.1512603759766" lon="13.0712966918945">
			<ele>54.0999984741211</ele>
			<time>2014-04-13T09:34:17Z</time>
		</trkpt>
		<trkpt lat="54.1512184143066" lon="13.0712509155273">
			<ele>54.0999984741211</ele>
			<time>2014-04-13T09:34:18Z</time>
		</trkpt>
		<trkpt lat="54.1511764526367" lon="13.0712070465088">
			<ele>54</ele>
			<time>2014-04-13T09:34:19Z</time>
		</trkpt>
		<trkpt lat="54.1511383056641" lon="13.0711669921875">
			<ele>54.0999984741211</ele>
			<time>2014-04-13T09:34:20Z</time>
		</trkpt>
		<trkpt lat="54.1511001586914" lon="13.0711221694946">
			<ele>53.7999992370605</ele>
			<time>2014-04-13T09:34:21Z</time>
		</trkpt>
		<trkpt lat="54.1510581970215" lon="13.0710754394531">
			<ele>53.9000015258789</ele>
			<time>2014-04-13T09:34:22Z</time>
		</trkpt>
		<trkpt lat="54.1510162353516" lon="13.0710306167603">
			<ele>53.7999992370605</ele>
			<time>2014-04-13T09:34:23Z</time>
		</trkpt>
		<trkpt lat="54.1509780883789" lon="13.070990562439">
			<ele>53.7000007629395</ele>
			<time>2014-04-13T09:34:24Z</time>
		</trkpt>
		<trkpt lat="54.1509323120117" lon="13.070948600769">
			<ele>53.7999992370605</ele>
			<time>2014-04-13T09:34:25Z</time>
		</trkpt>
		<trkpt lat="54.1508903503418" lon="13.070912361145">
			<ele>53.9000015258789</ele>
			<time>2014-04-13T09:34:26Z</time>
		</trkpt>
		<trkpt lat="54.1508445739746" lon="13.0708713531494">
			<ele>53.7000007629395</ele>
			<time>2014-04-13T09:34:27Z</time>
		</trkpt>
		<trkpt lat="54.1508026123047" lon="13.0708246231079">
			<ele>53.7000007629395</ele>
			<time>2014-04-13T09:34:28Z</time>
		</trkpt>
		<trkpt lat="54.1507606506348" lon="13.0707788467407">
			<ele>53.5999984741211</ele>
			<time>2014-04-13T09:34:29Z</time>
		</trkpt>
		<trkpt lat="54.1507186889648" lon="13.0707340240479">
			<ele>53.5</ele>
			<time>2014-04-13T09:34:30Z</time>
		</trkpt>
		<trkpt lat="54.1506767272949" lon="13.0706872940063">
			<ele>53.7000007629395</ele>
			<time>2014-04-13T09:34:31Z</time>
		</trkpt>
		<trkpt lat="54.150634765625" lon="13.0706405639648">
			<ele>53.5999984741211</ele>
			<time>2014-04-13T09:34:32Z</time>
		</trkpt>
		<trkpt lat="54.1505889892578" lon="13.0705938339233">
			<ele>53.4000015258789</ele>
			<time>2014-04-13T09:34:33Z</time>
		</trkpt>
		<trkpt lat="54.1505470275879" lon="13.0705480575562">
			<ele>53.2000007629395</ele>
			<time>2014-04-13T09:34:34Z</time>
		</trkpt>
		<trkpt lat="54.150505065918" lon="13.0705051422119">
			<ele>52.9000015258789</ele>
			<time>2014-04-13T09:34:35Z</time>
		</trkpt>
		<trkpt lat="54.150463104248" lon="13.0704669952393">
			<ele>52.9000015258789</ele>
			<time>2014-04-13T09:34:36Z</time>
		</trkpt>
		<trkpt lat="54.1504249572754" lon="13.0704231262207">
			<ele>52.7000007629395</ele>
			<time>2014-04-13T09:34:37Z</time>
		</trkpt>
		<trkpt lat="54.1503829956055" lon="13.070384979248">
			<ele>52.5</ele>
			<time>2014-04-13T09:34:38Z</time>
		</trkpt>
		<trkpt lat="54.1503410339355" lon="13.0703458786011">
			<ele>52.2000007629395</ele>
			<time>2014-04-13T09:34:39Z</time>
		</trkpt>
		<trkpt lat="54.1502990722656" lon="13.0703086853027">
			<ele>52.2000007629395</ele>
			<time>2014-04-13T09:34:40Z</time>
		</trkpt>
		<trkpt lat="54.1502571105957" lon="13.0702667236328">
			<ele>52.0999984741211</ele>
			<time>2014-04-13T09:34:41Z</time>
		</trkpt>
		<trkpt lat="54.1502151489258" lon="13.0702295303345">
			<ele>52.2000007629395</ele>
			<time>2014-04-13T09:34:42Z</time>
		</trkpt>
		<trkpt lat="54.1501770019531" lon="13.0701904296875">
			<ele>51.9000015258789</ele>
			<time>2014-04-13T09:34:43Z</time>
		</trkpt>
		<trkpt lat="54.1501312255859" lon="13.0701532363892">
			<ele>51.7000007629395</ele>
			<time>2014-04-13T09:34:44Z</time>
		</trkpt>
		<trkpt lat="54.1500854492188" lon="13.0701169967651">
			<ele>51.5999984741211</ele>
			<time>2014-04-13T09:34:45Z</time>
		</trkpt>
		<trkpt lat="54.1500434875488" lon="13.0700769424438">
			<ele>51.5</ele>
			<time>2014-04-13T09:34:46Z</time>
		</trkpt>
		<trkpt lat="54.1499977111816" lon="13.0700387954712">
			<ele>51.2000007629395</ele>
			<time>2014-04-13T09:34:47Z</time>
		</trkpt>
		<trkpt lat="54.1499519348145" lon="13.0700016021729">
			<ele>51</ele>
			<time>2014-04-13T09:34:48Z</time>
		</trkpt>
		<trkpt lat="54.1499061584473" lon="13.0699586868286">
			<ele>50.7000007629395</ele>
			<time>2014-04-13T09:34:49Z</time>
		</trkpt>
		<trkpt lat="54.1498641967773" lon="13.069917678833">
			<ele>50.5</ele>
			<time>2014-04-13T09:34:50Z</time>
		</trkpt>
		<trkpt lat="54.1498184204102" lon="13.069881439209">
			<ele>50.5999984741211</ele>
			<time>2014-04-13T09:34:51Z</time>
		</trkpt>
		<trkpt lat="54.1497764587402" lon="13.0698461532593">
			<ele>50.5999984741211</ele>
			<time>2014-04-13T09:34:52Z</time>
		</trkpt>
		<trkpt lat="54.149730682373" lon="13.0698127746582">
			<ele>50.7000007629395</ele>
			<time>2014-04-13T09:34:53Z</time>
		</trkpt>
		<trkpt lat="54.1496849060059" lon="13.0697746276855">
			<ele>50.7999992370605</ele>
			<time>2014-04-13T09:34:54Z</time>
		</trkpt>
		<trkpt lat="54.1496391296387" lon="13.0697402954102">
			<ele>50.5999984741211</ele>
			<time>2014-04-13T09:34:55Z</time>
		</trkpt>
		<trkpt lat="54.1495933532715" lon="13.0697040557861">
			<ele>50.4000015258789</ele>
			<time>2014-04-13T09:34:56Z</time>
		</trkpt>
		<trkpt lat="54.1495475769043" lon="13.0696649551392">
			<ele>50.2999992370605</ele>
			<time>2014-04-13T09:34:57Z</time>
		</trkpt>
		<trkpt lat="54.1495018005371" lon="13.0696334838867">
			<ele>50</ele>
			<time>2014-04-13T09:34:58Z</time>
		</trkpt>
		<trkpt lat="54.1494560241699" lon="13.0695953369141">
			<ele>50.2999992370605</ele>
			<time>2014-04-13T09:34:59Z</time>
		</trkpt>
		<trkpt lat="54.1494102478027" lon="13.0695533752441">
			<ele>50.4000015258789</ele>
			<time>2014-04-13T09:35:00Z</time>
		</trkpt>
		<trkpt lat="54.1493682861328" lon="13.0695114135742">
			<ele>50.4000015258789</ele>
			<time>2014-04-13T09:35:01Z</time>
		</trkpt>
		<trkpt lat="54.1493225097656" lon="13.0694780349731">
			<ele>50.0999984741211</ele>
			<time>2014-04-13T09:35:02Z</time>
		</trkpt>
		<trkpt lat="54.1492767333984" lon="13.0694427490234">
			<ele>50.0999984741211</ele>
			<time>2014-04-13T09:35:03Z</time>
		</trkpt>
		<trkpt lat="54.1492347717285" lon="13.0693998336792">
			<ele>50.2000007629395</ele>
			<time>2014-04-13T09:35:04Z</time>
		</trkpt>
		<trkpt lat="54.1491928100586" lon="13.0693674087524">
			<ele>50</ele>
			<time>2014-04-13T09:35:05Z</time>
		</trkpt>
		<trkpt lat="54.1491470336914" lon="13.0693273544312">
			<ele>49.7999992370605</ele>
			<time>2014-04-13T09:35:06Z</time>
		</trkpt>
		<trkpt lat="54.1491050720215" lon="13.0692911148071">
			<ele>50</ele>
			<time>2014-04-13T09:35:07Z</time>
		</trkpt>
		<trkpt lat="54.1490592956543" lon="13.0692615509033">
			<ele>50.2000007629395</ele>
			<time>2014-04-13T09:35:08Z</time>
		</trkpt>
		<trkpt lat="54.1490173339844" lon="13.0692281723022">
			<ele>50.2000007629395</ele>
			<time>2014-04-13T09:35:09Z</time>
		</trkpt>
		<trkpt lat="54.1489715576172" lon="13.0691938400269">
			<ele>50</ele>
			<time>2014-04-13T09:35:10Z</time>
		</trkpt>
		<trkpt lat="54.1489295959473" lon="13.0691614151001">
			<ele>49.5</ele>
			<time>2014-04-13T09:35:11Z</time>
		</trkpt>
		<trkpt lat="54.1488876342773" lon="13.0691223144531">
			<ele>49.2999992370605</ele>
			<time>2014-04-13T09:35:12Z</time>
		</trkpt>
		<trkpt lat="54.1488418579102" lon="13.069091796875">
			<ele>49.0999984741211</ele>
			<time>2014-04-13T09:35:14Z</time>
		</trkpt>
		<trkpt lat="54.148796081543" lon="13.0690507888794">
			<ele>48.5999984741211</ele>
			<time>2014-04-13T09:35:14Z</time>
		</trkpt>
		<trkpt lat="54.1487503051758" lon="13.0690107345581">
			<ele>48.5</ele>
			<time>2014-04-13T09:35:15Z</time>
		</trkpt>
		<trkpt lat="54.1487083435059" lon="13.0689754486084">
			<ele>48.5999984741211</ele>
			<time>2014-04-13T09:35:16Z</time>
		</trkpt>
		<trkpt lat="54.1486625671387" lon="13.0689420700073">
			<ele>48.5</ele>
			<time>2014-04-13T09:35:17Z</time>
		</trkpt>
		<trkpt lat="54.1486129760742" lon="13.0688943862915">
			<ele>48.7000007629395</ele>
			<time>2014-04-13T09:35:18Z</time>
		</trkpt>
		<trkpt lat="54.1485633850098" lon="13.0688581466675">
			<ele>48.7000007629395</ele>
			<time>2014-04-13T09:35:19Z</time>
		</trkpt>
		<trkpt lat="54.1485176086426" lon="13.0688285827637">
			<ele>48.7999992370605</ele>
			<time>2014-04-13T09:35:20Z</time>
		</trkpt>
		<trkpt lat="54.1484756469727" lon="13.0688047409058">
			<ele>48.5999984741211</ele>
			<time>2014-04-13T09:35:21Z</time>
		</trkpt>
		<trkpt lat="54.1484298706055" lon="13.0687847137451">
			<ele>48.7999992370605</ele>
			<time>2014-04-13T09:35:22Z</time>
		</trkpt>
		<trkpt lat="54.148380279541" lon="13.0687570571899">
			<ele>48.7999992370605</ele>
			<time>2014-04-13T09:35:23Z</time>
		</trkpt>
		<trkpt lat="54.1483306884766" lon="13.0687284469604">
			<ele>48.7000007629395</ele>
			<time>2014-04-13T09:35:24Z</time>
		</trkpt>
		<trkpt lat="54.1482810974121" lon="13.0687007904053">
			<ele>48.7000007629395</ele>
			<time>2014-04-13T09:35:25Z</time>
		</trkpt>
		<trkpt lat="54.1482238769531" lon="13.0686769485474">
			<ele>48.5</ele>
			<time>2014-04-13T09:35:26Z</time>
		</trkpt>
		<trkpt lat="54.1481781005859" lon="13.0686502456665">
			<ele>48.2999992370605</ele>
			<time>2014-04-13T09:35:27Z</time>
		</trkpt>
		<trkpt lat="54.1481246948242" lon="13.0686302185059">
			<ele>47.9000015258789</ele>
			<time>2014-04-13T09:35:28Z</time>
		</trkpt>
		<trkpt lat="54.1480712890625" lon="13.0686149597168">
			<ele>47.9000015258789</ele>
			<time>2014-04-13T09:35:29Z</time>
		</trkpt>
		<trkpt lat="54.148021697998" lon="13.0685987472534">
			<ele>47.5</ele>
			<time>2014-04-13T09:35:30Z</time>
		</trkpt>
		<trkpt lat="54.1479721069336" lon="13.0685777664185">
			<ele>47.5999984741211</ele>
			<time>2014-04-13T09:35:31Z</time>
		</trkpt>
		<trkpt lat="54.1479225158691" lon="13.0685586929321">
			<ele>47.5999984741211</ele>
			<time>2014-04-13T09:35:32Z</time>
		</trkpt>
		<trkpt lat="54.1478729248047" lon="13.0685386657715">
			<ele>47.5999984741211</ele>
			<time>2014-04-13T09:35:33Z</time>
		</trkpt>
		<trkpt lat="54.1478233337402" lon="13.0685157775879">
			<ele>48.2000007629395</ele>
			<time>2014-04-13T09:35:34Z</time>
		</trkpt>
		<trkpt lat="54.1477661132813" lon="13.0685033798218">
			<ele>47.2000007629395</ele>
			<time>2014-04-13T09:35:35Z</time>
		</trkpt>
		<trkpt lat="54.1477165222168" lon="13.0684804916382">
			<ele>46.9000015258789</ele>
			<time>2014-04-13T09:35:36Z</time>
		</trkpt>
		<trkpt lat="54.1476669311523" lon="13.068455696106">
			<ele>47</ele>
			<time>2014-04-13T09:35:37Z</time>
		</trkpt>
		<trkpt lat="54.1476135253906" lon="13.0684461593628">
			<ele>47.2000007629395</ele>
			<time>2014-04-13T09:35:38Z</time>
		</trkpt>
		<trkpt lat="54.1475601196289" lon="13.068434715271">
			<ele>47.2000007629395</ele>
			<time>2014-04-13T09:35:39Z</time>
		</trkpt>
		<trkpt lat="54.1475067138672" lon="13.0684156417847">
			<ele>47</ele>
			<time>2014-04-13T09:35:40Z</time>
		</trkpt>
		<trkpt lat="54.1474533081055" lon="13.0683937072754">
			<ele>46.9000015258789</ele>
			<time>2014-04-13T09:35:41Z</time>
		</trkpt>
		<trkpt lat="54.147403717041" lon="13.0683736801147">
			<ele>46.5</ele>
			<time>2014-04-13T09:35:42Z</time>
		</trkpt>
		<trkpt lat="54.1473541259766" lon="13.0683526992798">
			<ele>46.2999992370605</ele>
			<time>2014-04-13T09:35:43Z</time>
		</trkpt>
		<trkpt lat="54.1473045349121" lon="13.0683374404907">
			<ele>46.5999984741211</ele>
			<time>2014-04-13T09:35:44Z</time>
		</trkpt>
		<trkpt lat="54.1472549438477" lon="13.0683250427246">
			<ele>46.9000015258789</ele>
			<time>2014-04-13T09:35:45Z</time>
		</trkpt>
		<trkpt lat="54.1472091674805" lon="13.0683193206787">
			<ele>45</ele>
			<time>2014-04-13T09:35:46Z</time>
		</trkpt>
		<trkpt lat="54.1471633911133" lon="13.0682964324951">
			<ele>45</ele>
			<time>2014-04-13T09:35:47Z</time>
		</trkpt>
		<trkpt lat="54.1471099853516" lon="13.0682678222656">
			<ele>46</ele>
			<time>2014-04-13T09:35:48Z</time>
		</trkpt>
		<trkpt lat="54.1470642089844" lon="13.0682573318481">
			<ele>45.7000007629395</ele>
			<time>2014-04-13T09:35:50Z</time>
		</trkpt>
		<trkpt lat="54.1470146179199" lon="13.0682430267334">
			<ele>45.4000015258789</ele>
			<time>2014-04-13T09:35:50Z</time>
		</trkpt>
		<trkpt lat="54.1469612121582" lon="13.0682382583618">
			<ele>43.2000007629395</ele>
			<time>2014-04-13T09:35:51Z</time>
		</trkpt>
		<trkpt lat="54.1469078063965" lon="13.0682125091553">
			<ele>42.9000015258789</ele>
			<time>2014-04-13T09:35:52Z</time>
		</trkpt>
		<trkpt lat="54.146858215332" lon="13.0681924819946">
			<ele>42.5999984741211</ele>
			<time>2014-04-13T09:35:53Z</time>
		</trkpt>
		<trkpt lat="54.1468048095703" lon="13.0681838989258">
			<ele>41.5999984741211</ele>
			<time>2014-04-13T09:35:54Z</time>
		</trkpt>
		<trkpt lat="54.1467514038086" lon="13.0681629180908">
			<ele>42.0999984741211</ele>
			<time>2014-04-13T09:35:55Z</time>
		</trkpt>
		<trkpt lat="54.1467018127441" lon="13.0681381225586">
			<ele>41.5999984741211</ele>
			<time>2014-04-13T09:35:56Z</time>
		</trkpt>
		<trkpt lat="54.1466484069824" lon="13.068115234375">
			<ele>41.7000007629395</ele>
			<time>2014-04-13T09:35:57Z</time>
		</trkpt>
		<trkpt lat="54.1466026306152" lon="13.0680923461914">
			<ele>41.7999992370605</ele>
			<time>2014-04-13T09:35:58Z</time>
		</trkpt>
		<trkpt lat="54.1465530395508" lon="13.0680723190308">
			<ele>41.7999992370605</ele>
			<time>2014-04-13T09:35:59Z</time>
		</trkpt>
		<trkpt lat="54.1464996337891" lon="13.0680475234985">
			<ele>41.5999984741211</ele>
			<time>2014-04-13T09:36:00Z</time>
		</trkpt>
		<trkpt lat="54.1464500427246" lon="13.0680322647095">
			<ele>41.5</ele>
			<time>2014-04-13T09:36:01Z</time>
		</trkpt>
		<trkpt lat="54.1463966369629" lon="13.0680017471313">
			<ele>42.0999984741211</ele>
			<time>2014-04-13T09:36:02Z</time>
		</trkpt>
		<trkpt lat="54.1463432312012" lon="13.0679788589478">
			<ele>41.7000007629395</ele>
			<time>2014-04-13T09:36:03Z</time>
		</trkpt>
		<trkpt lat="54.146297454834" lon="13.0679683685303">
			<ele>41</ele>
			<time>2014-04-13T09:36:04Z</time>
		</trkpt>
		<trkpt lat="54.1462440490723" lon="13.0679454803467">
			<ele>40.5</ele>
			<time>2014-04-13T09:36:05Z</time>
		</trkpt>
		<trkpt lat="54.1461906433105" lon="13.0679168701172">
			<ele>41.7999992370605</ele>
			<time>2014-04-13T09:36:06Z</time>
		</trkpt>
		<trkpt lat="54.1461372375488" lon="13.0678977966309">
			<ele>41.9000015258789</ele>
			<time>2014-04-13T09:36:07Z</time>
		</trkpt>
		<trkpt lat="54.1460876464844" lon="13.0678834915161">
			<ele>41.5</ele>
			<time>2014-04-13T09:36:08Z</time>
		</trkpt>
		<trkpt lat="54.1460418701172" lon="13.0678682327271">
			<ele>41.4000015258789</ele>
			<time>2014-04-13T09:36:09Z</time>
		</trkpt>
		<trkpt lat="54.1459846496582" lon="13.067852973938">
			<ele>41.7000007629395</ele>
			<time>2014-04-13T09:36:10Z</time>
		</trkpt>
		<trkpt lat="54.1459350585938" lon="13.0678300857544">
			<ele>42.2000007629395</ele>
			<time>2014-04-13T09:36:11Z</time>
		</trkpt>
		<trkpt lat="54.145881652832" lon="13.0678052902222">
			<ele>42.4000015258789</ele>
			<time>2014-04-13T09:36:12Z</time>
		</trkpt>
		<trkpt lat="54.1458282470703" lon="13.0677928924561">
			<ele>42.2000007629395</ele>
			<time>2014-04-13T09:36:13Z</time>
		</trkpt>
		<trkpt lat="54.1457824707031" lon="13.0677814483643">
			<ele>41.9000015258789</ele>
			<time>2014-04-13T09:36:14Z</time>
		</trkpt>
		<trkpt lat="54.1457366943359" lon="13.067759513855">
			<ele>42.4000015258789</ele>
			<time>2014-04-13T09:36:15Z</time>
		</trkpt>
		<trkpt lat="54.1456871032715" lon="13.0677404403687">
			<ele>42.2999992370605</ele>
			<time>2014-04-13T09:36:16Z</time>
		</trkpt>
		<trkpt lat="54.1456298828125" lon="13.0677280426025">
			<ele>42.2000007629395</ele>
			<time>2014-04-13T09:36:17Z</time>
		</trkpt>
		<trkpt lat="54.1455764770508" lon="13.0677108764648">
			<ele>42.0999984741211</ele>
			<time>2014-04-13T09:36:18Z</time>
		</trkpt>
		<trkpt lat="54.1455192565918" lon="13.067702293396">
			<ele>41.2000007629395</ele>
			<time>2014-04-13T09:36:19Z</time>
		</trkpt>
		<trkpt lat="54.1454620361328" lon="13.0676803588867">
			<ele>42.0999984741211</ele>
			<time>2014-04-13T09:36:20Z</time>
		</trkpt>
		<trkpt lat="54.1454124450684" lon="13.0676565170288">
			<ele>42.5999984741211</ele>
			<time>2014-04-13T09:36:21Z</time>
		</trkpt>
		<trkpt lat="54.1453628540039" lon="13.0676422119141">
			<ele>42.4000015258789</ele>
			<time>2014-04-13T09:36:22Z</time>
		</trkpt>
		<trkpt lat="54.1453056335449" lon="13.0676193237305">
			<ele>42.4000015258789</ele>
			<time>2014-04-13T09:36:23Z</time>
		</trkpt>
		<trkpt lat="54.1452522277832" lon="13.0676021575928">
			<ele>42.0999984741211</ele>
			<time>2014-04-13T09:36:24Z</time>
		</trkpt>
		<trkpt lat="54.1452026367188" lon="13.0675868988037">
			<ele>41.2000007629395</ele>
			<time>2014-04-13T09:36:25Z</time>
		</trkpt>
		<trkpt lat="54.1451530456543" lon="13.0675659179688">
			<ele>41</ele>
			<time>2014-04-13T09:36:26Z</time>
		</trkpt>
		<trkpt lat="54.1450996398926" lon="13.0675458908081">
			<ele>41.4000015258789</ele>
			<time>2014-04-13T09:36:27Z</time>
		</trkpt>
		<trkpt lat="54.1450538635254" lon="13.0675182342529">
			<ele>41.4000015258789</ele>
			<time>2014-04-13T09:36:28Z</time>
		</trkpt>
		<trkpt lat="54.1450080871582" lon="13.0675020217896">
			<ele>42</ele>
			<time>2014-04-13T09:36:29Z</time>
		</trkpt>
		<trkpt lat="54.1449546813965" lon="13.0674734115601">
			<ele>41.7999992370605</ele>
			<time>2014-04-13T09:36:30Z</time>
		</trkpt>
		<trkpt lat="54.1448631286621" lon="13.0674467086792">
			<ele>42.0999984741211</ele>
			<time>2014-04-13T09:36:32Z</time>
		</trkpt>
		<trkpt lat="54.1448135375977" lon="13.0674247741699">
			<ele>42.0999984741211</ele>
			<time>2014-04-13T09:36:33Z</time>
		</trkpt>
		<trkpt lat="54.1447563171387" lon="13.0674161911011">
			<ele>42</ele>
			<time>2014-04-13T09:36:34Z</time>
		</trkpt>
		<trkpt lat="54.1447105407715" lon="13.0673990249634">
			<ele>41.5999984741211</ele>
			<time>2014-04-13T09:36:35Z</time>
		</trkpt>
		<trkpt lat="54.1446571350098" lon="13.0673866271973">
			<ele>41.4000015258789</ele>
			<time>2014-04-13T09:36:36Z</time>
		</trkpt>
		<trkpt lat="54.1446113586426" lon="13.0673656463623">
			<ele>41.7000007629395</ele>
			<time>2014-04-13T09:36:37Z</time>
		</trkpt>
		<trkpt lat="54.1445579528809" lon="13.0673513412476">
			<ele>41.7999992370605</ele>
			<time>2014-04-13T09:36:38Z</time>
		</trkpt>
		<trkpt lat="54.1445007324219" lon="13.0673513412476">
			<ele>42.5999984741211</ele>
			<time>2014-04-13T09:36:39Z</time>
		</trkpt>
		<trkpt lat="54.1444549560547" lon="13.0673236846924">
			<ele>42.7999992370605</ele>
			<time>2014-04-13T09:36:40Z</time>
		</trkpt>
		<trkpt lat="54.144401550293" lon="13.0673093795776">
			<ele>43.5999984741211</ele>
			<time>2014-04-13T09:36:41Z</time>
		</trkpt>
		<trkpt lat="54.1443405151367" lon="13.0672912597656">
			<ele>43.5999984741211</ele>
			<time>2014-04-13T09:36:42Z</time>
		</trkpt>
		<trkpt lat="54.1442909240723" lon="13.0672636032104">
			<ele>44</ele>
			<time>2014-04-13T09:36:43Z</time>
		</trkpt>
		<trkpt lat="54.1442337036133" lon="13.0672426223755">
			<ele>44.5999984741211</ele>
			<time>2014-04-13T09:36:44Z</time>
		</trkpt>
		<trkpt lat="54.1441841125488" lon="13.0672044754028">
			<ele>45.9000015258789</ele>
			<time>2014-04-13T09:36:45Z</time>
		</trkpt>
		<trkpt lat="54.1441230773926" lon="13.0671672821045">
			<ele>46.2999992370605</ele>
			<time>2014-04-13T09:36:46Z</time>
		</trkpt>
		<trkpt lat="54.1440734863281" lon="13.0671224594116">
			<ele>46.4000015258789</ele>
			<time>2014-04-13T09:36:47Z</time>
		</trkpt>
		<trkpt lat="54.1440238952637" lon="13.067081451416">
			<ele>46.4000015258789</ele>
			<time>2014-04-13T09:36:48Z</time>
		</trkpt>
		<trkpt lat="54.1439743041992" lon="13.0670404434204">
			<ele>46.7999992370605</ele>
			<time>2014-04-13T09:36:49Z</time>
		</trkpt>
		<trkpt lat="54.1439247131348" lon="13.0669994354248">
			<ele>47.0999984741211</ele>
			<time>2014-04-13T09:36:50Z</time>
		</trkpt>
		<trkpt lat="54.143871307373" lon="13.0669565200806">
			<ele>47.2999992370605</ele>
			<time>2014-04-13T09:36:51Z</time>
		</trkpt>
		<trkpt lat="54.1438217163086" lon="13.0669240951538">
			<ele>47</ele>
			<time>2014-04-13T09:36:52Z</time>
		</trkpt>
		<trkpt lat="54.1437721252441" lon="13.0668754577637">
			<ele>47.9000015258789</ele>
			<time>2014-04-13T09:36:53Z</time>
		</trkpt>
		<trkpt lat="54.143726348877" lon="13.0668306350708">
			<ele>48</ele>
			<time>2014-04-13T09:36:54Z</time>
		</trkpt>
		<trkpt lat="54.1436767578125" lon="13.066782951355">
			<ele>47.5999984741211</ele>
			<time>2014-04-13T09:36:55Z</time>
		</trkpt>
		<trkpt lat="54.1436309814453" lon="13.0667343139648">
			<ele>48</ele>
			<time>2014-04-13T09:36:56Z</time>
		</trkpt>
		<trkpt lat="54.1435852050781" lon="13.0666875839233">
			<ele>48.4000015258789</ele>
			<time>2014-04-13T09:36:57Z</time>
		</trkpt>
		<trkpt lat="54.1435356140137" lon="13.0666341781616">
			<ele>48.7999992370605</ele>
			<time>2014-04-13T09:36:58Z</time>
		</trkpt>
		<trkpt lat="54.1434898376465" lon="13.0665788650513">
			<ele>49.4000015258789</ele>
			<time>2014-04-13T09:36:59Z</time>
		</trkpt>
		<trkpt lat="54.1434440612793" lon="13.0665264129639">
			<ele>49.5999984741211</ele>
			<time>2014-04-13T09:37:00Z</time>
		</trkpt>
		<trkpt lat="54.1433944702148" lon="13.0664911270142">
			<ele>49.4000015258789</ele>
			<time>2014-04-13T09:37:01Z</time>
		</trkpt>
		<trkpt lat="54.1433486938477" lon="13.0664472579956">
			<ele>49.5</ele>
			<time>2014-04-13T09:37:02Z</time>
		</trkpt>
		<trkpt lat="54.1433029174805" lon="13.0664167404175">
			<ele>49.7000007629395</ele>
			<time>2014-04-13T09:37:03Z</time>
		</trkpt>
		<trkpt lat="54.1432609558105" lon="13.0663890838623">
			<ele>49.5999984741211</ele>
			<time>2014-04-13T09:37:04Z</time>
		</trkpt>
		<trkpt lat="54.1432113647461" lon="13.0663480758667">
			<ele>50</ele>
			<time>2014-04-13T09:37:05Z</time>
		</trkpt>
		<trkpt lat="54.1431617736816" lon="13.0663089752197">
			<ele>50.7000007629395</ele>
			<time>2014-04-13T09:37:06Z</time>
		</trkpt>
		<trkpt lat="54.1431083679199" lon="13.0662698745728">
			<ele>51.5</ele>
			<time>2014-04-13T09:37:07Z</time>
		</trkpt>
		<trkpt lat="54.1430549621582" lon="13.0662441253662">
			<ele>51.4000015258789</ele>
			<time>2014-04-13T09:37:08Z</time>
		</trkpt>
		<trkpt lat="54.143009185791" lon="13.0662183761597">
			<ele>50.9000015258789</ele>
			<time>2014-04-13T09:37:09Z</time>
		</trkpt>
		<trkpt lat="54.1429595947266" lon="13.0661859512329">
			<ele>50.7000007629395</ele>
			<time>2014-04-13T09:37:10Z</time>
		</trkpt>
		<trkpt lat="54.1429100036621" lon="13.0661544799805">
			<ele>50.5999984741211</ele>
			<time>2014-04-13T09:37:11Z</time>
		</trkpt>
		<trkpt lat="54.1428565979004" lon="13.066125869751">
			<ele>50.9000015258789</ele>
			<time>2014-04-13T09:37:12Z</time>
		</trkpt>
		<trkpt lat="54.1428031921387" lon="13.066107749939">
			<ele>50.5999984741211</ele>
			<time>2014-04-13T09:37:13Z</time>
		</trkpt>
		<trkpt lat="54.1427612304688" lon="13.0660705566406">
			<ele>50.9000015258789</ele>
			<time>2014-04-13T09:37:14Z</time>
		</trkpt>
		<trkpt lat="54.1427116394043" lon="13.0660448074341">
			<ele>50.7999992370605</ele>
			<time>2014-04-13T09:37:15Z</time>
		</trkpt>
		<trkpt lat="54.1426544189453" lon="13.0660238265991">
			<ele>50.4000015258789</ele>
			<time>2014-04-13T09:37:16Z</time>
		</trkpt>
		<trkpt lat="54.1426048278809" lon="13.0659990310669">
			<ele>50</ele>
			<time>2014-04-13T09:37:17Z</time>
		</trkpt>
		<trkpt lat="54.1425552368164" lon="13.0659599304199">
			<ele>49.5</ele>
			<time>2014-04-13T09:37:18Z</time>
		</trkpt>
		<trkpt lat="54.142505645752" lon="13.065936088562">
			<ele>49.5</ele>
			<time>2014-04-13T09:37:19Z</time>
		</trkpt>
		<trkpt lat="54.1424560546875" lon="13.0659160614014">
			<ele>49.9000015258789</ele>
			<time>2014-04-13T09:37:20Z</time>
		</trkpt>
		<trkpt lat="54.142406463623" lon="13.0658864974976">
			<ele>49.7000007629395</ele>
			<time>2014-04-13T09:37:21Z</time>
		</trkpt>
		<trkpt lat="54.1423568725586" lon="13.0658655166626">
			<ele>49.5</ele>
			<time>2014-04-13T09:37:22Z</time>
		</trkpt>
		<trkpt lat="54.1423072814941" lon="13.0658435821533">
			<ele>50.2999992370605</ele>
			<time>2014-04-13T09:37:23Z</time>
		</trkpt>
		<trkpt lat="54.1422576904297" lon="13.0658149719238">
			<ele>50.2999992370605</ele>
			<time>2014-04-13T09:37:25Z</time>
		</trkpt>
		<trkpt lat="54.1421585083008" lon="13.0657596588135">
			<ele>49.7999992370605</ele>
			<time>2014-04-13T09:37:26Z</time>
		</trkpt>
		<trkpt lat="54.1421127319336" lon="13.0657320022583">
			<ele>49.7999992370605</ele>
			<time>2014-04-13T09:37:27Z</time>
		</trkpt>
		<trkpt lat="54.1420631408691" lon="13.065710067749">
			<ele>49.5999984741211</ele>
			<time>2014-04-13T09:37:28Z</time>
		</trkpt>
		<trkpt lat="54.142017364502" lon="13.0656766891479">
			<ele>49.7999992370605</ele>
			<time>2014-04-13T09:37:29Z</time>
		</trkpt>
		<trkpt lat="54.1419715881348" lon="13.0656480789185">
			<ele>50</ele>
			<time>2014-04-13T09:37:31Z</time>
		</trkpt>
		<trkpt lat="54.1419219970703" lon="13.0656175613403">
			<ele>50.0999984741211</ele>
			<time>2014-04-13T09:37:31Z</time>
		</trkpt>
		<trkpt lat="54.1418724060059" lon="13.065598487854">
			<ele>50.4000015258789</ele>
			<time>2014-04-13T09:37:32Z</time>
		</trkpt>
		<trkpt lat="54.1418266296387" lon="13.0655746459961">
			<ele>50.7000007629395</ele>
			<time>2014-04-13T09:37:33Z</time>
		</trkpt>
		<trkpt lat="54.1417808532715" lon="13.0655536651611">
			<ele>50.7999992370605</ele>
			<time>2014-04-13T09:37:34Z</time>
		</trkpt>
		<trkpt lat="54.1417350769043" lon="13.0655269622803">
			<ele>50.7999992370605</ele>
			<time>2014-04-13T09:37:35Z</time>
		</trkpt>
		<trkpt lat="54.1416893005371" lon="13.0654973983765">
			<ele>50.7999992370605</ele>
			<time>2014-04-13T09:37:36Z</time>
		</trkpt>
		<trkpt lat="54.1416473388672" lon="13.0654649734497">
			<ele>50.7000007629395</ele>
			<time>2014-04-13T09:37:37Z</time>
		</trkpt>
		<trkpt lat="54.1416015625" lon="13.0654363632202">
			<ele>50.5999984741211</ele>
			<time>2014-04-13T09:37:38Z</time>
		</trkpt>
		<trkpt lat="54.1415176391602" lon="13.0653886795044">
			<ele>50.5</ele>
			<time>2014-04-13T09:37:40Z</time>
		</trkpt>
		<trkpt lat="54.1414337158203" lon="13.0653467178345">
			<ele>50.4000015258789</ele>
			<time>2014-04-13T09:37:42Z</time>
		</trkpt>
		<trkpt lat="54.1413536071777" lon="13.0653085708618">
			<ele>50.2999992370605</ele>
			<time>2014-04-13T09:37:44Z</time>
		</trkpt>
		<trkpt lat="54.1412734985352" lon="13.0652666091919">
			<ele>50.4000015258789</ele>
			<time>2014-04-13T09:37:46Z</time>
		</trkpt>
		<trkpt lat="54.1411895751953" lon="13.0652284622192">
			<ele>50.4000015258789</ele>
			<time>2014-04-13T09:37:48Z</time>
		</trkpt>
		<trkpt lat="54.1411094665527" lon="13.0651893615723">
			<ele>50.5999984741211</ele>
			<time>2014-04-13T09:37:50Z</time>
		</trkpt>
		<trkpt lat="54.1410255432129" lon="13.0651540756226">
			<ele>50.7000007629395</ele>
			<time>2014-04-13T09:37:52Z</time>
		</trkpt>
		<trkpt lat="54.140941619873" lon="13.0651216506958">
			<ele>50.5999984741211</ele>
			<time>2014-04-13T09:37:54Z</time>
		</trkpt>
		<trkpt lat="54.1408958435059" lon="13.0651025772095">
			<ele>50.7999992370605</ele>
			<time>2014-04-13T09:37:55Z</time>
		</trkpt>
		<trkpt lat="54.140811920166" lon="13.0650701522827">
			<ele>51.2999992370605</ele>
			<time>2014-04-13T09:37:57Z</time>
		</trkpt>
		<trkpt lat="54.1407318115234" lon="13.065034866333">
			<ele>51.5</ele>
			<time>2014-04-13T09:37:59Z</time>
		</trkpt>
		<trkpt lat="54.1406478881836" lon="13.0650033950806">
			<ele>52.0999984741211</ele>
			<time>2014-04-13T09:38:01Z</time>
		</trkpt>
		<trkpt lat="54.1405639648438" lon="13.0649747848511">
			<ele>52.4000015258789</ele>
			<time>2014-04-13T09:38:03Z</time>
		</trkpt>
		<trkpt lat="54.1404838562012" lon="13.0649480819702">
			<ele>52.5</ele>
			<time>2014-04-13T09:38:05Z</time>
		</trkpt>
		<trkpt lat="54.1403961181641" lon="13.0649147033691">
			<ele>52.5</ele>
			<time>2014-04-13T09:38:07Z</time>
		</trkpt>
		<trkpt lat="54.1403160095215" lon="13.0648803710938">
			<ele>52.5</ele>
			<time>2014-04-13T09:38:09Z</time>
		</trkpt>
		<trkpt lat="54.1402397155762" lon="13.0648488998413">
			<ele>53.2000007629395</ele>
			<time>2014-04-13T09:38:11Z</time>
		</trkpt>
		<trkpt lat="54.1401596069336" lon="13.0648193359375">
			<ele>53.4000015258789</ele>
			<time>2014-04-13T09:38:13Z</time>
		</trkpt>
		<trkpt lat="54.1400833129883" lon="13.0647850036621">
			<ele>53.5</ele>
			<time>2014-04-13T09:38:15Z</time>
		</trkpt>
		<trkpt lat="54.1399993896484" lon="13.0647459030151">
			<ele>53.2999992370605</ele>
			<time>2014-04-13T09:38:17Z</time>
		</trkpt>
		<trkpt lat="54.1399230957031" lon="13.0647220611572">
			<ele>53.4000015258789</ele>
			<time>2014-04-13T09:38:19Z</time>
		</trkpt>
		<trkpt lat="54.1398468017578" lon="13.0646886825562">
			<ele>53.2999992370605</ele>
			<time>2014-04-13T09:38:21Z</time>
		</trkpt>
		<trkpt lat="54.1397705078125" lon="13.0646514892578">
			<ele>53.0999984741211</ele>
			<time>2014-04-13T09:38:23Z</time>
		</trkpt>
		<trkpt lat="54.1396942138672" lon="13.0646200180054">
			<ele>53.2999992370605</ele>
			<time>2014-04-13T09:38:25Z</time>
		</trkpt>
		<trkpt lat="54.1396217346191" lon="13.0645885467529">
			<ele>53.7000007629395</ele>
			<time>2014-04-13T09:38:27Z</time>
		</trkpt>
		<trkpt lat="54.1395492553711" lon="13.0645589828491">
			<ele>53.7999992370605</ele>
			<time>2014-04-13T09:38:29Z</time>
		</trkpt>
		<trkpt lat="54.139476776123" lon="13.0645217895508">
			<ele>53.7999992370605</ele>
			<time>2014-04-13T09:38:31Z</time>
		</trkpt>
		<trkpt lat="54.1394004821777" lon="13.0644855499268">
			<ele>53.9000015258789</ele>
			<time>2014-04-13T09:38:33Z</time>
		</trkpt>
		<trkpt lat="54.1393280029297" lon="13.0644483566284">
			<ele>54.0999984741211</ele>
			<time>2014-04-13T09:38:35Z</time>
		</trkpt>
		<trkpt lat="54.1392555236816" lon="13.0644063949585">
			<ele>54.4000015258789</ele>
			<time>2014-04-13T09:38:37Z</time>
		</trkpt>
		<trkpt lat="54.1391868591309" lon="13.0643625259399">
			<ele>54.7000007629395</ele>
			<time>2014-04-13T09:38:39Z</time>
		</trkpt>
		<trkpt lat="54.1391220092773" lon="13.0643215179443">
			<ele>54.5</ele>
			<time>2014-04-13T09:38:41Z</time>
		</trkpt>
		<trkpt lat="54.1390571594238" lon="13.0642747879028">
			<ele>54.5999984741211</ele>
			<time>2014-04-13T09:38:43Z</time>
		</trkpt>
		<trkpt lat="54.138988494873" lon="13.0642318725586">
			<ele>54.7999992370605</ele>
			<time>2014-04-13T09:38:45Z</time>
		</trkpt>
		<trkpt lat="54.1389236450195" lon="13.0641841888428">
			<ele>54.7000007629395</ele>
			<time>2014-04-13T09:38:47Z</time>
		</trkpt>
		<trkpt lat="54.1388549804688" lon="13.0641422271729">
			<ele>54.9000015258789</ele>
			<time>2014-04-13T09:38:49Z</time>
		</trkpt>
		<trkpt lat="54.1387901306152" lon="13.0640964508057">
			<ele>54.7000007629395</ele>
			<time>2014-04-13T09:38:51Z</time>
		</trkpt>
		<trkpt lat="54.138729095459" lon="13.0640516281128">
			<ele>54.7000007629395</ele>
			<time>2014-04-13T09:38:53Z</time>
		</trkpt>
		<trkpt lat="54.1386642456055" lon="13.0640077590942">
			<ele>54.9000015258789</ele>
			<time>2014-04-13T09:38:55Z</time>
		</trkpt>
		<trkpt lat="54.1386032104492" lon="13.0639619827271">
			<ele>54.9000015258789</ele>
			<time>2014-04-13T09:38:57Z</time>
		</trkpt>
		<trkpt lat="54.1385383605957" lon="13.0639228820801">
			<ele>54.7999992370605</ele>
			<time>2014-04-13T09:38:59Z</time>
		</trkpt>
		<trkpt lat="54.1384773254395" lon="13.0638828277588">
			<ele>54.7999992370605</ele>
			<time>2014-04-13T09:39:01Z</time>
		</trkpt>
		<trkpt lat="54.1384162902832" lon="13.0638360977173">
			<ele>54.7999992370605</ele>
			<time>2014-04-13T09:39:03Z</time>
		</trkpt>
		<trkpt lat="54.1383514404297" lon="13.0637893676758">
			<ele>54.7999992370605</ele>
			<time>2014-04-13T09:39:05Z</time>
		</trkpt>
		<trkpt lat="54.1382827758789" lon="13.0637493133545">
			<ele>54.9000015258789</ele>
			<time>2014-04-13T09:39:07Z</time>
		</trkpt>
		<trkpt lat="54.1382217407227" lon="13.0637035369873">
			<ele>54.9000015258789</ele>
			<time>2014-04-13T09:39:09Z</time>
		</trkpt>
		<trkpt lat="54.1381568908691" lon="13.0636596679688">
			<ele>54.9000015258789</ele>
			<time>2014-04-13T09:39:11Z</time>
		</trkpt>
		<trkpt lat="54.1380920410156" lon="13.0636177062988">
			<ele>55.0999984741211</ele>
			<time>2014-04-13T09:39:13Z</time>
		</trkpt>
		<trkpt lat="54.1380310058594" lon="13.0635786056519">
			<ele>55.4000015258789</ele>
			<time>2014-04-13T09:39:15Z</time>
		</trkpt>
		<trkpt lat="54.1379737854004" lon="13.0635366439819">
			<ele>55.5</ele>
			<time>2014-04-13T09:39:17Z</time>
		</trkpt>
		<trkpt lat="54.1379127502441" lon="13.0634965896606">
			<ele>55.5999984741211</ele>
			<time>2014-04-13T09:39:19Z</time>
		</trkpt>
		<trkpt lat="54.1378555297852" lon="13.0634603500366">
			<ele>55.7999992370605</ele>
			<time>2014-04-13T09:39:21Z</time>
		</trkpt>
		<trkpt lat="54.1377944946289" lon="13.0634269714355">
			<ele>55.7000007629395</ele>
			<time>2014-04-13T09:39:23Z</time>
		</trkpt>
		<trkpt lat="54.1377296447754" lon="13.0633945465088">
			<ele>55.7999992370605</ele>
			<time>2014-04-13T09:39:25Z</time>
		</trkpt>
		<trkpt lat="54.1376724243164" lon="13.0633602142334">
			<ele>56</ele>
			<time>2014-04-13T09:39:27Z</time>
		</trkpt>
		<trkpt lat="54.1376075744629" lon="13.0633239746094">
			<ele>56.0999984741211</ele>
			<time>2014-04-13T09:39:29Z</time>
		</trkpt>
		<trkpt lat="54.1375503540039" lon="13.0632905960083">
			<ele>56.2000007629395</ele>
			<time>2014-04-13T09:39:31Z</time>
		</trkpt>
		<trkpt lat="54.1374931335449" lon="13.0632543563843">
			<ele>56.2999992370605</ele>
			<time>2014-04-13T09:39:33Z</time>
		</trkpt>
		<trkpt lat="54.1374320983887" lon="13.0632190704346">
			<ele>56.5</ele>
			<time>2014-04-13T09:39:35Z</time>
		</trkpt>
		<trkpt lat="54.1373710632324" lon="13.0631856918335">
			<ele>56.5</ele>
			<time>2014-04-13T09:39:37Z</time>
		</trkpt>
		<trkpt lat="54.1373100280762" lon="13.0631494522095">
			<ele>56.9000015258789</ele>
			<time>2014-04-13T09:39:39Z</time>
		</trkpt>
		<trkpt lat="54.1372489929199" lon="13.0631132125854">
			<ele>57</ele>
			<time>2014-04-13T09:39:41Z</time>
		</trkpt>
		<trkpt lat="54.1371879577637" lon="13.0630769729614">
			<ele>57.2000007629395</ele>
			<time>2014-04-13T09:39:43Z</time>
		</trkpt>
		<trkpt lat="54.1371231079102" lon="13.0630397796631">
			<ele>57.5</ele>
			<time>2014-04-13T09:39:45Z</time>
		</trkpt>
		<trkpt lat="54.1370620727539" lon="13.0630073547363">
			<ele>57.7000007629395</ele>
			<time>2014-04-13T09:39:47Z</time>
		</trkpt>
		<trkpt lat="54.1370010375977" lon="13.0629730224609">
			<ele>57.7000007629395</ele>
			<time>2014-04-13T09:39:49Z</time>
		</trkpt>
		<trkpt lat="54.1369400024414" lon="13.0629348754883">
			<ele>57.9000015258789</ele>
			<time>2014-04-13T09:39:51Z</time>
		</trkpt>
		<trkpt lat="54.1368751525879" lon="13.0628976821899">
			<ele>57.9000015258789</ele>
			<time>2014-04-13T09:39:53Z</time>
		</trkpt>
		<trkpt lat="54.1368103027344" lon="13.0628595352173">
			<ele>57.7999992370605</ele>
			<time>2014-04-13T09:39:55Z</time>
		</trkpt>
		<trkpt lat="54.1367416381836" lon="13.0628204345703">
			<ele>57.7000007629395</ele>
			<time>2014-04-13T09:39:57Z</time>
		</trkpt>
		<trkpt lat="54.1366767883301" lon="13.062783241272">
			<ele>57.7000007629395</ele>
			<time>2014-04-13T09:39:59Z</time>
		</trkpt>
		<trkpt lat="54.1366119384766" lon="13.062744140625">
			<ele>57.5999984741211</ele>
			<time>2014-04-13T09:40:01Z</time>
		</trkpt>
		<trkpt lat="54.136547088623" lon="13.0627107620239">
			<ele>57.5999984741211</ele>
			<time>2014-04-13T09:40:03Z</time>
		</trkpt>
		<trkpt lat="54.1364784240723" lon="13.0626697540283">
			<ele>57.4000015258789</ele>
			<time>2014-04-13T09:40:05Z</time>
		</trkpt>
		<trkpt lat="54.1364059448242" lon="13.0626268386841">
			<ele>57.2999992370605</ele>
			<time>2014-04-13T09:40:07Z</time>
		</trkpt>
		<trkpt lat="54.1363296508789" lon="13.0625896453857">
			<ele>57.0999984741211</ele>
			<time>2014-04-13T09:40:09Z</time>
		</trkpt>
		<trkpt lat="54.1362533569336" lon="13.062554359436">
			<ele>57</ele>
			<time>2014-04-13T09:40:11Z</time>
		</trkpt>
		<trkpt lat="54.1361808776855" lon="13.0625104904175">
			<ele>56.9000015258789</ele>
			<time>2014-04-13T09:40:13Z</time>
		</trkpt>
		<trkpt lat="54.1361045837402" lon="13.0624628067017">
			<ele>56.7999992370605</ele>
			<time>2014-04-13T09:40:15Z</time>
		</trkpt>
		<trkpt lat="54.1360244750977" lon="13.0624179840088">
			<ele>56.7000007629395</ele>
			<time>2014-04-13T09:40:17Z</time>
		</trkpt>
		<trkpt lat="54.1359481811523" lon="13.0623626708984">
			<ele>56.5999984741211</ele>
			<time>2014-04-13T09:40:19Z</time>
		</trkpt>
		<trkpt lat="54.135871887207" lon="13.0623140335083">
			<ele>56.4000015258789</ele>
			<time>2014-04-13T09:40:21Z</time>
		</trkpt>
		<trkpt lat="54.1357917785645" lon="13.0622501373291">
			<ele>56.2999992370605</ele>
			<time>2014-04-13T09:40:23Z</time>
		</trkpt>
		<trkpt lat="54.1357498168945" lon="13.0622158050537">
			<ele>56.2000007629395</ele>
			<time>2014-04-13T09:40:24Z</time>
		</trkpt>
		<trkpt lat="54.1357078552246" lon="13.062180519104">
			<ele>56.2000007629395</ele>
			<time>2014-04-13T09:40:25Z</time>
		</trkpt>
		<trkpt lat="54.1356315612793" lon="13.0621128082275">
			<ele>56.0999984741211</ele>
			<time>2014-04-13T09:40:27Z</time>
		</trkpt>
		<trkpt lat="54.1355895996094" lon="13.0620794296265">
			<ele>56.2999992370605</ele>
			<time>2014-04-13T09:40:28Z</time>
		</trkpt>
		<trkpt lat="54.1355476379395" lon="13.0620441436768">
			<ele>56.2000007629395</ele>
			<time>2014-04-13T09:40:29Z</time>
		</trkpt>
		<trkpt lat="54.1355094909668" lon="13.0619993209839">
			<ele>56.2000007629395</ele>
			<time>2014-04-13T09:40:30Z</time>
		</trkpt>
		<trkpt lat="54.1354713439941" lon="13.0619554519653">
			<ele>55.9000015258789</ele>
			<time>2014-04-13T09:40:31Z</time>
		</trkpt>
		<trkpt lat="54.1354370117188" lon="13.0619058609009">
			<ele>55.7999992370605</ele>
			<time>2014-04-13T09:40:32Z</time>
		</trkpt>
		<trkpt lat="54.1353988647461" lon="13.0618562698364">
			<ele>55.7000007629395</ele>
			<time>2014-04-13T09:40:33Z</time>
		</trkpt>
		<trkpt lat="54.1353645324707" lon="13.0618047714233">
			<ele>55.7000007629395</ele>
			<time>2014-04-13T09:40:34Z</time>
		</trkpt>
		<trkpt lat="54.1353302001953" lon="13.0617523193359">
			<ele>55.5</ele>
			<time>2014-04-13T09:40:35Z</time>
		</trkpt>
		<trkpt lat="54.1352996826172" lon="13.0616912841797">
			<ele>55.4000015258789</ele>
			<time>2014-04-13T09:40:36Z</time>
		</trkpt>
		<trkpt lat="54.1352653503418" lon="13.0616340637207">
			<ele>55.2999992370605</ele>
			<time>2014-04-13T09:40:37Z</time>
		</trkpt>
		<trkpt lat="54.1352348327637" lon="13.0615720748901">
			<ele>55.5</ele>
			<time>2014-04-13T09:40:38Z</time>
		</trkpt>
		<trkpt lat="54.1352081298828" lon="13.0615110397339">
			<ele>55.4000015258789</ele>
			<time>2014-04-13T09:40:39Z</time>
		</trkpt>
		<trkpt lat="54.1351776123047" lon="13.061450958252">
			<ele>55.2999992370605</ele>
			<time>2014-04-13T09:40:40Z</time>
		</trkpt>
		<trkpt lat="54.1351509094238" lon="13.0613851547241">
			<ele>55.0999984741211</ele>
			<time>2014-04-13T09:40:41Z</time>
		</trkpt>
		<trkpt lat="54.135124206543" lon="13.0613164901733">
			<ele>55.2000007629395</ele>
			<time>2014-04-13T09:40:42Z</time>
		</trkpt>
		<trkpt lat="54.1351013183594" lon="13.0612411499023">
			<ele>54.9000015258789</ele>
			<time>2014-04-13T09:40:43Z</time>
		</trkpt>
		<trkpt lat="54.1350784301758" lon="13.0611639022827">
			<ele>54.9000015258789</ele>
			<time>2014-04-13T09:40:44Z</time>
		</trkpt>
		<trkpt lat="54.1350631713867" lon="13.0610857009888">
			<ele>54.5999984741211</ele>
			<time>2014-04-13T09:40:45Z</time>
		</trkpt>
		<trkpt lat="54.1350479125977" lon="13.0610027313232">
			<ele>54.4000015258789</ele>
			<time>2014-04-13T09:40:46Z</time>
		</trkpt>
		<trkpt lat="54.1350288391113" lon="13.0609169006348">
			<ele>54.2000007629395</ele>
			<time>2014-04-13T09:40:47Z</time>
		</trkpt>
		<trkpt lat="54.1350173950195" lon="13.0608282089233">
			<ele>53.7999992370605</ele>
			<time>2014-04-13T09:40:48Z</time>
		</trkpt>
		<trkpt lat="54.135009765625" lon="13.0607309341431">
			<ele>53.5999984741211</ele>
			<time>2014-04-13T09:40:49Z</time>
		</trkpt>
		<trkpt lat="54.1349983215332" lon="13.0606393814087">
			<ele>53.5</ele>
			<time>2014-04-13T09:40:50Z</time>
		</trkpt>
		<trkpt lat="54.1349983215332" lon="13.0605382919312">
			<ele>53</ele>
			<time>2014-04-13T09:40:51Z</time>
		</trkpt>
		<trkpt lat="54.1350021362305" lon="13.0604438781738">
			<ele>52.7999992370605</ele>
			<time>2014-04-13T09:40:52Z</time>
		</trkpt>
		<trkpt lat="54.1350059509277" lon="13.0603513717651">
			<ele>52.4000015258789</ele>
			<time>2014-04-13T09:40:53Z</time>
		</trkpt>
		<trkpt lat="54.135009765625" lon="13.0602607727051">
			<ele>52.2000007629395</ele>
			<time>2014-04-13T09:40:54Z</time>
		</trkpt>
		<trkpt lat="54.1350173950195" lon="13.0601654052734">
			<ele>51.9000015258789</ele>
			<time>2014-04-13T09:40:55Z</time>
		</trkpt>
		<trkpt lat="54.1350288391113" lon="13.0600700378418">
			<ele>51.7000007629395</ele>
			<time>2014-04-13T09:40:56Z</time>
		</trkpt>
		<trkpt lat="54.1350440979004" lon="13.0599756240845">
			<ele>51.2999992370605</ele>
			<time>2014-04-13T09:40:57Z</time>
		</trkpt>
		<trkpt lat="54.1350631713867" lon="13.0598831176758">
			<ele>51</ele>
			<time>2014-04-13T09:40:58Z</time>
		</trkpt>
		<trkpt lat="54.135082244873" lon="13.0597972869873">
			<ele>51</ele>
			<time>2014-04-13T09:40:59Z</time>
		</trkpt>
		<trkpt lat="54.1351013183594" lon="13.0597085952759">
			<ele>50.5999984741211</ele>
			<time>2014-04-13T09:41:00Z</time>
		</trkpt>
		<trkpt lat="54.135124206543" lon="13.0596179962158">
			<ele>50.5</ele>
			<time>2014-04-13T09:41:01Z</time>
		</trkpt>
		<trkpt lat="54.1351470947266" lon="13.0595235824585">
			<ele>50</ele>
			<time>2014-04-13T09:41:02Z</time>
		</trkpt>
		<trkpt lat="54.1351737976074" lon="13.0594272613525">
			<ele>49.7999992370605</ele>
			<time>2014-04-13T09:41:03Z</time>
		</trkpt>
		<trkpt lat="54.135196685791" lon="13.0593338012695">
			<ele>49.4000015258789</ele>
			<time>2014-04-13T09:41:04Z</time>
		</trkpt>
		<trkpt lat="54.1352233886719" lon="13.0592374801636">
			<ele>49.2999992370605</ele>
			<time>2014-04-13T09:41:05Z</time>
		</trkpt>
		<trkpt lat="54.1352500915527" lon="13.0591421127319">
			<ele>48.9000015258789</ele>
			<time>2014-04-13T09:41:06Z</time>
		</trkpt>
		<trkpt lat="54.1352767944336" lon="13.0590476989746">
			<ele>48.7000007629395</ele>
			<time>2014-04-13T09:41:07Z</time>
		</trkpt>
		<trkpt lat="54.1352996826172" lon="13.0589580535889">
			<ele>48.5999984741211</ele>
			<time>2014-04-13T09:41:08Z</time>
		</trkpt>
		<trkpt lat="54.1353225708008" lon="13.0588607788086">
			<ele>48.5</ele>
			<time>2014-04-13T09:41:09Z</time>
		</trkpt>
		<trkpt lat="54.1353492736816" lon="13.0587730407715">
			<ele>48.2999992370605</ele>
			<time>2014-04-13T09:41:10Z</time>
		</trkpt>
		<trkpt lat="54.1353721618652" lon="13.0586881637573">
			<ele>48.2000007629395</ele>
			<time>2014-04-13T09:41:11Z</time>
		</trkpt>
		<trkpt lat="54.1353950500488" lon="13.0586023330688">
			<ele>48.0999984741211</ele>
			<time>2014-04-13T09:41:12Z</time>
		</trkpt>
		<trkpt lat="54.1354179382324" lon="13.0585145950317">
			<ele>48</ele>
			<time>2014-04-13T09:41:13Z</time>
		</trkpt>
		<trkpt lat="54.135440826416" lon="13.0584354400635">
			<ele>47.7000007629395</ele>
			<time>2014-04-13T09:41:14Z</time>
		</trkpt>
		<trkpt lat="54.1354637145996" lon="13.0583515167236">
			<ele>47.7999992370605</ele>
			<time>2014-04-13T09:41:15Z</time>
		</trkpt>
		<trkpt lat="54.1354789733887" lon="13.0582704544067">
			<ele>47.7000007629395</ele>
			<time>2014-04-13T09:41:16Z</time>
		</trkpt>
		<trkpt lat="54.135498046875" lon="13.0581951141357">
			<ele>47.7999992370605</ele>
			<time>2014-04-13T09:41:17Z</time>
		</trkpt>
		<trkpt lat="54.1355094909668" lon="13.0581159591675">
			<ele>48</ele>
			<time>2014-04-13T09:41:18Z</time>
		</trkpt>
		<trkpt lat="54.1355209350586" lon="13.0579748153687">
			<ele>48.0999984741211</ele>
			<time>2014-04-13T09:41:20Z</time>
		</trkpt>
		<trkpt lat="54.1355209350586" lon="13.0578422546387">
			<ele>48.5</ele>
			<time>2014-04-13T09:41:22Z</time>
		</trkpt>
		<trkpt lat="54.1355133056641" lon="13.0577211380005">
			<ele>48.7999992370605</ele>
			<time>2014-04-13T09:41:24Z</time>
		</trkpt>
		<trkpt lat="54.135498046875" lon="13.0576038360596">
			<ele>49.2000007629395</ele>
			<time>2014-04-13T09:41:26Z</time>
		</trkpt>
		<trkpt lat="54.1354751586914" lon="13.0574913024902">
			<ele>49.7000007629395</ele>
			<time>2014-04-13T09:41:28Z</time>
		</trkpt>
		<trkpt lat="54.1354370117188" lon="13.0574007034302">
			<ele>50</ele>
			<time>2014-04-13T09:41:30Z</time>
		</trkpt>
		<trkpt lat="54.1353874206543" lon="13.0573167800903">
			<ele>50</ele>
			<time>2014-04-13T09:41:32Z</time>
		</trkpt>
		<trkpt lat="54.1353340148926" lon="13.0572366714478">
			<ele>50.2999992370605</ele>
			<time>2014-04-13T09:41:34Z</time>
		</trkpt>
		<trkpt lat="54.1352844238281" lon="13.0571622848511">
			<ele>50.7000007629395</ele>
			<time>2014-04-13T09:41:36Z</time>
		</trkpt>
		<trkpt lat="54.1352272033691" lon="13.0570793151855">
			<ele>51.0999984741211</ele>
			<time>2014-04-13T09:41:38Z</time>
		</trkpt>
		<trkpt lat="54.1351661682129" lon="13.057017326355">
			<ele>51</ele>
			<time>2014-04-13T09:41:40Z</time>
		</trkpt>
		<trkpt lat="54.1351051330566" lon="13.0569524765015">
			<ele>51.2000007629395</ele>
			<time>2014-04-13T09:41:42Z</time>
		</trkpt>
		<trkpt lat="54.1350517272949" lon="13.0568866729736">
			<ele>51.4000015258789</ele>
			<time>2014-04-13T09:41:44Z</time>
		</trkpt>
		<trkpt lat="54.1349983215332" lon="13.0568170547485">
			<ele>51.5</ele>
			<time>2014-04-13T09:41:46Z</time>
		</trkpt>
		<trkpt lat="54.1349411010742" lon="13.0567455291748">
			<ele>51.5</ele>
			<time>2014-04-13T09:41:48Z</time>
		</trkpt>
		<trkpt lat="54.1348838806152" lon="13.0566749572754">
			<ele>51.4000015258789</ele>
			<time>2014-04-13T09:41:50Z</time>
		</trkpt>
		<trkpt lat="54.1348266601563" lon="13.0566082000732">
			<ele>51.0999984741211</ele>
			<time>2014-04-13T09:41:53Z</time>
		</trkpt>
		<trkpt lat="54.1347694396973" lon="13.0565385818481">
			<ele>51.2999992370605</ele>
			<time>2014-04-13T09:41:54Z</time>
		</trkpt>
		<trkpt lat="54.1347122192383" lon="13.0564727783203">
			<ele>51.2999992370605</ele>
			<time>2014-04-13T09:41:56Z</time>
		</trkpt>
		<trkpt lat="54.1346549987793" lon="13.0564012527466">
			<ele>51.4000015258789</ele>
			<time>2014-04-13T09:41:58Z</time>
		</trkpt>
		<trkpt lat="54.1346054077148" lon="13.0563249588013">
			<ele>51.7000007629395</ele>
			<time>2014-04-13T09:42:00Z</time>
		</trkpt>
		<trkpt lat="54.1345481872559" lon="13.0562524795532">
			<ele>51.7000007629395</ele>
			<time>2014-04-13T09:42:02Z</time>
		</trkpt>
		<trkpt lat="54.1344909667969" lon="13.0561809539795">
			<ele>51.9000015258789</ele>
			<time>2014-04-13T09:42:04Z</time>
		</trkpt>
		<trkpt lat="54.1344337463379" lon="13.0561122894287">
			<ele>52.2000007629395</ele>
			<time>2014-04-13T09:42:06Z</time>
		</trkpt>
		<trkpt lat="54.1343765258789" lon="13.056037902832">
			<ele>52</ele>
			<time>2014-04-13T09:42:08Z</time>
		</trkpt>
		<trkpt lat="54.1343154907227" lon="13.0559644699097">
			<ele>51.7999992370605</ele>
			<time>2014-04-13T09:42:10Z</time>
		</trkpt>
		<trkpt lat="54.1342582702637" lon="13.0558891296387">
			<ele>51.9000015258789</ele>
			<time>2014-04-13T09:42:12Z</time>
		</trkpt>
		<trkpt lat="54.1342010498047" lon="13.0558166503906">
			<ele>51.7000007629395</ele>
			<time>2014-04-13T09:42:14Z</time>
		</trkpt>
		<trkpt lat="54.1341438293457" lon="13.0557460784912">
			<ele>51.7000007629395</ele>
			<time>2014-04-13T09:42:16Z</time>
		</trkpt>
		<trkpt lat="54.1340827941895" lon="13.0556755065918">
			<ele>51.5999984741211</ele>
			<time>2014-04-13T09:42:18Z</time>
		</trkpt>
		<trkpt lat="54.1340293884277" lon="13.0556077957153">
			<ele>51.7000007629395</ele>
			<time>2014-04-13T09:42:20Z</time>
		</trkpt>
		<trkpt lat="54.133975982666" lon="13.0555334091187">
			<ele>51.7000007629395</ele>
			<time>2014-04-13T09:42:22Z</time>
		</trkpt>
		<trkpt lat="54.1339149475098" lon="13.0554609298706">
			<ele>52.0999984741211</ele>
			<time>2014-04-13T09:42:24Z</time>
		</trkpt>
		<trkpt lat="54.1338539123535" lon="13.0553827285767">
			<ele>52.2999992370605</ele>
			<time>2014-04-13T09:42:26Z</time>
		</trkpt>
		<trkpt lat="54.1337928771973" lon="13.0552978515625">
			<ele>52.5</ele>
			<time>2014-04-13T09:42:28Z</time>
		</trkpt>
		<trkpt lat="54.133731842041" lon="13.0552225112915">
			<ele>52.7999992370605</ele>
			<time>2014-04-13T09:42:30Z</time>
		</trkpt>
		<trkpt lat="54.1336708068848" lon="13.0551490783691">
			<ele>52.9000015258789</ele>
			<time>2014-04-13T09:42:32Z</time>
		</trkpt>
		<trkpt lat="54.1336135864258" lon="13.0550756454468">
			<ele>52.9000015258789</ele>
			<time>2014-04-13T09:42:34Z</time>
		</trkpt>
		<trkpt lat="54.1335563659668" lon="13.0550060272217">
			<ele>52.9000015258789</ele>
			<time>2014-04-13T09:42:36Z</time>
		</trkpt>
		<trkpt lat="54.1334991455078" lon="13.0549373626709">
			<ele>53</ele>
			<time>2014-04-13T09:42:38Z</time>
		</trkpt>
		<trkpt lat="54.1334381103516" lon="13.0548715591431">
			<ele>53.2000007629395</ele>
			<time>2014-04-13T09:42:40Z</time>
		</trkpt>
		<trkpt lat="54.1333770751953" lon="13.0547933578491">
			<ele>53.2000007629395</ele>
			<time>2014-04-13T09:42:42Z</time>
		</trkpt>
		<trkpt lat="54.1333160400391" lon="13.0547199249268">
			<ele>53.2999992370605</ele>
			<time>2014-04-13T09:42:44Z</time>
		</trkpt>
		<trkpt lat="54.1332550048828" lon="13.0546445846558">
			<ele>53.2000007629395</ele>
			<time>2014-04-13T09:42:46Z</time>
		</trkpt>
		<trkpt lat="54.1331939697266" lon="13.054573059082">
			<ele>53.2000007629395</ele>
			<time>2014-04-13T09:42:48Z</time>
		</trkpt>
		<trkpt lat="54.1331329345703" lon="13.0544986724854">
			<ele>53.2000007629395</ele>
			<time>2014-04-13T09:42:50Z</time>
		</trkpt>
		<trkpt lat="54.1330757141113" lon="13.0544214248657">
			<ele>53.2999992370605</ele>
			<time>2014-04-13T09:42:52Z</time>
		</trkpt>
		<trkpt lat="54.1330146789551" lon="13.0543489456177">
			<ele>53.0999984741211</ele>
			<time>2014-04-13T09:42:54Z</time>
		</trkpt>
		<trkpt lat="54.1329612731934" lon="13.054274559021">
			<ele>53.0999984741211</ele>
			<time>2014-04-13T09:42:56Z</time>
		</trkpt>
		<trkpt lat="54.1329040527344" lon="13.0542011260986">
			<ele>53</ele>
			<time>2014-04-13T09:42:58Z</time>
		</trkpt>
		<trkpt lat="54.1328468322754" lon="13.0541362762451">
			<ele>52.7999992370605</ele>
			<time>2014-04-13T09:43:00Z</time>
		</trkpt>
		<trkpt lat="54.1327819824219" lon="13.0540637969971">
			<ele>52.9000015258789</ele>
			<time>2014-04-13T09:43:02Z</time>
		</trkpt>
		<trkpt lat="54.1327209472656" lon="13.0539970397949">
			<ele>52.7000007629395</ele>
			<time>2014-04-13T09:43:04Z</time>
		</trkpt>
		<trkpt lat="54.1326675415039" lon="13.0539226531982">
			<ele>52.9000015258789</ele>
			<time>2014-04-13T09:43:06Z</time>
		</trkpt>
		<trkpt lat="54.1326103210449" lon="13.0538511276245">
			<ele>52.9000015258789</ele>
			<time>2014-04-13T09:43:08Z</time>
		</trkpt>
		<trkpt lat="54.1325569152832" lon="13.0537738800049">
			<ele>52.7000007629395</ele>
			<time>2014-04-13T09:43:10Z</time>
		</trkpt>
		<trkpt lat="54.1324996948242" lon="13.0536918640137">
			<ele>52.5</ele>
			<time>2014-04-13T09:43:12Z</time>
		</trkpt>
		<trkpt lat="54.1324424743652" lon="13.0536127090454">
			<ele>52.2999992370605</ele>
			<time>2014-04-13T09:43:14Z</time>
		</trkpt>
		<trkpt lat="54.1323852539063" lon="13.053542137146">
			<ele>52.2999992370605</ele>
			<time>2014-04-13T09:43:16Z</time>
		</trkpt>
		<trkpt lat="54.1323356628418" lon="13.0534715652466">
			<ele>52.2000007629395</ele>
			<time>2014-04-13T09:43:18Z</time>
		</trkpt>
		<trkpt lat="54.1322822570801" lon="13.0534009933472">
			<ele>52.5</ele>
			<time>2014-04-13T09:43:20Z</time>
		</trkpt>
		<trkpt lat="54.1322288513184" lon="13.0533304214478">
			<ele>52.4000015258789</ele>
			<time>2014-04-13T09:43:22Z</time>
		</trkpt>
		<trkpt lat="54.1321792602539" lon="13.0532569885254">
			<ele>52.5999984741211</ele>
			<time>2014-04-13T09:43:24Z</time>
		</trkpt>
		<trkpt lat="54.1321220397949" lon="13.053183555603">
			<ele>52.5999984741211</ele>
			<time>2014-04-13T09:43:26Z</time>
		</trkpt>
		<trkpt lat="54.1320686340332" lon="13.053108215332">
			<ele>52.9000015258789</ele>
			<time>2014-04-13T09:43:28Z</time>
		</trkpt>
		<trkpt lat="54.1320152282715" lon="13.0530338287354">
			<ele>53</ele>
			<time>2014-04-13T09:43:30Z</time>
		</trkpt>
		<trkpt lat="54.1319618225098" lon="13.0529613494873">
			<ele>53</ele>
			<time>2014-04-13T09:43:32Z</time>
		</trkpt>
		<trkpt lat="54.131908416748" lon="13.052885055542">
			<ele>52.9000015258789</ele>
			<time>2014-04-13T09:43:34Z</time>
		</trkpt>
		<trkpt lat="54.1318550109863" lon="13.0528144836426">
			<ele>52.7999992370605</ele>
			<time>2014-04-13T09:43:36Z</time>
		</trkpt>
		<trkpt lat="54.1318016052246" lon="13.0527362823486">
			<ele>52.9000015258789</ele>
			<time>2014-04-13T09:43:38Z</time>
		</trkpt>
		<trkpt lat="54.1317481994629" lon="13.0526571273804">
			<ele>52.9000015258789</ele>
			<time>2014-04-13T09:43:40Z</time>
		</trkpt>
		<trkpt lat="54.1316986083984" lon="13.0525770187378">
			<ele>53.0999984741211</ele>
			<time>2014-04-13T09:43:42Z</time>
		</trkpt>
		<trkpt lat="54.1316452026367" lon="13.0524978637695">
			<ele>53</ele>
			<time>2014-04-13T09:43:44Z</time>
		</trkpt>
		<trkpt lat="54.1315879821777" lon="13.0524187088013">
			<ele>53.0999984741211</ele>
			<time>2014-04-13T09:43:46Z</time>
		</trkpt>
		<trkpt lat="54.1315307617188" lon="13.0523405075073">
			<ele>53.2000007629395</ele>
			<time>2014-04-13T09:43:48Z</time>
		</trkpt>
		<trkpt lat="54.131477355957" lon="13.0522603988647">
			<ele>53.0999984741211</ele>
			<time>2014-04-13T09:43:50Z</time>
		</trkpt>
		<trkpt lat="54.1314239501953" lon="13.0521821975708">
			<ele>53.0999984741211</ele>
			<time>2014-04-13T09:43:52Z</time>
		</trkpt>
		<trkpt lat="54.1313705444336" lon="13.0521068572998">
			<ele>53.2000007629395</ele>
			<time>2014-04-13T09:43:55Z</time>
		</trkpt>
		<trkpt lat="54.1313209533691" lon="13.0520315170288">
			<ele>52.9000015258789</ele>
			<time>2014-04-13T09:43:56Z</time>
		</trkpt>
		<trkpt lat="54.1312675476074" lon="13.0519571304321">
			<ele>52.7999992370605</ele>
			<time>2014-04-13T09:43:58Z</time>
		</trkpt>
		<trkpt lat="54.131217956543" lon="13.0518770217896">
			<ele>52.7999992370605</ele>
			<time>2014-04-13T09:44:00Z</time>
		</trkpt>
		<trkpt lat="54.1311645507813" lon="13.051794052124">
			<ele>53.0999984741211</ele>
			<time>2014-04-13T09:44:02Z</time>
		</trkpt>
		<trkpt lat="54.1311111450195" lon="13.0517158508301">
			<ele>53.2999992370605</ele>
			<time>2014-04-13T09:44:04Z</time>
		</trkpt>
		<trkpt lat="54.1310577392578" lon="13.0516405105591">
			<ele>53.2999992370605</ele>
			<time>2014-04-13T09:44:06Z</time>
		</trkpt>
		<trkpt lat="54.1310119628906" lon="13.0515642166138">
			<ele>53.2000007629395</ele>
			<time>2014-04-13T09:44:08Z</time>
		</trkpt>
		<trkpt lat="54.1309585571289" lon="13.0514917373657">
			<ele>53.0999984741211</ele>
			<time>2014-04-13T09:44:10Z</time>
		</trkpt>
		<trkpt lat="54.1309089660645" lon="13.0514183044434">
			<ele>53.2999992370605</ele>
			<time>2014-04-13T09:44:12Z</time>
		</trkpt>
		<trkpt lat="54.1308631896973" lon="13.0513391494751">
			<ele>53.2999992370605</ele>
			<time>2014-04-13T09:44:14Z</time>
		</trkpt>
		<trkpt lat="54.1308135986328" lon="13.0512561798096">
			<ele>53.2999992370605</ele>
			<time>2014-04-13T09:44:16Z</time>
		</trkpt>
		<trkpt lat="54.1307640075684" lon="13.0511741638184">
			<ele>53.5</ele>
			<time>2014-04-13T09:44:18Z</time>
		</trkpt>
		<trkpt lat="54.1307182312012" lon="13.0510959625244">
			<ele>53.2999992370605</ele>
			<time>2014-04-13T09:44:20Z</time>
		</trkpt>
		<trkpt lat="54.1306686401367" lon="13.0510149002075">
			<ele>53.2999992370605</ele>
			<time>2014-04-13T09:44:22Z</time>
		</trkpt>
		<trkpt lat="54.1306190490723" lon="13.0509338378906">
			<ele>53.2999992370605</ele>
			<time>2014-04-13T09:44:24Z</time>
		</trkpt>
		<trkpt lat="54.1305732727051" lon="13.0508441925049">
			<ele>53.2999992370605</ele>
			<time>2014-04-13T09:44:26Z</time>
		</trkpt>
		<trkpt lat="54.1305274963379" lon="13.0507535934448">
			<ele>53.0999984741211</ele>
			<time>2014-04-13T09:44:28Z</time>
		</trkpt>
		<trkpt lat="54.130485534668" lon="13.0506572723389">
			<ele>53</ele>
			<time>2014-04-13T09:44:30Z</time>
		</trkpt>
		<trkpt lat="54.130443572998" lon="13.0505647659302">
			<ele>52.7999992370605</ele>
			<time>2014-04-13T09:44:32Z</time>
		</trkpt>
		<trkpt lat="54.1304016113281" lon="13.0504760742188">
			<ele>52.5999984741211</ele>
			<time>2014-04-13T09:44:34Z</time>
		</trkpt>
		<trkpt lat="54.1303672790527" lon="13.050386428833">
			<ele>52.4000015258789</ele>
			<time>2014-04-13T09:44:36Z</time>
		</trkpt>
		<trkpt lat="54.1303329467773" lon="13.05029296875">
			<ele>52.2999992370605</ele>
			<time>2014-04-13T09:44:38Z</time>
		</trkpt>
		<trkpt lat="54.130298614502" lon="13.0502004623413">
			<ele>52.4000015258789</ele>
			<time>2014-04-13T09:44:40Z</time>
		</trkpt>
		<trkpt lat="54.1302642822266" lon="13.0501022338867">
			<ele>52.4000015258789</ele>
			<time>2014-04-13T09:44:42Z</time>
		</trkpt>
		<trkpt lat="54.1302337646484" lon="13.0500011444092">
			<ele>52.2000007629395</ele>
			<time>2014-04-13T09:44:44Z</time>
		</trkpt>
		<trkpt lat="54.1302032470703" lon="13.0499048233032">
			<ele>52.0999984741211</ele>
			<time>2014-04-13T09:44:46Z</time>
		</trkpt>
		<trkpt lat="54.1301727294922" lon="13.0498104095459">
			<ele>52.2000007629395</ele>
			<time>2014-04-13T09:44:48Z</time>
		</trkpt>
		<trkpt lat="54.1301307678223" lon="13.0497217178345">
			<ele>52.0999984741211</ele>
			<time>2014-04-13T09:44:50Z</time>
		</trkpt>
		<trkpt lat="54.1300735473633" lon="13.0496692657471">
			<ele>52.2000007629395</ele>
			<time>2014-04-13T09:44:52Z</time>
		</trkpt>
		<trkpt lat="54.1300048828125" lon="13.0496654510498">
			<ele>51.9000015258789</ele>
			<time>2014-04-13T09:44:54Z</time>
		</trkpt>
		<trkpt lat="54.1299285888672" lon="13.0497093200684">
			<ele>51.7000007629395</ele>
			<time>2014-04-13T09:44:56Z</time>
		</trkpt>
		<trkpt lat="54.1298866271973" lon="13.0497379302979">
			<ele>51.5</ele>
			<time>2014-04-13T09:44:57Z</time>
		</trkpt>
		<trkpt lat="54.1298408508301" lon="13.0497617721558">
			<ele>51.2000007629395</ele>
			<time>2014-04-13T09:44:58Z</time>
		</trkpt>
		<trkpt lat="54.1297950744629" lon="13.0497827529907">
			<ele>51.0999984741211</ele>
			<time>2014-04-13T09:44:59Z</time>
		</trkpt>
		<trkpt lat="54.1297416687012" lon="13.0497789382935">
			<ele>51.2000007629395</ele>
			<time>2014-04-13T09:45:00Z</time>
		</trkpt>
		<trkpt lat="54.1296920776367" lon="13.0497589111328">
			<ele>51.5</ele>
			<time>2014-04-13T09:45:01Z</time>
		</trkpt>
		<trkpt lat="54.1296424865723" lon="13.049711227417">
			<ele>51.4000015258789</ele>
			<time>2014-04-13T09:45:02Z</time>
		</trkpt>
		<trkpt lat="54.1296005249023" lon="13.0496635437012">
			<ele>51.2000007629395</ele>
			<time>2014-04-13T09:45:03Z</time>
		</trkpt>
		<trkpt lat="54.1295585632324" lon="13.0496091842651">
			<ele>51.2000007629395</ele>
			<time>2014-04-13T09:45:04Z</time>
		</trkpt>
		<trkpt lat="54.1295204162598" lon="13.0495548248291">
			<ele>51.2999992370605</ele>
			<time>2014-04-13T09:45:05Z</time>
		</trkpt>
		<trkpt lat="54.1294822692871" lon="13.0494966506958">
			<ele>50.7000007629395</ele>
			<time>2014-04-13T09:45:06Z</time>
		</trkpt>
		<trkpt lat="54.1294441223145" lon="13.0494337081909">
			<ele>50.7999992370605</ele>
			<time>2014-04-13T09:45:07Z</time>
		</trkpt>
		<trkpt lat="54.1293869018555" lon="13.0493021011353">
			<ele>51.2999992370605</ele>
			<time>2014-04-13T09:45:09Z</time>
		</trkpt>
		<trkpt lat="54.1293601989746" lon="13.0492324829102">
			<ele>51.2999992370605</ele>
			<time>2014-04-13T09:45:10Z</time>
		</trkpt>
		<trkpt lat="54.129322052002" lon="13.0491065979004">
			<ele>51.4000015258789</ele>
			<time>2014-04-13T09:45:12Z</time>
		</trkpt>
		<trkpt lat="54.1292762756348" lon="13.0489835739136">
			<ele>51.4000015258789</ele>
			<time>2014-04-13T09:45:14Z</time>
		</trkpt>
		<trkpt lat="54.1292304992676" lon="13.0488691329956">
			<ele>51.7000007629395</ele>
			<time>2014-04-13T09:45:16Z</time>
		</trkpt>
		<trkpt lat="54.1291885375977" lon="13.0487604141235">
			<ele>51.2000007629395</ele>
			<time>2014-04-13T09:45:18Z</time>
		</trkpt>
		<trkpt lat="54.1291465759277" lon="13.0486526489258">
			<ele>51.5</ele>
			<time>2014-04-13T09:45:20Z</time>
		</trkpt>
		<trkpt lat="54.1291007995605" lon="13.0485467910767">
			<ele>51.0999984741211</ele>
			<time>2014-04-13T09:45:22Z</time>
		</trkpt>
		<trkpt lat="54.1290588378906" lon="13.0484428405762">
			<ele>51.2999992370605</ele>
			<time>2014-04-13T09:45:24Z</time>
		</trkpt>
		<trkpt lat="54.1290168762207" lon="13.04833984375">
			<ele>51</ele>
			<time>2014-04-13T09:45:26Z</time>
		</trkpt>
		<trkpt lat="54.1289710998535" lon="13.0482378005981">
			<ele>51.0999984741211</ele>
			<time>2014-04-13T09:45:28Z</time>
		</trkpt>
		<trkpt lat="54.1289253234863" lon="13.0481243133545">
			<ele>51</ele>
			<time>2014-04-13T09:45:30Z</time>
		</trkpt>
		<trkpt lat="54.1288757324219" lon="13.0480127334595">
			<ele>50.5</ele>
			<time>2014-04-13T09:45:32Z</time>
		</trkpt>
		<trkpt lat="54.1288299560547" lon="13.047908782959">
			<ele>50.5999984741211</ele>
			<time>2014-04-13T09:45:34Z</time>
		</trkpt>
		<trkpt lat="54.1287803649902" lon="13.0478057861328">
			<ele>50.4000015258789</ele>
			<time>2014-04-13T09:45:36Z</time>
		</trkpt>
		<trkpt lat="54.128734588623" lon="13.0476903915405">
			<ele>50.2000007629395</ele>
			<time>2014-04-13T09:45:38Z</time>
		</trkpt>
		<trkpt lat="54.1286811828613" lon="13.0475730895996">
			<ele>50.2000007629395</ele>
			<time>2014-04-13T09:45:40Z</time>
		</trkpt>
		<trkpt lat="54.1286315917969" lon="13.0474605560303">
			<ele>49.9000015258789</ele>
			<time>2014-04-13T09:45:42Z</time>
		</trkpt>
		<trkpt lat="54.128589630127" lon="13.0473442077637">
			<ele>50.0999984741211</ele>
			<time>2014-04-13T09:45:44Z</time>
		</trkpt>
		<trkpt lat="54.1285552978516" lon="13.0472278594971">
			<ele>50.4000015258789</ele>
			<time>2014-04-13T09:45:46Z</time>
		</trkpt>
		<trkpt lat="54.1285095214844" lon="13.0471220016479">
			<ele>50.4000015258789</ele>
			<time>2014-04-13T09:45:48Z</time>
		</trkpt>
		<trkpt lat="54.1284599304199" lon="13.0470113754272">
			<ele>50.5</ele>
			<time>2014-04-13T09:45:50Z</time>
		</trkpt>
		<trkpt lat="54.1284141540527" lon="13.0468997955322">
			<ele>50.5999984741211</ele>
			<time>2014-04-13T09:45:52Z</time>
		</trkpt>
		<trkpt lat="54.1283721923828" lon="13.0467748641968">
			<ele>50.5999984741211</ele>
			<time>2014-04-13T09:45:54Z</time>
		</trkpt>
		<trkpt lat="54.1283340454102" lon="13.0466604232788">
			<ele>51</ele>
			<time>2014-04-13T09:45:56Z</time>
		</trkpt>
		<trkpt lat="54.1282958984375" lon="13.0465450286865">
			<ele>51</ele>
			<time>2014-04-13T09:45:58Z</time>
		</trkpt>
		<trkpt lat="54.1282501220703" lon="13.0464315414429">
			<ele>51.0999984741211</ele>
			<time>2014-04-13T09:46:00Z</time>
		</trkpt>
		<trkpt lat="54.1282043457031" lon="13.0463056564331">
			<ele>51</ele>
			<time>2014-04-13T09:46:02Z</time>
		</trkpt>
		<trkpt lat="54.1281623840332" lon="13.0461912155151">
			<ele>51</ele>
			<time>2014-04-13T09:46:04Z</time>
		</trkpt>
		<trkpt lat="54.1281204223633" lon="13.0460767745972">
			<ele>50.7000007629395</ele>
			<time>2014-04-13T09:46:06Z</time>
		</trkpt>
		<trkpt lat="54.1280784606934" lon="13.0459604263306">
			<ele>50.5999984741211</ele>
			<time>2014-04-13T09:46:09Z</time>
		</trkpt>
		<trkpt lat="54.1280364990234" lon="13.0458488464355">
			<ele>50.9000015258789</ele>
			<time>2014-04-13T09:46:11Z</time>
		</trkpt>
		<trkpt lat="54.1279945373535" lon="13.0457468032837">
			<ele>50.7000007629395</ele>
			<time>2014-04-13T09:46:12Z</time>
		</trkpt>
		<trkpt lat="54.1279525756836" lon="13.0456314086914">
			<ele>51.0999984741211</ele>
			<time>2014-04-13T09:46:15Z</time>
		</trkpt>
		<trkpt lat="54.1279220581055" lon="13.0455284118652">
			<ele>50.7000007629395</ele>
			<time>2014-04-13T09:46:16Z</time>
		</trkpt>
		<trkpt lat="54.1279182434082" lon="13.0454196929932">
			<ele>50.9000015258789</ele>
			<time>2014-04-13T09:46:19Z</time>
		</trkpt>
		<trkpt lat="54.1279602050781" lon="13.0453386306763">
			<ele>50.7000007629395</ele>
			<time>2014-04-13T09:46:20Z</time>
		</trkpt>
		<trkpt lat="54.1280174255371" lon="13.0452690124512">
			<ele>50.4000015258789</ele>
			<time>2014-04-13T09:46:22Z</time>
		</trkpt>
		<trkpt lat="54.1280632019043" lon="13.04518699646">
			<ele>50.5999984741211</ele>
			<time>2014-04-13T09:46:24Z</time>
		</trkpt>
		<trkpt lat="54.1280860900879" lon="13.0450782775879">
			<ele>50.5999984741211</ele>
			<time>2014-04-13T09:46:26Z</time>
		</trkpt>
		<trkpt lat="54.1280784606934" lon="13.0449638366699">
			<ele>51.4000015258789</ele>
			<time>2014-04-13T09:46:28Z</time>
		</trkpt>
		<trkpt lat="54.1280670166016" lon="13.0448532104492">
			<ele>51.4000015258789</ele>
			<time>2014-04-13T09:46:30Z</time>
		</trkpt>
		<trkpt lat="54.1280174255371" lon="13.0447454452515">
			<ele>52.4000015258789</ele>
			<time>2014-04-13T09:46:32Z</time>
		</trkpt>
		<trkpt lat="54.1279716491699" lon="13.0446357727051">
			<ele>52.5999984741211</ele>
			<time>2014-04-13T09:46:34Z</time>
		</trkpt>
		<trkpt lat="54.1279258728027" lon="13.0445222854614">
			<ele>52.5</ele>
			<time>2014-04-13T09:46:36Z</time>
		</trkpt>
		<trkpt lat="54.1278839111328" lon="13.0444087982178">
			<ele>52.5999984741211</ele>
			<time>2014-04-13T09:46:38Z</time>
		</trkpt>
		<trkpt lat="54.1278419494629" lon="13.0442991256714">
			<ele>52.5999984741211</ele>
			<time>2014-04-13T09:46:40Z</time>
		</trkpt>
		<trkpt lat="54.1278038024902" lon="13.0441961288452">
			<ele>52.4000015258789</ele>
			<time>2014-04-13T09:46:42Z</time>
		</trkpt>
		<trkpt lat="54.1277618408203" lon="13.0441036224365">
			<ele>51.0999984741211</ele>
			<time>2014-04-13T09:46:44Z</time>
		</trkpt>
		<trkpt lat="54.1277008056641" lon="13.0439481735229">
			<ele>49.9000015258789</ele>
			<time>2014-04-13T09:46:47Z</time>
		</trkpt>
		<trkpt lat="54.1276626586914" lon="13.0438280105591">
			<ele>49.5</ele>
			<time>2014-04-13T09:46:49Z</time>
		</trkpt>
		<trkpt lat="54.1276206970215" lon="13.0437154769897">
			<ele>51</ele>
			<time>2014-04-13T09:46:51Z</time>
		</trkpt>
		<trkpt lat="54.1275863647461" lon="13.0436143875122">
			<ele>51</ele>
			<time>2014-04-13T09:46:53Z</time>
		</trkpt>
		<trkpt lat="54.1275444030762" lon="13.0435132980347">
			<ele>50.5</ele>
			<time>2014-04-13T09:46:55Z</time>
		</trkpt>
		<trkpt lat="54.1275062561035" lon="13.0434064865112">
			<ele>49.7999992370605</ele>
			<time>2014-04-13T09:46:57Z</time>
		</trkpt>
		<trkpt lat="54.1274604797363" lon="13.0432996749878">
			<ele>49.5</ele>
			<time>2014-04-13T09:47:00Z</time>
		</trkpt>
		<trkpt lat="54.1274108886719" lon="13.043176651001">
			<ele>48.7000007629395</ele>
			<time>2014-04-13T09:47:01Z</time>
		</trkpt>
		<trkpt lat="54.1273727416992" lon="13.0430707931519">
			<ele>47</ele>
			<time>2014-04-13T09:47:03Z</time>
		</trkpt>
		<trkpt lat="54.1273345947266" lon="13.0429763793945">
			<ele>46.5999984741211</ele>
			<time>2014-04-13T09:47:05Z</time>
		</trkpt>
		<trkpt lat="54.1273002624512" lon="13.0428895950317">
			<ele>45.2000007629395</ele>
			<time>2014-04-13T09:47:07Z</time>
		</trkpt>
		<trkpt lat="54.1272659301758" lon="13.0427780151367">
			<ele>47.5</ele>
			<time>2014-04-13T09:47:10Z</time>
		</trkpt>
		<trkpt lat="54.1272583007813" lon="13.0427026748657">
			<ele>48.4000015258789</ele>
			<time>2014-04-13T09:47:18Z</time>
		</trkpt>
		<trkpt lat="54.1272277832031" lon="13.0426177978516">
			<ele>50.2999992370605</ele>
			<time>2014-04-13T09:47:34Z</time>
		</trkpt>
		<trkpt lat="54.1271514892578" lon="13.0425844192505">
			<ele>48.5</ele>
			<time>2014-04-13T09:47:36Z</time>
		</trkpt>
		<trkpt lat="54.1270713806152" lon="13.0425643920898">
			<ele>48.2000007629395</ele>
			<time>2014-04-13T09:47:38Z</time>
		</trkpt>
		<trkpt lat="54.127025604248" lon="13.0425624847412">
			<ele>48.2000007629395</ele>
			<time>2014-04-13T09:47:39Z</time>
		</trkpt>
		<trkpt lat="54.1269798278809" lon="13.0425853729248">
			<ele>47.5999984741211</ele>
			<time>2014-04-13T09:47:40Z</time>
		</trkpt>
		<trkpt lat="54.1269302368164" lon="13.0426111221313">
			<ele>47.7000007629395</ele>
			<time>2014-04-13T09:47:41Z</time>
		</trkpt>
		<trkpt lat="54.126880645752" lon="13.0426321029663">
			<ele>47.5999984741211</ele>
			<time>2014-04-13T09:47:42Z</time>
		</trkpt>
		<trkpt lat="54.1267967224121" lon="13.0426778793335">
			<ele>46.5</ele>
			<time>2014-04-13T09:47:44Z</time>
		</trkpt>
		<trkpt lat="54.126708984375" lon="13.0427026748657">
			<ele>46</ele>
			<time>2014-04-13T09:47:46Z</time>
		</trkpt>
		<trkpt lat="54.1266288757324" lon="13.0427265167236">
			<ele>45.5</ele>
			<time>2014-04-13T09:47:48Z</time>
		</trkpt>
		<trkpt lat="54.1265487670898" lon="13.0427646636963">
			<ele>45.5</ele>
			<time>2014-04-13T09:47:50Z</time>
		</trkpt>
		<trkpt lat="54.1264915466309" lon="13.0427780151367">
			<ele>45.9000015258789</ele>
			<time>2014-04-13T09:47:51Z</time>
		</trkpt>
		<trkpt lat="54.1264495849609" lon="13.042797088623">
			<ele>45.9000015258789</ele>
			<time>2014-04-13T09:47:52Z</time>
		</trkpt>
		<trkpt lat="54.1264038085938" lon="13.0428190231323">
			<ele>45.7999992370605</ele>
			<time>2014-04-13T09:47:53Z</time>
		</trkpt>
		<trkpt lat="54.1263542175293" lon="13.0428447723389">
			<ele>45.2999992370605</ele>
			<time>2014-04-13T09:47:54Z</time>
		</trkpt>
		<trkpt lat="54.1263084411621" lon="13.0428686141968">
			<ele>45</ele>
			<time>2014-04-13T09:47:55Z</time>
		</trkpt>
		<trkpt lat="54.1262626647949" lon="13.0429010391235">
			<ele>45</ele>
			<time>2014-04-13T09:47:56Z</time>
		</trkpt>
		<trkpt lat="54.1261749267578" lon="13.0429649353027">
			<ele>44.2000007629395</ele>
			<time>2014-04-13T09:47:58Z</time>
		</trkpt>
		<trkpt lat="54.1261253356934" lon="13.0430021286011">
			<ele>44.2000007629395</ele>
			<time>2014-04-13T09:47:59Z</time>
		</trkpt>
		<trkpt lat="54.1260414123535" lon="13.043065071106">
			<ele>44.2000007629395</ele>
			<time>2014-04-13T09:48:01Z</time>
		</trkpt>
		<trkpt lat="54.1259918212891" lon="13.0430841445923">
			<ele>44.5999984741211</ele>
			<time>2014-04-13T09:48:02Z</time>
		</trkpt>
		<trkpt lat="54.1259460449219" lon="13.0431032180786">
			<ele>43.5</ele>
			<time>2014-04-13T09:48:03Z</time>
		</trkpt>
		<trkpt lat="54.1259002685547" lon="13.0431156158447">
			<ele>43.5999984741211</ele>
			<time>2014-04-13T09:48:04Z</time>
		</trkpt>
		<trkpt lat="54.1258583068848" lon="13.0431280136108">
			<ele>43.5999984741211</ele>
			<time>2014-04-13T09:48:05Z</time>
		</trkpt>
		<trkpt lat="54.1258087158203" lon="13.0431327819824">
			<ele>43.5999984741211</ele>
			<time>2014-04-13T09:48:06Z</time>
		</trkpt>
		<trkpt lat="54.1257629394531" lon="13.0431299209595">
			<ele>43.9000015258789</ele>
			<time>2014-04-13T09:48:07Z</time>
		</trkpt>
		<trkpt lat="54.1257171630859" lon="13.0431356430054">
			<ele>44.0999984741211</ele>
			<time>2014-04-13T09:48:08Z</time>
		</trkpt>
		<trkpt lat="54.1256294250488" lon="13.0431680679321">
			<ele>44.2999992370605</ele>
			<time>2014-04-13T09:48:10Z</time>
		</trkpt>
		<trkpt lat="54.1255378723145" lon="13.0432014465332">
			<ele>44.2000007629395</ele>
			<time>2014-04-13T09:48:12Z</time>
		</trkpt>
		<trkpt lat="54.1254920959473" lon="13.0432195663452">
			<ele>44.0999984741211</ele>
			<time>2014-04-13T09:48:13Z</time>
		</trkpt>
		<trkpt lat="54.1254425048828" lon="13.0432367324829">
			<ele>44.4000015258789</ele>
			<time>2014-04-13T09:48:14Z</time>
		</trkpt>
		<trkpt lat="54.1253890991211" lon="13.043251991272">
			<ele>44.5</ele>
			<time>2014-04-13T09:48:15Z</time>
		</trkpt>
		<trkpt lat="54.1253433227539" lon="13.043270111084">
			<ele>44.5999984741211</ele>
			<time>2014-04-13T09:48:16Z</time>
		</trkpt>
		<trkpt lat="54.1252975463867" lon="13.0432796478271">
			<ele>44.9000015258789</ele>
			<time>2014-04-13T09:48:17Z</time>
		</trkpt>
		<trkpt lat="54.1252479553223" lon="13.0433006286621">
			<ele>45.4000015258789</ele>
			<time>2014-04-13T09:48:19Z</time>
		</trkpt>
		<trkpt lat="54.1251525878906" lon="13.0433378219604">
			<ele>45.5999984741211</ele>
			<time>2014-04-13T09:48:20Z</time>
		</trkpt>
		<trkpt lat="54.1251068115234" lon="13.0433568954468">
			<ele>45.7000007629395</ele>
			<time>2014-04-13T09:48:21Z</time>
		</trkpt>
		<trkpt lat="54.125057220459" lon="13.0433721542358">
			<ele>45.7999992370605</ele>
			<time>2014-04-13T09:48:22Z</time>
		</trkpt>
		<trkpt lat="54.1250114440918" lon="13.0433912277222">
			<ele>45.7000007629395</ele>
			<time>2014-04-13T09:48:23Z</time>
		</trkpt>
		<trkpt lat="54.1249618530273" lon="13.0434083938599">
			<ele>45.5</ele>
			<time>2014-04-13T09:48:24Z</time>
		</trkpt>
		<trkpt lat="54.1249160766602" lon="13.0434312820435">
			<ele>45.9000015258789</ele>
			<time>2014-04-13T09:48:25Z</time>
		</trkpt>
		<trkpt lat="54.124870300293" lon="13.0434513092041">
			<ele>46.4000015258789</ele>
			<time>2014-04-13T09:48:26Z</time>
		</trkpt>
		<trkpt lat="54.1248245239258" lon="13.0434646606445">
			<ele>46.7000007629395</ele>
			<time>2014-04-13T09:48:27Z</time>
		</trkpt>
		<trkpt lat="54.1247749328613" lon="13.043478012085">
			<ele>47.0999984741211</ele>
			<time>2014-04-13T09:48:28Z</time>
		</trkpt>
		<trkpt lat="54.1246948242188" lon="13.043514251709">
			<ele>47.7000007629395</ele>
			<time>2014-04-13T09:48:30Z</time>
		</trkpt>
		<trkpt lat="54.1246490478516" lon="13.0435352325439">
			<ele>47.5</ele>
			<time>2014-04-13T09:48:31Z</time>
		</trkpt>
		<trkpt lat="54.1245651245117" lon="13.0435667037964">
			<ele>47.5999984741211</ele>
			<time>2014-04-13T09:48:33Z</time>
		</trkpt>
		<trkpt lat="54.1245193481445" lon="13.0435819625854">
			<ele>47.9000015258789</ele>
			<time>2014-04-13T09:48:34Z</time>
		</trkpt>
		<trkpt lat="54.1244697570801" lon="13.0436000823975">
			<ele>48.0999984741211</ele>
			<time>2014-04-13T09:48:35Z</time>
		</trkpt>
		<trkpt lat="54.1243934631348" lon="13.0436267852783">
			<ele>48</ele>
			<time>2014-04-13T09:48:37Z</time>
		</trkpt>
		<trkpt lat="54.1243095397949" lon="13.0436563491821">
			<ele>48</ele>
			<time>2014-04-13T09:48:39Z</time>
		</trkpt>
		<trkpt lat="54.1242294311523" lon="13.0436859130859">
			<ele>48.5999984741211</ele>
			<time>2014-04-13T09:48:41Z</time>
		</trkpt>
		<trkpt lat="54.124153137207" lon="13.0437116622925">
			<ele>49.4000015258789</ele>
			<time>2014-04-13T09:48:43Z</time>
		</trkpt>
		<trkpt lat="54.1240730285645" lon="13.0437355041504">
			<ele>49.2999992370605</ele>
			<time>2014-04-13T09:48:45Z</time>
		</trkpt>
		<trkpt lat="54.1239967346191" lon="13.0437717437744">
			<ele>49</ele>
			<time>2014-04-13T09:48:47Z</time>
		</trkpt>
		<trkpt lat="54.1239204406738" lon="13.0437984466553">
			<ele>48.9000015258789</ele>
			<time>2014-04-13T09:48:49Z</time>
		</trkpt>
		<trkpt lat="54.1238441467285" lon="13.0438261032104">
			<ele>49.0999984741211</ele>
			<time>2014-04-13T09:48:51Z</time>
		</trkpt>
		<trkpt lat="54.1237716674805" lon="13.043851852417">
			<ele>49.2999992370605</ele>
			<time>2014-04-13T09:48:53Z</time>
		</trkpt>
		<trkpt lat="54.1236991882324" lon="13.0438823699951">
			<ele>49.2999992370605</ele>
			<time>2014-04-13T09:48:55Z</time>
		</trkpt>
		<trkpt lat="54.1236267089844" lon="13.043909072876">
			<ele>49.5999984741211</ele>
			<time>2014-04-13T09:48:57Z</time>
		</trkpt>
		<trkpt lat="54.1235542297363" lon="13.0439395904541">
			<ele>49.5999984741211</ele>
			<time>2014-04-13T09:48:59Z</time>
		</trkpt>
		<trkpt lat="54.1234817504883" lon="13.0439653396606">
			<ele>50</ele>
			<time>2014-04-13T09:49:01Z</time>
		</trkpt>
		<trkpt lat="54.123405456543" lon="13.0439929962158">
			<ele>50.2000007629395</ele>
			<time>2014-04-13T09:49:03Z</time>
		</trkpt>
		<trkpt lat="54.1233367919922" lon="13.0440244674683">
			<ele>50.4000015258789</ele>
			<time>2014-04-13T09:49:05Z</time>
		</trkpt>
		<trkpt lat="54.1232681274414" lon="13.0440587997437">
			<ele>50.7000007629395</ele>
			<time>2014-04-13T09:49:07Z</time>
		</trkpt>
		<trkpt lat="54.1231994628906" lon="13.0440921783447">
			<ele>51</ele>
			<time>2014-04-13T09:49:09Z</time>
		</trkpt>
		<trkpt lat="54.1231231689453" lon="13.044116973877">
			<ele>51.2000007629395</ele>
			<time>2014-04-13T09:49:11Z</time>
		</trkpt>
		<trkpt lat="54.123046875" lon="13.044135093689">
			<ele>51.2999992370605</ele>
			<time>2014-04-13T09:49:13Z</time>
		</trkpt>
		<trkpt lat="54.1229667663574" lon="13.044150352478">
			<ele>51.5</ele>
			<time>2014-04-13T09:49:15Z</time>
		</trkpt>
		<trkpt lat="54.1228790283203" lon="13.0441579818726">
			<ele>51.2999992370605</ele>
			<time>2014-04-13T09:49:17Z</time>
		</trkpt>
		<trkpt lat="54.1227989196777" lon="13.0441646575928">
			<ele>51.2999992370605</ele>
			<time>2014-04-13T09:49:19Z</time>
		</trkpt>
		<trkpt lat="54.1227149963379" lon="13.0441675186157">
			<ele>51.4000015258789</ele>
			<time>2014-04-13T09:49:21Z</time>
		</trkpt>
		<trkpt lat="54.122631072998" lon="13.0441722869873">
			<ele>51.5999984741211</ele>
			<time>2014-04-13T09:49:23Z</time>
		</trkpt>
		<trkpt lat="54.1225433349609" lon="13.0441732406616">
			<ele>51.5999984741211</ele>
			<time>2014-04-13T09:49:25Z</time>
		</trkpt>
		<trkpt lat="54.1224555969238" lon="13.0441665649414">
			<ele>51.7999992370605</ele>
			<time>2014-04-13T09:49:27Z</time>
		</trkpt>
		<trkpt lat="54.1224098205566" lon="13.0441637039185">
			<ele>51.9000015258789</ele>
			<time>2014-04-13T09:49:28Z</time>
		</trkpt>
		<trkpt lat="54.1223640441895" lon="13.0441637039185">
			<ele>51.9000015258789</ele>
			<time>2014-04-13T09:49:30Z</time>
		</trkpt>
		<trkpt lat="54.122314453125" lon="13.0441513061523">
			<ele>51.5</ele>
			<time>2014-04-13T09:49:32Z</time>
		</trkpt>
		<trkpt lat="54.122184753418" lon="13.0441312789917">
			<ele>51.7000007629395</ele>
			<time>2014-04-13T09:49:33Z</time>
		</trkpt>
		<trkpt lat="54.1220932006836" lon="13.0441083908081">
			<ele>51.2999992370605</ele>
			<time>2014-04-13T09:49:36Z</time>
		</trkpt>
		<trkpt lat="54.1220436096191" lon="13.0441017150879">
			<ele>51.2999992370605</ele>
			<time>2014-04-13T09:49:37Z</time>
		</trkpt>
		<trkpt lat="54.121997833252" lon="13.0440845489502">
			<ele>51.0999984741211</ele>
			<time>2014-04-13T09:49:38Z</time>
		</trkpt>
		<trkpt lat="54.1219520568848" lon="13.04407787323">
			<ele>51.2000007629395</ele>
			<time>2014-04-13T09:49:38Z</time>
		</trkpt>
		<trkpt lat="54.121898651123" lon="13.0440683364868">
			<ele>50.9000015258789</ele>
			<time>2014-04-13T09:49:40Z</time>
		</trkpt>
		<trkpt lat="54.1218032836914" lon="13.0440483093262">
			<ele>51</ele>
			<time>2014-04-13T09:49:41Z</time>
		</trkpt>
		<trkpt lat="54.121753692627" lon="13.044041633606">
			<ele>50.4000015258789</ele>
			<time>2014-04-13T09:49:42Z</time>
		</trkpt>
		<trkpt lat="54.1217041015625" lon="13.0440301895142">
			<ele>50.2000007629395</ele>
			<time>2014-04-13T09:49:43Z</time>
		</trkpt>
		<trkpt lat="54.1216430664063" lon="13.0440158843994">
			<ele>50.2000007629395</ele>
			<time>2014-04-13T09:49:45Z</time>
		</trkpt>
		<trkpt lat="54.1215324401855" lon="13.0439901351929">
			<ele>49.5</ele>
			<time>2014-04-13T09:49:46Z</time>
		</trkpt>
		<trkpt lat="54.1214790344238" lon="13.0439805984497">
			<ele>49.0999984741211</ele>
			<time>2014-04-13T09:49:47Z</time>
		</trkpt>
		<trkpt lat="54.1214218139648" lon="13.0439653396606">
			<ele>48.5</ele>
			<time>2014-04-13T09:49:48Z</time>
		</trkpt>
		<trkpt lat="54.1213645935059" lon="13.0439605712891">
			<ele>47.7000007629395</ele>
			<time>2014-04-13T09:49:49Z</time>
		</trkpt>
		<trkpt lat="54.1212959289551" lon="13.0439510345459">
			<ele>47.5</ele>
			<time>2014-04-13T09:49:50Z</time>
		</trkpt>
		<trkpt lat="54.1212310791016" lon="13.0439367294312">
			<ele>47.2999992370605</ele>
			<time>2014-04-13T09:49:51Z</time>
		</trkpt>
		<trkpt lat="54.121166229248" lon="13.043924331665">
			<ele>46.9000015258789</ele>
			<time>2014-04-13T09:49:52Z</time>
		</trkpt>
		<trkpt lat="54.1211013793945" lon="13.0439100265503">
			<ele>46.7999992370605</ele>
			<time>2014-04-13T09:49:53Z</time>
		</trkpt>
		<trkpt lat="54.1210327148438" lon="13.0438928604126">
			<ele>46.5999984741211</ele>
			<time>2014-04-13T09:49:54Z</time>
		</trkpt>
		<trkpt lat="54.1209564208984" lon="13.0438690185547">
			<ele>46</ele>
			<time>2014-04-13T09:49:55Z</time>
		</trkpt>
		<trkpt lat="54.1208801269531" lon="13.043848991394">
			<ele>45.7999992370605</ele>
			<time>2014-04-13T09:49:56Z</time>
		</trkpt>
		<trkpt lat="54.1208076477051" lon="13.0438327789307">
			<ele>46.2000007629395</ele>
			<time>2014-04-13T09:49:57Z</time>
		</trkpt>
		<trkpt lat="54.120735168457" lon="13.0438175201416">
			<ele>46</ele>
			<time>2014-04-13T09:49:58Z</time>
		</trkpt>
		<trkpt lat="54.1206665039063" lon="13.0438098907471">
			<ele>46.2000007629395</ele>
			<time>2014-04-13T09:49:59Z</time>
		</trkpt>
		<trkpt lat="54.1205978393555" lon="13.0437984466553">
			<ele>46.2999992370605</ele>
			<time>2014-04-13T09:50:00Z</time>
		</trkpt>
		<trkpt lat="54.1205253601074" lon="13.0437879562378">
			<ele>46.5</ele>
			<time>2014-04-13T09:50:01Z</time>
		</trkpt>
		<trkpt lat="54.1204566955566" lon="13.0437793731689">
			<ele>46.7000007629395</ele>
			<time>2014-04-13T09:50:02Z</time>
		</trkpt>
		<trkpt lat="54.1203842163086" lon="13.0437622070313">
			<ele>46.7000007629395</ele>
			<time>2014-04-13T09:50:03Z</time>
		</trkpt>
		<trkpt lat="54.1203117370605" lon="13.0437450408936">
			<ele>46.2999992370605</ele>
			<time>2014-04-13T09:50:04Z</time>
		</trkpt>
		<trkpt lat="54.1202392578125" lon="13.0437345504761">
			<ele>46.2000007629395</ele>
			<time>2014-04-13T09:50:05Z</time>
		</trkpt>
		<trkpt lat="54.1201705932617" lon="13.0437202453613">
			<ele>46</ele>
			<time>2014-04-13T09:50:06Z</time>
		</trkpt>
		<trkpt lat="54.1201095581055" lon="13.0437068939209">
			<ele>46.2000007629395</ele>
			<time>2014-04-13T09:50:07Z</time>
		</trkpt>
		<trkpt lat="54.1200408935547" lon="13.0436906814575">
			<ele>46.0999984741211</ele>
			<time>2014-04-13T09:50:08Z</time>
		</trkpt>
		<trkpt lat="54.1199760437012" lon="13.0436840057373">
			<ele>46.2999992370605</ele>
			<time>2014-04-13T09:50:09Z</time>
		</trkpt>
		<trkpt lat="54.1199150085449" lon="13.0436639785767">
			<ele>46.5</ele>
			<time>2014-04-13T09:50:10Z</time>
		</trkpt>
		<trkpt lat="54.1198577880859" lon="13.0436544418335">
			<ele>46.5999984741211</ele>
			<time>2014-04-13T09:50:11Z</time>
		</trkpt>
		<trkpt lat="54.1197929382324" lon="13.043643951416">
			<ele>46.2999992370605</ele>
			<time>2014-04-13T09:50:12Z</time>
		</trkpt>
		<trkpt lat="54.1197319030762" lon="13.0436344146729">
			<ele>45.9000015258789</ele>
			<time>2014-04-13T09:50:13Z</time>
		</trkpt>
		<trkpt lat="54.1196746826172" lon="13.0436201095581">
			<ele>45.9000015258789</ele>
			<time>2014-04-13T09:50:14Z</time>
		</trkpt>
		<trkpt lat="54.1196174621582" lon="13.0436067581177">
			<ele>45.9000015258789</ele>
			<time>2014-04-13T09:50:15Z</time>
		</trkpt>
		<trkpt lat="54.1195602416992" lon="13.0435943603516">
			<ele>45.7000007629395</ele>
			<time>2014-04-13T09:50:16Z</time>
		</trkpt>
		<trkpt lat="54.1195106506348" lon="13.0435733795166">
			<ele>45.5</ele>
			<time>2014-04-13T09:50:17Z</time>
		</trkpt>
		<trkpt lat="54.1194610595703" lon="13.0435552597046">
			<ele>45.9000015258789</ele>
			<time>2014-04-13T09:50:18Z</time>
		</trkpt>
		<trkpt lat="54.1194076538086" lon="13.0435466766357">
			<ele>46.0999984741211</ele>
			<time>2014-04-13T09:50:19Z</time>
		</trkpt>
		<trkpt lat="54.1193618774414" lon="13.0435380935669">
			<ele>46.5999984741211</ele>
			<time>2014-04-13T09:50:20Z</time>
		</trkpt>
		<trkpt lat="54.1193046569824" lon="13.0435333251953">
			<ele>46.4000015258789</ele>
			<time>2014-04-13T09:50:21Z</time>
		</trkpt>
		<trkpt lat="54.1192512512207" lon="13.0435419082642">
			<ele>47</ele>
			<time>2014-04-13T09:50:22Z</time>
		</trkpt>
		<trkpt lat="54.1192054748535" lon="13.0435771942139">
			<ele>47.2000007629395</ele>
			<time>2014-04-13T09:50:23Z</time>
		</trkpt>
		<trkpt lat="54.1191558837891" lon="13.0435771942139">
			<ele>46.5999984741211</ele>
			<time>2014-04-13T09:50:24Z</time>
		</trkpt>
		<trkpt lat="54.1191062927246" lon="13.043571472168">
			<ele>46.2000007629395</ele>
			<time>2014-04-13T09:50:25Z</time>
		</trkpt>
		<trkpt lat="54.1190528869629" lon="13.0435466766357">
			<ele>45.9000015258789</ele>
			<time>2014-04-13T09:50:26Z</time>
		</trkpt>
		<trkpt lat="54.1189994812012" lon="13.043532371521">
			<ele>45.9000015258789</ele>
			<time>2014-04-13T09:50:27Z</time>
		</trkpt>
		<trkpt lat="54.1189422607422" lon="13.0435228347778">
			<ele>45.7000007629395</ele>
			<time>2014-04-13T09:50:28Z</time>
		</trkpt>
		<trkpt lat="54.1188926696777" lon="13.043514251709">
			<ele>45.4000015258789</ele>
			<time>2014-04-13T09:50:29Z</time>
		</trkpt>
		<trkpt lat="54.1188430786133" lon="13.0434989929199">
			<ele>45.5999984741211</ele>
			<time>2014-04-13T09:50:30Z</time>
		</trkpt>
		<trkpt lat="54.1187858581543" lon="13.0434894561768">
			<ele>45.5</ele>
			<time>2014-04-13T09:50:31Z</time>
		</trkpt>
		<trkpt lat="54.1187324523926" lon="13.0434818267822">
			<ele>46.2999992370605</ele>
			<time>2014-04-13T09:50:32Z</time>
		</trkpt>
		<trkpt lat="54.1186714172363" lon="13.0434656143188">
			<ele>46.0999984741211</ele>
			<time>2014-04-13T09:50:33Z</time>
		</trkpt>
		<trkpt lat="54.1186141967773" lon="13.0434551239014">
			<ele>45.4000015258789</ele>
			<time>2014-04-13T09:50:34Z</time>
		</trkpt>
		<trkpt lat="54.1185607910156" lon="13.0434427261353">
			<ele>45.5</ele>
			<time>2014-04-13T09:50:35Z</time>
		</trkpt>
		<trkpt lat="54.1185035705566" lon="13.0434293746948">
			<ele>44.7999992370605</ele>
			<time>2014-04-13T09:50:36Z</time>
		</trkpt>
		<trkpt lat="54.1184425354004" lon="13.0434141159058">
			<ele>44.7000007629395</ele>
			<time>2014-04-13T09:50:37Z</time>
		</trkpt>
		<trkpt lat="54.1183853149414" lon="13.0433940887451">
			<ele>44.7000007629395</ele>
			<time>2014-04-13T09:50:38Z</time>
		</trkpt>
		<trkpt lat="54.118335723877" lon="13.0433902740479">
			<ele>44.5999984741211</ele>
			<time>2014-04-13T09:50:39Z</time>
		</trkpt>
		<trkpt lat="54.118278503418" lon="13.0433797836304">
			<ele>44.0999984741211</ele>
			<time>2014-04-13T09:50:40Z</time>
		</trkpt>
		<trkpt lat="54.1182250976563" lon="13.0433683395386">
			<ele>43.9000015258789</ele>
			<time>2014-04-13T09:50:41Z</time>
		</trkpt>
		<trkpt lat="54.1181678771973" lon="13.0433464050293">
			<ele>43.2999992370605</ele>
			<time>2014-04-13T09:50:42Z</time>
		</trkpt>
		<trkpt lat="54.1181106567383" lon="13.0433235168457">
			<ele>43.0999984741211</ele>
			<time>2014-04-13T09:50:43Z</time>
		</trkpt>
		<trkpt lat="54.1180534362793" lon="13.0433139801025">
			<ele>43</ele>
			<time>2014-04-13T09:50:44Z</time>
		</trkpt>
		<trkpt lat="54.117992401123" lon="13.043306350708">
			<ele>43.4000015258789</ele>
			<time>2014-04-13T09:50:45Z</time>
		</trkpt>
		<trkpt lat="54.1179428100586" lon="13.0432939529419">
			<ele>43.5</ele>
			<time>2014-04-13T09:50:46Z</time>
		</trkpt>
		<trkpt lat="54.1178932189941" lon="13.0432844161987">
			<ele>43.2999992370605</ele>
			<time>2014-04-13T09:50:47Z</time>
		</trkpt>
		<trkpt lat="54.1178398132324" lon="13.043267250061">
			<ele>43.9000015258789</ele>
			<time>2014-04-13T09:50:48Z</time>
		</trkpt>
		<trkpt lat="54.1177787780762" lon="13.0432586669922">
			<ele>43</ele>
			<time>2014-04-13T09:50:49Z</time>
		</trkpt>
		<trkpt lat="54.1177101135254" lon="13.0432472229004">
			<ele>42.5999984741211</ele>
			<time>2014-04-13T09:50:50Z</time>
		</trkpt>
		<trkpt lat="54.1176528930664" lon="13.0432443618774">
			<ele>42.0999984741211</ele>
			<time>2014-04-13T09:50:51Z</time>
		</trkpt>
		<trkpt lat="54.1175994873047" lon="13.0432415008545">
			<ele>41.5999984741211</ele>
			<time>2014-04-13T09:50:52Z</time>
		</trkpt>
		<trkpt lat="54.117546081543" lon="13.0432291030884">
			<ele>41.2000007629395</ele>
			<time>2014-04-13T09:50:53Z</time>
		</trkpt>
		<trkpt lat="54.1174964904785" lon="13.0432214736938">
			<ele>41.7999992370605</ele>
			<time>2014-04-13T09:50:54Z</time>
		</trkpt>
		<trkpt lat="54.1174354553223" lon="13.0432081222534">
			<ele>41.5999984741211</ele>
			<time>2014-04-13T09:50:55Z</time>
		</trkpt>
		<trkpt lat="54.1173858642578" lon="13.0431976318359">
			<ele>41.2000007629395</ele>
			<time>2014-04-13T09:50:56Z</time>
		</trkpt>
		<trkpt lat="54.1173362731934" lon="13.0431928634644">
			<ele>40.7999992370605</ele>
			<time>2014-04-13T09:50:57Z</time>
		</trkpt>
		<trkpt lat="54.1172828674316" lon="13.0431823730469">
			<ele>40.7999992370605</ele>
			<time>2014-04-13T09:50:58Z</time>
		</trkpt>
		<trkpt lat="54.1172332763672" lon="13.0431632995605">
			<ele>40.7000007629395</ele>
			<time>2014-04-13T09:50:59Z</time>
		</trkpt>
		<trkpt lat="54.1171836853027" lon="13.0431604385376">
			<ele>40.4000015258789</ele>
			<time>2014-04-13T09:51:00Z</time>
		</trkpt>
		<trkpt lat="54.1171340942383" lon="13.0431489944458">
			<ele>40.4000015258789</ele>
			<time>2014-04-13T09:51:01Z</time>
		</trkpt>
		<trkpt lat="54.1170425415039" lon="13.0431270599365">
			<ele>40.5</ele>
			<time>2014-04-13T09:51:03Z</time>
		</trkpt>
		<trkpt lat="54.1169853210449" lon="13.0431222915649">
			<ele>39.7000007629395</ele>
			<time>2014-04-13T09:51:04Z</time>
		</trkpt>
		<trkpt lat="54.1169357299805" lon="13.0431156158447">
			<ele>39.2999992370605</ele>
			<time>2014-04-13T09:51:05Z</time>
		</trkpt>
		<trkpt lat="54.1168899536133" lon="13.0431089401245">
			<ele>39.7000007629395</ele>
			<time>2014-04-13T09:51:06Z</time>
		</trkpt>
		<trkpt lat="54.1168327331543" lon="13.0431003570557">
			<ele>39.2000007629395</ele>
			<time>2014-04-13T09:51:07Z</time>
		</trkpt>
		<trkpt lat="54.1167869567871" lon="13.0430908203125">
			<ele>39.4000015258789</ele>
			<time>2014-04-13T09:51:08Z</time>
		</trkpt>
		<trkpt lat="54.1167373657227" lon="13.0430746078491">
			<ele>39</ele>
			<time>2014-04-13T09:51:09Z</time>
		</trkpt>
		<trkpt lat="54.1166763305664" lon="13.0430631637573">
			<ele>37.9000015258789</ele>
			<time>2014-04-13T09:51:10Z</time>
		</trkpt>
		<trkpt lat="54.1166229248047" lon="13.0430536270142">
			<ele>38.5999984741211</ele>
			<time>2014-04-13T09:51:11Z</time>
		</trkpt>
		<trkpt lat="54.1165657043457" lon="13.0430459976196">
			<ele>37.9000015258789</ele>
			<time>2014-04-13T09:51:12Z</time>
		</trkpt>
		<trkpt lat="54.1165084838867" lon="13.0430297851563">
			<ele>37.5</ele>
			<time>2014-04-13T09:51:13Z</time>
		</trkpt>
		<trkpt lat="54.116455078125" lon="13.0430183410645">
			<ele>37.2000007629395</ele>
			<time>2014-04-13T09:51:14Z</time>
		</trkpt>
		<trkpt lat="54.1164016723633" lon="13.0430135726929">
			<ele>36.5</ele>
			<time>2014-04-13T09:51:15Z</time>
		</trkpt>
		<trkpt lat="54.1163520812988" lon="13.043004989624">
			<ele>36.5999984741211</ele>
			<time>2014-04-13T09:51:16Z</time>
		</trkpt>
		<trkpt lat="54.1163063049316" lon="13.0429973602295">
			<ele>37</ele>
			<time>2014-04-13T09:51:17Z</time>
		</trkpt>
		<trkpt lat="54.1162605285645" lon="13.0429887771606">
			<ele>37.5</ele>
			<time>2014-04-13T09:51:18Z</time>
		</trkpt>
		<trkpt lat="54.1162109375" lon="13.0429801940918">
			<ele>37.5</ele>
			<time>2014-04-13T09:51:19Z</time>
		</trkpt>
		<trkpt lat="54.1161651611328" lon="13.0429697036743">
			<ele>37</ele>
			<time>2014-04-13T09:51:20Z</time>
		</trkpt>
		<trkpt lat="54.1161155700684" lon="13.0429573059082">
			<ele>37</ele>
			<time>2014-04-13T09:51:21Z</time>
		</trkpt>
		<trkpt lat="54.1160697937012" lon="13.0429449081421">
			<ele>37.0999984741211</ele>
			<time>2014-04-13T09:51:22Z</time>
		</trkpt>
		<trkpt lat="54.1160202026367" lon="13.0429334640503">
			<ele>37.0999984741211</ele>
			<time>2014-04-13T09:51:23Z</time>
		</trkpt>
		<trkpt lat="54.1159706115723" lon="13.0429229736328">
			<ele>36.7999992370605</ele>
			<time>2014-04-13T09:51:24Z</time>
		</trkpt>
		<trkpt lat="54.1159210205078" lon="13.0429210662842">
			<ele>36.9000015258789</ele>
			<time>2014-04-13T09:51:25Z</time>
		</trkpt>
		<trkpt lat="54.1158714294434" lon="13.0429058074951">
			<ele>36.7999992370605</ele>
			<time>2014-04-13T09:51:26Z</time>
		</trkpt>
		<trkpt lat="54.1158294677734" lon="13.0428905487061">
			<ele>37.2000007629395</ele>
			<time>2014-04-13T09:51:27Z</time>
		</trkpt>
		<trkpt lat="54.1157836914063" lon="13.0428800582886">
			<ele>37.9000015258789</ele>
			<time>2014-04-13T09:51:28Z</time>
		</trkpt>
		<trkpt lat="54.1157379150391" lon="13.0428771972656">
			<ele>37.7999992370605</ele>
			<time>2014-04-13T09:51:29Z</time>
		</trkpt>
		<trkpt lat="54.115650177002" lon="13.0428562164307">
			<ele>39.4000015258789</ele>
			<time>2014-04-13T09:51:31Z</time>
		</trkpt>
		<trkpt lat="54.1155624389648" lon="13.0428352355957">
			<ele>39.5999984741211</ele>
			<time>2014-04-13T09:51:33Z</time>
		</trkpt>
		<trkpt lat="54.1154747009277" lon="13.0428152084351">
			<ele>39.5</ele>
			<time>2014-04-13T09:51:35Z</time>
		</trkpt>
		<trkpt lat="54.1154251098633" lon="13.0428075790405">
			<ele>39.5</ele>
			<time>2014-04-13T09:51:36Z</time>
		</trkpt>
		<trkpt lat="54.1153373718262" lon="13.0427932739258">
			<ele>39.7000007629395</ele>
			<time>2014-04-13T09:51:38Z</time>
		</trkpt>
		<trkpt lat="54.1152572631836" lon="13.042760848999">
			<ele>40.2000007629395</ele>
			<time>2014-04-13T09:51:40Z</time>
		</trkpt>
		<trkpt lat="54.115177154541" lon="13.0427360534668">
			<ele>40.9000015258789</ele>
			<time>2014-04-13T09:51:42Z</time>
		</trkpt>
		<trkpt lat="54.1150970458984" lon="13.0427131652832">
			<ele>39.9000015258789</ele>
			<time>2014-04-13T09:51:44Z</time>
		</trkpt>
		<trkpt lat="54.1150207519531" lon="13.0427074432373">
			<ele>38.7000007629395</ele>
			<time>2014-04-13T09:51:46Z</time>
		</trkpt>
		<trkpt lat="54.1149482727051" lon="13.0426807403564">
			<ele>40</ele>
			<time>2014-04-13T09:51:48Z</time>
		</trkpt>
		<trkpt lat="54.114875793457" lon="13.0426473617554">
			<ele>40</ele>
			<time>2014-04-13T09:51:50Z</time>
		</trkpt>
		<trkpt lat="54.1147918701172" lon="13.0426149368286">
			<ele>39.7999992370605</ele>
			<time>2014-04-13T09:51:52Z</time>
		</trkpt>
		<trkpt lat="54.1147155761719" lon="13.0426092147827">
			<ele>40.7999992370605</ele>
			<time>2014-04-13T09:51:54Z</time>
		</trkpt>
		<trkpt lat="54.1146697998047" lon="13.0425958633423">
			<ele>41.0999984741211</ele>
			<time>2014-04-13T09:51:55Z</time>
		</trkpt>
		<trkpt lat="54.1146240234375" lon="13.0425872802734">
			<ele>41.5</ele>
			<time>2014-04-13T09:51:56Z</time>
		</trkpt>
		<trkpt lat="54.1145477294922" lon="13.0425701141357">
			<ele>43</ele>
			<time>2014-04-13T09:51:58Z</time>
		</trkpt>
		<trkpt lat="54.1144752502441" lon="13.0425424575806">
			<ele>43</ele>
			<time>2014-04-13T09:52:00Z</time>
		</trkpt>
		<trkpt lat="54.1144027709961" lon="13.0424785614014">
			<ele>43.2000007629395</ele>
			<time>2014-04-13T09:52:02Z</time>
		</trkpt>
		<trkpt lat="54.1143951416016" lon="13.0423917770386">
			<ele>42.5999984741211</ele>
			<time>2014-04-13T09:52:03Z</time>
		</trkpt>
		<trkpt lat="54.114387512207" lon="13.0423154830933">
			<ele>42.4000015258789</ele>
			<time>2014-04-13T09:52:04Z</time>
		</trkpt>
		<trkpt lat="54.114372253418" lon="13.0422420501709">
			<ele>42.0999984741211</ele>
			<time>2014-04-13T09:52:05Z</time>
		</trkpt>
		<trkpt lat="54.1143608093262" lon="13.0421619415283">
			<ele>41.9000015258789</ele>
			<time>2014-04-13T09:52:06Z</time>
		</trkpt>
		<trkpt lat="54.1143493652344" lon="13.0420827865601">
			<ele>41.9000015258789</ele>
			<time>2014-04-13T09:52:07Z</time>
		</trkpt>
		<trkpt lat="54.114330291748" lon="13.0420017242432">
			<ele>41.7000007629395</ele>
			<time>2014-04-13T09:52:08Z</time>
		</trkpt>
		<trkpt lat="54.1143188476563" lon="13.0419206619263">
			<ele>42</ele>
			<time>2014-04-13T09:52:09Z</time>
		</trkpt>
		<trkpt lat="54.1143035888672" lon="13.041841506958">
			<ele>41.7999992370605</ele>
			<time>2014-04-13T09:52:10Z</time>
		</trkpt>
		<trkpt lat="54.1142845153809" lon="13.041690826416">
			<ele>42</ele>
			<time>2014-04-13T09:52:12Z</time>
		</trkpt>
		<trkpt lat="54.1142616271973" lon="13.0416193008423">
			<ele>41.7000007629395</ele>
			<time>2014-04-13T09:52:13Z</time>
		</trkpt>
		<trkpt lat="54.1142425537109" lon="13.0415468215942">
			<ele>41.9000015258789</ele>
			<time>2014-04-13T09:52:14Z</time>
		</trkpt>
		<trkpt lat="54.114200592041" lon="13.0414094924927">
			<ele>42.2000007629395</ele>
			<time>2014-04-13T09:52:16Z</time>
		</trkpt>
		<trkpt lat="54.1141548156738" lon="13.0412845611572">
			<ele>41.9000015258789</ele>
			<time>2014-04-13T09:52:18Z</time>
		</trkpt>
		<trkpt lat="54.1141319274902" lon="13.0412216186523">
			<ele>42</ele>
			<time>2014-04-13T09:52:19Z</time>
		</trkpt>
		<trkpt lat="54.114086151123" lon="13.0410957336426">
			<ele>42</ele>
			<time>2014-04-13T09:52:21Z</time>
		</trkpt>
		<trkpt lat="54.1140556335449" lon="13.0410404205322">
			<ele>41.7000007629395</ele>
			<time>2014-04-13T09:52:22Z</time>
		</trkpt>
		<trkpt lat="54.1139945983887" lon="13.0409269332886">
			<ele>41.2000007629395</ele>
			<time>2014-04-13T09:52:24Z</time>
		</trkpt>
		<trkpt lat="54.1139335632324" lon="13.0408182144165">
			<ele>40.7999992370605</ele>
			<time>2014-04-13T09:52:26Z</time>
		</trkpt>
		<trkpt lat="54.1138687133789" lon="13.0407047271729">
			<ele>40.7000007629395</ele>
			<time>2014-04-13T09:52:28Z</time>
		</trkpt>
		<trkpt lat="54.1138153076172" lon="13.0405769348145">
			<ele>40.4000015258789</ele>
			<time>2014-04-13T09:52:30Z</time>
		</trkpt>
		<trkpt lat="54.1137619018555" lon="13.0404529571533">
			<ele>41.2000007629395</ele>
			<time>2014-04-13T09:52:32Z</time>
		</trkpt>
		<trkpt lat="54.1137313842773" lon="13.0403890609741">
			<ele>41.5</ele>
			<time>2014-04-13T09:52:33Z</time>
		</trkpt>
		<trkpt lat="54.1136665344238" lon="13.0402822494507">
			<ele>41.4000015258789</ele>
			<time>2014-04-13T09:52:35Z</time>
		</trkpt>
		<trkpt lat="54.1136322021484" lon="13.0402269363403">
			<ele>41.5999984741211</ele>
			<time>2014-04-13T09:52:36Z</time>
		</trkpt>
		<trkpt lat="54.1135749816895" lon="13.0401210784912">
			<ele>40.9000015258789</ele>
			<time>2014-04-13T09:52:38Z</time>
		</trkpt>
		<trkpt lat="54.1135025024414" lon="13.0400276184082">
			<ele>41.7999992370605</ele>
			<time>2014-04-13T09:52:40Z</time>
		</trkpt>
		<trkpt lat="54.1134338378906" lon="13.0399284362793">
			<ele>42.0999984741211</ele>
			<time>2014-04-13T09:52:42Z</time>
		</trkpt>
		<trkpt lat="54.1133613586426" lon="13.0398530960083">
			<ele>42.2999992370605</ele>
			<time>2014-04-13T09:52:44Z</time>
		</trkpt>
		<trkpt lat="54.1132850646973" lon="13.0398006439209">
			<ele>42.4000015258789</ele>
			<time>2014-04-13T09:52:46Z</time>
		</trkpt>
		<trkpt lat="54.1132354736328" lon="13.0397834777832">
			<ele>42.5999984741211</ele>
			<time>2014-04-13T09:52:47Z</time>
		</trkpt>
		<trkpt lat="54.113151550293" lon="13.0397596359253">
			<ele>43.2999992370605</ele>
			<time>2014-04-13T09:52:49Z</time>
		</trkpt>
		<trkpt lat="54.1131057739258" lon="13.0397577285767">
			<ele>43.7999992370605</ele>
			<time>2014-04-13T09:52:50Z</time>
		</trkpt>
		<trkpt lat="54.1130599975586" lon="13.0397644042969">
			<ele>43.5</ele>
			<time>2014-04-13T09:52:51Z</time>
		</trkpt>
		<trkpt lat="54.1129722595215" lon="13.03977394104">
			<ele>44.5999984741211</ele>
			<time>2014-04-13T09:52:53Z</time>
		</trkpt>
		<trkpt lat="54.112922668457" lon="13.0397834777832">
			<ele>44.2999992370605</ele>
			<time>2014-04-13T09:52:54Z</time>
		</trkpt>
		<trkpt lat="54.1128807067871" lon="13.039794921875">
			<ele>44.4000015258789</ele>
			<time>2014-04-13T09:52:55Z</time>
		</trkpt>
		<trkpt lat="54.1128005981445" lon="13.0398540496826">
			<ele>42.7999992370605</ele>
			<time>2014-04-13T09:52:57Z</time>
		</trkpt>
		<trkpt lat="54.112720489502" lon="13.0399112701416">
			<ele>42</ele>
			<time>2014-04-13T09:52:59Z</time>
		</trkpt>
		<trkpt lat="54.1126518249512" lon="13.0399770736694">
			<ele>42.4000015258789</ele>
			<time>2014-04-13T09:53:01Z</time>
		</trkpt>
		<trkpt lat="54.1125793457031" lon="13.0400342941284">
			<ele>42.2999992370605</ele>
			<time>2014-04-13T09:53:03Z</time>
		</trkpt>
		<trkpt lat="54.1125183105469" lon="13.0400943756104">
			<ele>42</ele>
			<time>2014-04-13T09:53:05Z</time>
		</trkpt>
		<trkpt lat="54.1124496459961" lon="13.0401363372803">
			<ele>37.2000007629395</ele>
			<time>2014-04-13T09:53:06Z</time>
		</trkpt>
		<trkpt lat="54.1123886108398" lon="13.0402402877808">
			<ele>37.7999992370605</ele>
			<time>2014-04-13T09:53:08Z</time>
		</trkpt>
		<trkpt lat="54.1123428344727" lon="13.0403079986572">
			<ele>38.0999984741211</ele>
			<time>2014-04-13T09:53:09Z</time>
		</trkpt>
		<trkpt lat="54.1122970581055" lon="13.0403680801392">
			<ele>37.5999984741211</ele>
			<time>2014-04-13T09:53:12Z</time>
		</trkpt>
		<trkpt lat="54.1122436523438" lon="13.0402870178223">
			<ele>41.4000015258789</ele>
			<time>2014-04-13T09:53:17Z</time>
		</trkpt>
		<trkpt lat="54.1122016906738" lon="13.0401496887207">
			<ele>42.5</ele>
			<time>2014-04-13T09:53:20Z</time>
		</trkpt>
		<trkpt lat="54.112174987793" lon="13.0400333404541">
			<ele>42.2000007629395</ele>
			<time>2014-04-13T09:53:21Z</time>
		</trkpt>
		<trkpt lat="54.1121444702148" lon="13.0399141311646">
			<ele>43</ele>
			<time>2014-04-13T09:53:23Z</time>
		</trkpt>
		<trkpt lat="54.1120986938477" lon="13.0398006439209">
			<ele>43.2000007629395</ele>
			<time>2014-04-13T09:53:25Z</time>
		</trkpt>
		<trkpt lat="54.112060546875" lon="13.039680480957">
			<ele>43.5999984741211</ele>
			<time>2014-04-13T09:53:27Z</time>
		</trkpt>
		<trkpt lat="54.1120147705078" lon="13.039568901062">
			<ele>43.7000007629395</ele>
			<time>2014-04-13T09:53:29Z</time>
		</trkpt>
		<trkpt lat="54.1119728088379" lon="13.0394620895386">
			<ele>43.5</ele>
			<time>2014-04-13T09:53:31Z</time>
		</trkpt>
		<trkpt lat="54.1119346618652" lon="13.0393524169922">
			<ele>43.7000007629395</ele>
			<time>2014-04-13T09:53:33Z</time>
		</trkpt>
		<trkpt lat="54.111888885498" lon="13.0392475128174">
			<ele>43.7999992370605</ele>
			<time>2014-04-13T09:53:35Z</time>
		</trkpt>
		<trkpt lat="54.1118392944336" lon="13.0391311645508">
			<ele>44</ele>
			<time>2014-04-13T09:53:37Z</time>
		</trkpt>
		<trkpt lat="54.1117935180664" lon="13.0390157699585">
			<ele>43.9000015258789</ele>
			<time>2014-04-13T09:53:39Z</time>
		</trkpt>
		<trkpt lat="54.1117362976074" lon="13.0389175415039">
			<ele>44</ele>
			<time>2014-04-13T09:53:41Z</time>
		</trkpt>
		<trkpt lat="54.1116752624512" lon="13.0388526916504">
			<ele>44.0999984741211</ele>
			<time>2014-04-13T09:53:43Z</time>
		</trkpt>
		<trkpt lat="54.1116104125977" lon="13.0388193130493">
			<ele>44.9000015258789</ele>
			<time>2014-04-13T09:53:45Z</time>
		</trkpt>
		<trkpt lat="54.1115341186523" lon="13.0388088226318">
			<ele>45.2999992370605</ele>
			<time>2014-04-13T09:53:47Z</time>
		</trkpt>
		<trkpt lat="54.111442565918" lon="13.0388498306274">
			<ele>44.5</ele>
			<time>2014-04-13T09:53:49Z</time>
		</trkpt>
		<trkpt lat="54.1113624572754" lon="13.0388774871826">
			<ele>45.0999984741211</ele>
			<time>2014-04-13T09:53:51Z</time>
		</trkpt>
		<trkpt lat="54.1112861633301" lon="13.0388927459717">
			<ele>44.9000015258789</ele>
			<time>2014-04-13T09:53:53Z</time>
		</trkpt>
		<trkpt lat="54.111213684082" lon="13.0388898849487">
			<ele>45</ele>
			<time>2014-04-13T09:53:55Z</time>
		</trkpt>
		<trkpt lat="54.1111373901367" lon="13.038893699646">
			<ele>45.5</ele>
			<time>2014-04-13T09:53:57Z</time>
		</trkpt>
		<trkpt lat="54.1110534667969" lon="13.0389137268066">
			<ele>44.2999992370605</ele>
			<time>2014-04-13T09:53:59Z</time>
		</trkpt>
		<trkpt lat="54.1109962463379" lon="13.0389060974121">
			<ele>45.4000015258789</ele>
			<time>2014-04-13T09:54:01Z</time>
		</trkpt>
		<trkpt lat="54.1109237670898" lon="13.0389013290405">
			<ele>48.2999992370605</ele>
			<time>2014-04-13T09:54:05Z</time>
		</trkpt>
		<trkpt lat="54.1108779907227" lon="13.0389032363892">
			<ele>48.5999984741211</ele>
			<time>2014-04-13T09:54:08Z</time>
		</trkpt>
		<trkpt lat="54.1107864379883" lon="13.0388784408569">
			<ele>49.5</ele>
			<time>2014-04-13T09:54:11Z</time>
		</trkpt>
		<trkpt lat="54.1106758117676" lon="13.0388860702515">
			<ele>49</ele>
			<time>2014-04-13T09:54:14Z</time>
		</trkpt>
		<trkpt lat="54.1106071472168" lon="13.0388822555542">
			<ele>48.7000007629395</ele>
			<time>2014-04-13T09:54:16Z</time>
		</trkpt>
		<trkpt lat="54.1105270385742" lon="13.0388774871826">
			<ele>49.5999984741211</ele>
			<time>2014-04-13T09:54:18Z</time>
		</trkpt>
		<trkpt lat="54.1104507446289" lon="13.0388669967651">
			<ele>49.7000007629395</ele>
			<time>2014-04-13T09:54:20Z</time>
		</trkpt>
		<trkpt lat="54.1104011535645" lon="13.0388708114624">
			<ele>50</ele>
			<time>2014-04-13T09:54:21Z</time>
		</trkpt>
		<trkpt lat="54.1103134155273" lon="13.0388689041138">
			<ele>49.7999992370605</ele>
			<time>2014-04-13T09:54:23Z</time>
		</trkpt>
		<trkpt lat="54.1102294921875" lon="13.0388679504395">
			<ele>49.7999992370605</ele>
			<time>2014-04-13T09:54:25Z</time>
		</trkpt>
		<trkpt lat="54.1101570129395" lon="13.0388736724854">
			<ele>50.0999984741211</ele>
			<time>2014-04-13T09:54:27Z</time>
		</trkpt>
		<trkpt lat="54.1100845336914" lon="13.0388851165771">
			<ele>50.5999984741211</ele>
			<time>2014-04-13T09:54:29Z</time>
		</trkpt>
		<trkpt lat="54.1100006103516" lon="13.0389032363892">
			<ele>50</ele>
			<time>2014-04-13T09:54:31Z</time>
		</trkpt>
		<trkpt lat="54.109920501709" lon="13.0389127731323">
			<ele>49.7000007629395</ele>
			<time>2014-04-13T09:54:33Z</time>
		</trkpt>
		<trkpt lat="54.1098327636719" lon="13.0389318466187">
			<ele>48.9000015258789</ele>
			<time>2014-04-13T09:54:35Z</time>
		</trkpt>
		<trkpt lat="54.1097793579102" lon="13.0389356613159">
			<ele>47.7000007629395</ele>
			<time>2014-04-13T09:54:36Z</time>
		</trkpt>
		<trkpt lat="54.1097297668457" lon="13.0389556884766">
			<ele>46.5999984741211</ele>
			<time>2014-04-13T09:54:37Z</time>
		</trkpt>
		<trkpt lat="54.1096801757813" lon="13.0389566421509">
			<ele>45.7999992370605</ele>
			<time>2014-04-13T09:54:38Z</time>
		</trkpt>
		<trkpt lat="54.1095924377441" lon="13.0389804840088">
			<ele>44.5</ele>
			<time>2014-04-13T09:54:40Z</time>
		</trkpt>
		<trkpt lat="54.1095008850098" lon="13.0390090942383">
			<ele>43.5</ele>
			<time>2014-04-13T09:54:42Z</time>
		</trkpt>
		<trkpt lat="54.1094551086426" lon="13.0390176773071">
			<ele>42.0999984741211</ele>
			<time>2014-04-13T09:54:43Z</time>
		</trkpt>
		<trkpt lat="54.1093978881836" lon="13.039026260376">
			<ele>41.2000007629395</ele>
			<time>2014-04-13T09:54:44Z</time>
		</trkpt>
		<trkpt lat="54.1093101501465" lon="13.039044380188">
			<ele>38.0999984741211</ele>
			<time>2014-04-13T09:54:46Z</time>
		</trkpt>
		<trkpt lat="54.1092185974121" lon="13.0390567779541">
			<ele>36.9000015258789</ele>
			<time>2014-04-13T09:54:48Z</time>
		</trkpt>
		<trkpt lat="54.1091461181641" lon="13.0390768051147">
			<ele>36.0999984741211</ele>
			<time>2014-04-13T09:54:50Z</time>
		</trkpt>
		<trkpt lat="54.109058380127" lon="13.0390882492065">
			<ele>35</ele>
			<time>2014-04-13T09:54:52Z</time>
		</trkpt>
		<trkpt lat="54.1089859008789" lon="13.0390939712524">
			<ele>34.7000007629395</ele>
			<time>2014-04-13T09:54:54Z</time>
		</trkpt>
		<trkpt lat="54.1089096069336" lon="13.0390901565552">
			<ele>35.5999984741211</ele>
			<time>2014-04-13T09:54:56Z</time>
		</trkpt>
		<trkpt lat="54.1088333129883" lon="13.0390701293945">
			<ele>36.5</ele>
			<time>2014-04-13T09:54:58Z</time>
		</trkpt>
		<trkpt lat="54.1087455749512" lon="13.0390501022339">
			<ele>36.5999984741211</ele>
			<time>2014-04-13T09:55:00Z</time>
		</trkpt>
		<trkpt lat="54.1086692810059" lon="13.0390300750732">
			<ele>36.4000015258789</ele>
			<time>2014-04-13T09:55:02Z</time>
		</trkpt>
		<trkpt lat="54.1085929870605" lon="13.0389957427979">
			<ele>37.2999992370605</ele>
			<time>2014-04-13T09:55:04Z</time>
		</trkpt>
		<trkpt lat="54.1085205078125" lon="13.0389814376831">
			<ele>38.0999984741211</ele>
			<time>2014-04-13T09:55:06Z</time>
		</trkpt>
		<trkpt lat="54.1084442138672" lon="13.0389852523804">
			<ele>38</ele>
			<time>2014-04-13T09:55:08Z</time>
		</trkpt>
		<trkpt lat="54.1083602905273" lon="13.0389890670776">
			<ele>38</ele>
			<time>2014-04-13T09:55:10Z</time>
		</trkpt>
		<trkpt lat="54.1082801818848" lon="13.038987159729">
			<ele>38.7999992370605</ele>
			<time>2014-04-13T09:55:12Z</time>
		</trkpt>
		<trkpt lat="54.1082038879395" lon="13.0389833450317">
			<ele>38.4000015258789</ele>
			<time>2014-04-13T09:55:14Z</time>
		</trkpt>
		<trkpt lat="54.1081275939941" lon="13.0389814376831">
			<ele>38.5999984741211</ele>
			<time>2014-04-13T09:55:16Z</time>
		</trkpt>
		<trkpt lat="54.1080513000488" lon="13.0389862060547">
			<ele>38.9000015258789</ele>
			<time>2014-04-13T09:55:18Z</time>
		</trkpt>
		<trkpt lat="54.1079750061035" lon="13.038987159729">
			<ele>38.7999992370605</ele>
			<time>2014-04-13T09:55:20Z</time>
		</trkpt>
		<trkpt lat="54.1078948974609" lon="13.0389919281006">
			<ele>39.0999984741211</ele>
			<time>2014-04-13T09:55:22Z</time>
		</trkpt>
		<trkpt lat="54.1078147888184" lon="13.038990020752">
			<ele>39.4000015258789</ele>
			<time>2014-04-13T09:55:24Z</time>
		</trkpt>
		<trkpt lat="54.1077308654785" lon="13.038990020752">
			<ele>39.7000007629395</ele>
			<time>2014-04-13T09:55:26Z</time>
		</trkpt>
		<trkpt lat="54.1076507568359" lon="13.0389852523804">
			<ele>39.7000007629395</ele>
			<time>2014-04-13T09:55:28Z</time>
		</trkpt>
		<trkpt lat="54.1075706481934" lon="13.0389881134033">
			<ele>39.9000015258789</ele>
			<time>2014-04-13T09:55:30Z</time>
		</trkpt>
		<trkpt lat="54.1074905395508" lon="13.0389852523804">
			<ele>39.7999992370605</ele>
			<time>2014-04-13T09:55:32Z</time>
		</trkpt>
		<trkpt lat="54.1074104309082" lon="13.0389890670776">
			<ele>39.9000015258789</ele>
			<time>2014-04-13T09:55:34Z</time>
		</trkpt>
		<trkpt lat="54.1073265075684" lon="13.0389852523804">
			<ele>40</ele>
			<time>2014-04-13T09:55:36Z</time>
		</trkpt>
		<trkpt lat="54.1072463989258" lon="13.0389804840088">
			<ele>40</ele>
			<time>2014-04-13T09:55:38Z</time>
		</trkpt>
		<trkpt lat="54.1071701049805" lon="13.0389804840088">
			<ele>40.0999984741211</ele>
			<time>2014-04-13T09:55:40Z</time>
		</trkpt>
		<trkpt lat="54.1070899963379" lon="13.0389728546143">
			<ele>40.4000015258789</ele>
			<time>2014-04-13T09:55:42Z</time>
		</trkpt>
		<trkpt lat="54.107006072998" lon="13.0389528274536">
			<ele>40.4000015258789</ele>
			<time>2014-04-13T09:55:44Z</time>
		</trkpt>
		<trkpt lat="54.1069221496582" lon="13.0389461517334">
			<ele>40.5</ele>
			<time>2014-04-13T09:55:46Z</time>
		</trkpt>
		<trkpt lat="54.1068382263184" lon="13.0389308929443">
			<ele>40.7000007629395</ele>
			<time>2014-04-13T09:55:48Z</time>
		</trkpt>
		<trkpt lat="54.1067543029785" lon="13.0389127731323">
			<ele>41.0999984741211</ele>
			<time>2014-04-13T09:55:50Z</time>
		</trkpt>
		<trkpt lat="54.1066703796387" lon="13.0388965606689">
			<ele>41.2000007629395</ele>
			<time>2014-04-13T09:55:52Z</time>
		</trkpt>
		<trkpt lat="54.1065864562988" lon="13.038875579834">
			<ele>41.0999984741211</ele>
			<time>2014-04-13T09:55:54Z</time>
		</trkpt>
		<trkpt lat="54.106502532959" lon="13.038854598999">
			<ele>41.4000015258789</ele>
			<time>2014-04-13T09:55:56Z</time>
		</trkpt>
		<trkpt lat="54.1064186096191" lon="13.038836479187">
			<ele>41.7999992370605</ele>
			<time>2014-04-13T09:55:58Z</time>
		</trkpt>
		<trkpt lat="54.1063346862793" lon="13.0388145446777">
			<ele>42</ele>
			<time>2014-04-13T09:56:00Z</time>
		</trkpt>
		<trkpt lat="54.1062507629395" lon="13.0387897491455">
			<ele>42.2999992370605</ele>
			<time>2014-04-13T09:56:02Z</time>
		</trkpt>
		<trkpt lat="54.1061668395996" lon="13.0387668609619">
			<ele>42.9000015258789</ele>
			<time>2014-04-13T09:56:04Z</time>
		</trkpt>
		<trkpt lat="54.1061210632324" lon="13.0387516021729">
			<ele>43</ele>
			<time>2014-04-13T09:56:05Z</time>
		</trkpt>
		<trkpt lat="54.1060371398926" lon="13.0387229919434">
			<ele>43.2000007629395</ele>
			<time>2014-04-13T09:56:07Z</time>
		</trkpt>
		<trkpt lat="54.1059532165527" lon="13.0386905670166">
			<ele>43.2999992370605</ele>
			<time>2014-04-13T09:56:09Z</time>
		</trkpt>
		<trkpt lat="54.1058731079102" lon="13.0386600494385">
			<ele>43.5</ele>
			<time>2014-04-13T09:56:11Z</time>
		</trkpt>
		<trkpt lat="54.1057929992676" lon="13.0386371612549">
			<ele>44.2000007629395</ele>
			<time>2014-04-13T09:56:13Z</time>
		</trkpt>
		<trkpt lat="54.1057167053223" lon="13.0386114120483">
			<ele>44.4000015258789</ele>
			<time>2014-04-13T09:56:15Z</time>
		</trkpt>
		<trkpt lat="54.1056365966797" lon="13.0385837554932">
			<ele>44.5</ele>
			<time>2014-04-13T09:56:17Z</time>
		</trkpt>
		<trkpt lat="54.1055526733398" lon="13.0385570526123">
			<ele>44.5</ele>
			<time>2014-04-13T09:56:19Z</time>
		</trkpt>
		<trkpt lat="54.10546875" lon="13.0385208129883">
			<ele>44.7000007629395</ele>
			<time>2014-04-13T09:56:21Z</time>
		</trkpt>
		<trkpt lat="54.1054229736328" lon="13.0385046005249">
			<ele>44.0999984741211</ele>
			<time>2014-04-13T09:56:22Z</time>
		</trkpt>
		<trkpt lat="54.1053771972656" lon="13.0384817123413">
			<ele>43.5</ele>
			<time>2014-04-13T09:56:23Z</time>
		</trkpt>
		<trkpt lat="54.1053314208984" lon="13.0384616851807">
			<ele>43.4000015258789</ele>
			<time>2014-04-13T09:56:24Z</time>
		</trkpt>
		<trkpt lat="54.1052894592285" lon="13.0384397506714">
			<ele>42.9000015258789</ele>
			<time>2014-04-13T09:56:25Z</time>
		</trkpt>
		<trkpt lat="54.1052055358887" lon="13.0383977890015">
			<ele>43</ele>
			<time>2014-04-13T09:56:27Z</time>
		</trkpt>
		<trkpt lat="54.1051216125488" lon="13.0383596420288">
			<ele>42.7999992370605</ele>
			<time>2014-04-13T09:56:29Z</time>
		</trkpt>
		<trkpt lat="54.105037689209" lon="13.0383205413818">
			<ele>42.7999992370605</ele>
			<time>2014-04-13T09:56:31Z</time>
		</trkpt>
		<trkpt lat="54.1049537658691" lon="13.0382776260376">
			<ele>42.9000015258789</ele>
			<time>2014-04-13T09:56:33Z</time>
		</trkpt>
		<trkpt lat="54.1048698425293" lon="13.0382585525513">
			<ele>42.7999992370605</ele>
			<time>2014-04-13T09:56:35Z</time>
		</trkpt>
		<trkpt lat="54.1048278808594" lon="13.0382318496704">
			<ele>42.2999992370605</ele>
			<time>2014-04-13T09:56:36Z</time>
		</trkpt>
		<trkpt lat="54.1047821044922" lon="13.0382080078125">
			<ele>42.5</ele>
			<time>2014-04-13T09:56:37Z</time>
		</trkpt>
		<trkpt lat="54.1047058105469" lon="13.0381641387939">
			<ele>43.7000007629395</ele>
			<time>2014-04-13T09:56:39Z</time>
		</trkpt>
		<trkpt lat="54.1046257019043" lon="13.0381126403809">
			<ele>43.7999992370605</ele>
			<time>2014-04-13T09:56:41Z</time>
		</trkpt>
		<trkpt lat="54.104549407959" lon="13.0380668640137">
			<ele>43.5</ele>
			<time>2014-04-13T09:56:43Z</time>
		</trkpt>
		<trkpt lat="54.1044769287109" lon="13.0380210876465">
			<ele>43.2999992370605</ele>
			<time>2014-04-13T09:56:45Z</time>
		</trkpt>
		<trkpt lat="54.1044044494629" lon="13.0379695892334">
			<ele>43</ele>
			<time>2014-04-13T09:56:47Z</time>
		</trkpt>
		<trkpt lat="54.1043395996094" lon="13.0379276275635">
			<ele>43.2000007629395</ele>
			<time>2014-04-13T09:56:49Z</time>
		</trkpt>
		<trkpt lat="54.1042861938477" lon="13.0378904342651">
			<ele>43.2999992370605</ele>
			<time>2014-04-13T09:56:51Z</time>
		</trkpt>
		<trkpt lat="54.1042251586914" lon="13.0378475189209">
			<ele>44.0999984741211</ele>
			<time>2014-04-13T09:56:53Z</time>
		</trkpt>
		<trkpt lat="54.1041603088379" lon="13.0378112792969">
			<ele>45.5</ele>
			<time>2014-04-13T09:56:55Z</time>
		</trkpt>
		<trkpt lat="54.1040954589844" lon="13.0377569198608">
			<ele>45.7999992370605</ele>
			<time>2014-04-13T09:56:57Z</time>
		</trkpt>
		<trkpt lat="54.1040267944336" lon="13.0376949310303">
			<ele>46.2000007629395</ele>
			<time>2014-04-13T09:56:59Z</time>
		</trkpt>
		<trkpt lat="54.1039505004883" lon="13.0376424789429">
			<ele>46.4000015258789</ele>
			<time>2014-04-13T09:57:01Z</time>
		</trkpt>
		<trkpt lat="54.103874206543" lon="13.0375928878784">
			<ele>46.2000007629395</ele>
			<time>2014-04-13T09:57:03Z</time>
		</trkpt>
		<trkpt lat="54.1037940979004" lon="13.0375490188599">
			<ele>46.5999984741211</ele>
			<time>2014-04-13T09:57:05Z</time>
		</trkpt>
		<trkpt lat="54.1037139892578" lon="13.0375003814697">
			<ele>46.5999984741211</ele>
			<time>2014-04-13T09:57:07Z</time>
		</trkpt>
		<trkpt lat="54.103630065918" lon="13.0374536514282">
			<ele>47.4000015258789</ele>
			<time>2014-04-13T09:57:09Z</time>
		</trkpt>
		<trkpt lat="54.1035461425781" lon="13.037410736084">
			<ele>47.7000007629395</ele>
			<time>2014-04-13T09:57:11Z</time>
		</trkpt>
		<trkpt lat="54.1034622192383" lon="13.0373773574829">
			<ele>47.5999984741211</ele>
			<time>2014-04-13T09:57:13Z</time>
		</trkpt>
		<trkpt lat="54.1033744812012" lon="13.0373506546021">
			<ele>47.5999984741211</ele>
			<time>2014-04-13T09:57:15Z</time>
		</trkpt>
		<trkpt lat="54.1032905578613" lon="13.0373315811157">
			<ele>47.5999984741211</ele>
			<time>2014-04-13T09:57:17Z</time>
		</trkpt>
		<trkpt lat="54.1032028198242" lon="13.0373134613037">
			<ele>47.5999984741211</ele>
			<time>2014-04-13T09:57:19Z</time>
		</trkpt>
		<trkpt lat="54.1031188964844" lon="13.0373029708862">
			<ele>47.4000015258789</ele>
			<time>2014-04-13T09:57:21Z</time>
		</trkpt>
		<trkpt lat="54.1030731201172" lon="13.0372972488403">
			<ele>47.2999992370605</ele>
			<time>2014-04-13T09:57:22Z</time>
		</trkpt>
		<trkpt lat="54.1029891967773" lon="13.0372934341431">
			<ele>46.9000015258789</ele>
			<time>2014-04-13T09:57:24Z</time>
		</trkpt>
		<trkpt lat="54.1029052734375" lon="13.037281036377">
			<ele>47.0999984741211</ele>
			<time>2014-04-13T09:57:26Z</time>
		</trkpt>
		<trkpt lat="54.1028175354004" lon="13.0372753143311">
			<ele>47.0999984741211</ele>
			<time>2014-04-13T09:57:28Z</time>
		</trkpt>
		<trkpt lat="54.1027717590332" lon="13.0372743606567">
			<ele>47.2000007629395</ele>
			<time>2014-04-13T09:57:29Z</time>
		</trkpt>
		<trkpt lat="54.1026840209961" lon="13.0372676849365">
			<ele>47</ele>
			<time>2014-04-13T09:57:31Z</time>
		</trkpt>
		<trkpt lat="54.1026000976563" lon="13.0372533798218">
			<ele>46.9000015258789</ele>
			<time>2014-04-13T09:57:33Z</time>
		</trkpt>
		<trkpt lat="54.1025543212891" lon="13.0372467041016">
			<ele>46.9000015258789</ele>
			<time>2014-04-13T09:57:34Z</time>
		</trkpt>
		<trkpt lat="54.1024703979492" lon="13.0372381210327">
			<ele>46.9000015258789</ele>
			<time>2014-04-13T09:57:36Z</time>
		</trkpt>
		<trkpt lat="54.1023864746094" lon="13.037239074707">
			<ele>47.2999992370605</ele>
			<time>2014-04-13T09:57:38Z</time>
		</trkpt>
		<trkpt lat="54.1023025512695" lon="13.03724193573">
			<ele>48.2000007629395</ele>
			<time>2014-04-13T09:57:40Z</time>
		</trkpt>
		<trkpt lat="54.1022529602051" lon="13.0372314453125">
			<ele>48</ele>
			<time>2014-04-13T09:57:41Z</time>
		</trkpt>
		<trkpt lat="54.102165222168" lon="13.0372161865234">
			<ele>48.0999984741211</ele>
			<time>2014-04-13T09:57:43Z</time>
		</trkpt>
		<trkpt lat="54.1020889282227" lon="13.0372133255005">
			<ele>48.2000007629395</ele>
			<time>2014-04-13T09:57:45Z</time>
		</trkpt>
		<trkpt lat="54.1020050048828" lon="13.0372228622437">
			<ele>47.7000007629395</ele>
			<time>2014-04-13T09:57:47Z</time>
		</trkpt>
		<trkpt lat="54.101921081543" lon="13.037220954895">
			<ele>47.2000007629395</ele>
			<time>2014-04-13T09:57:49Z</time>
		</trkpt>
		<trkpt lat="54.1018714904785" lon="13.0372095108032">
			<ele>46.9000015258789</ele>
			<time>2014-04-13T09:57:50Z</time>
		</trkpt>
		<trkpt lat="54.1017837524414" lon="13.037205696106">
			<ele>47.0999984741211</ele>
			<time>2014-04-13T09:57:52Z</time>
		</trkpt>
		<trkpt lat="54.101692199707" lon="13.0371942520142">
			<ele>46.9000015258789</ele>
			<time>2014-04-13T09:57:54Z</time>
		</trkpt>
		<trkpt lat="54.101634979248" lon="13.0371913909912">
			<ele>44.9000015258789</ele>
			<time>2014-04-13T09:57:55Z</time>
		</trkpt>
		<trkpt lat="54.1015853881836" lon="13.0371942520142">
			<ele>44.7000007629395</ele>
			<time>2014-04-13T09:57:56Z</time>
		</trkpt>
		<trkpt lat="54.1015396118164" lon="13.0371971130371">
			<ele>44.0999984741211</ele>
			<time>2014-04-13T09:57:57Z</time>
		</trkpt>
		<trkpt lat="54.1014862060547" lon="13.0371961593628">
			<ele>43.9000015258789</ele>
			<time>2014-04-13T09:57:58Z</time>
		</trkpt>
		<trkpt lat="54.1014099121094" lon="13.0372009277344">
			<ele>44.7999992370605</ele>
			<time>2014-04-13T09:58:00Z</time>
		</trkpt>
		<trkpt lat="54.1013641357422" lon="13.0372047424316">
			<ele>44.2000007629395</ele>
			<time>2014-04-13T09:58:01Z</time>
		</trkpt>
		<trkpt lat="54.1013107299805" lon="13.0371952056885">
			<ele>44.9000015258789</ele>
			<time>2014-04-13T09:58:02Z</time>
		</trkpt>
		<trkpt lat="54.1012229919434" lon="13.0371742248535">
			<ele>45.2000007629395</ele>
			<time>2014-04-13T09:58:04Z</time>
		</trkpt>
		<trkpt lat="54.1011772155762" lon="13.0371561050415">
			<ele>45.5</ele>
			<time>2014-04-13T09:58:05Z</time>
		</trkpt>
		<trkpt lat="54.1010894775391" lon="13.0371551513672">
			<ele>45.0999984741211</ele>
			<time>2014-04-13T09:58:07Z</time>
		</trkpt>
		<trkpt lat="54.1010360717773" lon="13.0371427536011">
			<ele>44.9000015258789</ele>
			<time>2014-04-13T09:58:08Z</time>
		</trkpt>
		<trkpt lat="54.1009902954102" lon="13.0371417999268">
			<ele>44.7999992370605</ele>
			<time>2014-04-13T09:58:09Z</time>
		</trkpt>
		<trkpt lat="54.1009063720703" lon="13.0371284484863">
			<ele>45.0999984741211</ele>
			<time>2014-04-13T09:58:11Z</time>
		</trkpt>
		<trkpt lat="54.1008148193359" lon="13.0371198654175">
			<ele>45.7000007629395</ele>
			<time>2014-04-13T09:58:13Z</time>
		</trkpt>
		<trkpt lat="54.1007270812988" lon="13.0371131896973">
			<ele>45.2999992370605</ele>
			<time>2014-04-13T09:58:15Z</time>
		</trkpt>
		<trkpt lat="54.100643157959" lon="13.0371112823486">
			<ele>45.7000007629395</ele>
			<time>2014-04-13T09:58:17Z</time>
		</trkpt>
		<trkpt lat="54.1005973815918" lon="13.0371074676514">
			<ele>45.2999992370605</ele>
			<time>2014-04-13T09:58:18Z</time>
		</trkpt>
		<trkpt lat="54.100513458252" lon="13.0371026992798">
			<ele>45.4000015258789</ele>
			<time>2014-04-13T09:58:20Z</time>
		</trkpt>
		<trkpt lat="54.1004295349121" lon="13.0371007919312">
			<ele>44.5</ele>
			<time>2014-04-13T09:58:22Z</time>
		</trkpt>
		<trkpt lat="54.1003379821777" lon="13.0370941162109">
			<ele>43.9000015258789</ele>
			<time>2014-04-13T09:58:24Z</time>
		</trkpt>
		<trkpt lat="54.1002540588379" lon="13.0370903015137">
			<ele>43.9000015258789</ele>
			<time>2014-04-13T09:58:26Z</time>
		</trkpt>
		<trkpt lat="54.1001663208008" lon="13.0370817184448">
			<ele>44</ele>
			<time>2014-04-13T09:58:30Z</time>
		</trkpt>
		<trkpt lat="54.1000747680664" lon="13.0370798110962">
			<ele>43.9000015258789</ele>
			<time>2014-04-13T09:58:31Z</time>
		</trkpt>
		<trkpt lat="54.1000289916992" lon="13.0370712280273">
			<ele>43.7000007629395</ele>
			<time>2014-04-13T09:58:32Z</time>
		</trkpt>
		<trkpt lat="54.0999412536621" lon="13.0370502471924">
			<ele>43.5999984741211</ele>
			<time>2014-04-13T09:58:33Z</time>
		</trkpt>
		<trkpt lat="54.0998611450195" lon="13.0370388031006">
			<ele>43.0999984741211</ele>
			<time>2014-04-13T09:58:35Z</time>
		</trkpt>
		<trkpt lat="54.0997734069824" lon="13.0370349884033">
			<ele>42.9000015258789</ele>
			<time>2014-04-13T09:58:38Z</time>
		</trkpt>
		<trkpt lat="54.0996894836426" lon="13.0370264053345">
			<ele>43.0999984741211</ele>
			<time>2014-04-13T09:58:39Z</time>
		</trkpt>
		<trkpt lat="54.0995979309082" lon="13.0370187759399">
			<ele>42.5999984741211</ele>
			<time>2014-04-13T09:58:41Z</time>
		</trkpt>
		<trkpt lat="54.0995140075684" lon="13.0370082855225">
			<ele>42.7000007629395</ele>
			<time>2014-04-13T09:58:43Z</time>
		</trkpt>
		<trkpt lat="54.0994262695313" lon="13.0370025634766">
			<ele>43.2999992370605</ele>
			<time>2014-04-13T09:58:45Z</time>
		</trkpt>
		<trkpt lat="54.0993804931641" lon="13.0369987487793">
			<ele>43.5999984741211</ele>
			<time>2014-04-13T09:58:46Z</time>
		</trkpt>
		<trkpt lat="54.099292755127" lon="13.0369892120361">
			<ele>44</ele>
			<time>2014-04-13T09:58:48Z</time>
		</trkpt>
		<trkpt lat="54.0992469787598" lon="13.0369901657104">
			<ele>43.9000015258789</ele>
			<time>2014-04-13T09:58:49Z</time>
		</trkpt>
		<trkpt lat="54.0992012023926" lon="13.0369997024536">
			<ele>44</ele>
			<time>2014-04-13T09:58:50Z</time>
		</trkpt>
		<trkpt lat="54.0991554260254" lon="13.0370082855225">
			<ele>44.0999984741211</ele>
			<time>2014-04-13T09:58:51Z</time>
		</trkpt>
		<trkpt lat="54.0991096496582" lon="13.0370168685913">
			<ele>44</ele>
			<time>2014-04-13T09:58:52Z</time>
		</trkpt>
		<trkpt lat="54.0990295410156" lon="13.0370359420776">
			<ele>43.7999992370605</ele>
			<time>2014-04-13T09:58:54Z</time>
		</trkpt>
		<trkpt lat="54.0989837646484" lon="13.0370492935181">
			<ele>44.0999984741211</ele>
			<time>2014-04-13T09:58:55Z</time>
		</trkpt>
		<trkpt lat="54.0988922119141" lon="13.0370788574219">
			<ele>44.5</ele>
			<time>2014-04-13T09:58:57Z</time>
		</trkpt>
		<trkpt lat="54.0988082885742" lon="13.0371065139771">
			<ele>44.2999992370605</ele>
			<time>2014-04-13T09:58:59Z</time>
		</trkpt>
		<trkpt lat="54.0987205505371" lon="13.0371313095093">
			<ele>44.2999992370605</ele>
			<time>2014-04-13T09:59:01Z</time>
		</trkpt>
		<trkpt lat="54.0986328125" lon="13.0371599197388">
			<ele>44.0999984741211</ele>
			<time>2014-04-13T09:59:03Z</time>
		</trkpt>
		<trkpt lat="54.0985488891602" lon="13.0371885299683">
			<ele>44.0999984741211</ele>
			<time>2014-04-13T09:59:05Z</time>
		</trkpt>
		<trkpt lat="54.0984687805176" lon="13.0372171401978">
			<ele>44</ele>
			<time>2014-04-13T09:59:07Z</time>
		</trkpt>
		<trkpt lat="54.0983848571777" lon="13.0372505187988">
			<ele>44.0999984741211</ele>
			<time>2014-04-13T09:59:09Z</time>
		</trkpt>
		<trkpt lat="54.0983009338379" lon="13.0372791290283">
			<ele>44.2000007629395</ele>
			<time>2014-04-13T09:59:11Z</time>
		</trkpt>
		<trkpt lat="54.0982131958008" lon="13.037299156189">
			<ele>44.2000007629395</ele>
			<time>2014-04-13T09:59:13Z</time>
		</trkpt>
		<trkpt lat="54.0981292724609" lon="13.0373277664185">
			<ele>44.2000007629395</ele>
			<time>2014-04-13T09:59:15Z</time>
		</trkpt>
		<trkpt lat="54.0980834960938" lon="13.0373401641846">
			<ele>44.2999992370605</ele>
			<time>2014-04-13T09:59:16Z</time>
		</trkpt>
		<trkpt lat="54.0980339050293" lon="13.0373525619507">
			<ele>44.4000015258789</ele>
			<time>2014-04-13T09:59:17Z</time>
		</trkpt>
		<trkpt lat="54.0979499816895" lon="13.0373830795288">
			<ele>44.2999992370605</ele>
			<time>2014-04-13T09:59:19Z</time>
		</trkpt>
		<trkpt lat="54.0979042053223" lon="13.0373973846436">
			<ele>44.5</ele>
			<time>2014-04-13T09:59:20Z</time>
		</trkpt>
		<trkpt lat="54.0978584289551" lon="13.0374135971069">
			<ele>44.5999984741211</ele>
			<time>2014-04-13T09:59:21Z</time>
		</trkpt>
		<trkpt lat="54.0978088378906" lon="13.037428855896">
			<ele>44.7999992370605</ele>
			<time>2014-04-13T09:59:22Z</time>
		</trkpt>
		<trkpt lat="54.0977668762207" lon="13.0374450683594">
			<ele>44.5999984741211</ele>
			<time>2014-04-13T09:59:23Z</time>
		</trkpt>
		<trkpt lat="54.0977210998535" lon="13.0374622344971">
			<ele>44.4000015258789</ele>
			<time>2014-04-13T09:59:24Z</time>
		</trkpt>
		<trkpt lat="54.0976753234863" lon="13.0374774932861">
			<ele>44.5</ele>
			<time>2014-04-13T09:59:25Z</time>
		</trkpt>
		<trkpt lat="54.0976257324219" lon="13.0375003814697">
			<ele>44.4000015258789</ele>
			<time>2014-04-13T09:59:26Z</time>
		</trkpt>
		<trkpt lat="54.0975799560547" lon="13.0375185012817">
			<ele>44.5</ele>
			<time>2014-04-13T09:59:27Z</time>
		</trkpt>
		<trkpt lat="54.0975303649902" lon="13.0375356674194">
			<ele>44.5</ele>
			<time>2014-04-13T09:59:28Z</time>
		</trkpt>
		<trkpt lat="54.097484588623" lon="13.0375490188599">
			<ele>44.4000015258789</ele>
			<time>2014-04-13T09:59:29Z</time>
		</trkpt>
		<trkpt lat="54.0974311828613" lon="13.0375690460205">
			<ele>44.5999984741211</ele>
			<time>2014-04-13T09:59:30Z</time>
		</trkpt>
		<trkpt lat="54.0973815917969" lon="13.0375900268555">
			<ele>44.2000007629395</ele>
			<time>2014-04-13T09:59:31Z</time>
		</trkpt>
		<trkpt lat="54.0973281860352" lon="13.0376071929932">
			<ele>44.4000015258789</ele>
			<time>2014-04-13T09:59:32Z</time>
		</trkpt>
		<trkpt lat="54.0972747802734" lon="13.0376224517822">
			<ele>44.5</ele>
			<time>2014-04-13T09:59:33Z</time>
		</trkpt>
		<trkpt lat="54.097225189209" lon="13.0376415252686">
			<ele>44.5</ele>
			<time>2014-04-13T09:59:34Z</time>
		</trkpt>
		<trkpt lat="54.09716796875" lon="13.0376577377319">
			<ele>44.5999984741211</ele>
			<time>2014-04-13T09:59:35Z</time>
		</trkpt>
		<trkpt lat="54.0971183776855" lon="13.0376768112183">
			<ele>44.7000007629395</ele>
			<time>2014-04-13T09:59:36Z</time>
		</trkpt>
		<trkpt lat="54.0970649719238" lon="13.037693977356">
			<ele>44.7999992370605</ele>
			<time>2014-04-13T09:59:37Z</time>
		</trkpt>
		<trkpt lat="54.0970115661621" lon="13.0377130508423">
			<ele>44.7999992370605</ele>
			<time>2014-04-13T09:59:38Z</time>
		</trkpt>
		<trkpt lat="54.0969543457031" lon="13.0377311706543">
			<ele>44.5</ele>
			<time>2014-04-13T09:59:39Z</time>
		</trkpt>
		<trkpt lat="54.0969047546387" lon="13.037748336792">
			<ele>44.4000015258789</ele>
			<time>2014-04-13T09:59:40Z</time>
		</trkpt>
		<trkpt lat="54.0968475341797" lon="13.0377683639526">
			<ele>44.4000015258789</ele>
			<time>2014-04-13T09:59:41Z</time>
		</trkpt>
		<trkpt lat="54.096794128418" lon="13.0377902984619">
			<ele>44.2999992370605</ele>
			<time>2014-04-13T09:59:42Z</time>
		</trkpt>
		<trkpt lat="54.0967407226563" lon="13.0378093719482">
			<ele>44.2000007629395</ele>
			<time>2014-04-13T09:59:43Z</time>
		</trkpt>
		<trkpt lat="54.0966873168945" lon="13.0378313064575">
			<ele>43.9000015258789</ele>
			<time>2014-04-13T09:59:44Z</time>
		</trkpt>
		<trkpt lat="54.0966339111328" lon="13.0378484725952">
			<ele>43.7999992370605</ele>
			<time>2014-04-13T09:59:45Z</time>
		</trkpt>
		<trkpt lat="54.0965805053711" lon="13.0378723144531">
			<ele>43.7999992370605</ele>
			<time>2014-04-13T09:59:46Z</time>
		</trkpt>
		<trkpt lat="54.0965232849121" lon="13.0378904342651">
			<ele>43.9000015258789</ele>
			<time>2014-04-13T09:59:47Z</time>
		</trkpt>
		<trkpt lat="54.0964660644531" lon="13.0379056930542">
			<ele>43.9000015258789</ele>
			<time>2014-04-13T09:59:48Z</time>
		</trkpt>
		<trkpt lat="54.0964088439941" lon="13.0379228591919">
			<ele>43.7000007629395</ele>
			<time>2014-04-13T09:59:49Z</time>
		</trkpt>
		<trkpt lat="54.0963554382324" lon="13.0379467010498">
			<ele>43.7000007629395</ele>
			<time>2014-04-13T09:59:50Z</time>
		</trkpt>
		<trkpt lat="54.0962944030762" lon="13.0379648208618">
			<ele>43.7000007629395</ele>
			<time>2014-04-13T09:59:51Z</time>
		</trkpt>
		<trkpt lat="54.0962409973145" lon="13.0379867553711">
			<ele>43.7000007629395</ele>
			<time>2014-04-13T09:59:52Z</time>
		</trkpt>
		<trkpt lat="54.0961837768555" lon="13.0380077362061">
			<ele>43.9000015258789</ele>
			<time>2014-04-13T09:59:53Z</time>
		</trkpt>
		<trkpt lat="54.096134185791" lon="13.0380258560181">
			<ele>43.7999992370605</ele>
			<time>2014-04-13T09:59:54Z</time>
		</trkpt>
		<trkpt lat="54.0960731506348" lon="13.0380439758301">
			<ele>43.7999992370605</ele>
			<time>2014-04-13T09:59:55Z</time>
		</trkpt>
		<trkpt lat="54.096019744873" lon="13.0380640029907">
			<ele>43.7000007629395</ele>
			<time>2014-04-13T09:59:56Z</time>
		</trkpt>
		<trkpt lat="54.0959625244141" lon="13.0380868911743">
			<ele>43.7000007629395</ele>
			<time>2014-04-13T09:59:57Z</time>
		</trkpt>
		<trkpt lat="54.0959053039551" lon="13.0381011962891">
			<ele>43.7999992370605</ele>
			<time>2014-04-13T09:59:58Z</time>
		</trkpt>
		<trkpt lat="54.0958518981934" lon="13.0381259918213">
			<ele>43.7999992370605</ele>
			<time>2014-04-13T09:59:59Z</time>
		</trkpt>
		<trkpt lat="54.0957946777344" lon="13.0381450653076">
			<ele>44.0999984741211</ele>
			<time>2014-04-13T10:00:00Z</time>
		</trkpt>
		<trkpt lat="54.0957412719727" lon="13.038161277771">
			<ele>44.0999984741211</ele>
			<time>2014-04-13T10:00:01Z</time>
		</trkpt>
		<trkpt lat="54.0956840515137" lon="13.0381755828857">
			<ele>44.2999992370605</ele>
			<time>2014-04-13T10:00:02Z</time>
		</trkpt>
		<trkpt lat="54.095630645752" lon="13.0381917953491">
			<ele>44.4000015258789</ele>
			<time>2014-04-13T10:00:03Z</time>
		</trkpt>
		<trkpt lat="54.095573425293" lon="13.0382118225098">
			<ele>44.2000007629395</ele>
			<time>2014-04-13T10:00:04Z</time>
		</trkpt>
		<trkpt lat="54.095516204834" lon="13.0382308959961">
			<ele>44.4000015258789</ele>
			<time>2014-04-13T10:00:05Z</time>
		</trkpt>
		<trkpt lat="54.095458984375" lon="13.0382518768311">
			<ele>44.2000007629395</ele>
			<time>2014-04-13T10:00:06Z</time>
		</trkpt>
		<trkpt lat="54.095401763916" lon="13.0382719039917">
			<ele>44.4000015258789</ele>
			<time>2014-04-13T10:00:07Z</time>
		</trkpt>
		<trkpt lat="54.095344543457" lon="13.038293838501">
			<ele>44.4000015258789</ele>
			<time>2014-04-13T10:00:08Z</time>
		</trkpt>
		<trkpt lat="54.0952911376953" lon="13.0383129119873">
			<ele>44.4000015258789</ele>
			<time>2014-04-13T10:00:09Z</time>
		</trkpt>
		<trkpt lat="54.0952339172363" lon="13.0383291244507">
			<ele>44.5999984741211</ele>
			<time>2014-04-13T10:00:10Z</time>
		</trkpt>
		<trkpt lat="54.0951766967773" lon="13.0383472442627">
			<ele>44.5999984741211</ele>
			<time>2014-04-13T10:00:11Z</time>
		</trkpt>
		<trkpt lat="54.0951232910156" lon="13.0383710861206">
			<ele>44.7000007629395</ele>
			<time>2014-04-13T10:00:12Z</time>
		</trkpt>
		<trkpt lat="54.0950698852539" lon="13.0383939743042">
			<ele>45</ele>
			<time>2014-04-13T10:00:13Z</time>
		</trkpt>
		<trkpt lat="54.0950126647949" lon="13.0384130477905">
			<ele>44.7999992370605</ele>
			<time>2014-04-13T10:00:14Z</time>
		</trkpt>
		<trkpt lat="54.0949592590332" lon="13.0384311676025">
			<ele>45.0999984741211</ele>
			<time>2014-04-13T10:00:15Z</time>
		</trkpt>
		<trkpt lat="54.094898223877" lon="13.0384464263916">
			<ele>45</ele>
			<time>2014-04-13T10:00:16Z</time>
		</trkpt>
		<trkpt lat="54.0948448181152" lon="13.0384674072266">
			<ele>45.2000007629395</ele>
			<time>2014-04-13T10:00:17Z</time>
		</trkpt>
		<trkpt lat="54.0947914123535" lon="13.0384845733643">
			<ele>45.2000007629395</ele>
			<time>2014-04-13T10:00:18Z</time>
		</trkpt>
		<trkpt lat="54.0947380065918" lon="13.038501739502">
			<ele>45.4000015258789</ele>
			<time>2014-04-13T10:00:19Z</time>
		</trkpt>
		<trkpt lat="54.0946846008301" lon="13.0385189056396">
			<ele>45.2999992370605</ele>
			<time>2014-04-13T10:00:20Z</time>
		</trkpt>
		<trkpt lat="54.0946311950684" lon="13.0385408401489">
			<ele>45.4000015258789</ele>
			<time>2014-04-13T10:00:21Z</time>
		</trkpt>
		<trkpt lat="54.0945777893066" lon="13.0385599136353">
			<ele>45.5999984741211</ele>
			<time>2014-04-13T10:00:22Z</time>
		</trkpt>
		<trkpt lat="54.0945281982422" lon="13.0385789871216">
			<ele>45.5</ele>
			<time>2014-04-13T10:00:23Z</time>
		</trkpt>
		<trkpt lat="54.0944747924805" lon="13.0385942459106">
			<ele>45.5</ele>
			<time>2014-04-13T10:00:24Z</time>
		</trkpt>
		<trkpt lat="54.0944213867188" lon="13.0386075973511">
			<ele>45.4000015258789</ele>
			<time>2014-04-13T10:00:25Z</time>
		</trkpt>
		<trkpt lat="54.0943717956543" lon="13.038628578186">
			<ele>45.2999992370605</ele>
			<time>2014-04-13T10:00:26Z</time>
		</trkpt>
		<trkpt lat="54.0943183898926" lon="13.0386457443237">
			<ele>45.2000007629395</ele>
			<time>2014-04-13T10:00:27Z</time>
		</trkpt>
		<trkpt lat="54.0942649841309" lon="13.0386686325073">
			<ele>45</ele>
			<time>2014-04-13T10:00:28Z</time>
		</trkpt>
		<trkpt lat="54.0942115783691" lon="13.0386867523193">
			<ele>45</ele>
			<time>2014-04-13T10:00:29Z</time>
		</trkpt>
		<trkpt lat="54.0941619873047" lon="13.03870677948">
			<ele>45.0999984741211</ele>
			<time>2014-04-13T10:00:30Z</time>
		</trkpt>
		<trkpt lat="54.0941123962402" lon="13.038722038269">
			<ele>44.9000015258789</ele>
			<time>2014-04-13T10:00:31Z</time>
		</trkpt>
		<trkpt lat="54.0940628051758" lon="13.0387382507324">
			<ele>45</ele>
			<time>2014-04-13T10:00:32Z</time>
		</trkpt>
		<trkpt lat="54.0940093994141" lon="13.0387544631958">
			<ele>45.0999984741211</ele>
			<time>2014-04-13T10:00:33Z</time>
		</trkpt>
		<trkpt lat="54.0939598083496" lon="13.0387687683105">
			<ele>45.2000007629395</ele>
			<time>2014-04-13T10:00:34Z</time>
		</trkpt>
		<trkpt lat="54.0939064025879" lon="13.0387868881226">
			<ele>45.0999984741211</ele>
			<time>2014-04-13T10:00:35Z</time>
		</trkpt>
		<trkpt lat="54.0938529968262" lon="13.0388059616089">
			<ele>45.0999984741211</ele>
			<time>2014-04-13T10:00:36Z</time>
		</trkpt>
		<trkpt lat="54.0938034057617" lon="13.0388221740723">
			<ele>45.2000007629395</ele>
			<time>2014-04-13T10:00:37Z</time>
		</trkpt>
		<trkpt lat="54.09375" lon="13.038836479187">
			<ele>45.5</ele>
			<time>2014-04-13T10:00:38Z</time>
		</trkpt>
		<trkpt lat="54.0936965942383" lon="13.0388507843018">
			<ele>45.5999984741211</ele>
			<time>2014-04-13T10:00:39Z</time>
		</trkpt>
		<trkpt lat="54.0936470031738" lon="13.0388698577881">
			<ele>45.5</ele>
			<time>2014-04-13T10:00:40Z</time>
		</trkpt>
		<trkpt lat="54.0935897827148" lon="13.0388898849487">
			<ele>45.4000015258789</ele>
			<time>2014-04-13T10:00:41Z</time>
		</trkpt>
		<trkpt lat="54.0935401916504" lon="13.0389099121094">
			<ele>45.5</ele>
			<time>2014-04-13T10:00:42Z</time>
		</trkpt>
		<trkpt lat="54.0934867858887" lon="13.0389280319214">
			<ele>45.5999984741211</ele>
			<time>2014-04-13T10:00:43Z</time>
		</trkpt>
		<trkpt lat="54.0934371948242" lon="13.0389490127563">
			<ele>45.5999984741211</ele>
			<time>2014-04-13T10:00:44Z</time>
		</trkpt>
		<trkpt lat="54.093391418457" lon="13.0389709472656">
			<ele>46</ele>
			<time>2014-04-13T10:00:45Z</time>
		</trkpt>
		<trkpt lat="54.0933418273926" lon="13.0389890670776">
			<ele>45.9000015258789</ele>
			<time>2014-04-13T10:00:46Z</time>
		</trkpt>
		<trkpt lat="54.0932922363281" lon="13.0390062332153">
			<ele>46</ele>
			<time>2014-04-13T10:00:47Z</time>
		</trkpt>
		<trkpt lat="54.0932426452637" lon="13.039023399353">
			<ele>46.0999984741211</ele>
			<time>2014-04-13T10:00:48Z</time>
		</trkpt>
		<trkpt lat="54.0931930541992" lon="13.0390367507935">
			<ele>46.0999984741211</ele>
			<time>2014-04-13T10:00:49Z</time>
		</trkpt>
		<trkpt lat="54.0931434631348" lon="13.0390510559082">
			<ele>46.2999992370605</ele>
			<time>2014-04-13T10:00:50Z</time>
		</trkpt>
		<trkpt lat="54.0930976867676" lon="13.0390682220459">
			<ele>46.5999984741211</ele>
			<time>2014-04-13T10:00:51Z</time>
		</trkpt>
		<trkpt lat="54.0930480957031" lon="13.039083480835">
			<ele>46.5999984741211</ele>
			<time>2014-04-13T10:00:52Z</time>
		</trkpt>
		<trkpt lat="54.0930023193359" lon="13.0390977859497">
			<ele>46.9000015258789</ele>
			<time>2014-04-13T10:00:53Z</time>
		</trkpt>
		<trkpt lat="54.0929527282715" lon="13.0391139984131">
			<ele>46.7000007629395</ele>
			<time>2014-04-13T10:00:54Z</time>
		</trkpt>
		<trkpt lat="54.0929069519043" lon="13.0391340255737">
			<ele>46.7000007629395</ele>
			<time>2014-04-13T10:00:55Z</time>
		</trkpt>
		<trkpt lat="54.0928535461426" lon="13.0391473770142">
			<ele>47.0999984741211</ele>
			<time>2014-04-13T10:00:56Z</time>
		</trkpt>
		<trkpt lat="54.0928077697754" lon="13.0391635894775">
			<ele>47.4000015258789</ele>
			<time>2014-04-13T10:00:57Z</time>
		</trkpt>
		<trkpt lat="54.0927581787109" lon="13.0391798019409">
			<ele>47.5</ele>
			<time>2014-04-13T10:00:58Z</time>
		</trkpt>
		<trkpt lat="54.0927047729492" lon="13.0391969680786">
			<ele>47.5</ele>
			<time>2014-04-13T10:00:59Z</time>
		</trkpt>
		<trkpt lat="54.0926551818848" lon="13.0392160415649">
			<ele>47.2000007629395</ele>
			<time>2014-04-13T10:01:00Z</time>
		</trkpt>
		<trkpt lat="54.0926055908203" lon="13.039234161377">
			<ele>47.4000015258789</ele>
			<time>2014-04-13T10:01:01Z</time>
		</trkpt>
		<trkpt lat="54.0925559997559" lon="13.039249420166">
			<ele>47.2999992370605</ele>
			<time>2014-04-13T10:01:02Z</time>
		</trkpt>
		<trkpt lat="54.0925064086914" lon="13.0392627716064">
			<ele>47</ele>
			<time>2014-04-13T10:01:03Z</time>
		</trkpt>
		<trkpt lat="54.092456817627" lon="13.0392799377441">
			<ele>47</ele>
			<time>2014-04-13T10:01:04Z</time>
		</trkpt>
		<trkpt lat="54.0924072265625" lon="13.0392942428589">
			<ele>47.0999984741211</ele>
			<time>2014-04-13T10:01:05Z</time>
		</trkpt>
		<trkpt lat="54.0923614501953" lon="13.0393075942993">
			<ele>47.2999992370605</ele>
			<time>2014-04-13T10:01:06Z</time>
		</trkpt>
		<trkpt lat="54.0923118591309" lon="13.0393209457397">
			<ele>47.2000007629395</ele>
			<time>2014-04-13T10:01:07Z</time>
		</trkpt>
		<trkpt lat="54.0922622680664" lon="13.0393342971802">
			<ele>47.4000015258789</ele>
			<time>2014-04-13T10:01:08Z</time>
		</trkpt>
		<trkpt lat="54.092212677002" lon="13.0393476486206">
			<ele>47.2999992370605</ele>
			<time>2014-04-13T10:01:09Z</time>
		</trkpt>
		<trkpt lat="54.0921630859375" lon="13.039361000061">
			<ele>47.2000007629395</ele>
			<time>2014-04-13T10:01:10Z</time>
		</trkpt>
		<trkpt lat="54.092113494873" lon="13.0393800735474">
			<ele>47</ele>
			<time>2014-04-13T10:01:11Z</time>
		</trkpt>
		<trkpt lat="54.0920639038086" lon="13.039400100708">
			<ele>47</ele>
			<time>2014-04-13T10:01:13Z</time>
		</trkpt>
		<trkpt lat="54.0919647216797" lon="13.0394306182861">
			<ele>46.7999992370605</ele>
			<time>2014-04-13T10:01:15Z</time>
		</trkpt>
		<trkpt lat="54.0919151306152" lon="13.0394420623779">
			<ele>46.7000007629395</ele>
			<time>2014-04-13T10:01:16Z</time>
		</trkpt>
		<trkpt lat="54.0918121337891" lon="13.0394735336304">
			<ele>46.5999984741211</ele>
			<time>2014-04-13T10:01:18Z</time>
		</trkpt>
		<trkpt lat="54.0917129516602" lon="13.0395011901855">
			<ele>46.9000015258789</ele>
			<time>2014-04-13T10:01:20Z</time>
		</trkpt>
		<trkpt lat="54.0916633605957" lon="13.0395126342773">
			<ele>46.9000015258789</ele>
			<time>2014-04-13T10:01:21Z</time>
		</trkpt>
		<trkpt lat="54.0915641784668" lon="13.0395345687866">
			<ele>47</ele>
			<time>2014-04-13T10:01:23Z</time>
		</trkpt>
		<trkpt lat="54.0914649963379" lon="13.0395650863647">
			<ele>47.2999992370605</ele>
			<time>2014-04-13T10:01:25Z</time>
		</trkpt>
		<trkpt lat="54.0914192199707" lon="13.0395822525024">
			<ele>46.9000015258789</ele>
			<time>2014-04-13T10:01:26Z</time>
		</trkpt>
		<trkpt lat="54.0913200378418" lon="13.0396137237549">
			<ele>47.0999984741211</ele>
			<time>2014-04-13T10:01:28Z</time>
		</trkpt>
		<trkpt lat="54.0912284851074" lon="13.0396432876587">
			<ele>47.2999992370605</ele>
			<time>2014-04-13T10:01:29Z</time>
		</trkpt>
		<trkpt lat="54.091178894043" lon="13.0396585464478">
			<ele>47.2000007629395</ele>
			<time>2014-04-13T10:01:30Z</time>
		</trkpt>
		<trkpt lat="54.0911293029785" lon="13.0396718978882">
			<ele>47.2999992370605</ele>
			<time>2014-04-13T10:01:31Z</time>
		</trkpt>
		<trkpt lat="54.0910797119141" lon="13.0396842956543">
			<ele>47.5</ele>
			<time>2014-04-13T10:01:32Z</time>
		</trkpt>
		<trkpt lat="54.0910301208496" lon="13.0396995544434">
			<ele>47.5999984741211</ele>
			<time>2014-04-13T10:01:33Z</time>
		</trkpt>
		<trkpt lat="54.0909805297852" lon="13.0397176742554">
			<ele>47.7000007629395</ele>
			<time>2014-04-13T10:01:34Z</time>
		</trkpt>
		<trkpt lat="54.090934753418" lon="13.0397348403931">
			<ele>47.7999992370605</ele>
			<time>2014-04-13T10:01:35Z</time>
		</trkpt>
		<trkpt lat="54.0908889770508" lon="13.0397500991821">
			<ele>47.7000007629395</ele>
			<time>2014-04-13T10:01:36Z</time>
		</trkpt>
		<trkpt lat="54.0908393859863" lon="13.0397644042969">
			<ele>47.5999984741211</ele>
			<time>2014-04-13T10:01:37Z</time>
		</trkpt>
		<trkpt lat="54.0907936096191" lon="13.03977394104">
			<ele>47.9000015258789</ele>
			<time>2014-04-13T10:01:38Z</time>
		</trkpt>
		<trkpt lat="54.0907096862793" lon="13.039758682251">
			<ele>48.2000007629395</ele>
			<time>2014-04-13T10:01:40Z</time>
		</trkpt>
		<trkpt lat="54.0906524658203" lon="13.0396842956543">
			<ele>48.5</ele>
			<time>2014-04-13T10:01:42Z</time>
		</trkpt>
		<trkpt lat="54.0906257629395" lon="13.0395593643188">
			<ele>48.0999984741211</ele>
			<time>2014-04-13T10:01:44Z</time>
		</trkpt>
		<trkpt lat="54.0906105041504" lon="13.0394229888916">
			<ele>48.2000007629395</ele>
			<time>2014-04-13T10:01:46Z</time>
		</trkpt>
		<trkpt lat="54.0905723571777" lon="13.0392932891846">
			<ele>47.5999984741211</ele>
			<time>2014-04-13T10:01:48Z</time>
		</trkpt>
		<trkpt lat="54.0904998779297" lon="13.0392112731934">
			<ele>47.5</ele>
			<time>2014-04-13T10:01:50Z</time>
		</trkpt>
		<trkpt lat="54.0904541015625" lon="13.0392045974731">
			<ele>47.2000007629395</ele>
			<time>2014-04-13T10:01:51Z</time>
		</trkpt>
		<trkpt lat="54.0904083251953" lon="13.039210319519">
			<ele>47.0999984741211</ele>
			<time>2014-04-13T10:01:52Z</time>
		</trkpt>
		<trkpt lat="54.0903587341309" lon="13.0392255783081">
			<ele>47.0999984741211</ele>
			<time>2014-04-13T10:01:53Z</time>
		</trkpt>
		<trkpt lat="54.0902709960938" lon="13.039252281189">
			<ele>47.5999984741211</ele>
			<time>2014-04-13T10:01:55Z</time>
		</trkpt>
		<trkpt lat="54.0901832580566" lon="13.0392780303955">
			<ele>47.7000007629395</ele>
			<time>2014-04-13T10:01:57Z</time>
		</trkpt>
		<trkpt lat="54.0900955200195" lon="13.0392980575562">
			<ele>48</ele>
			<time>2014-04-13T10:01:59Z</time>
		</trkpt>
		<trkpt lat="54.0899658203125" lon="13.0393295288086">
			<ele>47.7000007629395</ele>
			<time>2014-04-13T10:02:02Z</time>
		</trkpt>
		<trkpt lat="54.0899200439453" lon="13.0393381118774">
			<ele>48</ele>
			<time>2014-04-13T10:02:03Z</time>
		</trkpt>
		<trkpt lat="54.0898361206055" lon="13.0393495559692">
			<ele>47.7999992370605</ele>
			<time>2014-04-13T10:02:06Z</time>
		</trkpt>
		<trkpt lat="54.0897521972656" lon="13.0393667221069">
			<ele>47.7999992370605</ele>
			<time>2014-04-13T10:02:07Z</time>
		</trkpt>
		<trkpt lat="54.0897064208984" lon="13.0393753051758">
			<ele>47.9000015258789</ele>
			<time>2014-04-13T10:02:08Z</time>
		</trkpt>
		<trkpt lat="54.0896186828613" lon="13.0393962860107">
			<ele>48.0999984741211</ele>
			<time>2014-04-13T10:02:10Z</time>
		</trkpt>
		<trkpt lat="54.0895309448242" lon="13.0394134521484">
			<ele>47.7000007629395</ele>
			<time>2014-04-13T10:02:12Z</time>
		</trkpt>
		<trkpt lat="54.0894470214844" lon="13.0394449234009">
			<ele>47.9000015258789</ele>
			<time>2014-04-13T10:02:14Z</time>
		</trkpt>
		<trkpt lat="54.0893630981445" lon="13.0394601821899">
			<ele>47.5</ele>
			<time>2014-04-13T10:02:16Z</time>
		</trkpt>
		<trkpt lat="54.0892753601074" lon="13.0394763946533">
			<ele>47.4000015258789</ele>
			<time>2014-04-13T10:02:18Z</time>
		</trkpt>
		<trkpt lat="54.089225769043" lon="13.0394878387451">
			<ele>47.4000015258789</ele>
			<time>2014-04-13T10:02:19Z</time>
		</trkpt>
		<trkpt lat="54.0891799926758" lon="13.0395021438599">
			<ele>47.2000007629395</ele>
			<time>2014-04-13T10:02:20Z</time>
		</trkpt>
		<trkpt lat="54.0891304016113" lon="13.039514541626">
			<ele>47.4000015258789</ele>
			<time>2014-04-13T10:02:21Z</time>
		</trkpt>
		<trkpt lat="54.0890808105469" lon="13.0395278930664">
			<ele>47.4000015258789</ele>
			<time>2014-04-13T10:02:22Z</time>
		</trkpt>
		<trkpt lat="54.0890312194824" lon="13.0395431518555">
			<ele>47.4000015258789</ele>
			<time>2014-04-13T10:02:23Z</time>
		</trkpt>
		<trkpt lat="54.0889778137207" lon="13.0395574569702">
			<ele>47.2999992370605</ele>
			<time>2014-04-13T10:02:24Z</time>
		</trkpt>
		<trkpt lat="54.088924407959" lon="13.0395708084106">
			<ele>47</ele>
			<time>2014-04-13T10:02:25Z</time>
		</trkpt>
		<trkpt lat="54.0888748168945" lon="13.039587020874">
			<ele>47</ele>
			<time>2014-04-13T10:02:26Z</time>
		</trkpt>
		<trkpt lat="54.0888252258301" lon="13.0396060943604">
			<ele>47.2999992370605</ele>
			<time>2014-04-13T10:02:27Z</time>
		</trkpt>
		<trkpt lat="54.0887756347656" lon="13.0396165847778">
			<ele>47.2999992370605</ele>
			<time>2014-04-13T10:02:28Z</time>
		</trkpt>
		<trkpt lat="54.0887260437012" lon="13.0396280288696">
			<ele>47.2000007629395</ele>
			<time>2014-04-13T10:02:29Z</time>
		</trkpt>
		<trkpt lat="54.0886726379395" lon="13.039647102356">
			<ele>47.0999984741211</ele>
			<time>2014-04-13T10:02:30Z</time>
		</trkpt>
		<trkpt lat="54.088623046875" lon="13.039665222168">
			<ele>46.9000015258789</ele>
			<time>2014-04-13T10:02:31Z</time>
		</trkpt>
		<trkpt lat="54.0885696411133" lon="13.0396814346313">
			<ele>46.7999992370605</ele>
			<time>2014-04-13T10:02:32Z</time>
		</trkpt>
		<trkpt lat="54.0885200500488" lon="13.0396976470947">
			<ele>47</ele>
			<time>2014-04-13T10:02:33Z</time>
		</trkpt>
		<trkpt lat="54.0884742736816" lon="13.0397119522095">
			<ele>46.9000015258789</ele>
			<time>2014-04-13T10:02:34Z</time>
		</trkpt>
		<trkpt lat="54.0884246826172" lon="13.0397253036499">
			<ele>47.4000015258789</ele>
			<time>2014-04-13T10:02:35Z</time>
		</trkpt>
		<trkpt lat="54.08837890625" lon="13.0397386550903">
			<ele>47.2000007629395</ele>
			<time>2014-04-13T10:02:36Z</time>
		</trkpt>
		<trkpt lat="54.0883255004883" lon="13.0397491455078">
			<ele>47.2999992370605</ele>
			<time>2014-04-13T10:02:37Z</time>
		</trkpt>
		<trkpt lat="54.0882759094238" lon="13.0397615432739">
			<ele>47.2999992370605</ele>
			<time>2014-04-13T10:02:38Z</time>
		</trkpt>
		<trkpt lat="54.0882301330566" lon="13.039776802063">
			<ele>47.5</ele>
			<time>2014-04-13T10:02:39Z</time>
		</trkpt>
		<trkpt lat="54.0881843566895" lon="13.0397882461548">
			<ele>47.4000015258789</ele>
			<time>2014-04-13T10:02:40Z</time>
		</trkpt>
		<trkpt lat="54.0881423950195" lon="13.0398006439209">
			<ele>47.7999992370605</ele>
			<time>2014-04-13T10:02:41Z</time>
		</trkpt>
		<trkpt lat="54.0880966186523" lon="13.0398178100586">
			<ele>48</ele>
			<time>2014-04-13T10:02:42Z</time>
		</trkpt>
		<trkpt lat="54.0880508422852" lon="13.039831161499">
			<ele>48.4000015258789</ele>
			<time>2014-04-13T10:02:43Z</time>
		</trkpt>
		<trkpt lat="54.0880012512207" lon="13.0398464202881">
			<ele>48.2999992370605</ele>
			<time>2014-04-13T10:02:44Z</time>
		</trkpt>
		<trkpt lat="54.0879554748535" lon="13.0398626327515">
			<ele>48.5</ele>
			<time>2014-04-13T10:02:45Z</time>
		</trkpt>
		<trkpt lat="54.0879058837891" lon="13.0398721694946">
			<ele>48.7000007629395</ele>
			<time>2014-04-13T10:02:46Z</time>
		</trkpt>
		<trkpt lat="54.0878601074219" lon="13.0398778915405">
			<ele>48.7999992370605</ele>
			<time>2014-04-13T10:02:47Z</time>
		</trkpt>
		<trkpt lat="54.0878143310547" lon="13.0398874282837">
			<ele>48.7999992370605</ele>
			<time>2014-04-13T10:02:48Z</time>
		</trkpt>
		<trkpt lat="54.0877685546875" lon="13.0398969650269">
			<ele>48.7999992370605</ele>
			<time>2014-04-13T10:02:49Z</time>
		</trkpt>
		<trkpt lat="54.0877227783203" lon="13.0399150848389">
			<ele>48.9000015258789</ele>
			<time>2014-04-13T10:02:50Z</time>
		</trkpt>
		<trkpt lat="54.0876731872559" lon="13.039927482605">
			<ele>49.2000007629395</ele>
			<time>2014-04-13T10:02:51Z</time>
		</trkpt>
		<trkpt lat="54.0876274108887" lon="13.0399360656738">
			<ele>49.2000007629395</ele>
			<time>2014-04-13T10:02:52Z</time>
		</trkpt>
		<trkpt lat="54.0875816345215" lon="13.0399503707886">
			<ele>49.4000015258789</ele>
			<time>2014-04-13T10:02:53Z</time>
		</trkpt>
		<trkpt lat="54.087532043457" lon="13.039966583252">
			<ele>49.2999992370605</ele>
			<time>2014-04-13T10:02:54Z</time>
		</trkpt>
		<trkpt lat="54.0874862670898" lon="13.0399827957153">
			<ele>49.2999992370605</ele>
			<time>2014-04-13T10:02:55Z</time>
		</trkpt>
		<trkpt lat="54.0874366760254" lon="13.0399980545044">
			<ele>49.0999984741211</ele>
			<time>2014-04-13T10:02:56Z</time>
		</trkpt>
		<trkpt lat="54.0873870849609" lon="13.0400094985962">
			<ele>49.0999984741211</ele>
			<time>2014-04-13T10:02:57Z</time>
		</trkpt>
		<trkpt lat="54.0873374938965" lon="13.0400304794312">
			<ele>49.0999984741211</ele>
			<time>2014-04-13T10:02:58Z</time>
		</trkpt>
		<trkpt lat="54.087287902832" lon="13.0400476455688">
			<ele>49</ele>
			<time>2014-04-13T10:02:59Z</time>
		</trkpt>
		<trkpt lat="54.0872421264648" lon="13.0400695800781">
			<ele>48.7999992370605</ele>
			<time>2014-04-13T10:03:00Z</time>
		</trkpt>
		<trkpt lat="54.0871887207031" lon="13.0400857925415">
			<ele>48.7999992370605</ele>
			<time>2014-04-13T10:03:01Z</time>
		</trkpt>
		<trkpt lat="54.0871429443359" lon="13.0401000976563">
			<ele>48.7999992370605</ele>
			<time>2014-04-13T10:03:02Z</time>
		</trkpt>
		<trkpt lat="54.0870933532715" lon="13.0401124954224">
			<ele>48.7999992370605</ele>
			<time>2014-04-13T10:03:03Z</time>
		</trkpt>
		<trkpt lat="54.087043762207" lon="13.0401182174683">
			<ele>48.7999992370605</ele>
			<time>2014-04-13T10:03:04Z</time>
		</trkpt>
		<trkpt lat="54.0869941711426" lon="13.0401182174683">
			<ele>49</ele>
			<time>2014-04-13T10:03:05Z</time>
		</trkpt>
		<trkpt lat="54.0869445800781" lon="13.0401153564453">
			<ele>49.0999984741211</ele>
			<time>2014-04-13T10:03:06Z</time>
		</trkpt>
		<trkpt lat="54.0868949890137" lon="13.0401077270508">
			<ele>49.2000007629395</ele>
			<time>2014-04-13T10:03:07Z</time>
		</trkpt>
		<trkpt lat="54.086841583252" lon="13.040096282959">
			<ele>49.2000007629395</ele>
			<time>2014-04-13T10:03:08Z</time>
		</trkpt>
		<trkpt lat="54.0867958068848" lon="13.0400791168213">
			<ele>49.2000007629395</ele>
			<time>2014-04-13T10:03:09Z</time>
		</trkpt>
		<trkpt lat="54.0867462158203" lon="13.0400590896606">
			<ele>49.2000007629395</ele>
			<time>2014-04-13T10:03:10Z</time>
		</trkpt>
		<trkpt lat="54.0867004394531" lon="13.0400362014771">
			<ele>49</ele>
			<time>2014-04-13T10:03:11Z</time>
		</trkpt>
		<trkpt lat="54.0866508483887" lon="13.0400104522705">
			<ele>49.2999992370605</ele>
			<time>2014-04-13T10:03:12Z</time>
		</trkpt>
		<trkpt lat="54.0866012573242" lon="13.0399856567383">
			<ele>49.4000015258789</ele>
			<time>2014-04-13T10:03:13Z</time>
		</trkpt>
		<trkpt lat="54.0865516662598" lon="13.039963722229">
			<ele>49.2999992370605</ele>
			<time>2014-04-13T10:03:14Z</time>
		</trkpt>
		<trkpt lat="54.0865020751953" lon="13.0399312973022">
			<ele>49.4000015258789</ele>
			<time>2014-04-13T10:03:15Z</time>
		</trkpt>
		<trkpt lat="54.0864524841309" lon="13.0399131774902">
			<ele>49.0999984741211</ele>
			<time>2014-04-13T10:03:16Z</time>
		</trkpt>
		<trkpt lat="54.0864028930664" lon="13.039888381958">
			<ele>48.7000007629395</ele>
			<time>2014-04-13T10:03:17Z</time>
		</trkpt>
		<trkpt lat="54.086353302002" lon="13.0398559570313">
			<ele>48.5</ele>
			<time>2014-04-13T10:03:18Z</time>
		</trkpt>
		<trkpt lat="54.0862998962402" lon="13.0398235321045">
			<ele>48.5</ele>
			<time>2014-04-13T10:03:19Z</time>
		</trkpt>
		<trkpt lat="54.0862121582031" lon="13.0397796630859">
			<ele>48.2000007629395</ele>
			<time>2014-04-13T10:03:21Z</time>
		</trkpt>
		<trkpt lat="54.0861282348633" lon="13.0397291183472">
			<ele>48.5</ele>
			<time>2014-04-13T10:03:23Z</time>
		</trkpt>
		<trkpt lat="54.0860862731934" lon="13.0396852493286">
			<ele>48.9000015258789</ele>
			<time>2014-04-13T10:03:24Z</time>
		</trkpt>
		<trkpt lat="54.0860404968262" lon="13.0396528244019">
			<ele>48.9000015258789</ele>
			<time>2014-04-13T10:03:25Z</time>
		</trkpt>
		<trkpt lat="54.0859985351563" lon="13.0396184921265">
			<ele>49.0999984741211</ele>
			<time>2014-04-13T10:03:26Z</time>
		</trkpt>
		<trkpt lat="54.0859565734863" lon="13.0395812988281">
			<ele>49.0999984741211</ele>
			<time>2014-04-13T10:03:27Z</time>
		</trkpt>
		<trkpt lat="54.0859146118164" lon="13.0395412445068">
			<ele>49.5999984741211</ele>
			<time>2014-04-13T10:03:28Z</time>
		</trkpt>
		<trkpt lat="54.0858726501465" lon="13.0394926071167">
			<ele>51.2000007629395</ele>
			<time>2014-04-13T10:03:29Z</time>
		</trkpt>
		<trkpt lat="54.0858345031738" lon="13.039439201355">
			<ele>51.5</ele>
			<time>2014-04-13T10:03:30Z</time>
		</trkpt>
		<trkpt lat="54.0857887268066" lon="13.0393934249878">
			<ele>52.2000007629395</ele>
			<time>2014-04-13T10:03:31Z</time>
		</trkpt>
		<trkpt lat="54.0857124328613" lon="13.0393371582031">
			<ele>52.5</ele>
			<time>2014-04-13T10:03:33Z</time>
		</trkpt>
		<trkpt lat="54.0856666564941" lon="13.0393085479736">
			<ele>52.2999992370605</ele>
			<time>2014-04-13T10:03:34Z</time>
		</trkpt>
		<trkpt lat="54.0855827331543" lon="13.0392484664917">
			<ele>52</ele>
			<time>2014-04-13T10:03:36Z</time>
		</trkpt>
		<trkpt lat="54.085506439209" lon="13.0391778945923">
			<ele>51.5</ele>
			<time>2014-04-13T10:03:38Z</time>
		</trkpt>
		<trkpt lat="54.0854454040527" lon="13.0391149520874">
			<ele>50.9000015258789</ele>
			<time>2014-04-13T10:03:40Z</time>
		</trkpt>
		<trkpt lat="54.0853652954102" lon="13.0390462875366">
			<ele>50.9000015258789</ele>
			<time>2014-04-13T10:03:42Z</time>
		</trkpt>
		<trkpt lat="54.0853233337402" lon="13.0390043258667">
			<ele>51.4000015258789</ele>
			<time>2014-04-13T10:03:43Z</time>
		</trkpt>
		<trkpt lat="54.0852813720703" lon="13.0389671325684">
			<ele>51.0999984741211</ele>
			<time>2014-04-13T10:03:44Z</time>
		</trkpt>
		<trkpt lat="54.0852355957031" lon="13.0389261245728">
			<ele>50.2000007629395</ele>
			<time>2014-04-13T10:03:45Z</time>
		</trkpt>
		<trkpt lat="54.0851974487305" lon="13.0388784408569">
			<ele>49.7999992370605</ele>
			<time>2014-04-13T10:03:46Z</time>
		</trkpt>
		<trkpt lat="54.0851631164551" lon="13.0388298034668">
			<ele>49.5999984741211</ele>
			<time>2014-04-13T10:03:47Z</time>
		</trkpt>
		<trkpt lat="54.0850982666016" lon="13.0387382507324">
			<ele>50.2000007629395</ele>
			<time>2014-04-13T10:03:49Z</time>
		</trkpt>
		<trkpt lat="54.0850639343262" lon="13.0386915206909">
			<ele>50.0999984741211</ele>
			<time>2014-04-13T10:03:50Z</time>
		</trkpt>
		<trkpt lat="54.0849914550781" lon="13.0386009216309">
			<ele>50.0999984741211</ele>
			<time>2014-04-13T10:03:52Z</time>
		</trkpt>
		<trkpt lat="54.0849533081055" lon="13.0385522842407">
			<ele>50.4000015258789</ele>
			<time>2014-04-13T10:03:53Z</time>
		</trkpt>
		<trkpt lat="54.0848808288574" lon="13.0384674072266">
			<ele>50.2000007629395</ele>
			<time>2014-04-13T10:03:55Z</time>
		</trkpt>
		<trkpt lat="54.0848388671875" lon="13.0384302139282">
			<ele>50.2000007629395</ele>
			<time>2014-04-13T10:03:56Z</time>
		</trkpt>
		<trkpt lat="54.0848007202148" lon="13.0383853912354">
			<ele>50</ele>
			<time>2014-04-13T10:03:57Z</time>
		</trkpt>
		<trkpt lat="54.0847625732422" lon="13.0383338928223">
			<ele>49.5999984741211</ele>
			<time>2014-04-13T10:03:58Z</time>
		</trkpt>
		<trkpt lat="54.0847282409668" lon="13.0382843017578">
			<ele>49.5999984741211</ele>
			<time>2014-04-13T10:03:59Z</time>
		</trkpt>
		<trkpt lat="54.0846900939941" lon="13.0382394790649">
			<ele>49.0999984741211</ele>
			<time>2014-04-13T10:04:00Z</time>
		</trkpt>
		<trkpt lat="54.0846519470215" lon="13.0381937026978">
			<ele>48.7000007629395</ele>
			<time>2014-04-13T10:04:01Z</time>
		</trkpt>
		<trkpt lat="54.0845832824707" lon="13.0381078720093">
			<ele>49.2000007629395</ele>
			<time>2014-04-13T10:04:03Z</time>
		</trkpt>
		<trkpt lat="54.0845108032227" lon="13.0380182266235">
			<ele>49.5</ele>
			<time>2014-04-13T10:04:05Z</time>
		</trkpt>
		<trkpt lat="54.0844383239746" lon="13.0379219055176">
			<ele>49.2999992370605</ele>
			<time>2014-04-13T10:04:07Z</time>
		</trkpt>
		<trkpt lat="54.0843734741211" lon="13.0378379821777">
			<ele>48.5</ele>
			<time>2014-04-13T10:04:10Z</time>
		</trkpt>
		<trkpt lat="54.0843353271484" lon="13.0377950668335">
			<ele>48.4000015258789</ele>
			<time>2014-04-13T10:04:10Z</time>
		</trkpt>
		<trkpt lat="54.0842971801758" lon="13.0377445220947">
			<ele>48.5999984741211</ele>
			<time>2014-04-13T10:04:11Z</time>
		</trkpt>
		<trkpt lat="54.0842628479004" lon="13.037693977356">
			<ele>48.5</ele>
			<time>2014-04-13T10:04:12Z</time>
		</trkpt>
		<trkpt lat="54.0842247009277" lon="13.0376443862915">
			<ele>49</ele>
			<time>2014-04-13T10:04:13Z</time>
		</trkpt>
		<trkpt lat="54.0841865539551" lon="13.0375967025757">
			<ele>49.2999992370605</ele>
			<time>2014-04-13T10:04:14Z</time>
		</trkpt>
		<trkpt lat="54.0841484069824" lon="13.0375480651855">
			<ele>49.5999984741211</ele>
			<time>2014-04-13T10:04:15Z</time>
		</trkpt>
		<trkpt lat="54.0841102600098" lon="13.037501335144">
			<ele>49.5</ele>
			<time>2014-04-13T10:04:16Z</time>
		</trkpt>
		<trkpt lat="54.0840721130371" lon="13.03746509552">
			<ele>49.5</ele>
			<time>2014-04-13T10:04:17Z</time>
		</trkpt>
		<trkpt lat="54.0840301513672" lon="13.0374183654785">
			<ele>49.5</ele>
			<time>2014-04-13T10:04:18Z</time>
		</trkpt>
		<trkpt lat="54.0839576721191" lon="13.03733253479">
			<ele>48.5999984741211</ele>
			<time>2014-04-13T10:04:20Z</time>
		</trkpt>
		<trkpt lat="54.0838890075684" lon="13.0372467041016">
			<ele>49</ele>
			<time>2014-04-13T10:04:22Z</time>
		</trkpt>
		<trkpt lat="54.0838203430176" lon="13.0371608734131">
			<ele>48.4000015258789</ele>
			<time>2014-04-13T10:04:24Z</time>
		</trkpt>
		<trkpt lat="54.0837860107422" lon="13.037109375">
			<ele>48.7999992370605</ele>
			<time>2014-04-13T10:04:25Z</time>
		</trkpt>
		<trkpt lat="54.0837173461914" lon="13.037013053894">
			<ele>48.9000015258789</ele>
			<time>2014-04-13T10:04:27Z</time>
		</trkpt>
		<trkpt lat="54.0836791992188" lon="13.0369634628296">
			<ele>49.0999984741211</ele>
			<time>2014-04-13T10:04:28Z</time>
		</trkpt>
		<trkpt lat="54.083610534668" lon="13.0368661880493">
			<ele>49.2000007629395</ele>
			<time>2014-04-13T10:04:30Z</time>
		</trkpt>
		<trkpt lat="54.0835418701172" lon="13.0367794036865">
			<ele>49.2999992370605</ele>
			<time>2014-04-13T10:04:32Z</time>
		</trkpt>
		<trkpt lat="54.0834999084473" lon="13.0367317199707">
			<ele>49.5</ele>
			<time>2014-04-13T10:04:33Z</time>
		</trkpt>
		<trkpt lat="54.083438873291" lon="13.0366477966309">
			<ele>49.5</ele>
			<time>2014-04-13T10:04:35Z</time>
		</trkpt>
		<trkpt lat="54.0833969116211" lon="13.0365972518921">
			<ele>49.7000007629395</ele>
			<time>2014-04-13T10:04:36Z</time>
		</trkpt>
		<trkpt lat="54.0833587646484" lon="13.036545753479">
			<ele>49.7999992370605</ele>
			<time>2014-04-13T10:04:37Z</time>
		</trkpt>
		<trkpt lat="54.0833206176758" lon="13.0364990234375">
			<ele>49.7999992370605</ele>
			<time>2014-04-13T10:04:38Z</time>
		</trkpt>
		<trkpt lat="54.0832824707031" lon="13.0364503860474">
			<ele>50</ele>
			<time>2014-04-13T10:04:39Z</time>
		</trkpt>
		<trkpt lat="54.0832481384277" lon="13.0363969802856">
			<ele>50.2999992370605</ele>
			<time>2014-04-13T10:04:40Z</time>
		</trkpt>
		<trkpt lat="54.0832061767578" lon="13.0363464355469">
			<ele>50</ele>
			<time>2014-04-13T10:04:41Z</time>
		</trkpt>
		<trkpt lat="54.0831680297852" lon="13.0362987518311">
			<ele>50.2000007629395</ele>
			<time>2014-04-13T10:04:42Z</time>
		</trkpt>
		<trkpt lat="54.0831260681152" lon="13.0362462997437">
			<ele>50.2000007629395</ele>
			<time>2014-04-13T10:04:43Z</time>
		</trkpt>
		<trkpt lat="54.0830879211426" lon="13.0361967086792">
			<ele>50.5</ele>
			<time>2014-04-13T10:04:44Z</time>
		</trkpt>
		<trkpt lat="54.0830459594727" lon="13.0361499786377">
			<ele>50.0999984741211</ele>
			<time>2014-04-13T10:04:45Z</time>
		</trkpt>
		<trkpt lat="54.0829696655273" lon="13.036057472229">
			<ele>49.7999992370605</ele>
			<time>2014-04-13T10:04:47Z</time>
		</trkpt>
		<trkpt lat="54.0828895568848" lon="13.0359649658203">
			<ele>49.5</ele>
			<time>2014-04-13T10:04:49Z</time>
		</trkpt>
		<trkpt lat="54.0828514099121" lon="13.0359106063843">
			<ele>49.9000015258789</ele>
			<time>2014-04-13T10:04:50Z</time>
		</trkpt>
		<trkpt lat="54.0828170776367" lon="13.0358610153198">
			<ele>49.9000015258789</ele>
			<time>2014-04-13T10:04:51Z</time>
		</trkpt>
		<trkpt lat="54.0827789306641" lon="13.035813331604">
			<ele>50.0999984741211</ele>
			<time>2014-04-13T10:04:52Z</time>
		</trkpt>
		<trkpt lat="54.0827407836914" lon="13.0357627868652">
			<ele>50.2000007629395</ele>
			<time>2014-04-13T10:04:53Z</time>
		</trkpt>
		<trkpt lat="54.082706451416" lon="13.0357084274292">
			<ele>51.0999984741211</ele>
			<time>2014-04-13T10:04:54Z</time>
		</trkpt>
		<trkpt lat="54.0826683044434" lon="13.0356645584106">
			<ele>51.4000015258789</ele>
			<time>2014-04-13T10:04:55Z</time>
		</trkpt>
		<trkpt lat="54.0825958251953" lon="13.0355825424194">
			<ele>51.4000015258789</ele>
			<time>2014-04-13T10:04:57Z</time>
		</trkpt>
		<trkpt lat="54.0825614929199" lon="13.0355281829834">
			<ele>51.2999992370605</ele>
			<time>2014-04-13T10:04:58Z</time>
		</trkpt>
		<trkpt lat="54.0825271606445" lon="13.035475730896">
			<ele>51.0999984741211</ele>
			<time>2014-04-13T10:04:59Z</time>
		</trkpt>
		<trkpt lat="54.0824890136719" lon="13.0354270935059">
			<ele>51.2999992370605</ele>
			<time>2014-04-13T10:05:00Z</time>
		</trkpt>
		<trkpt lat="54.0824508666992" lon="13.0353765487671">
			<ele>52.0999984741211</ele>
			<time>2014-04-13T10:05:01Z</time>
		</trkpt>
		<trkpt lat="54.0823860168457" lon="13.0352926254272">
			<ele>52.7999992370605</ele>
			<time>2014-04-13T10:05:03Z</time>
		</trkpt>
		<trkpt lat="54.0823516845703" lon="13.0352401733398">
			<ele>52.5</ele>
			<time>2014-04-13T10:05:04Z</time>
		</trkpt>
		<trkpt lat="54.0822830200195" lon="13.0351495742798">
			<ele>52.0999984741211</ele>
			<time>2014-04-13T10:05:06Z</time>
		</trkpt>
		<trkpt lat="54.0822448730469" lon="13.0350980758667">
			<ele>51.7999992370605</ele>
			<time>2014-04-13T10:05:07Z</time>
		</trkpt>
		<trkpt lat="54.082202911377" lon="13.0350637435913">
			<ele>51.0999984741211</ele>
			<time>2014-04-13T10:05:08Z</time>
		</trkpt>
		<trkpt lat="54.082160949707" lon="13.035026550293">
			<ele>50.4000015258789</ele>
			<time>2014-04-13T10:05:09Z</time>
		</trkpt>
		<trkpt lat="54.0821189880371" lon="13.0349769592285">
			<ele>50.2000007629395</ele>
			<time>2014-04-13T10:05:10Z</time>
		</trkpt>
		<trkpt lat="54.0820732116699" lon="13.0349273681641">
			<ele>50</ele>
			<time>2014-04-13T10:05:11Z</time>
		</trkpt>
		<trkpt lat="54.08203125" lon="13.0348854064941">
			<ele>49.7000007629395</ele>
			<time>2014-04-13T10:05:12Z</time>
		</trkpt>
		<trkpt lat="54.081958770752" lon="13.034782409668">
			<ele>50.0999984741211</ele>
			<time>2014-04-13T10:05:14Z</time>
		</trkpt>
		<trkpt lat="54.0819206237793" lon="13.0347366333008">
			<ele>50.4000015258789</ele>
			<time>2014-04-13T10:05:15Z</time>
		</trkpt>
		<trkpt lat="54.0818786621094" lon="13.0346879959106">
			<ele>50.5999984741211</ele>
			<time>2014-04-13T10:05:16Z</time>
		</trkpt>
		<trkpt lat="54.081844329834" lon="13.0346374511719">
			<ele>50.7000007629395</ele>
			<time>2014-04-13T10:05:17Z</time>
		</trkpt>
		<trkpt lat="54.0818061828613" lon="13.0345916748047">
			<ele>50.5</ele>
			<time>2014-04-13T10:05:18Z</time>
		</trkpt>
		<trkpt lat="54.0817680358887" lon="13.0345478057861">
			<ele>50.2999992370605</ele>
			<time>2014-04-13T10:05:19Z</time>
		</trkpt>
		<trkpt lat="54.081729888916" lon="13.0345010757446">
			<ele>50.5999984741211</ele>
			<time>2014-04-13T10:05:21Z</time>
		</trkpt>
		<trkpt lat="54.0816879272461" lon="13.0344429016113">
			<ele>50.7999992370605</ele>
			<time>2014-04-13T10:05:21Z</time>
		</trkpt>
		<trkpt lat="54.0816421508789" lon="13.0343885421753">
			<ele>50.7999992370605</ele>
			<time>2014-04-13T10:05:22Z</time>
		</trkpt>
		<trkpt lat="54.0816078186035" lon="13.0343427658081">
			<ele>51.0999984741211</ele>
			<time>2014-04-13T10:05:23Z</time>
		</trkpt>
		<trkpt lat="54.08154296875" lon="13.0342607498169">
			<ele>49.7999992370605</ele>
			<time>2014-04-13T10:05:25Z</time>
		</trkpt>
		<trkpt lat="54.0814628601074" lon="13.0341634750366">
			<ele>49.7000007629395</ele>
			<time>2014-04-13T10:05:27Z</time>
		</trkpt>
		<trkpt lat="54.0814208984375" lon="13.0341205596924">
			<ele>49</ele>
			<time>2014-04-13T10:05:28Z</time>
		</trkpt>
		<trkpt lat="54.0813217163086" lon="13.0340595245361">
			<ele>48.5</ele>
			<time>2014-04-13T10:05:30Z</time>
		</trkpt>
		<trkpt lat="54.0812683105469" lon="13.0340414047241">
			<ele>48.2999992370605</ele>
			<time>2014-04-13T10:05:31Z</time>
		</trkpt>
		<trkpt lat="54.0812110900879" lon="13.034029006958">
			<ele>47.7999992370605</ele>
			<time>2014-04-13T10:05:32Z</time>
		</trkpt>
		<trkpt lat="54.0811538696289" lon="13.0340251922607">
			<ele>47.0999984741211</ele>
			<time>2014-04-13T10:05:33Z</time>
		</trkpt>
		<trkpt lat="54.0810966491699" lon="13.0340328216553">
			<ele>46.7000007629395</ele>
			<time>2014-04-13T10:05:34Z</time>
		</trkpt>
		<trkpt lat="54.0810394287109" lon="13.03404712677">
			<ele>46.5999984741211</ele>
			<time>2014-04-13T10:05:35Z</time>
		</trkpt>
		<trkpt lat="54.0809783935547" lon="13.0340633392334">
			<ele>46.5</ele>
			<time>2014-04-13T10:05:36Z</time>
		</trkpt>
		<trkpt lat="54.0809173583984" lon="13.0340843200684">
			<ele>46.2000007629395</ele>
			<time>2014-04-13T10:05:37Z</time>
		</trkpt>
		<trkpt lat="54.0808601379395" lon="13.0341110229492">
			<ele>46.2999992370605</ele>
			<time>2014-04-13T10:05:38Z</time>
		</trkpt>
		<trkpt lat="54.0808029174805" lon="13.0341329574585">
			<ele>46.5</ele>
			<time>2014-04-13T10:05:39Z</time>
		</trkpt>
		<trkpt lat="54.0807418823242" lon="13.0341501235962">
			<ele>46.5999984741211</ele>
			<time>2014-04-13T10:05:40Z</time>
		</trkpt>
		<trkpt lat="54.0806770324707" lon="13.0341768264771">
			<ele>46.5999984741211</ele>
			<time>2014-04-13T10:05:41Z</time>
		</trkpt>
		<trkpt lat="54.0806121826172" lon="13.0341939926147">
			<ele>46.7000007629395</ele>
			<time>2014-04-13T10:05:43Z</time>
		</trkpt>
		<trkpt lat="54.0805549621582" lon="13.0342178344727">
			<ele>46.7000007629395</ele>
			<time>2014-04-13T10:05:43Z</time>
		</trkpt>
		<trkpt lat="54.0804977416992" lon="13.0342416763306">
			<ele>46.5999984741211</ele>
			<time>2014-04-13T10:05:44Z</time>
		</trkpt>
		<trkpt lat="54.0804405212402" lon="13.0342864990234">
			<ele>46.7000007629395</ele>
			<time>2014-04-13T10:05:45Z</time>
		</trkpt>
		<trkpt lat="54.0803833007813" lon="13.0342960357666">
			<ele>45.5</ele>
			<time>2014-04-13T10:05:46Z</time>
		</trkpt>
		<trkpt lat="54.0803260803223" lon="13.0343236923218">
			<ele>46.7999992370605</ele>
			<time>2014-04-13T10:05:47Z</time>
		</trkpt>
		<trkpt lat="54.0802764892578" lon="13.0343503952026">
			<ele>46.4000015258789</ele>
			<time>2014-04-13T10:05:48Z</time>
		</trkpt>
		<trkpt lat="54.0802307128906" lon="13.034327507019">
			<ele>46</ele>
			<time>2014-04-13T10:05:49Z</time>
		</trkpt>
		<trkpt lat="54.0801963806152" lon="13.0342712402344">
			<ele>47.2999992370605</ele>
			<time>2014-04-13T10:05:50Z</time>
		</trkpt>
		<trkpt lat="54.0801734924316" lon="13.0341997146606">
			<ele>48</ele>
			<time>2014-04-13T10:05:51Z</time>
		</trkpt>
		<trkpt lat="54.0801620483398" lon="13.034122467041">
			<ele>48.4000015258789</ele>
			<time>2014-04-13T10:05:52Z</time>
		</trkpt>
		<trkpt lat="54.080150604248" lon="13.0340423583984">
			<ele>48.7999992370605</ele>
			<time>2014-04-13T10:05:53Z</time>
		</trkpt>
		<trkpt lat="54.0801582336426" lon="13.0338935852051">
			<ele>49</ele>
			<time>2014-04-13T10:05:55Z</time>
		</trkpt>
		<trkpt lat="54.0801582336426" lon="13.0338144302368">
			<ele>49.0999984741211</ele>
			<time>2014-04-13T10:05:56Z</time>
		</trkpt>
		<trkpt lat="54.0801582336426" lon="13.0336666107178">
			<ele>49.9000015258789</ele>
			<time>2014-04-13T10:05:58Z</time>
		</trkpt>
		<trkpt lat="54.0801467895508" lon="13.033522605896">
			<ele>50.5999984741211</ele>
			<time>2014-04-13T10:06:00Z</time>
		</trkpt>
		<trkpt lat="54.0801391601563" lon="13.0333890914917">
			<ele>50.9000015258789</ele>
			<time>2014-04-13T10:06:02Z</time>
		</trkpt>
		<trkpt lat="54.0801315307617" lon="13.0332584381104">
			<ele>51</ele>
			<time>2014-04-13T10:06:04Z</time>
		</trkpt>
		<trkpt lat="54.0801239013672" lon="13.0331354141235">
			<ele>51.2999992370605</ele>
			<time>2014-04-13T10:06:06Z</time>
		</trkpt>
		<trkpt lat="54.0801200866699" lon="13.0330171585083">
			<ele>51.5999984741211</ele>
			<time>2014-04-13T10:06:08Z</time>
		</trkpt>
		<trkpt lat="54.0801124572754" lon="13.0329008102417">
			<ele>52</ele>
			<time>2014-04-13T10:06:10Z</time>
		</trkpt>
		<trkpt lat="54.0801048278809" lon="13.0327968597412">
			<ele>52.2999992370605</ele>
			<time>2014-04-13T10:06:12Z</time>
		</trkpt>
		<trkpt lat="54.0801010131836" lon="13.0327005386353">
			<ele>52.5999984741211</ele>
			<time>2014-04-13T10:06:18Z</time>
		</trkpt>
		<trkpt lat="54.0800819396973" lon="13.0324468612671">
			<ele>53.5999984741211</ele>
			<time>2014-04-13T10:06:21Z</time>
		</trkpt>
		<trkpt lat="54.0800666809082" lon="13.0323143005371">
			<ele>53.5999984741211</ele>
			<time>2014-04-13T10:06:24Z</time>
		</trkpt>
		<trkpt lat="54.0800590515137" lon="13.0322265625">
			<ele>53.5</ele>
			<time>2014-04-13T10:06:25Z</time>
		</trkpt>
		<trkpt lat="54.0800476074219" lon="13.0320472717285">
			<ele>53.7000007629395</ele>
			<time>2014-04-13T10:06:28Z</time>
		</trkpt>
		<trkpt lat="54.0800437927246" lon="13.0319623947144">
			<ele>53.7000007629395</ele>
			<time>2014-04-13T10:06:30Z</time>
		</trkpt>
		<trkpt lat="54.0800361633301" lon="13.03187084198">
			<ele>54</ele>
			<time>2014-04-13T10:06:32Z</time>
		</trkpt>
		<trkpt lat="54.0800323486328" lon="13.031777381897">
			<ele>54.2000007629395</ele>
			<time>2014-04-13T10:06:34Z</time>
		</trkpt>
		<trkpt lat="54.080020904541" lon="13.031683921814">
			<ele>54.4000015258789</ele>
			<time>2014-04-13T10:06:36Z</time>
		</trkpt>
		<trkpt lat="54.0800170898438" lon="13.0315885543823">
			<ele>54.7000007629395</ele>
			<time>2014-04-13T10:06:38Z</time>
		</trkpt>
		<trkpt lat="54.0800094604492" lon="13.0314912796021">
			<ele>55.0999984741211</ele>
			<time>2014-04-13T10:06:40Z</time>
		</trkpt>
		<trkpt lat="54.080005645752" lon="13.031400680542">
			<ele>55.5</ele>
			<time>2014-04-13T10:06:42Z</time>
		</trkpt>
		<trkpt lat="54.0799980163574" lon="13.0313138961792">
			<ele>55.5999984741211</ele>
			<time>2014-04-13T10:06:44Z</time>
		</trkpt>
		<trkpt lat="54.0799942016602" lon="13.0312261581421">
			<ele>55.5999984741211</ele>
			<time>2014-04-13T10:06:46Z</time>
		</trkpt>
		<trkpt lat="54.0799865722656" lon="13.031138420105">
			<ele>55.7000007629395</ele>
			<time>2014-04-13T10:06:48Z</time>
		</trkpt>
		<trkpt lat="54.0799789428711" lon="13.0310478210449">
			<ele>55.9000015258789</ele>
			<time>2014-04-13T10:06:50Z</time>
		</trkpt>
		<trkpt lat="54.0799674987793" lon="13.0309572219849">
			<ele>56.0999984741211</ele>
			<time>2014-04-13T10:06:52Z</time>
		</trkpt>
		<trkpt lat="54.079963684082" lon="13.0308628082275">
			<ele>56.2000007629395</ele>
			<time>2014-04-13T10:06:54Z</time>
		</trkpt>
		<trkpt lat="54.0799560546875" lon="13.0307712554932">
			<ele>56.2000007629395</ele>
			<time>2014-04-13T10:06:56Z</time>
		</trkpt>
		<trkpt lat="54.0799522399902" lon="13.0306797027588">
			<ele>56.2000007629395</ele>
			<time>2014-04-13T10:06:58Z</time>
		</trkpt>
		<trkpt lat="54.0799407958984" lon="13.0305871963501">
			<ele>56.2000007629395</ele>
			<time>2014-04-13T10:07:00Z</time>
		</trkpt>
		<trkpt lat="54.0799331665039" lon="13.0304908752441">
			<ele>56.4000015258789</ele>
			<time>2014-04-13T10:07:02Z</time>
		</trkpt>
		<trkpt lat="54.0799255371094" lon="13.0303936004639">
			<ele>56.4000015258789</ele>
			<time>2014-04-13T10:07:04Z</time>
		</trkpt>
		<trkpt lat="54.0799217224121" lon="13.0302991867065">
			<ele>56.5</ele>
			<time>2014-04-13T10:07:06Z</time>
		</trkpt>
		<trkpt lat="54.0799140930176" lon="13.0302066802979">
			<ele>56.5</ele>
			<time>2014-04-13T10:07:08Z</time>
		</trkpt>
		<trkpt lat="54.079906463623" lon="13.0301103591919">
			<ele>56.7000007629395</ele>
			<time>2014-04-13T10:07:10Z</time>
		</trkpt>
		<trkpt lat="54.0798988342285" lon="13.0300178527832">
			<ele>56.5999984741211</ele>
			<time>2014-04-13T10:07:12Z</time>
		</trkpt>
		<trkpt lat="54.0798950195313" lon="13.0299291610718">
			<ele>56.9000015258789</ele>
			<time>2014-04-13T10:07:14Z</time>
		</trkpt>
		<trkpt lat="54.079891204834" lon="13.029842376709">
			<ele>56.7999992370605</ele>
			<time>2014-04-13T10:07:16Z</time>
		</trkpt>
		<trkpt lat="54.0798835754395" lon="13.0297527313232">
			<ele>57.0999984741211</ele>
			<time>2014-04-13T10:07:18Z</time>
		</trkpt>
		<trkpt lat="54.0798797607422" lon="13.0296649932861">
			<ele>57.2000007629395</ele>
			<time>2014-04-13T10:07:20Z</time>
		</trkpt>
		<trkpt lat="54.0798683166504" lon="13.0295743942261">
			<ele>57.0999984741211</ele>
			<time>2014-04-13T10:07:22Z</time>
		</trkpt>
		<trkpt lat="54.0798645019531" lon="13.0294799804688">
			<ele>57.2000007629395</ele>
			<time>2014-04-13T10:07:24Z</time>
		</trkpt>
		<trkpt lat="54.0798568725586" lon="13.0293941497803">
			<ele>57.2000007629395</ele>
			<time>2014-04-13T10:07:26Z</time>
		</trkpt>
		<trkpt lat="54.0798530578613" lon="13.0293073654175">
			<ele>57.2000007629395</ele>
			<time>2014-04-13T10:07:28Z</time>
		</trkpt>
		<trkpt lat="54.0798454284668" lon="13.0292167663574">
			<ele>57.2000007629395</ele>
			<time>2014-04-13T10:07:30Z</time>
		</trkpt>
		<trkpt lat="54.079833984375" lon="13.0291261672974">
			<ele>57.4000015258789</ele>
			<time>2014-04-13T10:07:32Z</time>
		</trkpt>
		<trkpt lat="54.0798301696777" lon="13.0290412902832">
			<ele>57.5</ele>
			<time>2014-04-13T10:07:34Z</time>
		</trkpt>
		<trkpt lat="54.0798225402832" lon="13.028956413269">
			<ele>57.5</ele>
			<time>2014-04-13T10:07:36Z</time>
		</trkpt>
		<trkpt lat="54.0798187255859" lon="13.0288677215576">
			<ele>57.4000015258789</ele>
			<time>2014-04-13T10:07:38Z</time>
		</trkpt>
		<trkpt lat="54.0798149108887" lon="13.0287752151489">
			<ele>57.5</ele>
			<time>2014-04-13T10:07:40Z</time>
		</trkpt>
		<trkpt lat="54.0798072814941" lon="13.0286846160889">
			<ele>57.5999984741211</ele>
			<time>2014-04-13T10:07:42Z</time>
		</trkpt>
		<trkpt lat="54.0797996520996" lon="13.0285930633545">
			<ele>57.7000007629395</ele>
			<time>2014-04-13T10:07:44Z</time>
		</trkpt>
		<trkpt lat="54.0797958374023" lon="13.0285015106201">
			<ele>57.5</ele>
			<time>2014-04-13T10:07:46Z</time>
		</trkpt>
		<trkpt lat="54.0797920227051" lon="13.0284099578857">
			<ele>57.5999984741211</ele>
			<time>2014-04-13T10:07:48Z</time>
		</trkpt>
		<trkpt lat="54.0797843933105" lon="13.0283193588257">
			<ele>57.4000015258789</ele>
			<time>2014-04-13T10:07:50Z</time>
		</trkpt>
		<trkpt lat="54.079776763916" lon="13.0282335281372">
			<ele>57.5</ele>
			<time>2014-04-13T10:07:52Z</time>
		</trkpt>
		<trkpt lat="54.0797729492188" lon="13.0281429290771">
			<ele>57.5999984741211</ele>
			<time>2014-04-13T10:07:54Z</time>
		</trkpt>
		<trkpt lat="54.0797691345215" lon="13.0280532836914">
			<ele>57.4000015258789</ele>
			<time>2014-04-13T10:07:56Z</time>
		</trkpt>
		<trkpt lat="54.079761505127" lon="13.0279598236084">
			<ele>57.5</ele>
			<time>2014-04-13T10:07:58Z</time>
		</trkpt>
		<trkpt lat="54.0797576904297" lon="13.0278625488281">
			<ele>57.5</ele>
			<time>2014-04-13T10:08:00Z</time>
		</trkpt>
		<trkpt lat="54.0797500610352" lon="13.0277690887451">
			<ele>57.2999992370605</ele>
			<time>2014-04-13T10:08:02Z</time>
		</trkpt>
		<trkpt lat="54.0797462463379" lon="13.0276794433594">
			<ele>57.2000007629395</ele>
			<time>2014-04-13T10:08:04Z</time>
		</trkpt>
		<trkpt lat="54.0797386169434" lon="13.0275840759277">
			<ele>57.2000007629395</ele>
			<time>2014-04-13T10:08:06Z</time>
		</trkpt>
		<trkpt lat="54.0797309875488" lon="13.027491569519">
			<ele>57</ele>
			<time>2014-04-13T10:08:08Z</time>
		</trkpt>
		<trkpt lat="54.0797271728516" lon="13.027400970459">
			<ele>57</ele>
			<time>2014-04-13T10:08:10Z</time>
		</trkpt>
		<trkpt lat="54.0797233581543" lon="13.0273094177246">
			<ele>56.7999992370605</ele>
			<time>2014-04-13T10:08:12Z</time>
		</trkpt>
		<trkpt lat="54.079719543457" lon="13.0272216796875">
			<ele>57.0999984741211</ele>
			<time>2014-04-13T10:08:14Z</time>
		</trkpt>
		<trkpt lat="54.0797157287598" lon="13.0271310806274">
			<ele>57.2000007629395</ele>
			<time>2014-04-13T10:08:16Z</time>
		</trkpt>
		<trkpt lat="54.0797157287598" lon="13.027042388916">
			<ele>57.2999992370605</ele>
			<time>2014-04-13T10:08:18Z</time>
		</trkpt>
		<trkpt lat="54.0797119140625" lon="13.0269584655762">
			<ele>57.4000015258789</ele>
			<time>2014-04-13T10:08:20Z</time>
		</trkpt>
		<trkpt lat="54.0797080993652" lon="13.0268697738647">
			<ele>57.4000015258789</ele>
			<time>2014-04-13T10:08:22Z</time>
		</trkpt>
		<trkpt lat="54.079704284668" lon="13.0267782211304">
			<ele>57.2000007629395</ele>
			<time>2014-04-13T10:08:24Z</time>
		</trkpt>
		<trkpt lat="54.0796966552734" lon="13.0266857147217">
			<ele>57.5</ele>
			<time>2014-04-13T10:08:26Z</time>
		</trkpt>
		<trkpt lat="54.0796928405762" lon="13.0265960693359">
			<ele>57.5</ele>
			<time>2014-04-13T10:08:28Z</time>
		</trkpt>
		<trkpt lat="54.0796928405762" lon="13.0265054702759">
			<ele>57.5</ele>
			<time>2014-04-13T10:08:30Z</time>
		</trkpt>
		<trkpt lat="54.0796852111816" lon="13.0264148712158">
			<ele>57.5999984741211</ele>
			<time>2014-04-13T10:08:32Z</time>
		</trkpt>
		<trkpt lat="54.0796852111816" lon="13.0263328552246">
			<ele>57.7000007629395</ele>
			<time>2014-04-13T10:08:34Z</time>
		</trkpt>
		<trkpt lat="54.0796852111816" lon="13.0262498855591">
			<ele>57.5</ele>
			<time>2014-04-13T10:08:36Z</time>
		</trkpt>
		<trkpt lat="54.0796852111816" lon="13.026159286499">
			<ele>57.5</ele>
			<time>2014-04-13T10:08:38Z</time>
		</trkpt>
		<trkpt lat="54.0796813964844" lon="13.0260715484619">
			<ele>57.5</ele>
			<time>2014-04-13T10:08:40Z</time>
		</trkpt>
		<trkpt lat="54.0796775817871" lon="13.0259838104248">
			<ele>57.7000007629395</ele>
			<time>2014-04-13T10:08:42Z</time>
		</trkpt>
		<trkpt lat="54.0796737670898" lon="13.0258932113647">
			<ele>57.7999992370605</ele>
			<time>2014-04-13T10:08:44Z</time>
		</trkpt>
		<trkpt lat="54.0796699523926" lon="13.0258054733276">
			<ele>57.5999984741211</ele>
			<time>2014-04-13T10:08:46Z</time>
		</trkpt>
		<trkpt lat="54.0796699523926" lon="13.0257196426392">
			<ele>57.5999984741211</ele>
			<time>2014-04-13T10:08:48Z</time>
		</trkpt>
		<trkpt lat="54.0796699523926" lon="13.0256299972534">
			<ele>57.5</ele>
			<time>2014-04-13T10:08:50Z</time>
		</trkpt>
		<trkpt lat="54.079662322998" lon="13.0255422592163">
			<ele>57.5999984741211</ele>
			<time>2014-04-13T10:08:52Z</time>
		</trkpt>
		<trkpt lat="54.0796432495117" lon="13.0254611968994">
			<ele>57.5</ele>
			<time>2014-04-13T10:08:54Z</time>
		</trkpt>
		<trkpt lat="54.0796012878418" lon="13.0254011154175">
			<ele>57.2000007629395</ele>
			<time>2014-04-13T10:08:56Z</time>
		</trkpt>
		<trkpt lat="54.0795516967773" lon="13.0253629684448">
			<ele>57.0999984741211</ele>
			<time>2014-04-13T10:08:58Z</time>
		</trkpt>
		<trkpt lat="54.0795021057129" lon="13.0253343582153">
			<ele>56.7999992370605</ele>
			<time>2014-04-13T10:09:00Z</time>
		</trkpt>
		<trkpt lat="54.0794448852539" lon="13.0253229141235">
			<ele>56.9000015258789</ele>
			<time>2014-04-13T10:09:02Z</time>
		</trkpt>
		<trkpt lat="54.0793800354004" lon="13.0253219604492">
			<ele>56.9000015258789</ele>
			<time>2014-04-13T10:09:04Z</time>
		</trkpt>
		<trkpt lat="54.0793151855469" lon="13.0253257751465">
			<ele>56.7000007629395</ele>
			<time>2014-04-13T10:09:06Z</time>
		</trkpt>
		<trkpt lat="54.0792465209961" lon="13.0253343582153">
			<ele>56.5999984741211</ele>
			<time>2014-04-13T10:09:08Z</time>
		</trkpt>
		<trkpt lat="54.0791778564453" lon="13.0253410339355">
			<ele>56.7000007629395</ele>
			<time>2014-04-13T10:09:10Z</time>
		</trkpt>
		<trkpt lat="54.0791015625" lon="13.0253467559814">
			<ele>56.5999984741211</ele>
			<time>2014-04-13T10:09:12Z</time>
		</trkpt>
		<trkpt lat="54.0790214538574" lon="13.0253534317017">
			<ele>56.5999984741211</ele>
			<time>2014-04-13T10:09:14Z</time>
		</trkpt>
		<trkpt lat="54.0789413452148" lon="13.0253582000732">
			<ele>56.4000015258789</ele>
			<time>2014-04-13T10:09:16Z</time>
		</trkpt>
		<trkpt lat="54.0788612365723" lon="13.0253639221191">
			<ele>56.2000007629395</ele>
			<time>2014-04-13T10:09:18Z</time>
		</trkpt>
		<trkpt lat="54.0787811279297" lon="13.0253667831421">
			<ele>55.9000015258789</ele>
			<time>2014-04-13T10:09:20Z</time>
		</trkpt>
		<trkpt lat="54.0787048339844" lon="13.0253801345825">
			<ele>55.7000007629395</ele>
			<time>2014-04-13T10:09:22Z</time>
		</trkpt>
		<trkpt lat="54.0786247253418" lon="13.0253810882568">
			<ele>55.7999992370605</ele>
			<time>2014-04-13T10:09:24Z</time>
		</trkpt>
		<trkpt lat="54.0785522460938" lon="13.0253992080688">
			<ele>55.7000007629395</ele>
			<time>2014-04-13T10:09:26Z</time>
		</trkpt>
		<trkpt lat="54.078483581543" lon="13.0254459381104">
			<ele>55.5999984741211</ele>
			<time>2014-04-13T10:09:28Z</time>
		</trkpt>
		<trkpt lat="54.0784149169922" lon="13.0255012512207">
			<ele>55.5</ele>
			<time>2014-04-13T10:09:30Z</time>
		</trkpt>
		<trkpt lat="54.0783500671387" lon="13.0255651473999">
			<ele>55</ele>
			<time>2014-04-13T10:09:32Z</time>
		</trkpt>
		<trkpt lat="54.0782890319824" lon="13.0256233215332">
			<ele>55</ele>
			<time>2014-04-13T10:09:34Z</time>
		</trkpt>
		<trkpt lat="54.0782241821289" lon="13.0256824493408">
			<ele>55.7000007629395</ele>
			<time>2014-04-13T10:09:40Z</time>
		</trkpt>
		<trkpt lat="54.0780372619629" lon="13.0258312225342">
			<ele>55.7999992370605</ele>
			<time>2014-04-13T10:09:42Z</time>
		</trkpt>
		<trkpt lat="54.0779991149902" lon="13.0258674621582">
			<ele>55.7999992370605</ele>
			<time>2014-04-13T10:09:43Z</time>
		</trkpt>
		<trkpt lat="54.0779571533203" lon="13.0259065628052">
			<ele>55.7999992370605</ele>
			<time>2014-04-13T10:09:43Z</time>
		</trkpt>
		<trkpt lat="54.0779151916504" lon="13.0259408950806">
			<ele>55.7999992370605</ele>
			<time>2014-04-13T10:09:45Z</time>
		</trkpt>
		<trkpt lat="54.0778732299805" lon="13.0259799957275">
			<ele>55.7000007629395</ele>
			<time>2014-04-13T10:09:46Z</time>
		</trkpt>
		<trkpt lat="54.0778312683105" lon="13.0260190963745">
			<ele>55.9000015258789</ele>
			<time>2014-04-13T10:09:47Z</time>
		</trkpt>
		<trkpt lat="54.0777893066406" lon="13.0260467529297">
			<ele>55.7000007629395</ele>
			<time>2014-04-13T10:09:48Z</time>
		</trkpt>
		<trkpt lat="54.077693939209" lon="13.02610206604">
			<ele>55.5</ele>
			<time>2014-04-13T10:09:49Z</time>
		</trkpt>
		<trkpt lat="54.0776443481445" lon="13.0261297225952">
			<ele>55.5999984741211</ele>
			<time>2014-04-13T10:09:50Z</time>
		</trkpt>
		<trkpt lat="54.0775947570801" lon="13.0261526107788">
			<ele>55.5999984741211</ele>
			<time>2014-04-13T10:09:51Z</time>
		</trkpt>
		<trkpt lat="54.0775451660156" lon="13.0261812210083">
			<ele>55.5999984741211</ele>
			<time>2014-04-13T10:09:52Z</time>
		</trkpt>
		<trkpt lat="54.0774955749512" lon="13.0262069702148">
			<ele>55.4000015258789</ele>
			<time>2014-04-13T10:09:53Z</time>
		</trkpt>
		<trkpt lat="54.0774459838867" lon="13.02623462677">
			<ele>55.4000015258789</ele>
			<time>2014-04-13T10:09:54Z</time>
		</trkpt>
		<trkpt lat="54.077392578125" lon="13.0262584686279">
			<ele>55.2999992370605</ele>
			<time>2014-04-13T10:09:57Z</time>
		</trkpt>
		<trkpt lat="54.0772399902344" lon="13.0263452529907">
			<ele>55.5</ele>
			<time>2014-04-13T10:09:59Z</time>
		</trkpt>
		<trkpt lat="54.0771903991699" lon="13.0263633728027">
			<ele>55.4000015258789</ele>
			<time>2014-04-13T10:10:00Z</time>
		</trkpt>
		<trkpt lat="54.0771408081055" lon="13.026388168335">
			<ele>55.5</ele>
			<time>2014-04-13T10:10:01Z</time>
		</trkpt>
		<trkpt lat="54.077091217041" lon="13.0264158248901">
			<ele>55.7000007629395</ele>
			<time>2014-04-13T10:10:02Z</time>
		</trkpt>
		<trkpt lat="54.0770416259766" lon="13.0264453887939">
			<ele>55.7999992370605</ele>
			<time>2014-04-13T10:10:03Z</time>
		</trkpt>
		<trkpt lat="54.0769920349121" lon="13.0264711380005">
			<ele>56.2000007629395</ele>
			<time>2014-04-13T10:10:04Z</time>
		</trkpt>
		<trkpt lat="54.0769424438477" lon="13.0264959335327">
			<ele>56.0999984741211</ele>
			<time>2014-04-13T10:10:05Z</time>
		</trkpt>
		<trkpt lat="54.0768928527832" lon="13.026515007019">
			<ele>55.9000015258789</ele>
			<time>2014-04-13T10:10:06Z</time>
		</trkpt>
		<trkpt lat="54.0768432617188" lon="13.0265417098999">
			<ele>55.9000015258789</ele>
			<time>2014-04-13T10:10:07Z</time>
		</trkpt>
		<trkpt lat="54.0767478942871" lon="13.0265979766846">
			<ele>55.7000007629395</ele>
			<time>2014-04-13T10:10:08Z</time>
		</trkpt>
		<trkpt lat="54.0767021179199" lon="13.0266275405884">
			<ele>55.9000015258789</ele>
			<time>2014-04-13T10:10:09Z</time>
		</trkpt>
		<trkpt lat="54.0766525268555" lon="13.0266580581665">
			<ele>55.7999992370605</ele>
			<time>2014-04-13T10:10:10Z</time>
		</trkpt>
		<trkpt lat="54.0766067504883" lon="13.0266828536987">
			<ele>55.9000015258789</ele>
			<time>2014-04-13T10:10:11Z</time>
		</trkpt>
		<trkpt lat="54.0765609741211" lon="13.026707649231">
			<ele>55.9000015258789</ele>
			<time>2014-04-13T10:10:12Z</time>
		</trkpt>
		<trkpt lat="54.0765113830566" lon="13.0267343521118">
			<ele>55.7999992370605</ele>
			<time>2014-04-13T10:10:13Z</time>
		</trkpt>
		<trkpt lat="54.0764617919922" lon="13.0267601013184">
			<ele>55.9000015258789</ele>
			<time>2014-04-13T10:10:14Z</time>
		</trkpt>
		<trkpt lat="54.076416015625" lon="13.0267868041992">
			<ele>55.7999992370605</ele>
			<time>2014-04-13T10:10:15Z</time>
		</trkpt>
		<trkpt lat="54.0763664245605" lon="13.0268125534058">
			<ele>55.9000015258789</ele>
			<time>2014-04-13T10:10:16Z</time>
		</trkpt>
		<trkpt lat="54.0763168334961" lon="13.0268383026123">
			<ele>55.9000015258789</ele>
			<time>2014-04-13T10:10:17Z</time>
		</trkpt>
		<trkpt lat="54.0762710571289" lon="13.0268630981445">
			<ele>55.9000015258789</ele>
			<time>2014-04-13T10:10:18Z</time>
		</trkpt>
		<trkpt lat="54.0762214660645" lon="13.0268859863281">
			<ele>56.0999984741211</ele>
			<time>2014-04-13T10:10:19Z</time>
		</trkpt>
		<trkpt lat="54.076171875" lon="13.0269041061401">
			<ele>56.0999984741211</ele>
			<time>2014-04-13T10:10:20Z</time>
		</trkpt>
		<trkpt lat="54.0761222839355" lon="13.0269298553467">
			<ele>56.2000007629395</ele>
			<time>2014-04-13T10:10:21Z</time>
		</trkpt>
		<trkpt lat="54.0760765075684" lon="13.0269603729248">
			<ele>56.4000015258789</ele>
			<time>2014-04-13T10:10:22Z</time>
		</trkpt>
		<trkpt lat="54.0760307312012" lon="13.0269908905029">
			<ele>56.4000015258789</ele>
			<time>2014-04-13T10:10:23Z</time>
		</trkpt>
		<trkpt lat="54.0759811401367" lon="13.0270156860352">
			<ele>56.2999992370605</ele>
			<time>2014-04-13T10:10:24Z</time>
		</trkpt>
		<trkpt lat="54.0759353637695" lon="13.0270395278931">
			<ele>56.2000007629395</ele>
			<time>2014-04-13T10:10:25Z</time>
		</trkpt>
		<trkpt lat="54.0758857727051" lon="13.0270624160767">
			<ele>56.2000007629395</ele>
			<time>2014-04-13T10:10:26Z</time>
		</trkpt>
		<trkpt lat="54.0758361816406" lon="13.0270862579346">
			<ele>56.0999984741211</ele>
			<time>2014-04-13T10:10:27Z</time>
		</trkpt>
		<trkpt lat="54.0757904052734" lon="13.0271110534668">
			<ele>56</ele>
			<time>2014-04-13T10:10:28Z</time>
		</trkpt>
		<trkpt lat="54.0757446289063" lon="13.0271377563477">
			<ele>56</ele>
			<time>2014-04-13T10:10:29Z</time>
		</trkpt>
		<trkpt lat="54.0756950378418" lon="13.0271635055542">
			<ele>56.0999984741211</ele>
			<time>2014-04-13T10:10:30Z</time>
		</trkpt>
		<trkpt lat="54.0756454467773" lon="13.0271873474121">
			<ele>56.2000007629395</ele>
			<time>2014-04-13T10:10:32Z</time>
		</trkpt>
		<trkpt lat="54.075553894043" lon="13.0272445678711">
			<ele>56.2000007629395</ele>
			<time>2014-04-13T10:10:33Z</time>
		</trkpt>
		<trkpt lat="54.0755081176758" lon="13.0272655487061">
			<ele>56.0999984741211</ele>
			<time>2014-04-13T10:10:35Z</time>
		</trkpt>
		<trkpt lat="54.0754623413086" lon="13.0272836685181">
			<ele>56.0999984741211</ele>
			<time>2014-04-13T10:10:36Z</time>
		</trkpt>
		<trkpt lat="54.0754165649414" lon="13.027307510376">
			<ele>55.9000015258789</ele>
			<time>2014-04-13T10:10:37Z</time>
		</trkpt>
		<trkpt lat="54.075366973877" lon="13.0273303985596">
			<ele>55.9000015258789</ele>
			<time>2014-04-13T10:10:38Z</time>
		</trkpt>
		<trkpt lat="54.0753211975098" lon="13.0273532867432">
			<ele>56.2000007629395</ele>
			<time>2014-04-13T10:10:39Z</time>
		</trkpt>
		<trkpt lat="54.0752754211426" lon="13.0273818969727">
			<ele>56.2999992370605</ele>
			<time>2014-04-13T10:10:40Z</time>
		</trkpt>
		<trkpt lat="54.0752334594727" lon="13.0274105072021">
			<ele>56.5</ele>
			<time>2014-04-13T10:10:41Z</time>
		</trkpt>
		<trkpt lat="54.0751876831055" lon="13.0274324417114">
			<ele>56.5</ele>
			<time>2014-04-13T10:10:41Z</time>
		</trkpt>
		<trkpt lat="54.0751419067383" lon="13.0274496078491">
			<ele>56.2999992370605</ele>
			<time>2014-04-13T10:10:43Z</time>
		</trkpt>
		<trkpt lat="54.0750923156738" lon="13.0274715423584">
			<ele>56.2000007629395</ele>
			<time>2014-04-13T10:10:43Z</time>
		</trkpt>
		<trkpt lat="54.0750465393066" lon="13.0274982452393">
			<ele>55.9000015258789</ele>
			<time>2014-04-13T10:10:45Z</time>
		</trkpt>
		<trkpt lat="54.0749549865723" lon="13.0275573730469">
			<ele>56.2000007629395</ele>
			<time>2014-04-13T10:10:46Z</time>
		</trkpt>
		<trkpt lat="54.0749053955078" lon="13.0275859832764">
			<ele>56.4000015258789</ele>
			<time>2014-04-13T10:10:47Z</time>
		</trkpt>
		<trkpt lat="54.0748519897461" lon="13.0276126861572">
			<ele>56.5</ele>
			<time>2014-04-13T10:10:48Z</time>
		</trkpt>
		<trkpt lat="54.0748023986816" lon="13.0276412963867">
			<ele>56.5</ele>
			<time>2014-04-13T10:10:49Z</time>
		</trkpt>
		<trkpt lat="54.0747528076172" lon="13.027663230896">
			<ele>56.4000015258789</ele>
			<time>2014-04-13T10:10:50Z</time>
		</trkpt>
		<trkpt lat="54.0746994018555" lon="13.0276937484741">
			<ele>56.5999984741211</ele>
			<time>2014-04-13T10:10:51Z</time>
		</trkpt>
		<trkpt lat="54.0746459960938" lon="13.0277214050293">
			<ele>56.4000015258789</ele>
			<time>2014-04-13T10:10:52Z</time>
		</trkpt>
		<trkpt lat="54.074592590332" lon="13.0277452468872">
			<ele>56.5</ele>
			<time>2014-04-13T10:10:53Z</time>
		</trkpt>
		<trkpt lat="54.0745429992676" lon="13.0277709960938">
			<ele>56.5</ele>
			<time>2014-04-13T10:10:54Z</time>
		</trkpt>
		<trkpt lat="54.0744895935059" lon="13.0277967453003">
			<ele>56.5</ele>
			<time>2014-04-13T10:10:55Z</time>
		</trkpt>
		<trkpt lat="54.0744400024414" lon="13.0278234481812">
			<ele>56.5</ele>
			<time>2014-04-13T10:10:56Z</time>
		</trkpt>
		<trkpt lat="54.074390411377" lon="13.027850151062">
			<ele>56.5999984741211</ele>
			<time>2014-04-13T10:10:57Z</time>
		</trkpt>
		<trkpt lat="54.0743408203125" lon="13.0278806686401">
			<ele>56.7000007629395</ele>
			<time>2014-04-13T10:10:58Z</time>
		</trkpt>
		<trkpt lat="54.074291229248" lon="13.0279064178467">
			<ele>56.7000007629395</ele>
			<time>2014-04-13T10:10:59Z</time>
		</trkpt>
		<trkpt lat="54.0742378234863" lon="13.0279369354248">
			<ele>57</ele>
			<time>2014-04-13T10:11:00Z</time>
		</trkpt>
		<trkpt lat="54.0741844177246" lon="13.0279636383057">
			<ele>56.7999992370605</ele>
			<time>2014-04-13T10:11:01Z</time>
		</trkpt>
		<trkpt lat="54.0741310119629" lon="13.0279922485352">
			<ele>56.7999992370605</ele>
			<time>2014-04-13T10:11:02Z</time>
		</trkpt>
		<trkpt lat="54.0740776062012" lon="13.0280199050903">
			<ele>56.7999992370605</ele>
			<time>2014-04-13T10:11:03Z</time>
		</trkpt>
		<trkpt lat="54.0740280151367" lon="13.0280513763428">
			<ele>56.7999992370605</ele>
			<time>2014-04-13T10:11:04Z</time>
		</trkpt>
		<trkpt lat="54.073974609375" lon="13.0280799865723">
			<ele>56.9000015258789</ele>
			<time>2014-04-13T10:11:05Z</time>
		</trkpt>
		<trkpt lat="54.0739212036133" lon="13.0281057357788">
			<ele>57</ele>
			<time>2014-04-13T10:11:08Z</time>
		</trkpt>
		<trkpt lat="54.0738143920898" lon="13.0281648635864">
			<ele>56.9000015258789</ele>
			<time>2014-04-13T10:11:09Z</time>
		</trkpt>
		<trkpt lat="54.0737113952637" lon="13.0282115936279">
			<ele>56.9000015258789</ele>
			<time>2014-04-13T10:11:11Z</time>
		</trkpt>
		<trkpt lat="54.073657989502" lon="13.0282354354858">
			<ele>57.2999992370605</ele>
			<time>2014-04-13T10:11:12Z</time>
		</trkpt>
		<trkpt lat="54.0735549926758" lon="13.0282926559448">
			<ele>57.2999992370605</ele>
			<time>2014-04-13T10:11:13Z</time>
		</trkpt>
		<trkpt lat="54.0735054016113" lon="13.0283222198486">
			<ele>57.4000015258789</ele>
			<time>2014-04-13T10:11:14Z</time>
		</trkpt>
		<trkpt lat="54.0734558105469" lon="13.0283508300781">
			<ele>57.4000015258789</ele>
			<time>2014-04-13T10:11:15Z</time>
		</trkpt>
		<trkpt lat="54.0734024047852" lon="13.0283794403076">
			<ele>57.4000015258789</ele>
			<time>2014-04-13T10:11:16Z</time>
		</trkpt>
		<trkpt lat="54.0733489990234" lon="13.0284099578857">
			<ele>57.2999992370605</ele>
			<time>2014-04-13T10:11:17Z</time>
		</trkpt>
		<trkpt lat="54.0732955932617" lon="13.0284404754639">
			<ele>57.2999992370605</ele>
			<time>2014-04-13T10:11:18Z</time>
		</trkpt>
		<trkpt lat="54.0732421875" lon="13.0284662246704">
			<ele>57.2000007629395</ele>
			<time>2014-04-13T10:11:19Z</time>
		</trkpt>
		<trkpt lat="54.0731887817383" lon="13.0284910202026">
			<ele>56.9000015258789</ele>
			<time>2014-04-13T10:11:20Z</time>
		</trkpt>
		<trkpt lat="54.0731353759766" lon="13.0285167694092">
			<ele>56.9000015258789</ele>
			<time>2014-04-13T10:11:21Z</time>
		</trkpt>
		<trkpt lat="54.0730819702148" lon="13.0285453796387">
			<ele>56.9000015258789</ele>
			<time>2014-04-13T10:11:22Z</time>
		</trkpt>
		<trkpt lat="54.0730285644531" lon="13.0285730361938">
			<ele>56.7000007629395</ele>
			<time>2014-04-13T10:11:23Z</time>
		</trkpt>
		<trkpt lat="54.0729713439941" lon="13.0286026000977">
			<ele>56.7000007629395</ele>
			<time>2014-04-13T10:11:24Z</time>
		</trkpt>
		<trkpt lat="54.0729217529297" lon="13.0286321640015">
			<ele>56.7999992370605</ele>
			<time>2014-04-13T10:11:25Z</time>
		</trkpt>
		<trkpt lat="54.072868347168" lon="13.0286617279053">
			<ele>56.7999992370605</ele>
			<time>2014-04-13T10:11:26Z</time>
		</trkpt>
		<trkpt lat="54.0728149414063" lon="13.0286951065063">
			<ele>56.9000015258789</ele>
			<time>2014-04-13T10:11:27Z</time>
		</trkpt>
		<trkpt lat="54.0727653503418" lon="13.028736114502">
			<ele>57</ele>
			<time>2014-04-13T10:11:28Z</time>
		</trkpt>
		<trkpt lat="54.0727195739746" lon="13.0287857055664">
			<ele>57.0999984741211</ele>
			<time>2014-04-13T10:11:29Z</time>
		</trkpt>
		<trkpt lat="54.0726776123047" lon="13.0288496017456">
			<ele>56.9000015258789</ele>
			<time>2014-04-13T10:11:30Z</time>
		</trkpt>
		<trkpt lat="54.0726318359375" lon="13.0289087295532">
			<ele>57.0999984741211</ele>
			<time>2014-04-13T10:11:31Z</time>
		</trkpt>
		<trkpt lat="54.072582244873" lon="13.0289649963379">
			<ele>57.0999984741211</ele>
			<time>2014-04-13T10:11:32Z</time>
		</trkpt>
		<trkpt lat="54.0725364685059" lon="13.0290241241455">
			<ele>57.0999984741211</ele>
			<time>2014-04-13T10:11:33Z</time>
		</trkpt>
		<trkpt lat="54.0724906921387" lon="13.0290803909302">
			<ele>57.2999992370605</ele>
			<time>2014-04-13T10:11:34Z</time>
		</trkpt>
		<trkpt lat="54.0724449157715" lon="13.0291404724121">
			<ele>57.2000007629395</ele>
			<time>2014-04-13T10:11:35Z</time>
		</trkpt>
		<trkpt lat="54.0723991394043" lon="13.0291967391968">
			<ele>57.2000007629395</ele>
			<time>2014-04-13T10:11:36Z</time>
		</trkpt>
		<trkpt lat="54.0723495483398" lon="13.0292558670044">
			<ele>57.2000007629395</ele>
			<time>2014-04-13T10:11:37Z</time>
		</trkpt>
		<trkpt lat="54.0723037719727" lon="13.0293102264404">
			<ele>57.2000007629395</ele>
			<time>2014-04-13T10:11:38Z</time>
		</trkpt>
		<trkpt lat="54.0722579956055" lon="13.0293674468994">
			<ele>57.0999984741211</ele>
			<time>2014-04-13T10:11:39Z</time>
		</trkpt>
		<trkpt lat="54.072208404541" lon="13.0294227600098">
			<ele>57.2000007629395</ele>
			<time>2014-04-13T10:11:40Z</time>
		</trkpt>
		<trkpt lat="54.0721588134766" lon="13.0294809341431">
			<ele>57.0999984741211</ele>
			<time>2014-04-13T10:11:41Z</time>
		</trkpt>
		<trkpt lat="54.0721130371094" lon="13.0295429229736">
			<ele>57</ele>
			<time>2014-04-13T10:11:42Z</time>
		</trkpt>
		<trkpt lat="54.0720634460449" lon="13.0296058654785">
			<ele>57</ele>
			<time>2014-04-13T10:11:43Z</time>
		</trkpt>
		<trkpt lat="54.0720138549805" lon="13.0296649932861">
			<ele>57</ele>
			<time>2014-04-13T10:11:44Z</time>
		</trkpt>
		<trkpt lat="54.071964263916" lon="13.029727935791">
			<ele>56.7999992370605</ele>
			<time>2014-04-13T10:11:45Z</time>
		</trkpt>
		<trkpt lat="54.0719146728516" lon="13.02978515625">
			<ele>56.7999992370605</ele>
			<time>2014-04-13T10:11:46Z</time>
		</trkpt>
		<trkpt lat="54.0718612670898" lon="13.0298433303833">
			<ele>56.7999992370605</ele>
			<time>2014-04-13T10:11:47Z</time>
		</trkpt>
		<trkpt lat="54.0718116760254" lon="13.0299024581909">
			<ele>56.7999992370605</ele>
			<time>2014-04-13T10:11:48Z</time>
		</trkpt>
		<trkpt lat="54.0717582702637" lon="13.0299654006958">
			<ele>56.7999992370605</ele>
			<time>2014-04-13T10:11:49Z</time>
		</trkpt>
		<trkpt lat="54.071704864502" lon="13.0300273895264">
			<ele>56.7999992370605</ele>
			<time>2014-04-13T10:11:50Z</time>
		</trkpt>
		<trkpt lat="54.0716552734375" lon="13.0300941467285">
			<ele>56.7000007629395</ele>
			<time>2014-04-13T10:11:51Z</time>
		</trkpt>
		<trkpt lat="54.0716094970703" lon="13.0301561355591">
			<ele>56.5999984741211</ele>
			<time>2014-04-13T10:11:52Z</time>
		</trkpt>
		<trkpt lat="54.0715560913086" lon="13.0302152633667">
			<ele>56.5</ele>
			<time>2014-04-13T10:11:53Z</time>
		</trkpt>
		<trkpt lat="54.0715026855469" lon="13.0302782058716">
			<ele>56.4000015258789</ele>
			<time>2014-04-13T10:11:54Z</time>
		</trkpt>
		<trkpt lat="54.0714492797852" lon="13.0303411483765">
			<ele>56.4000015258789</ele>
			<time>2014-04-13T10:11:55Z</time>
		</trkpt>
		<trkpt lat="54.0713996887207" lon="13.030403137207">
			<ele>56.2999992370605</ele>
			<time>2014-04-13T10:11:56Z</time>
		</trkpt>
		<trkpt lat="54.0713500976563" lon="13.0304641723633">
			<ele>56.0999984741211</ele>
			<time>2014-04-13T10:11:57Z</time>
		</trkpt>
		<trkpt lat="54.0713005065918" lon="13.0305271148682">
			<ele>56.0999984741211</ele>
			<time>2014-04-13T10:11:58Z</time>
		</trkpt>
		<trkpt lat="54.0712509155273" lon="13.0305881500244">
			<ele>55.9000015258789</ele>
			<time>2014-04-13T10:11:59Z</time>
		</trkpt>
		<trkpt lat="54.0712013244629" lon="13.0306453704834">
			<ele>56.0999984741211</ele>
			<time>2014-04-13T10:12:00Z</time>
		</trkpt>
		<trkpt lat="54.0711517333984" lon="13.0306940078735">
			<ele>56</ele>
			<time>2014-04-13T10:12:01Z</time>
		</trkpt>
		<trkpt lat="54.0710906982422" lon="13.0307283401489">
			<ele>56.2000007629395</ele>
			<time>2014-04-13T10:12:02Z</time>
		</trkpt>
		<trkpt lat="54.0710334777832" lon="13.0307540893555">
			<ele>56.2999992370605</ele>
			<time>2014-04-13T10:12:03Z</time>
		</trkpt>
		<trkpt lat="54.070972442627" lon="13.0307836532593">
			<ele>56.2000007629395</ele>
			<time>2014-04-13T10:12:04Z</time>
		</trkpt>
		<trkpt lat="54.070915222168" lon="13.0308113098145">
			<ele>56.2000007629395</ele>
			<time>2014-04-13T10:12:05Z</time>
		</trkpt>
		<trkpt lat="54.070858001709" lon="13.0308389663696">
			<ele>56.2000007629395</ele>
			<time>2014-04-13T10:12:06Z</time>
		</trkpt>
		<trkpt lat="54.07080078125" lon="13.0308666229248">
			<ele>56.4000015258789</ele>
			<time>2014-04-13T10:12:07Z</time>
		</trkpt>
		<trkpt lat="54.0707473754883" lon="13.0308961868286">
			<ele>56.2999992370605</ele>
			<time>2014-04-13T10:12:08Z</time>
		</trkpt>
		<trkpt lat="54.0706901550293" lon="13.0309257507324">
			<ele>56.2999992370605</ele>
			<time>2014-04-13T10:12:09Z</time>
		</trkpt>
		<trkpt lat="54.0706329345703" lon="13.0309591293335">
			<ele>56.2000007629395</ele>
			<time>2014-04-13T10:12:10Z</time>
		</trkpt>
		<trkpt lat="54.0705795288086" lon="13.0309886932373">
			<ele>55.9000015258789</ele>
			<time>2014-04-13T10:12:11Z</time>
		</trkpt>
		<trkpt lat="54.0705184936523" lon="13.0310192108154">
			<ele>56</ele>
			<time>2014-04-13T10:12:12Z</time>
		</trkpt>
		<trkpt lat="54.0704650878906" lon="13.0310478210449">
			<ele>56.0999984741211</ele>
			<time>2014-04-13T10:12:13Z</time>
		</trkpt>
		<trkpt lat="54.0704116821289" lon="13.0310726165771">
			<ele>56</ele>
			<time>2014-04-13T10:12:14Z</time>
		</trkpt>
		<trkpt lat="54.0703582763672" lon="13.0310964584351">
			<ele>56</ele>
			<time>2014-04-13T10:12:15Z</time>
		</trkpt>
		<trkpt lat="54.0703086853027" lon="13.03111743927">
			<ele>55.7000007629395</ele>
			<time>2014-04-13T10:12:16Z</time>
		</trkpt>
		<trkpt lat="54.070255279541" lon="13.0311527252197">
			<ele>55.5999984741211</ele>
			<time>2014-04-13T10:12:17Z</time>
		</trkpt>
		<trkpt lat="54.0702056884766" lon="13.0311832427979">
			<ele>55.5</ele>
			<time>2014-04-13T10:12:18Z</time>
		</trkpt>
		<trkpt lat="54.0701522827148" lon="13.0312166213989">
			<ele>55.7000007629395</ele>
			<time>2014-04-13T10:12:19Z</time>
		</trkpt>
		<trkpt lat="54.0700988769531" lon="13.0312433242798">
			<ele>55.5</ele>
			<time>2014-04-13T10:12:20Z</time>
		</trkpt>
		<trkpt lat="54.0700454711914" lon="13.0312690734863">
			<ele>55.5999984741211</ele>
			<time>2014-04-13T10:12:21Z</time>
		</trkpt>
		<trkpt lat="54.0699920654297" lon="13.0312957763672">
			<ele>55.5</ele>
			<time>2014-04-13T10:12:22Z</time>
		</trkpt>
		<trkpt lat="54.0699424743652" lon="13.0313243865967">
			<ele>55.5999984741211</ele>
			<time>2014-04-13T10:12:23Z</time>
		</trkpt>
		<trkpt lat="54.0698890686035" lon="13.0313577651978">
			<ele>55.7999992370605</ele>
			<time>2014-04-13T10:12:24Z</time>
		</trkpt>
		<trkpt lat="54.0698356628418" lon="13.0313882827759">
			<ele>55.9000015258789</ele>
			<time>2014-04-13T10:12:25Z</time>
		</trkpt>
		<trkpt lat="54.0697822570801" lon="13.0314140319824">
			<ele>56</ele>
			<time>2014-04-13T10:12:26Z</time>
		</trkpt>
		<trkpt lat="54.0697250366211" lon="13.0314426422119">
			<ele>56.2000007629395</ele>
			<time>2014-04-13T10:12:27Z</time>
		</trkpt>
		<trkpt lat="54.0696754455566" lon="13.0314626693726">
			<ele>56.2999992370605</ele>
			<time>2014-04-13T10:12:28Z</time>
		</trkpt>
		<trkpt lat="54.0696258544922" lon="13.0314874649048">
			<ele>56.5</ele>
			<time>2014-04-13T10:12:29Z</time>
		</trkpt>
		<trkpt lat="54.0695762634277" lon="13.031512260437">
			<ele>56.5999984741211</ele>
			<time>2014-04-13T10:12:30Z</time>
		</trkpt>
		<trkpt lat="54.0695266723633" lon="13.0315370559692">
			<ele>56.4000015258789</ele>
			<time>2014-04-13T10:12:31Z</time>
		</trkpt>
		<trkpt lat="54.0694770812988" lon="13.0315570831299">
			<ele>56.4000015258789</ele>
			<time>2014-04-13T10:12:32Z</time>
		</trkpt>
		<trkpt lat="54.0694274902344" lon="13.0315856933594">
			<ele>56.0999984741211</ele>
			<time>2014-04-13T10:12:33Z</time>
		</trkpt>
		<trkpt lat="54.0693817138672" lon="13.0316162109375">
			<ele>56.2000007629395</ele>
			<time>2014-04-13T10:12:34Z</time>
		</trkpt>
		<trkpt lat="54.0693321228027" lon="13.0316457748413">
			<ele>56.2999992370605</ele>
			<time>2014-04-13T10:12:35Z</time>
		</trkpt>
		<trkpt lat="54.0692825317383" lon="13.0316734313965">
			<ele>56.2999992370605</ele>
			<time>2014-04-13T10:12:36Z</time>
		</trkpt>
		<trkpt lat="54.0692367553711" lon="13.031702041626">
			<ele>56.2000007629395</ele>
			<time>2014-04-13T10:12:37Z</time>
		</trkpt>
		<trkpt lat="54.0691909790039" lon="13.0317249298096">
			<ele>56.0999984741211</ele>
			<time>2014-04-13T10:12:38Z</time>
		</trkpt>
		<trkpt lat="54.0691413879395" lon="13.0317497253418">
			<ele>56.0999984741211</ele>
			<time>2014-04-13T10:12:39Z</time>
		</trkpt>
		<trkpt lat="54.069091796875" lon="13.0317707061768">
			<ele>56</ele>
			<time>2014-04-13T10:12:40Z</time>
		</trkpt>
		<trkpt lat="54.0690422058105" lon="13.0317974090576">
			<ele>56</ele>
			<time>2014-04-13T10:12:41Z</time>
		</trkpt>
		<trkpt lat="54.0689964294434" lon="13.0318231582642">
			<ele>56</ele>
			<time>2014-04-13T10:12:42Z</time>
		</trkpt>
		<trkpt lat="54.0689468383789" lon="13.0318517684937">
			<ele>56.2000007629395</ele>
			<time>2014-04-13T10:12:43Z</time>
		</trkpt>
		<trkpt lat="54.0689010620117" lon="13.0318775177002">
			<ele>56.2000007629395</ele>
			<time>2014-04-13T10:12:44Z</time>
		</trkpt>
		<trkpt lat="54.06884765625" lon="13.0319080352783">
			<ele>55.9000015258789</ele>
			<time>2014-04-13T10:12:45Z</time>
		</trkpt>
		<trkpt lat="54.0687942504883" lon="13.0319271087646">
			<ele>55.9000015258789</ele>
			<time>2014-04-13T10:12:46Z</time>
		</trkpt>
		<trkpt lat="54.0687446594238" lon="13.0319509506226">
			<ele>55.7999992370605</ele>
			<time>2014-04-13T10:12:47Z</time>
		</trkpt>
		<trkpt lat="54.0686912536621" lon="13.0319795608521">
			<ele>55.7999992370605</ele>
			<time>2014-04-13T10:12:48Z</time>
		</trkpt>
		<trkpt lat="54.0686378479004" lon="13.0320091247559">
			<ele>56</ele>
			<time>2014-04-13T10:12:49Z</time>
		</trkpt>
		<trkpt lat="54.0685882568359" lon="13.032039642334">
			<ele>56</ele>
			<time>2014-04-13T10:12:50Z</time>
		</trkpt>
		<trkpt lat="54.0685348510742" lon="13.0320720672607">
			<ele>56.0999984741211</ele>
			<time>2014-04-13T10:12:51Z</time>
		</trkpt>
		<trkpt lat="54.0684814453125" lon="13.0321092605591">
			<ele>56</ele>
			<time>2014-04-13T10:12:52Z</time>
		</trkpt>
		<trkpt lat="54.068431854248" lon="13.0321455001831">
			<ele>55.7999992370605</ele>
			<time>2014-04-13T10:12:53Z</time>
		</trkpt>
		<trkpt lat="54.0683784484863" lon="13.0321865081787">
			<ele>56</ele>
			<time>2014-04-13T10:12:54Z</time>
		</trkpt>
		<trkpt lat="54.0683250427246" lon="13.0322322845459">
			<ele>56</ele>
			<time>2014-04-13T10:12:55Z</time>
		</trkpt>
		<trkpt lat="54.0682754516602" lon="13.032280921936">
			<ele>56</ele>
			<time>2014-04-13T10:12:56Z</time>
		</trkpt>
		<trkpt lat="54.0682258605957" lon="13.0323238372803">
			<ele>55.9000015258789</ele>
			<time>2014-04-13T10:12:57Z</time>
		</trkpt>
		<trkpt lat="54.068172454834" lon="13.0323705673218">
			<ele>55.7000007629395</ele>
			<time>2014-04-13T10:12:58Z</time>
		</trkpt>
		<trkpt lat="54.0681228637695" lon="13.0324172973633">
			<ele>55.5</ele>
			<time>2014-04-13T10:12:59Z</time>
		</trkpt>
		<trkpt lat="54.0680732727051" lon="13.0324687957764">
			<ele>55.4000015258789</ele>
			<time>2014-04-13T10:13:00Z</time>
		</trkpt>
		<trkpt lat="54.0680198669434" lon="13.0325164794922">
			<ele>55.4000015258789</ele>
			<time>2014-04-13T10:13:01Z</time>
		</trkpt>
		<trkpt lat="54.0679702758789" lon="13.0325632095337">
			<ele>55.0999984741211</ele>
			<time>2014-04-13T10:13:02Z</time>
		</trkpt>
		<trkpt lat="54.0679206848145" lon="13.0326128005981">
			<ele>55.0999984741211</ele>
			<time>2014-04-13T10:13:03Z</time>
		</trkpt>
		<trkpt lat="54.06787109375" lon="13.0326585769653">
			<ele>55.0999984741211</ele>
			<time>2014-04-13T10:13:04Z</time>
		</trkpt>
		<trkpt lat="54.0678176879883" lon="13.0327053070068">
			<ele>55.2000007629395</ele>
			<time>2014-04-13T10:13:05Z</time>
		</trkpt>
		<trkpt lat="54.0677680969238" lon="13.0327482223511">
			<ele>55.4000015258789</ele>
			<time>2014-04-13T10:13:06Z</time>
		</trkpt>
		<trkpt lat="54.0677146911621" lon="13.032790184021">
			<ele>55.4000015258789</ele>
			<time>2014-04-13T10:13:07Z</time>
		</trkpt>
		<trkpt lat="54.0676651000977" lon="13.0328302383423">
			<ele>55.4000015258789</ele>
			<time>2014-04-13T10:13:08Z</time>
		</trkpt>
		<trkpt lat="54.0676193237305" lon="13.0328760147095">
			<ele>55.4000015258789</ele>
			<time>2014-04-13T10:13:09Z</time>
		</trkpt>
		<trkpt lat="54.0675659179688" lon="13.0329160690308">
			<ele>55.2999992370605</ele>
			<time>2014-04-13T10:13:10Z</time>
		</trkpt>
		<trkpt lat="54.0675201416016" lon="13.0329551696777">
			<ele>55.2000007629395</ele>
			<time>2014-04-13T10:13:11Z</time>
		</trkpt>
		<trkpt lat="54.0674667358398" lon="13.0329933166504">
			<ele>55</ele>
			<time>2014-04-13T10:13:12Z</time>
		</trkpt>
		<trkpt lat="54.0674171447754" lon="13.0330381393433">
			<ele>55.0999984741211</ele>
			<time>2014-04-13T10:13:13Z</time>
		</trkpt>
		<trkpt lat="54.0673637390137" lon="13.0330772399902">
			<ele>55.2000007629395</ele>
			<time>2014-04-13T10:13:14Z</time>
		</trkpt>
		<trkpt lat="54.0673141479492" lon="13.0331163406372">
			<ele>55.0999984741211</ele>
			<time>2014-04-13T10:13:15Z</time>
		</trkpt>
		<trkpt lat="54.0672645568848" lon="13.0331621170044">
			<ele>55</ele>
			<time>2014-04-13T10:13:16Z</time>
		</trkpt>
		<trkpt lat="54.0672149658203" lon="13.0332002639771">
			<ele>54.9000015258789</ele>
			<time>2014-04-13T10:13:17Z</time>
		</trkpt>
		<trkpt lat="54.0671577453613" lon="13.0332307815552">
			<ele>55</ele>
			<time>2014-04-13T10:13:18Z</time>
		</trkpt>
		<trkpt lat="54.0671081542969" lon="13.0332641601563">
			<ele>55.2000007629395</ele>
			<time>2014-04-13T10:13:19Z</time>
		</trkpt>
		<trkpt lat="54.0670547485352" lon="13.0333023071289">
			<ele>55.5</ele>
			<time>2014-04-13T10:13:20Z</time>
		</trkpt>
		<trkpt lat="54.0670051574707" lon="13.0333442687988">
			<ele>55.7999992370605</ele>
			<time>2014-04-13T10:13:21Z</time>
		</trkpt>
		<trkpt lat="54.0669555664063" lon="13.0333824157715">
			<ele>55.9000015258789</ele>
			<time>2014-04-13T10:13:22Z</time>
		</trkpt>
		<trkpt lat="54.0669021606445" lon="13.0334024429321">
			<ele>55.9000015258789</ele>
			<time>2014-04-13T10:13:23Z</time>
		</trkpt>
		<trkpt lat="54.0668487548828" lon="13.0334377288818">
			<ele>56.0999984741211</ele>
			<time>2014-04-13T10:13:24Z</time>
		</trkpt>
		<trkpt lat="54.0667953491211" lon="13.0334749221802">
			<ele>56.4000015258789</ele>
			<time>2014-04-13T10:13:25Z</time>
		</trkpt>
		<trkpt lat="54.0667419433594" lon="13.0335130691528">
			<ele>56.4000015258789</ele>
			<time>2014-04-13T10:13:26Z</time>
		</trkpt>
		<trkpt lat="54.0666923522949" lon="13.0335474014282">
			<ele>56.5999984741211</ele>
			<time>2014-04-13T10:13:27Z</time>
		</trkpt>
		<trkpt lat="54.0666389465332" lon="13.0335817337036">
			<ele>56.7000007629395</ele>
			<time>2014-04-13T10:13:28Z</time>
		</trkpt>
		<trkpt lat="54.066593170166" lon="13.0336132049561">
			<ele>56.9000015258789</ele>
			<time>2014-04-13T10:13:29Z</time>
		</trkpt>
		<trkpt lat="54.0665435791016" lon="13.0336465835571">
			<ele>56.7000007629395</ele>
			<time>2014-04-13T10:13:30Z</time>
		</trkpt>
		<trkpt lat="54.0664939880371" lon="13.0336780548096">
			<ele>56.5999984741211</ele>
			<time>2014-04-13T10:13:31Z</time>
		</trkpt>
		<trkpt lat="54.0664482116699" lon="13.0337085723877">
			<ele>56.5999984741211</ele>
			<time>2014-04-13T10:13:32Z</time>
		</trkpt>
		<trkpt lat="54.0663986206055" lon="13.0337419509888">
			<ele>56.7000007629395</ele>
			<time>2014-04-13T10:13:33Z</time>
		</trkpt>
		<trkpt lat="54.066349029541" lon="13.0337686538696">
			<ele>57.2000007629395</ele>
			<time>2014-04-13T10:13:34Z</time>
		</trkpt>
		<trkpt lat="54.0663032531738" lon="13.0338010787964">
			<ele>57.2999992370605</ele>
			<time>2014-04-13T10:13:35Z</time>
		</trkpt>
		<trkpt lat="54.0662574768066" lon="13.0338382720947">
			<ele>57.2999992370605</ele>
			<time>2014-04-13T10:13:36Z</time>
		</trkpt>
		<trkpt lat="54.0662117004395" lon="13.0338773727417">
			<ele>57.2000007629395</ele>
			<time>2014-04-13T10:13:37Z</time>
		</trkpt>
		<trkpt lat="54.066162109375" lon="13.0339097976685">
			<ele>57.2999992370605</ele>
			<time>2014-04-13T10:13:38Z</time>
		</trkpt>
		<trkpt lat="54.0661201477051" lon="13.0339584350586">
			<ele>57.5</ele>
			<time>2014-04-13T10:13:39Z</time>
		</trkpt>
		<trkpt lat="54.0660743713379" lon="13.0340137481689">
			<ele>57.2999992370605</ele>
			<time>2014-04-13T10:13:40Z</time>
		</trkpt>
		<trkpt lat="54.066032409668" lon="13.0340662002563">
			<ele>57.2999992370605</ele>
			<time>2014-04-13T10:13:41Z</time>
		</trkpt>
		<trkpt lat="54.0659942626953" lon="13.0341310501099">
			<ele>57.0999984741211</ele>
			<time>2014-04-13T10:13:42Z</time>
		</trkpt>
		<trkpt lat="54.0659599304199" lon="13.0341930389404">
			<ele>57</ele>
			<time>2014-04-13T10:13:43Z</time>
		</trkpt>
		<trkpt lat="54.0659255981445" lon="13.0342693328857">
			<ele>56.9000015258789</ele>
			<time>2014-04-13T10:13:44Z</time>
		</trkpt>
		<trkpt lat="54.0658988952637" lon="13.0343418121338">
			<ele>56.7999992370605</ele>
			<time>2014-04-13T10:13:45Z</time>
		</trkpt>
		<trkpt lat="54.0658760070801" lon="13.0344247817993">
			<ele>57</ele>
			<time>2014-04-13T10:13:46Z</time>
		</trkpt>
		<trkpt lat="54.0658493041992" lon="13.0345020294189">
			<ele>56.5</ele>
			<time>2014-04-13T10:13:47Z</time>
		</trkpt>
		<trkpt lat="54.0658226013184" lon="13.0345935821533">
			<ele>56.5</ele>
			<time>2014-04-13T10:13:48Z</time>
		</trkpt>
		<trkpt lat="54.0657958984375" lon="13.0346736907959">
			<ele>56.5</ele>
			<time>2014-04-13T10:13:49Z</time>
		</trkpt>
		<trkpt lat="54.0657730102539" lon="13.034761428833">
			<ele>56.4000015258789</ele>
			<time>2014-04-13T10:13:50Z</time>
		</trkpt>
		<trkpt lat="54.065746307373" lon="13.0348453521729">
			<ele>56.5999984741211</ele>
			<time>2014-04-13T10:13:51Z</time>
		</trkpt>
		<trkpt lat="54.0657234191895" lon="13.034930229187">
			<ele>56.5999984741211</ele>
			<time>2014-04-13T10:13:52Z</time>
		</trkpt>
		<trkpt lat="54.0656929016113" lon="13.0350160598755">
			<ele>56.7000007629395</ele>
			<time>2014-04-13T10:13:53Z</time>
		</trkpt>
		<trkpt lat="54.0656661987305" lon="13.0351076126099">
			<ele>56.7000007629395</ele>
			<time>2014-04-13T10:13:54Z</time>
		</trkpt>
		<trkpt lat="54.0656394958496" lon="13.035192489624">
			<ele>56.5</ele>
			<time>2014-04-13T10:13:55Z</time>
		</trkpt>
		<trkpt lat="54.0656204223633" lon="13.0352697372437">
			<ele>56.5</ele>
			<time>2014-04-13T10:13:56Z</time>
		</trkpt>
		<trkpt lat="54.0655784606934" lon="13.035361289978">
			<ele>56.7999992370605</ele>
			<time>2014-04-13T10:13:57Z</time>
		</trkpt>
		<trkpt lat="54.0655403137207" lon="13.0354461669922">
			<ele>56.9000015258789</ele>
			<time>2014-04-13T10:13:58Z</time>
		</trkpt>
		<trkpt lat="54.065486907959" lon="13.0355243682861">
			<ele>56.7000007629395</ele>
			<time>2014-04-13T10:13:59Z</time>
		</trkpt>
		<trkpt lat="54.0654449462891" lon="13.0355834960938">
			<ele>56.4000015258789</ele>
			<time>2014-04-13T10:14:00Z</time>
		</trkpt>
		<trkpt lat="54.0654029846191" lon="13.0356369018555">
			<ele>55.7999992370605</ele>
			<time>2014-04-13T10:14:01Z</time>
		</trkpt>
		<trkpt lat="54.0653495788574" lon="13.0356683731079">
			<ele>55.5999984741211</ele>
			<time>2014-04-13T10:14:02Z</time>
		</trkpt>
		<trkpt lat="54.065299987793" lon="13.0356922149658">
			<ele>55.7999992370605</ele>
			<time>2014-04-13T10:14:03Z</time>
		</trkpt>
		<trkpt lat="54.065242767334" lon="13.0357084274292">
			<ele>55.9000015258789</ele>
			<time>2014-04-13T10:14:04Z</time>
		</trkpt>
		<trkpt lat="54.065185546875" lon="13.0357284545898">
			<ele>56.2000007629395</ele>
			<time>2014-04-13T10:14:05Z</time>
		</trkpt>
		<trkpt lat="54.065128326416" lon="13.0357456207275">
			<ele>56.2000007629395</ele>
			<time>2014-04-13T10:14:06Z</time>
		</trkpt>
		<trkpt lat="54.0650787353516" lon="13.0357723236084">
			<ele>56</ele>
			<time>2014-04-13T10:14:07Z</time>
		</trkpt>
		<trkpt lat="54.0650253295898" lon="13.035792350769">
			<ele>56.0999984741211</ele>
			<time>2014-04-13T10:14:08Z</time>
		</trkpt>
		<trkpt lat="54.0649757385254" lon="13.0358200073242">
			<ele>56.2999992370605</ele>
			<time>2014-04-13T10:14:09Z</time>
		</trkpt>
		<trkpt lat="54.0649223327637" lon="13.0358352661133">
			<ele>56.7000007629395</ele>
			<time>2014-04-13T10:14:10Z</time>
		</trkpt>
		<trkpt lat="54.0648727416992" lon="13.0358581542969">
			<ele>56.7999992370605</ele>
			<time>2014-04-13T10:14:14Z</time>
		</trkpt>
		<trkpt lat="54.0647239685059" lon="13.0359182357788">
			<ele>57.5</ele>
			<time>2014-04-13T10:14:15Z</time>
		</trkpt>
		<trkpt lat="54.0646743774414" lon="13.0359401702881">
			<ele>57.7000007629395</ele>
			<time>2014-04-13T10:14:16Z</time>
		</trkpt>
		<trkpt lat="54.0646286010742" lon="13.0359601974487">
			<ele>57.9000015258789</ele>
			<time>2014-04-13T10:14:17Z</time>
		</trkpt>
		<trkpt lat="54.064582824707" lon="13.0359792709351">
			<ele>58.2000007629395</ele>
			<time>2014-04-13T10:14:18Z</time>
		</trkpt>
		<trkpt lat="54.0645370483398" lon="13.0359926223755">
			<ele>58</ele>
			<time>2014-04-13T10:14:19Z</time>
		</trkpt>
		<trkpt lat="54.0644226074219" lon="13.0360651016235">
			<ele>58.9000015258789</ele>
			<time>2014-04-13T10:14:22Z</time>
		</trkpt>
		<trkpt lat="54.0643348693848" lon="13.0361843109131">
			<ele>59.5</ele>
			<time>2014-04-13T10:14:27Z</time>
		</trkpt>
		<trkpt lat="54.0643005371094" lon="13.0363607406616">
			<ele>60.2999992370605</ele>
			<time>2014-04-13T10:14:28Z</time>
		</trkpt>
		<trkpt lat="54.0642929077148" lon="13.0365047454834">
			<ele>59.7999992370605</ele>
			<time>2014-04-13T10:14:29Z</time>
		</trkpt>
		<trkpt lat="54.0642738342285" lon="13.0366506576538">
			<ele>59.9000015258789</ele>
			<time>2014-04-13T10:14:31Z</time>
		</trkpt>
		<trkpt lat="54.064266204834" lon="13.0367336273193">
			<ele>59.7000007629395</ele>
			<time>2014-04-13T10:14:32Z</time>
		</trkpt>
		<trkpt lat="54.0642623901367" lon="13.0368766784668">
			<ele>60.0999984741211</ele>
			<time>2014-04-13T10:14:34Z</time>
		</trkpt>
		<trkpt lat="54.0642509460449" lon="13.0370225906372">
			<ele>59.9000015258789</ele>
			<time>2014-04-13T10:14:36Z</time>
		</trkpt>
		<trkpt lat="54.0642471313477" lon="13.0371007919312">
			<ele>60</ele>
			<time>2014-04-13T10:14:37Z</time>
		</trkpt>
		<trkpt lat="54.0642356872559" lon="13.0372514724731">
			<ele>59.5999984741211</ele>
			<time>2014-04-13T10:14:39Z</time>
		</trkpt>
		<trkpt lat="54.0642318725586" lon="13.0373296737671">
			<ele>59.5</ele>
			<time>2014-04-13T10:14:40Z</time>
		</trkpt>
		<trkpt lat="54.0642318725586" lon="13.0374059677124">
			<ele>59.5</ele>
			<time>2014-04-13T10:14:41Z</time>
		</trkpt>
		<trkpt lat="54.0642242431641" lon="13.0375461578369">
			<ele>59.9000015258789</ele>
			<time>2014-04-13T10:14:43Z</time>
		</trkpt>
		<trkpt lat="54.0642127990723" lon="13.0376958847046">
			<ele>60.2999992370605</ele>
			<time>2014-04-13T10:14:45Z</time>
		</trkpt>
		<trkpt lat="54.0642051696777" lon="13.0377712249756">
			<ele>60.5</ele>
			<time>2014-04-13T10:14:46Z</time>
		</trkpt>
		<trkpt lat="54.0642013549805" lon="13.0378522872925">
			<ele>60.2999992370605</ele>
			<time>2014-04-13T10:14:47Z</time>
		</trkpt>
		<trkpt lat="54.0641899108887" lon="13.0379409790039">
			<ele>60.4000015258789</ele>
			<time>2014-04-13T10:14:48Z</time>
		</trkpt>
		<trkpt lat="54.0641937255859" lon="13.0380229949951">
			<ele>60.0999984741211</ele>
			<time>2014-04-13T10:14:49Z</time>
		</trkpt>
		<trkpt lat="54.0641899108887" lon="13.0381031036377">
			<ele>59.5</ele>
			<time>2014-04-13T10:14:50Z</time>
		</trkpt>
		<trkpt lat="54.0641860961914" lon="13.0382041931152">
			<ele>59.4000015258789</ele>
			<time>2014-04-13T10:14:51Z</time>
		</trkpt>
		<trkpt lat="54.0641746520996" lon="13.0382995605469">
			<ele>59.2000007629395</ele>
			<time>2014-04-13T10:14:52Z</time>
		</trkpt>
		<trkpt lat="54.0641784667969" lon="13.0383853912354">
			<ele>59.2999992370605</ele>
			<time>2014-04-13T10:14:53Z</time>
		</trkpt>
		<trkpt lat="54.0641746520996" lon="13.0384740829468">
			<ele>59.5</ele>
			<time>2014-04-13T10:14:54Z</time>
		</trkpt>
		<trkpt lat="54.0641708374023" lon="13.0385675430298">
			<ele>59.7000007629395</ele>
			<time>2014-04-13T10:14:55Z</time>
		</trkpt>
		<trkpt lat="54.0641670227051" lon="13.0386552810669">
			<ele>59.7000007629395</ele>
			<time>2014-04-13T10:14:56Z</time>
		</trkpt>
		<trkpt lat="54.0641593933105" lon="13.0387468338013">
			<ele>59.4000015258789</ele>
			<time>2014-04-13T10:14:57Z</time>
		</trkpt>
		<trkpt lat="54.0641593933105" lon="13.03883934021">
			<ele>59.4000015258789</ele>
			<time>2014-04-13T10:14:58Z</time>
		</trkpt>
		<trkpt lat="54.064151763916" lon="13.03892993927">
			<ele>59.4000015258789</ele>
			<time>2014-04-13T10:14:59Z</time>
		</trkpt>
		<trkpt lat="54.0641479492188" lon="13.0390253067017">
			<ele>59.0999984741211</ele>
			<time>2014-04-13T10:15:00Z</time>
		</trkpt>
		<trkpt lat="54.0641441345215" lon="13.0391139984131">
			<ele>59.2000007629395</ele>
			<time>2014-04-13T10:15:01Z</time>
		</trkpt>
		<trkpt lat="54.064136505127" lon="13.0392065048218">
			<ele>59</ele>
			<time>2014-04-13T10:15:02Z</time>
		</trkpt>
		<trkpt lat="54.0641326904297" lon="13.0392980575562">
			<ele>58.9000015258789</ele>
			<time>2014-04-13T10:15:03Z</time>
		</trkpt>
		<trkpt lat="54.0641288757324" lon="13.0393886566162">
			<ele>59</ele>
			<time>2014-04-13T10:15:04Z</time>
		</trkpt>
		<trkpt lat="54.0641288757324" lon="13.0394802093506">
			<ele>59</ele>
			<time>2014-04-13T10:15:05Z</time>
		</trkpt>
		<trkpt lat="54.0641250610352" lon="13.0395793914795">
			<ele>59.0999984741211</ele>
			<time>2014-04-13T10:15:06Z</time>
		</trkpt>
		<trkpt lat="54.0641174316406" lon="13.0396795272827">
			<ele>59</ele>
			<time>2014-04-13T10:15:07Z</time>
		</trkpt>
		<trkpt lat="54.0641098022461" lon="13.0397787094116">
			<ele>59.2000007629395</ele>
			<time>2014-04-13T10:15:08Z</time>
		</trkpt>
		<trkpt lat="54.0641021728516" lon="13.039870262146">
			<ele>59.4000015258789</ele>
			<time>2014-04-13T10:15:09Z</time>
		</trkpt>
		<trkpt lat="54.0640907287598" lon="13.0399808883667">
			<ele>60.4000015258789</ele>
			<time>2014-04-13T10:15:10Z</time>
		</trkpt>
		<trkpt lat="54.0640869140625" lon="13.0400772094727">
			<ele>60.2000007629395</ele>
			<time>2014-04-13T10:15:11Z</time>
		</trkpt>
		<trkpt lat="54.064079284668" lon="13.0401782989502">
			<ele>60.2999992370605</ele>
			<time>2014-04-13T10:15:12Z</time>
		</trkpt>
		<trkpt lat="54.0640754699707" lon="13.0402755737305">
			<ele>60.4000015258789</ele>
			<time>2014-04-13T10:15:13Z</time>
		</trkpt>
		<trkpt lat="54.0640716552734" lon="13.0403728485107">
			<ele>60.5</ele>
			<time>2014-04-13T10:15:14Z</time>
		</trkpt>
		<trkpt lat="54.0640716552734" lon="13.040470123291">
			<ele>60.4000015258789</ele>
			<time>2014-04-13T10:15:15Z</time>
		</trkpt>
		<trkpt lat="54.0640640258789" lon="13.0405721664429">
			<ele>60.2999992370605</ele>
			<time>2014-04-13T10:15:16Z</time>
		</trkpt>
		<trkpt lat="54.0640602111816" lon="13.0406723022461">
			<ele>60.2000007629395</ele>
			<time>2014-04-13T10:15:17Z</time>
		</trkpt>
		<trkpt lat="54.0640602111816" lon="13.0407743453979">
			<ele>60.2999992370605</ele>
			<time>2014-04-13T10:15:18Z</time>
		</trkpt>
		<trkpt lat="54.0640563964844" lon="13.0408735275269">
			<ele>60.0999984741211</ele>
			<time>2014-04-13T10:15:19Z</time>
		</trkpt>
		<trkpt lat="54.0640525817871" lon="13.0409736633301">
			<ele>60</ele>
			<time>2014-04-13T10:15:20Z</time>
		</trkpt>
		<trkpt lat="54.0640449523926" lon="13.0410766601563">
			<ele>59.7999992370605</ele>
			<time>2014-04-13T10:15:21Z</time>
		</trkpt>
		<trkpt lat="54.0640411376953" lon="13.0411758422852">
			<ele>59.7000007629395</ele>
			<time>2014-04-13T10:15:22Z</time>
		</trkpt>
		<trkpt lat="54.064037322998" lon="13.0412788391113">
			<ele>59.5999984741211</ele>
			<time>2014-04-13T10:15:23Z</time>
		</trkpt>
		<trkpt lat="54.0640296936035" lon="13.0413799285889">
			<ele>59.7000007629395</ele>
			<time>2014-04-13T10:15:24Z</time>
		</trkpt>
		<trkpt lat="54.064022064209" lon="13.0414781570435">
			<ele>59.4000015258789</ele>
			<time>2014-04-13T10:15:25Z</time>
		</trkpt>
		<trkpt lat="54.0640182495117" lon="13.0415744781494">
			<ele>59.2000007629395</ele>
			<time>2014-04-13T10:15:26Z</time>
		</trkpt>
		<trkpt lat="54.0640029907227" lon="13.0416679382324">
			<ele>59.4000015258789</ele>
			<time>2014-04-13T10:15:27Z</time>
		</trkpt>
		<trkpt lat="54.0639724731445" lon="13.0417537689209">
			<ele>59.2000007629395</ele>
			<time>2014-04-13T10:15:28Z</time>
		</trkpt>
		<trkpt lat="54.0639266967773" lon="13.0418109893799">
			<ele>59.2999992370605</ele>
			<time>2014-04-13T10:15:29Z</time>
		</trkpt>
		<trkpt lat="54.0638694763184" lon="13.0418338775635">
			<ele>59.4000015258789</ele>
			<time>2014-04-13T10:15:30Z</time>
		</trkpt>
		<trkpt lat="54.0638122558594" lon="13.0418472290039">
			<ele>59.5</ele>
			<time>2014-04-13T10:15:31Z</time>
		</trkpt>
		<trkpt lat="54.0637550354004" lon="13.0418405532837">
			<ele>59.2999992370605</ele>
			<time>2014-04-13T10:15:32Z</time>
		</trkpt>
		<trkpt lat="54.0636978149414" lon="13.0418367385864">
			<ele>59.4000015258789</ele>
			<time>2014-04-13T10:15:33Z</time>
		</trkpt>
		<trkpt lat="54.0636367797852" lon="13.0418386459351">
			<ele>59.7000007629395</ele>
			<time>2014-04-13T10:15:34Z</time>
		</trkpt>
		<trkpt lat="54.0635757446289" lon="13.0418424606323">
			<ele>59.5999984741211</ele>
			<time>2014-04-13T10:15:35Z</time>
		</trkpt>
		<trkpt lat="54.0635185241699" lon="13.0418472290039">
			<ele>59.5</ele>
			<time>2014-04-13T10:15:36Z</time>
		</trkpt>
		<trkpt lat="54.0634613037109" lon="13.0418500900269">
			<ele>59.4000015258789</ele>
			<time>2014-04-13T10:15:37Z</time>
		</trkpt>
		<trkpt lat="54.063404083252" lon="13.0418500900269">
			<ele>59.4000015258789</ele>
			<time>2014-04-13T10:15:38Z</time>
		</trkpt>
		<trkpt lat="54.0633430480957" lon="13.0418567657471">
			<ele>59.7000007629395</ele>
			<time>2014-04-13T10:15:39Z</time>
		</trkpt>
		<trkpt lat="54.0632820129395" lon="13.041862487793">
			<ele>59.7999992370605</ele>
			<time>2014-04-13T10:15:40Z</time>
		</trkpt>
		<trkpt lat="54.0632286071777" lon="13.0418672561646">
			<ele>59.9000015258789</ele>
			<time>2014-04-13T10:15:41Z</time>
		</trkpt>
		<trkpt lat="54.0631675720215" lon="13.0418825149536">
			<ele>60.2000007629395</ele>
			<time>2014-04-13T10:15:42Z</time>
		</trkpt>
		<trkpt lat="54.0631065368652" lon="13.0418891906738">
			<ele>60.2000007629395</ele>
			<time>2014-04-13T10:15:43Z</time>
		</trkpt>
		<trkpt lat="54.063045501709" lon="13.0418996810913">
			<ele>60.0999984741211</ele>
			<time>2014-04-13T10:15:44Z</time>
		</trkpt>
		<trkpt lat="54.06298828125" lon="13.0419025421143">
			<ele>60.2000007629395</ele>
			<time>2014-04-13T10:15:45Z</time>
		</trkpt>
		<trkpt lat="54.0629272460938" lon="13.0419120788574">
			<ele>60.2999992370605</ele>
			<time>2014-04-13T10:15:46Z</time>
		</trkpt>
		<trkpt lat="54.0628700256348" lon="13.0419244766235">
			<ele>60.4000015258789</ele>
			<time>2014-04-13T10:15:47Z</time>
		</trkpt>
		<trkpt lat="54.0628128051758" lon="13.0419359207153">
			<ele>60.7000007629395</ele>
			<time>2014-04-13T10:15:48Z</time>
		</trkpt>
		<trkpt lat="54.0627593994141" lon="13.0419483184814">
			<ele>60.9000015258789</ele>
			<time>2014-04-13T10:15:49Z</time>
		</trkpt>
		<trkpt lat="54.0627021789551" lon="13.0419635772705">
			<ele>60.7000007629395</ele>
			<time>2014-04-13T10:15:50Z</time>
		</trkpt>
		<trkpt lat="54.0626487731934" lon="13.0419721603394">
			<ele>60.5</ele>
			<time>2014-04-13T10:15:51Z</time>
		</trkpt>
		<trkpt lat="54.0625915527344" lon="13.0419855117798">
			<ele>60.4000015258789</ele>
			<time>2014-04-13T10:15:52Z</time>
		</trkpt>
		<trkpt lat="54.0625343322754" lon="13.0420007705688">
			<ele>60.5</ele>
			<time>2014-04-13T10:15:53Z</time>
		</trkpt>
		<trkpt lat="54.0624771118164" lon="13.0420160293579">
			<ele>60.2999992370605</ele>
			<time>2014-04-13T10:15:54Z</time>
		</trkpt>
		<trkpt lat="54.0624198913574" lon="13.0420322418213">
			<ele>60.2999992370605</ele>
			<time>2014-04-13T10:15:55Z</time>
		</trkpt>
		<trkpt lat="54.0623664855957" lon="13.0420455932617">
			<ele>60.4000015258789</ele>
			<time>2014-04-13T10:15:56Z</time>
		</trkpt>
		<trkpt lat="54.0623092651367" lon="13.0420560836792">
			<ele>60.5</ele>
			<time>2014-04-13T10:15:57Z</time>
		</trkpt>
		<trkpt lat="54.0622520446777" lon="13.0420703887939">
			<ele>60.5</ele>
			<time>2014-04-13T10:15:58Z</time>
		</trkpt>
		<trkpt lat="54.0621948242188" lon="13.0420894622803">
			<ele>60.4000015258789</ele>
			<time>2014-04-13T10:15:59Z</time>
		</trkpt>
		<trkpt lat="54.062141418457" lon="13.0421056747437">
			<ele>60.2999992370605</ele>
			<time>2014-04-13T10:16:00Z</time>
		</trkpt>
		<trkpt lat="54.062084197998" lon="13.0421199798584">
			<ele>60.2000007629395</ele>
			<time>2014-04-13T10:16:01Z</time>
		</trkpt>
		<trkpt lat="54.0620231628418" lon="13.0421342849731">
			<ele>60.2000007629395</ele>
			<time>2014-04-13T10:16:02Z</time>
		</trkpt>
		<trkpt lat="54.0619697570801" lon="13.0421524047852">
			<ele>60.0999984741211</ele>
			<time>2014-04-13T10:16:03Z</time>
		</trkpt>
		<trkpt lat="54.0619125366211" lon="13.0421667098999">
			<ele>60</ele>
			<time>2014-04-13T10:16:04Z</time>
		</trkpt>
		<trkpt lat="54.0618591308594" lon="13.0421848297119">
			<ele>59.9000015258789</ele>
			<time>2014-04-13T10:16:05Z</time>
		</trkpt>
		<trkpt lat="54.0618057250977" lon="13.042200088501">
			<ele>60</ele>
			<time>2014-04-13T10:16:06Z</time>
		</trkpt>
		<trkpt lat="54.0617523193359" lon="13.0422172546387">
			<ele>60</ele>
			<time>2014-04-13T10:16:07Z</time>
		</trkpt>
		<trkpt lat="54.061695098877" lon="13.0422334671021">
			<ele>60</ele>
			<time>2014-04-13T10:16:08Z</time>
		</trkpt>
		<trkpt lat="54.0616416931152" lon="13.0422534942627">
			<ele>59.9000015258789</ele>
			<time>2014-04-13T10:16:09Z</time>
		</trkpt>
		<trkpt lat="54.0615844726563" lon="13.0422687530518">
			<ele>59.7000007629395</ele>
			<time>2014-04-13T10:16:10Z</time>
		</trkpt>
		<trkpt lat="54.0615310668945" lon="13.0422849655151">
			<ele>59.7000007629395</ele>
			<time>2014-04-13T10:16:11Z</time>
		</trkpt>
		<trkpt lat="54.0614738464355" lon="13.0423030853271">
			<ele>59.7000007629395</ele>
			<time>2014-04-13T10:16:12Z</time>
		</trkpt>
		<trkpt lat="54.0614166259766" lon="13.0423221588135">
			<ele>60</ele>
			<time>2014-04-13T10:16:13Z</time>
		</trkpt>
		<trkpt lat="54.0613594055176" lon="13.0423421859741">
			<ele>59.9000015258789</ele>
			<time>2014-04-13T10:16:14Z</time>
		</trkpt>
		<trkpt lat="54.0613059997559" lon="13.0423650741577">
			<ele>60</ele>
			<time>2014-04-13T10:16:15Z</time>
		</trkpt>
		<trkpt lat="54.0612487792969" lon="13.0423879623413">
			<ele>59.9000015258789</ele>
			<time>2014-04-13T10:16:16Z</time>
		</trkpt>
		<trkpt lat="54.0611915588379" lon="13.0424070358276">
			<ele>59.7999992370605</ele>
			<time>2014-04-13T10:16:17Z</time>
		</trkpt>
		<trkpt lat="54.0611343383789" lon="13.0424308776855">
			<ele>59.7999992370605</ele>
			<time>2014-04-13T10:16:18Z</time>
		</trkpt>
		<trkpt lat="54.0610809326172" lon="13.0424537658691">
			<ele>59.7999992370605</ele>
			<time>2014-04-13T10:16:19Z</time>
		</trkpt>
		<trkpt lat="54.0610237121582" lon="13.0424766540527">
			<ele>59.7000007629395</ele>
			<time>2014-04-13T10:16:20Z</time>
		</trkpt>
		<trkpt lat="54.0609703063965" lon="13.0424976348877">
			<ele>59.7999992370605</ele>
			<time>2014-04-13T10:16:21Z</time>
		</trkpt>
		<trkpt lat="54.0609130859375" lon="13.042519569397">
			<ele>59.5999984741211</ele>
			<time>2014-04-13T10:16:22Z</time>
		</trkpt>
		<trkpt lat="54.0608596801758" lon="13.0425434112549">
			<ele>59.5999984741211</ele>
			<time>2014-04-13T10:16:23Z</time>
		</trkpt>
		<trkpt lat="54.0608024597168" lon="13.0425748825073">
			<ele>59.4000015258789</ele>
			<time>2014-04-13T10:16:24Z</time>
		</trkpt>
		<trkpt lat="54.0607490539551" lon="13.0425968170166">
			<ele>59.4000015258789</ele>
			<time>2014-04-13T10:16:25Z</time>
		</trkpt>
		<trkpt lat="54.0606956481934" lon="13.0426244735718">
			<ele>59.2000007629395</ele>
			<time>2014-04-13T10:16:26Z</time>
		</trkpt>
		<trkpt lat="54.0606346130371" lon="13.0426464080811">
			<ele>59.0999984741211</ele>
			<time>2014-04-13T10:16:27Z</time>
		</trkpt>
		<trkpt lat="54.0605812072754" lon="13.042670249939">
			<ele>59.0999984741211</ele>
			<time>2014-04-13T10:16:28Z</time>
		</trkpt>
		<trkpt lat="54.0605239868164" lon="13.0426979064941">
			<ele>59</ele>
			<time>2014-04-13T10:16:29Z</time>
		</trkpt>
		<trkpt lat="54.0604705810547" lon="13.0427293777466">
			<ele>58.9000015258789</ele>
			<time>2014-04-13T10:16:30Z</time>
		</trkpt>
		<trkpt lat="54.0604133605957" lon="13.0427570343018">
			<ele>59</ele>
			<time>2014-04-13T10:16:31Z</time>
		</trkpt>
		<trkpt lat="54.060359954834" lon="13.0427856445313">
			<ele>58.9000015258789</ele>
			<time>2014-04-13T10:16:32Z</time>
		</trkpt>
		<trkpt lat="54.0603103637695" lon="13.0428133010864">
			<ele>59</ele>
			<time>2014-04-13T10:16:33Z</time>
		</trkpt>
		<trkpt lat="54.0602569580078" lon="13.0428419113159">
			<ele>59.0999984741211</ele>
			<time>2014-04-13T10:16:34Z</time>
		</trkpt>
		<trkpt lat="54.0601997375488" lon="13.0428686141968">
			<ele>58.9000015258789</ele>
			<time>2014-04-13T10:16:35Z</time>
		</trkpt>
		<trkpt lat="54.0601463317871" lon="13.0429058074951">
			<ele>58.5999984741211</ele>
			<time>2014-04-13T10:16:36Z</time>
		</trkpt>
		<trkpt lat="54.0600891113281" lon="13.0429315567017">
			<ele>58.7000007629395</ele>
			<time>2014-04-13T10:16:37Z</time>
		</trkpt>
		<trkpt lat="54.0600318908691" lon="13.0429573059082">
			<ele>58.7000007629395</ele>
			<time>2014-04-13T10:16:38Z</time>
		</trkpt>
		<trkpt lat="54.0599708557129" lon="13.0429811477661">
			<ele>58.4000015258789</ele>
			<time>2014-04-13T10:16:39Z</time>
		</trkpt>
		<trkpt lat="54.0599174499512" lon="13.0430088043213">
			<ele>58.2999992370605</ele>
			<time>2014-04-13T10:16:40Z</time>
		</trkpt>
		<trkpt lat="54.0598602294922" lon="13.0430335998535">
			<ele>58.2000007629395</ele>
			<time>2014-04-13T10:16:41Z</time>
		</trkpt>
		<trkpt lat="54.0598068237305" lon="13.043062210083">
			<ele>58.0999984741211</ele>
			<time>2014-04-13T10:16:42Z</time>
		</trkpt>
		<trkpt lat="54.0597496032715" lon="13.0431003570557">
			<ele>58.2000007629395</ele>
			<time>2014-04-13T10:16:43Z</time>
		</trkpt>
		<trkpt lat="54.0596923828125" lon="13.0431175231934">
			<ele>58.0999984741211</ele>
			<time>2014-04-13T10:16:44Z</time>
		</trkpt>
		<trkpt lat="54.0596389770508" lon="13.0431442260742">
			<ele>58.0999984741211</ele>
			<time>2014-04-13T10:16:45Z</time>
		</trkpt>
		<trkpt lat="54.0595817565918" lon="13.0431728363037">
			<ele>58.0999984741211</ele>
			<time>2014-04-13T10:16:46Z</time>
		</trkpt>
		<trkpt lat="54.0595207214355" lon="13.0432033538818">
			<ele>58.2999992370605</ele>
			<time>2014-04-13T10:16:47Z</time>
		</trkpt>
		<trkpt lat="54.0594635009766" lon="13.0432300567627">
			<ele>58.4000015258789</ele>
			<time>2014-04-13T10:16:48Z</time>
		</trkpt>
		<trkpt lat="54.0594024658203" lon="13.0432605743408">
			<ele>58.4000015258789</ele>
			<time>2014-04-13T10:16:49Z</time>
		</trkpt>
		<trkpt lat="54.0593490600586" lon="13.0432901382446">
			<ele>58.2999992370605</ele>
			<time>2014-04-13T10:16:50Z</time>
		</trkpt>
		<trkpt lat="54.0592918395996" lon="13.0433158874512">
			<ele>58.5</ele>
			<time>2014-04-13T10:16:51Z</time>
		</trkpt>
		<trkpt lat="54.0592346191406" lon="13.0433483123779">
			<ele>58.4000015258789</ele>
			<time>2014-04-13T10:16:52Z</time>
		</trkpt>
		<trkpt lat="54.0591735839844" lon="13.0433759689331">
			<ele>58.4000015258789</ele>
			<time>2014-04-13T10:16:53Z</time>
		</trkpt>
		<trkpt lat="54.0591201782227" lon="13.0434036254883">
			<ele>58.5999984741211</ele>
			<time>2014-04-13T10:16:54Z</time>
		</trkpt>
		<trkpt lat="54.0590667724609" lon="13.0434303283691">
			<ele>58.4000015258789</ele>
			<time>2014-04-13T10:16:55Z</time>
		</trkpt>
		<trkpt lat="54.0590133666992" lon="13.0434617996216">
			<ele>58.2000007629395</ele>
			<time>2014-04-13T10:16:56Z</time>
		</trkpt>
		<trkpt lat="54.0589561462402" lon="13.0434923171997">
			<ele>58.0999984741211</ele>
			<time>2014-04-13T10:16:57Z</time>
		</trkpt>
		<trkpt lat="54.0588989257813" lon="13.0435180664063">
			<ele>58.4000015258789</ele>
			<time>2014-04-13T10:16:58Z</time>
		</trkpt>
		<trkpt lat="54.0588417053223" lon="13.0435447692871">
			<ele>58.5999984741211</ele>
			<time>2014-04-13T10:16:59Z</time>
		</trkpt>
		<trkpt lat="54.0587844848633" lon="13.0435695648193">
			<ele>58.5999984741211</ele>
			<time>2014-04-13T10:17:00Z</time>
		</trkpt>
		<trkpt lat="54.0587310791016" lon="13.0435943603516">
			<ele>58.5999984741211</ele>
			<time>2014-04-13T10:17:01Z</time>
		</trkpt>
		<trkpt lat="54.0586738586426" lon="13.0436201095581">
			<ele>58.9000015258789</ele>
			<time>2014-04-13T10:17:02Z</time>
		</trkpt>
		<trkpt lat="54.0586166381836" lon="13.0436391830444">
			<ele>58.7999992370605</ele>
			<time>2014-04-13T10:17:03Z</time>
		</trkpt>
		<trkpt lat="54.0585594177246" lon="13.0436630249023">
			<ele>58.5</ele>
			<time>2014-04-13T10:17:04Z</time>
		</trkpt>
		<trkpt lat="54.0585060119629" lon="13.0436916351318">
			<ele>58.5</ele>
			<time>2014-04-13T10:17:05Z</time>
		</trkpt>
		<trkpt lat="54.0584526062012" lon="13.0437240600586">
			<ele>58.2000007629395</ele>
			<time>2014-04-13T10:17:06Z</time>
		</trkpt>
		<trkpt lat="54.0584030151367" lon="13.0437574386597">
			<ele>58.0999984741211</ele>
			<time>2014-04-13T10:17:07Z</time>
		</trkpt>
		<trkpt lat="54.0583534240723" lon="13.0437784194946">
			<ele>58.0999984741211</ele>
			<time>2014-04-13T10:17:08Z</time>
		</trkpt>
		<trkpt lat="54.0583000183105" lon="13.0438070297241">
			<ele>58.2000007629395</ele>
			<time>2014-04-13T10:17:09Z</time>
		</trkpt>
		<trkpt lat="54.0582466125488" lon="13.0438375473022">
			<ele>58.0999984741211</ele>
			<time>2014-04-13T10:17:10Z</time>
		</trkpt>
		<trkpt lat="54.0581970214844" lon="13.0438661575317">
			<ele>58.0999984741211</ele>
			<time>2014-04-13T10:17:11Z</time>
		</trkpt>
		<trkpt lat="54.0581474304199" lon="13.0438890457153">
			<ele>58.0999984741211</ele>
			<time>2014-04-13T10:17:12Z</time>
		</trkpt>
		<trkpt lat="54.0580940246582" lon="13.0439071655273">
			<ele>58</ele>
			<time>2014-04-13T10:17:13Z</time>
		</trkpt>
		<trkpt lat="54.0580406188965" lon="13.0439338684082">
			<ele>58.0999984741211</ele>
			<time>2014-04-13T10:17:14Z</time>
		</trkpt>
		<trkpt lat="54.0579833984375" lon="13.0439577102661">
			<ele>58.2000007629395</ele>
			<time>2014-04-13T10:17:15Z</time>
		</trkpt>
		<trkpt lat="54.0579299926758" lon="13.0439882278442">
			<ele>58.2000007629395</ele>
			<time>2014-04-13T10:17:16Z</time>
		</trkpt>
		<trkpt lat="54.0578765869141" lon="13.0440196990967">
			<ele>58.2999992370605</ele>
			<time>2014-04-13T10:17:17Z</time>
		</trkpt>
		<trkpt lat="54.0578231811523" lon="13.0440521240234">
			<ele>58.2000007629395</ele>
			<time>2014-04-13T10:17:18Z</time>
		</trkpt>
		<trkpt lat="54.0577774047852" lon="13.0440769195557">
			<ele>57.9000015258789</ele>
			<time>2014-04-13T10:17:19Z</time>
		</trkpt>
		<trkpt lat="54.0577163696289" lon="13.0441045761108">
			<ele>57.7999992370605</ele>
			<time>2014-04-13T10:17:20Z</time>
		</trkpt>
		<trkpt lat="54.0576629638672" lon="13.0441417694092">
			<ele>57.7000007629395</ele>
			<time>2014-04-13T10:17:21Z</time>
		</trkpt>
		<trkpt lat="54.0576133728027" lon="13.0441637039185">
			<ele>57.5</ele>
			<time>2014-04-13T10:17:22Z</time>
		</trkpt>
		<trkpt lat="54.057559967041" lon="13.0441904067993">
			<ele>57.4000015258789</ele>
			<time>2014-04-13T10:17:23Z</time>
		</trkpt>
		<trkpt lat="54.0575065612793" lon="13.0442085266113">
			<ele>57.2999992370605</ele>
			<time>2014-04-13T10:17:24Z</time>
		</trkpt>
		<trkpt lat="54.0574531555176" lon="13.0442333221436">
			<ele>57.0999984741211</ele>
			<time>2014-04-13T10:17:25Z</time>
		</trkpt>
		<trkpt lat="54.0573997497559" lon="13.0442657470703">
			<ele>57.2999992370605</ele>
			<time>2014-04-13T10:17:26Z</time>
		</trkpt>
		<trkpt lat="54.0573425292969" lon="13.0442924499512">
			<ele>57.2999992370605</ele>
			<time>2014-04-13T10:17:27Z</time>
		</trkpt>
		<trkpt lat="54.0572853088379" lon="13.0443115234375">
			<ele>57.5</ele>
			<time>2014-04-13T10:17:28Z</time>
		</trkpt>
		<trkpt lat="54.0572357177734" lon="13.0443325042725">
			<ele>57.5</ele>
			<time>2014-04-13T10:17:29Z</time>
		</trkpt>
		<trkpt lat="54.0571784973145" lon="13.0443592071533">
			<ele>57.9000015258789</ele>
			<time>2014-04-13T10:17:30Z</time>
		</trkpt>
		<trkpt lat="54.05712890625" lon="13.0443830490112">
			<ele>58.0999984741211</ele>
			<time>2014-04-13T10:17:31Z</time>
		</trkpt>
		<trkpt lat="54.0570755004883" lon="13.0444097518921">
			<ele>58.2999992370605</ele>
			<time>2014-04-13T10:17:32Z</time>
		</trkpt>
		<trkpt lat="54.0570220947266" lon="13.0444412231445">
			<ele>58.2999992370605</ele>
			<time>2014-04-13T10:17:33Z</time>
		</trkpt>
		<trkpt lat="54.0569686889648" lon="13.044472694397">
			<ele>58.2999992370605</ele>
			<time>2014-04-13T10:17:34Z</time>
		</trkpt>
		<trkpt lat="54.0569152832031" lon="13.0444984436035">
			<ele>58.4000015258789</ele>
			<time>2014-04-13T10:17:35Z</time>
		</trkpt>
		<trkpt lat="54.0568618774414" lon="13.0445222854614">
			<ele>58.5999984741211</ele>
			<time>2014-04-13T10:17:36Z</time>
		</trkpt>
		<trkpt lat="54.0568084716797" lon="13.0445432662964">
			<ele>58.5999984741211</ele>
			<time>2014-04-13T10:17:37Z</time>
		</trkpt>
		<trkpt lat="54.0567588806152" lon="13.0445652008057">
			<ele>58.5999984741211</ele>
			<time>2014-04-13T10:17:38Z</time>
		</trkpt>
		<trkpt lat="54.0567054748535" lon="13.0445871353149">
			<ele>58.7000007629395</ele>
			<time>2014-04-13T10:17:39Z</time>
		</trkpt>
		<trkpt lat="54.0566482543945" lon="13.0446128845215">
			<ele>58.5999984741211</ele>
			<time>2014-04-13T10:17:40Z</time>
		</trkpt>
		<trkpt lat="54.0565948486328" lon="13.0446367263794">
			<ele>58.7999992370605</ele>
			<time>2014-04-13T10:17:41Z</time>
		</trkpt>
		<trkpt lat="54.0565414428711" lon="13.0446653366089">
			<ele>59</ele>
			<time>2014-04-13T10:17:42Z</time>
		</trkpt>
		<trkpt lat="54.0564880371094" lon="13.0446939468384">
			<ele>59</ele>
			<time>2014-04-13T10:17:43Z</time>
		</trkpt>
		<trkpt lat="54.0564308166504" lon="13.0447206497192">
			<ele>59</ele>
			<time>2014-04-13T10:17:44Z</time>
		</trkpt>
		<trkpt lat="54.0563774108887" lon="13.0447473526001">
			<ele>59.2000007629395</ele>
			<time>2014-04-13T10:17:45Z</time>
		</trkpt>
		<trkpt lat="54.056324005127" lon="13.0447750091553">
			<ele>59.2999992370605</ele>
			<time>2014-04-13T10:17:46Z</time>
		</trkpt>
		<trkpt lat="54.0562705993652" lon="13.0448045730591">
			<ele>59.2999992370605</ele>
			<time>2014-04-13T10:17:47Z</time>
		</trkpt>
		<trkpt lat="54.0562171936035" lon="13.0448331832886">
			<ele>59.4000015258789</ele>
			<time>2014-04-13T10:17:48Z</time>
		</trkpt>
		<trkpt lat="54.0561599731445" lon="13.0448589324951">
			<ele>59.2999992370605</ele>
			<time>2014-04-13T10:17:49Z</time>
		</trkpt>
		<trkpt lat="54.0561065673828" lon="13.044882774353">
			<ele>59.2000007629395</ele>
			<time>2014-04-13T10:17:50Z</time>
		</trkpt>
		<trkpt lat="54.0560493469238" lon="13.0449113845825">
			<ele>59.2000007629395</ele>
			<time>2014-04-13T10:17:51Z</time>
		</trkpt>
		<trkpt lat="54.0559959411621" lon="13.0449409484863">
			<ele>59.0999984741211</ele>
			<time>2014-04-13T10:17:52Z</time>
		</trkpt>
		<trkpt lat="54.0559387207031" lon="13.0449686050415">
			<ele>59.0999984741211</ele>
			<time>2014-04-13T10:17:53Z</time>
		</trkpt>
		<trkpt lat="54.0558815002441" lon="13.0449962615967">
			<ele>59</ele>
			<time>2014-04-13T10:17:54Z</time>
		</trkpt>
		<trkpt lat="54.0558280944824" lon="13.0450229644775">
			<ele>58.9000015258789</ele>
			<time>2014-04-13T10:17:55Z</time>
		</trkpt>
		<trkpt lat="54.0557746887207" lon="13.0450506210327">
			<ele>58.7999992370605</ele>
			<time>2014-04-13T10:17:56Z</time>
		</trkpt>
		<trkpt lat="54.0557174682617" lon="13.0450773239136">
			<ele>58.7999992370605</ele>
			<time>2014-04-13T10:17:57Z</time>
		</trkpt>
		<trkpt lat="54.0556640625" lon="13.0451068878174">
			<ele>58.5999984741211</ele>
			<time>2014-04-13T10:17:58Z</time>
		</trkpt>
		<trkpt lat="54.0556106567383" lon="13.0451354980469">
			<ele>58.5999984741211</ele>
			<time>2014-04-13T10:17:59Z</time>
		</trkpt>
		<trkpt lat="54.0555534362793" lon="13.0451583862305">
			<ele>58.4000015258789</ele>
			<time>2014-04-13T10:18:00Z</time>
		</trkpt>
		<trkpt lat="54.0555000305176" lon="13.0451879501343">
			<ele>58.5</ele>
			<time>2014-04-13T10:18:01Z</time>
		</trkpt>
		<trkpt lat="54.0554504394531" lon="13.0452299118042">
			<ele>58.7000007629395</ele>
			<time>2014-04-13T10:18:02Z</time>
		</trkpt>
		<trkpt lat="54.0553970336914" lon="13.0452604293823">
			<ele>58.7000007629395</ele>
			<time>2014-04-13T10:18:03Z</time>
		</trkpt>
		<trkpt lat="54.0553436279297" lon="13.0452871322632">
			<ele>58.7999992370605</ele>
			<time>2014-04-13T10:18:04Z</time>
		</trkpt>
		<trkpt lat="54.0552864074707" lon="13.0453109741211">
			<ele>58.9000015258789</ele>
			<time>2014-04-13T10:18:05Z</time>
		</trkpt>
		<trkpt lat="54.0552291870117" lon="13.045334815979">
			<ele>58.9000015258789</ele>
			<time>2014-04-13T10:18:06Z</time>
		</trkpt>
		<trkpt lat="54.05517578125" lon="13.0453548431396">
			<ele>58.9000015258789</ele>
			<time>2014-04-13T10:18:07Z</time>
		</trkpt>
		<trkpt lat="54.055118560791" lon="13.0453767776489">
			<ele>58.7999992370605</ele>
			<time>2014-04-13T10:18:08Z</time>
		</trkpt>
		<trkpt lat="54.0550651550293" lon="13.0454034805298">
			<ele>58.7999992370605</ele>
			<time>2014-04-13T10:18:09Z</time>
		</trkpt>
		<trkpt lat="54.0550079345703" lon="13.0454320907593">
			<ele>59.0999984741211</ele>
			<time>2014-04-13T10:18:10Z</time>
		</trkpt>
		<trkpt lat="54.0549507141113" lon="13.0454626083374">
			<ele>59.2000007629395</ele>
			<time>2014-04-13T10:18:11Z</time>
		</trkpt>
		<trkpt lat="54.0548973083496" lon="13.0454969406128">
			<ele>59.2999992370605</ele>
			<time>2014-04-13T10:18:12Z</time>
		</trkpt>
		<trkpt lat="54.0548400878906" lon="13.0455226898193">
			<ele>59.2999992370605</ele>
			<time>2014-04-13T10:18:13Z</time>
		</trkpt>
		<trkpt lat="54.0547828674316" lon="13.0455493927002">
			<ele>59.2999992370605</ele>
			<time>2014-04-13T10:18:14Z</time>
		</trkpt>
		<trkpt lat="54.0547294616699" lon="13.0455799102783">
			<ele>59.2999992370605</ele>
			<time>2014-04-13T10:18:15Z</time>
		</trkpt>
		<trkpt lat="54.0546722412109" lon="13.0456094741821">
			<ele>59.2999992370605</ele>
			<time>2014-04-13T10:18:16Z</time>
		</trkpt>
		<trkpt lat="54.0546188354492" lon="13.0456371307373">
			<ele>59.2000007629395</ele>
			<time>2014-04-13T10:18:17Z</time>
		</trkpt>
		<trkpt lat="54.0545616149902" lon="13.0456657409668">
			<ele>59.2000007629395</ele>
			<time>2014-04-13T10:18:18Z</time>
		</trkpt>
		<trkpt lat="54.0545043945313" lon="13.0456943511963">
			<ele>59.2000007629395</ele>
			<time>2014-04-13T10:18:19Z</time>
		</trkpt>
		<trkpt lat="54.0544471740723" lon="13.0457220077515">
			<ele>59.4000015258789</ele>
			<time>2014-04-13T10:18:20Z</time>
		</trkpt>
		<trkpt lat="54.0543899536133" lon="13.0457496643066">
			<ele>59.5</ele>
			<time>2014-04-13T10:18:21Z</time>
		</trkpt>
		<trkpt lat="54.0543327331543" lon="13.0457773208618">
			<ele>59.5999984741211</ele>
			<time>2014-04-13T10:18:22Z</time>
		</trkpt>
		<trkpt lat="54.054271697998" lon="13.0458087921143">
			<ele>59.5</ele>
			<time>2014-04-13T10:18:23Z</time>
		</trkpt>
		<trkpt lat="54.0542144775391" lon="13.0458374023438">
			<ele>59.5999984741211</ele>
			<time>2014-04-13T10:18:24Z</time>
		</trkpt>
		<trkpt lat="54.0541572570801" lon="13.0458669662476">
			<ele>59.5999984741211</ele>
			<time>2014-04-13T10:18:25Z</time>
		</trkpt>
		<trkpt lat="54.0540962219238" lon="13.0458974838257">
			<ele>59.5</ele>
			<time>2014-04-13T10:18:26Z</time>
		</trkpt>
		<trkpt lat="54.0540390014648" lon="13.0459270477295">
			<ele>59.4000015258789</ele>
			<time>2014-04-13T10:18:27Z</time>
		</trkpt>
		<trkpt lat="54.0539779663086" lon="13.0459585189819">
			<ele>59.4000015258789</ele>
			<time>2014-04-13T10:18:28Z</time>
		</trkpt>
		<trkpt lat="54.0539169311523" lon="13.0459871292114">
			<ele>59.4000015258789</ele>
			<time>2014-04-13T10:18:29Z</time>
		</trkpt>
		<trkpt lat="54.0538635253906" lon="13.0460157394409">
			<ele>59.2999992370605</ele>
			<time>2014-04-13T10:18:30Z</time>
		</trkpt>
		<trkpt lat="54.0538024902344" lon="13.0460443496704">
			<ele>59.2000007629395</ele>
			<time>2014-04-13T10:18:31Z</time>
		</trkpt>
		<trkpt lat="54.0537452697754" lon="13.0460739135742">
			<ele>59.0999984741211</ele>
			<time>2014-04-13T10:18:32Z</time>
		</trkpt>
		<trkpt lat="54.0536880493164" lon="13.0461015701294">
			<ele>58.7999992370605</ele>
			<time>2014-04-13T10:18:33Z</time>
		</trkpt>
		<trkpt lat="54.0536308288574" lon="13.0461320877075">
			<ele>58.7999992370605</ele>
			<time>2014-04-13T10:18:34Z</time>
		</trkpt>
		<trkpt lat="54.0535736083984" lon="13.0461540222168">
			<ele>58.7000007629395</ele>
			<time>2014-04-13T10:18:35Z</time>
		</trkpt>
		<trkpt lat="54.0535163879395" lon="13.0461835861206">
			<ele>58.7000007629395</ele>
			<time>2014-04-13T10:18:36Z</time>
		</trkpt>
		<trkpt lat="54.0534553527832" lon="13.0462045669556">
			<ele>58.7000007629395</ele>
			<time>2014-04-13T10:18:37Z</time>
		</trkpt>
		<trkpt lat="54.0533981323242" lon="13.0462265014648">
			<ele>58.5999984741211</ele>
			<time>2014-04-13T10:18:38Z</time>
		</trkpt>
		<trkpt lat="54.0533409118652" lon="13.0462512969971">
			<ele>58.4000015258789</ele>
			<time>2014-04-13T10:18:39Z</time>
		</trkpt>
		<trkpt lat="54.053279876709" lon="13.046272277832">
			<ele>58.5999984741211</ele>
			<time>2014-04-13T10:18:40Z</time>
		</trkpt>
		<trkpt lat="54.05322265625" lon="13.0462875366211">
			<ele>58.5</ele>
			<time>2014-04-13T10:18:41Z</time>
		</trkpt>
		<trkpt lat="54.0531692504883" lon="13.0463018417358">
			<ele>58.4000015258789</ele>
			<time>2014-04-13T10:18:42Z</time>
		</trkpt>
		<trkpt lat="54.053108215332" lon="13.0463123321533">
			<ele>58.4000015258789</ele>
			<time>2014-04-13T10:18:45Z</time>
		</trkpt>
		<trkpt lat="54.0529899597168" lon="13.0463361740112">
			<ele>58.5999984741211</ele>
			<time>2014-04-13T10:18:46Z</time>
		</trkpt>
		<trkpt lat="54.0529365539551" lon="13.0463485717773">
			<ele>58.5999984741211</ele>
			<time>2014-04-13T10:18:47Z</time>
		</trkpt>
		<trkpt lat="54.0528755187988" lon="13.0463581085205">
			<ele>58.5</ele>
			<time>2014-04-13T10:18:47Z</time>
		</trkpt>
		<trkpt lat="54.0528182983398" lon="13.0463676452637">
			<ele>58.2000007629395</ele>
			<time>2014-04-13T10:18:49Z</time>
		</trkpt>
		<trkpt lat="54.0527610778809" lon="13.0463771820068">
			<ele>58.2000007629395</ele>
			<time>2014-04-13T10:18:49Z</time>
		</trkpt>
		<trkpt lat="54.0527038574219" lon="13.0463848114014">
			<ele>58.0999984741211</ele>
			<time>2014-04-13T10:18:51Z</time>
		</trkpt>
		<trkpt lat="54.0526466369629" lon="13.0463933944702">
			<ele>58.0999984741211</ele>
			<time>2014-04-13T10:18:52Z</time>
		</trkpt>
		<trkpt lat="54.0525894165039" lon="13.0464019775391">
			<ele>58.2000007629395</ele>
			<time>2014-04-13T10:18:53Z</time>
		</trkpt>
		<trkpt lat="54.0525283813477" lon="13.0464153289795">
			<ele>58.2999992370605</ele>
			<time>2014-04-13T10:18:54Z</time>
		</trkpt>
		<trkpt lat="54.0524711608887" lon="13.046422958374">
			<ele>58.2000007629395</ele>
			<time>2014-04-13T10:18:55Z</time>
		</trkpt>
		<trkpt lat="54.0524101257324" lon="13.0464324951172">
			<ele>58.4000015258789</ele>
			<time>2014-04-13T10:18:56Z</time>
		</trkpt>
		<trkpt lat="54.0523567199707" lon="13.0464401245117">
			<ele>58.7000007629395</ele>
			<time>2014-04-13T10:18:57Z</time>
		</trkpt>
		<trkpt lat="54.0522994995117" lon="13.046443939209">
			<ele>58.5999984741211</ele>
			<time>2014-04-13T10:18:58Z</time>
		</trkpt>
		<trkpt lat="54.05224609375" lon="13.0464553833008">
			<ele>58.7000007629395</ele>
			<time>2014-04-13T10:18:58Z</time>
		</trkpt>
		<trkpt lat="54.0521926879883" lon="13.0464630126953">
			<ele>58.7000007629395</ele>
			<time>2014-04-13T10:18:59Z</time>
		</trkpt>
		<trkpt lat="54.0521392822266" lon="13.0464668273926">
			<ele>58.5999984741211</ele>
			<time>2014-04-13T10:19:00Z</time>
		</trkpt>
		<trkpt lat="54.0520858764648" lon="13.0464792251587">
			<ele>58.7000007629395</ele>
			<time>2014-04-13T10:19:01Z</time>
		</trkpt>
		<trkpt lat="54.0520362854004" lon="13.0464887619019">
			<ele>58.5999984741211</ele>
			<time>2014-04-13T10:19:02Z</time>
		</trkpt>
		<trkpt lat="54.0519905090332" lon="13.0464973449707">
			<ele>58.7000007629395</ele>
			<time>2014-04-13T10:19:03Z</time>
		</trkpt>
		<trkpt lat="54.051944732666" lon="13.0465135574341">
			<ele>58.5999984741211</ele>
			<time>2014-04-13T10:19:04Z</time>
		</trkpt>
		<trkpt lat="54.0518798828125" lon="13.0466089248657">
			<ele>58.0999984741211</ele>
			<time>2014-04-13T10:19:06Z</time>
		</trkpt>
		<trkpt lat="54.0518646240234" lon="13.046685218811">
			<ele>58.2000007629395</ele>
			<time>2014-04-13T10:19:07Z</time>
		</trkpt>
		<trkpt lat="54.0518531799316" lon="13.0467662811279">
			<ele>58.4000015258789</ele>
			<time>2014-04-13T10:19:08Z</time>
		</trkpt>
		<trkpt lat="54.0518455505371" lon="13.0468454360962">
			<ele>58.2999992370605</ele>
			<time>2014-04-13T10:19:09Z</time>
		</trkpt>
		<trkpt lat="54.0518341064453" lon="13.0469331741333">
			<ele>58.4000015258789</ele>
			<time>2014-04-13T10:19:10Z</time>
		</trkpt>
		<trkpt lat="54.0518264770508" lon="13.047022819519">
			<ele>58.2999992370605</ele>
			<time>2014-04-13T10:19:11Z</time>
		</trkpt>
		<trkpt lat="54.0518188476563" lon="13.0471105575562">
			<ele>58.4000015258789</ele>
			<time>2014-04-13T10:19:12Z</time>
		</trkpt>
		<trkpt lat="54.0518074035645" lon="13.0471935272217">
			<ele>58.2000007629395</ele>
			<time>2014-04-13T10:19:13Z</time>
		</trkpt>
		<trkpt lat="54.0517883300781" lon="13.0472774505615">
			<ele>58.2999992370605</ele>
			<time>2014-04-13T10:19:14Z</time>
		</trkpt>
		<trkpt lat="54.0517654418945" lon="13.0473575592041">
			<ele>58.4000015258789</ele>
			<time>2014-04-13T10:19:15Z</time>
		</trkpt>
		<trkpt lat="54.0517311096191" lon="13.0474281311035">
			<ele>58.2000007629395</ele>
			<time>2014-04-13T10:19:16Z</time>
		</trkpt>
		<trkpt lat="54.0516967773438" lon="13.0474729537964">
			<ele>58.2999992370605</ele>
			<time>2014-04-13T10:19:17Z</time>
		</trkpt>
		<trkpt lat="54.0516090393066" lon="13.0475187301636">
			<ele>58.5</ele>
			<time>2014-04-13T10:19:19Z</time>
		</trkpt>
		<trkpt lat="54.0515594482422" lon="13.0475168228149">
			<ele>58.5999984741211</ele>
			<time>2014-04-13T10:19:20Z</time>
		</trkpt>
		<trkpt lat="54.0515098571777" lon="13.0474967956543">
			<ele>58.7999992370605</ele>
			<time>2014-04-13T10:19:21Z</time>
		</trkpt>
		<trkpt lat="54.0514602661133" lon="13.0474863052368">
			<ele>58.7000007629395</ele>
			<time>2014-04-13T10:19:22Z</time>
		</trkpt>
		<trkpt lat="54.0514106750488" lon="13.0474729537964">
			<ele>58.7000007629395</ele>
			<time>2014-04-13T10:19:23Z</time>
		</trkpt>
		<trkpt lat="54.0513610839844" lon="13.0474662780762">
			<ele>58.5999984741211</ele>
			<time>2014-04-13T10:19:25Z</time>
		</trkpt>
		<trkpt lat="54.0513114929199" lon="13.0474643707275">
			<ele>58.7999992370605</ele>
			<time>2014-04-13T10:19:25Z</time>
		</trkpt>
		<trkpt lat="54.0512619018555" lon="13.0474653244019">
			<ele>58.9000015258789</ele>
			<time>2014-04-13T10:19:26Z</time>
		</trkpt>
		<trkpt lat="54.051212310791" lon="13.0474615097046">
			<ele>58.7000007629395</ele>
			<time>2014-04-13T10:19:27Z</time>
		</trkpt>
		<trkpt lat="54.0511589050293" lon="13.0474538803101">
			<ele>58.7000007629395</ele>
			<time>2014-04-13T10:19:28Z</time>
		</trkpt>
		<trkpt lat="54.0511093139648" lon="13.0474462509155">
			<ele>58.9000015258789</ele>
			<time>2014-04-13T10:19:29Z</time>
		</trkpt>
		<trkpt lat="54.0510597229004" lon="13.0474414825439">
			<ele>58.7999992370605</ele>
			<time>2014-04-13T10:19:30Z</time>
		</trkpt>
		<trkpt lat="54.0510063171387" lon="13.0474395751953">
			<ele>58.9000015258789</ele>
			<time>2014-04-13T10:19:31Z</time>
		</trkpt>
		<trkpt lat="54.050952911377" lon="13.0474348068237">
			<ele>58.7000007629395</ele>
			<time>2014-04-13T10:19:32Z</time>
		</trkpt>
		<trkpt lat="54.0508995056152" lon="13.0474281311035">
			<ele>58.9000015258789</ele>
			<time>2014-04-13T10:19:33Z</time>
		</trkpt>
		<trkpt lat="54.0508460998535" lon="13.0474157333374">
			<ele>58.5999984741211</ele>
			<time>2014-04-13T10:19:34Z</time>
		</trkpt>
		<trkpt lat="54.0507926940918" lon="13.0474090576172">
			<ele>58.5</ele>
			<time>2014-04-13T10:19:35Z</time>
		</trkpt>
		<trkpt lat="54.0507354736328" lon="13.0474052429199">
			<ele>58.2000007629395</ele>
			<time>2014-04-13T10:19:36Z</time>
		</trkpt>
		<trkpt lat="54.0506744384766" lon="13.0474014282227">
			<ele>57.9000015258789</ele>
			<time>2014-04-13T10:19:37Z</time>
		</trkpt>
		<trkpt lat="54.0506248474121" lon="13.0474033355713">
			<ele>57.7000007629395</ele>
			<time>2014-04-13T10:19:38Z</time>
		</trkpt>
		<trkpt lat="54.0505714416504" lon="13.0474147796631">
			<ele>58</ele>
			<time>2014-04-13T10:19:39Z</time>
		</trkpt>
		<trkpt lat="54.0505218505859" lon="13.0474472045898">
			<ele>57.5999984741211</ele>
			<time>2014-04-13T10:19:40Z</time>
		</trkpt>
		<trkpt lat="54.0504760742188" lon="13.0474872589111">
			<ele>57.2999992370605</ele>
			<time>2014-04-13T10:19:41Z</time>
		</trkpt>
		<trkpt lat="54.0504264831543" lon="13.0475368499756">
			<ele>56.9000015258789</ele>
			<time>2014-04-13T10:19:42Z</time>
		</trkpt>
		<trkpt lat="54.0503845214844" lon="13.0475902557373">
			<ele>57</ele>
			<time>2014-04-13T10:19:43Z</time>
		</trkpt>
		<trkpt lat="54.0503387451172" lon="13.0476369857788">
			<ele>57.0999984741211</ele>
			<time>2014-04-13T10:19:44Z</time>
		</trkpt>
		<trkpt lat="54.05029296875" lon="13.0476913452148">
			<ele>56.5999984741211</ele>
			<time>2014-04-13T10:19:45Z</time>
		</trkpt>
		<trkpt lat="54.0502433776855" lon="13.0477457046509">
			<ele>56.7000007629395</ele>
			<time>2014-04-13T10:19:46Z</time>
		</trkpt>
		<trkpt lat="54.0501976013184" lon="13.047794342041">
			<ele>56.5999984741211</ele>
			<time>2014-04-13T10:19:47Z</time>
		</trkpt>
		<trkpt lat="54.0501518249512" lon="13.0478477478027">
			<ele>56.4000015258789</ele>
			<time>2014-04-13T10:19:48Z</time>
		</trkpt>
		<trkpt lat="54.0501022338867" lon="13.0478982925415">
			<ele>56.0999984741211</ele>
			<time>2014-04-13T10:19:49Z</time>
		</trkpt>
		<trkpt lat="54.0500526428223" lon="13.0479431152344">
			<ele>55.7999992370605</ele>
			<time>2014-04-13T10:19:50Z</time>
		</trkpt>
		<trkpt lat="54.0500030517578" lon="13.0479860305786">
			<ele>55.5</ele>
			<time>2014-04-13T10:19:51Z</time>
		</trkpt>
		<trkpt lat="54.0499534606934" lon="13.0480327606201">
			<ele>55.7999992370605</ele>
			<time>2014-04-13T10:19:52Z</time>
		</trkpt>
		<trkpt lat="54.0499076843262" lon="13.0480890274048">
			<ele>55.9000015258789</ele>
			<time>2014-04-13T10:19:53Z</time>
		</trkpt>
		<trkpt lat="54.0498580932617" lon="13.0481433868408">
			<ele>55.7000007629395</ele>
			<time>2014-04-13T10:19:54Z</time>
		</trkpt>
		<trkpt lat="54.0498085021973" lon="13.0481986999512">
			<ele>55.5</ele>
			<time>2014-04-13T10:19:55Z</time>
		</trkpt>
		<trkpt lat="54.0497550964355" lon="13.0482416152954">
			<ele>55.7999992370605</ele>
			<time>2014-04-13T10:19:56Z</time>
		</trkpt>
		<trkpt lat="54.0497093200684" lon="13.0482912063599">
			<ele>55.7999992370605</ele>
			<time>2014-04-13T10:19:57Z</time>
		</trkpt>
		<trkpt lat="54.0496559143066" lon="13.0483360290527">
			<ele>55.7000007629395</ele>
			<time>2014-04-13T10:19:58Z</time>
		</trkpt>
		<trkpt lat="54.0496063232422" lon="13.0483818054199">
			<ele>55.7999992370605</ele>
			<time>2014-04-13T10:19:59Z</time>
		</trkpt>
		<trkpt lat="54.0495567321777" lon="13.0484313964844">
			<ele>55.7000007629395</ele>
			<time>2014-04-13T10:20:00Z</time>
		</trkpt>
		<trkpt lat="54.0495071411133" lon="13.0484771728516">
			<ele>55.9000015258789</ele>
			<time>2014-04-13T10:20:01Z</time>
		</trkpt>
		<trkpt lat="54.0494575500488" lon="13.0485200881958">
			<ele>55.7999992370605</ele>
			<time>2014-04-13T10:20:02Z</time>
		</trkpt>
		<trkpt lat="54.0494079589844" lon="13.0485677719116">
			<ele>55.7000007629395</ele>
			<time>2014-04-13T10:20:03Z</time>
		</trkpt>
		<trkpt lat="54.0493545532227" lon="13.0486030578613">
			<ele>55.5</ele>
			<time>2014-04-13T10:20:04Z</time>
		</trkpt>
		<trkpt lat="54.0492973327637" lon="13.0486421585083">
			<ele>55.4000015258789</ele>
			<time>2014-04-13T10:20:05Z</time>
		</trkpt>
		<trkpt lat="54.049243927002" lon="13.048677444458">
			<ele>56</ele>
			<time>2014-04-13T10:20:06Z</time>
		</trkpt>
		<trkpt lat="54.0491943359375" lon="13.0487108230591">
			<ele>56</ele>
			<time>2014-04-13T10:20:07Z</time>
		</trkpt>
		<trkpt lat="54.049144744873" lon="13.0487451553345">
			<ele>56.2000007629395</ele>
			<time>2014-04-13T10:20:08Z</time>
		</trkpt>
		<trkpt lat="54.0490913391113" lon="13.048770904541">
			<ele>56.2000007629395</ele>
			<time>2014-04-13T10:20:09Z</time>
		</trkpt>
		<trkpt lat="54.0490379333496" lon="13.0487995147705">
			<ele>55.9000015258789</ele>
			<time>2014-04-13T10:20:10Z</time>
		</trkpt>
		<trkpt lat="54.0489845275879" lon="13.0488319396973">
			<ele>55.7000007629395</ele>
			<time>2014-04-13T10:20:11Z</time>
		</trkpt>
		<trkpt lat="54.0489273071289" lon="13.0488615036011">
			<ele>55.5999984741211</ele>
			<time>2014-04-13T10:20:12Z</time>
		</trkpt>
		<trkpt lat="54.0488739013672" lon="13.0488834381104">
			<ele>55.7000007629395</ele>
			<time>2014-04-13T10:20:13Z</time>
		</trkpt>
		<trkpt lat="54.0488204956055" lon="13.0488967895508">
			<ele>56</ele>
			<time>2014-04-13T10:20:14Z</time>
		</trkpt>
		<trkpt lat="54.0487670898438" lon="13.0489053726196">
			<ele>55.7999992370605</ele>
			<time>2014-04-13T10:20:15Z</time>
		</trkpt>
		<trkpt lat="54.0487174987793" lon="13.0489263534546">
			<ele>55.7000007629395</ele>
			<time>2014-04-13T10:20:16Z</time>
		</trkpt>
		<trkpt lat="54.0486717224121" lon="13.0489597320557">
			<ele>55.5</ele>
			<time>2014-04-13T10:20:17Z</time>
		</trkpt>
		<trkpt lat="54.0486259460449" lon="13.0490055084229">
			<ele>55.5999984741211</ele>
			<time>2014-04-13T10:20:18Z</time>
		</trkpt>
		<trkpt lat="54.0485916137695" lon="13.0490694046021">
			<ele>56</ele>
			<time>2014-04-13T10:20:19Z</time>
		</trkpt>
		<trkpt lat="54.0485572814941" lon="13.0491275787354">
			<ele>55.9000015258789</ele>
			<time>2014-04-13T10:20:20Z</time>
		</trkpt>
		<trkpt lat="54.0485229492188" lon="13.0491857528687">
			<ele>56</ele>
			<time>2014-04-13T10:20:21Z</time>
		</trkpt>
		<trkpt lat="54.048454284668" lon="13.0491609573364">
			<ele>56.5</ele>
			<time>2014-04-13T10:20:23Z</time>
		</trkpt>
		<trkpt lat="54.0484085083008" lon="13.0490303039551">
			<ele>56.5999984741211</ele>
			<time>2014-04-13T10:20:25Z</time>
		</trkpt>
		<trkpt lat="54.0483360290527" lon="13.0489473342896">
			<ele>55.7999992370605</ele>
			<time>2014-04-13T10:20:27Z</time>
		</trkpt>
		<trkpt lat="54.0482902526855" lon="13.0489149093628">
			<ele>55.5</ele>
			<time>2014-04-13T10:20:28Z</time>
		</trkpt>
		<trkpt lat="54.0482444763184" lon="13.0488872528076">
			<ele>55.2000007629395</ele>
			<time>2014-04-13T10:20:29Z</time>
		</trkpt>
		<trkpt lat="54.0481872558594" lon="13.0488510131836">
			<ele>54.9000015258789</ele>
			<time>2014-04-13T10:20:30Z</time>
		</trkpt>
		<trkpt lat="54.0481414794922" lon="13.0488138198853">
			<ele>55.2000007629395</ele>
			<time>2014-04-13T10:20:31Z</time>
		</trkpt>
		<trkpt lat="54.0480880737305" lon="13.048773765564">
			<ele>54.7000007629395</ele>
			<time>2014-04-13T10:20:32Z</time>
		</trkpt>
		<trkpt lat="54.048038482666" lon="13.0487298965454">
			<ele>54.5</ele>
			<time>2014-04-13T10:20:33Z</time>
		</trkpt>
		<trkpt lat="54.0479850769043" lon="13.0486822128296">
			<ele>54.0999984741211</ele>
			<time>2014-04-13T10:20:34Z</time>
		</trkpt>
		<trkpt lat="54.0479393005371" lon="13.0486345291138">
			<ele>54</ele>
			<time>2014-04-13T10:20:35Z</time>
		</trkpt>
		<trkpt lat="54.0478820800781" lon="13.0485963821411">
			<ele>53.7000007629395</ele>
			<time>2014-04-13T10:20:36Z</time>
		</trkpt>
		<trkpt lat="54.0477905273438" lon="13.0485677719116">
			<ele>53.5999984741211</ele>
			<time>2014-04-13T10:20:38Z</time>
		</trkpt>
		<trkpt lat="54.0477180480957" lon="13.0485229492188">
			<ele>54.0999984741211</ele>
			<time>2014-04-13T10:20:41Z</time>
		</trkpt>
		<trkpt lat="54.0476684570313" lon="13.0484914779663">
			<ele>53</ele>
			<time>2014-04-13T10:20:47Z</time>
		</trkpt>
		<trkpt lat="54.0476989746094" lon="13.0483369827271">
			<ele>57.7999992370605</ele>
			<time>2014-04-13T10:33:47Z</time>
		</trkpt>
		<trkpt lat="54.0477027893066" lon="13.0484504699707">
			<ele>54.5999984741211</ele>
			<time>2014-04-13T10:33:53Z</time>
		</trkpt>
		<trkpt lat="54.0477485656738" lon="13.0484781265259">
			<ele>57.9000015258789</ele>
			<time>2014-04-13T10:34:19Z</time>
		</trkpt>
		<trkpt lat="54.047794342041" lon="13.0485124588013">
			<ele>57.4000015258789</ele>
			<time>2014-04-13T10:34:21Z</time>
		</trkpt>
		<trkpt lat="54.0478477478027" lon="13.0485715866089">
			<ele>55.7999992370605</ele>
			<time>2014-04-13T10:34:24Z</time>
		</trkpt>
		<trkpt lat="54.0478973388672" lon="13.0485954284668">
			<ele>54.7999992370605</ele>
			<time>2014-04-13T10:34:25Z</time>
		</trkpt>
		<trkpt lat="54.0479469299316" lon="13.0486497879028">
			<ele>55</ele>
			<time>2014-04-13T10:34:27Z</time>
		</trkpt>
		<trkpt lat="54.0480041503906" lon="13.0487174987793">
			<ele>55.4000015258789</ele>
			<time>2014-04-13T10:34:29Z</time>
		</trkpt>
		<trkpt lat="54.0480499267578" lon="13.0487928390503">
			<ele>54.5999984741211</ele>
			<time>2014-04-13T10:34:31Z</time>
		</trkpt>
		<trkpt lat="54.0481109619141" lon="13.0488519668579">
			<ele>54.5999984741211</ele>
			<time>2014-04-13T10:34:33Z</time>
		</trkpt>
		<trkpt lat="54.0481834411621" lon="13.0488834381104">
			<ele>55.2000007629395</ele>
			<time>2014-04-13T10:34:36Z</time>
		</trkpt>
		<trkpt lat="54.0482597351074" lon="13.0489187240601">
			<ele>55.4000015258789</ele>
			<time>2014-04-13T10:34:37Z</time>
		</trkpt>
		<trkpt lat="54.0483322143555" lon="13.0489740371704">
			<ele>55.7999992370605</ele>
			<time>2014-04-13T10:34:39Z</time>
		</trkpt>
		<trkpt lat="54.0484008789063" lon="13.0490522384644">
			<ele>56.2000007629395</ele>
			<time>2014-04-13T10:34:41Z</time>
		</trkpt>
		<trkpt lat="54.0484580993652" lon="13.0491552352905">
			<ele>56.7999992370605</ele>
			<time>2014-04-13T10:34:43Z</time>
		</trkpt>
		<trkpt lat="54.0484771728516" lon="13.0492897033691">
			<ele>56.7000007629395</ele>
			<time>2014-04-13T10:34:45Z</time>
		</trkpt>
		<trkpt lat="54.0484886169434" lon="13.0494384765625">
			<ele>55.7999992370605</ele>
			<time>2014-04-13T10:34:47Z</time>
		</trkpt>
		<trkpt lat="54.0484924316406" lon="13.0495166778564">
			<ele>55.7000007629395</ele>
			<time>2014-04-13T10:34:48Z</time>
		</trkpt>
		<trkpt lat="54.0484886169434" lon="13.0496015548706">
			<ele>55.4000015258789</ele>
			<time>2014-04-13T10:34:49Z</time>
		</trkpt>
		<trkpt lat="54.0484848022461" lon="13.0496864318848">
			<ele>55.4000015258789</ele>
			<time>2014-04-13T10:34:50Z</time>
		</trkpt>
		<trkpt lat="54.0484733581543" lon="13.0497713088989">
			<ele>55.5</ele>
			<time>2014-04-13T10:34:51Z</time>
		</trkpt>
		<trkpt lat="54.0484619140625" lon="13.0498600006104">
			<ele>55.5999984741211</ele>
			<time>2014-04-13T10:34:52Z</time>
		</trkpt>
		<trkpt lat="54.0484428405762" lon="13.0499505996704">
			<ele>55.5</ele>
			<time>2014-04-13T10:34:53Z</time>
		</trkpt>
		<trkpt lat="54.0484275817871" lon="13.0500440597534">
			<ele>55.2999992370605</ele>
			<time>2014-04-13T10:34:54Z</time>
		</trkpt>
		<trkpt lat="54.0484085083008" lon="13.0501375198364">
			<ele>55.2999992370605</ele>
			<time>2014-04-13T10:34:55Z</time>
		</trkpt>
		<trkpt lat="54.0483856201172" lon="13.0502271652222">
			<ele>55.0999984741211</ele>
			<time>2014-04-13T10:34:56Z</time>
		</trkpt>
		<trkpt lat="54.0483665466309" lon="13.0503206253052">
			<ele>55</ele>
			<time>2014-04-13T10:34:57Z</time>
		</trkpt>
		<trkpt lat="54.0483436584473" lon="13.0504236221313">
			<ele>55.2999992370605</ele>
			<time>2014-04-13T10:34:58Z</time>
		</trkpt>
		<trkpt lat="54.0483169555664" lon="13.0505342483521">
			<ele>55.5999984741211</ele>
			<time>2014-04-13T10:34:59Z</time>
		</trkpt>
		<trkpt lat="54.0483055114746" lon="13.0506296157837">
			<ele>54.4000015258789</ele>
			<time>2014-04-13T10:35:00Z</time>
		</trkpt>
		<trkpt lat="54.0482902526855" lon="13.0507230758667">
			<ele>54.2000007629395</ele>
			<time>2014-04-13T10:35:01Z</time>
		</trkpt>
		<trkpt lat="54.0482711791992" lon="13.0508251190186">
			<ele>54.2999992370605</ele>
			<time>2014-04-13T10:35:02Z</time>
		</trkpt>
		<trkpt lat="54.0482559204102" lon="13.0509223937988">
			<ele>54</ele>
			<time>2014-04-13T10:35:03Z</time>
		</trkpt>
		<trkpt lat="54.0482482910156" lon="13.0510215759277">
			<ele>54.2999992370605</ele>
			<time>2014-04-13T10:35:04Z</time>
		</trkpt>
		<trkpt lat="54.0482406616211" lon="13.0511198043823">
			<ele>54.4000015258789</ele>
			<time>2014-04-13T10:35:05Z</time>
		</trkpt>
		<trkpt lat="54.0482368469238" lon="13.0512208938599">
			<ele>54.5</ele>
			<time>2014-04-13T10:35:06Z</time>
		</trkpt>
		<trkpt lat="54.0482444763184" lon="13.0513219833374">
			<ele>54.5999984741211</ele>
			<time>2014-04-13T10:35:07Z</time>
		</trkpt>
		<trkpt lat="54.0482482910156" lon="13.0514192581177">
			<ele>54.7999992370605</ele>
			<time>2014-04-13T10:35:08Z</time>
		</trkpt>
		<trkpt lat="54.0482597351074" lon="13.0515155792236">
			<ele>54.7999992370605</ele>
			<time>2014-04-13T10:35:09Z</time>
		</trkpt>
		<trkpt lat="54.048267364502" lon="13.0516109466553">
			<ele>54.7000007629395</ele>
			<time>2014-04-13T10:35:10Z</time>
		</trkpt>
		<trkpt lat="54.0482711791992" lon="13.0517082214355">
			<ele>54.5999984741211</ele>
			<time>2014-04-13T10:35:11Z</time>
		</trkpt>
		<trkpt lat="54.0482749938965" lon="13.0517959594727">
			<ele>54.7999992370605</ele>
			<time>2014-04-13T10:35:12Z</time>
		</trkpt>
		<trkpt lat="54.0482788085938" lon="13.05189037323">
			<ele>55.0999984741211</ele>
			<time>2014-04-13T10:35:13Z</time>
		</trkpt>
		<trkpt lat="54.0482864379883" lon="13.0519847869873">
			<ele>55</ele>
			<time>2014-04-13T10:35:14Z</time>
		</trkpt>
		<trkpt lat="54.0482902526855" lon="13.052074432373">
			<ele>55.0999984741211</ele>
			<time>2014-04-13T10:35:15Z</time>
		</trkpt>
		<trkpt lat="54.0482902526855" lon="13.0521621704102">
			<ele>54.9000015258789</ele>
			<time>2014-04-13T10:35:16Z</time>
		</trkpt>
		<trkpt lat="54.0482902526855" lon="13.0522546768188">
			<ele>55.5</ele>
			<time>2014-04-13T10:35:17Z</time>
		</trkpt>
		<trkpt lat="54.0482940673828" lon="13.0523452758789">
			<ele>55.5</ele>
			<time>2014-04-13T10:35:18Z</time>
		</trkpt>
		<trkpt lat="54.0482940673828" lon="13.052433013916">
			<ele>55.9000015258789</ele>
			<time>2014-04-13T10:35:19Z</time>
		</trkpt>
		<trkpt lat="54.0483016967773" lon="13.052526473999">
			<ele>56.4000015258789</ele>
			<time>2014-04-13T10:35:20Z</time>
		</trkpt>
		<trkpt lat="54.0483016967773" lon="13.0526142120361">
			<ele>56.5</ele>
			<time>2014-04-13T10:35:21Z</time>
		</trkpt>
		<trkpt lat="54.0482788085938" lon="13.0527458190918">
			<ele>59.5999984741211</ele>
			<time>2014-04-13T10:35:22Z</time>
		</trkpt>
		<trkpt lat="54.0482749938965" lon="13.0528554916382">
			<ele>60.2999992370605</ele>
			<time>2014-04-13T10:35:23Z</time>
		</trkpt>
		<trkpt lat="54.0482788085938" lon="13.05299949646">
			<ele>59.9000015258789</ele>
			<time>2014-04-13T10:35:25Z</time>
		</trkpt>
		<trkpt lat="54.0482749938965" lon="13.0530805587769">
			<ele>59.4000015258789</ele>
			<time>2014-04-13T10:35:26Z</time>
		</trkpt>
		<trkpt lat="54.0482711791992" lon="13.053168296814">
			<ele>59.7999992370605</ele>
			<time>2014-04-13T10:35:27Z</time>
		</trkpt>
		<trkpt lat="54.048267364502" lon="13.0532522201538">
			<ele>59.9000015258789</ele>
			<time>2014-04-13T10:35:28Z</time>
		</trkpt>
		<trkpt lat="54.0482635498047" lon="13.0533361434937">
			<ele>60</ele>
			<time>2014-04-13T10:35:29Z</time>
		</trkpt>
		<trkpt lat="54.0482597351074" lon="13.0534191131592">
			<ele>60</ele>
			<time>2014-04-13T10:35:30Z</time>
		</trkpt>
		<trkpt lat="54.0482597351074" lon="13.0535020828247">
			<ele>60.0999984741211</ele>
			<time>2014-04-13T10:35:31Z</time>
		</trkpt>
		<trkpt lat="54.0482559204102" lon="13.053581237793">
			<ele>60.0999984741211</ele>
			<time>2014-04-13T10:35:32Z</time>
		</trkpt>
		<trkpt lat="54.0482559204102" lon="13.0536594390869">
			<ele>59.7999992370605</ele>
			<time>2014-04-13T10:35:33Z</time>
		</trkpt>
		<trkpt lat="54.0482521057129" lon="13.0537366867065">
			<ele>60</ele>
			<time>2014-04-13T10:35:34Z</time>
		</trkpt>
		<trkpt lat="54.0482444763184" lon="13.0538129806519">
			<ele>60.4000015258789</ele>
			<time>2014-04-13T10:35:35Z</time>
		</trkpt>
		<trkpt lat="54.0482406616211" lon="13.0538911819458">
			<ele>60.2000007629395</ele>
			<time>2014-04-13T10:35:36Z</time>
		</trkpt>
		<trkpt lat="54.0482368469238" lon="13.0539712905884">
			<ele>60.0999984741211</ele>
			<time>2014-04-13T10:35:37Z</time>
		</trkpt>
		<trkpt lat="54.0482330322266" lon="13.0540552139282">
			<ele>59.7999992370605</ele>
			<time>2014-04-13T10:35:38Z</time>
		</trkpt>
		<trkpt lat="54.0482292175293" lon="13.0541381835938">
			<ele>59.7000007629395</ele>
			<time>2014-04-13T10:35:39Z</time>
		</trkpt>
		<trkpt lat="54.0482215881348" lon="13.054220199585">
			<ele>59.5999984741211</ele>
			<time>2014-04-13T10:35:40Z</time>
		</trkpt>
		<trkpt lat="54.0482177734375" lon="13.0543031692505">
			<ele>59.5</ele>
			<time>2014-04-13T10:35:41Z</time>
		</trkpt>
		<trkpt lat="54.048210144043" lon="13.0543823242188">
			<ele>59.2000007629395</ele>
			<time>2014-04-13T10:35:42Z</time>
		</trkpt>
		<trkpt lat="54.0482063293457" lon="13.0544700622559">
			<ele>59.2999992370605</ele>
			<time>2014-04-13T10:35:44Z</time>
		</trkpt>
		<trkpt lat="54.0482025146484" lon="13.0545558929443">
			<ele>59.4000015258789</ele>
			<time>2014-04-13T10:35:44Z</time>
		</trkpt>
		<trkpt lat="54.0481986999512" lon="13.0546360015869">
			<ele>59.7000007629395</ele>
			<time>2014-04-13T10:35:45Z</time>
		</trkpt>
		<trkpt lat="54.0481948852539" lon="13.0547151565552">
			<ele>59.5999984741211</ele>
			<time>2014-04-13T10:35:46Z</time>
		</trkpt>
		<trkpt lat="54.0481872558594" lon="13.0547914505005">
			<ele>59.5</ele>
			<time>2014-04-13T10:35:47Z</time>
		</trkpt>
		<trkpt lat="54.048152923584" lon="13.054931640625">
			<ele>59</ele>
			<time>2014-04-13T10:35:49Z</time>
		</trkpt>
		<trkpt lat="54.0481224060059" lon="13.0549879074097">
			<ele>58.7000007629395</ele>
			<time>2014-04-13T10:35:50Z</time>
		</trkpt>
		<trkpt lat="54.0480766296387" lon="13.0550098419189">
			<ele>58.7000007629395</ele>
			<time>2014-04-13T10:35:51Z</time>
		</trkpt>
		<trkpt lat="54.048023223877" lon="13.0550155639648">
			<ele>58.5999984741211</ele>
			<time>2014-04-13T10:35:52Z</time>
		</trkpt>
		<trkpt lat="54.0479698181152" lon="13.0549983978271">
			<ele>58.2000007629395</ele>
			<time>2014-04-13T10:35:53Z</time>
		</trkpt>
		<trkpt lat="54.0479125976563" lon="13.0549936294556">
			<ele>58.2000007629395</ele>
			<time>2014-04-13T10:35:54Z</time>
		</trkpt>
		<trkpt lat="54.0478591918945" lon="13.054988861084">
			<ele>58.2000007629395</ele>
			<time>2014-04-13T10:35:55Z</time>
		</trkpt>
		<trkpt lat="54.0478057861328" lon="13.0549736022949">
			<ele>57.7999992370605</ele>
			<time>2014-04-13T10:35:56Z</time>
		</trkpt>
		<trkpt lat="54.0477523803711" lon="13.0549592971802">
			<ele>57.4000015258789</ele>
			<time>2014-04-13T10:35:57Z</time>
		</trkpt>
		<trkpt lat="54.0476951599121" lon="13.0549459457397">
			<ele>57</ele>
			<time>2014-04-13T10:35:58Z</time>
		</trkpt>
		<trkpt lat="54.0476417541504" lon="13.0549345016479">
			<ele>57.7000007629395</ele>
			<time>2014-04-13T10:35:59Z</time>
		</trkpt>
		<trkpt lat="54.0475845336914" lon="13.0549335479736">
			<ele>57.7999992370605</ele>
			<time>2014-04-13T10:36:00Z</time>
		</trkpt>
		<trkpt lat="54.047534942627" lon="13.0549268722534">
			<ele>57.9000015258789</ele>
			<time>2014-04-13T10:36:01Z</time>
		</trkpt>
		<trkpt lat="54.0474853515625" lon="13.0549144744873">
			<ele>57.7999992370605</ele>
			<time>2014-04-13T10:36:02Z</time>
		</trkpt>
		<trkpt lat="54.0474319458008" lon="13.0549058914185">
			<ele>57.7999992370605</ele>
			<time>2014-04-13T10:36:03Z</time>
		</trkpt>
		<trkpt lat="54.0473785400391" lon="13.0548982620239">
			<ele>57.7000007629395</ele>
			<time>2014-04-13T10:36:04Z</time>
		</trkpt>
		<trkpt lat="54.0473213195801" lon="13.0548830032349">
			<ele>57.5</ele>
			<time>2014-04-13T10:36:05Z</time>
		</trkpt>
		<trkpt lat="54.0472640991211" lon="13.0548810958862">
			<ele>57.5999984741211</ele>
			<time>2014-04-13T10:36:06Z</time>
		</trkpt>
		<trkpt lat="54.0472145080566" lon="13.0548601150513">
			<ele>56.7999992370605</ele>
			<time>2014-04-13T10:36:07Z</time>
		</trkpt>
		<trkpt lat="54.0471458435059" lon="13.0548601150513">
			<ele>56.9000015258789</ele>
			<time>2014-04-13T10:36:08Z</time>
		</trkpt>
		<trkpt lat="54.0470924377441" lon="13.0548706054688">
			<ele>57.2999992370605</ele>
			<time>2014-04-13T10:36:09Z</time>
		</trkpt>
		<trkpt lat="54.0470352172852" lon="13.0548620223999">
			<ele>57.2000007629395</ele>
			<time>2014-04-13T10:36:10Z</time>
		</trkpt>
		<trkpt lat="54.0469856262207" lon="13.0548362731934">
			<ele>56.7000007629395</ele>
			<time>2014-04-13T10:36:11Z</time>
		</trkpt>
		<trkpt lat="54.0469284057617" lon="13.0548229217529">
			<ele>56.7999992370605</ele>
			<time>2014-04-13T10:36:12Z</time>
		</trkpt>
		<trkpt lat="54.0468711853027" lon="13.0548133850098">
			<ele>56.7999992370605</ele>
			<time>2014-04-13T10:36:13Z</time>
		</trkpt>
		<trkpt lat="54.0468139648438" lon="13.0548067092896">
			<ele>56.7000007629395</ele>
			<time>2014-04-13T10:36:14Z</time>
		</trkpt>
		<trkpt lat="54.0467567443848" lon="13.0548009872437">
			<ele>56.7999992370605</ele>
			<time>2014-04-13T10:36:15Z</time>
		</trkpt>
		<trkpt lat="54.0466995239258" lon="13.0547904968262">
			<ele>57.4000015258789</ele>
			<time>2014-04-13T10:36:16Z</time>
		</trkpt>
		<trkpt lat="54.0466384887695" lon="13.054780960083">
			<ele>57.4000015258789</ele>
			<time>2014-04-13T10:36:17Z</time>
		</trkpt>
		<trkpt lat="54.0465927124023" lon="13.054759979248">
			<ele>57.2999992370605</ele>
			<time>2014-04-13T10:36:18Z</time>
		</trkpt>
		<trkpt lat="54.0465354919434" lon="13.0547485351563">
			<ele>57.2999992370605</ele>
			<time>2014-04-13T10:36:19Z</time>
		</trkpt>
		<trkpt lat="54.0464782714844" lon="13.0547389984131">
			<ele>57</ele>
			<time>2014-04-13T10:36:20Z</time>
		</trkpt>
		<trkpt lat="54.0464248657227" lon="13.0547380447388">
			<ele>57.2999992370605</ele>
			<time>2014-04-13T10:36:21Z</time>
		</trkpt>
		<trkpt lat="54.0463714599609" lon="13.0547380447388">
			<ele>57.2000007629395</ele>
			<time>2014-04-13T10:36:22Z</time>
		</trkpt>
		<trkpt lat="54.0463180541992" lon="13.0547275543213">
			<ele>57.0999984741211</ele>
			<time>2014-04-13T10:36:23Z</time>
		</trkpt>
		<trkpt lat="54.0462684631348" lon="13.0547113418579">
			<ele>56.9000015258789</ele>
			<time>2014-04-13T10:36:24Z</time>
		</trkpt>
		<trkpt lat="54.0462112426758" lon="13.0547113418579">
			<ele>57</ele>
			<time>2014-04-13T10:36:25Z</time>
		</trkpt>
		<trkpt lat="54.0461578369141" lon="13.0546979904175">
			<ele>56.7999992370605</ele>
			<time>2014-04-13T10:36:26Z</time>
		</trkpt>
		<trkpt lat="54.0461082458496" lon="13.0546760559082">
			<ele>56.9000015258789</ele>
			<time>2014-04-13T10:36:27Z</time>
		</trkpt>
		<trkpt lat="54.0460548400879" lon="13.0546770095825">
			<ele>57</ele>
			<time>2014-04-13T10:36:28Z</time>
		</trkpt>
		<trkpt lat="54.0460052490234" lon="13.0546569824219">
			<ele>57</ele>
			<time>2014-04-13T10:36:29Z</time>
		</trkpt>
		<trkpt lat="54.0459442138672" lon="13.0546522140503">
			<ele>56.9000015258789</ele>
			<time>2014-04-13T10:36:30Z</time>
		</trkpt>
		<trkpt lat="54.0458946228027" lon="13.0546464920044">
			<ele>56.9000015258789</ele>
			<time>2014-04-13T10:36:31Z</time>
		</trkpt>
		<trkpt lat="54.0458488464355" lon="13.0546236038208">
			<ele>56.4000015258789</ele>
			<time>2014-04-13T10:36:32Z</time>
		</trkpt>
		<trkpt lat="54.0458030700684" lon="13.0546140670776">
			<ele>56.7999992370605</ele>
			<time>2014-04-13T10:36:33Z</time>
		</trkpt>
		<trkpt lat="54.0457534790039" lon="13.0546092987061">
			<ele>56.7000007629395</ele>
			<time>2014-04-13T10:36:34Z</time>
		</trkpt>
		<trkpt lat="54.0456962585449" lon="13.0546073913574">
			<ele>56.2999992370605</ele>
			<time>2014-04-13T10:36:35Z</time>
		</trkpt>
		<trkpt lat="54.0456466674805" lon="13.054594039917">
			<ele>56.5999984741211</ele>
			<time>2014-04-13T10:36:36Z</time>
		</trkpt>
		<trkpt lat="54.0455932617188" lon="13.0545883178711">
			<ele>56.7999992370605</ele>
			<time>2014-04-13T10:36:37Z</time>
		</trkpt>
		<trkpt lat="54.0455474853516" lon="13.0545778274536">
			<ele>56.7000007629395</ele>
			<time>2014-04-13T10:36:38Z</time>
		</trkpt>
		<trkpt lat="54.0454978942871" lon="13.0545597076416">
			<ele>56.9000015258789</ele>
			<time>2014-04-13T10:36:39Z</time>
		</trkpt>
		<trkpt lat="54.0454521179199" lon="13.054557800293">
			<ele>57.2000007629395</ele>
			<time>2014-04-13T10:36:40Z</time>
		</trkpt>
		<trkpt lat="54.0454025268555" lon="13.0545415878296">
			<ele>57</ele>
			<time>2014-04-13T10:36:41Z</time>
		</trkpt>
		<trkpt lat="54.045352935791" lon="13.0545330047607">
			<ele>57.0999984741211</ele>
			<time>2014-04-13T10:36:42Z</time>
		</trkpt>
		<trkpt lat="54.0452995300293" lon="13.0545339584351">
			<ele>57</ele>
			<time>2014-04-13T10:36:43Z</time>
		</trkpt>
		<trkpt lat="54.0452499389648" lon="13.0545253753662">
			<ele>57.4000015258789</ele>
			<time>2014-04-13T10:36:44Z</time>
		</trkpt>
		<trkpt lat="54.0452041625977" lon="13.0545091629028">
			<ele>57.2999992370605</ele>
			<time>2014-04-13T10:36:45Z</time>
		</trkpt>
		<trkpt lat="54.0451545715332" lon="13.0545091629028">
			<ele>57.0999984741211</ele>
			<time>2014-04-13T10:36:46Z</time>
		</trkpt>
		<trkpt lat="54.045108795166" lon="13.0545043945313">
			<ele>57</ele>
			<time>2014-04-13T10:36:47Z</time>
		</trkpt>
		<trkpt lat="54.0450630187988" lon="13.0545063018799">
			<ele>56.5</ele>
			<time>2014-04-13T10:36:48Z</time>
		</trkpt>
		<trkpt lat="54.0450172424316" lon="13.0544919967651">
			<ele>56.9000015258789</ele>
			<time>2014-04-13T10:36:49Z</time>
		</trkpt>
		<trkpt lat="54.0449638366699" lon="13.0544843673706">
			<ele>56.7999992370605</ele>
			<time>2014-04-13T10:36:50Z</time>
		</trkpt>
		<trkpt lat="54.0449142456055" lon="13.0544748306274">
			<ele>56.5999984741211</ele>
			<time>2014-04-13T10:36:51Z</time>
		</trkpt>
		<trkpt lat="54.0448226928711" lon="13.054461479187">
			<ele>57.2000007629395</ele>
			<time>2014-04-13T10:36:53Z</time>
		</trkpt>
		<trkpt lat="54.0447731018066" lon="13.0544548034668">
			<ele>57.7000007629395</ele>
			<time>2014-04-13T10:36:54Z</time>
		</trkpt>
		<trkpt lat="54.0447196960449" lon="13.0544471740723">
			<ele>57.5999984741211</ele>
			<time>2014-04-13T10:36:55Z</time>
		</trkpt>
		<trkpt lat="54.0446662902832" lon="13.0544376373291">
			<ele>57</ele>
			<time>2014-04-13T10:36:56Z</time>
		</trkpt>
		<trkpt lat="54.0446166992188" lon="13.0544404983521">
			<ele>57.2999992370605</ele>
			<time>2014-04-13T10:36:57Z</time>
		</trkpt>
		<trkpt lat="54.0445747375488" lon="13.0544404983521">
			<ele>57.7000007629395</ele>
			<time>2014-04-13T10:36:58Z</time>
		</trkpt>
		<trkpt lat="54.0445251464844" lon="13.0544309616089">
			<ele>57.7000007629395</ele>
			<time>2014-04-13T10:36:59Z</time>
		</trkpt>
		<trkpt lat="54.0444259643555" lon="13.0544214248657">
			<ele>57.7000007629395</ele>
			<time>2014-04-13T10:37:01Z</time>
		</trkpt>
		<trkpt lat="54.044376373291" lon="13.0544195175171">
			<ele>58.0999984741211</ele>
			<time>2014-04-13T10:37:02Z</time>
		</trkpt>
		<trkpt lat="54.0443305969238" lon="13.0543994903564">
			<ele>57.7999992370605</ele>
			<time>2014-04-13T10:37:04Z</time>
		</trkpt>
		<trkpt lat="54.0441513061523" lon="13.0543985366821">
			<ele>58.2999992370605</ele>
			<time>2014-04-13T10:37:10Z</time>
		</trkpt>
		<trkpt lat="54.0439414978027" lon="13.0545167922974">
			<ele>58.7999992370605</ele>
			<time>2014-04-13T10:37:11Z</time>
		</trkpt>
		<trkpt lat="54.0438919067383" lon="13.0545482635498">
			<ele>58.5</ele>
			<time>2014-04-13T10:37:12Z</time>
		</trkpt>
		<trkpt lat="54.0438385009766" lon="13.0545806884766">
			<ele>58.2000007629395</ele>
			<time>2014-04-13T10:37:13Z</time>
		</trkpt>
		<trkpt lat="54.0437850952148" lon="13.0546159744263">
			<ele>58.4000015258789</ele>
			<time>2014-04-13T10:37:14Z</time>
		</trkpt>
		<trkpt lat="54.0437316894531" lon="13.0546579360962">
			<ele>58.2000007629395</ele>
			<time>2014-04-13T10:37:15Z</time>
		</trkpt>
		<trkpt lat="54.0436782836914" lon="13.0546989440918">
			<ele>58.2999992370605</ele>
			<time>2014-04-13T10:37:16Z</time>
		</trkpt>
		<trkpt lat="54.0436325073242" lon="13.0547370910645">
			<ele>58.7999992370605</ele>
			<time>2014-04-13T10:37:17Z</time>
		</trkpt>
		<trkpt lat="54.043586730957" lon="13.0547733306885">
			<ele>58.5999984741211</ele>
			<time>2014-04-13T10:37:18Z</time>
		</trkpt>
		<trkpt lat="54.0435371398926" lon="13.0548009872437">
			<ele>58.4000015258789</ele>
			<time>2014-04-13T10:37:19Z</time>
		</trkpt>
		<trkpt lat="54.0434913635254" lon="13.0548238754272">
			<ele>58.9000015258789</ele>
			<time>2014-04-13T10:37:20Z</time>
		</trkpt>
		<trkpt lat="54.0434455871582" lon="13.0548458099365">
			<ele>59.2000007629395</ele>
			<time>2014-04-13T10:37:21Z</time>
		</trkpt>
		<trkpt lat="54.043399810791" lon="13.0548810958862">
			<ele>58.7000007629395</ele>
			<time>2014-04-13T10:37:22Z</time>
		</trkpt>
		<trkpt lat="54.0433502197266" lon="13.0549211502075">
			<ele>58.7000007629395</ele>
			<time>2014-04-13T10:37:23Z</time>
		</trkpt>
		<trkpt lat="54.0433044433594" lon="13.0549602508545">
			<ele>58</ele>
			<time>2014-04-13T10:37:24Z</time>
		</trkpt>
		<trkpt lat="54.0432548522949" lon="13.0549917221069">
			<ele>58</ele>
			<time>2014-04-13T10:37:25Z</time>
		</trkpt>
		<trkpt lat="54.0432014465332" lon="13.0550289154053">
			<ele>58.2000007629395</ele>
			<time>2014-04-13T10:37:26Z</time>
		</trkpt>
		<trkpt lat="54.043155670166" lon="13.055061340332">
			<ele>58.0999984741211</ele>
			<time>2014-04-13T10:37:27Z</time>
		</trkpt>
		<trkpt lat="54.0431060791016" lon="13.0550975799561">
			<ele>58.2999992370605</ele>
			<time>2014-04-13T10:37:28Z</time>
		</trkpt>
		<trkpt lat="54.0430526733398" lon="13.0551338195801">
			<ele>58.4000015258789</ele>
			<time>2014-04-13T10:37:29Z</time>
		</trkpt>
		<trkpt lat="54.0430030822754" lon="13.0551662445068">
			<ele>58.7000007629395</ele>
			<time>2014-04-13T10:37:30Z</time>
		</trkpt>
		<trkpt lat="54.0429573059082" lon="13.0552005767822">
			<ele>58.7000007629395</ele>
			<time>2014-04-13T10:37:31Z</time>
		</trkpt>
		<trkpt lat="54.042911529541" lon="13.0552320480347">
			<ele>58.4000015258789</ele>
			<time>2014-04-13T10:37:32Z</time>
		</trkpt>
		<trkpt lat="54.0428276062012" lon="13.0552864074707">
			<ele>58.5</ele>
			<time>2014-04-13T10:37:34Z</time>
		</trkpt>
		<trkpt lat="54.042781829834" lon="13.0553140640259">
			<ele>58.7999992370605</ele>
			<time>2014-04-13T10:37:35Z</time>
		</trkpt>
		<trkpt lat="54.0427322387695" lon="13.0553512573242">
			<ele>59.0999984741211</ele>
			<time>2014-04-13T10:37:36Z</time>
		</trkpt>
		<trkpt lat="54.0426902770996" lon="13.0553855895996">
			<ele>59</ele>
			<time>2014-04-13T10:37:37Z</time>
		</trkpt>
		<trkpt lat="54.0426483154297" lon="13.0554189682007">
			<ele>58.7000007629395</ele>
			<time>2014-04-13T10:37:38Z</time>
		</trkpt>
		<trkpt lat="54.0425987243652" lon="13.055456161499">
			<ele>58.7999992370605</ele>
			<time>2014-04-13T10:37:39Z</time>
		</trkpt>
		<trkpt lat="54.0425491333008" lon="13.0554790496826">
			<ele>59.0999984741211</ele>
			<time>2014-04-13T10:37:40Z</time>
		</trkpt>
		<trkpt lat="54.0425033569336" lon="13.0555086135864">
			<ele>58.7999992370605</ele>
			<time>2014-04-13T10:37:41Z</time>
		</trkpt>
		<trkpt lat="54.0424613952637" lon="13.0555381774902">
			<ele>59.4000015258789</ele>
			<time>2014-04-13T10:37:42Z</time>
		</trkpt>
		<trkpt lat="54.0424118041992" lon="13.0555763244629">
			<ele>59.0999984741211</ele>
			<time>2014-04-13T10:37:43Z</time>
		</trkpt>
		<trkpt lat="54.0423583984375" lon="13.055606842041">
			<ele>58.7000007629395</ele>
			<time>2014-04-13T10:37:44Z</time>
		</trkpt>
		<trkpt lat="54.0423164367676" lon="13.0556392669678">
			<ele>58.2999992370605</ele>
			<time>2014-04-13T10:37:45Z</time>
		</trkpt>
		<trkpt lat="54.0422668457031" lon="13.0556764602661">
			<ele>58.2999992370605</ele>
			<time>2014-04-13T10:37:46Z</time>
		</trkpt>
		<trkpt lat="54.0422210693359" lon="13.0557050704956">
			<ele>58.0999984741211</ele>
			<time>2014-04-13T10:37:47Z</time>
		</trkpt>
		<trkpt lat="54.0421676635742" lon="13.0557470321655">
			<ele>58.0999984741211</ele>
			<time>2014-04-13T10:37:48Z</time>
		</trkpt>
		<trkpt lat="54.0421180725098" lon="13.0557861328125">
			<ele>58.2999992370605</ele>
			<time>2014-04-13T10:37:49Z</time>
		</trkpt>
		<trkpt lat="54.0420684814453" lon="13.0558128356934">
			<ele>58.5999984741211</ele>
			<time>2014-04-13T10:37:50Z</time>
		</trkpt>
		<trkpt lat="54.0420150756836" lon="13.0558366775513">
			<ele>58.5999984741211</ele>
			<time>2014-04-13T10:37:51Z</time>
		</trkpt>
		<trkpt lat="54.0419616699219" lon="13.0558795928955">
			<ele>58</ele>
			<time>2014-04-13T10:37:52Z</time>
		</trkpt>
		<trkpt lat="54.0419158935547" lon="13.0559120178223">
			<ele>57.7000007629395</ele>
			<time>2014-04-13T10:37:53Z</time>
		</trkpt>
		<trkpt lat="54.0418663024902" lon="13.0559520721436">
			<ele>58.0999984741211</ele>
			<time>2014-04-13T10:37:54Z</time>
		</trkpt>
		<trkpt lat="54.0418090820313" lon="13.0559825897217">
			<ele>58.2000007629395</ele>
			<time>2014-04-13T10:37:55Z</time>
		</trkpt>
		<trkpt lat="54.0417633056641" lon="13.0560111999512">
			<ele>58</ele>
			<time>2014-04-13T10:37:56Z</time>
		</trkpt>
		<trkpt lat="54.0416984558105" lon="13.0560598373413">
			<ele>57.9000015258789</ele>
			<time>2014-04-13T10:37:57Z</time>
		</trkpt>
		<trkpt lat="54.0416450500488" lon="13.0561075210571">
			<ele>57.4000015258789</ele>
			<time>2014-04-13T10:37:58Z</time>
		</trkpt>
		<trkpt lat="54.0415954589844" lon="13.056134223938">
			<ele>57.7000007629395</ele>
			<time>2014-04-13T10:37:59Z</time>
		</trkpt>
		<trkpt lat="54.0415496826172" lon="13.0561742782593">
			<ele>57.2000007629395</ele>
			<time>2014-04-13T10:38:00Z</time>
		</trkpt>
		<trkpt lat="54.0414924621582" lon="13.0562162399292">
			<ele>57.0999984741211</ele>
			<time>2014-04-13T10:38:01Z</time>
		</trkpt>
		<trkpt lat="54.0414390563965" lon="13.0562629699707">
			<ele>57.2000007629395</ele>
			<time>2014-04-13T10:38:02Z</time>
		</trkpt>
		<trkpt lat="54.0413932800293" lon="13.056303024292">
			<ele>57</ele>
			<time>2014-04-13T10:38:03Z</time>
		</trkpt>
		<trkpt lat="54.0413398742676" lon="13.0563354492188">
			<ele>57.2000007629395</ele>
			<time>2014-04-13T10:38:04Z</time>
		</trkpt>
		<trkpt lat="54.0412902832031" lon="13.0563659667969">
			<ele>56.5999984741211</ele>
			<time>2014-04-13T10:38:05Z</time>
		</trkpt>
		<trkpt lat="54.0412330627441" lon="13.0563945770264">
			<ele>56.2999992370605</ele>
			<time>2014-04-13T10:38:06Z</time>
		</trkpt>
		<trkpt lat="54.041187286377" lon="13.0564212799072">
			<ele>55.7999992370605</ele>
			<time>2014-04-13T10:38:07Z</time>
		</trkpt>
		<trkpt lat="54.0411338806152" lon="13.0564527511597">
			<ele>56.0999984741211</ele>
			<time>2014-04-13T10:38:08Z</time>
		</trkpt>
		<trkpt lat="54.0410842895508" lon="13.0564975738525">
			<ele>56.0999984741211</ele>
			<time>2014-04-13T10:38:09Z</time>
		</trkpt>
		<trkpt lat="54.0410385131836" lon="13.0565414428711">
			<ele>56.2000007629395</ele>
			<time>2014-04-13T10:38:10Z</time>
		</trkpt>
		<trkpt lat="54.0409812927246" lon="13.0565776824951">
			<ele>56.0999984741211</ele>
			<time>2014-04-13T10:38:11Z</time>
		</trkpt>
		<trkpt lat="54.0409278869629" lon="13.0566129684448">
			<ele>55.7999992370605</ele>
			<time>2014-04-13T10:38:12Z</time>
		</trkpt>
		<trkpt lat="54.0408706665039" lon="13.0566473007202">
			<ele>56</ele>
			<time>2014-04-13T10:38:13Z</time>
		</trkpt>
		<trkpt lat="54.0408210754395" lon="13.0566740036011">
			<ele>55.9000015258789</ele>
			<time>2014-04-13T10:38:14Z</time>
		</trkpt>
		<trkpt lat="54.0407676696777" lon="13.0567026138306">
			<ele>56.0999984741211</ele>
			<time>2014-04-13T10:38:15Z</time>
		</trkpt>
		<trkpt lat="54.0407218933105" lon="13.0567388534546">
			<ele>55.5</ele>
			<time>2014-04-13T10:38:16Z</time>
		</trkpt>
		<trkpt lat="54.0406684875488" lon="13.0567646026611">
			<ele>55.2999992370605</ele>
			<time>2014-04-13T10:38:17Z</time>
		</trkpt>
		<trkpt lat="54.0406150817871" lon="13.0567989349365">
			<ele>55.2999992370605</ele>
			<time>2014-04-13T10:38:18Z</time>
		</trkpt>
		<trkpt lat="54.0405616760254" lon="13.0568227767944">
			<ele>55.7999992370605</ele>
			<time>2014-04-13T10:38:19Z</time>
		</trkpt>
		<trkpt lat="54.0405044555664" lon="13.0568542480469">
			<ele>56</ele>
			<time>2014-04-13T10:38:20Z</time>
		</trkpt>
		<trkpt lat="54.040454864502" lon="13.0568723678589">
			<ele>56</ele>
			<time>2014-04-13T10:38:21Z</time>
		</trkpt>
		<trkpt lat="54.0404052734375" lon="13.0568962097168">
			<ele>55.5999984741211</ele>
			<time>2014-04-13T10:38:22Z</time>
		</trkpt>
		<trkpt lat="54.0403480529785" lon="13.0569152832031">
			<ele>55.9000015258789</ele>
			<time>2014-04-13T10:38:23Z</time>
		</trkpt>
		<trkpt lat="54.0402984619141" lon="13.0569343566895">
			<ele>56.2999992370605</ele>
			<time>2014-04-13T10:38:24Z</time>
		</trkpt>
		<trkpt lat="54.0402526855469" lon="13.056957244873">
			<ele>56.2000007629395</ele>
			<time>2014-04-13T10:38:25Z</time>
		</trkpt>
		<trkpt lat="54.0402030944824" lon="13.056981086731">
			<ele>56.2000007629395</ele>
			<time>2014-04-13T10:38:26Z</time>
		</trkpt>
		<trkpt lat="54.0401458740234" lon="13.0570020675659">
			<ele>56.4000015258789</ele>
			<time>2014-04-13T10:38:27Z</time>
		</trkpt>
		<trkpt lat="54.0400924682617" lon="13.0570220947266">
			<ele>56.2999992370605</ele>
			<time>2014-04-13T10:38:28Z</time>
		</trkpt>
		<trkpt lat="54.0400466918945" lon="13.0570402145386">
			<ele>55.5999984741211</ele>
			<time>2014-04-13T10:38:29Z</time>
		</trkpt>
		<trkpt lat="54.0399932861328" lon="13.0570611953735">
			<ele>56.0999984741211</ele>
			<time>2014-04-13T10:38:30Z</time>
		</trkpt>
		<trkpt lat="54.0399398803711" lon="13.0570802688599">
			<ele>56.9000015258789</ele>
			<time>2014-04-13T10:38:31Z</time>
		</trkpt>
		<trkpt lat="54.0398864746094" lon="13.0570964813232">
			<ele>56.5999984741211</ele>
			<time>2014-04-13T10:38:32Z</time>
		</trkpt>
		<trkpt lat="54.0398368835449" lon="13.0571250915527">
			<ele>55.2000007629395</ele>
			<time>2014-04-13T10:38:33Z</time>
		</trkpt>
		<trkpt lat="54.0397872924805" lon="13.0571508407593">
			<ele>55.5999984741211</ele>
			<time>2014-04-13T10:38:34Z</time>
		</trkpt>
		<trkpt lat="54.0397300720215" lon="13.0571727752686">
			<ele>55.7999992370605</ele>
			<time>2014-04-13T10:38:35Z</time>
		</trkpt>
		<trkpt lat="54.0396690368652" lon="13.0571956634521">
			<ele>55.5999984741211</ele>
			<time>2014-04-13T10:38:36Z</time>
		</trkpt>
		<trkpt lat="54.0396194458008" lon="13.0572118759155">
			<ele>55.9000015258789</ele>
			<time>2014-04-13T10:38:37Z</time>
		</trkpt>
		<trkpt lat="54.0395660400391" lon="13.0572347640991">
			<ele>56.0999984741211</ele>
			<time>2014-04-13T10:38:38Z</time>
		</trkpt>
		<trkpt lat="54.0395088195801" lon="13.0572557449341">
			<ele>56.2999992370605</ele>
			<time>2014-04-13T10:38:39Z</time>
		</trkpt>
		<trkpt lat="54.0394554138184" lon="13.057276725769">
			<ele>56.5</ele>
			<time>2014-04-13T10:38:40Z</time>
		</trkpt>
		<trkpt lat="54.0394058227539" lon="13.0572900772095">
			<ele>56.7000007629395</ele>
			<time>2014-04-13T10:38:41Z</time>
		</trkpt>
		<trkpt lat="54.0393562316895" lon="13.0573053359985">
			<ele>57</ele>
			<time>2014-04-13T10:38:42Z</time>
		</trkpt>
		<trkpt lat="54.0393104553223" lon="13.0573301315308">
			<ele>56.5</ele>
			<time>2014-04-13T10:38:43Z</time>
		</trkpt>
		<trkpt lat="54.0392608642578" lon="13.0573606491089">
			<ele>56.4000015258789</ele>
			<time>2014-04-13T10:38:44Z</time>
		</trkpt>
		<trkpt lat="54.0392112731934" lon="13.0573854446411">
			<ele>56</ele>
			<time>2014-04-13T10:38:45Z</time>
		</trkpt>
		<trkpt lat="54.0391616821289" lon="13.0574054718018">
			<ele>56.4000015258789</ele>
			<time>2014-04-13T10:38:46Z</time>
		</trkpt>
		<trkpt lat="54.0391082763672" lon="13.057427406311">
			<ele>56.2000007629395</ele>
			<time>2014-04-13T10:38:47Z</time>
		</trkpt>
		<trkpt lat="54.0390586853027" lon="13.0574426651001">
			<ele>56.0999984741211</ele>
			<time>2014-04-13T10:38:48Z</time>
		</trkpt>
		<trkpt lat="54.039005279541" lon="13.0574617385864">
			<ele>56.2000007629395</ele>
			<time>2014-04-13T10:38:49Z</time>
		</trkpt>
		<trkpt lat="54.0389556884766" lon="13.0574779510498">
			<ele>56.5</ele>
			<time>2014-04-13T10:38:50Z</time>
		</trkpt>
		<trkpt lat="54.0388984680176" lon="13.0574998855591">
			<ele>56.5</ele>
			<time>2014-04-13T10:38:51Z</time>
		</trkpt>
		<trkpt lat="54.0388488769531" lon="13.0575227737427">
			<ele>57.2000007629395</ele>
			<time>2014-04-13T10:38:52Z</time>
		</trkpt>
		<trkpt lat="54.0387954711914" lon="13.0575475692749">
			<ele>57.2999992370605</ele>
			<time>2014-04-13T10:38:53Z</time>
		</trkpt>
		<trkpt lat="54.0387420654297" lon="13.0575656890869">
			<ele>57.2999992370605</ele>
			<time>2014-04-13T10:38:54Z</time>
		</trkpt>
		<trkpt lat="54.0386924743652" lon="13.0575904846191">
			<ele>56.2999992370605</ele>
			<time>2014-04-13T10:38:55Z</time>
		</trkpt>
		<trkpt lat="54.0386390686035" lon="13.0576133728027">
			<ele>56.2999992370605</ele>
			<time>2014-04-13T10:38:56Z</time>
		</trkpt>
		<trkpt lat="54.0385894775391" lon="13.0576276779175">
			<ele>57.0999984741211</ele>
			<time>2014-04-13T10:38:57Z</time>
		</trkpt>
		<trkpt lat="54.0385398864746" lon="13.057653427124">
			<ele>56.7000007629395</ele>
			<time>2014-04-13T10:38:58Z</time>
		</trkpt>
		<trkpt lat="54.0384902954102" lon="13.0576763153076">
			<ele>56.7999992370605</ele>
			<time>2014-04-13T10:38:59Z</time>
		</trkpt>
		<trkpt lat="54.0384407043457" lon="13.057689666748">
			<ele>56.5999984741211</ele>
			<time>2014-04-13T10:39:00Z</time>
		</trkpt>
		<trkpt lat="54.0383911132813" lon="13.0577049255371">
			<ele>57</ele>
			<time>2014-04-13T10:39:01Z</time>
		</trkpt>
		<trkpt lat="54.0383377075195" lon="13.0577259063721">
			<ele>56.7999992370605</ele>
			<time>2014-04-13T10:39:02Z</time>
		</trkpt>
		<trkpt lat="54.0382881164551" lon="13.0577459335327">
			<ele>56.5</ele>
			<time>2014-04-13T10:39:03Z</time>
		</trkpt>
		<trkpt lat="54.0382385253906" lon="13.0577669143677">
			<ele>56.5</ele>
			<time>2014-04-13T10:39:04Z</time>
		</trkpt>
		<trkpt lat="54.0381889343262" lon="13.0577821731567">
			<ele>56.4000015258789</ele>
			<time>2014-04-13T10:39:05Z</time>
		</trkpt>
		<trkpt lat="54.0381317138672" lon="13.0578079223633">
			<ele>56.9000015258789</ele>
			<time>2014-04-13T10:39:06Z</time>
		</trkpt>
		<trkpt lat="54.0380783081055" lon="13.0578346252441">
			<ele>57.0999984741211</ele>
			<time>2014-04-13T10:39:07Z</time>
		</trkpt>
		<trkpt lat="54.0380249023438" lon="13.0578498840332">
			<ele>56.9000015258789</ele>
			<time>2014-04-13T10:39:08Z</time>
		</trkpt>
		<trkpt lat="54.0379753112793" lon="13.0578718185425">
			<ele>56.2000007629395</ele>
			<time>2014-04-13T10:39:09Z</time>
		</trkpt>
		<trkpt lat="54.0379257202148" lon="13.0579013824463">
			<ele>56</ele>
			<time>2014-04-13T10:39:10Z</time>
		</trkpt>
		<trkpt lat="54.0378723144531" lon="13.0579214096069">
			<ele>56</ele>
			<time>2014-04-13T10:39:11Z</time>
		</trkpt>
		<trkpt lat="54.0378227233887" lon="13.0579414367676">
			<ele>55.7000007629395</ele>
			<time>2014-04-13T10:39:12Z</time>
		</trkpt>
		<trkpt lat="54.037769317627" lon="13.0579614639282">
			<ele>55.7999992370605</ele>
			<time>2014-04-13T10:39:13Z</time>
		</trkpt>
		<trkpt lat="54.037712097168" lon="13.0579833984375">
			<ele>55.7000007629395</ele>
			<time>2014-04-13T10:39:14Z</time>
		</trkpt>
		<trkpt lat="54.0376586914063" lon="13.0580034255981">
			<ele>55.9000015258789</ele>
			<time>2014-04-13T10:39:15Z</time>
		</trkpt>
		<trkpt lat="54.0376052856445" lon="13.0580234527588">
			<ele>55.7000007629395</ele>
			<time>2014-04-13T10:39:16Z</time>
		</trkpt>
		<trkpt lat="54.0375556945801" lon="13.0580406188965">
			<ele>56.2000007629395</ele>
			<time>2014-04-13T10:39:17Z</time>
		</trkpt>
		<trkpt lat="54.0375022888184" lon="13.0580606460571">
			<ele>56.2000007629395</ele>
			<time>2014-04-13T10:39:18Z</time>
		</trkpt>
		<trkpt lat="54.0374526977539" lon="13.058084487915">
			<ele>56.4000015258789</ele>
			<time>2014-04-13T10:39:19Z</time>
		</trkpt>
		<trkpt lat="54.0373954772949" lon="13.0581083297729">
			<ele>56.4000015258789</ele>
			<time>2014-04-13T10:39:20Z</time>
		</trkpt>
		<trkpt lat="54.0373497009277" lon="13.0581245422363">
			<ele>56.7000007629395</ele>
			<time>2014-04-13T10:39:21Z</time>
		</trkpt>
		<trkpt lat="54.037296295166" lon="13.0581588745117">
			<ele>56.7000007629395</ele>
			<time>2014-04-13T10:39:22Z</time>
		</trkpt>
		<trkpt lat="54.0372467041016" lon="13.0581836700439">
			<ele>56.9000015258789</ele>
			<time>2014-04-13T10:39:23Z</time>
		</trkpt>
		<trkpt lat="54.0371971130371" lon="13.0582027435303">
			<ele>56.7000007629395</ele>
			<time>2014-04-13T10:39:24Z</time>
		</trkpt>
		<trkpt lat="54.0371475219727" lon="13.0582389831543">
			<ele>56.7999992370605</ele>
			<time>2014-04-13T10:39:25Z</time>
		</trkpt>
		<trkpt lat="54.0370941162109" lon="13.0582828521729">
			<ele>57.2000007629395</ele>
			<time>2014-04-13T10:39:26Z</time>
		</trkpt>
		<trkpt lat="54.0370445251465" lon="13.0583200454712">
			<ele>57.0999984741211</ele>
			<time>2014-04-13T10:39:27Z</time>
		</trkpt>
		<trkpt lat="54.036994934082" lon="13.0583448410034">
			<ele>57.0999984741211</ele>
			<time>2014-04-13T10:39:28Z</time>
		</trkpt>
		<trkpt lat="54.0369491577148" lon="13.0583658218384">
			<ele>57.5</ele>
			<time>2014-04-13T10:39:29Z</time>
		</trkpt>
		<trkpt lat="54.0368919372559" lon="13.0583896636963">
			<ele>57.2000007629395</ele>
			<time>2014-04-13T10:39:30Z</time>
		</trkpt>
		<trkpt lat="54.0368423461914" lon="13.0584211349487">
			<ele>56.7999992370605</ele>
			<time>2014-04-13T10:39:31Z</time>
		</trkpt>
		<trkpt lat="54.0368003845215" lon="13.0584506988525">
			<ele>56.7999992370605</ele>
			<time>2014-04-13T10:39:32Z</time>
		</trkpt>
		<trkpt lat="54.036750793457" lon="13.058479309082">
			<ele>57.2999992370605</ele>
			<time>2014-04-13T10:39:33Z</time>
		</trkpt>
		<trkpt lat="54.0367012023926" lon="13.0585079193115">
			<ele>57.2999992370605</ele>
			<time>2014-04-13T10:39:34Z</time>
		</trkpt>
		<trkpt lat="54.0366516113281" lon="13.0585298538208">
			<ele>57.2000007629395</ele>
			<time>2014-04-13T10:39:35Z</time>
		</trkpt>
		<trkpt lat="54.0365982055664" lon="13.0585517883301">
			<ele>57.2999992370605</ele>
			<time>2014-04-13T10:39:36Z</time>
		</trkpt>
		<trkpt lat="54.0365524291992" lon="13.0585784912109">
			<ele>57.0999984741211</ele>
			<time>2014-04-13T10:39:37Z</time>
		</trkpt>
		<trkpt lat="54.0364990234375" lon="13.0586137771606">
			<ele>57.0999984741211</ele>
			<time>2014-04-13T10:39:38Z</time>
		</trkpt>
		<trkpt lat="54.036449432373" lon="13.058648109436">
			<ele>57.2999992370605</ele>
			<time>2014-04-13T10:39:39Z</time>
		</trkpt>
		<trkpt lat="54.0364036560059" lon="13.0586700439453">
			<ele>56.7000007629395</ele>
			<time>2014-04-13T10:39:40Z</time>
		</trkpt>
		<trkpt lat="54.0363540649414" lon="13.0586938858032">
			<ele>55.9000015258789</ele>
			<time>2014-04-13T10:39:41Z</time>
		</trkpt>
		<trkpt lat="54.0363082885742" lon="13.0587215423584">
			<ele>55.4000015258789</ele>
			<time>2014-04-13T10:39:42Z</time>
		</trkpt>
		<trkpt lat="54.0362548828125" lon="13.0587463378906">
			<ele>55.5999984741211</ele>
			<time>2014-04-13T10:39:43Z</time>
		</trkpt>
		<trkpt lat="54.036205291748" lon="13.0587759017944">
			<ele>55.4000015258789</ele>
			<time>2014-04-13T10:39:44Z</time>
		</trkpt>
		<trkpt lat="54.0361557006836" lon="13.0588092803955">
			<ele>55</ele>
			<time>2014-04-13T10:39:45Z</time>
		</trkpt>
		<trkpt lat="54.0361022949219" lon="13.0588426589966">
			<ele>55</ele>
			<time>2014-04-13T10:39:46Z</time>
		</trkpt>
		<trkpt lat="54.036060333252" lon="13.0588665008545">
			<ele>54.7999992370605</ele>
			<time>2014-04-13T10:39:47Z</time>
		</trkpt>
		<trkpt lat="54.0360069274902" lon="13.0588970184326">
			<ele>54.5</ele>
			<time>2014-04-13T10:39:48Z</time>
		</trkpt>
		<trkpt lat="54.035961151123" lon="13.0589208602905">
			<ele>54.5</ele>
			<time>2014-04-13T10:39:49Z</time>
		</trkpt>
		<trkpt lat="54.0359077453613" lon="13.0589466094971">
			<ele>54.5</ele>
			<time>2014-04-13T10:39:50Z</time>
		</trkpt>
		<trkpt lat="54.0358543395996" lon="13.0589752197266">
			<ele>54.2999992370605</ele>
			<time>2014-04-13T10:39:51Z</time>
		</trkpt>
		<trkpt lat="54.0358009338379" lon="13.0589952468872">
			<ele>54.2999992370605</ele>
			<time>2014-04-13T10:39:52Z</time>
		</trkpt>
		<trkpt lat="54.0357513427734" lon="13.0590209960938">
			<ele>54.0999984741211</ele>
			<time>2014-04-13T10:39:53Z</time>
		</trkpt>
		<trkpt lat="54.0356979370117" lon="13.0590562820435">
			<ele>54.4000015258789</ele>
			<time>2014-04-13T10:39:54Z</time>
		</trkpt>
		<trkpt lat="54.03564453125" lon="13.0590829849243">
			<ele>53.7999992370605</ele>
			<time>2014-04-13T10:39:55Z</time>
		</trkpt>
		<trkpt lat="54.0355949401855" lon="13.0591087341309">
			<ele>53.9000015258789</ele>
			<time>2014-04-13T10:39:56Z</time>
		</trkpt>
		<trkpt lat="54.0355453491211" lon="13.0591325759888">
			<ele>53.7000007629395</ele>
			<time>2014-04-13T10:39:57Z</time>
		</trkpt>
		<trkpt lat="54.0354919433594" lon="13.0591583251953">
			<ele>54</ele>
			<time>2014-04-13T10:39:58Z</time>
		</trkpt>
		<trkpt lat="54.0354385375977" lon="13.0591897964478">
			<ele>54</ele>
			<time>2014-04-13T10:39:59Z</time>
		</trkpt>
		<trkpt lat="54.0353775024414" lon="13.0592260360718">
			<ele>53.9000015258789</ele>
			<time>2014-04-13T10:40:00Z</time>
		</trkpt>
		<trkpt lat="54.035327911377" lon="13.0592555999756">
			<ele>54.0999984741211</ele>
			<time>2014-04-13T10:40:01Z</time>
		</trkpt>
		<trkpt lat="54.0352745056152" lon="13.0592880249023">
			<ele>53.7000007629395</ele>
			<time>2014-04-13T10:40:02Z</time>
		</trkpt>
		<trkpt lat="54.035228729248" lon="13.0593223571777">
			<ele>53.4000015258789</ele>
			<time>2014-04-13T10:40:03Z</time>
		</trkpt>
		<trkpt lat="54.0351753234863" lon="13.0593595504761">
			<ele>53</ele>
			<time>2014-04-13T10:40:04Z</time>
		</trkpt>
		<trkpt lat="54.0351257324219" lon="13.0593891143799">
			<ele>53</ele>
			<time>2014-04-13T10:40:05Z</time>
		</trkpt>
		<trkpt lat="54.0350761413574" lon="13.0594186782837">
			<ele>52.5999984741211</ele>
			<time>2014-04-13T10:40:06Z</time>
		</trkpt>
		<trkpt lat="54.0350189208984" lon="13.0594434738159">
			<ele>52.2000007629395</ele>
			<time>2014-04-13T10:40:07Z</time>
		</trkpt>
		<trkpt lat="54.0349655151367" lon="13.059476852417">
			<ele>51.7999992370605</ele>
			<time>2014-04-13T10:40:08Z</time>
		</trkpt>
		<trkpt lat="54.034912109375" lon="13.0595054626465">
			<ele>51.5999984741211</ele>
			<time>2014-04-13T10:40:09Z</time>
		</trkpt>
		<trkpt lat="54.0348625183105" lon="13.0595397949219">
			<ele>51.5</ele>
			<time>2014-04-13T10:40:10Z</time>
		</trkpt>
		<trkpt lat="54.0348129272461" lon="13.0595655441284">
			<ele>51.5</ele>
			<time>2014-04-13T10:40:11Z</time>
		</trkpt>
		<trkpt lat="54.0347633361816" lon="13.059606552124">
			<ele>51.7999992370605</ele>
			<time>2014-04-13T10:40:12Z</time>
		</trkpt>
		<trkpt lat="54.0347061157227" lon="13.0596313476563">
			<ele>52.2000007629395</ele>
			<time>2014-04-13T10:40:13Z</time>
		</trkpt>
		<trkpt lat="54.0346527099609" lon="13.0596647262573">
			<ele>52.5</ele>
			<time>2014-04-13T10:40:14Z</time>
		</trkpt>
		<trkpt lat="54.0345993041992" lon="13.0596914291382">
			<ele>52.2999992370605</ele>
			<time>2014-04-13T10:40:15Z</time>
		</trkpt>
		<trkpt lat="54.034553527832" lon="13.0597114562988">
			<ele>52.0999984741211</ele>
			<time>2014-04-13T10:40:16Z</time>
		</trkpt>
		<trkpt lat="54.0345001220703" lon="13.0597381591797">
			<ele>52.5999984741211</ele>
			<time>2014-04-13T10:40:17Z</time>
		</trkpt>
		<trkpt lat="54.0344505310059" lon="13.0597705841064">
			<ele>52.7000007629395</ele>
			<time>2014-04-13T10:40:18Z</time>
		</trkpt>
		<trkpt lat="54.0344009399414" lon="13.0597982406616">
			<ele>52.4000015258789</ele>
			<time>2014-04-13T10:40:19Z</time>
		</trkpt>
		<trkpt lat="54.034351348877" lon="13.0598287582397">
			<ele>51.9000015258789</ele>
			<time>2014-04-13T10:40:20Z</time>
		</trkpt>
		<trkpt lat="54.034294128418" lon="13.0598621368408">
			<ele>51.9000015258789</ele>
			<time>2014-04-13T10:40:21Z</time>
		</trkpt>
		<trkpt lat="54.0341987609863" lon="13.059907913208">
			<ele>52.4000015258789</ele>
			<time>2014-04-13T10:40:23Z</time>
		</trkpt>
		<trkpt lat="54.0341415405273" lon="13.0599346160889">
			<ele>52.5999984741211</ele>
			<time>2014-04-13T10:40:24Z</time>
		</trkpt>
		<trkpt lat="54.0340881347656" lon="13.0599584579468">
			<ele>52.9000015258789</ele>
			<time>2014-04-13T10:40:25Z</time>
		</trkpt>
		<trkpt lat="54.0340385437012" lon="13.0599880218506">
			<ele>53.0999984741211</ele>
			<time>2014-04-13T10:40:26Z</time>
		</trkpt>
		<trkpt lat="54.0339889526367" lon="13.0600233078003">
			<ele>52.9000015258789</ele>
			<time>2014-04-13T10:40:27Z</time>
		</trkpt>
		<trkpt lat="54.033935546875" lon="13.06005859375">
			<ele>52.9000015258789</ele>
			<time>2014-04-13T10:40:28Z</time>
		</trkpt>
		<trkpt lat="54.0338821411133" lon="13.0600862503052">
			<ele>53</ele>
			<time>2014-04-13T10:40:29Z</time>
		</trkpt>
		<trkpt lat="54.0338325500488" lon="13.0601139068604">
			<ele>52.7999992370605</ele>
			<time>2014-04-13T10:40:30Z</time>
		</trkpt>
		<trkpt lat="54.0337829589844" lon="13.0601444244385">
			<ele>52.7999992370605</ele>
			<time>2014-04-13T10:40:31Z</time>
		</trkpt>
		<trkpt lat="54.0337295532227" lon="13.0601682662964">
			<ele>52.9000015258789</ele>
			<time>2014-04-13T10:40:32Z</time>
		</trkpt>
		<trkpt lat="54.0336761474609" lon="13.0601997375488">
			<ele>52.9000015258789</ele>
			<time>2014-04-13T10:40:33Z</time>
		</trkpt>
		<trkpt lat="54.0336265563965" lon="13.0602235794067">
			<ele>53.0999984741211</ele>
			<time>2014-04-13T10:40:34Z</time>
		</trkpt>
		<trkpt lat="54.0335731506348" lon="13.0602540969849">
			<ele>53</ele>
			<time>2014-04-13T10:40:35Z</time>
		</trkpt>
		<trkpt lat="54.033519744873" lon="13.0602855682373">
			<ele>53.0999984741211</ele>
			<time>2014-04-13T10:40:36Z</time>
		</trkpt>
		<trkpt lat="54.0334739685059" lon="13.0603199005127">
			<ele>52.7999992370605</ele>
			<time>2014-04-13T10:40:37Z</time>
		</trkpt>
		<trkpt lat="54.0334205627441" lon="13.0603485107422">
			<ele>53.2000007629395</ele>
			<time>2014-04-13T10:40:38Z</time>
		</trkpt>
		<trkpt lat="54.0333671569824" lon="13.0603723526001">
			<ele>53.5</ele>
			<time>2014-04-13T10:40:39Z</time>
		</trkpt>
		<trkpt lat="54.0333099365234" lon="13.0604019165039">
			<ele>53.5</ele>
			<time>2014-04-13T10:40:40Z</time>
		</trkpt>
		<trkpt lat="54.0332527160645" lon="13.0604314804077">
			<ele>53.5</ele>
			<time>2014-04-13T10:40:41Z</time>
		</trkpt>
		<trkpt lat="54.0331993103027" lon="13.0604591369629">
			<ele>53.4000015258789</ele>
			<time>2014-04-13T10:40:42Z</time>
		</trkpt>
		<trkpt lat="54.033145904541" lon="13.0604820251465">
			<ele>53.2000007629395</ele>
			<time>2014-04-13T10:40:43Z</time>
		</trkpt>
		<trkpt lat="54.0330924987793" lon="13.0605096817017">
			<ele>53.2999992370605</ele>
			<time>2014-04-13T10:40:44Z</time>
		</trkpt>
		<trkpt lat="54.0330390930176" lon="13.0605373382568">
			<ele>53</ele>
			<time>2014-04-13T10:40:45Z</time>
		</trkpt>
		<trkpt lat="54.0329856872559" lon="13.0605611801147">
			<ele>53</ele>
			<time>2014-04-13T10:40:46Z</time>
		</trkpt>
		<trkpt lat="54.0329322814941" lon="13.0605850219727">
			<ele>53.4000015258789</ele>
			<time>2014-04-13T10:40:47Z</time>
		</trkpt>
		<trkpt lat="54.0328788757324" lon="13.0606155395508">
			<ele>53.5999984741211</ele>
			<time>2014-04-13T10:40:48Z</time>
		</trkpt>
		<trkpt lat="54.0328254699707" lon="13.060640335083">
			<ele>53.9000015258789</ele>
			<time>2014-04-13T10:40:49Z</time>
		</trkpt>
		<trkpt lat="54.032772064209" lon="13.0606660842896">
			<ele>53.7999992370605</ele>
			<time>2014-04-13T10:40:50Z</time>
		</trkpt>
		<trkpt lat="54.0327186584473" lon="13.0606880187988">
			<ele>53.5999984741211</ele>
			<time>2014-04-13T10:40:51Z</time>
		</trkpt>
		<trkpt lat="54.0326614379883" lon="13.0607061386108">
			<ele>53.2000007629395</ele>
			<time>2014-04-13T10:40:52Z</time>
		</trkpt>
		<trkpt lat="54.0326080322266" lon="13.0607175827026">
			<ele>53.2000007629395</ele>
			<time>2014-04-13T10:40:53Z</time>
		</trkpt>
		<trkpt lat="54.0325508117676" lon="13.0607261657715">
			<ele>53.2000007629395</ele>
			<time>2014-04-13T10:40:54Z</time>
		</trkpt>
		<trkpt lat="54.0324935913086" lon="13.0607328414917">
			<ele>53.0999984741211</ele>
			<time>2014-04-13T10:40:55Z</time>
		</trkpt>
		<trkpt lat="54.0324401855469" lon="13.0607490539551">
			<ele>53</ele>
			<time>2014-04-13T10:40:56Z</time>
		</trkpt>
		<trkpt lat="54.0323829650879" lon="13.0607595443726">
			<ele>52.7999992370605</ele>
			<time>2014-04-13T10:40:57Z</time>
		</trkpt>
		<trkpt lat="54.0323295593262" lon="13.0607719421387">
			<ele>52.5999984741211</ele>
			<time>2014-04-13T10:40:58Z</time>
		</trkpt>
		<trkpt lat="54.0322723388672" lon="13.0607872009277">
			<ele>52.2999992370605</ele>
			<time>2014-04-13T10:40:59Z</time>
		</trkpt>
		<trkpt lat="54.0322151184082" lon="13.0608024597168">
			<ele>51.5999984741211</ele>
			<time>2014-04-13T10:41:00Z</time>
		</trkpt>
		<trkpt lat="54.0321617126465" lon="13.0608158111572">
			<ele>51.5</ele>
			<time>2014-04-13T10:41:01Z</time>
		</trkpt>
		<trkpt lat="54.0321083068848" lon="13.0608205795288">
			<ele>51.7999992370605</ele>
			<time>2014-04-13T10:41:02Z</time>
		</trkpt>
		<trkpt lat="54.0320510864258" lon="13.060827255249">
			<ele>51.7999992370605</ele>
			<time>2014-04-13T10:41:03Z</time>
		</trkpt>
		<trkpt lat="54.0319976806641" lon="13.0608348846436">
			<ele>51.5999984741211</ele>
			<time>2014-04-13T10:41:04Z</time>
		</trkpt>
		<trkpt lat="54.0319442749023" lon="13.0608491897583">
			<ele>51.7000007629395</ele>
			<time>2014-04-13T10:41:05Z</time>
		</trkpt>
		<trkpt lat="54.0318870544434" lon="13.0608520507813">
			<ele>51.9000015258789</ele>
			<time>2014-04-13T10:41:06Z</time>
		</trkpt>
		<trkpt lat="54.0318298339844" lon="13.0608596801758">
			<ele>52</ele>
			<time>2014-04-13T10:41:07Z</time>
		</trkpt>
		<trkpt lat="54.0317726135254" lon="13.0608692169189">
			<ele>51.7999992370605</ele>
			<time>2014-04-13T10:41:08Z</time>
		</trkpt>
		<trkpt lat="54.0317192077637" lon="13.0608797073364">
			<ele>51.5999984741211</ele>
			<time>2014-04-13T10:41:09Z</time>
		</trkpt>
		<trkpt lat="54.031665802002" lon="13.0608882904053">
			<ele>51.5</ele>
			<time>2014-04-13T10:41:10Z</time>
		</trkpt>
		<trkpt lat="54.031608581543" lon="13.0608930587769">
			<ele>51.5</ele>
			<time>2014-04-13T10:41:11Z</time>
		</trkpt>
		<trkpt lat="54.0315551757813" lon="13.0609006881714">
			<ele>51.5</ele>
			<time>2014-04-13T10:41:12Z</time>
		</trkpt>
		<trkpt lat="54.0315017700195" lon="13.0609121322632">
			<ele>51.4000015258789</ele>
			<time>2014-04-13T10:41:13Z</time>
		</trkpt>
		<trkpt lat="54.0314445495605" lon="13.060923576355">
			<ele>51.2999992370605</ele>
			<time>2014-04-13T10:41:14Z</time>
		</trkpt>
		<trkpt lat="54.0313949584961" lon="13.0609321594238">
			<ele>51.5</ele>
			<time>2014-04-13T10:41:15Z</time>
		</trkpt>
		<trkpt lat="54.0313377380371" lon="13.0609436035156">
			<ele>51.5999984741211</ele>
			<time>2014-04-13T10:41:16Z</time>
		</trkpt>
		<trkpt lat="54.0312843322754" lon="13.0609550476074">
			<ele>51.5</ele>
			<time>2014-04-13T10:41:17Z</time>
		</trkpt>
		<trkpt lat="54.0312309265137" lon="13.0609607696533">
			<ele>51.4000015258789</ele>
			<time>2014-04-13T10:41:18Z</time>
		</trkpt>
		<trkpt lat="54.0311737060547" lon="13.0609798431396">
			<ele>51.5</ele>
			<time>2014-04-13T10:41:19Z</time>
		</trkpt>
		<trkpt lat="54.0311241149902" lon="13.0609827041626">
			<ele>51.5999984741211</ele>
			<time>2014-04-13T10:41:20Z</time>
		</trkpt>
		<trkpt lat="54.0310707092285" lon="13.0609941482544">
			<ele>51.5</ele>
			<time>2014-04-13T10:41:21Z</time>
		</trkpt>
		<trkpt lat="54.0310211181641" lon="13.0610074996948">
			<ele>51.7000007629395</ele>
			<time>2014-04-13T10:41:22Z</time>
		</trkpt>
		<trkpt lat="54.0309562683105" lon="13.061017036438">
			<ele>51.0999984741211</ele>
			<time>2014-04-13T10:41:23Z</time>
		</trkpt>
		<trkpt lat="54.0309028625488" lon="13.0610198974609">
			<ele>51.7000007629395</ele>
			<time>2014-04-13T10:41:24Z</time>
		</trkpt>
		<trkpt lat="54.0308456420898" lon="13.0610256195068">
			<ele>52.2999992370605</ele>
			<time>2014-04-13T10:41:25Z</time>
		</trkpt>
		<trkpt lat="54.0307922363281" lon="13.0610313415527">
			<ele>52.5999984741211</ele>
			<time>2014-04-13T10:41:26Z</time>
		</trkpt>
		<trkpt lat="54.0307312011719" lon="13.0610446929932">
			<ele>52.0999984741211</ele>
			<time>2014-04-13T10:41:27Z</time>
		</trkpt>
		<trkpt lat="54.0306777954102" lon="13.0610589981079">
			<ele>51.7999992370605</ele>
			<time>2014-04-13T10:41:28Z</time>
		</trkpt>
		<trkpt lat="54.0306205749512" lon="13.0610694885254">
			<ele>51.5999984741211</ele>
			<time>2014-04-13T10:41:29Z</time>
		</trkpt>
		<trkpt lat="54.0305595397949" lon="13.0610799789429">
			<ele>51.2999992370605</ele>
			<time>2014-04-13T10:41:30Z</time>
		</trkpt>
		<trkpt lat="54.0305023193359" lon="13.0610857009888">
			<ele>51.2000007629395</ele>
			<time>2014-04-13T10:41:31Z</time>
		</trkpt>
		<trkpt lat="54.030445098877" lon="13.0610933303833">
			<ele>51.5</ele>
			<time>2014-04-13T10:41:32Z</time>
		</trkpt>
		<trkpt lat="54.030387878418" lon="13.0610952377319">
			<ele>51.9000015258789</ele>
			<time>2014-04-13T10:41:33Z</time>
		</trkpt>
		<trkpt lat="54.030330657959" lon="13.0611085891724">
			<ele>51.5</ele>
			<time>2014-04-13T10:41:34Z</time>
		</trkpt>
		<trkpt lat="54.0302734375" lon="13.0611152648926">
			<ele>51.4000015258789</ele>
			<time>2014-04-13T10:41:35Z</time>
		</trkpt>
		<trkpt lat="54.030216217041" lon="13.0611305236816">
			<ele>51.4000015258789</ele>
			<time>2014-04-13T10:41:36Z</time>
		</trkpt>
		<trkpt lat="54.0301551818848" lon="13.0611391067505">
			<ele>51.2000007629395</ele>
			<time>2014-04-13T10:41:37Z</time>
		</trkpt>
		<trkpt lat="54.0300979614258" lon="13.0611438751221">
			<ele>51.2999992370605</ele>
			<time>2014-04-13T10:41:38Z</time>
		</trkpt>
		<trkpt lat="54.0300407409668" lon="13.0611553192139">
			<ele>51</ele>
			<time>2014-04-13T10:41:39Z</time>
		</trkpt>
		<trkpt lat="54.0299835205078" lon="13.06116771698">
			<ele>51</ele>
			<time>2014-04-13T10:41:40Z</time>
		</trkpt>
		<trkpt lat="54.0299263000488" lon="13.0611801147461">
			<ele>50.5999984741211</ele>
			<time>2014-04-13T10:41:41Z</time>
		</trkpt>
		<trkpt lat="54.0298690795898" lon="13.0611848831177">
			<ele>50.5</ele>
			<time>2014-04-13T10:41:42Z</time>
		</trkpt>
		<trkpt lat="54.0298080444336" lon="13.0611944198608">
			<ele>50.4000015258789</ele>
			<time>2014-04-13T10:41:43Z</time>
		</trkpt>
		<trkpt lat="54.0297508239746" lon="13.0612077713013">
			<ele>50.2999992370605</ele>
			<time>2014-04-13T10:41:44Z</time>
		</trkpt>
		<trkpt lat="54.0296936035156" lon="13.061222076416">
			<ele>50.2000007629395</ele>
			<time>2014-04-13T10:41:45Z</time>
		</trkpt>
		<trkpt lat="54.0296287536621" lon="13.0612363815308">
			<ele>50.2000007629395</ele>
			<time>2014-04-13T10:41:46Z</time>
		</trkpt>
		<trkpt lat="54.0295677185059" lon="13.0612487792969">
			<ele>50.0999984741211</ele>
			<time>2014-04-13T10:41:47Z</time>
		</trkpt>
		<trkpt lat="54.0295066833496" lon="13.0612621307373">
			<ele>50.0999984741211</ele>
			<time>2014-04-13T10:41:48Z</time>
		</trkpt>
		<trkpt lat="54.0294456481934" lon="13.0612716674805">
			<ele>50</ele>
			<time>2014-04-13T10:41:49Z</time>
		</trkpt>
		<trkpt lat="54.0293846130371" lon="13.0612821578979">
			<ele>50.0999984741211</ele>
			<time>2014-04-13T10:41:50Z</time>
		</trkpt>
		<trkpt lat="54.0293235778809" lon="13.06130027771">
			<ele>49.9000015258789</ele>
			<time>2014-04-13T10:41:51Z</time>
		</trkpt>
		<trkpt lat="54.0292587280273" lon="13.0613203048706">
			<ele>49.9000015258789</ele>
			<time>2014-04-13T10:41:52Z</time>
		</trkpt>
		<trkpt lat="54.0291976928711" lon="13.0613498687744">
			<ele>49.7999992370605</ele>
			<time>2014-04-13T10:41:53Z</time>
		</trkpt>
		<trkpt lat="54.0291404724121" lon="13.06139087677">
			<ele>49.5999984741211</ele>
			<time>2014-04-13T10:41:54Z</time>
		</trkpt>
		<trkpt lat="54.0290794372559" lon="13.0614385604858">
			<ele>49.7000007629395</ele>
			<time>2014-04-13T10:41:55Z</time>
		</trkpt>
		<trkpt lat="54.0290260314941" lon="13.0614833831787">
			<ele>49.7000007629395</ele>
			<time>2014-04-13T10:41:56Z</time>
		</trkpt>
		<trkpt lat="54.0289649963379" lon="13.0615301132202">
			<ele>49.7000007629395</ele>
			<time>2014-04-13T10:41:58Z</time>
		</trkpt>
		<trkpt lat="54.028865814209" lon="13.0616130828857">
			<ele>49.9000015258789</ele>
			<time>2014-04-13T10:42:00Z</time>
		</trkpt>
		<trkpt lat="54.028434753418" lon="13.061993598938">
			<ele>51.5</ele>
			<time>2014-04-13T10:42:10Z</time>
		</trkpt>
		<trkpt lat="54.0283737182617" lon="13.0620565414429">
			<ele>52</ele>
			<time>2014-04-13T10:42:12Z</time>
		</trkpt>
		<trkpt lat="54.0283088684082" lon="13.0621023178101">
			<ele>52.0999984741211</ele>
			<time>2014-04-13T10:42:14Z</time>
		</trkpt>
		<trkpt lat="54.0282325744629" lon="13.0621719360352">
			<ele>52.0999984741211</ele>
			<time>2014-04-13T10:42:16Z</time>
		</trkpt>
		<trkpt lat="54.0281639099121" lon="13.0622444152832">
			<ele>52.7000007629395</ele>
			<time>2014-04-13T10:42:18Z</time>
		</trkpt>
		<trkpt lat="54.0280876159668" lon="13.0623159408569">
			<ele>53.0999984741211</ele>
			<time>2014-04-13T10:42:20Z</time>
		</trkpt>
		<trkpt lat="54.0280532836914" lon="13.0623636245728">
			<ele>53.4000015258789</ele>
			<time>2014-04-13T10:42:21Z</time>
		</trkpt>
		<trkpt lat="54.0280113220215" lon="13.0623931884766">
			<ele>53.5999984741211</ele>
			<time>2014-04-13T10:42:22Z</time>
		</trkpt>
		<trkpt lat="54.0279693603516" lon="13.0624341964722">
			<ele>53.7000007629395</ele>
			<time>2014-04-13T10:42:23Z</time>
		</trkpt>
		<trkpt lat="54.0278968811035" lon="13.0625038146973">
			<ele>54.5999984741211</ele>
			<time>2014-04-13T10:42:26Z</time>
		</trkpt>
		<trkpt lat="54.0278244018555" lon="13.0625782012939">
			<ele>55</ele>
			<time>2014-04-13T10:42:27Z</time>
		</trkpt>
		<trkpt lat="54.0277442932129" lon="13.0626382827759">
			<ele>55.2000007629395</ele>
			<time>2014-04-13T10:42:29Z</time>
		</trkpt>
		<trkpt lat="54.027702331543" lon="13.0626754760742">
			<ele>55.0999984741211</ele>
			<time>2014-04-13T10:42:30Z</time>
		</trkpt>
		<trkpt lat="54.0276641845703" lon="13.0627117156982">
			<ele>55</ele>
			<time>2014-04-13T10:42:31Z</time>
		</trkpt>
		<trkpt lat="54.0276145935059" lon="13.0627508163452">
			<ele>55</ele>
			<time>2014-04-13T10:42:32Z</time>
		</trkpt>
		<trkpt lat="54.0275726318359" lon="13.0627880096436">
			<ele>55</ele>
			<time>2014-04-13T10:42:33Z</time>
		</trkpt>
		<trkpt lat="54.0274925231934" lon="13.0628576278687">
			<ele>55.2000007629395</ele>
			<time>2014-04-13T10:42:35Z</time>
		</trkpt>
		<trkpt lat="54.0274467468262" lon="13.0628938674927">
			<ele>55</ele>
			<time>2014-04-13T10:42:36Z</time>
		</trkpt>
		<trkpt lat="54.027400970459" lon="13.0629329681396">
			<ele>54.9000015258789</ele>
			<time>2014-04-13T10:42:37Z</time>
		</trkpt>
		<trkpt lat="54.0273551940918" lon="13.0629692077637">
			<ele>54.4000015258789</ele>
			<time>2014-04-13T10:42:38Z</time>
		</trkpt>
		<trkpt lat="54.0273017883301" lon="13.0630035400391">
			<ele>54.4000015258789</ele>
			<time>2014-04-13T10:42:39Z</time>
		</trkpt>
		<trkpt lat="54.0272521972656" lon="13.0630350112915">
			<ele>54.4000015258789</ele>
			<time>2014-04-13T10:42:40Z</time>
		</trkpt>
		<trkpt lat="54.0272064208984" lon="13.0630731582642">
			<ele>53.7000007629395</ele>
			<time>2014-04-13T10:42:41Z</time>
		</trkpt>
		<trkpt lat="54.0271530151367" lon="13.0631122589111">
			<ele>53.7000007629395</ele>
			<time>2014-04-13T10:42:42Z</time>
		</trkpt>
		<trkpt lat="54.027099609375" lon="13.0631408691406">
			<ele>53.5999984741211</ele>
			<time>2014-04-13T10:42:43Z</time>
		</trkpt>
		<trkpt lat="54.027042388916" lon="13.0631732940674">
			<ele>53.7000007629395</ele>
			<time>2014-04-13T10:42:44Z</time>
		</trkpt>
		<trkpt lat="54.0269889831543" lon="13.0632038116455">
			<ele>53.5999984741211</ele>
			<time>2014-04-13T10:42:45Z</time>
		</trkpt>
		<trkpt lat="54.0269355773926" lon="13.0632352828979">
			<ele>53.4000015258789</ele>
			<time>2014-04-13T10:42:46Z</time>
		</trkpt>
		<trkpt lat="54.0268783569336" lon="13.063271522522">
			<ele>53.5999984741211</ele>
			<time>2014-04-13T10:42:47Z</time>
		</trkpt>
		<trkpt lat="54.0268249511719" lon="13.063304901123">
			<ele>53.7000007629395</ele>
			<time>2014-04-13T10:42:48Z</time>
		</trkpt>
		<trkpt lat="54.0267715454102" lon="13.0633401870728">
			<ele>53.5</ele>
			<time>2014-04-13T10:42:49Z</time>
		</trkpt>
		<trkpt lat="54.0267143249512" lon="13.0633735656738">
			<ele>53.5</ele>
			<time>2014-04-13T10:42:50Z</time>
		</trkpt>
		<trkpt lat="54.0266571044922" lon="13.063404083252">
			<ele>53.4000015258789</ele>
			<time>2014-04-13T10:42:51Z</time>
		</trkpt>
		<trkpt lat="54.0265998840332" lon="13.0634288787842">
			<ele>53.0999984741211</ele>
			<time>2014-04-13T10:42:52Z</time>
		</trkpt>
		<trkpt lat="54.0265426635742" lon="13.063455581665">
			<ele>53</ele>
			<time>2014-04-13T10:42:53Z</time>
		</trkpt>
		<trkpt lat="54.0264854431152" lon="13.0634813308716">
			<ele>52.7999992370605</ele>
			<time>2014-04-13T10:42:54Z</time>
		</trkpt>
		<trkpt lat="54.0264282226563" lon="13.0635118484497">
			<ele>52.5999984741211</ele>
			<time>2014-04-13T10:42:55Z</time>
		</trkpt>
		<trkpt lat="54.0263748168945" lon="13.0635414123535">
			<ele>52.7000007629395</ele>
			<time>2014-04-13T10:42:56Z</time>
		</trkpt>
		<trkpt lat="54.0263175964355" lon="13.063570022583">
			<ele>52.5999984741211</ele>
			<time>2014-04-13T10:42:57Z</time>
		</trkpt>
		<trkpt lat="54.0262641906738" lon="13.0636014938354">
			<ele>52.5999984741211</ele>
			<time>2014-04-13T10:42:58Z</time>
		</trkpt>
		<trkpt lat="54.0262069702148" lon="13.0636329650879">
			<ele>51.9000015258789</ele>
			<time>2014-04-13T10:42:59Z</time>
		</trkpt>
		<trkpt lat="54.0261535644531" lon="13.0636625289917">
			<ele>52</ele>
			<time>2014-04-13T10:43:00Z</time>
		</trkpt>
		<trkpt lat="54.0260963439941" lon="13.0636911392212">
			<ele>51.7000007629395</ele>
			<time>2014-04-13T10:43:01Z</time>
		</trkpt>
		<trkpt lat="54.0260391235352" lon="13.0637197494507">
			<ele>51.5</ele>
			<time>2014-04-13T10:43:02Z</time>
		</trkpt>
		<trkpt lat="54.0259857177734" lon="13.0637474060059">
			<ele>51.4000015258789</ele>
			<time>2014-04-13T10:43:03Z</time>
		</trkpt>
		<trkpt lat="54.0259399414063" lon="13.063775062561">
			<ele>50.9000015258789</ele>
			<time>2014-04-13T10:43:04Z</time>
		</trkpt>
		<trkpt lat="54.0258903503418" lon="13.0637950897217">
			<ele>51.2000007629395</ele>
			<time>2014-04-13T10:43:05Z</time>
		</trkpt>
		<trkpt lat="54.0258407592773" lon="13.0638189315796">
			<ele>50.9000015258789</ele>
			<time>2014-04-13T10:43:06Z</time>
		</trkpt>
		<trkpt lat="54.0257911682129" lon="13.0638399124146">
			<ele>50.9000015258789</ele>
			<time>2014-04-13T10:43:07Z</time>
		</trkpt>
		<trkpt lat="54.0257415771484" lon="13.0638608932495">
			<ele>51.0999984741211</ele>
			<time>2014-04-13T10:43:08Z</time>
		</trkpt>
		<trkpt lat="54.0256881713867" lon="13.0638780593872">
			<ele>50.9000015258789</ele>
			<time>2014-04-13T10:43:09Z</time>
		</trkpt>
		<trkpt lat="54.0256385803223" lon="13.0639019012451">
			<ele>50.2999992370605</ele>
			<time>2014-04-13T10:43:10Z</time>
		</trkpt>
		<trkpt lat="54.0255889892578" lon="13.0639276504517">
			<ele>50.2000007629395</ele>
			<time>2014-04-13T10:43:11Z</time>
		</trkpt>
		<trkpt lat="54.0255432128906" lon="13.0639505386353">
			<ele>49.7999992370605</ele>
			<time>2014-04-13T10:43:12Z</time>
		</trkpt>
		<trkpt lat="54.0254936218262" lon="13.0639696121216">
			<ele>49.9000015258789</ele>
			<time>2014-04-13T10:43:13Z</time>
		</trkpt>
		<trkpt lat="54.0254516601563" lon="13.0639867782593">
			<ele>50.7000007629395</ele>
			<time>2014-04-13T10:43:14Z</time>
		</trkpt>
		<trkpt lat="54.0253601074219" lon="13.0640258789063">
			<ele>50.7000007629395</ele>
			<time>2014-04-13T10:43:16Z</time>
		</trkpt>
		<trkpt lat="54.0253143310547" lon="13.0640487670898">
			<ele>50.2999992370605</ele>
			<time>2014-04-13T10:43:17Z</time>
		</trkpt>
		<trkpt lat="54.0252227783203" lon="13.0640811920166">
			<ele>49.9000015258789</ele>
			<time>2014-04-13T10:43:19Z</time>
		</trkpt>
		<trkpt lat="54.0251808166504" lon="13.0641002655029">
			<ele>49.7000007629395</ele>
			<time>2014-04-13T10:43:20Z</time>
		</trkpt>
		<trkpt lat="54.0250930786133" lon="13.0641403198242">
			<ele>50.0999984741211</ele>
			<time>2014-04-13T10:43:22Z</time>
		</trkpt>
		<trkpt lat="54.0250473022461" lon="13.064154624939">
			<ele>49.7999992370605</ele>
			<time>2014-04-13T10:43:23Z</time>
		</trkpt>
		<trkpt lat="54.0250015258789" lon="13.064172744751">
			<ele>50.2000007629395</ele>
			<time>2014-04-13T10:43:24Z</time>
		</trkpt>
		<trkpt lat="54.0249137878418" lon="13.0642023086548">
			<ele>50.0999984741211</ele>
			<time>2014-04-13T10:43:26Z</time>
		</trkpt>
		<trkpt lat="54.024829864502" lon="13.0642375946045">
			<ele>50</ele>
			<time>2014-04-13T10:43:28Z</time>
		</trkpt>
		<trkpt lat="54.024787902832" lon="13.0642557144165">
			<ele>49.7999992370605</ele>
			<time>2014-04-13T10:43:29Z</time>
		</trkpt>
		<trkpt lat="54.0247001647949" lon="13.0642881393433">
			<ele>49.9000015258789</ele>
			<time>2014-04-13T10:43:31Z</time>
		</trkpt>
		<trkpt lat="54.024658203125" lon="13.0643129348755">
			<ele>49.5</ele>
			<time>2014-04-13T10:43:32Z</time>
		</trkpt>
		<trkpt lat="54.0245742797852" lon="13.0643453598022">
			<ele>49.5999984741211</ele>
			<time>2014-04-13T10:43:34Z</time>
		</trkpt>
		<trkpt lat="54.024486541748" lon="13.0643825531006">
			<ele>49.5</ele>
			<time>2014-04-13T10:43:36Z</time>
		</trkpt>
		<trkpt lat="54.0244445800781" lon="13.0643949508667">
			<ele>49.4000015258789</ele>
			<time>2014-04-13T10:43:37Z</time>
		</trkpt>
		<trkpt lat="54.0243606567383" lon="13.0644292831421">
			<ele>49.2999992370605</ele>
			<time>2014-04-13T10:43:39Z</time>
		</trkpt>
		<trkpt lat="54.0242805480957" lon="13.0644607543945">
			<ele>49.2000007629395</ele>
			<time>2014-04-13T10:43:41Z</time>
		</trkpt>
		<trkpt lat="54.0242004394531" lon="13.0644998550415">
			<ele>49.5</ele>
			<time>2014-04-13T10:43:43Z</time>
		</trkpt>
		<trkpt lat="54.0241165161133" lon="13.0645322799683">
			<ele>49.5</ele>
			<time>2014-04-13T10:43:45Z</time>
		</trkpt>
		<trkpt lat="54.0240325927734" lon="13.0645618438721">
			<ele>49.2000007629395</ele>
			<time>2014-04-13T10:43:47Z</time>
		</trkpt>
		<trkpt lat="54.0239486694336" lon="13.0645904541016">
			<ele>49.2000007629395</ele>
			<time>2014-04-13T10:43:49Z</time>
		</trkpt>
		<trkpt lat="54.0239028930664" lon="13.0646018981934">
			<ele>49</ele>
			<time>2014-04-13T10:43:50Z</time>
		</trkpt>
		<trkpt lat="54.0238151550293" lon="13.0646390914917">
			<ele>48.5</ele>
			<time>2014-04-13T10:43:52Z</time>
		</trkpt>
		<trkpt lat="54.0237426757813" lon="13.0646877288818">
			<ele>48.7000007629395</ele>
			<time>2014-04-13T10:43:54Z</time>
		</trkpt>
		<trkpt lat="54.0236930847168" lon="13.0647096633911">
			<ele>48.2000007629395</ele>
			<time>2014-04-13T10:43:55Z</time>
		</trkpt>
		<trkpt lat="54.0236511230469" lon="13.0647315979004">
			<ele>48.5</ele>
			<time>2014-04-13T10:43:56Z</time>
		</trkpt>
		<trkpt lat="54.023567199707" lon="13.0647668838501">
			<ele>48.4000015258789</ele>
			<time>2014-04-13T10:43:58Z</time>
		</trkpt>
		<trkpt lat="54.0234870910645" lon="13.0648021697998">
			<ele>48.5</ele>
			<time>2014-04-13T10:44:00Z</time>
		</trkpt>
		<trkpt lat="54.0234107971191" lon="13.0648288726807">
			<ele>48.2000007629395</ele>
			<time>2014-04-13T10:44:02Z</time>
		</trkpt>
		<trkpt lat="54.023323059082" lon="13.0648565292358">
			<ele>48.5999984741211</ele>
			<time>2014-04-13T10:44:04Z</time>
		</trkpt>
		<trkpt lat="54.0232391357422" lon="13.0648899078369">
			<ele>49.2000007629395</ele>
			<time>2014-04-13T10:44:06Z</time>
		</trkpt>
		<trkpt lat="54.0231552124023" lon="13.064920425415">
			<ele>49.2999992370605</ele>
			<time>2014-04-13T10:44:08Z</time>
		</trkpt>
		<trkpt lat="54.0230712890625" lon="13.0649652481079">
			<ele>48.7999992370605</ele>
			<time>2014-04-13T10:44:10Z</time>
		</trkpt>
		<trkpt lat="54.0229911804199" lon="13.0649995803833">
			<ele>48.2999992370605</ele>
			<time>2014-04-13T10:44:12Z</time>
		</trkpt>
		<trkpt lat="54.02294921875" lon="13.0650339126587">
			<ele>47.5999984741211</ele>
			<time>2014-04-13T10:44:13Z</time>
		</trkpt>
		<trkpt lat="54.0228614807129" lon="13.0650587081909">
			<ele>47.9000015258789</ele>
			<time>2014-04-13T10:44:15Z</time>
		</trkpt>
		<trkpt lat="54.022777557373" lon="13.0650959014893">
			<ele>47.7000007629395</ele>
			<time>2014-04-13T10:44:17Z</time>
		</trkpt>
		<trkpt lat="54.0226974487305" lon="13.0651359558105">
			<ele>47.7000007629395</ele>
			<time>2014-04-13T10:44:19Z</time>
		</trkpt>
		<trkpt lat="54.0226135253906" lon="13.0651655197144">
			<ele>47.9000015258789</ele>
			<time>2014-04-13T10:44:21Z</time>
		</trkpt>
		<trkpt lat="54.022533416748" lon="13.0651950836182">
			<ele>47.7000007629395</ele>
			<time>2014-04-13T10:44:23Z</time>
		</trkpt>
		<trkpt lat="54.0224494934082" lon="13.0652284622192">
			<ele>48.0999984741211</ele>
			<time>2014-04-13T10:44:25Z</time>
		</trkpt>
		<trkpt lat="54.0224075317383" lon="13.0652446746826">
			<ele>48.7999992370605</ele>
			<time>2014-04-13T10:44:26Z</time>
		</trkpt>
		<trkpt lat="54.0223197937012" lon="13.0652761459351">
			<ele>49.5999984741211</ele>
			<time>2014-04-13T10:44:28Z</time>
		</trkpt>
		<trkpt lat="54.0222663879395" lon="13.0652990341187">
			<ele>49.9000015258789</ele>
			<time>2014-04-13T10:44:29Z</time>
		</trkpt>
		<trkpt lat="54.0221824645996" lon="13.065333366394">
			<ele>49.7999992370605</ele>
			<time>2014-04-13T10:44:31Z</time>
		</trkpt>
		<trkpt lat="54.0220832824707" lon="13.0653715133667">
			<ele>50.4000015258789</ele>
			<time>2014-04-13T10:44:33Z</time>
		</trkpt>
		<trkpt lat="54.0219879150391" lon="13.0653972625732">
			<ele>51</ele>
			<time>2014-04-13T10:44:35Z</time>
		</trkpt>
		<trkpt lat="54.0219039916992" lon="13.0654296875">
			<ele>51.2000007629395</ele>
			<time>2014-04-13T10:44:37Z</time>
		</trkpt>
		<trkpt lat="54.0218162536621" lon="13.0654582977295">
			<ele>51.4000015258789</ele>
			<time>2014-04-13T10:44:39Z</time>
		</trkpt>
		<trkpt lat="54.0217704772949" lon="13.0654811859131">
			<ele>50.9000015258789</ele>
			<time>2014-04-13T10:44:40Z</time>
		</trkpt>
		<trkpt lat="54.0217208862305" lon="13.0654935836792">
			<ele>51</ele>
			<time>2014-04-13T10:44:41Z</time>
		</trkpt>
		<trkpt lat="54.0216407775879" lon="13.0655250549316">
			<ele>51.4000015258789</ele>
			<time>2014-04-13T10:44:43Z</time>
		</trkpt>
		<trkpt lat="54.0215950012207" lon="13.0655460357666">
			<ele>51.0999984741211</ele>
			<time>2014-04-13T10:44:44Z</time>
		</trkpt>
		<trkpt lat="54.0215110778809" lon="13.065580368042">
			<ele>50.7000007629395</ele>
			<time>2014-04-13T10:44:46Z</time>
		</trkpt>
		<trkpt lat="54.0214653015137" lon="13.0656003952026">
			<ele>51.2000007629395</ele>
			<time>2014-04-13T10:44:47Z</time>
		</trkpt>
		<trkpt lat="54.0214195251465" lon="13.0656175613403">
			<ele>51.0999984741211</ele>
			<time>2014-04-13T10:44:48Z</time>
		</trkpt>
		<trkpt lat="54.0213356018066" lon="13.0656480789185">
			<ele>51</ele>
			<time>2014-04-13T10:44:50Z</time>
		</trkpt>
		<trkpt lat="54.0212860107422" lon="13.0656642913818">
			<ele>51.2999992370605</ele>
			<time>2014-04-13T10:44:51Z</time>
		</trkpt>
		<trkpt lat="54.021240234375" lon="13.0656843185425">
			<ele>51.4000015258789</ele>
			<time>2014-04-13T10:44:52Z</time>
		</trkpt>
		<trkpt lat="54.0211944580078" lon="13.0657024383545">
			<ele>51.7000007629395</ele>
			<time>2014-04-13T10:44:53Z</time>
		</trkpt>
		<trkpt lat="54.0211067199707" lon="13.0657386779785">
			<ele>51.7000007629395</ele>
			<time>2014-04-13T10:44:55Z</time>
		</trkpt>
		<trkpt lat="54.0210266113281" lon="13.0657711029053">
			<ele>51.5999984741211</ele>
			<time>2014-04-13T10:44:57Z</time>
		</trkpt>
		<trkpt lat="54.0209846496582" lon="13.0657892227173">
			<ele>51.5</ele>
			<time>2014-04-13T10:44:58Z</time>
		</trkpt>
		<trkpt lat="54.0209007263184" lon="13.0658235549927">
			<ele>51.2000007629395</ele>
			<time>2014-04-13T10:45:00Z</time>
		</trkpt>
		<trkpt lat="54.0208168029785" lon="13.065863609314">
			<ele>51</ele>
			<time>2014-04-13T10:45:02Z</time>
		</trkpt>
		<trkpt lat="54.0207328796387" lon="13.0658988952637">
			<ele>51</ele>
			<time>2014-04-13T10:45:04Z</time>
		</trkpt>
		<trkpt lat="54.0206451416016" lon="13.0659379959106">
			<ele>51.2999992370605</ele>
			<time>2014-04-13T10:45:06Z</time>
		</trkpt>
		<trkpt lat="54.0205955505371" lon="13.0659551620483">
			<ele>51.0999984741211</ele>
			<time>2014-04-13T10:45:07Z</time>
		</trkpt>
		<trkpt lat="54.0205421447754" lon="13.065975189209">
			<ele>50.9000015258789</ele>
			<time>2014-04-13T10:45:08Z</time>
		</trkpt>
		<trkpt lat="54.0204582214355" lon="13.0660085678101">
			<ele>50.5</ele>
			<time>2014-04-13T10:45:10Z</time>
		</trkpt>
		<trkpt lat="54.0204162597656" lon="13.0660171508789">
			<ele>51</ele>
			<time>2014-04-13T10:45:11Z</time>
		</trkpt>
		<trkpt lat="54.0203666687012" lon="13.0660362243652">
			<ele>51.0999984741211</ele>
			<time>2014-04-13T10:45:12Z</time>
		</trkpt>
		<trkpt lat="54.0202789306641" lon="13.0660591125488">
			<ele>51.2999992370605</ele>
			<time>2014-04-13T10:45:14Z</time>
		</trkpt>
		<trkpt lat="54.0202331542969" lon="13.0660858154297">
			<ele>51.4000015258789</ele>
			<time>2014-04-13T10:45:15Z</time>
		</trkpt>
		<trkpt lat="54.0201873779297" lon="13.0661163330078">
			<ele>51.7000007629395</ele>
			<time>2014-04-13T10:45:16Z</time>
		</trkpt>
		<trkpt lat="54.0201377868652" lon="13.0661363601685">
			<ele>51.7000007629395</ele>
			<time>2014-04-13T10:45:17Z</time>
		</trkpt>
		<trkpt lat="54.020092010498" lon="13.0661497116089">
			<ele>51.4000015258789</ele>
			<time>2014-04-13T10:45:18Z</time>
		</trkpt>
		<trkpt lat="54.0200462341309" lon="13.0661716461182">
			<ele>51.0999984741211</ele>
			<time>2014-04-13T10:45:19Z</time>
		</trkpt>
		<trkpt lat="54.0200004577637" lon="13.0661916732788">
			<ele>50.9000015258789</ele>
			<time>2014-04-13T10:45:20Z</time>
		</trkpt>
		<trkpt lat="54.0199127197266" lon="13.0662279129028">
			<ele>50.7999992370605</ele>
			<time>2014-04-13T10:45:22Z</time>
		</trkpt>
		<trkpt lat="54.0198669433594" lon="13.0662508010864">
			<ele>50.7999992370605</ele>
			<time>2014-04-13T10:45:23Z</time>
		</trkpt>
		<trkpt lat="54.0197830200195" lon="13.0662775039673">
			<ele>50.9000015258789</ele>
			<time>2014-04-13T10:45:25Z</time>
		</trkpt>
		<trkpt lat="54.0196990966797" lon="13.0663146972656">
			<ele>50.9000015258789</ele>
			<time>2014-04-13T10:45:27Z</time>
		</trkpt>
		<trkpt lat="54.019603729248" lon="13.0663576126099">
			<ele>51</ele>
			<time>2014-04-13T10:45:29Z</time>
		</trkpt>
		<trkpt lat="54.0195159912109" lon="13.0663795471191">
			<ele>50.9000015258789</ele>
			<time>2014-04-13T10:45:31Z</time>
		</trkpt>
		<trkpt lat="54.0194358825684" lon="13.0664176940918">
			<ele>50.7999992370605</ele>
			<time>2014-04-13T10:45:33Z</time>
		</trkpt>
		<trkpt lat="54.0193862915039" lon="13.0664348602295">
			<ele>50.7999992370605</ele>
			<time>2014-04-13T10:45:34Z</time>
		</trkpt>
		<trkpt lat="54.0193405151367" lon="13.0664520263672">
			<ele>50.9000015258789</ele>
			<time>2014-04-13T10:45:35Z</time>
		</trkpt>
		<trkpt lat="54.0192947387695" lon="13.0664768218994">
			<ele>51</ele>
			<time>2014-04-13T10:45:36Z</time>
		</trkpt>
		<trkpt lat="54.0192489624023" lon="13.0664892196655">
			<ele>50.9000015258789</ele>
			<time>2014-04-13T10:45:37Z</time>
		</trkpt>
		<trkpt lat="54.0192031860352" lon="13.0665073394775">
			<ele>50.7999992370605</ele>
			<time>2014-04-13T10:45:38Z</time>
		</trkpt>
		<trkpt lat="54.019157409668" lon="13.0665283203125">
			<ele>51</ele>
			<time>2014-04-13T10:45:39Z</time>
		</trkpt>
		<trkpt lat="54.0191116333008" lon="13.0665502548218">
			<ele>51.2000007629395</ele>
			<time>2014-04-13T10:45:40Z</time>
		</trkpt>
		<trkpt lat="54.0190315246582" lon="13.0665740966797">
			<ele>51.2000007629395</ele>
			<time>2014-04-13T10:45:42Z</time>
		</trkpt>
		<trkpt lat="54.0189437866211" lon="13.0666151046753">
			<ele>51</ele>
			<time>2014-04-13T10:45:44Z</time>
		</trkpt>
		<trkpt lat="54.0188980102539" lon="13.0666303634644">
			<ele>51.0999984741211</ele>
			<time>2014-04-13T10:45:45Z</time>
		</trkpt>
		<trkpt lat="54.0188522338867" lon="13.0666484832764">
			<ele>51.4000015258789</ele>
			<time>2014-04-13T10:45:46Z</time>
		</trkpt>
		<trkpt lat="54.0188064575195" lon="13.0666618347168">
			<ele>51.4000015258789</ele>
			<time>2014-04-13T10:45:47Z</time>
		</trkpt>
		<trkpt lat="54.0187187194824" lon="13.066707611084">
			<ele>51.2999992370605</ele>
			<time>2014-04-13T10:45:49Z</time>
		</trkpt>
		<trkpt lat="54.0186729431152" lon="13.0667181015015">
			<ele>51.2999992370605</ele>
			<time>2014-04-13T10:45:50Z</time>
		</trkpt>
		<trkpt lat="54.018627166748" lon="13.0667362213135">
			<ele>51.5999984741211</ele>
			<time>2014-04-13T10:45:51Z</time>
		</trkpt>
		<trkpt lat="54.0185775756836" lon="13.06676197052">
			<ele>51.5</ele>
			<time>2014-04-13T10:45:52Z</time>
		</trkpt>
		<trkpt lat="54.0185241699219" lon="13.0667848587036">
			<ele>51.5</ele>
			<time>2014-04-13T10:45:53Z</time>
		</trkpt>
		<trkpt lat="54.018482208252" lon="13.0668067932129">
			<ele>51.5</ele>
			<time>2014-04-13T10:45:54Z</time>
		</trkpt>
		<trkpt lat="54.0184326171875" lon="13.0668315887451">
			<ele>51.5999984741211</ele>
			<time>2014-04-13T10:45:55Z</time>
		</trkpt>
		<trkpt lat="54.0183410644531" lon="13.066858291626">
			<ele>51.7000007629395</ele>
			<time>2014-04-13T10:45:57Z</time>
		</trkpt>
		<trkpt lat="54.0182914733887" lon="13.066876411438">
			<ele>51</ele>
			<time>2014-04-13T10:45:58Z</time>
		</trkpt>
		<trkpt lat="54.0182418823242" lon="13.0669012069702">
			<ele>51.0999984741211</ele>
			<time>2014-04-13T10:45:59Z</time>
		</trkpt>
		<trkpt lat="54.0181884765625" lon="13.0669221878052">
			<ele>52</ele>
			<time>2014-04-13T10:46:00Z</time>
		</trkpt>
		<trkpt lat="54.0181427001953" lon="13.0669412612915">
			<ele>51.7000007629395</ele>
			<time>2014-04-13T10:46:01Z</time>
		</trkpt>
		<trkpt lat="54.0180931091309" lon="13.0669612884521">
			<ele>51.7000007629395</ele>
			<time>2014-04-13T10:46:02Z</time>
		</trkpt>
		<trkpt lat="54.0180473327637" lon="13.0669765472412">
			<ele>52.2999992370605</ele>
			<time>2014-04-13T10:46:03Z</time>
		</trkpt>
		<trkpt lat="54.0179977416992" lon="13.0669937133789">
			<ele>52.5</ele>
			<time>2014-04-13T10:46:04Z</time>
		</trkpt>
		<trkpt lat="54.017951965332" lon="13.0670137405396">
			<ele>53</ele>
			<time>2014-04-13T10:46:05Z</time>
		</trkpt>
		<trkpt lat="54.0179061889648" lon="13.0670385360718">
			<ele>52.5</ele>
			<time>2014-04-13T10:46:06Z</time>
		</trkpt>
		<trkpt lat="54.0178565979004" lon="13.067066192627">
			<ele>52.2999992370605</ele>
			<time>2014-04-13T10:46:07Z</time>
		</trkpt>
		<trkpt lat="54.0178070068359" lon="13.0670909881592">
			<ele>52.2999992370605</ele>
			<time>2014-04-13T10:46:08Z</time>
		</trkpt>
		<trkpt lat="54.0177574157715" lon="13.0671100616455">
			<ele>52.2000007629395</ele>
			<time>2014-04-13T10:46:09Z</time>
		</trkpt>
		<trkpt lat="54.017707824707" lon="13.0671291351318">
			<ele>52.5999984741211</ele>
			<time>2014-04-13T10:46:10Z</time>
		</trkpt>
		<trkpt lat="54.0176620483398" lon="13.0671491622925">
			<ele>52.7999992370605</ele>
			<time>2014-04-13T10:46:11Z</time>
		</trkpt>
		<trkpt lat="54.0176124572754" lon="13.0671701431274">
			<ele>52.5</ele>
			<time>2014-04-13T10:46:12Z</time>
		</trkpt>
		<trkpt lat="54.0175628662109" lon="13.0671882629395">
			<ele>52.5999984741211</ele>
			<time>2014-04-13T10:46:13Z</time>
		</trkpt>
		<trkpt lat="54.0175094604492" lon="13.0672121047974">
			<ele>52.5999984741211</ele>
			<time>2014-04-13T10:46:15Z</time>
		</trkpt>
		<trkpt lat="54.0174217224121" lon="13.0672597885132">
			<ele>52.5</ele>
			<time>2014-04-13T10:46:19Z</time>
		</trkpt>
		<trkpt lat="54.0172233581543" lon="13.0673456192017">
			<ele>52.4000015258789</ele>
			<time>2014-04-13T10:46:23Z</time>
		</trkpt>
		<trkpt lat="54.0170822143555" lon="13.0673923492432">
			<ele>51.4000015258789</ele>
			<time>2014-04-13T10:46:27Z</time>
		</trkpt>
		<trkpt lat="54.0168113708496" lon="13.0674705505371">
			<ele>51</ele>
			<time>2014-04-13T10:46:28Z</time>
		</trkpt>
		<trkpt lat="54.0167617797852" lon="13.067497253418">
			<ele>51</ele>
			<time>2014-04-13T10:46:29Z</time>
		</trkpt>
		<trkpt lat="54.0167121887207" lon="13.0675106048584">
			<ele>50.5</ele>
			<time>2014-04-13T10:46:30Z</time>
		</trkpt>
		<trkpt lat="54.0166549682617" lon="13.0675354003906">
			<ele>50.5</ele>
			<time>2014-04-13T10:46:31Z</time>
		</trkpt>
		<trkpt lat="54.0166053771973" lon="13.0675649642944">
			<ele>50.5999984741211</ele>
			<time>2014-04-13T10:46:32Z</time>
		</trkpt>
		<trkpt lat="54.0165519714355" lon="13.067587852478">
			<ele>50.5999984741211</ele>
			<time>2014-04-13T10:46:33Z</time>
		</trkpt>
		<trkpt lat="54.0164985656738" lon="13.0676155090332">
			<ele>50.7000007629395</ele>
			<time>2014-04-13T10:46:34Z</time>
		</trkpt>
		<trkpt lat="54.0164451599121" lon="13.0676355361938">
			<ele>50</ele>
			<time>2014-04-13T10:46:35Z</time>
		</trkpt>
		<trkpt lat="54.0163917541504" lon="13.0676555633545">
			<ele>50.0999984741211</ele>
			<time>2014-04-13T10:46:36Z</time>
		</trkpt>
		<trkpt lat="54.0163345336914" lon="13.0676765441895">
			<ele>49.9000015258789</ele>
			<time>2014-04-13T10:46:37Z</time>
		</trkpt>
		<trkpt lat="54.0162811279297" lon="13.0677032470703">
			<ele>49.5</ele>
			<time>2014-04-13T10:46:38Z</time>
		</trkpt>
		<trkpt lat="54.0162239074707" lon="13.0677270889282">
			<ele>49.4000015258789</ele>
			<time>2014-04-13T10:46:39Z</time>
		</trkpt>
		<trkpt lat="54.0161781311035" lon="13.0677642822266">
			<ele>49.7999992370605</ele>
			<time>2014-04-13T10:46:40Z</time>
		</trkpt>
		<trkpt lat="54.0161247253418" lon="13.0678024291992">
			<ele>49.9000015258789</ele>
			<time>2014-04-13T10:46:41Z</time>
		</trkpt>
		<trkpt lat="54.0160789489746" lon="13.0678520202637">
			<ele>50</ele>
			<time>2014-04-13T10:46:42Z</time>
		</trkpt>
		<trkpt lat="54.0160293579102" lon="13.067910194397">
			<ele>50.2000007629395</ele>
			<time>2014-04-13T10:46:43Z</time>
		</trkpt>
		<trkpt lat="54.015983581543" lon="13.0679712295532">
			<ele>50.5</ele>
			<time>2014-04-13T10:46:44Z</time>
		</trkpt>
		<trkpt lat="54.0159492492676" lon="13.068042755127">
			<ele>50.5999984741211</ele>
			<time>2014-04-13T10:46:45Z</time>
		</trkpt>
		<trkpt lat="54.0159111022949" lon="13.0681104660034">
			<ele>50.7999992370605</ele>
			<time>2014-04-13T10:46:46Z</time>
		</trkpt>
		<trkpt lat="54.0158843994141" lon="13.0682001113892">
			<ele>50.5</ele>
			<time>2014-04-13T10:46:47Z</time>
		</trkpt>
		<trkpt lat="54.0158538818359" lon="13.0682783126831">
			<ele>49.9000015258789</ele>
			<time>2014-04-13T10:46:48Z</time>
		</trkpt>
		<trkpt lat="54.0158348083496" lon="13.0683784484863">
			<ele>50.2000007629395</ele>
			<time>2014-04-13T10:46:49Z</time>
		</trkpt>
		<trkpt lat="54.0158233642578" lon="13.068473815918">
			<ele>49.5</ele>
			<time>2014-04-13T10:46:50Z</time>
		</trkpt>
		<trkpt lat="54.0158042907715" lon="13.0685510635376">
			<ele>50.2000007629395</ele>
			<time>2014-04-13T10:46:51Z</time>
		</trkpt>
		<trkpt lat="54.0157928466797" lon="13.0686368942261">
			<ele>50.2999992370605</ele>
			<time>2014-04-13T10:46:52Z</time>
		</trkpt>
		<trkpt lat="54.0157814025879" lon="13.068751335144">
			<ele>50.7000007629395</ele>
			<time>2014-04-13T10:46:53Z</time>
		</trkpt>
		<trkpt lat="54.0157737731934" lon="13.0688495635986">
			<ele>50.5999984741211</ele>
			<time>2014-04-13T10:46:54Z</time>
		</trkpt>
		<trkpt lat="54.0157585144043" lon="13.0689449310303">
			<ele>50.2999992370605</ele>
			<time>2014-04-13T10:46:55Z</time>
		</trkpt>
		<trkpt lat="54.0157470703125" lon="13.0690498352051">
			<ele>50.2000007629395</ele>
			<time>2014-04-13T10:46:56Z</time>
		</trkpt>
		<trkpt lat="54.0157356262207" lon="13.0691432952881">
			<ele>50.5</ele>
			<time>2014-04-13T10:46:57Z</time>
		</trkpt>
		<trkpt lat="54.0157318115234" lon="13.0692453384399">
			<ele>50.5</ele>
			<time>2014-04-13T10:46:58Z</time>
		</trkpt>
		<trkpt lat="54.0157279968262" lon="13.0693492889404">
			<ele>50.5</ele>
			<time>2014-04-13T10:46:59Z</time>
		</trkpt>
		<trkpt lat="54.0157279968262" lon="13.069447517395">
			<ele>51</ele>
			<time>2014-04-13T10:47:00Z</time>
		</trkpt>
		<trkpt lat="54.0157241821289" lon="13.0695543289185">
			<ele>51.0999984741211</ele>
			<time>2014-04-13T10:47:01Z</time>
		</trkpt>
		<trkpt lat="54.0157203674316" lon="13.0696630477905">
			<ele>51.0999984741211</ele>
			<time>2014-04-13T10:47:02Z</time>
		</trkpt>
		<trkpt lat="54.0157165527344" lon="13.0697641372681">
			<ele>50.9000015258789</ele>
			<time>2014-04-13T10:47:03Z</time>
		</trkpt>
		<trkpt lat="54.0157203674316" lon="13.0698671340942">
			<ele>50.7000007629395</ele>
			<time>2014-04-13T10:47:04Z</time>
		</trkpt>
		<trkpt lat="54.0157279968262" lon="13.0699615478516">
			<ele>50.2000007629395</ele>
			<time>2014-04-13T10:47:05Z</time>
		</trkpt>
		<trkpt lat="54.0157432556152" lon="13.0700597763062">
			<ele>50.4000015258789</ele>
			<time>2014-04-13T10:47:06Z</time>
		</trkpt>
		<trkpt lat="54.0157508850098" lon="13.0701627731323">
			<ele>50.2999992370605</ele>
			<time>2014-04-13T10:47:07Z</time>
		</trkpt>
		<trkpt lat="54.015754699707" lon="13.0702638626099">
			<ele>50.0999984741211</ele>
			<time>2014-04-13T10:47:08Z</time>
		</trkpt>
		<trkpt lat="54.0157623291016" lon="13.0703649520874">
			<ele>50.2999992370605</ele>
			<time>2014-04-13T10:47:09Z</time>
		</trkpt>
		<trkpt lat="54.0157661437988" lon="13.0704708099365">
			<ele>50</ele>
			<time>2014-04-13T10:47:10Z</time>
		</trkpt>
		<trkpt lat="54.0157699584961" lon="13.0705728530884">
			<ele>50.0999984741211</ele>
			<time>2014-04-13T10:47:11Z</time>
		</trkpt>
		<trkpt lat="54.0157814025879" lon="13.0706768035889">
			<ele>50.0999984741211</ele>
			<time>2014-04-13T10:47:12Z</time>
		</trkpt>
		<trkpt lat="54.0157852172852" lon="13.070779800415">
			<ele>49.9000015258789</ele>
			<time>2014-04-13T10:47:13Z</time>
		</trkpt>
		<trkpt lat="54.015796661377" lon="13.0708808898926">
			<ele>49.9000015258789</ele>
			<time>2014-04-13T10:47:14Z</time>
		</trkpt>
		<trkpt lat="54.0158042907715" lon="13.0709838867188">
			<ele>50.0999984741211</ele>
			<time>2014-04-13T10:47:15Z</time>
		</trkpt>
		<trkpt lat="54.015811920166" lon="13.0710868835449">
			<ele>49.9000015258789</ele>
			<time>2014-04-13T10:47:16Z</time>
		</trkpt>
		<trkpt lat="54.0158157348633" lon="13.0711879730225">
			<ele>49.7000007629395</ele>
			<time>2014-04-13T10:47:17Z</time>
		</trkpt>
		<trkpt lat="54.0158233642578" lon="13.0712938308716">
			<ele>49.7000007629395</ele>
			<time>2014-04-13T10:47:18Z</time>
		</trkpt>
		<trkpt lat="54.0158309936523" lon="13.0714025497437">
			<ele>49.4000015258789</ele>
			<time>2014-04-13T10:47:19Z</time>
		</trkpt>
		<trkpt lat="54.0158386230469" lon="13.071515083313">
			<ele>49.2999992370605</ele>
			<time>2014-04-13T10:47:20Z</time>
		</trkpt>
		<trkpt lat="54.0158424377441" lon="13.0716209411621">
			<ele>49</ele>
			<time>2014-04-13T10:47:21Z</time>
		</trkpt>
		<trkpt lat="54.0158538818359" lon="13.0717325210571">
			<ele>49.7999992370605</ele>
			<time>2014-04-13T10:47:22Z</time>
		</trkpt>
		<trkpt lat="54.0158615112305" lon="13.0718336105347">
			<ele>49.2999992370605</ele>
			<time>2014-04-13T10:47:23Z</time>
		</trkpt>
		<trkpt lat="54.0158653259277" lon="13.0719442367554">
			<ele>49.2000007629395</ele>
			<time>2014-04-13T10:47:24Z</time>
		</trkpt>
		<trkpt lat="54.0158729553223" lon="13.0720548629761">
			<ele>49.2000007629395</ele>
			<time>2014-04-13T10:47:25Z</time>
		</trkpt>
		<trkpt lat="54.0158805847168" lon="13.0721645355225">
			<ele>49.2000007629395</ele>
			<time>2014-04-13T10:47:26Z</time>
		</trkpt>
		<trkpt lat="54.0158843994141" lon="13.0722818374634">
			<ele>48.7000007629395</ele>
			<time>2014-04-13T10:47:27Z</time>
		</trkpt>
		<trkpt lat="54.0158882141113" lon="13.0723934173584">
			<ele>48.7999992370605</ele>
			<time>2014-04-13T10:47:28Z</time>
		</trkpt>
		<trkpt lat="54.0158920288086" lon="13.0725011825562">
			<ele>48.7000007629395</ele>
			<time>2014-04-13T10:47:29Z</time>
		</trkpt>
		<trkpt lat="54.0159034729004" lon="13.072606086731">
			<ele>48.7999992370605</ele>
			<time>2014-04-13T10:47:30Z</time>
		</trkpt>
		<trkpt lat="54.0159072875977" lon="13.0727205276489">
			<ele>49.0999984741211</ele>
			<time>2014-04-13T10:47:31Z</time>
		</trkpt>
		<trkpt lat="54.0159149169922" lon="13.0728254318237">
			<ele>49.4000015258789</ele>
			<time>2014-04-13T10:47:32Z</time>
		</trkpt>
		<trkpt lat="54.0159187316895" lon="13.0729293823242">
			<ele>49.4000015258789</ele>
			<time>2014-04-13T10:47:33Z</time>
		</trkpt>
		<trkpt lat="54.015926361084" lon="13.0730352401733">
			<ele>49.5</ele>
			<time>2014-04-13T10:47:34Z</time>
		</trkpt>
		<trkpt lat="54.0159339904785" lon="13.0731534957886">
			<ele>49.5999984741211</ele>
			<time>2014-04-13T10:47:35Z</time>
		</trkpt>
		<trkpt lat="54.015941619873" lon="13.0732583999634">
			<ele>49.5</ele>
			<time>2014-04-13T10:47:36Z</time>
		</trkpt>
		<trkpt lat="54.0159454345703" lon="13.0733699798584">
			<ele>49.2999992370605</ele>
			<time>2014-04-13T10:47:37Z</time>
		</trkpt>
		<trkpt lat="54.0159492492676" lon="13.0734786987305">
			<ele>49</ele>
			<time>2014-04-13T10:47:39Z</time>
		</trkpt>
		<trkpt lat="54.0159568786621" lon="13.0735836029053">
			<ele>48.5999984741211</ele>
			<time>2014-04-13T10:47:39Z</time>
		</trkpt>
		<trkpt lat="54.0159568786621" lon="13.0737161636353">
			<ele>49.2999992370605</ele>
			<time>2014-04-13T10:47:43Z</time>
		</trkpt>
		<trkpt lat="54.0159912109375" lon="13.074104309082">
			<ele>46.9000015258789</ele>
			<time>2014-04-13T10:47:47Z</time>
		</trkpt>
		<trkpt lat="54.0160140991211" lon="13.0744428634644">
			<ele>48.7000007629395</ele>
			<time>2014-04-13T10:47:48Z</time>
		</trkpt>
		<trkpt lat="54.0160217285156" lon="13.0745525360107">
			<ele>49.2999992370605</ele>
			<time>2014-04-13T10:47:49Z</time>
		</trkpt>
		<trkpt lat="54.0160331726074" lon="13.0747709274292">
			<ele>49.2000007629395</ele>
			<time>2014-04-13T10:47:50Z</time>
		</trkpt>
		<trkpt lat="54.016040802002" lon="13.0748834609985">
			<ele>49.4000015258789</ele>
			<time>2014-04-13T10:47:52Z</time>
		</trkpt>
		<trkpt lat="54.0160484313965" lon="13.0749979019165">
			<ele>49.5</ele>
			<time>2014-04-13T10:47:52Z</time>
		</trkpt>
		<trkpt lat="54.0160522460938" lon="13.0751075744629">
			<ele>49.4000015258789</ele>
			<time>2014-04-13T10:47:53Z</time>
		</trkpt>
		<trkpt lat="54.0160598754883" lon="13.0752210617065">
			<ele>49.5</ele>
			<time>2014-04-13T10:47:54Z</time>
		</trkpt>
		<trkpt lat="54.0160675048828" lon="13.0753412246704">
			<ele>49.4000015258789</ele>
			<time>2014-04-13T10:47:55Z</time>
		</trkpt>
		<trkpt lat="54.0160713195801" lon="13.0754547119141">
			<ele>49.2999992370605</ele>
			<time>2014-04-13T10:47:56Z</time>
		</trkpt>
		<trkpt lat="54.0160751342773" lon="13.0755643844604">
			<ele>49.5999984741211</ele>
			<time>2014-04-13T10:47:57Z</time>
		</trkpt>
		<trkpt lat="54.0160789489746" lon="13.0756750106812">
			<ele>49.5</ele>
			<time>2014-04-13T10:47:58Z</time>
		</trkpt>
		<trkpt lat="54.0160865783691" lon="13.0757875442505">
			<ele>49.5</ele>
			<time>2014-04-13T10:47:59Z</time>
		</trkpt>
		<trkpt lat="54.0160980224609" lon="13.0758981704712">
			<ele>49.5999984741211</ele>
			<time>2014-04-13T10:48:00Z</time>
		</trkpt>
		<trkpt lat="54.0161018371582" lon="13.0760173797607">
			<ele>49.9000015258789</ele>
			<time>2014-04-13T10:48:01Z</time>
		</trkpt>
		<trkpt lat="54.0161094665527" lon="13.0761232376099">
			<ele>49.4000015258789</ele>
			<time>2014-04-13T10:48:02Z</time>
		</trkpt>
		<trkpt lat="54.01611328125" lon="13.0762395858765">
			<ele>49.7000007629395</ele>
			<time>2014-04-13T10:48:03Z</time>
		</trkpt>
		<trkpt lat="54.0161170959473" lon="13.0763549804688">
			<ele>49.7999992370605</ele>
			<time>2014-04-13T10:48:04Z</time>
		</trkpt>
		<trkpt lat="54.0161247253418" lon="13.0764675140381">
			<ele>50.0999984741211</ele>
			<time>2014-04-13T10:48:05Z</time>
		</trkpt>
		<trkpt lat="54.0161361694336" lon="13.0765838623047">
			<ele>50</ele>
			<time>2014-04-13T10:48:06Z</time>
		</trkpt>
		<trkpt lat="54.0161399841309" lon="13.0767040252686">
			<ele>49.9000015258789</ele>
			<time>2014-04-13T10:48:07Z</time>
		</trkpt>
		<trkpt lat="54.0161476135254" lon="13.0768203735352">
			<ele>50.2000007629395</ele>
			<time>2014-04-13T10:48:08Z</time>
		</trkpt>
		<trkpt lat="54.0161552429199" lon="13.0769338607788">
			<ele>50.4000015258789</ele>
			<time>2014-04-13T10:48:09Z</time>
		</trkpt>
		<trkpt lat="54.0161666870117" lon="13.0770406723022">
			<ele>50.0999984741211</ele>
			<time>2014-04-13T10:48:10Z</time>
		</trkpt>
		<trkpt lat="54.016170501709" lon="13.0771636962891">
			<ele>50.4000015258789</ele>
			<time>2014-04-13T10:48:11Z</time>
		</trkpt>
		<trkpt lat="54.0161781311035" lon="13.07728099823">
			<ele>50.5999984741211</ele>
			<time>2014-04-13T10:48:12Z</time>
		</trkpt>
		<trkpt lat="54.0161819458008" lon="13.0773954391479">
			<ele>50.0999984741211</ele>
			<time>2014-04-13T10:48:13Z</time>
		</trkpt>
		<trkpt lat="54.0161895751953" lon="13.0775127410889">
			<ele>50.4000015258789</ele>
			<time>2014-04-13T10:48:14Z</time>
		</trkpt>
		<trkpt lat="54.0162086486816" lon="13.0776119232178">
			<ele>50.0999984741211</ele>
			<time>2014-04-13T10:48:15Z</time>
		</trkpt>
		<trkpt lat="54.0162086486816" lon="13.0777225494385">
			<ele>50.5999984741211</ele>
			<time>2014-04-13T10:48:16Z</time>
		</trkpt>
		<trkpt lat="54.0162124633789" lon="13.0778341293335">
			<ele>50.5</ele>
			<time>2014-04-13T10:48:17Z</time>
		</trkpt>
		<trkpt lat="54.0162239074707" lon="13.077938079834">
			<ele>50.2999992370605</ele>
			<time>2014-04-13T10:48:18Z</time>
		</trkpt>
		<trkpt lat="54.016227722168" lon="13.0780506134033">
			<ele>50.7000007629395</ele>
			<time>2014-04-13T10:48:19Z</time>
		</trkpt>
		<trkpt lat="54.0162315368652" lon="13.0781593322754">
			<ele>50.7999992370605</ele>
			<time>2014-04-13T10:48:20Z</time>
		</trkpt>
		<trkpt lat="54.0162353515625" lon="13.0782632827759">
			<ele>50.9000015258789</ele>
			<time>2014-04-13T10:48:21Z</time>
		</trkpt>
		<trkpt lat="54.016242980957" lon="13.0783662796021">
			<ele>51.2999992370605</ele>
			<time>2014-04-13T10:48:22Z</time>
		</trkpt>
		<trkpt lat="54.0162467956543" lon="13.0784749984741">
			<ele>51.4000015258789</ele>
			<time>2014-04-13T10:48:23Z</time>
		</trkpt>
		<trkpt lat="54.0162544250488" lon="13.0785884857178">
			<ele>51.2999992370605</ele>
			<time>2014-04-13T10:48:24Z</time>
		</trkpt>
		<trkpt lat="54.0162544250488" lon="13.0786914825439">
			<ele>51.0999984741211</ele>
			<time>2014-04-13T10:48:25Z</time>
		</trkpt>
		<trkpt lat="54.0162544250488" lon="13.0787954330444">
			<ele>50.9000015258789</ele>
			<time>2014-04-13T10:48:26Z</time>
		</trkpt>
		<trkpt lat="54.0162467956543" lon="13.0789022445679">
			<ele>51</ele>
			<time>2014-04-13T10:48:27Z</time>
		</trkpt>
		<trkpt lat="54.0162353515625" lon="13.0790090560913">
			<ele>51.0999984741211</ele>
			<time>2014-04-13T10:48:28Z</time>
		</trkpt>
		<trkpt lat="54.0162239074707" lon="13.0791215896606">
			<ele>51.2000007629395</ele>
			<time>2014-04-13T10:48:29Z</time>
		</trkpt>
		<trkpt lat="54.0162124633789" lon="13.0792264938354">
			<ele>51.2999992370605</ele>
			<time>2014-04-13T10:48:30Z</time>
		</trkpt>
		<trkpt lat="54.0161972045898" lon="13.0793323516846">
			<ele>51.5</ele>
			<time>2014-04-13T10:48:31Z</time>
		</trkpt>
		<trkpt lat="54.0161743164063" lon="13.0794315338135">
			<ele>51.5</ele>
			<time>2014-04-13T10:48:32Z</time>
		</trkpt>
		<trkpt lat="54.0161552429199" lon="13.0795402526855">
			<ele>51.4000015258789</ele>
			<time>2014-04-13T10:48:33Z</time>
		</trkpt>
		<trkpt lat="54.0161361694336" lon="13.0796537399292">
			<ele>51.7000007629395</ele>
			<time>2014-04-13T10:48:34Z</time>
		</trkpt>
		<trkpt lat="54.01611328125" lon="13.0797729492188">
			<ele>52.2000007629395</ele>
			<time>2014-04-13T10:48:35Z</time>
		</trkpt>
		<trkpt lat="54.0160980224609" lon="13.0798683166504">
			<ele>52.2000007629395</ele>
			<time>2014-04-13T10:48:36Z</time>
		</trkpt>
		<trkpt lat="54.0160751342773" lon="13.079966545105">
			<ele>52.4000015258789</ele>
			<time>2014-04-13T10:48:37Z</time>
		</trkpt>
		<trkpt lat="54.016056060791" lon="13.0800724029541">
			<ele>52.5999984741211</ele>
			<time>2014-04-13T10:48:38Z</time>
		</trkpt>
		<trkpt lat="54.0160369873047" lon="13.0801725387573">
			<ele>52.5</ele>
			<time>2014-04-13T10:48:39Z</time>
		</trkpt>
		<trkpt lat="54.0160140991211" lon="13.0802783966064">
			<ele>52.0999984741211</ele>
			<time>2014-04-13T10:48:40Z</time>
		</trkpt>
		<trkpt lat="54.0159950256348" lon="13.0803861618042">
			<ele>51.9000015258789</ele>
			<time>2014-04-13T10:48:41Z</time>
		</trkpt>
		<trkpt lat="54.0159721374512" lon="13.080493927002">
			<ele>52.2000007629395</ele>
			<time>2014-04-13T10:48:42Z</time>
		</trkpt>
		<trkpt lat="54.0159530639648" lon="13.0805988311768">
			<ele>51.7999992370605</ele>
			<time>2014-04-13T10:48:43Z</time>
		</trkpt>
		<trkpt lat="54.0159339904785" lon="13.0807065963745">
			<ele>52.5</ele>
			<time>2014-04-13T10:48:44Z</time>
		</trkpt>
		<trkpt lat="54.0159187316895" lon="13.0808210372925">
			<ele>52.7999992370605</ele>
			<time>2014-04-13T10:48:45Z</time>
		</trkpt>
		<trkpt lat="54.0158958435059" lon="13.0809135437012">
			<ele>53</ele>
			<time>2014-04-13T10:48:46Z</time>
		</trkpt>
		<trkpt lat="54.0158805847168" lon="13.0810127258301">
			<ele>53.0999984741211</ele>
			<time>2014-04-13T10:48:47Z</time>
		</trkpt>
		<trkpt lat="54.0158615112305" lon="13.0811052322388">
			<ele>53.2999992370605</ele>
			<time>2014-04-13T10:48:48Z</time>
		</trkpt>
		<trkpt lat="54.0158424377441" lon="13.081205368042">
			<ele>52.7999992370605</ele>
			<time>2014-04-13T10:48:49Z</time>
		</trkpt>
		<trkpt lat="54.0158233642578" lon="13.0812969207764">
			<ele>52.7000007629395</ele>
			<time>2014-04-13T10:48:50Z</time>
		</trkpt>
		<trkpt lat="54.0158042907715" lon="13.0813980102539">
			<ele>53</ele>
			<time>2014-04-13T10:48:51Z</time>
		</trkpt>
		<trkpt lat="54.0157890319824" lon="13.0814905166626">
			<ele>53.2000007629395</ele>
			<time>2014-04-13T10:48:52Z</time>
		</trkpt>
		<trkpt lat="54.0157661437988" lon="13.0815839767456">
			<ele>53.4000015258789</ele>
			<time>2014-04-13T10:48:53Z</time>
		</trkpt>
		<trkpt lat="54.0157508850098" lon="13.08167552948">
			<ele>53.4000015258789</ele>
			<time>2014-04-13T10:48:54Z</time>
		</trkpt>
		<trkpt lat="54.0157318115234" lon="13.0817642211914">
			<ele>53.5</ele>
			<time>2014-04-13T10:48:55Z</time>
		</trkpt>
		<trkpt lat="54.0157165527344" lon="13.0818548202515">
			<ele>53.4000015258789</ele>
			<time>2014-04-13T10:48:56Z</time>
		</trkpt>
		<trkpt lat="54.0156936645508" lon="13.081955909729">
			<ele>53.2000007629395</ele>
			<time>2014-04-13T10:48:57Z</time>
		</trkpt>
		<trkpt lat="54.0156860351563" lon="13.0820446014404">
			<ele>53.7999992370605</ele>
			<time>2014-04-13T10:48:58Z</time>
		</trkpt>
		<trkpt lat="54.0156707763672" lon="13.0821409225464">
			<ele>53.7000007629395</ele>
			<time>2014-04-13T10:48:59Z</time>
		</trkpt>
		<trkpt lat="54.0156517028809" lon="13.0822401046753">
			<ele>53.9000015258789</ele>
			<time>2014-04-13T10:49:00Z</time>
		</trkpt>
		<trkpt lat="54.0156326293945" lon="13.0823392868042">
			<ele>53.9000015258789</ele>
			<time>2014-04-13T10:49:01Z</time>
		</trkpt>
		<trkpt lat="54.0156097412109" lon="13.082423210144">
			<ele>53.9000015258789</ele>
			<time>2014-04-13T10:49:02Z</time>
		</trkpt>
		<trkpt lat="54.0155906677246" lon="13.0825128555298">
			<ele>53.9000015258789</ele>
			<time>2014-04-13T10:49:03Z</time>
		</trkpt>
		<trkpt lat="54.0155754089355" lon="13.0826015472412">
			<ele>54.2000007629395</ele>
			<time>2014-04-13T10:49:04Z</time>
		</trkpt>
		<trkpt lat="54.0155563354492" lon="13.0826835632324">
			<ele>54.5</ele>
			<time>2014-04-13T10:49:05Z</time>
		</trkpt>
		<trkpt lat="54.0155410766602" lon="13.0827655792236">
			<ele>54.2000007629395</ele>
			<time>2014-04-13T10:49:06Z</time>
		</trkpt>
		<trkpt lat="54.0155143737793" lon="13.0829153060913">
			<ele>53.5</ele>
			<time>2014-04-13T10:49:08Z</time>
		</trkpt>
		<trkpt lat="54.0155067443848" lon="13.0830116271973">
			<ele>53.5999984741211</ele>
			<time>2014-04-13T10:49:09Z</time>
		</trkpt>
		<trkpt lat="54.0154800415039" lon="13.0831098556519">
			<ele>53.5</ele>
			<time>2014-04-13T10:49:10Z</time>
		</trkpt>
		<trkpt lat="54.0154685974121" lon="13.0832099914551">
			<ele>53.7000007629395</ele>
			<time>2014-04-13T10:49:11Z</time>
		</trkpt>
		<trkpt lat="54.0154495239258" lon="13.0832986831665">
			<ele>53.5</ele>
			<time>2014-04-13T10:49:12Z</time>
		</trkpt>
		<trkpt lat="54.0154304504395" lon="13.0833787918091">
			<ele>52.9000015258789</ele>
			<time>2014-04-13T10:49:13Z</time>
		</trkpt>
		<trkpt lat="54.0154075622559" lon="13.0834760665894">
			<ele>52.9000015258789</ele>
			<time>2014-04-13T10:49:14Z</time>
		</trkpt>
		<trkpt lat="54.0153923034668" lon="13.0835590362549">
			<ele>53.0999984741211</ele>
			<time>2014-04-13T10:49:15Z</time>
		</trkpt>
		<trkpt lat="54.0153732299805" lon="13.0836448669434">
			<ele>53</ele>
			<time>2014-04-13T10:49:16Z</time>
		</trkpt>
		<trkpt lat="54.0153617858887" lon="13.0837249755859">
			<ele>53</ele>
			<time>2014-04-13T10:49:17Z</time>
		</trkpt>
		<trkpt lat="54.0153427124023" lon="13.0838232040405">
			<ele>53.4000015258789</ele>
			<time>2014-04-13T10:49:18Z</time>
		</trkpt>
		<trkpt lat="54.015323638916" lon="13.0839166641235">
			<ele>53.7999992370605</ele>
			<time>2014-04-13T10:49:19Z</time>
		</trkpt>
		<trkpt lat="54.015308380127" lon="13.0840120315552">
			<ele>53.7999992370605</ele>
			<time>2014-04-13T10:49:20Z</time>
		</trkpt>
		<trkpt lat="54.0152931213379" lon="13.0841073989868">
			<ele>53.7000007629395</ele>
			<time>2014-04-13T10:49:21Z</time>
		</trkpt>
		<trkpt lat="54.0152778625488" lon="13.0842056274414">
			<ele>53.9000015258789</ele>
			<time>2014-04-13T10:49:22Z</time>
		</trkpt>
		<trkpt lat="54.0152626037598" lon="13.0842971801758">
			<ele>53.7999992370605</ele>
			<time>2014-04-13T10:49:23Z</time>
		</trkpt>
		<trkpt lat="54.0152473449707" lon="13.0843849182129">
			<ele>54.0999984741211</ele>
			<time>2014-04-13T10:49:24Z</time>
		</trkpt>
		<trkpt lat="54.0152282714844" lon="13.0844793319702">
			<ele>54.2999992370605</ele>
			<time>2014-04-13T10:49:25Z</time>
		</trkpt>
		<trkpt lat="54.0152130126953" lon="13.0845708847046">
			<ele>54.0999984741211</ele>
			<time>2014-04-13T10:49:26Z</time>
		</trkpt>
		<trkpt lat="54.015193939209" lon="13.0846652984619">
			<ele>54.2999992370605</ele>
			<time>2014-04-13T10:49:27Z</time>
		</trkpt>
		<trkpt lat="54.0151710510254" lon="13.084755897522">
			<ele>54.5999984741211</ele>
			<time>2014-04-13T10:49:28Z</time>
		</trkpt>
		<trkpt lat="54.0151557922363" lon="13.0848512649536">
			<ele>54.7000007629395</ele>
			<time>2014-04-13T10:49:29Z</time>
		</trkpt>
		<trkpt lat="54.0151405334473" lon="13.0849523544312">
			<ele>54.7000007629395</ele>
			<time>2014-04-13T10:49:30Z</time>
		</trkpt>
		<trkpt lat="54.0151214599609" lon="13.0850448608398">
			<ele>54.7000007629395</ele>
			<time>2014-04-13T10:49:31Z</time>
		</trkpt>
		<trkpt lat="54.0151062011719" lon="13.0851421356201">
			<ele>54.9000015258789</ele>
			<time>2014-04-13T10:49:32Z</time>
		</trkpt>
		<trkpt lat="54.0150871276855" lon="13.0852375030518">
			<ele>55.2000007629395</ele>
			<time>2014-04-13T10:49:33Z</time>
		</trkpt>
		<trkpt lat="54.015064239502" lon="13.0853424072266">
			<ele>55.9000015258789</ele>
			<time>2014-04-13T10:49:34Z</time>
		</trkpt>
		<trkpt lat="54.0150489807129" lon="13.0854425430298">
			<ele>56.0999984741211</ele>
			<time>2014-04-13T10:49:35Z</time>
		</trkpt>
		<trkpt lat="54.0150260925293" lon="13.0855398178101">
			<ele>56.5</ele>
			<time>2014-04-13T10:49:36Z</time>
		</trkpt>
		<trkpt lat="54.015007019043" lon="13.0856256484985">
			<ele>56.5999984741211</ele>
			<time>2014-04-13T10:49:37Z</time>
		</trkpt>
		<trkpt lat="54.0149879455566" lon="13.0857229232788">
			<ele>56.7999992370605</ele>
			<time>2014-04-13T10:49:38Z</time>
		</trkpt>
		<trkpt lat="54.0149574279785" lon="13.0859136581421">
			<ele>58.4000015258789</ele>
			<time>2014-04-13T10:49:40Z</time>
		</trkpt>
		<trkpt lat="54.0149345397949" lon="13.0860090255737">
			<ele>58.5999984741211</ele>
			<time>2014-04-13T10:49:41Z</time>
		</trkpt>
		<trkpt lat="54.0149154663086" lon="13.0860986709595">
			<ele>58.5999984741211</ele>
			<time>2014-04-13T10:49:42Z</time>
		</trkpt>
		<trkpt lat="54.0149002075195" lon="13.0861902236938">
			<ele>59.2000007629395</ele>
			<time>2014-04-13T10:49:43Z</time>
		</trkpt>
		<trkpt lat="54.0148849487305" lon="13.0862827301025">
			<ele>59.4000015258789</ele>
			<time>2014-04-13T10:49:44Z</time>
		</trkpt>
		<trkpt lat="54.0148620605469" lon="13.086389541626">
			<ele>59.2999992370605</ele>
			<time>2014-04-13T10:49:45Z</time>
		</trkpt>
		<trkpt lat="54.0148468017578" lon="13.0864887237549">
			<ele>59.2999992370605</ele>
			<time>2014-04-13T10:49:46Z</time>
		</trkpt>
		<trkpt lat="54.0148315429688" lon="13.0865879058838">
			<ele>59.2999992370605</ele>
			<time>2014-04-13T10:49:47Z</time>
		</trkpt>
		<trkpt lat="54.0148162841797" lon="13.0866899490356">
			<ele>59</ele>
			<time>2014-04-13T10:49:48Z</time>
		</trkpt>
		<trkpt lat="54.0147895812988" lon="13.0867938995361">
			<ele>59.0999984741211</ele>
			<time>2014-04-13T10:49:49Z</time>
		</trkpt>
		<trkpt lat="54.0147743225098" lon="13.0868844985962">
			<ele>59.7000007629395</ele>
			<time>2014-04-13T10:49:50Z</time>
		</trkpt>
		<trkpt lat="54.0147552490234" lon="13.086986541748">
			<ele>60.0999984741211</ele>
			<time>2014-04-13T10:49:51Z</time>
		</trkpt>
		<trkpt lat="54.0147323608398" lon="13.0870923995972">
			<ele>59.9000015258789</ele>
			<time>2014-04-13T10:49:52Z</time>
		</trkpt>
		<trkpt lat="54.0147094726563" lon="13.0872001647949">
			<ele>59.5999984741211</ele>
			<time>2014-04-13T10:49:53Z</time>
		</trkpt>
		<trkpt lat="54.0146942138672" lon="13.0873012542725">
			<ele>59.2000007629395</ele>
			<time>2014-04-13T10:49:54Z</time>
		</trkpt>
		<trkpt lat="54.0146789550781" lon="13.0873985290527">
			<ele>59</ele>
			<time>2014-04-13T10:49:55Z</time>
		</trkpt>
		<trkpt lat="54.0146598815918" lon="13.0875034332275">
			<ele>59</ele>
			<time>2014-04-13T10:49:56Z</time>
		</trkpt>
		<trkpt lat="54.0146446228027" lon="13.0875968933105">
			<ele>58.7000007629395</ele>
			<time>2014-04-13T10:49:57Z</time>
		</trkpt>
		<trkpt lat="54.0146255493164" lon="13.087700843811">
			<ele>59</ele>
			<time>2014-04-13T10:49:58Z</time>
		</trkpt>
		<trkpt lat="54.0146102905273" lon="13.0878028869629">
			<ele>58.5</ele>
			<time>2014-04-13T10:49:59Z</time>
		</trkpt>
		<trkpt lat="54.014591217041" lon="13.0878992080688">
			<ele>58.5999984741211</ele>
			<time>2014-04-13T10:50:00Z</time>
		</trkpt>
		<trkpt lat="54.0145721435547" lon="13.0880155563354">
			<ele>59</ele>
			<time>2014-04-13T10:50:01Z</time>
		</trkpt>
		<trkpt lat="54.0145606994629" lon="13.0881233215332">
			<ele>58.9000015258789</ele>
			<time>2014-04-13T10:50:02Z</time>
		</trkpt>
		<trkpt lat="54.0145301818848" lon="13.0882301330566">
			<ele>58.9000015258789</ele>
			<time>2014-04-13T10:50:03Z</time>
		</trkpt>
		<trkpt lat="54.0145072937012" lon="13.0883226394653">
			<ele>59.2000007629395</ele>
			<time>2014-04-13T10:50:04Z</time>
		</trkpt>
		<trkpt lat="54.0144920349121" lon="13.0884160995483">
			<ele>58.7999992370605</ele>
			<time>2014-04-13T10:50:05Z</time>
		</trkpt>
		<trkpt lat="54.0144729614258" lon="13.0885210037231">
			<ele>58.5999984741211</ele>
			<time>2014-04-13T10:50:06Z</time>
		</trkpt>
		<trkpt lat="54.0144577026367" lon="13.0886201858521">
			<ele>58.2999992370605</ele>
			<time>2014-04-13T10:50:07Z</time>
		</trkpt>
		<trkpt lat="54.0144386291504" lon="13.0887289047241">
			<ele>58.5</ele>
			<time>2014-04-13T10:50:08Z</time>
		</trkpt>
		<trkpt lat="54.0144119262695" lon="13.0888204574585">
			<ele>58.2999992370605</ele>
			<time>2014-04-13T10:50:09Z</time>
		</trkpt>
		<trkpt lat="54.0143890380859" lon="13.0889196395874">
			<ele>58</ele>
			<time>2014-04-13T10:50:10Z</time>
		</trkpt>
		<trkpt lat="54.0143699645996" lon="13.0890092849731">
			<ele>57.5</ele>
			<time>2014-04-13T10:50:11Z</time>
		</trkpt>
		<trkpt lat="54.0143508911133" lon="13.0890998840332">
			<ele>57.5999984741211</ele>
			<time>2014-04-13T10:50:12Z</time>
		</trkpt>
		<trkpt lat="54.0143356323242" lon="13.0892143249512">
			<ele>57.2999992370605</ele>
			<time>2014-04-13T10:50:13Z</time>
		</trkpt>
		<trkpt lat="54.0143127441406" lon="13.0893287658691">
			<ele>57.0999984741211</ele>
			<time>2014-04-13T10:50:14Z</time>
		</trkpt>
		<trkpt lat="54.0142974853516" lon="13.0894384384155">
			<ele>56.5</ele>
			<time>2014-04-13T10:50:15Z</time>
		</trkpt>
		<trkpt lat="54.014274597168" lon="13.0895471572876">
			<ele>56.2000007629395</ele>
			<time>2014-04-13T10:50:16Z</time>
		</trkpt>
		<trkpt lat="54.0142593383789" lon="13.0896663665771">
			<ele>56.5999984741211</ele>
			<time>2014-04-13T10:50:17Z</time>
		</trkpt>
		<trkpt lat="54.0142250061035" lon="13.0897769927979">
			<ele>56.4000015258789</ele>
			<time>2014-04-13T10:50:18Z</time>
		</trkpt>
		<trkpt lat="54.0142059326172" lon="13.0898971557617">
			<ele>56.2000007629395</ele>
			<time>2014-04-13T10:50:19Z</time>
		</trkpt>
		<trkpt lat="54.0141868591309" lon="13.090015411377">
			<ele>55.9000015258789</ele>
			<time>2014-04-13T10:50:20Z</time>
		</trkpt>
		<trkpt lat="54.0141639709473" lon="13.090124130249">
			<ele>55.5</ele>
			<time>2014-04-13T10:50:21Z</time>
		</trkpt>
		<trkpt lat="54.0141487121582" lon="13.090238571167">
			<ele>55.2999992370605</ele>
			<time>2014-04-13T10:50:22Z</time>
		</trkpt>
		<trkpt lat="54.0141258239746" lon="13.0903253555298">
			<ele>54.9000015258789</ele>
			<time>2014-04-13T10:50:23Z</time>
		</trkpt>
		<trkpt lat="54.014102935791" lon="13.0904512405396">
			<ele>54.2999992370605</ele>
			<time>2014-04-13T10:50:24Z</time>
		</trkpt>
		<trkpt lat="54.0140762329102" lon="13.0905733108521">
			<ele>54.4000015258789</ele>
			<time>2014-04-13T10:50:25Z</time>
		</trkpt>
		<trkpt lat="54.0140609741211" lon="13.0907011032104">
			<ele>54</ele>
			<time>2014-04-13T10:50:26Z</time>
		</trkpt>
		<trkpt lat="54.0140342712402" lon="13.0908250808716">
			<ele>53.7000007629395</ele>
			<time>2014-04-13T10:50:27Z</time>
		</trkpt>
		<trkpt lat="54.0140037536621" lon="13.0909490585327">
			<ele>53.9000015258789</ele>
			<time>2014-04-13T10:50:28Z</time>
		</trkpt>
		<trkpt lat="54.0139770507813" lon="13.0910768508911">
			<ele>54.2000007629395</ele>
			<time>2014-04-13T10:50:29Z</time>
		</trkpt>
		<trkpt lat="54.0139579772949" lon="13.091197013855">
			<ele>54.2999992370605</ele>
			<time>2014-04-13T10:50:30Z</time>
		</trkpt>
		<trkpt lat="54.0139350891113" lon="13.0913238525391">
			<ele>54.4000015258789</ele>
			<time>2014-04-13T10:50:31Z</time>
		</trkpt>
		<trkpt lat="54.0139122009277" lon="13.0914421081543">
			<ele>54.2000007629395</ele>
			<time>2014-04-13T10:50:32Z</time>
		</trkpt>
		<trkpt lat="54.0138893127441" lon="13.0915632247925">
			<ele>54.2999992370605</ele>
			<time>2014-04-13T10:50:33Z</time>
		</trkpt>
		<trkpt lat="54.0138664245605" lon="13.0916872024536">
			<ele>54.2999992370605</ele>
			<time>2014-04-13T10:50:34Z</time>
		</trkpt>
		<trkpt lat="54.0138473510742" lon="13.0917987823486">
			<ele>54.7999992370605</ele>
			<time>2014-04-13T10:50:35Z</time>
		</trkpt>
		<trkpt lat="54.0138244628906" lon="13.0919151306152">
			<ele>54.5999984741211</ele>
			<time>2014-04-13T10:50:36Z</time>
		</trkpt>
		<trkpt lat="54.0137977600098" lon="13.0920324325562">
			<ele>54.4000015258789</ele>
			<time>2014-04-13T10:50:37Z</time>
		</trkpt>
		<trkpt lat="54.0137748718262" lon="13.0921430587769">
			<ele>54.4000015258789</ele>
			<time>2014-04-13T10:50:38Z</time>
		</trkpt>
		<trkpt lat="54.0137519836426" lon="13.0922660827637">
			<ele>54.7999992370605</ele>
			<time>2014-04-13T10:50:39Z</time>
		</trkpt>
		<trkpt lat="54.0137329101563" lon="13.0923824310303">
			<ele>55</ele>
			<time>2014-04-13T10:50:40Z</time>
		</trkpt>
		<trkpt lat="54.0137062072754" lon="13.0925121307373">
			<ele>54.9000015258789</ele>
			<time>2014-04-13T10:50:41Z</time>
		</trkpt>
		<trkpt lat="54.0136833190918" lon="13.0926265716553">
			<ele>55.2000007629395</ele>
			<time>2014-04-13T10:50:42Z</time>
		</trkpt>
		<trkpt lat="54.0136642456055" lon="13.0927429199219">
			<ele>55.5</ele>
			<time>2014-04-13T10:50:43Z</time>
		</trkpt>
		<trkpt lat="54.0136451721191" lon="13.0928506851196">
			<ele>55.5</ele>
			<time>2014-04-13T10:50:44Z</time>
		</trkpt>
		<trkpt lat="54.0136260986328" lon="13.0929536819458">
			<ele>55.5999984741211</ele>
			<time>2014-04-13T10:50:45Z</time>
		</trkpt>
		<trkpt lat="54.0136032104492" lon="13.0930557250977">
			<ele>55</ele>
			<time>2014-04-13T10:50:46Z</time>
		</trkpt>
		<trkpt lat="54.0135841369629" lon="13.0931606292725">
			<ele>54.7999992370605</ele>
			<time>2014-04-13T10:50:47Z</time>
		</trkpt>
		<trkpt lat="54.0135612487793" lon="13.09326171875">
			<ele>54.7999992370605</ele>
			<time>2014-04-13T10:50:48Z</time>
		</trkpt>
		<trkpt lat="54.013542175293" lon="13.0933790206909">
			<ele>55.7000007629395</ele>
			<time>2014-04-13T10:50:49Z</time>
		</trkpt>
		<trkpt lat="54.0135154724121" lon="13.0934896469116">
			<ele>55.4000015258789</ele>
			<time>2014-04-13T10:50:50Z</time>
		</trkpt>
		<trkpt lat="54.0134963989258" lon="13.0936002731323">
			<ele>55.0999984741211</ele>
			<time>2014-04-13T10:50:51Z</time>
		</trkpt>
		<trkpt lat="54.0134773254395" lon="13.0937128067017">
			<ele>55.2999992370605</ele>
			<time>2014-04-13T10:50:52Z</time>
		</trkpt>
		<trkpt lat="54.0134544372559" lon="13.0938301086426">
			<ele>55.4000015258789</ele>
			<time>2014-04-13T10:50:53Z</time>
		</trkpt>
		<trkpt lat="54.0134315490723" lon="13.0939435958862">
			<ele>55.2000007629395</ele>
			<time>2014-04-13T10:50:54Z</time>
		</trkpt>
		<trkpt lat="54.0134124755859" lon="13.0940532684326">
			<ele>55.5</ele>
			<time>2014-04-13T10:50:55Z</time>
		</trkpt>
		<trkpt lat="54.0133934020996" lon="13.0941591262817">
			<ele>55.5999984741211</ele>
			<time>2014-04-13T10:50:56Z</time>
		</trkpt>
		<trkpt lat="54.013370513916" lon="13.0942687988281">
			<ele>56</ele>
			<time>2014-04-13T10:50:57Z</time>
		</trkpt>
		<trkpt lat="54.013355255127" lon="13.0943689346313">
			<ele>56.7999992370605</ele>
			<time>2014-04-13T10:50:58Z</time>
		</trkpt>
		<trkpt lat="54.0133361816406" lon="13.0944757461548">
			<ele>56.7999992370605</ele>
			<time>2014-04-13T10:50:59Z</time>
		</trkpt>
		<trkpt lat="54.013313293457" lon="13.0945768356323">
			<ele>56.9000015258789</ele>
			<time>2014-04-13T10:51:00Z</time>
		</trkpt>
		<trkpt lat="54.0132942199707" lon="13.0946788787842">
			<ele>56.9000015258789</ele>
			<time>2014-04-13T10:51:01Z</time>
		</trkpt>
		<trkpt lat="54.0132751464844" lon="13.0947790145874">
			<ele>57.2999992370605</ele>
			<time>2014-04-13T10:51:02Z</time>
		</trkpt>
		<trkpt lat="54.0132522583008" lon="13.0948715209961">
			<ele>57.4000015258789</ele>
			<time>2014-04-13T10:51:03Z</time>
		</trkpt>
		<trkpt lat="54.0132331848145" lon="13.0949668884277">
			<ele>57.2999992370605</ele>
			<time>2014-04-13T10:51:04Z</time>
		</trkpt>
		<trkpt lat="54.0132102966309" lon="13.0950574874878">
			<ele>57.4000015258789</ele>
			<time>2014-04-13T10:51:05Z</time>
		</trkpt>
		<trkpt lat="54.0131988525391" lon="13.0951375961304">
			<ele>57.2999992370605</ele>
			<time>2014-04-13T10:51:06Z</time>
		</trkpt>
		<trkpt lat="54.01318359375" lon="13.0952272415161">
			<ele>57.2000007629395</ele>
			<time>2014-04-13T10:51:07Z</time>
		</trkpt>
		<trkpt lat="54.0131645202637" lon="13.0953207015991">
			<ele>57.2999992370605</ele>
			<time>2014-04-13T10:51:08Z</time>
		</trkpt>
		<trkpt lat="54.0131607055664" lon="13.0953979492188">
			<ele>57.0999984741211</ele>
			<time>2014-04-13T10:51:09Z</time>
		</trkpt>
		<trkpt lat="54.0131416320801" lon="13.0954885482788">
			<ele>57.2999992370605</ele>
			<time>2014-04-13T10:51:10Z</time>
		</trkpt>
		<trkpt lat="54.0131225585938" lon="13.0955743789673">
			<ele>57.7000007629395</ele>
			<time>2014-04-13T10:51:11Z</time>
		</trkpt>
		<trkpt lat="54.013111114502" lon="13.095666885376">
			<ele>57.7999992370605</ele>
			<time>2014-04-13T10:51:12Z</time>
		</trkpt>
		<trkpt lat="54.0130920410156" lon="13.0957508087158">
			<ele>57.7999992370605</ele>
			<time>2014-04-13T10:51:13Z</time>
		</trkpt>
		<trkpt lat="54.0130767822266" lon="13.0958490371704">
			<ele>58.2000007629395</ele>
			<time>2014-04-13T10:51:14Z</time>
		</trkpt>
		<trkpt lat="54.0130577087402" lon="13.0959501266479">
			<ele>58.7000007629395</ele>
			<time>2014-04-13T10:51:15Z</time>
		</trkpt>
		<trkpt lat="54.0130424499512" lon="13.0960426330566">
			<ele>58.9000015258789</ele>
			<time>2014-04-13T10:51:16Z</time>
		</trkpt>
		<trkpt lat="54.0130233764648" lon="13.0961322784424">
			<ele>59.0999984741211</ele>
			<time>2014-04-13T10:51:17Z</time>
		</trkpt>
		<trkpt lat="54.0130043029785" lon="13.0962190628052">
			<ele>59.2000007629395</ele>
			<time>2014-04-13T10:51:18Z</time>
		</trkpt>
		<trkpt lat="54.0129890441895" lon="13.0963096618652">
			<ele>58.9000015258789</ele>
			<time>2014-04-13T10:51:19Z</time>
		</trkpt>
		<trkpt lat="54.0129699707031" lon="13.096396446228">
			<ele>58.5999984741211</ele>
			<time>2014-04-13T10:51:20Z</time>
		</trkpt>
		<trkpt lat="54.0129508972168" lon="13.0964803695679">
			<ele>58.4000015258789</ele>
			<time>2014-04-13T10:51:21Z</time>
		</trkpt>
		<trkpt lat="54.0129356384277" lon="13.0965719223022">
			<ele>58.7000007629395</ele>
			<time>2014-04-13T10:51:22Z</time>
		</trkpt>
		<trkpt lat="54.0129165649414" lon="13.0966663360596">
			<ele>58.7000007629395</ele>
			<time>2014-04-13T10:51:23Z</time>
		</trkpt>
		<trkpt lat="54.0129013061523" lon="13.0967493057251">
			<ele>58.5</ele>
			<time>2014-04-13T10:51:24Z</time>
		</trkpt>
		<trkpt lat="54.0128784179688" lon="13.096830368042">
			<ele>58.4000015258789</ele>
			<time>2014-04-13T10:51:25Z</time>
		</trkpt>
		<trkpt lat="54.0128631591797" lon="13.0969228744507">
			<ele>58.9000015258789</ele>
			<time>2014-04-13T10:51:26Z</time>
		</trkpt>
		<trkpt lat="54.0128479003906" lon="13.0970125198364">
			<ele>58.7999992370605</ele>
			<time>2014-04-13T10:51:27Z</time>
		</trkpt>
		<trkpt lat="54.0128288269043" lon="13.0971097946167">
			<ele>58.7999992370605</ele>
			<time>2014-04-13T10:51:28Z</time>
		</trkpt>
		<trkpt lat="54.0128173828125" lon="13.0971946716309">
			<ele>59</ele>
			<time>2014-04-13T10:51:29Z</time>
		</trkpt>
		<trkpt lat="54.0128059387207" lon="13.0972843170166">
			<ele>58.9000015258789</ele>
			<time>2014-04-13T10:51:30Z</time>
		</trkpt>
		<trkpt lat="54.0127868652344" lon="13.0973796844482">
			<ele>59</ele>
			<time>2014-04-13T10:51:31Z</time>
		</trkpt>
		<trkpt lat="54.012767791748" lon="13.0974683761597">
			<ele>58.5</ele>
			<time>2014-04-13T10:51:32Z</time>
		</trkpt>
		<trkpt lat="54.012752532959" lon="13.0975551605225">
			<ele>58.2999992370605</ele>
			<time>2014-04-13T10:51:33Z</time>
		</trkpt>
		<trkpt lat="54.0127334594727" lon="13.0976476669312">
			<ele>58.7000007629395</ele>
			<time>2014-04-13T10:51:34Z</time>
		</trkpt>
		<trkpt lat="54.0127182006836" lon="13.0977430343628">
			<ele>58.7000007629395</ele>
			<time>2014-04-13T10:51:35Z</time>
		</trkpt>
		<trkpt lat="54.0127029418945" lon="13.0978364944458">
			<ele>59</ele>
			<time>2014-04-13T10:51:36Z</time>
		</trkpt>
		<trkpt lat="54.0126838684082" lon="13.0979290008545">
			<ele>58.9000015258789</ele>
			<time>2014-04-13T10:51:37Z</time>
		</trkpt>
		<trkpt lat="54.0126609802246" lon="13.0980272293091">
			<ele>58.7000007629395</ele>
			<time>2014-04-13T10:51:38Z</time>
		</trkpt>
		<trkpt lat="54.012638092041" lon="13.0981273651123">
			<ele>58.2999992370605</ele>
			<time>2014-04-13T10:51:39Z</time>
		</trkpt>
		<trkpt lat="54.0126266479492" lon="13.0982179641724">
			<ele>58.0999984741211</ele>
			<time>2014-04-13T10:51:40Z</time>
		</trkpt>
		<trkpt lat="54.0126113891602" lon="13.0983114242554">
			<ele>58.4000015258789</ele>
			<time>2014-04-13T10:51:41Z</time>
		</trkpt>
		<trkpt lat="54.0125961303711" lon="13.0984077453613">
			<ele>58.2000007629395</ele>
			<time>2014-04-13T10:51:42Z</time>
		</trkpt>
		<trkpt lat="54.0125770568848" lon="13.0985059738159">
			<ele>58.2999992370605</ele>
			<time>2014-04-13T10:51:43Z</time>
		</trkpt>
		<trkpt lat="54.0125541687012" lon="13.0985984802246">
			<ele>58.0999984741211</ele>
			<time>2014-04-13T10:51:44Z</time>
		</trkpt>
		<trkpt lat="54.0125350952148" lon="13.0986852645874">
			<ele>58.0999984741211</ele>
			<time>2014-04-13T10:51:45Z</time>
		</trkpt>
		<trkpt lat="54.0125160217285" lon="13.0987787246704">
			<ele>58</ele>
			<time>2014-04-13T10:51:46Z</time>
		</trkpt>
		<trkpt lat="54.0124969482422" lon="13.0988712310791">
			<ele>57.9000015258789</ele>
			<time>2014-04-13T10:51:47Z</time>
		</trkpt>
		<trkpt lat="54.0124778747559" lon="13.098952293396">
			<ele>57.7999992370605</ele>
			<time>2014-04-13T10:51:48Z</time>
		</trkpt>
		<trkpt lat="54.0124626159668" lon="13.0990467071533">
			<ele>57.7999992370605</ele>
			<time>2014-04-13T10:51:49Z</time>
		</trkpt>
		<trkpt lat="54.0124435424805" lon="13.0991344451904">
			<ele>57.9000015258789</ele>
			<time>2014-04-13T10:51:50Z</time>
		</trkpt>
		<trkpt lat="54.0124359130859" lon="13.0992240905762">
			<ele>58.7000007629395</ele>
			<time>2014-04-13T10:51:51Z</time>
		</trkpt>
		<trkpt lat="54.0124168395996" lon="13.0993185043335">
			<ele>59.0999984741211</ele>
			<time>2014-04-13T10:51:52Z</time>
		</trkpt>
		<trkpt lat="54.0123977661133" lon="13.0994186401367">
			<ele>58.4000015258789</ele>
			<time>2014-04-13T10:51:53Z</time>
		</trkpt>
		<trkpt lat="54.012378692627" lon="13.0995121002197">
			<ele>59</ele>
			<time>2014-04-13T10:51:54Z</time>
		</trkpt>
		<trkpt lat="54.0123596191406" lon="13.0996065139771">
			<ele>58.9000015258789</ele>
			<time>2014-04-13T10:51:55Z</time>
		</trkpt>
		<trkpt lat="54.0123405456543" lon="13.0996999740601">
			<ele>58.7999992370605</ele>
			<time>2014-04-13T10:51:56Z</time>
		</trkpt>
		<trkpt lat="54.012321472168" lon="13.0997943878174">
			<ele>58.4000015258789</ele>
			<time>2014-04-13T10:51:57Z</time>
		</trkpt>
		<trkpt lat="54.0123062133789" lon="13.0998907089233">
			<ele>58.2000007629395</ele>
			<time>2014-04-13T10:51:58Z</time>
		</trkpt>
		<trkpt lat="54.0122871398926" lon="13.0999851226807">
			<ele>57.9000015258789</ele>
			<time>2014-04-13T10:51:59Z</time>
		</trkpt>
		<trkpt lat="54.0122680664063" lon="13.1000862121582">
			<ele>57.7999992370605</ele>
			<time>2014-04-13T10:52:00Z</time>
		</trkpt>
		<trkpt lat="54.0122489929199" lon="13.1001825332642">
			<ele>58</ele>
			<time>2014-04-13T10:52:01Z</time>
		</trkpt>
		<trkpt lat="54.0122299194336" lon="13.1002779006958">
			<ele>58.4000015258789</ele>
			<time>2014-04-13T10:52:02Z</time>
		</trkpt>
		<trkpt lat="54.01220703125" lon="13.1003742218018">
			<ele>58.5999984741211</ele>
			<time>2014-04-13T10:52:03Z</time>
		</trkpt>
		<trkpt lat="54.0121841430664" lon="13.1004724502563">
			<ele>58.2999992370605</ele>
			<time>2014-04-13T10:52:04Z</time>
		</trkpt>
		<trkpt lat="54.0121650695801" lon="13.1005659103394">
			<ele>58.7000007629395</ele>
			<time>2014-04-13T10:52:05Z</time>
		</trkpt>
		<trkpt lat="54.0121459960938" lon="13.1006631851196">
			<ele>58.7000007629395</ele>
			<time>2014-04-13T10:52:06Z</time>
		</trkpt>
		<trkpt lat="54.0121231079102" lon="13.1007585525513">
			<ele>58.2999992370605</ele>
			<time>2014-04-13T10:52:07Z</time>
		</trkpt>
		<trkpt lat="54.0121002197266" lon="13.1008558273315">
			<ele>57.9000015258789</ele>
			<time>2014-04-13T10:52:08Z</time>
		</trkpt>
		<trkpt lat="54.0120735168457" lon="13.1009578704834">
			<ele>57.9000015258789</ele>
			<time>2014-04-13T10:52:09Z</time>
		</trkpt>
		<trkpt lat="54.0120506286621" lon="13.1010656356812">
			<ele>58.2000007629395</ele>
			<time>2014-04-13T10:52:10Z</time>
		</trkpt>
		<trkpt lat="54.0120277404785" lon="13.1011648178101">
			<ele>58.0999984741211</ele>
			<time>2014-04-13T10:52:11Z</time>
		</trkpt>
		<trkpt lat="54.0120010375977" lon="13.1012630462646">
			<ele>57.7999992370605</ele>
			<time>2014-04-13T10:52:12Z</time>
		</trkpt>
		<trkpt lat="54.0119781494141" lon="13.1013641357422">
			<ele>57.7000007629395</ele>
			<time>2014-04-13T10:52:13Z</time>
		</trkpt>
		<trkpt lat="54.0119514465332" lon="13.1014633178711">
			<ele>57.7999992370605</ele>
			<time>2014-04-13T10:52:14Z</time>
		</trkpt>
		<trkpt lat="54.0119247436523" lon="13.1015701293945">
			<ele>58</ele>
			<time>2014-04-13T10:52:15Z</time>
		</trkpt>
		<trkpt lat="54.011905670166" lon="13.1016807556152">
			<ele>58.0999984741211</ele>
			<time>2014-04-13T10:52:16Z</time>
		</trkpt>
		<trkpt lat="54.0118827819824" lon="13.1017847061157">
			<ele>57.9000015258789</ele>
			<time>2014-04-13T10:52:17Z</time>
		</trkpt>
		<trkpt lat="54.0118560791016" lon="13.1018857955933">
			<ele>57.7000007629395</ele>
			<time>2014-04-13T10:52:18Z</time>
		</trkpt>
		<trkpt lat="54.011833190918" lon="13.1019973754883">
			<ele>57.2000007629395</ele>
			<time>2014-04-13T10:52:19Z</time>
		</trkpt>
		<trkpt lat="54.0118064880371" lon="13.1021060943604">
			<ele>57.4000015258789</ele>
			<time>2014-04-13T10:52:20Z</time>
		</trkpt>
		<trkpt lat="54.011775970459" lon="13.1022281646729">
			<ele>57.5999984741211</ele>
			<time>2014-04-13T10:52:21Z</time>
		</trkpt>
		<trkpt lat="54.0117530822754" lon="13.102331161499">
			<ele>57.5999984741211</ele>
			<time>2014-04-13T10:52:22Z</time>
		</trkpt>
		<trkpt lat="54.0117263793945" lon="13.1024408340454">
			<ele>57.7000007629395</ele>
			<time>2014-04-13T10:52:23Z</time>
		</trkpt>
		<trkpt lat="54.0116958618164" lon="13.1025476455688">
			<ele>57.5</ele>
			<time>2014-04-13T10:52:24Z</time>
		</trkpt>
		<trkpt lat="54.0116729736328" lon="13.1026592254639">
			<ele>57.7000007629395</ele>
			<time>2014-04-13T10:52:25Z</time>
		</trkpt>
		<trkpt lat="54.011646270752" lon="13.1027717590332">
			<ele>57.7999992370605</ele>
			<time>2014-04-13T10:52:26Z</time>
		</trkpt>
		<trkpt lat="54.0116195678711" lon="13.1028852462769">
			<ele>57.7000007629395</ele>
			<time>2014-04-13T10:52:27Z</time>
		</trkpt>
		<trkpt lat="54.0115966796875" lon="13.1029968261719">
			<ele>57.7000007629395</ele>
			<time>2014-04-13T10:52:28Z</time>
		</trkpt>
		<trkpt lat="54.0115699768066" lon="13.1031122207642">
			<ele>57.0999984741211</ele>
			<time>2014-04-13T10:52:29Z</time>
		</trkpt>
		<trkpt lat="54.011547088623" lon="13.1032209396362">
			<ele>57</ele>
			<time>2014-04-13T10:52:30Z</time>
		</trkpt>
		<trkpt lat="54.0115203857422" lon="13.1033353805542">
			<ele>56.9000015258789</ele>
			<time>2014-04-13T10:52:31Z</time>
		</trkpt>
		<trkpt lat="54.0114936828613" lon="13.1034469604492">
			<ele>56.4000015258789</ele>
			<time>2014-04-13T10:52:32Z</time>
		</trkpt>
		<trkpt lat="54.0114631652832" lon="13.1035575866699">
			<ele>56.2999992370605</ele>
			<time>2014-04-13T10:52:33Z</time>
		</trkpt>
		<trkpt lat="54.0114364624023" lon="13.1036787033081">
			<ele>56.2999992370605</ele>
			<time>2014-04-13T10:52:34Z</time>
		</trkpt>
		<trkpt lat="54.0114097595215" lon="13.1037940979004">
			<ele>56.5</ele>
			<time>2014-04-13T10:52:35Z</time>
		</trkpt>
		<trkpt lat="54.0113792419434" lon="13.1039133071899">
			<ele>56.5</ele>
			<time>2014-04-13T10:52:36Z</time>
		</trkpt>
		<trkpt lat="54.0113525390625" lon="13.1040372848511">
			<ele>56.0999984741211</ele>
			<time>2014-04-13T10:52:37Z</time>
		</trkpt>
		<trkpt lat="54.0113296508789" lon="13.1041555404663">
			<ele>56</ele>
			<time>2014-04-13T10:52:38Z</time>
		</trkpt>
		<trkpt lat="54.011302947998" lon="13.104284286499">
			<ele>56.4000015258789</ele>
			<time>2014-04-13T10:52:39Z</time>
		</trkpt>
		<trkpt lat="54.0112800598145" lon="13.1044130325317">
			<ele>56.2999992370605</ele>
			<time>2014-04-13T10:52:40Z</time>
		</trkpt>
		<trkpt lat="54.0112571716309" lon="13.1045417785645">
			<ele>56.2999992370605</ele>
			<time>2014-04-13T10:52:41Z</time>
		</trkpt>
		<trkpt lat="54.0112419128418" lon="13.1046705245972">
			<ele>55.7000007629395</ele>
			<time>2014-04-13T10:52:42Z</time>
		</trkpt>
		<trkpt lat="54.01123046875" lon="13.104808807373">
			<ele>55.7999992370605</ele>
			<time>2014-04-13T10:52:43Z</time>
		</trkpt>
		<trkpt lat="54.0112228393555" lon="13.1049461364746">
			<ele>55.7000007629395</ele>
			<time>2014-04-13T10:52:44Z</time>
		</trkpt>
		<trkpt lat="54.0112190246582" lon="13.1050844192505">
			<ele>55.4000015258789</ele>
			<time>2014-04-13T10:52:45Z</time>
		</trkpt>
		<trkpt lat="54.0112190246582" lon="13.1052198410034">
			<ele>55.4000015258789</ele>
			<time>2014-04-13T10:52:46Z</time>
		</trkpt>
		<trkpt lat="54.0112266540527" lon="13.1053495407104">
			<ele>55.0999984741211</ele>
			<time>2014-04-13T10:52:47Z</time>
		</trkpt>
		<trkpt lat="54.0112380981445" lon="13.1054811477661">
			<ele>55.0999984741211</ele>
			<time>2014-04-13T10:52:48Z</time>
		</trkpt>
		<trkpt lat="54.0112495422363" lon="13.1056118011475">
			<ele>55.0999984741211</ele>
			<time>2014-04-13T10:52:49Z</time>
		</trkpt>
		<trkpt lat="54.0112648010254" lon="13.1057424545288">
			<ele>54.7999992370605</ele>
			<time>2014-04-13T10:52:50Z</time>
		</trkpt>
		<trkpt lat="54.0112800598145" lon="13.1058750152588">
			<ele>54.5</ele>
			<time>2014-04-13T10:52:51Z</time>
		</trkpt>
		<trkpt lat="54.0112953186035" lon="13.1060094833374">
			<ele>54.2000007629395</ele>
			<time>2014-04-13T10:52:52Z</time>
		</trkpt>
		<trkpt lat="54.0113105773926" lon="13.1061420440674">
			<ele>54</ele>
			<time>2014-04-13T10:52:53Z</time>
		</trkpt>
		<trkpt lat="54.0113258361816" lon="13.1062784194946">
			<ele>53.7000007629395</ele>
			<time>2014-04-13T10:52:54Z</time>
		</trkpt>
		<trkpt lat="54.0113410949707" lon="13.1064186096191">
			<ele>53.7000007629395</ele>
			<time>2014-04-13T10:52:55Z</time>
		</trkpt>
		<trkpt lat="54.0113563537598" lon="13.1065559387207">
			<ele>53.5</ele>
			<time>2014-04-13T10:52:56Z</time>
		</trkpt>
		<trkpt lat="54.011360168457" lon="13.1066961288452">
			<ele>53.5</ele>
			<time>2014-04-13T10:52:57Z</time>
		</trkpt>
		<trkpt lat="54.0113487243652" lon="13.1068391799927">
			<ele>53.2000007629395</ele>
			<time>2014-04-13T10:52:58Z</time>
		</trkpt>
		<trkpt lat="54.0113296508789" lon="13.1069755554199">
			<ele>52.9000015258789</ele>
			<time>2014-04-13T10:52:59Z</time>
		</trkpt>
		<trkpt lat="54.0113067626953" lon="13.1071119308472">
			<ele>52.7000007629395</ele>
			<time>2014-04-13T10:53:00Z</time>
		</trkpt>
		<trkpt lat="54.0112609863281" lon="13.107232093811">
			<ele>52.7000007629395</ele>
			<time>2014-04-13T10:53:01Z</time>
		</trkpt>
		<trkpt lat="54.0112152099609" lon="13.1073560714722">
			<ele>53.2999992370605</ele>
			<time>2014-04-13T10:53:02Z</time>
		</trkpt>
		<trkpt lat="54.0111694335938" lon="13.1074800491333">
			<ele>53.2000007629395</ele>
			<time>2014-04-13T10:53:03Z</time>
		</trkpt>
		<trkpt lat="54.0111312866211" lon="13.1076078414917">
			<ele>53.2999992370605</ele>
			<time>2014-04-13T10:53:04Z</time>
		</trkpt>
		<trkpt lat="54.0110969543457" lon="13.1077308654785">
			<ele>53.2999992370605</ele>
			<time>2014-04-13T10:53:05Z</time>
		</trkpt>
		<trkpt lat="54.0110664367676" lon="13.1078624725342">
			<ele>53.0999984741211</ele>
			<time>2014-04-13T10:53:06Z</time>
		</trkpt>
		<trkpt lat="54.0110397338867" lon="13.1079940795898">
			<ele>53</ele>
			<time>2014-04-13T10:53:07Z</time>
		</trkpt>
		<trkpt lat="54.0110130310059" lon="13.1081304550171">
			<ele>53.2999992370605</ele>
			<time>2014-04-13T10:53:08Z</time>
		</trkpt>
		<trkpt lat="54.0109939575195" lon="13.1082592010498">
			<ele>53</ele>
			<time>2014-04-13T10:53:09Z</time>
		</trkpt>
		<trkpt lat="54.0109634399414" lon="13.1083831787109">
			<ele>53.4000015258789</ele>
			<time>2014-04-13T10:53:10Z</time>
		</trkpt>
		<trkpt lat="54.0109329223633" lon="13.1085090637207">
			<ele>53.4000015258789</ele>
			<time>2014-04-13T10:53:11Z</time>
		</trkpt>
		<trkpt lat="54.0108985900879" lon="13.1086311340332">
			<ele>53.2999992370605</ele>
			<time>2014-04-13T10:53:12Z</time>
		</trkpt>
		<trkpt lat="54.0108642578125" lon="13.1087493896484">
			<ele>53.4000015258789</ele>
			<time>2014-04-13T10:53:13Z</time>
		</trkpt>
		<trkpt lat="54.0108184814453" lon="13.108865737915">
			<ele>53.5999984741211</ele>
			<time>2014-04-13T10:53:14Z</time>
		</trkpt>
		<trkpt lat="54.0107727050781" lon="13.1089715957642">
			<ele>53.9000015258789</ele>
			<time>2014-04-13T10:53:15Z</time>
		</trkpt>
		<trkpt lat="54.0107116699219" lon="13.109073638916">
			<ele>54.5</ele>
			<time>2014-04-13T10:53:16Z</time>
		</trkpt>
		<trkpt lat="54.0106544494629" lon="13.1091718673706">
			<ele>54.5999984741211</ele>
			<time>2014-04-13T10:53:17Z</time>
		</trkpt>
		<trkpt lat="54.0106010437012" lon="13.1092576980591">
			<ele>54.9000015258789</ele>
			<time>2014-04-13T10:53:18Z</time>
		</trkpt>
		<trkpt lat="54.0105438232422" lon="13.109338760376">
			<ele>55</ele>
			<time>2014-04-13T10:53:19Z</time>
		</trkpt>
		<trkpt lat="54.0104827880859" lon="13.1094083786011">
			<ele>55.2999992370605</ele>
			<time>2014-04-13T10:53:20Z</time>
		</trkpt>
		<trkpt lat="54.0104217529297" lon="13.1094741821289">
			<ele>55.4000015258789</ele>
			<time>2014-04-13T10:53:21Z</time>
		</trkpt>
		<trkpt lat="54.0103607177734" lon="13.1095314025879">
			<ele>55.7000007629395</ele>
			<time>2014-04-13T10:53:22Z</time>
		</trkpt>
		<trkpt lat="54.0102996826172" lon="13.1095848083496">
			<ele>55.7000007629395</ele>
			<time>2014-04-13T10:53:23Z</time>
		</trkpt>
		<trkpt lat="54.0102348327637" lon="13.1096296310425">
			<ele>55.7999992370605</ele>
			<time>2014-04-13T10:53:24Z</time>
		</trkpt>
		<trkpt lat="54.0101737976074" lon="13.1096649169922">
			<ele>55.5</ele>
			<time>2014-04-13T10:53:25Z</time>
		</trkpt>
		<trkpt lat="54.0101127624512" lon="13.1096992492676">
			<ele>55.7999992370605</ele>
			<time>2014-04-13T10:53:26Z</time>
		</trkpt>
		<trkpt lat="54.0100517272949" lon="13.109733581543">
			<ele>55.7999992370605</ele>
			<time>2014-04-13T10:53:27Z</time>
		</trkpt>
		<trkpt lat="54.0099906921387" lon="13.1097631454468">
			<ele>55.7000007629395</ele>
			<time>2014-04-13T10:53:28Z</time>
		</trkpt>
		<trkpt lat="54.0099258422852" lon="13.1097927093506">
			<ele>55.7999992370605</ele>
			<time>2014-04-13T10:53:29Z</time>
		</trkpt>
		<trkpt lat="54.0098648071289" lon="13.1098194122314">
			<ele>55.7999992370605</ele>
			<time>2014-04-13T10:53:30Z</time>
		</trkpt>
		<trkpt lat="54.0098075866699" lon="13.1098470687866">
			<ele>55.7999992370605</ele>
			<time>2014-04-13T10:53:31Z</time>
		</trkpt>
		<trkpt lat="54.0097465515137" lon="13.1098766326904">
			<ele>55.7999992370605</ele>
			<time>2014-04-13T10:53:32Z</time>
		</trkpt>
		<trkpt lat="54.009693145752" lon="13.109902381897">
			<ele>55.5999984741211</ele>
			<time>2014-04-13T10:53:33Z</time>
		</trkpt>
		<trkpt lat="54.009635925293" lon="13.1099300384521">
			<ele>55.7000007629395</ele>
			<time>2014-04-13T10:53:34Z</time>
		</trkpt>
		<trkpt lat="54.0095825195313" lon="13.1099519729614">
			<ele>55.7999992370605</ele>
			<time>2014-04-13T10:53:35Z</time>
		</trkpt>
		<trkpt lat="54.0095252990723" lon="13.1099796295166">
			<ele>55.9000015258789</ele>
			<time>2014-04-13T10:53:36Z</time>
		</trkpt>
		<trkpt lat="54.0094718933105" lon="13.1100101470947">
			<ele>55.7999992370605</ele>
			<time>2014-04-13T10:53:37Z</time>
		</trkpt>
		<trkpt lat="54.0094184875488" lon="13.110034942627">
			<ele>56.0999984741211</ele>
			<time>2014-04-13T10:53:38Z</time>
		</trkpt>
		<trkpt lat="54.0093688964844" lon="13.1100606918335">
			<ele>56.2999992370605</ele>
			<time>2014-04-13T10:53:39Z</time>
		</trkpt>
		<trkpt lat="54.0093193054199" lon="13.1100826263428">
			<ele>56.0999984741211</ele>
			<time>2014-04-13T10:53:40Z</time>
		</trkpt>
		<trkpt lat="54.0092658996582" lon="13.1101112365723">
			<ele>56.2000007629395</ele>
			<time>2014-04-13T10:53:41Z</time>
		</trkpt>
		<trkpt lat="54.0092163085938" lon="13.1101322174072">
			<ele>56.2999992370605</ele>
			<time>2014-04-13T10:53:42Z</time>
		</trkpt>
		<trkpt lat="54.009162902832" lon="13.1101560592651">
			<ele>56.2999992370605</ele>
			<time>2014-04-13T10:53:43Z</time>
		</trkpt>
		<trkpt lat="54.0091133117676" lon="13.1101856231689">
			<ele>56.2999992370605</ele>
			<time>2014-04-13T10:53:44Z</time>
		</trkpt>
		<trkpt lat="54.0090560913086" lon="13.1102085113525">
			<ele>56.2999992370605</ele>
			<time>2014-04-13T10:53:45Z</time>
		</trkpt>
		<trkpt lat="54.0090065002441" lon="13.1102323532104">
			<ele>56.4000015258789</ele>
			<time>2014-04-13T10:53:46Z</time>
		</trkpt>
		<trkpt lat="54.0089569091797" lon="13.1102514266968">
			<ele>56.4000015258789</ele>
			<time>2014-04-13T10:53:47Z</time>
		</trkpt>
		<trkpt lat="54.008903503418" lon="13.1102743148804">
			<ele>56.2000007629395</ele>
			<time>2014-04-13T10:53:48Z</time>
		</trkpt>
		<trkpt lat="54.0088539123535" lon="13.1103019714355">
			<ele>56.2999992370605</ele>
			<time>2014-04-13T10:53:49Z</time>
		</trkpt>
		<trkpt lat="54.0088005065918" lon="13.1103286743164">
			<ele>56.0999984741211</ele>
			<time>2014-04-13T10:53:50Z</time>
		</trkpt>
		<trkpt lat="54.0087471008301" lon="13.1103534698486">
			<ele>56</ele>
			<time>2014-04-13T10:53:51Z</time>
		</trkpt>
		<trkpt lat="54.0086936950684" lon="13.1103754043579">
			<ele>55.9000015258789</ele>
			<time>2014-04-13T10:53:52Z</time>
		</trkpt>
		<trkpt lat="54.0086441040039" lon="13.1104011535645">
			<ele>55.7999992370605</ele>
			<time>2014-04-13T10:53:53Z</time>
		</trkpt>
		<trkpt lat="54.0085906982422" lon="13.1104278564453">
			<ele>55.7000007629395</ele>
			<time>2014-04-13T10:53:54Z</time>
		</trkpt>
		<trkpt lat="54.0085372924805" lon="13.1104526519775">
			<ele>55.9000015258789</ele>
			<time>2014-04-13T10:53:55Z</time>
		</trkpt>
		<trkpt lat="54.0084838867188" lon="13.1104774475098">
			<ele>55.9000015258789</ele>
			<time>2014-04-13T10:53:56Z</time>
		</trkpt>
		<trkpt lat="54.0084266662598" lon="13.1105089187622">
			<ele>56.2000007629395</ele>
			<time>2014-04-13T10:53:57Z</time>
		</trkpt>
		<trkpt lat="54.0083770751953" lon="13.1105308532715">
			<ele>56.0999984741211</ele>
			<time>2014-04-13T10:53:58Z</time>
		</trkpt>
		<trkpt lat="54.0083236694336" lon="13.1105623245239">
			<ele>56.2000007629395</ele>
			<time>2014-04-13T10:53:59Z</time>
		</trkpt>
		<trkpt lat="54.0082664489746" lon="13.1105918884277">
			<ele>55.9000015258789</ele>
			<time>2014-04-13T10:54:00Z</time>
		</trkpt>
		<trkpt lat="54.0082130432129" lon="13.1106195449829">
			<ele>55.9000015258789</ele>
			<time>2014-04-13T10:54:01Z</time>
		</trkpt>
		<trkpt lat="54.0081558227539" lon="13.1106462478638">
			<ele>55.7000007629395</ele>
			<time>2014-04-13T10:54:02Z</time>
		</trkpt>
		<trkpt lat="54.0081024169922" lon="13.1106777191162">
			<ele>55.9000015258789</ele>
			<time>2014-04-13T10:54:03Z</time>
		</trkpt>
		<trkpt lat="54.0080451965332" lon="13.11070728302">
			<ele>56</ele>
			<time>2014-04-13T10:54:04Z</time>
		</trkpt>
		<trkpt lat="54.0079917907715" lon="13.1107444763184">
			<ele>56.0999984741211</ele>
			<time>2014-04-13T10:54:05Z</time>
		</trkpt>
		<trkpt lat="54.0079383850098" lon="13.1107788085938">
			<ele>56.0999984741211</ele>
			<time>2014-04-13T10:54:06Z</time>
		</trkpt>
		<trkpt lat="54.0078887939453" lon="13.1108245849609">
			<ele>56.0999984741211</ele>
			<time>2014-04-13T10:54:07Z</time>
		</trkpt>
		<trkpt lat="54.0078430175781" lon="13.1108827590942">
			<ele>56</ele>
			<time>2014-04-13T10:54:08Z</time>
		</trkpt>
		<trkpt lat="54.0078010559082" lon="13.1109485626221">
			<ele>56</ele>
			<time>2014-04-13T10:54:09Z</time>
		</trkpt>
		<trkpt lat="54.0077590942383" lon="13.1110153198242">
			<ele>55.7999992370605</ele>
			<time>2014-04-13T10:54:10Z</time>
		</trkpt>
		<trkpt lat="54.0077209472656" lon="13.1110811233521">
			<ele>55.7999992370605</ele>
			<time>2014-04-13T10:54:11Z</time>
		</trkpt>
		<trkpt lat="54.007682800293" lon="13.1111526489258">
			<ele>55.7000007629395</ele>
			<time>2014-04-13T10:54:12Z</time>
		</trkpt>
		<trkpt lat="54.0076446533203" lon="13.1112279891968">
			<ele>55.7999992370605</ele>
			<time>2014-04-13T10:54:13Z</time>
		</trkpt>
		<trkpt lat="54.0076065063477" lon="13.1113014221191">
			<ele>56</ele>
			<time>2014-04-13T10:54:14Z</time>
		</trkpt>
		<trkpt lat="54.007568359375" lon="13.1113777160645">
			<ele>56.0999984741211</ele>
			<time>2014-04-13T10:54:15Z</time>
		</trkpt>
		<trkpt lat="54.0075302124023" lon="13.1114587783813">
			<ele>55.9000015258789</ele>
			<time>2014-04-13T10:54:16Z</time>
		</trkpt>
		<trkpt lat="54.0074920654297" lon="13.1115312576294">
			<ele>55.9000015258789</ele>
			<time>2014-04-13T10:54:17Z</time>
		</trkpt>
		<trkpt lat="54.0074501037598" lon="13.1116027832031">
			<ele>55.4000015258789</ele>
			<time>2014-04-13T10:54:18Z</time>
		</trkpt>
		<trkpt lat="54.0074081420898" lon="13.1116752624512">
			<ele>55.2000007629395</ele>
			<time>2014-04-13T10:54:19Z</time>
		</trkpt>
		<trkpt lat="54.0073738098145" lon="13.1117458343506">
			<ele>55.0999984741211</ele>
			<time>2014-04-13T10:54:20Z</time>
		</trkpt>
		<trkpt lat="54.0073318481445" lon="13.1118249893188">
			<ele>55.2999992370605</ele>
			<time>2014-04-13T10:54:21Z</time>
		</trkpt>
		<trkpt lat="54.0072975158691" lon="13.1118946075439">
			<ele>55.5999984741211</ele>
			<time>2014-04-13T10:54:22Z</time>
		</trkpt>
		<trkpt lat="54.0072555541992" lon="13.1119689941406">
			<ele>55.7000007629395</ele>
			<time>2014-04-13T10:54:23Z</time>
		</trkpt>
		<trkpt lat="54.0072174072266" lon="13.11203956604">
			<ele>56</ele>
			<time>2014-04-13T10:54:24Z</time>
		</trkpt>
		<trkpt lat="54.0071792602539" lon="13.1121168136597">
			<ele>56.0999984741211</ele>
			<time>2014-04-13T10:54:25Z</time>
		</trkpt>
		<trkpt lat="54.0071334838867" lon="13.112190246582">
			<ele>56.0999984741211</ele>
			<time>2014-04-13T10:54:26Z</time>
		</trkpt>
		<trkpt lat="54.0070915222168" lon="13.1122646331787">
			<ele>56.0999984741211</ele>
			<time>2014-04-13T10:54:27Z</time>
		</trkpt>
		<trkpt lat="54.0070495605469" lon="13.1123371124268">
			<ele>56.2000007629395</ele>
			<time>2014-04-13T10:54:28Z</time>
		</trkpt>
		<trkpt lat="54.0070114135742" lon="13.1124124526978">
			<ele>56.4000015258789</ele>
			<time>2014-04-13T10:54:29Z</time>
		</trkpt>
		<trkpt lat="54.0069694519043" lon="13.1124839782715">
			<ele>56</ele>
			<time>2014-04-13T10:54:30Z</time>
		</trkpt>
		<trkpt lat="54.0069389343262" lon="13.1125459671021">
			<ele>56.2000007629395</ele>
			<time>2014-04-13T10:54:31Z</time>
		</trkpt>
		<trkpt lat="54.0069007873535" lon="13.1126232147217">
			<ele>56.0999984741211</ele>
			<time>2014-04-13T10:54:32Z</time>
		</trkpt>
		<trkpt lat="54.0068702697754" lon="13.1126890182495">
			<ele>56</ele>
			<time>2014-04-13T10:54:33Z</time>
		</trkpt>
		<trkpt lat="54.0068321228027" lon="13.112756729126">
			<ele>56.0999984741211</ele>
			<time>2014-04-13T10:54:34Z</time>
		</trkpt>
		<trkpt lat="54.0067977905273" lon="13.112829208374">
			<ele>56.5999984741211</ele>
			<time>2014-04-13T10:54:35Z</time>
		</trkpt>
		<trkpt lat="54.006763458252" lon="13.112889289856">
			<ele>56.7000007629395</ele>
			<time>2014-04-13T10:54:36Z</time>
		</trkpt>
		<trkpt lat="54.0067291259766" lon="13.1129493713379">
			<ele>56.4000015258789</ele>
			<time>2014-04-13T10:54:37Z</time>
		</trkpt>
		<trkpt lat="54.0067024230957" lon="13.1130094528198">
			<ele>56.4000015258789</ele>
			<time>2014-04-13T10:54:38Z</time>
		</trkpt>
		<trkpt lat="54.0066604614258" lon="13.1130771636963">
			<ele>56.7000007629395</ele>
			<time>2014-04-13T10:54:39Z</time>
		</trkpt>
		<trkpt lat="54.0066337585449" lon="13.1131353378296">
			<ele>56.7000007629395</ele>
			<time>2014-04-13T10:54:40Z</time>
		</trkpt>
		<trkpt lat="54.0065956115723" lon="13.1131896972656">
			<ele>56.4000015258789</ele>
			<time>2014-04-13T10:54:41Z</time>
		</trkpt>
		<trkpt lat="54.0065650939941" lon="13.1132507324219">
			<ele>56.5</ele>
			<time>2014-04-13T10:54:42Z</time>
		</trkpt>
		<trkpt lat="54.006534576416" lon="13.1133184432983">
			<ele>56.5999984741211</ele>
			<time>2014-04-13T10:54:43Z</time>
		</trkpt>
		<trkpt lat="54.006477355957" lon="13.1134338378906">
			<ele>56.7999992370605</ele>
			<time>2014-04-13T10:54:45Z</time>
		</trkpt>
		<trkpt lat="54.0064506530762" lon="13.1134967803955">
			<ele>56.7999992370605</ele>
			<time>2014-04-13T10:54:46Z</time>
		</trkpt>
		<trkpt lat="54.0063972473145" lon="13.113597869873">
			<ele>56.9000015258789</ele>
			<time>2014-04-13T10:54:48Z</time>
		</trkpt>
		<trkpt lat="54.0063323974609" lon="13.1136770248413">
			<ele>56</ele>
			<time>2014-04-13T10:54:50Z</time>
		</trkpt>
		<trkpt lat="54.0063018798828" lon="13.1137380599976">
			<ele>55.7000007629395</ele>
			<time>2014-04-13T10:54:58Z</time>
		</trkpt>
		<trkpt lat="54.0062789916992" lon="13.1138277053833">
			<ele>56.0999984741211</ele>
			<time>2014-04-13T10:57:18Z</time>
		</trkpt>
		<trkpt lat="54.0062446594238" lon="13.1138896942139">
			<ele>56</ele>
			<time>2014-04-13T10:57:20Z</time>
		</trkpt>
		<trkpt lat="54.0062026977539" lon="13.1139698028564">
			<ele>56.7999992370605</ele>
			<time>2014-04-13T10:57:23Z</time>
		</trkpt>
		<trkpt lat="54.0061492919922" lon="13.1140546798706">
			<ele>55.7999992370605</ele>
			<time>2014-04-13T10:57:25Z</time>
		</trkpt>
		<trkpt lat="54.0060958862305" lon="13.1141529083252">
			<ele>55.7999992370605</ele>
			<time>2014-04-13T10:57:27Z</time>
		</trkpt>
		<trkpt lat="54.0060348510742" lon="13.1142702102661">
			<ele>55.9000015258789</ele>
			<time>2014-04-13T10:57:28Z</time>
		</trkpt>
		<trkpt lat="54.0060005187988" lon="13.1143341064453">
			<ele>56.0999984741211</ele>
			<time>2014-04-13T10:57:29Z</time>
		</trkpt>
		<trkpt lat="54.0059661865234" lon="13.1144065856934">
			<ele>56.2999992370605</ele>
			<time>2014-04-13T10:57:30Z</time>
		</trkpt>
		<trkpt lat="54.0059280395508" lon="13.1144723892212">
			<ele>56.2000007629395</ele>
			<time>2014-04-13T10:57:31Z</time>
		</trkpt>
		<trkpt lat="54.0058898925781" lon="13.1145391464233">
			<ele>56.4000015258789</ele>
			<time>2014-04-13T10:57:32Z</time>
		</trkpt>
		<trkpt lat="54.0058517456055" lon="13.1146097183228">
			<ele>55.9000015258789</ele>
			<time>2014-04-13T10:57:33Z</time>
		</trkpt>
		<trkpt lat="54.0058135986328" lon="13.1146850585938">
			<ele>55.9000015258789</ele>
			<time>2014-04-13T10:57:34Z</time>
		</trkpt>
		<trkpt lat="54.0057716369629" lon="13.1147603988647">
			<ele>55.7000007629395</ele>
			<time>2014-04-13T10:57:35Z</time>
		</trkpt>
		<trkpt lat="54.0057334899902" lon="13.1148386001587">
			<ele>56</ele>
			<time>2014-04-13T10:57:36Z</time>
		</trkpt>
		<trkpt lat="54.0056915283203" lon="13.1149168014526">
			<ele>55.7999992370605</ele>
			<time>2014-04-13T10:57:37Z</time>
		</trkpt>
		<trkpt lat="54.0056495666504" lon="13.1149988174438">
			<ele>56</ele>
			<time>2014-04-13T10:57:38Z</time>
		</trkpt>
		<trkpt lat="54.0056076049805" lon="13.1150760650635">
			<ele>55.9000015258789</ele>
			<time>2014-04-13T10:57:39Z</time>
		</trkpt>
		<trkpt lat="54.0055618286133" lon="13.1151695251465">
			<ele>55.7999992370605</ele>
			<time>2014-04-13T10:57:40Z</time>
		</trkpt>
		<trkpt lat="54.0055160522461" lon="13.1152505874634">
			<ele>55.7999992370605</ele>
			<time>2014-04-13T10:57:41Z</time>
		</trkpt>
		<trkpt lat="54.0054702758789" lon="13.115330696106">
			<ele>55.7999992370605</ele>
			<time>2014-04-13T10:57:42Z</time>
		</trkpt>
		<trkpt lat="54.0054244995117" lon="13.1154203414917">
			<ele>56.2000007629395</ele>
			<time>2014-04-13T10:57:43Z</time>
		</trkpt>
		<trkpt lat="54.0053825378418" lon="13.1155109405518">
			<ele>56.0999984741211</ele>
			<time>2014-04-13T10:57:44Z</time>
		</trkpt>
		<trkpt lat="54.0053367614746" lon="13.1155958175659">
			<ele>56.0999984741211</ele>
			<time>2014-04-13T10:57:45Z</time>
		</trkpt>
		<trkpt lat="54.0052909851074" lon="13.1156854629517">
			<ele>56.2999992370605</ele>
			<time>2014-04-13T10:57:46Z</time>
		</trkpt>
		<trkpt lat="54.0052452087402" lon="13.1157712936401">
			<ele>55.9000015258789</ele>
			<time>2014-04-13T10:57:47Z</time>
		</trkpt>
		<trkpt lat="54.005199432373" lon="13.1158609390259">
			<ele>56</ele>
			<time>2014-04-13T10:57:48Z</time>
		</trkpt>
		<trkpt lat="54.0051536560059" lon="13.1159534454346">
			<ele>56.2999992370605</ele>
			<time>2014-04-13T10:57:49Z</time>
		</trkpt>
		<trkpt lat="54.0051040649414" lon="13.116042137146">
			<ele>56.2000007629395</ele>
			<time>2014-04-13T10:57:50Z</time>
		</trkpt>
		<trkpt lat="54.005054473877" lon="13.1161270141602">
			<ele>56.2000007629395</ele>
			<time>2014-04-13T10:57:51Z</time>
		</trkpt>
		<trkpt lat="54.0050086975098" lon="13.1162185668945">
			<ele>56.2000007629395</ele>
			<time>2014-04-13T10:57:52Z</time>
		</trkpt>
		<trkpt lat="54.0049591064453" lon="13.1163063049316">
			<ele>56.0999984741211</ele>
			<time>2014-04-13T10:57:53Z</time>
		</trkpt>
		<trkpt lat="54.0049057006836" lon="13.116397857666">
			<ele>55.7999992370605</ele>
			<time>2014-04-13T10:57:54Z</time>
		</trkpt>
		<trkpt lat="54.0048599243164" lon="13.1164865493774">
			<ele>55.4000015258789</ele>
			<time>2014-04-13T10:57:55Z</time>
		</trkpt>
		<trkpt lat="54.0048141479492" lon="13.1165723800659">
			<ele>55.5</ele>
			<time>2014-04-13T10:57:56Z</time>
		</trkpt>
		<trkpt lat="54.004768371582" lon="13.1166582107544">
			<ele>55.5</ele>
			<time>2014-04-13T10:57:57Z</time>
		</trkpt>
		<trkpt lat="54.0047187805176" lon="13.1167440414429">
			<ele>54.7999992370605</ele>
			<time>2014-04-13T10:57:58Z</time>
		</trkpt>
		<trkpt lat="54.0046691894531" lon="13.11683177948">
			<ele>54.2999992370605</ele>
			<time>2014-04-13T10:57:59Z</time>
		</trkpt>
		<trkpt lat="54.0046195983887" lon="13.11692237854">
			<ele>53.9000015258789</ele>
			<time>2014-04-13T10:58:00Z</time>
		</trkpt>
		<trkpt lat="54.0045700073242" lon="13.1170215606689">
			<ele>54</ele>
			<time>2014-04-13T10:58:01Z</time>
		</trkpt>
		<trkpt lat="54.0045204162598" lon="13.1171226501465">
			<ele>54.2000007629395</ele>
			<time>2014-04-13T10:58:02Z</time>
		</trkpt>
		<trkpt lat="54.0044708251953" lon="13.1172218322754">
			<ele>54.2999992370605</ele>
			<time>2014-04-13T10:58:03Z</time>
		</trkpt>
		<trkpt lat="54.0044212341309" lon="13.1173152923584">
			<ele>54.5</ele>
			<time>2014-04-13T10:58:04Z</time>
		</trkpt>
		<trkpt lat="54.0043678283691" lon="13.1174077987671">
			<ele>54.4000015258789</ele>
			<time>2014-04-13T10:58:05Z</time>
		</trkpt>
		<trkpt lat="54.0043182373047" lon="13.1175050735474">
			<ele>54.5</ele>
			<time>2014-04-13T10:58:06Z</time>
		</trkpt>
		<trkpt lat="54.0042724609375" lon="13.1175918579102">
			<ele>54.4000015258789</ele>
			<time>2014-04-13T10:58:07Z</time>
		</trkpt>
		<trkpt lat="54.004222869873" lon="13.1176891326904">
			<ele>54.2000007629395</ele>
			<time>2014-04-13T10:58:08Z</time>
		</trkpt>
		<trkpt lat="54.0041694641113" lon="13.1177825927734">
			<ele>53.9000015258789</ele>
			<time>2014-04-13T10:58:09Z</time>
		</trkpt>
		<trkpt lat="54.0041160583496" lon="13.1178693771362">
			<ele>53.7999992370605</ele>
			<time>2014-04-13T10:58:10Z</time>
		</trkpt>
		<trkpt lat="54.0040626525879" lon="13.1179552078247">
			<ele>53.7000007629395</ele>
			<time>2014-04-13T10:58:11Z</time>
		</trkpt>
		<trkpt lat="54.0040168762207" lon="13.118052482605">
			<ele>53.7000007629395</ele>
			<time>2014-04-13T10:58:12Z</time>
		</trkpt>
		<trkpt lat="54.0039672851563" lon="13.1181488037109">
			<ele>53.7000007629395</ele>
			<time>2014-04-13T10:58:13Z</time>
		</trkpt>
		<trkpt lat="54.0039176940918" lon="13.1182403564453">
			<ele>53.5999984741211</ele>
			<time>2014-04-13T10:58:14Z</time>
		</trkpt>
		<trkpt lat="54.0038642883301" lon="13.1183452606201">
			<ele>53.5</ele>
			<time>2014-04-13T10:58:15Z</time>
		</trkpt>
		<trkpt lat="54.0038146972656" lon="13.1184415817261">
			<ele>53.5</ele>
			<time>2014-04-13T10:58:16Z</time>
		</trkpt>
		<trkpt lat="54.0037651062012" lon="13.1185274124146">
			<ele>53.2000007629395</ele>
			<time>2014-04-13T10:58:17Z</time>
		</trkpt>
		<trkpt lat="54.003719329834" lon="13.1186294555664">
			<ele>53.2999992370605</ele>
			<time>2014-04-13T10:58:18Z</time>
		</trkpt>
		<trkpt lat="54.0036697387695" lon="13.1187295913696">
			<ele>53.4000015258789</ele>
			<time>2014-04-13T10:58:19Z</time>
		</trkpt>
		<trkpt lat="54.0036201477051" lon="13.1188335418701">
			<ele>53.4000015258789</ele>
			<time>2014-04-13T10:58:20Z</time>
		</trkpt>
		<trkpt lat="54.0035743713379" lon="13.1189336776733">
			<ele>53.2000007629395</ele>
			<time>2014-04-13T10:58:21Z</time>
		</trkpt>
		<trkpt lat="54.0035247802734" lon="13.1190376281738">
			<ele>53.0999984741211</ele>
			<time>2014-04-13T10:58:22Z</time>
		</trkpt>
		<trkpt lat="54.0034790039063" lon="13.1191473007202">
			<ele>53.2000007629395</ele>
			<time>2014-04-13T10:58:23Z</time>
		</trkpt>
		<trkpt lat="54.0034332275391" lon="13.119255065918">
			<ele>53.0999984741211</ele>
			<time>2014-04-13T10:58:24Z</time>
		</trkpt>
		<trkpt lat="54.0033912658691" lon="13.1193656921387">
			<ele>53.4000015258789</ele>
			<time>2014-04-13T10:58:25Z</time>
		</trkpt>
		<trkpt lat="54.003345489502" lon="13.1194744110107">
			<ele>53.0999984741211</ele>
			<time>2014-04-13T10:58:26Z</time>
		</trkpt>
		<trkpt lat="54.003303527832" lon="13.1195812225342">
			<ele>53.0999984741211</ele>
			<time>2014-04-13T10:58:27Z</time>
		</trkpt>
		<trkpt lat="54.0032615661621" lon="13.1196908950806">
			<ele>53.2999992370605</ele>
			<time>2014-04-13T10:58:28Z</time>
		</trkpt>
		<trkpt lat="54.0032196044922" lon="13.1197910308838">
			<ele>53.0999984741211</ele>
			<time>2014-04-13T10:58:29Z</time>
		</trkpt>
		<trkpt lat="54.0031776428223" lon="13.1198978424072">
			<ele>53.2000007629395</ele>
			<time>2014-04-13T10:58:30Z</time>
		</trkpt>
		<trkpt lat="54.0031356811523" lon="13.1199960708618">
			<ele>53</ele>
			<time>2014-04-13T10:58:31Z</time>
		</trkpt>
		<trkpt lat="54.0030899047852" lon="13.1201000213623">
			<ele>53</ele>
			<time>2014-04-13T10:58:32Z</time>
		</trkpt>
		<trkpt lat="54.0030479431152" lon="13.1202068328857">
			<ele>53.0999984741211</ele>
			<time>2014-04-13T10:58:33Z</time>
		</trkpt>
		<trkpt lat="54.003002166748" lon="13.1203098297119">
			<ele>52.9000015258789</ele>
			<time>2014-04-13T10:58:34Z</time>
		</trkpt>
		<trkpt lat="54.0029602050781" lon="13.1204128265381">
			<ele>52.7999992370605</ele>
			<time>2014-04-13T10:58:35Z</time>
		</trkpt>
		<trkpt lat="54.0029144287109" lon="13.120512008667">
			<ele>53</ele>
			<time>2014-04-13T10:58:36Z</time>
		</trkpt>
		<trkpt lat="54.002872467041" lon="13.1206169128418">
			<ele>52.5999984741211</ele>
			<time>2014-04-13T10:58:37Z</time>
		</trkpt>
		<trkpt lat="54.0028266906738" lon="13.1207218170166">
			<ele>52.5999984741211</ele>
			<time>2014-04-13T10:58:38Z</time>
		</trkpt>
		<trkpt lat="54.0027847290039" lon="13.1208219528198">
			<ele>52.5</ele>
			<time>2014-04-13T10:58:39Z</time>
		</trkpt>
		<trkpt lat="54.002742767334" lon="13.1209230422974">
			<ele>52.5</ele>
			<time>2014-04-13T10:58:40Z</time>
		</trkpt>
		<trkpt lat="54.0027046203613" lon="13.1210222244263">
			<ele>52.5</ele>
			<time>2014-04-13T10:58:41Z</time>
		</trkpt>
		<trkpt lat="54.0026664733887" lon="13.1211214065552">
			<ele>52.5999984741211</ele>
			<time>2014-04-13T10:58:42Z</time>
		</trkpt>
		<trkpt lat="54.002628326416" lon="13.1212196350098">
			<ele>52.7000007629395</ele>
			<time>2014-04-13T10:58:43Z</time>
		</trkpt>
		<trkpt lat="54.0025863647461" lon="13.1213207244873">
			<ele>52.7999992370605</ele>
			<time>2014-04-13T10:58:44Z</time>
		</trkpt>
		<trkpt lat="54.0025482177734" lon="13.1214160919189">
			<ele>53.0999984741211</ele>
			<time>2014-04-13T10:58:45Z</time>
		</trkpt>
		<trkpt lat="54.0025100708008" lon="13.1215105056763">
			<ele>53.0999984741211</ele>
			<time>2014-04-13T10:58:46Z</time>
		</trkpt>
		<trkpt lat="54.0024719238281" lon="13.1216077804565">
			<ele>53.2999992370605</ele>
			<time>2014-04-13T10:58:47Z</time>
		</trkpt>
		<trkpt lat="54.0024337768555" lon="13.1217060089111">
			<ele>53.5999984741211</ele>
			<time>2014-04-13T10:58:48Z</time>
		</trkpt>
		<trkpt lat="54.0023918151855" lon="13.1218070983887">
			<ele>53.5999984741211</ele>
			<time>2014-04-13T10:58:49Z</time>
		</trkpt>
		<trkpt lat="54.0023536682129" lon="13.1218948364258">
			<ele>53.5</ele>
			<time>2014-04-13T10:58:50Z</time>
		</trkpt>
		<trkpt lat="54.002311706543" lon="13.1219892501831">
			<ele>53.5</ele>
			<time>2014-04-13T10:58:51Z</time>
		</trkpt>
		<trkpt lat="54.0022773742676" lon="13.1220827102661">
			<ele>53.7999992370605</ele>
			<time>2014-04-13T10:58:52Z</time>
		</trkpt>
		<trkpt lat="54.0022430419922" lon="13.1221780776978">
			<ele>53.9000015258789</ele>
			<time>2014-04-13T10:58:53Z</time>
		</trkpt>
		<trkpt lat="54.0022048950195" lon="13.122275352478">
			<ele>54</ele>
			<time>2014-04-13T10:58:54Z</time>
		</trkpt>
		<trkpt lat="54.0021667480469" lon="13.1223707199097">
			<ele>53.9000015258789</ele>
			<time>2014-04-13T10:58:55Z</time>
		</trkpt>
		<trkpt lat="54.002124786377" lon="13.1224575042725">
			<ele>53.9000015258789</ele>
			<time>2014-04-13T10:58:56Z</time>
		</trkpt>
		<trkpt lat="54.0020866394043" lon="13.1225528717041">
			<ele>54.0999984741211</ele>
			<time>2014-04-13T10:58:57Z</time>
		</trkpt>
		<trkpt lat="54.0020523071289" lon="13.1226396560669">
			<ele>54</ele>
			<time>2014-04-13T10:58:58Z</time>
		</trkpt>
		<trkpt lat="54.0020141601563" lon="13.122727394104">
			<ele>54.0999984741211</ele>
			<time>2014-04-13T10:58:59Z</time>
		</trkpt>
		<trkpt lat="54.0019798278809" lon="13.1228132247925">
			<ele>53.9000015258789</ele>
			<time>2014-04-13T10:59:00Z</time>
		</trkpt>
		<trkpt lat="54.0019416809082" lon="13.1229000091553">
			<ele>54.0999984741211</ele>
			<time>2014-04-13T10:59:01Z</time>
		</trkpt>
		<trkpt lat="54.0019035339355" lon="13.1229801177979">
			<ele>53.7999992370605</ele>
			<time>2014-04-13T10:59:02Z</time>
		</trkpt>
		<trkpt lat="54.0018692016602" lon="13.1230716705322">
			<ele>53.5999984741211</ele>
			<time>2014-04-13T10:59:03Z</time>
		</trkpt>
		<trkpt lat="54.0018310546875" lon="13.123161315918">
			<ele>53.7000007629395</ele>
			<time>2014-04-13T10:59:04Z</time>
		</trkpt>
		<trkpt lat="54.0017967224121" lon="13.1232509613037">
			<ele>53.5</ele>
			<time>2014-04-13T10:59:05Z</time>
		</trkpt>
		<trkpt lat="54.0017585754395" lon="13.1233406066895">
			<ele>53.7999992370605</ele>
			<time>2014-04-13T10:59:06Z</time>
		</trkpt>
		<trkpt lat="54.0017242431641" lon="13.1234264373779">
			<ele>54</ele>
			<time>2014-04-13T10:59:07Z</time>
		</trkpt>
		<trkpt lat="54.0016899108887" lon="13.1235065460205">
			<ele>54</ele>
			<time>2014-04-13T10:59:08Z</time>
		</trkpt>
		<trkpt lat="54.0016555786133" lon="13.1235942840576">
			<ele>54.0999984741211</ele>
			<time>2014-04-13T10:59:09Z</time>
		</trkpt>
		<trkpt lat="54.0016136169434" lon="13.1236848831177">
			<ele>54.0999984741211</ele>
			<time>2014-04-13T10:59:10Z</time>
		</trkpt>
		<trkpt lat="54.0015754699707" lon="13.1237773895264">
			<ele>53.9000015258789</ele>
			<time>2014-04-13T10:59:11Z</time>
		</trkpt>
		<trkpt lat="54.001537322998" lon="13.1238670349121">
			<ele>53.5</ele>
			<time>2014-04-13T10:59:12Z</time>
		</trkpt>
		<trkpt lat="54.0015029907227" lon="13.1239614486694">
			<ele>53.5999984741211</ele>
			<time>2014-04-13T10:59:13Z</time>
		</trkpt>
		<trkpt lat="54.0014724731445" lon="13.1240568161011">
			<ele>53.7999992370605</ele>
			<time>2014-04-13T10:59:14Z</time>
		</trkpt>
		<trkpt lat="54.0014343261719" lon="13.1241493225098">
			<ele>53.7000007629395</ele>
			<time>2014-04-13T10:59:15Z</time>
		</trkpt>
		<trkpt lat="54.001392364502" lon="13.1242485046387">
			<ele>53.9000015258789</ele>
			<time>2014-04-13T10:59:16Z</time>
		</trkpt>
		<trkpt lat="54.001350402832" lon="13.1243410110474">
			<ele>53.5999984741211</ele>
			<time>2014-04-13T10:59:17Z</time>
		</trkpt>
		<trkpt lat="54.0013122558594" lon="13.1244382858276">
			<ele>53.5999984741211</ele>
			<time>2014-04-13T10:59:18Z</time>
		</trkpt>
		<trkpt lat="54.0012741088867" lon="13.1245365142822">
			<ele>53.5999984741211</ele>
			<time>2014-04-13T10:59:19Z</time>
		</trkpt>
		<trkpt lat="54.0012397766113" lon="13.1246347427368">
			<ele>53.5999984741211</ele>
			<time>2014-04-13T10:59:20Z</time>
		</trkpt>
		<trkpt lat="54.0011978149414" lon="13.1247301101685">
			<ele>53.5999984741211</ele>
			<time>2014-04-13T10:59:21Z</time>
		</trkpt>
		<trkpt lat="54.0011558532715" lon="13.124828338623">
			<ele>53.5999984741211</ele>
			<time>2014-04-13T10:59:23Z</time>
		</trkpt>
		<trkpt lat="54.0011177062988" lon="13.1249294281006">
			<ele>53.5999984741211</ele>
			<time>2014-04-13T10:59:24Z</time>
		</trkpt>
		<trkpt lat="54.0010375976563" lon="13.1251211166382">
			<ele>53.7000007629395</ele>
			<time>2014-04-13T10:59:26Z</time>
		</trkpt>
		<trkpt lat="54.0009956359863" lon="13.1252288818359">
			<ele>53.9000015258789</ele>
			<time>2014-04-13T10:59:27Z</time>
		</trkpt>
		<trkpt lat="54.0009498596191" lon="13.1253290176392">
			<ele>53.5999984741211</ele>
			<time>2014-04-13T10:59:27Z</time>
		</trkpt>
		<trkpt lat="54.0009078979492" lon="13.1254224777222">
			<ele>53.4000015258789</ele>
			<time>2014-04-13T10:59:28Z</time>
		</trkpt>
		<trkpt lat="54.0008659362793" lon="13.1255178451538">
			<ele>53.4000015258789</ele>
			<time>2014-04-13T10:59:30Z</time>
		</trkpt>
		<trkpt lat="54.000789642334" lon="13.1257209777832">
			<ele>53.4000015258789</ele>
			<time>2014-04-13T10:59:31Z</time>
		</trkpt>
		<trkpt lat="54.0007476806641" lon="13.1258144378662">
			<ele>53.2999992370605</ele>
			<time>2014-04-13T10:59:33Z</time>
		</trkpt>
		<trkpt lat="54.0006675720215" lon="13.1260185241699">
			<ele>53.2999992370605</ele>
			<time>2014-04-13T10:59:34Z</time>
		</trkpt>
		<trkpt lat="54.0006294250488" lon="13.1261157989502">
			<ele>53.2999992370605</ele>
			<time>2014-04-13T10:59:35Z</time>
		</trkpt>
		<trkpt lat="54.0005912780762" lon="13.1262187957764">
			<ele>53</ele>
			<time>2014-04-13T10:59:36Z</time>
		</trkpt>
		<trkpt lat="54.0005493164063" lon="13.1263179779053">
			<ele>53.0999984741211</ele>
			<time>2014-04-13T10:59:37Z</time>
		</trkpt>
		<trkpt lat="54.0005111694336" lon="13.1264162063599">
			<ele>53.0999984741211</ele>
			<time>2014-04-13T10:59:38Z</time>
		</trkpt>
		<trkpt lat="54.0004692077637" lon="13.1265115737915">
			<ele>53.0999984741211</ele>
			<time>2014-04-13T10:59:39Z</time>
		</trkpt>
		<trkpt lat="54.000431060791" lon="13.1266059875488">
			<ele>53.2000007629395</ele>
			<time>2014-04-13T10:59:40Z</time>
		</trkpt>
		<trkpt lat="54.0003890991211" lon="13.1267004013062">
			<ele>53.0999984741211</ele>
			<time>2014-04-13T10:59:41Z</time>
		</trkpt>
		<trkpt lat="54.0003509521484" lon="13.1267948150635">
			<ele>53.0999984741211</ele>
			<time>2014-04-13T10:59:42Z</time>
		</trkpt>
		<trkpt lat="54.0003089904785" lon="13.1268930435181">
			<ele>53</ele>
			<time>2014-04-13T10:59:43Z</time>
		</trkpt>
		<trkpt lat="54.0002670288086" lon="13.126989364624">
			<ele>53.0999984741211</ele>
			<time>2014-04-13T10:59:44Z</time>
		</trkpt>
		<trkpt lat="54.0002212524414" lon="13.1270713806152">
			<ele>53.0999984741211</ele>
			<time>2014-04-13T10:59:45Z</time>
		</trkpt>
		<trkpt lat="54.0001792907715" lon="13.1271533966064">
			<ele>53</ele>
			<time>2014-04-13T10:59:46Z</time>
		</trkpt>
		<trkpt lat="54.0001335144043" lon="13.127233505249">
			<ele>52.9000015258789</ele>
			<time>2014-04-13T10:59:47Z</time>
		</trkpt>
		<trkpt lat="54.0000839233398" lon="13.1273155212402">
			<ele>52.9000015258789</ele>
			<time>2014-04-13T10:59:48Z</time>
		</trkpt>
		<trkpt lat="54.0000267028809" lon="13.127384185791">
			<ele>52.7999992370605</ele>
			<time>2014-04-13T10:59:49Z</time>
		</trkpt>
		<trkpt lat="53.9999771118164" lon="13.1274576187134">
			<ele>52.5999984741211</ele>
			<time>2014-04-13T10:59:51Z</time>
		</trkpt>
		<trkpt lat="53.9998664855957" lon="13.1275997161865">
			<ele>52.7000007629395</ele>
			<time>2014-04-13T10:59:52Z</time>
		</trkpt>
		<trkpt lat="53.9998092651367" lon="13.127667427063">
			<ele>52.7999992370605</ele>
			<time>2014-04-13T10:59:53Z</time>
		</trkpt>
		<trkpt lat="53.9997444152832" lon="13.1277227401733">
			<ele>53.0999984741211</ele>
			<time>2014-04-13T10:59:54Z</time>
		</trkpt>
		<trkpt lat="53.9996871948242" lon="13.127781867981">
			<ele>52.9000015258789</ele>
			<time>2014-04-13T10:59:55Z</time>
		</trkpt>
		<trkpt lat="53.999626159668" lon="13.1278495788574">
			<ele>52.7000007629395</ele>
			<time>2014-04-13T10:59:56Z</time>
		</trkpt>
		<trkpt lat="53.9995651245117" lon="13.1279077529907">
			<ele>52.5999984741211</ele>
			<time>2014-04-13T10:59:57Z</time>
		</trkpt>
		<trkpt lat="53.9995040893555" lon="13.127965927124">
			<ele>52.2999992370605</ele>
			<time>2014-04-13T10:59:58Z</time>
		</trkpt>
		<trkpt lat="53.9994430541992" lon="13.1280193328857">
			<ele>52.2999992370605</ele>
			<time>2014-04-13T11:00:00Z</time>
		</trkpt>
		<trkpt lat="53.9993095397949" lon="13.1281318664551">
			<ele>52.5</ele>
			<time>2014-04-13T11:00:01Z</time>
		</trkpt>
		<trkpt lat="53.9992408752441" lon="13.1281881332397">
			<ele>52.5999984741211</ele>
			<time>2014-04-13T11:00:02Z</time>
		</trkpt>
		<trkpt lat="53.9991722106934" lon="13.1282434463501">
			<ele>52.2000007629395</ele>
			<time>2014-04-13T11:00:03Z</time>
		</trkpt>
		<trkpt lat="53.9991035461426" lon="13.128303527832">
			<ele>52.0999984741211</ele>
			<time>2014-04-13T11:00:04Z</time>
		</trkpt>
		<trkpt lat="53.9990348815918" lon="13.1283445358276">
			<ele>51.9000015258789</ele>
			<time>2014-04-13T11:00:05Z</time>
		</trkpt>
		<trkpt lat="53.9989738464355" lon="13.1283922195435">
			<ele>51.7000007629395</ele>
			<time>2014-04-13T11:00:06Z</time>
		</trkpt>
		<trkpt lat="53.9989013671875" lon="13.1284294128418">
			<ele>51.2000007629395</ele>
			<time>2014-04-13T11:00:07Z</time>
		</trkpt>
		<trkpt lat="53.9988327026367" lon="13.1284837722778">
			<ele>50.7999992370605</ele>
			<time>2014-04-13T11:00:08Z</time>
		</trkpt>
		<trkpt lat="53.9987602233887" lon="13.1285104751587">
			<ele>50.5999984741211</ele>
			<time>2014-04-13T11:00:09Z</time>
		</trkpt>
		<trkpt lat="53.9986915588379" lon="13.1285371780396">
			<ele>51.0999984741211</ele>
			<time>2014-04-13T11:00:10Z</time>
		</trkpt>
		<trkpt lat="53.9986228942871" lon="13.1285877227783">
			<ele>51.2000007629395</ele>
			<time>2014-04-13T11:00:11Z</time>
		</trkpt>
		<trkpt lat="53.9985580444336" lon="13.1286392211914">
			<ele>51.5</ele>
			<time>2014-04-13T11:00:12Z</time>
		</trkpt>
		<trkpt lat="53.9985008239746" lon="13.1287002563477">
			<ele>51.7999992370605</ele>
			<time>2014-04-13T11:00:13Z</time>
		</trkpt>
		<trkpt lat="53.9984397888184" lon="13.1287593841553">
			<ele>52.0999984741211</ele>
			<time>2014-04-13T11:00:14Z</time>
		</trkpt>
		<trkpt lat="53.9983825683594" lon="13.1288290023804">
			<ele>51.7000007629395</ele>
			<time>2014-04-13T11:00:15Z</time>
		</trkpt>
		<trkpt lat="53.9983215332031" lon="13.1289110183716">
			<ele>51.0999984741211</ele>
			<time>2014-04-13T11:00:16Z</time>
		</trkpt>
		<trkpt lat="53.9982795715332" lon="13.1290044784546">
			<ele>51.2000007629395</ele>
			<time>2014-04-13T11:00:17Z</time>
		</trkpt>
		<trkpt lat="53.9982299804688" lon="13.129096031189">
			<ele>50.5999984741211</ele>
			<time>2014-04-13T11:00:18Z</time>
		</trkpt>
		<trkpt lat="53.9981803894043" lon="13.129186630249">
			<ele>50.5</ele>
			<time>2014-04-13T11:00:19Z</time>
		</trkpt>
		<trkpt lat="53.9981269836426" lon="13.1292695999146">
			<ele>50.7000007629395</ele>
			<time>2014-04-13T11:00:20Z</time>
		</trkpt>
		<trkpt lat="53.9980850219727" lon="13.1293611526489">
			<ele>50.5999984741211</ele>
			<time>2014-04-13T11:00:21Z</time>
		</trkpt>
		<trkpt lat="53.9980392456055" lon="13.1294565200806">
			<ele>50.7000007629395</ele>
			<time>2014-04-13T11:00:22Z</time>
		</trkpt>
		<trkpt lat="53.9979972839355" lon="13.1295537948608">
			<ele>50.4000015258789</ele>
			<time>2014-04-13T11:00:23Z</time>
		</trkpt>
		<trkpt lat="53.9979553222656" lon="13.1296510696411">
			<ele>50.5</ele>
			<time>2014-04-13T11:00:24Z</time>
		</trkpt>
		<trkpt lat="53.9979133605957" lon="13.1297521591187">
			<ele>50.9000015258789</ele>
			<time>2014-04-13T11:00:25Z</time>
		</trkpt>
		<trkpt lat="53.9978713989258" lon="13.1298561096191">
			<ele>50.9000015258789</ele>
			<time>2014-04-13T11:00:26Z</time>
		</trkpt>
		<trkpt lat="53.9978446960449" lon="13.1299676895142">
			<ele>50.7999992370605</ele>
			<time>2014-04-13T11:00:27Z</time>
		</trkpt>
		<trkpt lat="53.9978179931641" lon="13.1300802230835">
			<ele>50.5999984741211</ele>
			<time>2014-04-13T11:00:28Z</time>
		</trkpt>
		<trkpt lat="53.9977989196777" lon="13.1301984786987">
			<ele>50.2000007629395</ele>
			<time>2014-04-13T11:00:29Z</time>
		</trkpt>
		<trkpt lat="53.9977912902832" lon="13.1303234100342">
			<ele>50.5</ele>
			<time>2014-04-13T11:00:30Z</time>
		</trkpt>
		<trkpt lat="53.9977798461914" lon="13.1304521560669">
			<ele>50.5</ele>
			<time>2014-04-13T11:00:31Z</time>
		</trkpt>
		<trkpt lat="53.9977874755859" lon="13.1305627822876">
			<ele>49.5</ele>
			<time>2014-04-13T11:00:32Z</time>
		</trkpt>
		<trkpt lat="53.9977989196777" lon="13.1306848526001">
			<ele>49.0999984741211</ele>
			<time>2014-04-13T11:00:33Z</time>
		</trkpt>
		<trkpt lat="53.9978141784668" lon="13.1307973861694">
			<ele>48.9000015258789</ele>
			<time>2014-04-13T11:00:34Z</time>
		</trkpt>
		<trkpt lat="53.9978408813477" lon="13.1309118270874">
			<ele>48.5</ele>
			<time>2014-04-13T11:00:35Z</time>
		</trkpt>
		<trkpt lat="53.9978713989258" lon="13.1310253143311">
			<ele>48.2000007629395</ele>
			<time>2014-04-13T11:00:36Z</time>
		</trkpt>
		<trkpt lat="53.9978981018066" lon="13.1311445236206">
			<ele>48.4000015258789</ele>
			<time>2014-04-13T11:00:37Z</time>
		</trkpt>
		<trkpt lat="53.9979286193848" lon="13.1312551498413">
			<ele>48.5999984741211</ele>
			<time>2014-04-13T11:00:38Z</time>
		</trkpt>
		<trkpt lat="53.9979667663574" lon="13.131368637085">
			<ele>48.5</ele>
			<time>2014-04-13T11:00:39Z</time>
		</trkpt>
		<trkpt lat="53.9979934692383" lon="13.1314821243286">
			<ele>48.5</ele>
			<time>2014-04-13T11:00:40Z</time>
		</trkpt>
		<trkpt lat="53.9980201721191" lon="13.131591796875">
			<ele>48.2000007629395</ele>
			<time>2014-04-13T11:00:41Z</time>
		</trkpt>
		<trkpt lat="53.9980506896973" lon="13.1317005157471">
			<ele>48.0999984741211</ele>
			<time>2014-04-13T11:00:42Z</time>
		</trkpt>
		<trkpt lat="53.9980926513672" lon="13.131796836853">
			<ele>48.2000007629395</ele>
			<time>2014-04-13T11:00:43Z</time>
		</trkpt>
		<trkpt lat="53.9981307983398" lon="13.131890296936">
			<ele>48.0999984741211</ele>
			<time>2014-04-13T11:00:44Z</time>
		</trkpt>
		<trkpt lat="53.998176574707" lon="13.1319723129272">
			<ele>48.2000007629395</ele>
			<time>2014-04-13T11:00:45Z</time>
		</trkpt>
		<trkpt lat="53.998218536377" lon="13.1320610046387">
			<ele>48.5</ele>
			<time>2014-04-13T11:00:46Z</time>
		</trkpt>
		<trkpt lat="53.9982566833496" lon="13.1321439743042">
			<ele>48.2000007629395</ele>
			<time>2014-04-13T11:00:47Z</time>
		</trkpt>
		<trkpt lat="53.9983024597168" lon="13.1322231292725">
			<ele>48</ele>
			<time>2014-04-13T11:00:48Z</time>
		</trkpt>
		<trkpt lat="53.998348236084" lon="13.132306098938">
			<ele>48.0999984741211</ele>
			<time>2014-04-13T11:00:49Z</time>
		</trkpt>
		<trkpt lat="53.9983901977539" lon="13.1323862075806">
			<ele>48.2000007629395</ele>
			<time>2014-04-13T11:00:50Z</time>
		</trkpt>
		<trkpt lat="53.9984321594238" lon="13.1324605941772">
			<ele>48.2999992370605</ele>
			<time>2014-04-13T11:00:51Z</time>
		</trkpt>
		<trkpt lat="53.9984664916992" lon="13.1325407028198">
			<ele>48.5999984741211</ele>
			<time>2014-04-13T11:00:52Z</time>
		</trkpt>
		<trkpt lat="53.9985008239746" lon="13.1326236724854">
			<ele>48.5999984741211</ele>
			<time>2014-04-13T11:00:53Z</time>
		</trkpt>
		<trkpt lat="53.9985313415527" lon="13.132716178894">
			<ele>48.9000015258789</ele>
			<time>2014-04-13T11:00:54Z</time>
		</trkpt>
		<trkpt lat="53.9985542297363" lon="13.1328039169312">
			<ele>48.7999992370605</ele>
			<time>2014-04-13T11:00:55Z</time>
		</trkpt>
		<trkpt lat="53.9985771179199" lon="13.1328926086426">
			<ele>49</ele>
			<time>2014-04-13T11:00:56Z</time>
		</trkpt>
		<trkpt lat="53.9986000061035" lon="13.1329822540283">
			<ele>49.0999984741211</ele>
			<time>2014-04-13T11:00:57Z</time>
		</trkpt>
		<trkpt lat="53.9986152648926" lon="13.1330728530884">
			<ele>49.2999992370605</ele>
			<time>2014-04-13T11:00:58Z</time>
		</trkpt>
		<trkpt lat="53.9986267089844" lon="13.1331615447998">
			<ele>49.4000015258789</ele>
			<time>2014-04-13T11:00:59Z</time>
		</trkpt>
		<trkpt lat="53.9986381530762" lon="13.1332530975342">
			<ele>49.4000015258789</ele>
			<time>2014-04-13T11:01:00Z</time>
		</trkpt>
		<trkpt lat="53.998649597168" lon="13.1333522796631">
			<ele>49.5</ele>
			<time>2014-04-13T11:01:01Z</time>
		</trkpt>
		<trkpt lat="53.9986572265625" lon="13.1334438323975">
			<ele>49.5999984741211</ele>
			<time>2014-04-13T11:01:02Z</time>
		</trkpt>
		<trkpt lat="53.998649597168" lon="13.1335506439209">
			<ele>49.7999992370605</ele>
			<time>2014-04-13T11:01:03Z</time>
		</trkpt>
		<trkpt lat="53.998649597168" lon="13.1336555480957">
			<ele>49.5999984741211</ele>
			<time>2014-04-13T11:01:04Z</time>
		</trkpt>
		<trkpt lat="53.9986457824707" lon="13.1337604522705">
			<ele>49.7000007629395</ele>
			<time>2014-04-13T11:01:05Z</time>
		</trkpt>
		<trkpt lat="53.9986419677734" lon="13.1338577270508">
			<ele>49.7999992370605</ele>
			<time>2014-04-13T11:01:06Z</time>
		</trkpt>
		<trkpt lat="53.9986419677734" lon="13.1339521408081">
			<ele>50.9000015258789</ele>
			<time>2014-04-13T11:01:07Z</time>
		</trkpt>
		<trkpt lat="53.9986381530762" lon="13.1340465545654">
			<ele>51.2999992370605</ele>
			<time>2014-04-13T11:01:08Z</time>
		</trkpt>
		<trkpt lat="53.9986381530762" lon="13.1341361999512">
			<ele>51.4000015258789</ele>
			<time>2014-04-13T11:01:09Z</time>
		</trkpt>
		<trkpt lat="53.9986457824707" lon="13.1342840194702">
			<ele>51.2999992370605</ele>
			<time>2014-04-13T11:01:11Z</time>
		</trkpt>
		<trkpt lat="53.9986457824707" lon="13.1343793869019">
			<ele>51</ele>
			<time>2014-04-13T11:01:12Z</time>
		</trkpt>
		<trkpt lat="53.9986381530762" lon="13.1344585418701">
			<ele>51.5</ele>
			<time>2014-04-13T11:01:13Z</time>
		</trkpt>
		<trkpt lat="53.9986343383789" lon="13.1345443725586">
			<ele>51.4000015258789</ele>
			<time>2014-04-13T11:01:14Z</time>
		</trkpt>
		<trkpt lat="53.9986343383789" lon="13.1346292495728">
			<ele>51.4000015258789</ele>
			<time>2014-04-13T11:01:15Z</time>
		</trkpt>
		<trkpt lat="53.9986343383789" lon="13.1347122192383">
			<ele>51.7000007629395</ele>
			<time>2014-04-13T11:01:16Z</time>
		</trkpt>
		<trkpt lat="53.9986343383789" lon="13.1347923278809">
			<ele>51.9000015258789</ele>
			<time>2014-04-13T11:01:17Z</time>
		</trkpt>
		<trkpt lat="53.9986305236816" lon="13.1349411010742">
			<ele>51.7000007629395</ele>
			<time>2014-04-13T11:01:19Z</time>
		</trkpt>
		<trkpt lat="53.9986305236816" lon="13.1350259780884">
			<ele>51.7999992370605</ele>
			<time>2014-04-13T11:01:20Z</time>
		</trkpt>
		<trkpt lat="53.9986343383789" lon="13.1351718902588">
			<ele>52.9000015258789</ele>
			<time>2014-04-13T11:01:22Z</time>
		</trkpt>
		<trkpt lat="53.9986381530762" lon="13.1352529525757">
			<ele>52.5999984741211</ele>
			<time>2014-04-13T11:01:23Z</time>
		</trkpt>
		<trkpt lat="53.9986381530762" lon="13.1353321075439">
			<ele>53.0999984741211</ele>
			<time>2014-04-13T11:01:24Z</time>
		</trkpt>
		<trkpt lat="53.9986381530762" lon="13.1354808807373">
			<ele>53.2999992370605</ele>
			<time>2014-04-13T11:01:26Z</time>
		</trkpt>
		<trkpt lat="53.9986343383789" lon="13.1356344223022">
			<ele>53.4000015258789</ele>
			<time>2014-04-13T11:01:28Z</time>
		</trkpt>
		<trkpt lat="53.9986381530762" lon="13.1357116699219">
			<ele>53.5</ele>
			<time>2014-04-13T11:01:29Z</time>
		</trkpt>
		<trkpt lat="53.9986381530762" lon="13.1358613967896">
			<ele>53.4000015258789</ele>
			<time>2014-04-13T11:01:31Z</time>
		</trkpt>
		<trkpt lat="53.9986343383789" lon="13.1360139846802">
			<ele>53.5</ele>
			<time>2014-04-13T11:01:33Z</time>
		</trkpt>
		<trkpt lat="53.9986305236816" lon="13.1360921859741">
			<ele>53.5</ele>
			<time>2014-04-13T11:01:34Z</time>
		</trkpt>
		<trkpt lat="53.9986267089844" lon="13.1361684799194">
			<ele>53.0999984741211</ele>
			<time>2014-04-13T11:01:35Z</time>
		</trkpt>
		<trkpt lat="53.9986267089844" lon="13.136248588562">
			<ele>53.5</ele>
			<time>2014-04-13T11:01:36Z</time>
		</trkpt>
		<trkpt lat="53.9986267089844" lon="13.1363277435303">
			<ele>53.5</ele>
			<time>2014-04-13T11:01:37Z</time>
		</trkpt>
		<trkpt lat="53.9986267089844" lon="13.1364040374756">
			<ele>53.5999984741211</ele>
			<time>2014-04-13T11:01:38Z</time>
		</trkpt>
		<trkpt lat="53.9986228942871" lon="13.1364841461182">
			<ele>53.7000007629395</ele>
			<time>2014-04-13T11:01:39Z</time>
		</trkpt>
		<trkpt lat="53.9986228942871" lon="13.1365633010864">
			<ele>54</ele>
			<time>2014-04-13T11:01:40Z</time>
		</trkpt>
		<trkpt lat="53.9986190795898" lon="13.1366405487061">
			<ele>54</ele>
			<time>2014-04-13T11:01:41Z</time>
		</trkpt>
		<trkpt lat="53.9986152648926" lon="13.1367177963257">
			<ele>54</ele>
			<time>2014-04-13T11:01:42Z</time>
		</trkpt>
		<trkpt lat="53.998607635498" lon="13.1368684768677">
			<ele>54</ele>
			<time>2014-04-13T11:01:44Z</time>
		</trkpt>
		<trkpt lat="53.9986114501953" lon="13.1369466781616">
			<ele>53.9000015258789</ele>
			<time>2014-04-13T11:01:45Z</time>
		</trkpt>
		<trkpt lat="53.9986114501953" lon="13.1370248794556">
			<ele>53.9000015258789</ele>
			<time>2014-04-13T11:01:46Z</time>
		</trkpt>
		<trkpt lat="53.9986152648926" lon="13.1371059417725">
			<ele>54</ele>
			<time>2014-04-13T11:01:47Z</time>
		</trkpt>
		<trkpt lat="53.9986152648926" lon="13.1372623443604">
			<ele>53.7999992370605</ele>
			<time>2014-04-13T11:01:49Z</time>
		</trkpt>
		<trkpt lat="53.9986114501953" lon="13.1373453140259">
			<ele>53.7999992370605</ele>
			<time>2014-04-13T11:01:50Z</time>
		</trkpt>
		<trkpt lat="53.998607635498" lon="13.13743019104">
			<ele>53.5999984741211</ele>
			<time>2014-04-13T11:01:51Z</time>
		</trkpt>
		<trkpt lat="53.998607635498" lon="13.1375150680542">
			<ele>53.7000007629395</ele>
			<time>2014-04-13T11:01:52Z</time>
		</trkpt>
		<trkpt lat="53.998607635498" lon="13.1375999450684">
			<ele>53.9000015258789</ele>
			<time>2014-04-13T11:01:53Z</time>
		</trkpt>
		<trkpt lat="53.9986038208008" lon="13.1376867294312">
			<ele>54</ele>
			<time>2014-04-13T11:01:54Z</time>
		</trkpt>
		<trkpt lat="53.9986038208008" lon="13.1377735137939">
			<ele>54.2000007629395</ele>
			<time>2014-04-13T11:01:55Z</time>
		</trkpt>
		<trkpt lat="53.9985961914063" lon="13.137864112854">
			<ele>54.5</ele>
			<time>2014-04-13T11:01:56Z</time>
		</trkpt>
		<trkpt lat="53.998592376709" lon="13.1379528045654">
			<ele>54</ele>
			<time>2014-04-13T11:01:57Z</time>
		</trkpt>
		<trkpt lat="53.998592376709" lon="13.1380395889282">
			<ele>54</ele>
			<time>2014-04-13T11:01:58Z</time>
		</trkpt>
		<trkpt lat="53.998592376709" lon="13.1381273269653">
			<ele>53.9000015258789</ele>
			<time>2014-04-13T11:01:59Z</time>
		</trkpt>
		<trkpt lat="53.9985885620117" lon="13.138237953186">
			<ele>54.0999984741211</ele>
			<time>2014-04-13T11:02:00Z</time>
		</trkpt>
		<trkpt lat="53.9985847473145" lon="13.1383399963379">
			<ele>53.9000015258789</ele>
			<time>2014-04-13T11:02:01Z</time>
		</trkpt>
		<trkpt lat="53.9985847473145" lon="13.1384372711182">
			<ele>53.4000015258789</ele>
			<time>2014-04-13T11:02:02Z</time>
		</trkpt>
		<trkpt lat="53.9985733032227" lon="13.1385374069214">
			<ele>53.5999984741211</ele>
			<time>2014-04-13T11:02:03Z</time>
		</trkpt>
		<trkpt lat="53.9985694885254" lon="13.1386346817017">
			<ele>53.5999984741211</ele>
			<time>2014-04-13T11:02:04Z</time>
		</trkpt>
		<trkpt lat="53.9985618591309" lon="13.1387319564819">
			<ele>53.4000015258789</ele>
			<time>2014-04-13T11:02:05Z</time>
		</trkpt>
		<trkpt lat="53.9985504150391" lon="13.1388282775879">
			<ele>53.7999992370605</ele>
			<time>2014-04-13T11:02:06Z</time>
		</trkpt>
		<trkpt lat="53.9985427856445" lon="13.1389236450195">
			<ele>53.2999992370605</ele>
			<time>2014-04-13T11:02:07Z</time>
		</trkpt>
		<trkpt lat="53.9985313415527" lon="13.1390228271484">
			<ele>53.2000007629395</ele>
			<time>2014-04-13T11:02:08Z</time>
		</trkpt>
		<trkpt lat="53.9985198974609" lon="13.1391229629517">
			<ele>53.2999992370605</ele>
			<time>2014-04-13T11:02:09Z</time>
		</trkpt>
		<trkpt lat="53.9985084533691" lon="13.1392183303833">
			<ele>53</ele>
			<time>2014-04-13T11:02:10Z</time>
		</trkpt>
		<trkpt lat="53.9985008239746" lon="13.1393136978149">
			<ele>53</ele>
			<time>2014-04-13T11:02:11Z</time>
		</trkpt>
		<trkpt lat="53.9984855651855" lon="13.1394233703613">
			<ele>53.4000015258789</ele>
			<time>2014-04-13T11:02:12Z</time>
		</trkpt>
		<trkpt lat="53.9984741210938" lon="13.1395149230957">
			<ele>53.4000015258789</ele>
			<time>2014-04-13T11:02:13Z</time>
		</trkpt>
		<trkpt lat="53.9984664916992" lon="13.139609336853">
			<ele>53.2000007629395</ele>
			<time>2014-04-13T11:02:14Z</time>
		</trkpt>
		<trkpt lat="53.9984588623047" lon="13.139705657959">
			<ele>53.4000015258789</ele>
			<time>2014-04-13T11:02:15Z</time>
		</trkpt>
		<trkpt lat="53.9984474182129" lon="13.1397981643677">
			<ele>53.0999984741211</ele>
			<time>2014-04-13T11:02:16Z</time>
		</trkpt>
		<trkpt lat="53.9984359741211" lon="13.139892578125">
			<ele>52.9000015258789</ele>
			<time>2014-04-13T11:02:17Z</time>
		</trkpt>
		<trkpt lat="53.9984321594238" lon="13.1399984359741">
			<ele>52.9000015258789</ele>
			<time>2014-04-13T11:02:18Z</time>
		</trkpt>
		<trkpt lat="53.9984245300293" lon="13.1400985717773">
			<ele>52.7000007629395</ele>
			<time>2014-04-13T11:02:19Z</time>
		</trkpt>
		<trkpt lat="53.9984130859375" lon="13.1402006149292">
			<ele>52.7999992370605</ele>
			<time>2014-04-13T11:02:20Z</time>
		</trkpt>
		<trkpt lat="53.9984016418457" lon="13.1402988433838">
			<ele>53</ele>
			<time>2014-04-13T11:02:21Z</time>
		</trkpt>
		<trkpt lat="53.9983901977539" lon="13.1404008865356">
			<ele>53</ele>
			<time>2014-04-13T11:02:22Z</time>
		</trkpt>
		<trkpt lat="53.9983749389648" lon="13.1405038833618">
			<ele>53</ele>
			<time>2014-04-13T11:02:23Z</time>
		</trkpt>
		<trkpt lat="53.9983596801758" lon="13.140604019165">
			<ele>53.2000007629395</ele>
			<time>2014-04-13T11:02:24Z</time>
		</trkpt>
		<trkpt lat="53.9983367919922" lon="13.1406993865967">
			<ele>53.2999992370605</ele>
			<time>2014-04-13T11:02:25Z</time>
		</trkpt>
		<trkpt lat="53.9983253479004" lon="13.1407985687256">
			<ele>53.2999992370605</ele>
			<time>2014-04-13T11:02:26Z</time>
		</trkpt>
		<trkpt lat="53.9983100891113" lon="13.1408977508545">
			<ele>53</ele>
			<time>2014-04-13T11:02:27Z</time>
		</trkpt>
		<trkpt lat="53.998291015625" lon="13.1410036087036">
			<ele>53.2999992370605</ele>
			<time>2014-04-13T11:02:28Z</time>
		</trkpt>
		<trkpt lat="53.9982757568359" lon="13.1410999298096">
			<ele>53.2999992370605</ele>
			<time>2014-04-13T11:02:29Z</time>
		</trkpt>
		<trkpt lat="53.9982528686523" lon="13.1411991119385">
			<ele>53.4000015258789</ele>
			<time>2014-04-13T11:02:30Z</time>
		</trkpt>
		<trkpt lat="53.9982299804688" lon="13.1412925720215">
			<ele>53.7000007629395</ele>
			<time>2014-04-13T11:02:31Z</time>
		</trkpt>
		<trkpt lat="53.9982109069824" lon="13.1413898468018">
			<ele>53.7000007629395</ele>
			<time>2014-04-13T11:02:32Z</time>
		</trkpt>
		<trkpt lat="53.9981880187988" lon="13.1414861679077">
			<ele>53.7999992370605</ele>
			<time>2014-04-13T11:02:33Z</time>
		</trkpt>
		<trkpt lat="53.9981575012207" lon="13.1415767669678">
			<ele>53.9000015258789</ele>
			<time>2014-04-13T11:02:34Z</time>
		</trkpt>
		<trkpt lat="53.9981307983398" lon="13.1416635513306">
			<ele>54.0999984741211</ele>
			<time>2014-04-13T11:02:35Z</time>
		</trkpt>
		<trkpt lat="53.998104095459" lon="13.1417570114136">
			<ele>54.5</ele>
			<time>2014-04-13T11:02:36Z</time>
		</trkpt>
		<trkpt lat="53.9980812072754" lon="13.1418447494507">
			<ele>54.5</ele>
			<time>2014-04-13T11:02:37Z</time>
		</trkpt>
		<trkpt lat="53.9980621337891" lon="13.1419372558594">
			<ele>54.5999984741211</ele>
			<time>2014-04-13T11:02:38Z</time>
		</trkpt>
		<trkpt lat="53.9980354309082" lon="13.1420269012451">
			<ele>55</ele>
			<time>2014-04-13T11:02:39Z</time>
		</trkpt>
		<trkpt lat="53.9980125427246" lon="13.1421136856079">
			<ele>55.0999984741211</ele>
			<time>2014-04-13T11:02:40Z</time>
		</trkpt>
		<trkpt lat="53.997989654541" lon="13.1421995162964">
			<ele>54.9000015258789</ele>
			<time>2014-04-13T11:02:41Z</time>
		</trkpt>
		<trkpt lat="53.9979629516602" lon="13.1422843933105">
			<ele>54.9000015258789</ele>
			<time>2014-04-13T11:02:42Z</time>
		</trkpt>
		<trkpt lat="53.9979400634766" lon="13.142370223999">
			<ele>55</ele>
			<time>2014-04-13T11:02:43Z</time>
		</trkpt>
		<trkpt lat="53.9979209899902" lon="13.1424579620361">
			<ele>55.2999992370605</ele>
			<time>2014-04-13T11:02:44Z</time>
		</trkpt>
		<trkpt lat="53.9978981018066" lon="13.1425457000732">
			<ele>55.2000007629395</ele>
			<time>2014-04-13T11:02:45Z</time>
		</trkpt>
		<trkpt lat="53.997875213623" lon="13.1426315307617">
			<ele>54.9000015258789</ele>
			<time>2014-04-13T11:02:46Z</time>
		</trkpt>
		<trkpt lat="53.9978523254395" lon="13.1427211761475">
			<ele>55.0999984741211</ele>
			<time>2014-04-13T11:02:47Z</time>
		</trkpt>
		<trkpt lat="53.9978332519531" lon="13.1428108215332">
			<ele>55.2000007629395</ele>
			<time>2014-04-13T11:02:48Z</time>
		</trkpt>
		<trkpt lat="53.9978065490723" lon="13.142894744873">
			<ele>55.0999984741211</ele>
			<time>2014-04-13T11:02:49Z</time>
		</trkpt>
		<trkpt lat="53.9977836608887" lon="13.1429805755615">
			<ele>55</ele>
			<time>2014-04-13T11:02:50Z</time>
		</trkpt>
		<trkpt lat="53.9977607727051" lon="13.1430711746216">
			<ele>54.7999992370605</ele>
			<time>2014-04-13T11:02:51Z</time>
		</trkpt>
		<trkpt lat="53.9977378845215" lon="13.1431550979614">
			<ele>54.7999992370605</ele>
			<time>2014-04-13T11:02:52Z</time>
		</trkpt>
		<trkpt lat="53.9977111816406" lon="13.1432476043701">
			<ele>55</ele>
			<time>2014-04-13T11:02:53Z</time>
		</trkpt>
		<trkpt lat="53.997688293457" lon="13.1433401107788">
			<ele>55.2000007629395</ele>
			<time>2014-04-13T11:02:54Z</time>
		</trkpt>
		<trkpt lat="53.9976654052734" lon="13.1434278488159">
			<ele>55.5999984741211</ele>
			<time>2014-04-13T11:02:55Z</time>
		</trkpt>
		<trkpt lat="53.9976425170898" lon="13.143515586853">
			<ele>55.5999984741211</ele>
			<time>2014-04-13T11:02:56Z</time>
		</trkpt>
		<trkpt lat="53.9976196289063" lon="13.1436033248901">
			<ele>55.9000015258789</ele>
			<time>2014-04-13T11:02:57Z</time>
		</trkpt>
		<trkpt lat="53.9975929260254" lon="13.1436958312988">
			<ele>55.9000015258789</ele>
			<time>2014-04-13T11:02:58Z</time>
		</trkpt>
		<trkpt lat="53.9975624084473" lon="13.143780708313">
			<ele>56.0999984741211</ele>
			<time>2014-04-13T11:02:59Z</time>
		</trkpt>
		<trkpt lat="53.9975395202637" lon="13.143871307373">
			<ele>56.4000015258789</ele>
			<time>2014-04-13T11:03:00Z</time>
		</trkpt>
		<trkpt lat="53.9975204467773" lon="13.1439666748047">
			<ele>56.2000007629395</ele>
			<time>2014-04-13T11:03:01Z</time>
		</trkpt>
		<trkpt lat="53.9974975585938" lon="13.1440601348877">
			<ele>55.9000015258789</ele>
			<time>2014-04-13T11:03:02Z</time>
		</trkpt>
		<trkpt lat="53.9974708557129" lon="13.1441631317139">
			<ele>56.2000007629395</ele>
			<time>2014-04-13T11:03:03Z</time>
		</trkpt>
		<trkpt lat="53.9974479675293" lon="13.1442565917969">
			<ele>56</ele>
			<time>2014-04-13T11:03:04Z</time>
		</trkpt>
		<trkpt lat="53.9974212646484" lon="13.1443510055542">
			<ele>56.2999992370605</ele>
			<time>2014-04-13T11:03:05Z</time>
		</trkpt>
		<trkpt lat="53.9973983764648" lon="13.1444416046143">
			<ele>56.2999992370605</ele>
			<time>2014-04-13T11:03:06Z</time>
		</trkpt>
		<trkpt lat="53.997371673584" lon="13.1445283889771">
			<ele>56.4000015258789</ele>
			<time>2014-04-13T11:03:07Z</time>
		</trkpt>
		<trkpt lat="53.9973526000977" lon="13.1446199417114">
			<ele>56.4000015258789</ele>
			<time>2014-04-13T11:03:08Z</time>
		</trkpt>
		<trkpt lat="53.9973297119141" lon="13.1447076797485">
			<ele>56.4000015258789</ele>
			<time>2014-04-13T11:03:09Z</time>
		</trkpt>
		<trkpt lat="53.9973030090332" lon="13.14479637146">
			<ele>56.9000015258789</ele>
			<time>2014-04-13T11:03:10Z</time>
		</trkpt>
		<trkpt lat="53.9972801208496" lon="13.144889831543">
			<ele>56.7000007629395</ele>
			<time>2014-04-13T11:03:11Z</time>
		</trkpt>
		<trkpt lat="53.9972610473633" lon="13.1449794769287">
			<ele>56.7000007629395</ele>
			<time>2014-04-13T11:03:12Z</time>
		</trkpt>
		<trkpt lat="53.9972381591797" lon="13.1450662612915">
			<ele>56.7999992370605</ele>
			<time>2014-04-13T11:03:13Z</time>
		</trkpt>
		<trkpt lat="53.9972190856934" lon="13.1451644897461">
			<ele>56.9000015258789</ele>
			<time>2014-04-13T11:03:14Z</time>
		</trkpt>
		<trkpt lat="53.9972038269043" lon="13.1452569961548">
			<ele>57.0999984741211</ele>
			<time>2014-04-13T11:03:15Z</time>
		</trkpt>
		<trkpt lat="53.9971961975098" lon="13.1453523635864">
			<ele>57.2999992370605</ele>
			<time>2014-04-13T11:03:16Z</time>
		</trkpt>
		<trkpt lat="53.9971923828125" lon="13.1454467773438">
			<ele>57.2000007629395</ele>
			<time>2014-04-13T11:03:17Z</time>
		</trkpt>
		<trkpt lat="53.9971923828125" lon="13.1455373764038">
			<ele>56.9000015258789</ele>
			<time>2014-04-13T11:03:18Z</time>
		</trkpt>
		<trkpt lat="53.9971923828125" lon="13.1456365585327">
			<ele>57.4000015258789</ele>
			<time>2014-04-13T11:03:19Z</time>
		</trkpt>
		<trkpt lat="53.9971885681152" lon="13.1457386016846">
			<ele>57.4000015258789</ele>
			<time>2014-04-13T11:03:20Z</time>
		</trkpt>
		<trkpt lat="53.9971923828125" lon="13.1458339691162">
			<ele>57.2000007629395</ele>
			<time>2014-04-13T11:03:21Z</time>
		</trkpt>
		<trkpt lat="53.9971961975098" lon="13.1459369659424">
			<ele>56.9000015258789</ele>
			<time>2014-04-13T11:03:22Z</time>
		</trkpt>
		<trkpt lat="53.9971961975098" lon="13.1460380554199">
			<ele>56.7000007629395</ele>
			<time>2014-04-13T11:03:23Z</time>
		</trkpt>
		<trkpt lat="53.9972038269043" lon="13.1461353302002">
			<ele>56.5999984741211</ele>
			<time>2014-04-13T11:03:24Z</time>
		</trkpt>
		<trkpt lat="53.9972076416016" lon="13.1462306976318">
			<ele>56.7000007629395</ele>
			<time>2014-04-13T11:03:25Z</time>
		</trkpt>
		<trkpt lat="53.9972076416016" lon="13.146333694458">
			<ele>56.7999992370605</ele>
			<time>2014-04-13T11:03:26Z</time>
		</trkpt>
		<trkpt lat="53.9972114562988" lon="13.1464319229126">
			<ele>57</ele>
			<time>2014-04-13T11:03:27Z</time>
		</trkpt>
		<trkpt lat="53.9972114562988" lon="13.1465282440186">
			<ele>56.5999984741211</ele>
			<time>2014-04-13T11:03:28Z</time>
		</trkpt>
		<trkpt lat="53.9971961975098" lon="13.1466236114502">
			<ele>56.4000015258789</ele>
			<time>2014-04-13T11:03:29Z</time>
		</trkpt>
		<trkpt lat="53.9971733093262" lon="13.1467056274414">
			<ele>56.2999992370605</ele>
			<time>2014-04-13T11:03:30Z</time>
		</trkpt>
		<trkpt lat="53.9971351623535" lon="13.1467723846436">
			<ele>56.5</ele>
			<time>2014-04-13T11:03:31Z</time>
		</trkpt>
		<trkpt lat="53.9971046447754" lon="13.1468439102173">
			<ele>56.7999992370605</ele>
			<time>2014-04-13T11:03:32Z</time>
		</trkpt>
		<trkpt lat="53.9970855712891" lon="13.1469192504883">
			<ele>56.9000015258789</ele>
			<time>2014-04-13T11:03:33Z</time>
		</trkpt>
		<trkpt lat="53.9970779418945" lon="13.1469984054565">
			<ele>56.5999984741211</ele>
			<time>2014-04-13T11:03:34Z</time>
		</trkpt>
		<trkpt lat="53.9969940185547" lon="13.1470327377319">
			<ele>56.5999984741211</ele>
			<time>2014-04-13T11:03:36Z</time>
		</trkpt>
		<trkpt lat="53.996898651123" lon="13.1470565795898">
			<ele>56.0999984741211</ele>
			<time>2014-04-13T11:03:38Z</time>
		</trkpt>
		<trkpt lat="53.9968452453613" lon="13.1470813751221">
			<ele>55.7999992370605</ele>
			<time>2014-04-13T11:03:39Z</time>
		</trkpt>
		<trkpt lat="53.9967880249023" lon="13.1471147537231">
			<ele>55.2999992370605</ele>
			<time>2014-04-13T11:03:40Z</time>
		</trkpt>
		<trkpt lat="53.9967269897461" lon="13.147144317627">
			<ele>54.9000015258789</ele>
			<time>2014-04-13T11:03:41Z</time>
		</trkpt>
		<trkpt lat="53.9966697692871" lon="13.1471691131592">
			<ele>54.7000007629395</ele>
			<time>2014-04-13T11:03:42Z</time>
		</trkpt>
		<trkpt lat="53.9966087341309" lon="13.147198677063">
			<ele>54.9000015258789</ele>
			<time>2014-04-13T11:03:43Z</time>
		</trkpt>
		<trkpt lat="53.9965476989746" lon="13.1472282409668">
			<ele>54.9000015258789</ele>
			<time>2014-04-13T11:03:44Z</time>
		</trkpt>
		<trkpt lat="53.9964866638184" lon="13.147255897522">
			<ele>55</ele>
			<time>2014-04-13T11:03:45Z</time>
		</trkpt>
		<trkpt lat="53.9964256286621" lon="13.1472797393799">
			<ele>54.7999992370605</ele>
			<time>2014-04-13T11:03:46Z</time>
		</trkpt>
		<trkpt lat="53.9963645935059" lon="13.1473064422607">
			<ele>54.9000015258789</ele>
			<time>2014-04-13T11:03:47Z</time>
		</trkpt>
		<trkpt lat="53.9963035583496" lon="13.1473340988159">
			<ele>54.7999992370605</ele>
			<time>2014-04-13T11:03:48Z</time>
		</trkpt>
		<trkpt lat="53.9962387084961" lon="13.1473608016968">
			<ele>54.2999992370605</ele>
			<time>2014-04-13T11:03:49Z</time>
		</trkpt>
		<trkpt lat="53.9961776733398" lon="13.147388458252">
			<ele>54.2000007629395</ele>
			<time>2014-04-13T11:03:50Z</time>
		</trkpt>
		<trkpt lat="53.9961166381836" lon="13.1474161148071">
			<ele>54.2999992370605</ele>
			<time>2014-04-13T11:03:51Z</time>
		</trkpt>
		<trkpt lat="53.9960556030273" lon="13.1474437713623">
			<ele>54.2999992370605</ele>
			<time>2014-04-13T11:03:52Z</time>
		</trkpt>
		<trkpt lat="53.9959907531738" lon="13.1474676132202">
			<ele>54</ele>
			<time>2014-04-13T11:03:53Z</time>
		</trkpt>
		<trkpt lat="53.9959297180176" lon="13.1474924087524">
			<ele>54.0999984741211</ele>
			<time>2014-04-13T11:03:54Z</time>
		</trkpt>
		<trkpt lat="53.9958686828613" lon="13.147515296936">
			<ele>54</ele>
			<time>2014-04-13T11:03:55Z</time>
		</trkpt>
		<trkpt lat="53.9958114624023" lon="13.1475391387939">
			<ele>54.0999984741211</ele>
			<time>2014-04-13T11:03:56Z</time>
		</trkpt>
		<trkpt lat="53.9957542419434" lon="13.1475610733032">
			<ele>53.5</ele>
			<time>2014-04-13T11:03:57Z</time>
		</trkpt>
		<trkpt lat="53.9956932067871" lon="13.1475772857666">
			<ele>53.2999992370605</ele>
			<time>2014-04-13T11:03:58Z</time>
		</trkpt>
		<trkpt lat="53.9956321716309" lon="13.1475715637207">
			<ele>53.0999984741211</ele>
			<time>2014-04-13T11:03:59Z</time>
		</trkpt>
		<trkpt lat="53.9955711364746" lon="13.147554397583">
			<ele>53.2000007629395</ele>
			<time>2014-04-13T11:04:00Z</time>
		</trkpt>
		<trkpt lat="53.9955139160156" lon="13.1475400924683">
			<ele>53.4000015258789</ele>
			<time>2014-04-13T11:04:01Z</time>
		</trkpt>
		<trkpt lat="53.9954566955566" lon="13.1475524902344">
			<ele>53.5</ele>
			<time>2014-04-13T11:04:02Z</time>
		</trkpt>
		<trkpt lat="53.9954032897949" lon="13.1475791931152">
			<ele>53.2999992370605</ele>
			<time>2014-04-13T11:04:03Z</time>
		</trkpt>
		<trkpt lat="53.9953460693359" lon="13.1476039886475">
			<ele>53.2999992370605</ele>
			<time>2014-04-13T11:04:04Z</time>
		</trkpt>
		<trkpt lat="53.995288848877" lon="13.1476316452026">
			<ele>53</ele>
			<time>2014-04-13T11:04:05Z</time>
		</trkpt>
		<trkpt lat="53.9952278137207" lon="13.1476440429688">
			<ele>52.7000007629395</ele>
			<time>2014-04-13T11:04:06Z</time>
		</trkpt>
		<trkpt lat="53.9951705932617" lon="13.1476411819458">
			<ele>52.7000007629395</ele>
			<time>2014-04-13T11:04:07Z</time>
		</trkpt>
		<trkpt lat="53.9951171875" lon="13.1476097106934">
			<ele>53.2000007629395</ele>
			<time>2014-04-13T11:04:08Z</time>
		</trkpt>
		<trkpt lat="53.9950714111328" lon="13.1475410461426">
			<ele>52.9000015258789</ele>
			<time>2014-04-13T11:04:09Z</time>
		</trkpt>
		<trkpt lat="53.9950256347656" lon="13.1474599838257">
			<ele>53.2999992370605</ele>
			<time>2014-04-13T11:04:10Z</time>
		</trkpt>
		<trkpt lat="53.9949989318848" lon="13.1473960876465">
			<ele>52.0999984741211</ele>
			<time>2014-04-13T11:04:11Z</time>
		</trkpt>
		<trkpt lat="53.9949569702148" lon="13.1473407745361">
			<ele>52.5999984741211</ele>
			<time>2014-04-13T11:04:12Z</time>
		</trkpt>
		<trkpt lat="53.9949150085449" lon="13.1473083496094">
			<ele>52.9000015258789</ele>
			<time>2014-04-13T11:04:13Z</time>
		</trkpt>
		<trkpt lat="53.9948272705078" lon="13.1472682952881">
			<ele>51.5</ele>
			<time>2014-04-13T11:04:15Z</time>
		</trkpt>
		<trkpt lat="53.9947776794434" lon="13.1472463607788">
			<ele>51.5</ele>
			<time>2014-04-13T11:04:16Z</time>
		</trkpt>
		<trkpt lat="53.9947319030762" lon="13.1472520828247">
			<ele>51.9000015258789</ele>
			<time>2014-04-13T11:04:17Z</time>
		</trkpt>
		<trkpt lat="53.9946937561035" lon="13.147310256958">
			<ele>51.7999992370605</ele>
			<time>2014-04-13T11:04:18Z</time>
		</trkpt>
		<trkpt lat="53.9946632385254" lon="13.147385597229">
			<ele>52.0999984741211</ele>
			<time>2014-04-13T11:04:19Z</time>
		</trkpt>
		<trkpt lat="53.9946403503418" lon="13.1474761962891">
			<ele>52.0999984741211</ele>
			<time>2014-04-13T11:04:20Z</time>
		</trkpt>
		<trkpt lat="53.9946098327637" lon="13.1475629806519">
			<ele>51.9000015258789</ele>
			<time>2014-04-13T11:04:21Z</time>
		</trkpt>
		<trkpt lat="53.994571685791" lon="13.1476383209229">
			<ele>51.5</ele>
			<time>2014-04-13T11:04:22Z</time>
		</trkpt>
		<trkpt lat="53.9945220947266" lon="13.147705078125">
			<ele>51.2999992370605</ele>
			<time>2014-04-13T11:04:23Z</time>
		</trkpt>
		<trkpt lat="53.9944648742676" lon="13.1477651596069">
			<ele>51.2999992370605</ele>
			<time>2014-04-13T11:04:24Z</time>
		</trkpt>
		<trkpt lat="53.9944076538086" lon="13.1478118896484">
			<ele>50.7000007629395</ele>
			<time>2014-04-13T11:04:25Z</time>
		</trkpt>
		<trkpt lat="53.9943466186523" lon="13.1478595733643">
			<ele>50.5999984741211</ele>
			<time>2014-04-13T11:04:26Z</time>
		</trkpt>
		<trkpt lat="53.9942855834961" lon="13.1479024887085">
			<ele>50.7999992370605</ele>
			<time>2014-04-13T11:04:27Z</time>
		</trkpt>
		<trkpt lat="53.9942207336426" lon="13.1479434967041">
			<ele>50.7999992370605</ele>
			<time>2014-04-13T11:04:28Z</time>
		</trkpt>
		<trkpt lat="53.9941596984863" lon="13.1479730606079">
			<ele>50.9000015258789</ele>
			<time>2014-04-13T11:04:29Z</time>
		</trkpt>
		<trkpt lat="53.9940910339355" lon="13.1479969024658">
			<ele>51.2000007629395</ele>
			<time>2014-04-13T11:04:30Z</time>
		</trkpt>
		<trkpt lat="53.9940185546875" lon="13.1479997634888">
			<ele>51.2000007629395</ele>
			<time>2014-04-13T11:04:31Z</time>
		</trkpt>
		<trkpt lat="53.9939498901367" lon="13.1479959487915">
			<ele>50.2999992370605</ele>
			<time>2014-04-13T11:04:32Z</time>
		</trkpt>
		<trkpt lat="53.9938888549805" lon="13.1480140686035">
			<ele>50.4000015258789</ele>
			<time>2014-04-13T11:04:33Z</time>
		</trkpt>
		<trkpt lat="53.9938278198242" lon="13.1480388641357">
			<ele>50.7000007629395</ele>
			<time>2014-04-13T11:04:34Z</time>
		</trkpt>
		<trkpt lat="53.9937629699707" lon="13.1480665206909">
			<ele>50.7000007629395</ele>
			<time>2014-04-13T11:04:35Z</time>
		</trkpt>
		<trkpt lat="53.9937019348145" lon="13.1480903625488">
			<ele>51</ele>
			<time>2014-04-13T11:04:36Z</time>
		</trkpt>
		<trkpt lat="53.9936408996582" lon="13.1481199264526">
			<ele>51</ele>
			<time>2014-04-13T11:04:37Z</time>
		</trkpt>
		<trkpt lat="53.993579864502" lon="13.1481513977051">
			<ele>51</ele>
			<time>2014-04-13T11:04:38Z</time>
		</trkpt>
		<trkpt lat="53.9935264587402" lon="13.1481733322144">
			<ele>51.0999984741211</ele>
			<time>2014-04-13T11:04:39Z</time>
		</trkpt>
		<trkpt lat="53.993465423584" lon="13.1482038497925">
			<ele>50.2000007629395</ele>
			<time>2014-04-13T11:04:40Z</time>
		</trkpt>
		<trkpt lat="53.9934005737305" lon="13.1482210159302">
			<ele>50.5</ele>
			<time>2014-04-13T11:04:41Z</time>
		</trkpt>
		<trkpt lat="53.9933395385742" lon="13.1482524871826">
			<ele>50.2999992370605</ele>
			<time>2014-04-13T11:04:42Z</time>
		</trkpt>
		<trkpt lat="53.993278503418" lon="13.1482715606689">
			<ele>49.7999992370605</ele>
			<time>2014-04-13T11:04:43Z</time>
		</trkpt>
		<trkpt lat="53.9932174682617" lon="13.1482954025269">
			<ele>49.9000015258789</ele>
			<time>2014-04-13T11:04:44Z</time>
		</trkpt>
		<trkpt lat="53.9931526184082" lon="13.1483173370361">
			<ele>49.9000015258789</ele>
			<time>2014-04-13T11:04:45Z</time>
		</trkpt>
		<trkpt lat="53.9930953979492" lon="13.1483449935913">
			<ele>50.2000007629395</ele>
			<time>2014-04-13T11:04:46Z</time>
		</trkpt>
		<trkpt lat="53.993034362793" lon="13.1483697891235">
			<ele>49.7999992370605</ele>
			<time>2014-04-13T11:04:47Z</time>
		</trkpt>
		<trkpt lat="53.9929695129395" lon="13.1483926773071">
			<ele>50.2000007629395</ele>
			<time>2014-04-13T11:04:48Z</time>
		</trkpt>
		<trkpt lat="53.9929084777832" lon="13.148419380188">
			<ele>50</ele>
			<time>2014-04-13T11:04:49Z</time>
		</trkpt>
		<trkpt lat="53.992847442627" lon="13.1484441757202">
			<ele>50</ele>
			<time>2014-04-13T11:04:50Z</time>
		</trkpt>
		<trkpt lat="53.992790222168" lon="13.1484689712524">
			<ele>50.0999984741211</ele>
			<time>2014-04-13T11:04:51Z</time>
		</trkpt>
		<trkpt lat="53.9927253723145" lon="13.148494720459">
			<ele>50</ele>
			<time>2014-04-13T11:04:52Z</time>
		</trkpt>
		<trkpt lat="53.9926643371582" lon="13.1485242843628">
			<ele>49.9000015258789</ele>
			<time>2014-04-13T11:04:53Z</time>
		</trkpt>
		<trkpt lat="53.992603302002" lon="13.1485471725464">
			<ele>49.7000007629395</ele>
			<time>2014-04-13T11:04:54Z</time>
		</trkpt>
		<trkpt lat="53.9925422668457" lon="13.14857006073">
			<ele>49.5999984741211</ele>
			<time>2014-04-13T11:04:55Z</time>
		</trkpt>
		<trkpt lat="53.9924850463867" lon="13.1485967636108">
			<ele>49.7000007629395</ele>
			<time>2014-04-13T11:04:56Z</time>
		</trkpt>
		<trkpt lat="53.9924240112305" lon="13.148624420166">
			<ele>49.7000007629395</ele>
			<time>2014-04-13T11:04:57Z</time>
		</trkpt>
		<trkpt lat="53.9923667907715" lon="13.1486511230469">
			<ele>49.5999984741211</ele>
			<time>2014-04-13T11:04:58Z</time>
		</trkpt>
		<trkpt lat="53.9923057556152" lon="13.1486768722534">
			<ele>49.2999992370605</ele>
			<time>2014-04-13T11:04:59Z</time>
		</trkpt>
		<trkpt lat="53.992244720459" lon="13.1487007141113">
			<ele>49.2999992370605</ele>
			<time>2014-04-13T11:05:00Z</time>
		</trkpt>
		<trkpt lat="53.9921798706055" lon="13.1487274169922">
			<ele>49.2999992370605</ele>
			<time>2014-04-13T11:05:01Z</time>
		</trkpt>
		<trkpt lat="53.9921188354492" lon="13.1487522125244">
			<ele>49.2000007629395</ele>
			<time>2014-04-13T11:05:02Z</time>
		</trkpt>
		<trkpt lat="53.9920539855957" lon="13.1487789154053">
			<ele>49.2999992370605</ele>
			<time>2014-04-13T11:05:03Z</time>
		</trkpt>
		<trkpt lat="53.9919929504395" lon="13.1488037109375">
			<ele>49.2999992370605</ele>
			<time>2014-04-13T11:05:04Z</time>
		</trkpt>
		<trkpt lat="53.9919357299805" lon="13.1488275527954">
			<ele>49.5</ele>
			<time>2014-04-13T11:05:05Z</time>
		</trkpt>
		<trkpt lat="53.9918746948242" lon="13.1488571166992">
			<ele>49.5</ele>
			<time>2014-04-13T11:05:06Z</time>
		</trkpt>
		<trkpt lat="53.991813659668" lon="13.1488809585571">
			<ele>49.5</ele>
			<time>2014-04-13T11:05:07Z</time>
		</trkpt>
		<trkpt lat="53.9917526245117" lon="13.1489028930664">
			<ele>49.5</ele>
			<time>2014-04-13T11:05:08Z</time>
		</trkpt>
		<trkpt lat="53.9916954040527" lon="13.1489248275757">
			<ele>49.4000015258789</ele>
			<time>2014-04-13T11:05:09Z</time>
		</trkpt>
		<trkpt lat="53.9916381835938" lon="13.1489524841309">
			<ele>49.2999992370605</ele>
			<time>2014-04-13T11:05:10Z</time>
		</trkpt>
		<trkpt lat="53.9915771484375" lon="13.1489772796631">
			<ele>49.2000007629395</ele>
			<time>2014-04-13T11:05:11Z</time>
		</trkpt>
		<trkpt lat="53.9915199279785" lon="13.1490001678467">
			<ele>49.2999992370605</ele>
			<time>2014-04-13T11:05:12Z</time>
		</trkpt>
		<trkpt lat="53.9914588928223" lon="13.1490240097046">
			<ele>49.2999992370605</ele>
			<time>2014-04-13T11:05:13Z</time>
		</trkpt>
		<trkpt lat="53.991397857666" lon="13.1490478515625">
			<ele>49.2000007629395</ele>
			<time>2014-04-13T11:05:14Z</time>
		</trkpt>
		<trkpt lat="53.991340637207" lon="13.1490726470947">
			<ele>49.2999992370605</ele>
			<time>2014-04-13T11:05:15Z</time>
		</trkpt>
		<trkpt lat="53.991283416748" lon="13.1491012573242">
			<ele>49.2999992370605</ele>
			<time>2014-04-13T11:05:16Z</time>
		</trkpt>
		<trkpt lat="53.9912223815918" lon="13.1491260528564">
			<ele>49.0999984741211</ele>
			<time>2014-04-13T11:05:17Z</time>
		</trkpt>
		<trkpt lat="53.9911651611328" lon="13.1491470336914">
			<ele>49</ele>
			<time>2014-04-13T11:05:18Z</time>
		</trkpt>
		<trkpt lat="53.9911079406738" lon="13.1491718292236">
			<ele>48.7999992370605</ele>
			<time>2014-04-13T11:05:19Z</time>
		</trkpt>
		<trkpt lat="53.9910507202148" lon="13.1491966247559">
			<ele>48.7000007629395</ele>
			<time>2014-04-13T11:05:20Z</time>
		</trkpt>
		<trkpt lat="53.9909934997559" lon="13.1492223739624">
			<ele>48.7000007629395</ele>
			<time>2014-04-13T11:05:21Z</time>
		</trkpt>
		<trkpt lat="53.9909324645996" lon="13.1492471694946">
			<ele>48.7000007629395</ele>
			<time>2014-04-13T11:05:22Z</time>
		</trkpt>
		<trkpt lat="53.9908752441406" lon="13.1492748260498">
			<ele>48.2999992370605</ele>
			<time>2014-04-13T11:05:23Z</time>
		</trkpt>
		<trkpt lat="53.9908142089844" lon="13.149299621582">
			<ele>48.0999984741211</ele>
			<time>2014-04-13T11:05:24Z</time>
		</trkpt>
		<trkpt lat="53.9907569885254" lon="13.1493253707886">
			<ele>47.9000015258789</ele>
			<time>2014-04-13T11:05:25Z</time>
		</trkpt>
		<trkpt lat="53.9906959533691" lon="13.1493511199951">
			<ele>47.5999984741211</ele>
			<time>2014-04-13T11:05:26Z</time>
		</trkpt>
		<trkpt lat="53.9906349182129" lon="13.1493740081787">
			<ele>47.4000015258789</ele>
			<time>2014-04-13T11:05:27Z</time>
		</trkpt>
		<trkpt lat="53.9905738830566" lon="13.1493940353394">
			<ele>47.4000015258789</ele>
			<time>2014-04-13T11:05:28Z</time>
		</trkpt>
		<trkpt lat="53.9905128479004" lon="13.1494188308716">
			<ele>47</ele>
			<time>2014-04-13T11:05:29Z</time>
		</trkpt>
		<trkpt lat="53.9904518127441" lon="13.1494436264038">
			<ele>47.2999992370605</ele>
			<time>2014-04-13T11:05:30Z</time>
		</trkpt>
		<trkpt lat="53.9903869628906" lon="13.1494750976563">
			<ele>47</ele>
			<time>2014-04-13T11:05:31Z</time>
		</trkpt>
		<trkpt lat="53.9903259277344" lon="13.1495046615601">
			<ele>47</ele>
			<time>2014-04-13T11:05:32Z</time>
		</trkpt>
		<trkpt lat="53.9902648925781" lon="13.1495332717896">
			<ele>46.7999992370605</ele>
			<time>2014-04-13T11:05:33Z</time>
		</trkpt>
		<trkpt lat="53.9902000427246" lon="13.1495656967163">
			<ele>47</ele>
			<time>2014-04-13T11:05:34Z</time>
		</trkpt>
		<trkpt lat="53.9901351928711" lon="13.1495923995972">
			<ele>47.2000007629395</ele>
			<time>2014-04-13T11:05:35Z</time>
		</trkpt>
		<trkpt lat="53.9900703430176" lon="13.1496143341064">
			<ele>47.2000007629395</ele>
			<time>2014-04-13T11:05:36Z</time>
		</trkpt>
		<trkpt lat="53.9900054931641" lon="13.149640083313">
			<ele>47.5</ele>
			<time>2014-04-13T11:05:37Z</time>
		</trkpt>
		<trkpt lat="53.9899444580078" lon="13.149676322937">
			<ele>47.7999992370605</ele>
			<time>2014-04-13T11:05:38Z</time>
		</trkpt>
		<trkpt lat="53.9898872375488" lon="13.1497249603271">
			<ele>47.7999992370605</ele>
			<time>2014-04-13T11:05:39Z</time>
		</trkpt>
		<trkpt lat="53.9898262023926" lon="13.149754524231">
			<ele>47.9000015258789</ele>
			<time>2014-04-13T11:05:40Z</time>
		</trkpt>
		<trkpt lat="53.9897613525391" lon="13.1497926712036">
			<ele>48.0999984741211</ele>
			<time>2014-04-13T11:05:41Z</time>
		</trkpt>
		<trkpt lat="53.9897041320801" lon="13.1498098373413">
			<ele>48.0999984741211</ele>
			<time>2014-04-13T11:05:42Z</time>
		</trkpt>
		<trkpt lat="53.9896430969238" lon="13.1498346328735">
			<ele>48.0999984741211</ele>
			<time>2014-04-13T11:05:43Z</time>
		</trkpt>
		<trkpt lat="53.9895820617676" lon="13.1498575210571">
			<ele>48</ele>
			<time>2014-04-13T11:05:44Z</time>
		</trkpt>
		<trkpt lat="53.9895210266113" lon="13.1498823165894">
			<ele>48.2000007629395</ele>
			<time>2014-04-13T11:05:45Z</time>
		</trkpt>
		<trkpt lat="53.9894561767578" lon="13.1499071121216">
			<ele>48.0999984741211</ele>
			<time>2014-04-13T11:05:46Z</time>
		</trkpt>
		<trkpt lat="53.9893951416016" lon="13.1499347686768">
			<ele>47.7999992370605</ele>
			<time>2014-04-13T11:05:47Z</time>
		</trkpt>
		<trkpt lat="53.9893341064453" lon="13.149956703186">
			<ele>47.5</ele>
			<time>2014-04-13T11:05:48Z</time>
		</trkpt>
		<trkpt lat="53.9892730712891" lon="13.1499834060669">
			<ele>47.5999984741211</ele>
			<time>2014-04-13T11:05:49Z</time>
		</trkpt>
		<trkpt lat="53.9892082214355" lon="13.1500120162964">
			<ele>47.7000007629395</ele>
			<time>2014-04-13T11:05:50Z</time>
		</trkpt>
		<trkpt lat="53.9891471862793" lon="13.1500415802002">
			<ele>47.7999992370605</ele>
			<time>2014-04-13T11:05:51Z</time>
		</trkpt>
		<trkpt lat="53.9890823364258" lon="13.1500692367554">
			<ele>47.5999984741211</ele>
			<time>2014-04-13T11:05:52Z</time>
		</trkpt>
		<trkpt lat="53.9890251159668" lon="13.1500968933105">
			<ele>48</ele>
			<time>2014-04-13T11:05:53Z</time>
		</trkpt>
		<trkpt lat="53.988956451416" lon="13.1501216888428">
			<ele>48.0999984741211</ele>
			<time>2014-04-13T11:05:54Z</time>
		</trkpt>
		<trkpt lat="53.9888954162598" lon="13.1501426696777">
			<ele>47.5999984741211</ele>
			<time>2014-04-13T11:05:55Z</time>
		</trkpt>
		<trkpt lat="53.9888305664063" lon="13.1501703262329">
			<ele>47.5999984741211</ele>
			<time>2014-04-13T11:05:56Z</time>
		</trkpt>
		<trkpt lat="53.9887619018555" lon="13.1501932144165">
			<ele>47.5</ele>
			<time>2014-04-13T11:05:57Z</time>
		</trkpt>
		<trkpt lat="53.9886932373047" lon="13.1502227783203">
			<ele>47.4000015258789</ele>
			<time>2014-04-13T11:05:58Z</time>
		</trkpt>
		<trkpt lat="53.9886283874512" lon="13.1502523422241">
			<ele>47.4000015258789</ele>
			<time>2014-04-13T11:05:59Z</time>
		</trkpt>
		<trkpt lat="53.9885597229004" lon="13.1502799987793">
			<ele>47.5999984741211</ele>
			<time>2014-04-13T11:06:00Z</time>
		</trkpt>
		<trkpt lat="53.9884910583496" lon="13.1503086090088">
			<ele>47.5999984741211</ele>
			<time>2014-04-13T11:06:01Z</time>
		</trkpt>
		<trkpt lat="53.9884262084961" lon="13.1503324508667">
			<ele>47.9000015258789</ele>
			<time>2014-04-13T11:06:02Z</time>
		</trkpt>
		<trkpt lat="53.9883613586426" lon="13.1503648757935">
			<ele>47.5</ele>
			<time>2014-04-13T11:06:03Z</time>
		</trkpt>
		<trkpt lat="53.9883003234863" lon="13.1503963470459">
			<ele>47.2000007629395</ele>
			<time>2014-04-13T11:06:04Z</time>
		</trkpt>
		<trkpt lat="53.9882354736328" lon="13.1504249572754">
			<ele>47.4000015258789</ele>
			<time>2014-04-13T11:06:05Z</time>
		</trkpt>
		<trkpt lat="53.9881744384766" lon="13.150447845459">
			<ele>47.5</ele>
			<time>2014-04-13T11:06:06Z</time>
		</trkpt>
		<trkpt lat="53.988109588623" lon="13.1504726409912">
			<ele>47.4000015258789</ele>
			<time>2014-04-13T11:06:07Z</time>
		</trkpt>
		<trkpt lat="53.9880447387695" lon="13.1505031585693">
			<ele>47</ele>
			<time>2014-04-13T11:06:08Z</time>
		</trkpt>
		<trkpt lat="53.987979888916" lon="13.1505270004272">
			<ele>46.9000015258789</ele>
			<time>2014-04-13T11:06:09Z</time>
		</trkpt>
		<trkpt lat="53.9879188537598" lon="13.1505537033081">
			<ele>46.5</ele>
			<time>2014-04-13T11:06:10Z</time>
		</trkpt>
		<trkpt lat="53.9878540039063" lon="13.1505784988403">
			<ele>46.7000007629395</ele>
			<time>2014-04-13T11:06:11Z</time>
		</trkpt>
		<trkpt lat="53.98779296875" lon="13.150598526001">
			<ele>47.2000007629395</ele>
			<time>2014-04-13T11:06:12Z</time>
		</trkpt>
		<trkpt lat="53.9877281188965" lon="13.1506195068359">
			<ele>47</ele>
			<time>2014-04-13T11:06:13Z</time>
		</trkpt>
		<trkpt lat="53.9876670837402" lon="13.1506366729736">
			<ele>46.7999992370605</ele>
			<time>2014-04-13T11:06:14Z</time>
		</trkpt>
		<trkpt lat="53.987606048584" lon="13.1506547927856">
			<ele>46.9000015258789</ele>
			<time>2014-04-13T11:06:15Z</time>
		</trkpt>
		<trkpt lat="53.9875450134277" lon="13.1506719589233">
			<ele>47.0999984741211</ele>
			<time>2014-04-13T11:06:16Z</time>
		</trkpt>
		<trkpt lat="53.987491607666" lon="13.150691986084">
			<ele>47.2000007629395</ele>
			<time>2014-04-13T11:06:17Z</time>
		</trkpt>
		<trkpt lat="53.9874305725098" lon="13.1507129669189">
			<ele>46.9000015258789</ele>
			<time>2014-04-13T11:06:18Z</time>
		</trkpt>
		<trkpt lat="53.987377166748" lon="13.1507358551025">
			<ele>46.9000015258789</ele>
			<time>2014-04-13T11:06:19Z</time>
		</trkpt>
		<trkpt lat="53.9873199462891" lon="13.1507616043091">
			<ele>47</ele>
			<time>2014-04-13T11:06:20Z</time>
		</trkpt>
		<trkpt lat="53.9872741699219" lon="13.150782585144">
			<ele>47.0999984741211</ele>
			<time>2014-04-13T11:06:21Z</time>
		</trkpt>
		<trkpt lat="53.9872245788574" lon="13.1507968902588">
			<ele>46.7999992370605</ele>
			<time>2014-04-13T11:06:22Z</time>
		</trkpt>
		<trkpt lat="53.9871406555176" lon="13.1508369445801">
			<ele>46.5999984741211</ele>
			<time>2014-04-13T11:06:24Z</time>
		</trkpt>
		<trkpt lat="53.9870948791504" lon="13.1508703231812">
			<ele>46.2999992370605</ele>
			<time>2014-04-13T11:06:25Z</time>
		</trkpt>
		<trkpt lat="53.9870491027832" lon="13.1509132385254">
			<ele>46.2000007629395</ele>
			<time>2014-04-13T11:06:26Z</time>
		</trkpt>
		<trkpt lat="53.987003326416" lon="13.1509504318237">
			<ele>46.2000007629395</ele>
			<time>2014-04-13T11:06:27Z</time>
		</trkpt>
		<trkpt lat="53.986946105957" lon="13.1509790420532">
			<ele>46</ele>
			<time>2014-04-13T11:06:28Z</time>
		</trkpt>
		<trkpt lat="53.9868927001953" lon="13.1509962081909">
			<ele>46</ele>
			<time>2014-04-13T11:06:29Z</time>
		</trkpt>
		<trkpt lat="53.9868354797363" lon="13.1510105133057">
			<ele>45.4000015258789</ele>
			<time>2014-04-13T11:06:30Z</time>
		</trkpt>
		<trkpt lat="53.9867782592773" lon="13.1510343551636">
			<ele>45.5999984741211</ele>
			<time>2014-04-13T11:06:31Z</time>
		</trkpt>
		<trkpt lat="53.9867210388184" lon="13.1510553359985">
			<ele>45.7000007629395</ele>
			<time>2014-04-13T11:06:32Z</time>
		</trkpt>
		<trkpt lat="53.9866676330566" lon="13.1510810852051">
			<ele>45.7000007629395</ele>
			<time>2014-04-13T11:06:33Z</time>
		</trkpt>
		<trkpt lat="53.9866104125977" lon="13.1511087417603">
			<ele>45.5999984741211</ele>
			<time>2014-04-13T11:06:34Z</time>
		</trkpt>
		<trkpt lat="53.9865531921387" lon="13.1511335372925">
			<ele>45.5999984741211</ele>
			<time>2014-04-13T11:06:35Z</time>
		</trkpt>
		<trkpt lat="53.9864959716797" lon="13.1511487960815">
			<ele>45.7000007629395</ele>
			<time>2014-04-13T11:06:36Z</time>
		</trkpt>
		<trkpt lat="53.9864349365234" lon="13.1511640548706">
			<ele>45.7000007629395</ele>
			<time>2014-04-13T11:06:37Z</time>
		</trkpt>
		<trkpt lat="53.9863739013672" lon="13.1511659622192">
			<ele>45.5</ele>
			<time>2014-04-13T11:06:38Z</time>
		</trkpt>
		<trkpt lat="53.9863166809082" lon="13.1511745452881">
			<ele>46.0999984741211</ele>
			<time>2014-04-13T11:06:39Z</time>
		</trkpt>
		<trkpt lat="53.9862594604492" lon="13.1511936187744">
			<ele>46.2000007629395</ele>
			<time>2014-04-13T11:06:40Z</time>
		</trkpt>
		<trkpt lat="53.9862022399902" lon="13.1512145996094">
			<ele>46.2999992370605</ele>
			<time>2014-04-13T11:06:41Z</time>
		</trkpt>
		<trkpt lat="53.9861488342285" lon="13.1512441635132">
			<ele>46.2000007629395</ele>
			<time>2014-04-13T11:06:42Z</time>
		</trkpt>
		<trkpt lat="53.9860877990723" lon="13.1512699127197">
			<ele>46</ele>
			<time>2014-04-13T11:06:43Z</time>
		</trkpt>
		<trkpt lat="53.9860305786133" lon="13.1512870788574">
			<ele>45.7999992370605</ele>
			<time>2014-04-13T11:06:44Z</time>
		</trkpt>
		<trkpt lat="53.985969543457" lon="13.151309967041">
			<ele>45.7000007629395</ele>
			<time>2014-04-13T11:06:45Z</time>
		</trkpt>
		<trkpt lat="53.9859085083008" lon="13.1513328552246">
			<ele>45.4000015258789</ele>
			<time>2014-04-13T11:06:46Z</time>
		</trkpt>
		<trkpt lat="53.9858436584473" lon="13.1513528823853">
			<ele>44.9000015258789</ele>
			<time>2014-04-13T11:06:47Z</time>
		</trkpt>
		<trkpt lat="53.985782623291" lon="13.1513738632202">
			<ele>44.7000007629395</ele>
			<time>2014-04-13T11:06:48Z</time>
		</trkpt>
		<trkpt lat="53.9857177734375" lon="13.1513919830322">
			<ele>44.4000015258789</ele>
			<time>2014-04-13T11:06:49Z</time>
		</trkpt>
		<trkpt lat="53.985652923584" lon="13.151403427124">
			<ele>43.7999992370605</ele>
			<time>2014-04-13T11:06:50Z</time>
		</trkpt>
		<trkpt lat="53.9855880737305" lon="13.1514167785645">
			<ele>43.7999992370605</ele>
			<time>2014-04-13T11:06:51Z</time>
		</trkpt>
		<trkpt lat="53.9855270385742" lon="13.1514301300049">
			<ele>43.4000015258789</ele>
			<time>2014-04-13T11:06:52Z</time>
		</trkpt>
		<trkpt lat="53.9854583740234" lon="13.1514358520508">
			<ele>43.2000007629395</ele>
			<time>2014-04-13T11:06:53Z</time>
		</trkpt>
		<trkpt lat="53.9853935241699" lon="13.1514406204224">
			<ele>43.0999984741211</ele>
			<time>2014-04-13T11:06:54Z</time>
		</trkpt>
		<trkpt lat="53.9853248596191" lon="13.1514406204224">
			<ele>43</ele>
			<time>2014-04-13T11:06:55Z</time>
		</trkpt>
		<trkpt lat="53.9852600097656" lon="13.1514339447021">
			<ele>42.9000015258789</ele>
			<time>2014-04-13T11:06:56Z</time>
		</trkpt>
		<trkpt lat="53.9851951599121" lon="13.1514282226563">
			<ele>42.5999984741211</ele>
			<time>2014-04-13T11:06:57Z</time>
		</trkpt>
		<trkpt lat="53.9851303100586" lon="13.1514120101929">
			<ele>42.2999992370605</ele>
			<time>2014-04-13T11:06:58Z</time>
		</trkpt>
		<trkpt lat="53.9850654602051" lon="13.1513977050781">
			<ele>42.0999984741211</ele>
			<time>2014-04-13T11:06:59Z</time>
		</trkpt>
		<trkpt lat="53.9850006103516" lon="13.1513776779175">
			<ele>42.5</ele>
			<time>2014-04-13T11:07:00Z</time>
		</trkpt>
		<trkpt lat="53.984935760498" lon="13.151346206665">
			<ele>41.7000007629395</ele>
			<time>2014-04-13T11:07:01Z</time>
		</trkpt>
		<trkpt lat="53.9848709106445" lon="13.1513090133667">
			<ele>41.7000007629395</ele>
			<time>2014-04-13T11:07:02Z</time>
		</trkpt>
		<trkpt lat="53.984806060791" lon="13.1512670516968">
			<ele>41.2000007629395</ele>
			<time>2014-04-13T11:07:03Z</time>
		</trkpt>
		<trkpt lat="53.9847412109375" lon="13.15123462677">
			<ele>41.2999992370605</ele>
			<time>2014-04-13T11:07:04Z</time>
		</trkpt>
		<trkpt lat="53.9846801757813" lon="13.1511974334717">
			<ele>41.5</ele>
			<time>2014-04-13T11:07:05Z</time>
		</trkpt>
		<trkpt lat="53.9846153259277" lon="13.151159286499">
			<ele>41.5</ele>
			<time>2014-04-13T11:07:06Z</time>
		</trkpt>
		<trkpt lat="53.9845504760742" lon="13.1511154174805">
			<ele>41.4000015258789</ele>
			<time>2014-04-13T11:07:07Z</time>
		</trkpt>
		<trkpt lat="53.984489440918" lon="13.1510725021362">
			<ele>41</ele>
			<time>2014-04-13T11:07:08Z</time>
		</trkpt>
		<trkpt lat="53.9844245910645" lon="13.1510314941406">
			<ele>41</ele>
			<time>2014-04-13T11:07:09Z</time>
		</trkpt>
		<trkpt lat="53.9843597412109" lon="13.1509857177734">
			<ele>40.9000015258789</ele>
			<time>2014-04-13T11:07:10Z</time>
		</trkpt>
		<trkpt lat="53.9842948913574" lon="13.1509428024292">
			<ele>40.7000007629395</ele>
			<time>2014-04-13T11:07:11Z</time>
		</trkpt>
		<trkpt lat="53.9842300415039" lon="13.1509037017822">
			<ele>40.7000007629395</ele>
			<time>2014-04-13T11:07:12Z</time>
		</trkpt>
		<trkpt lat="53.9841690063477" lon="13.1508636474609">
			<ele>40.7000007629395</ele>
			<time>2014-04-13T11:07:13Z</time>
		</trkpt>
		<trkpt lat="53.9841041564941" lon="13.1508207321167">
			<ele>40.7000007629395</ele>
			<time>2014-04-13T11:07:14Z</time>
		</trkpt>
		<trkpt lat="53.9840393066406" lon="13.1507835388184">
			<ele>40.5999984741211</ele>
			<time>2014-04-13T11:07:15Z</time>
		</trkpt>
		<trkpt lat="53.9839744567871" lon="13.1507434844971">
			<ele>40.5999984741211</ele>
			<time>2014-04-13T11:07:16Z</time>
		</trkpt>
		<trkpt lat="53.9839134216309" lon="13.1507015228271">
			<ele>40.7000007629395</ele>
			<time>2014-04-13T11:07:17Z</time>
		</trkpt>
		<trkpt lat="53.9838485717773" lon="13.1506605148315">
			<ele>41</ele>
			<time>2014-04-13T11:07:18Z</time>
		</trkpt>
		<trkpt lat="53.9837799072266" lon="13.1506175994873">
			<ele>40.9000015258789</ele>
			<time>2014-04-13T11:07:19Z</time>
		</trkpt>
		<trkpt lat="53.9837188720703" lon="13.1505727767944">
			<ele>40.7999992370605</ele>
			<time>2014-04-13T11:07:20Z</time>
		</trkpt>
		<trkpt lat="53.9836578369141" lon="13.1505365371704">
			<ele>40.7000007629395</ele>
			<time>2014-04-13T11:07:21Z</time>
		</trkpt>
		<trkpt lat="53.9835968017578" lon="13.1505012512207">
			<ele>40.5999984741211</ele>
			<time>2014-04-13T11:07:22Z</time>
		</trkpt>
		<trkpt lat="53.9835319519043" lon="13.1504669189453">
			<ele>40.2999992370605</ele>
			<time>2014-04-13T11:07:23Z</time>
		</trkpt>
		<trkpt lat="53.9834747314453" lon="13.150429725647">
			<ele>40</ele>
			<time>2014-04-13T11:07:24Z</time>
		</trkpt>
		<trkpt lat="53.9834175109863" lon="13.1503925323486">
			<ele>39.9000015258789</ele>
			<time>2014-04-13T11:07:25Z</time>
		</trkpt>
		<trkpt lat="53.9833564758301" lon="13.150354385376">
			<ele>39.7999992370605</ele>
			<time>2014-04-13T11:07:26Z</time>
		</trkpt>
		<trkpt lat="53.9833030700684" lon="13.1503143310547">
			<ele>39.7000007629395</ele>
			<time>2014-04-13T11:07:27Z</time>
		</trkpt>
		<trkpt lat="53.9832458496094" lon="13.1502780914307">
			<ele>39.7000007629395</ele>
			<time>2014-04-13T11:07:28Z</time>
		</trkpt>
		<trkpt lat="53.9831924438477" lon="13.1502437591553">
			<ele>39.9000015258789</ele>
			<time>2014-04-13T11:07:29Z</time>
		</trkpt>
		<trkpt lat="53.9831352233887" lon="13.1502084732056">
			<ele>39.7000007629395</ele>
			<time>2014-04-13T11:07:30Z</time>
		</trkpt>
		<trkpt lat="53.9830780029297" lon="13.1501693725586">
			<ele>39.7999992370605</ele>
			<time>2014-04-13T11:07:31Z</time>
		</trkpt>
		<trkpt lat="53.9830207824707" lon="13.1501312255859">
			<ele>39.7999992370605</ele>
			<time>2014-04-13T11:07:32Z</time>
		</trkpt>
		<trkpt lat="53.982967376709" lon="13.150089263916">
			<ele>39.7000007629395</ele>
			<time>2014-04-13T11:07:33Z</time>
		</trkpt>
		<trkpt lat="53.98291015625" lon="13.1500539779663">
			<ele>39.9000015258789</ele>
			<time>2014-04-13T11:07:34Z</time>
		</trkpt>
		<trkpt lat="53.9828567504883" lon="13.1500196456909">
			<ele>40</ele>
			<time>2014-04-13T11:07:35Z</time>
		</trkpt>
		<trkpt lat="53.9828071594238" lon="13.1499843597412">
			<ele>39.9000015258789</ele>
			<time>2014-04-13T11:07:36Z</time>
		</trkpt>
		<trkpt lat="53.9827537536621" lon="13.1499528884888">
			<ele>39.7000007629395</ele>
			<time>2014-04-13T11:07:37Z</time>
		</trkpt>
		<trkpt lat="53.9827003479004" lon="13.1499166488647">
			<ele>39.5</ele>
			<time>2014-04-13T11:07:38Z</time>
		</trkpt>
		<trkpt lat="53.9826507568359" lon="13.1498785018921">
			<ele>39.5</ele>
			<time>2014-04-13T11:07:39Z</time>
		</trkpt>
		<trkpt lat="53.9825973510742" lon="13.1498470306396">
			<ele>39.4000015258789</ele>
			<time>2014-04-13T11:07:40Z</time>
		</trkpt>
		<trkpt lat="53.9825477600098" lon="13.1498136520386">
			<ele>39.5</ele>
			<time>2014-04-13T11:07:41Z</time>
		</trkpt>
		<trkpt lat="53.9824981689453" lon="13.1497821807861">
			<ele>39.5999984741211</ele>
			<time>2014-04-13T11:07:42Z</time>
		</trkpt>
		<trkpt lat="53.9824485778809" lon="13.1497573852539">
			<ele>39.5</ele>
			<time>2014-04-13T11:07:43Z</time>
		</trkpt>
		<trkpt lat="53.9823989868164" lon="13.1497316360474">
			<ele>39.4000015258789</ele>
			<time>2014-04-13T11:07:44Z</time>
		</trkpt>
		<trkpt lat="53.982349395752" lon="13.1497001647949">
			<ele>39.2999992370605</ele>
			<time>2014-04-13T11:07:45Z</time>
		</trkpt>
		<trkpt lat="53.982307434082" lon="13.1496715545654">
			<ele>39.5</ele>
			<time>2014-04-13T11:07:46Z</time>
		</trkpt>
		<trkpt lat="53.9822578430176" lon="13.1496419906616">
			<ele>39.7000007629395</ele>
			<time>2014-04-13T11:07:47Z</time>
		</trkpt>
		<trkpt lat="53.9822082519531" lon="13.149621963501">
			<ele>39.5999984741211</ele>
			<time>2014-04-13T11:07:48Z</time>
		</trkpt>
		<trkpt lat="53.9821624755859" lon="13.1495933532715">
			<ele>39.7000007629395</ele>
			<time>2014-04-13T11:07:49Z</time>
		</trkpt>
		<trkpt lat="53.9821166992188" lon="13.1495609283447">
			<ele>39.7999992370605</ele>
			<time>2014-04-13T11:07:50Z</time>
		</trkpt>
		<trkpt lat="53.9820671081543" lon="13.1495265960693">
			<ele>39.9000015258789</ele>
			<time>2014-04-13T11:07:51Z</time>
		</trkpt>
		<trkpt lat="53.9820175170898" lon="13.1494932174683">
			<ele>40.2000007629395</ele>
			<time>2014-04-13T11:07:52Z</time>
		</trkpt>
		<trkpt lat="53.9819679260254" lon="13.1494655609131">
			<ele>40.2000007629395</ele>
			<time>2014-04-13T11:07:53Z</time>
		</trkpt>
		<trkpt lat="53.9819183349609" lon="13.1494331359863">
			<ele>40.2000007629395</ele>
			<time>2014-04-13T11:07:54Z</time>
		</trkpt>
		<trkpt lat="53.9818687438965" lon="13.1494016647339">
			<ele>40</ele>
			<time>2014-04-13T11:07:55Z</time>
		</trkpt>
		<trkpt lat="53.9818153381348" lon="13.1493730545044">
			<ele>39.9000015258789</ele>
			<time>2014-04-13T11:07:56Z</time>
		</trkpt>
		<trkpt lat="53.981761932373" lon="13.1493453979492">
			<ele>39.9000015258789</ele>
			<time>2014-04-13T11:07:57Z</time>
		</trkpt>
		<trkpt lat="53.9817085266113" lon="13.1493148803711">
			<ele>39.5999984741211</ele>
			<time>2014-04-13T11:07:58Z</time>
		</trkpt>
		<trkpt lat="53.9816589355469" lon="13.1492891311646">
			<ele>39.7000007629395</ele>
			<time>2014-04-13T11:07:59Z</time>
		</trkpt>
		<trkpt lat="53.9816093444824" lon="13.1492538452148">
			<ele>39.7000007629395</ele>
			<time>2014-04-13T11:08:00Z</time>
		</trkpt>
		<trkpt lat="53.9815559387207" lon="13.1492156982422">
			<ele>39.9000015258789</ele>
			<time>2014-04-13T11:08:01Z</time>
		</trkpt>
		<trkpt lat="53.981502532959" lon="13.1491851806641">
			<ele>40</ele>
			<time>2014-04-13T11:08:02Z</time>
		</trkpt>
		<trkpt lat="53.9814491271973" lon="13.1491537094116">
			<ele>40.0999984741211</ele>
			<time>2014-04-13T11:08:03Z</time>
		</trkpt>
		<trkpt lat="53.9813919067383" lon="13.1491212844849">
			<ele>40.0999984741211</ele>
			<time>2014-04-13T11:08:04Z</time>
		</trkpt>
		<trkpt lat="53.9813346862793" lon="13.1490888595581">
			<ele>40.2999992370605</ele>
			<time>2014-04-13T11:08:05Z</time>
		</trkpt>
		<trkpt lat="53.9812812805176" lon="13.1490564346313">
			<ele>40.0999984741211</ele>
			<time>2014-04-13T11:08:06Z</time>
		</trkpt>
		<trkpt lat="53.9812240600586" lon="13.1490249633789">
			<ele>40.0999984741211</ele>
			<time>2014-04-13T11:08:07Z</time>
		</trkpt>
		<trkpt lat="53.9811706542969" lon="13.1489915847778">
			<ele>40.2999992370605</ele>
			<time>2014-04-13T11:08:08Z</time>
		</trkpt>
		<trkpt lat="53.9811210632324" lon="13.1489553451538">
			<ele>40.2000007629395</ele>
			<time>2014-04-13T11:08:09Z</time>
		</trkpt>
		<trkpt lat="53.9810676574707" lon="13.1489238739014">
			<ele>40.2999992370605</ele>
			<time>2014-04-13T11:08:10Z</time>
		</trkpt>
		<trkpt lat="53.981014251709" lon="13.1488885879517">
			<ele>40</ele>
			<time>2014-04-13T11:08:11Z</time>
		</trkpt>
		<trkpt lat="53.9809608459473" lon="13.1488580703735">
			<ele>39.9000015258789</ele>
			<time>2014-04-13T11:08:12Z</time>
		</trkpt>
		<trkpt lat="53.9809074401855" lon="13.1488265991211">
			<ele>39.7999992370605</ele>
			<time>2014-04-13T11:08:13Z</time>
		</trkpt>
		<trkpt lat="53.9808578491211" lon="13.1487941741943">
			<ele>39.7000007629395</ele>
			<time>2014-04-13T11:08:14Z</time>
		</trkpt>
		<trkpt lat="53.9808044433594" lon="13.1487598419189">
			<ele>39.5</ele>
			<time>2014-04-13T11:08:15Z</time>
		</trkpt>
		<trkpt lat="53.9807510375977" lon="13.1487255096436">
			<ele>39.2000007629395</ele>
			<time>2014-04-13T11:08:16Z</time>
		</trkpt>
		<trkpt lat="53.9807014465332" lon="13.1486892700195">
			<ele>39.0999984741211</ele>
			<time>2014-04-13T11:08:17Z</time>
		</trkpt>
		<trkpt lat="53.9806518554688" lon="13.1486587524414">
			<ele>39.2999992370605</ele>
			<time>2014-04-13T11:08:18Z</time>
		</trkpt>
		<trkpt lat="53.9806022644043" lon="13.148627281189">
			<ele>39.2000007629395</ele>
			<time>2014-04-13T11:08:19Z</time>
		</trkpt>
		<trkpt lat="53.9805564880371" lon="13.1485986709595">
			<ele>38.9000015258789</ele>
			<time>2014-04-13T11:08:20Z</time>
		</trkpt>
		<trkpt lat="53.9805030822754" lon="13.148567199707">
			<ele>38.9000015258789</ele>
			<time>2014-04-13T11:08:21Z</time>
		</trkpt>
		<trkpt lat="53.9804534912109" lon="13.1485385894775">
			<ele>38.7999992370605</ele>
			<time>2014-04-13T11:08:22Z</time>
		</trkpt>
		<trkpt lat="53.9804039001465" lon="13.1485080718994">
			<ele>38.9000015258789</ele>
			<time>2014-04-13T11:08:23Z</time>
		</trkpt>
		<trkpt lat="53.980354309082" lon="13.1484775543213">
			<ele>38.7999992370605</ele>
			<time>2014-04-13T11:08:24Z</time>
		</trkpt>
		<trkpt lat="53.9803047180176" lon="13.1484451293945">
			<ele>39</ele>
			<time>2014-04-13T11:08:25Z</time>
		</trkpt>
		<trkpt lat="53.9802551269531" lon="13.1484155654907">
			<ele>38.9000015258789</ele>
			<time>2014-04-13T11:08:26Z</time>
		</trkpt>
		<trkpt lat="53.9802055358887" lon="13.1483879089355">
			<ele>38.9000015258789</ele>
			<time>2014-04-13T11:08:27Z</time>
		</trkpt>
		<trkpt lat="53.9801597595215" lon="13.1483516693115">
			<ele>38.9000015258789</ele>
			<time>2014-04-13T11:08:28Z</time>
		</trkpt>
		<trkpt lat="53.980110168457" lon="13.1483182907104">
			<ele>38.7000007629395</ele>
			<time>2014-04-13T11:08:29Z</time>
		</trkpt>
		<trkpt lat="53.9800605773926" lon="13.1482830047607">
			<ele>38.7999992370605</ele>
			<time>2014-04-13T11:08:30Z</time>
		</trkpt>
		<trkpt lat="53.9800109863281" lon="13.148250579834">
			<ele>38.7999992370605</ele>
			<time>2014-04-13T11:08:31Z</time>
		</trkpt>
		<trkpt lat="53.9799613952637" lon="13.1482181549072">
			<ele>38.5999984741211</ele>
			<time>2014-04-13T11:08:32Z</time>
		</trkpt>
		<trkpt lat="53.9799118041992" lon="13.1481819152832">
			<ele>38.5999984741211</ele>
			<time>2014-04-13T11:08:33Z</time>
		</trkpt>
		<trkpt lat="53.979866027832" lon="13.1481504440308">
			<ele>38.9000015258789</ele>
			<time>2014-04-13T11:08:34Z</time>
		</trkpt>
		<trkpt lat="53.9798164367676" lon="13.148118019104">
			<ele>38.7999992370605</ele>
			<time>2014-04-13T11:08:35Z</time>
		</trkpt>
		<trkpt lat="53.9797744750977" lon="13.1480798721313">
			<ele>38.9000015258789</ele>
			<time>2014-04-13T11:08:36Z</time>
		</trkpt>
		<trkpt lat="53.9797286987305" lon="13.1480398178101">
			<ele>39.0999984741211</ele>
			<time>2014-04-13T11:08:37Z</time>
		</trkpt>
		<trkpt lat="53.9796867370605" lon="13.1479969024658">
			<ele>39.2999992370605</ele>
			<time>2014-04-13T11:08:38Z</time>
		</trkpt>
		<trkpt lat="53.9796447753906" lon="13.1479444503784">
			<ele>39.4000015258789</ele>
			<time>2014-04-13T11:08:39Z</time>
		</trkpt>
		<trkpt lat="53.979606628418" lon="13.1478967666626">
			<ele>39.7000007629395</ele>
			<time>2014-04-13T11:08:40Z</time>
		</trkpt>
		<trkpt lat="53.9795684814453" lon="13.1478414535522">
			<ele>39.7000007629395</ele>
			<time>2014-04-13T11:08:41Z</time>
		</trkpt>
		<trkpt lat="53.9795303344727" lon="13.1477937698364">
			<ele>39.9000015258789</ele>
			<time>2014-04-13T11:08:42Z</time>
		</trkpt>
		<trkpt lat="53.9794921875" lon="13.147741317749">
			<ele>39.5999984741211</ele>
			<time>2014-04-13T11:08:43Z</time>
		</trkpt>
		<trkpt lat="53.9794578552246" lon="13.1476898193359">
			<ele>39.5999984741211</ele>
			<time>2014-04-13T11:08:44Z</time>
		</trkpt>
		<trkpt lat="53.9794235229492" lon="13.1476373672485">
			<ele>39.4000015258789</ele>
			<time>2014-04-13T11:08:45Z</time>
		</trkpt>
		<trkpt lat="53.9793891906738" lon="13.1475849151611">
			<ele>39.2999992370605</ele>
			<time>2014-04-13T11:08:46Z</time>
		</trkpt>
		<trkpt lat="53.9793243408203" lon="13.1474781036377">
			<ele>39.7000007629395</ele>
			<time>2014-04-13T11:08:48Z</time>
		</trkpt>
		<trkpt lat="53.9792900085449" lon="13.1474208831787">
			<ele>40.0999984741211</ele>
			<time>2014-04-13T11:08:49Z</time>
		</trkpt>
		<trkpt lat="53.9792594909668" lon="13.147364616394">
			<ele>40.2999992370605</ele>
			<time>2014-04-13T11:08:50Z</time>
		</trkpt>
		<trkpt lat="53.9792289733887" lon="13.1473073959351">
			<ele>40.5</ele>
			<time>2014-04-13T11:08:51Z</time>
		</trkpt>
		<trkpt lat="53.9791946411133" lon="13.1472425460815">
			<ele>40.7000007629395</ele>
			<time>2014-04-13T11:08:52Z</time>
		</trkpt>
		<trkpt lat="53.9791641235352" lon="13.1471681594849">
			<ele>40.7000007629395</ele>
			<time>2014-04-13T11:08:53Z</time>
		</trkpt>
		<trkpt lat="53.9791412353516" lon="13.1470880508423">
			<ele>40.7000007629395</ele>
			<time>2014-04-13T11:08:54Z</time>
		</trkpt>
		<trkpt lat="53.9791145324707" lon="13.1470069885254">
			<ele>40.5999984741211</ele>
			<time>2014-04-13T11:08:55Z</time>
		</trkpt>
		<trkpt lat="53.9790878295898" lon="13.1469316482544">
			<ele>40.7000007629395</ele>
			<time>2014-04-13T11:08:56Z</time>
		</trkpt>
		<trkpt lat="53.9790496826172" lon="13.146861076355">
			<ele>41</ele>
			<time>2014-04-13T11:08:57Z</time>
		</trkpt>
		<trkpt lat="53.97900390625" lon="13.1468095779419">
			<ele>41.0999984741211</ele>
			<time>2014-04-13T11:08:58Z</time>
		</trkpt>
		<trkpt lat="53.9789695739746" lon="13.1467514038086">
			<ele>41.2999992370605</ele>
			<time>2014-04-13T11:08:59Z</time>
		</trkpt>
		<trkpt lat="53.9789390563965" lon="13.146689414978">
			<ele>41.2999992370605</ele>
			<time>2014-04-13T11:09:00Z</time>
		</trkpt>
		<trkpt lat="53.9789047241211" lon="13.1465606689453">
			<ele>41.2999992370605</ele>
			<time>2014-04-13T11:09:02Z</time>
		</trkpt>
		<trkpt lat="53.9788818359375" lon="13.1464939117432">
			<ele>41.4000015258789</ele>
			<time>2014-04-13T11:09:03Z</time>
		</trkpt>
		<trkpt lat="53.9788589477539" lon="13.1464204788208">
			<ele>41.9000015258789</ele>
			<time>2014-04-13T11:09:04Z</time>
		</trkpt>
		<trkpt lat="53.9788208007813" lon="13.1462879180908">
			<ele>41.2000007629395</ele>
			<time>2014-04-13T11:09:06Z</time>
		</trkpt>
		<trkpt lat="53.9787940979004" lon="13.1462154388428">
			<ele>41.4000015258789</ele>
			<time>2014-04-13T11:09:07Z</time>
		</trkpt>
		<trkpt lat="53.9787712097168" lon="13.1461420059204">
			<ele>41.2999992370605</ele>
			<time>2014-04-13T11:09:08Z</time>
		</trkpt>
		<trkpt lat="53.9787483215332" lon="13.1460638046265">
			<ele>41.4000015258789</ele>
			<time>2014-04-13T11:09:09Z</time>
		</trkpt>
		<trkpt lat="53.9787254333496" lon="13.1459894180298">
			<ele>41.4000015258789</ele>
			<time>2014-04-13T11:09:10Z</time>
		</trkpt>
		<trkpt lat="53.978702545166" lon="13.145920753479">
			<ele>41.5999984741211</ele>
			<time>2014-04-13T11:09:11Z</time>
		</trkpt>
		<trkpt lat="53.9786796569824" lon="13.1458511352539">
			<ele>42.2000007629395</ele>
			<time>2014-04-13T11:09:12Z</time>
		</trkpt>
		<trkpt lat="53.9786567687988" lon="13.1457738876343">
			<ele>42.2000007629395</ele>
			<time>2014-04-13T11:09:13Z</time>
		</trkpt>
		<trkpt lat="53.9786338806152" lon="13.1457071304321">
			<ele>42.2999992370605</ele>
			<time>2014-04-13T11:09:14Z</time>
		</trkpt>
		<trkpt lat="53.9786109924316" lon="13.1456365585327">
			<ele>42.2999992370605</ele>
			<time>2014-04-13T11:09:15Z</time>
		</trkpt>
		<trkpt lat="53.978588104248" lon="13.1455678939819">
			<ele>42.5</ele>
			<time>2014-04-13T11:09:16Z</time>
		</trkpt>
		<trkpt lat="53.9785652160645" lon="13.1455020904541">
			<ele>42.5999984741211</ele>
			<time>2014-04-13T11:09:17Z</time>
		</trkpt>
		<trkpt lat="53.9785232543945" lon="13.1453742980957">
			<ele>42.2000007629395</ele>
			<time>2014-04-13T11:09:19Z</time>
		</trkpt>
		<trkpt lat="53.9785041809082" lon="13.145302772522">
			<ele>42.2000007629395</ele>
			<time>2014-04-13T11:09:20Z</time>
		</trkpt>
		<trkpt lat="53.9784774780273" lon="13.1452302932739">
			<ele>42.2999992370605</ele>
			<time>2014-04-13T11:09:21Z</time>
		</trkpt>
		<trkpt lat="53.978458404541" lon="13.14515209198">
			<ele>42.2999992370605</ele>
			<time>2014-04-13T11:09:22Z</time>
		</trkpt>
		<trkpt lat="53.9784202575684" lon="13.1450204849243">
			<ele>42.2999992370605</ele>
			<time>2014-04-13T11:09:24Z</time>
		</trkpt>
		<trkpt lat="53.9783973693848" lon="13.1449537277222">
			<ele>42</ele>
			<time>2014-04-13T11:09:25Z</time>
		</trkpt>
		<trkpt lat="53.9783668518066" lon="13.1448783874512">
			<ele>42.4000015258789</ele>
			<time>2014-04-13T11:09:26Z</time>
		</trkpt>
		<trkpt lat="53.978343963623" lon="13.1448106765747">
			<ele>42.4000015258789</ele>
			<time>2014-04-13T11:09:27Z</time>
		</trkpt>
		<trkpt lat="53.9783172607422" lon="13.1447458267212">
			<ele>42.2000007629395</ele>
			<time>2014-04-13T11:09:28Z</time>
		</trkpt>
		<trkpt lat="53.9782981872559" lon="13.1446733474731">
			<ele>42.4000015258789</ele>
			<time>2014-04-13T11:09:29Z</time>
		</trkpt>
		<trkpt lat="53.9782791137695" lon="13.1446046829224">
			<ele>42.4000015258789</ele>
			<time>2014-04-13T11:09:30Z</time>
		</trkpt>
		<trkpt lat="53.9782600402832" lon="13.1445341110229">
			<ele>42.0999984741211</ele>
			<time>2014-04-13T11:09:31Z</time>
		</trkpt>
		<trkpt lat="53.9782333374023" lon="13.1444625854492">
			<ele>42.4000015258789</ele>
			<time>2014-04-13T11:09:32Z</time>
		</trkpt>
		<trkpt lat="53.9782066345215" lon="13.1443939208984">
			<ele>42.7000007629395</ele>
			<time>2014-04-13T11:09:33Z</time>
		</trkpt>
		<trkpt lat="53.9781646728516" lon="13.1442623138428">
			<ele>42.7000007629395</ele>
			<time>2014-04-13T11:09:35Z</time>
		</trkpt>
		<trkpt lat="53.978141784668" lon="13.1441946029663">
			<ele>42.7000007629395</ele>
			<time>2014-04-13T11:09:39Z</time>
		</trkpt>
		<trkpt lat="53.9780578613281" lon="13.143928527832">
			<ele>42.7999992370605</ele>
			<time>2014-04-13T11:09:40Z</time>
		</trkpt>
		<trkpt lat="53.9780349731445" lon="13.1438579559326">
			<ele>42.5999984741211</ele>
			<time>2014-04-13T11:09:41Z</time>
		</trkpt>
		<trkpt lat="53.9780082702637" lon="13.1437940597534">
			<ele>43</ele>
			<time>2014-04-13T11:09:42Z</time>
		</trkpt>
		<trkpt lat="53.9779930114746" lon="13.1437225341797">
			<ele>43.2000007629395</ele>
			<time>2014-04-13T11:09:43Z</time>
		</trkpt>
		<trkpt lat="53.9779510498047" lon="13.1435947418213">
			<ele>43.5</ele>
			<time>2014-04-13T11:09:45Z</time>
		</trkpt>
		<trkpt lat="53.9779090881348" lon="13.1434631347656">
			<ele>44.0999984741211</ele>
			<time>2014-04-13T11:09:47Z</time>
		</trkpt>
		<trkpt lat="53.9778823852539" lon="13.1433887481689">
			<ele>44.5999984741211</ele>
			<time>2014-04-13T11:09:48Z</time>
		</trkpt>
		<trkpt lat="53.9778442382813" lon="13.1432466506958">
			<ele>44.7999992370605</ele>
			<time>2014-04-13T11:09:50Z</time>
		</trkpt>
		<trkpt lat="53.9778022766113" lon="13.1431045532227">
			<ele>44.2999992370605</ele>
			<time>2014-04-13T11:09:52Z</time>
		</trkpt>
		<trkpt lat="53.9777793884277" lon="13.1430368423462">
			<ele>44.5</ele>
			<time>2014-04-13T11:09:53Z</time>
		</trkpt>
		<trkpt lat="53.9777336120605" lon="13.1429004669189">
			<ele>44.2999992370605</ele>
			<time>2014-04-13T11:09:55Z</time>
		</trkpt>
		<trkpt lat="53.9776992797852" lon="13.1427688598633">
			<ele>44.4000015258789</ele>
			<time>2014-04-13T11:09:57Z</time>
		</trkpt>
		<trkpt lat="53.9776573181152" lon="13.1426429748535">
			<ele>44.2999992370605</ele>
			<time>2014-04-13T11:09:59Z</time>
		</trkpt>
		<trkpt lat="53.9776268005371" lon="13.1425695419312">
			<ele>44.5999984741211</ele>
			<time>2014-04-13T11:10:00Z</time>
		</trkpt>
		<trkpt lat="53.9776039123535" lon="13.1424970626831">
			<ele>44.7999992370605</ele>
			<time>2014-04-13T11:10:01Z</time>
		</trkpt>
		<trkpt lat="53.9775810241699" lon="13.1424217224121">
			<ele>45</ele>
			<time>2014-04-13T11:10:02Z</time>
		</trkpt>
		<trkpt lat="53.9775352478027" lon="13.1422872543335">
			<ele>45</ele>
			<time>2014-04-13T11:10:04Z</time>
		</trkpt>
		<trkpt lat="53.9775161743164" lon="13.1422176361084">
			<ele>45.0999984741211</ele>
			<time>2014-04-13T11:10:05Z</time>
		</trkpt>
		<trkpt lat="53.9774894714355" lon="13.1421461105347">
			<ele>45.2999992370605</ele>
			<time>2014-04-13T11:10:06Z</time>
		</trkpt>
		<trkpt lat="53.9774627685547" lon="13.1420707702637">
			<ele>46.2000007629395</ele>
			<time>2014-04-13T11:10:07Z</time>
		</trkpt>
		<trkpt lat="53.9774398803711" lon="13.141996383667">
			<ele>46.5</ele>
			<time>2014-04-13T11:10:08Z</time>
		</trkpt>
		<trkpt lat="53.9774208068848" lon="13.1419258117676">
			<ele>46.0999984741211</ele>
			<time>2014-04-13T11:10:09Z</time>
		</trkpt>
		<trkpt lat="53.9773750305176" lon="13.1417875289917">
			<ele>45.5999984741211</ele>
			<time>2014-04-13T11:10:11Z</time>
		</trkpt>
		<trkpt lat="53.977352142334" lon="13.1417188644409">
			<ele>45.4000015258789</ele>
			<time>2014-04-13T11:10:12Z</time>
		</trkpt>
		<trkpt lat="53.9773101806641" lon="13.1415796279907">
			<ele>45.5999984741211</ele>
			<time>2014-04-13T11:10:14Z</time>
		</trkpt>
		<trkpt lat="53.9772872924805" lon="13.141505241394">
			<ele>45.5</ele>
			<time>2014-04-13T11:10:15Z</time>
		</trkpt>
		<trkpt lat="53.9772720336914" lon="13.1414308547974">
			<ele>45.2000007629395</ele>
			<time>2014-04-13T11:10:16Z</time>
		</trkpt>
		<trkpt lat="53.9772491455078" lon="13.1413545608521">
			<ele>45.2000007629395</ele>
			<time>2014-04-13T11:10:17Z</time>
		</trkpt>
		<trkpt lat="53.9772262573242" lon="13.1412754058838">
			<ele>44.7999992370605</ele>
			<time>2014-04-13T11:10:18Z</time>
		</trkpt>
		<trkpt lat="53.9772071838379" lon="13.1412010192871">
			<ele>45</ele>
			<time>2014-04-13T11:10:19Z</time>
		</trkpt>
		<trkpt lat="53.9771881103516" lon="13.1411209106445">
			<ele>44.9000015258789</ele>
			<time>2014-04-13T11:10:20Z</time>
		</trkpt>
		<trkpt lat="53.9771728515625" lon="13.1410512924194">
			<ele>44.9000015258789</ele>
			<time>2014-04-13T11:10:21Z</time>
		</trkpt>
		<trkpt lat="53.9771347045898" lon="13.1409788131714">
			<ele>45.0999984741211</ele>
			<time>2014-04-13T11:10:22Z</time>
		</trkpt>
		<trkpt lat="53.9770889282227" lon="13.1408519744873">
			<ele>43.9000015258789</ele>
			<time>2014-04-13T11:10:24Z</time>
		</trkpt>
		<trkpt lat="53.9770584106445" lon="13.140775680542">
			<ele>43.2999992370605</ele>
			<time>2014-04-13T11:10:25Z</time>
		</trkpt>
		<trkpt lat="53.9770202636719" lon="13.140643119812">
			<ele>42.7000007629395</ele>
			<time>2014-04-13T11:10:27Z</time>
		</trkpt>
		<trkpt lat="53.9769973754883" lon="13.1405630111694">
			<ele>42</ele>
			<time>2014-04-13T11:10:28Z</time>
		</trkpt>
		<trkpt lat="53.976978302002" lon="13.1404809951782">
			<ele>41.7999992370605</ele>
			<time>2014-04-13T11:10:29Z</time>
		</trkpt>
		<trkpt lat="53.9769477844238" lon="13.1403474807739">
			<ele>37.5</ele>
			<time>2014-04-13T11:10:31Z</time>
		</trkpt>
		<trkpt lat="53.9769325256348" lon="13.1402263641357">
			<ele>36.5999984741211</ele>
			<time>2014-04-13T11:10:33Z</time>
		</trkpt>
		<trkpt lat="53.976863861084" lon="13.1400470733643">
			<ele>36.2999992370605</ele>
			<time>2014-04-13T11:10:35Z</time>
		</trkpt>
		<trkpt lat="53.9768333435059" lon="13.1399583816528">
			<ele>35.9000015258789</ele>
			<time>2014-04-13T11:10:36Z</time>
		</trkpt>
		<trkpt lat="53.976806640625" lon="13.1398859024048">
			<ele>35.9000015258789</ele>
			<time>2014-04-13T11:10:37Z</time>
		</trkpt>
		<trkpt lat="53.9767875671387" lon="13.1398038864136">
			<ele>36</ele>
			<time>2014-04-13T11:10:38Z</time>
		</trkpt>
		<trkpt lat="53.9767532348633" lon="13.1397190093994">
			<ele>36</ele>
			<time>2014-04-13T11:10:39Z</time>
		</trkpt>
		<trkpt lat="53.9767265319824" lon="13.1396436691284">
			<ele>35.5</ele>
			<time>2014-04-13T11:10:40Z</time>
		</trkpt>
		<trkpt lat="53.9766960144043" lon="13.1395616531372">
			<ele>36</ele>
			<time>2014-04-13T11:10:41Z</time>
		</trkpt>
		<trkpt lat="53.9766654968262" lon="13.1394729614258">
			<ele>35.9000015258789</ele>
			<time>2014-04-13T11:10:42Z</time>
		</trkpt>
		<trkpt lat="53.9766387939453" lon="13.1393871307373">
			<ele>35.5</ele>
			<time>2014-04-13T11:10:43Z</time>
		</trkpt>
		<trkpt lat="53.9766120910645" lon="13.1393041610718">
			<ele>36.0999984741211</ele>
			<time>2014-04-13T11:10:44Z</time>
		</trkpt>
		<trkpt lat="53.9765853881836" lon="13.1392221450806">
			<ele>36.2999992370605</ele>
			<time>2014-04-13T11:10:45Z</time>
		</trkpt>
		<trkpt lat="53.9765586853027" lon="13.1391363143921">
			<ele>35.9000015258789</ele>
			<time>2014-04-13T11:10:46Z</time>
		</trkpt>
		<trkpt lat="53.9765281677246" lon="13.139045715332">
			<ele>35.7000007629395</ele>
			<time>2014-04-13T11:10:47Z</time>
		</trkpt>
		<trkpt lat="53.9764976501465" lon="13.1389656066895">
			<ele>36.2000007629395</ele>
			<time>2014-04-13T11:10:48Z</time>
		</trkpt>
		<trkpt lat="53.9764709472656" lon="13.1388816833496">
			<ele>36.2000007629395</ele>
			<time>2014-04-13T11:10:49Z</time>
		</trkpt>
		<trkpt lat="53.9764442443848" lon="13.1387882232666">
			<ele>36.5</ele>
			<time>2014-04-13T11:10:50Z</time>
		</trkpt>
		<trkpt lat="53.9764060974121" lon="13.1387014389038">
			<ele>37.5999984741211</ele>
			<time>2014-04-13T11:10:51Z</time>
		</trkpt>
		<trkpt lat="53.976375579834" lon="13.1386070251465">
			<ele>38.2999992370605</ele>
			<time>2014-04-13T11:10:52Z</time>
		</trkpt>
		<trkpt lat="53.9763450622559" lon="13.1385192871094">
			<ele>38.2999992370605</ele>
			<time>2014-04-13T11:10:53Z</time>
		</trkpt>
		<trkpt lat="53.9763107299805" lon="13.1384296417236">
			<ele>38.4000015258789</ele>
			<time>2014-04-13T11:10:54Z</time>
		</trkpt>
		<trkpt lat="53.9762840270996" lon="13.138355255127">
			<ele>38.7000007629395</ele>
			<time>2014-04-13T11:10:55Z</time>
		</trkpt>
		<trkpt lat="53.9762496948242" lon="13.1382694244385">
			<ele>38.9000015258789</ele>
			<time>2014-04-13T11:10:56Z</time>
		</trkpt>
		<trkpt lat="53.9762191772461" lon="13.1381740570068">
			<ele>39.2000007629395</ele>
			<time>2014-04-13T11:10:57Z</time>
		</trkpt>
		<trkpt lat="53.9762115478516" lon="13.1380882263184">
			<ele>36.2999992370605</ele>
			<time>2014-04-13T11:10:58Z</time>
		</trkpt>
		<trkpt lat="53.9761848449707" lon="13.1379995346069">
			<ele>36.2000007629395</ele>
			<time>2014-04-13T11:10:59Z</time>
		</trkpt>
		<trkpt lat="53.9761505126953" lon="13.1379127502441">
			<ele>37.2000007629395</ele>
			<time>2014-04-13T11:11:00Z</time>
		</trkpt>
		<trkpt lat="53.9761199951172" lon="13.13782787323">
			<ele>37.0999984741211</ele>
			<time>2014-04-13T11:11:01Z</time>
		</trkpt>
		<trkpt lat="53.9760971069336" lon="13.1377458572388">
			<ele>37</ele>
			<time>2014-04-13T11:11:02Z</time>
		</trkpt>
		<trkpt lat="53.9760704040527" lon="13.1376686096191">
			<ele>37.7000007629395</ele>
			<time>2014-04-13T11:11:03Z</time>
		</trkpt>
		<trkpt lat="53.9760398864746" lon="13.1375913619995">
			<ele>38.4000015258789</ele>
			<time>2014-04-13T11:11:04Z</time>
		</trkpt>
		<trkpt lat="53.976016998291" lon="13.137508392334">
			<ele>37.7000007629395</ele>
			<time>2014-04-13T11:11:05Z</time>
		</trkpt>
		<trkpt lat="53.9759864807129" lon="13.1374273300171">
			<ele>38.2000007629395</ele>
			<time>2014-04-13T11:11:06Z</time>
		</trkpt>
		<trkpt lat="53.975959777832" lon="13.1373481750488">
			<ele>38.2999992370605</ele>
			<time>2014-04-13T11:11:07Z</time>
		</trkpt>
		<trkpt lat="53.9759368896484" lon="13.1372718811035">
			<ele>38.2000007629395</ele>
			<time>2014-04-13T11:11:08Z</time>
		</trkpt>
		<trkpt lat="53.9759101867676" lon="13.137188911438">
			<ele>38.5</ele>
			<time>2014-04-13T11:11:09Z</time>
		</trkpt>
		<trkpt lat="53.9758911132813" lon="13.137110710144">
			<ele>38.5999984741211</ele>
			<time>2014-04-13T11:11:10Z</time>
		</trkpt>
		<trkpt lat="53.9758644104004" lon="13.1370391845703">
			<ele>39.5999984741211</ele>
			<time>2014-04-13T11:11:11Z</time>
		</trkpt>
		<trkpt lat="53.9758377075195" lon="13.1369609832764">
			<ele>39.9000015258789</ele>
			<time>2014-04-13T11:11:12Z</time>
		</trkpt>
		<trkpt lat="53.9758110046387" lon="13.1368913650513">
			<ele>40</ele>
			<time>2014-04-13T11:11:13Z</time>
		</trkpt>
		<trkpt lat="53.9757843017578" lon="13.136815071106">
			<ele>40</ele>
			<time>2014-04-13T11:11:14Z</time>
		</trkpt>
		<trkpt lat="53.975757598877" lon="13.1367387771606">
			<ele>40.4000015258789</ele>
			<time>2014-04-13T11:11:15Z</time>
		</trkpt>
		<trkpt lat="53.9757308959961" lon="13.136661529541">
			<ele>40.4000015258789</ele>
			<time>2014-04-13T11:11:16Z</time>
		</trkpt>
		<trkpt lat="53.9757080078125" lon="13.1365842819214">
			<ele>40.2999992370605</ele>
			<time>2014-04-13T11:11:17Z</time>
		</trkpt>
		<trkpt lat="53.9756813049316" lon="13.136510848999">
			<ele>40.2000007629395</ele>
			<time>2014-04-13T11:11:18Z</time>
		</trkpt>
		<trkpt lat="53.975658416748" lon="13.1364326477051">
			<ele>40.4000015258789</ele>
			<time>2014-04-13T11:11:19Z</time>
		</trkpt>
		<trkpt lat="53.9756355285645" lon="13.1363563537598">
			<ele>40.5</ele>
			<time>2014-04-13T11:11:20Z</time>
		</trkpt>
		<trkpt lat="53.9756088256836" lon="13.1362781524658">
			<ele>40.2000007629395</ele>
			<time>2014-04-13T11:11:21Z</time>
		</trkpt>
		<trkpt lat="53.9755821228027" lon="13.1362113952637">
			<ele>40.7000007629395</ele>
			<time>2014-04-13T11:11:22Z</time>
		</trkpt>
		<trkpt lat="53.9755554199219" lon="13.136137008667">
			<ele>40.7000007629395</ele>
			<time>2014-04-13T11:11:23Z</time>
		</trkpt>
		<trkpt lat="53.9755325317383" lon="13.1360654830933">
			<ele>40.4000015258789</ele>
			<time>2014-04-13T11:11:24Z</time>
		</trkpt>
		<trkpt lat="53.9755096435547" lon="13.1359968185425">
			<ele>40.7000007629395</ele>
			<time>2014-04-13T11:11:25Z</time>
		</trkpt>
		<trkpt lat="53.9754905700684" lon="13.1359214782715">
			<ele>41.4000015258789</ele>
			<time>2014-04-13T11:11:26Z</time>
		</trkpt>
		<trkpt lat="53.9754676818848" lon="13.1358547210693">
			<ele>41.7999992370605</ele>
			<time>2014-04-13T11:11:27Z</time>
		</trkpt>
		<trkpt lat="53.9754447937012" lon="13.1357793807983">
			<ele>41.9000015258789</ele>
			<time>2014-04-13T11:11:28Z</time>
		</trkpt>
		<trkpt lat="53.9754180908203" lon="13.1357040405273">
			<ele>41.7000007629395</ele>
			<time>2014-04-13T11:11:29Z</time>
		</trkpt>
		<trkpt lat="53.9753913879395" lon="13.1356363296509">
			<ele>41</ele>
			<time>2014-04-13T11:11:30Z</time>
		</trkpt>
		<trkpt lat="53.9753723144531" lon="13.1355638504028">
			<ele>41.0999984741211</ele>
			<time>2014-04-13T11:11:31Z</time>
		</trkpt>
		<trkpt lat="53.9753456115723" lon="13.1354913711548">
			<ele>40.9000015258789</ele>
			<time>2014-04-13T11:11:32Z</time>
		</trkpt>
		<trkpt lat="53.9753227233887" lon="13.1354131698608">
			<ele>40.4000015258789</ele>
			<time>2014-04-13T11:11:33Z</time>
		</trkpt>
		<trkpt lat="53.9752998352051" lon="13.1353387832642">
			<ele>40.5</ele>
			<time>2014-04-13T11:11:34Z</time>
		</trkpt>
		<trkpt lat="53.9752731323242" lon="13.1352605819702">
			<ele>40.7000007629395</ele>
			<time>2014-04-13T11:11:35Z</time>
		</trkpt>
		<trkpt lat="53.9752464294434" lon="13.1351823806763">
			<ele>40.2000007629395</ele>
			<time>2014-04-13T11:11:36Z</time>
		</trkpt>
		<trkpt lat="53.9752235412598" lon="13.1351089477539">
			<ele>40.4000015258789</ele>
			<time>2014-04-13T11:11:37Z</time>
		</trkpt>
		<trkpt lat="53.9751968383789" lon="13.1350364685059">
			<ele>40.5999984741211</ele>
			<time>2014-04-13T11:11:38Z</time>
		</trkpt>
		<trkpt lat="53.9751739501953" lon="13.1349639892578">
			<ele>40.2000007629395</ele>
			<time>2014-04-13T11:11:39Z</time>
		</trkpt>
		<trkpt lat="53.9751510620117" lon="13.1348915100098">
			<ele>39.9000015258789</ele>
			<time>2014-04-13T11:11:40Z</time>
		</trkpt>
		<trkpt lat="53.9751243591309" lon="13.134819984436">
			<ele>39.7999992370605</ele>
			<time>2014-04-13T11:11:41Z</time>
		</trkpt>
		<trkpt lat="53.9751052856445" lon="13.1347427368164">
			<ele>39.5999984741211</ele>
			<time>2014-04-13T11:11:42Z</time>
		</trkpt>
		<trkpt lat="53.9750862121582" lon="13.1346740722656">
			<ele>39.2999992370605</ele>
			<time>2014-04-13T11:11:43Z</time>
		</trkpt>
		<trkpt lat="53.9750595092773" lon="13.1346015930176">
			<ele>38.7000007629395</ele>
			<time>2014-04-13T11:11:44Z</time>
		</trkpt>
		<trkpt lat="53.9750289916992" lon="13.1345367431641">
			<ele>39.5999984741211</ele>
			<time>2014-04-13T11:11:45Z</time>
		</trkpt>
		<trkpt lat="53.9749984741211" lon="13.1344604492188">
			<ele>39.7999992370605</ele>
			<time>2014-04-13T11:11:46Z</time>
		</trkpt>
		<trkpt lat="53.9749755859375" lon="13.1343879699707">
			<ele>40</ele>
			<time>2014-04-13T11:11:47Z</time>
		</trkpt>
		<trkpt lat="53.9749526977539" lon="13.1343183517456">
			<ele>39.7000007629395</ele>
			<time>2014-04-13T11:11:48Z</time>
		</trkpt>
		<trkpt lat="53.9749298095703" lon="13.1342487335205">
			<ele>39.9000015258789</ele>
			<time>2014-04-13T11:11:49Z</time>
		</trkpt>
		<trkpt lat="53.9748840332031" lon="13.1341190338135">
			<ele>39.5999984741211</ele>
			<time>2014-04-13T11:11:51Z</time>
		</trkpt>
		<trkpt lat="53.9748611450195" lon="13.1340446472168">
			<ele>39.2999992370605</ele>
			<time>2014-04-13T11:11:52Z</time>
		</trkpt>
		<trkpt lat="53.9748191833496" lon="13.1339120864868">
			<ele>39.4000015258789</ele>
			<time>2014-04-13T11:11:54Z</time>
		</trkpt>
		<trkpt lat="53.974796295166" lon="13.1338424682617">
			<ele>39.2999992370605</ele>
			<time>2014-04-13T11:11:55Z</time>
		</trkpt>
		<trkpt lat="53.9747619628906" lon="13.133716583252">
			<ele>39.7999992370605</ele>
			<time>2014-04-13T11:11:57Z</time>
		</trkpt>
		<trkpt lat="53.974739074707" lon="13.1336488723755">
			<ele>39.9000015258789</ele>
			<time>2014-04-13T11:11:58Z</time>
		</trkpt>
		<trkpt lat="53.9747009277344" lon="13.1335191726685">
			<ele>40</ele>
			<time>2014-04-13T11:12:00Z</time>
		</trkpt>
		<trkpt lat="53.9746780395508" lon="13.1334505081177">
			<ele>40.0999984741211</ele>
			<time>2014-04-13T11:12:01Z</time>
		</trkpt>
		<trkpt lat="53.9746551513672" lon="13.1333799362183">
			<ele>39.5999984741211</ele>
			<time>2014-04-13T11:12:02Z</time>
		</trkpt>
		<trkpt lat="53.974609375" lon="13.1332511901855">
			<ele>39.9000015258789</ele>
			<time>2014-04-13T11:12:04Z</time>
		</trkpt>
		<trkpt lat="53.9745864868164" lon="13.1331825256348">
			<ele>39.9000015258789</ele>
			<time>2014-04-13T11:12:05Z</time>
		</trkpt>
		<trkpt lat="53.9745635986328" lon="13.1331090927124">
			<ele>39.7000007629395</ele>
			<time>2014-04-13T11:12:06Z</time>
		</trkpt>
		<trkpt lat="53.9745292663574" lon="13.1329708099365">
			<ele>39.5</ele>
			<time>2014-04-13T11:12:08Z</time>
		</trkpt>
		<trkpt lat="53.9744834899902" lon="13.1328382492065">
			<ele>40</ele>
			<time>2014-04-13T11:12:10Z</time>
		</trkpt>
		<trkpt lat="53.9744415283203" lon="13.1327123641968">
			<ele>40.5</ele>
			<time>2014-04-13T11:12:12Z</time>
		</trkpt>
		<trkpt lat="53.9744186401367" lon="13.1326427459717">
			<ele>40.5</ele>
			<time>2014-04-13T11:12:13Z</time>
		</trkpt>
		<trkpt lat="53.9743995666504" lon="13.1325750350952">
			<ele>40.2000007629395</ele>
			<time>2014-04-13T11:12:14Z</time>
		</trkpt>
		<trkpt lat="53.9743766784668" lon="13.1325044631958">
			<ele>40</ele>
			<time>2014-04-13T11:12:15Z</time>
		</trkpt>
		<trkpt lat="53.9743499755859" lon="13.1324405670166">
			<ele>41.2999992370605</ele>
			<time>2014-04-13T11:12:16Z</time>
		</trkpt>
		<trkpt lat="53.9743232727051" lon="13.1323757171631">
			<ele>41.7000007629395</ele>
			<time>2014-04-13T11:12:17Z</time>
		</trkpt>
		<trkpt lat="53.9742965698242" lon="13.1323041915894">
			<ele>41.7999992370605</ele>
			<time>2014-04-13T11:12:18Z</time>
		</trkpt>
		<trkpt lat="53.9742813110352" lon="13.1322288513184">
			<ele>41.7000007629395</ele>
			<time>2014-04-13T11:12:19Z</time>
		</trkpt>
		<trkpt lat="53.9742469787598" lon="13.1321182250977">
			<ele>42.2000007629395</ele>
			<time>2014-04-13T11:12:21Z</time>
		</trkpt>
		<trkpt lat="53.9742088317871" lon="13.1319847106934">
			<ele>41.7999992370605</ele>
			<time>2014-04-13T11:12:23Z</time>
		</trkpt>
		<trkpt lat="53.9741706848145" lon="13.131856918335">
			<ele>41.7999992370605</ele>
			<time>2014-04-13T11:12:25Z</time>
		</trkpt>
		<trkpt lat="53.9741363525391" lon="13.1317329406738">
			<ele>42.0999984741211</ele>
			<time>2014-04-13T11:12:27Z</time>
		</trkpt>
		<trkpt lat="53.9740982055664" lon="13.1316118240356">
			<ele>42.0999984741211</ele>
			<time>2014-04-13T11:12:29Z</time>
		</trkpt>
		<trkpt lat="53.9740867614746" lon="13.1315336227417">
			<ele>42.2999992370605</ele>
			<time>2014-04-13T11:12:30Z</time>
		</trkpt>
		<trkpt lat="53.9740447998047" lon="13.1314163208008">
			<ele>42.5999984741211</ele>
			<time>2014-04-13T11:12:32Z</time>
		</trkpt>
		<trkpt lat="53.9740180969238" lon="13.13134765625">
			<ele>42.2000007629395</ele>
			<time>2014-04-13T11:12:33Z</time>
		</trkpt>
		<trkpt lat="53.973991394043" lon="13.1312265396118">
			<ele>41.2000007629395</ele>
			<time>2014-04-13T11:12:35Z</time>
		</trkpt>
		<trkpt lat="53.9739418029785" lon="13.1310882568359">
			<ele>42.5</ele>
			<time>2014-04-13T11:12:37Z</time>
		</trkpt>
		<trkpt lat="53.9739151000977" lon="13.1310205459595">
			<ele>42.4000015258789</ele>
			<time>2014-04-13T11:12:38Z</time>
		</trkpt>
		<trkpt lat="53.9738693237305" lon="13.1309003829956">
			<ele>42.5</ele>
			<time>2014-04-13T11:12:40Z</time>
		</trkpt>
		<trkpt lat="53.9738464355469" lon="13.1308250427246">
			<ele>42.5</ele>
			<time>2014-04-13T11:12:41Z</time>
		</trkpt>
		<trkpt lat="53.973819732666" lon="13.1307611465454">
			<ele>42.5</ele>
			<time>2014-04-13T11:12:42Z</time>
		</trkpt>
		<trkpt lat="53.9738006591797" lon="13.130687713623">
			<ele>42.7999992370605</ele>
			<time>2014-04-13T11:12:43Z</time>
		</trkpt>
		<trkpt lat="53.9737815856934" lon="13.1306161880493">
			<ele>42.9000015258789</ele>
			<time>2014-04-13T11:12:44Z</time>
		</trkpt>
		<trkpt lat="53.9737358093262" lon="13.130467414856">
			<ele>44.0999984741211</ele>
			<time>2014-04-13T11:12:46Z</time>
		</trkpt>
		<trkpt lat="53.9737091064453" lon="13.1303949356079">
			<ele>44.2999992370605</ele>
			<time>2014-04-13T11:12:47Z</time>
		</trkpt>
		<trkpt lat="53.9736862182617" lon="13.1303243637085">
			<ele>44.5999984741211</ele>
			<time>2014-04-13T11:12:48Z</time>
		</trkpt>
		<trkpt lat="53.9736595153809" lon="13.1302556991577">
			<ele>44.5</ele>
			<time>2014-04-13T11:12:49Z</time>
		</trkpt>
		<trkpt lat="53.9736289978027" lon="13.1301956176758">
			<ele>44.7000007629395</ele>
			<time>2014-04-13T11:12:50Z</time>
		</trkpt>
		<trkpt lat="53.9735717773438" lon="13.1300745010376">
			<ele>43.2000007629395</ele>
			<time>2014-04-13T11:12:52Z</time>
		</trkpt>
		<trkpt lat="53.9735374450684" lon="13.1300191879272">
			<ele>43.2999992370605</ele>
			<time>2014-04-13T11:12:53Z</time>
		</trkpt>
		<trkpt lat="53.9734954833984" lon="13.1299724578857">
			<ele>43</ele>
			<time>2014-04-13T11:12:54Z</time>
		</trkpt>
		<trkpt lat="53.9734497070313" lon="13.1299467086792">
			<ele>42.5999984741211</ele>
			<time>2014-04-13T11:12:55Z</time>
		</trkpt>
		<trkpt lat="53.9733963012695" lon="13.1299295425415">
			<ele>42.4000015258789</ele>
			<time>2014-04-13T11:12:56Z</time>
		</trkpt>
		<trkpt lat="53.9733467102051" lon="13.1299133300781">
			<ele>42.4000015258789</ele>
			<time>2014-04-13T11:12:57Z</time>
		</trkpt>
		<trkpt lat="53.9732933044434" lon="13.1298952102661">
			<ele>42.2000007629395</ele>
			<time>2014-04-13T11:12:58Z</time>
		</trkpt>
		<trkpt lat="53.9732360839844" lon="13.1298780441284">
			<ele>42.0999984741211</ele>
			<time>2014-04-13T11:12:59Z</time>
		</trkpt>
		<trkpt lat="53.9731788635254" lon="13.129861831665">
			<ele>41.9000015258789</ele>
			<time>2014-04-13T11:13:00Z</time>
		</trkpt>
		<trkpt lat="53.9731216430664" lon="13.1298494338989">
			<ele>41.5999984741211</ele>
			<time>2014-04-13T11:13:01Z</time>
		</trkpt>
		<trkpt lat="53.9730606079102" lon="13.1298389434814">
			<ele>41.4000015258789</ele>
			<time>2014-04-13T11:13:02Z</time>
		</trkpt>
		<trkpt lat="53.9729957580566" lon="13.1298198699951">
			<ele>40.9000015258789</ele>
			<time>2014-04-13T11:13:03Z</time>
		</trkpt>
		<trkpt lat="53.9729347229004" lon="13.1298027038574">
			<ele>40.5999984741211</ele>
			<time>2014-04-13T11:13:04Z</time>
		</trkpt>
		<trkpt lat="53.9728736877441" lon="13.1297836303711">
			<ele>40.5</ele>
			<time>2014-04-13T11:13:05Z</time>
		</trkpt>
		<trkpt lat="53.9728088378906" lon="13.1297702789307">
			<ele>40.5</ele>
			<time>2014-04-13T11:13:06Z</time>
		</trkpt>
		<trkpt lat="53.9727478027344" lon="13.1297540664673">
			<ele>40.4000015258789</ele>
			<time>2014-04-13T11:13:07Z</time>
		</trkpt>
		<trkpt lat="53.9726829528809" lon="13.1297369003296">
			<ele>40.2000007629395</ele>
			<time>2014-04-13T11:13:08Z</time>
		</trkpt>
		<trkpt lat="53.9726181030273" lon="13.1297273635864">
			<ele>40</ele>
			<time>2014-04-13T11:13:09Z</time>
		</trkpt>
		<trkpt lat="53.9725608825684" lon="13.1297245025635">
			<ele>39.7999992370605</ele>
			<time>2014-04-13T11:13:10Z</time>
		</trkpt>
		<trkpt lat="53.9725036621094" lon="13.1297092437744">
			<ele>39.7000007629395</ele>
			<time>2014-04-13T11:13:11Z</time>
		</trkpt>
		<trkpt lat="53.9724426269531" lon="13.1296939849854">
			<ele>39.7000007629395</ele>
			<time>2014-04-13T11:13:12Z</time>
		</trkpt>
		<trkpt lat="53.9723854064941" lon="13.1296873092651">
			<ele>39.9000015258789</ele>
			<time>2014-04-13T11:13:13Z</time>
		</trkpt>
		<trkpt lat="53.9723281860352" lon="13.129674911499">
			<ele>39.7999992370605</ele>
			<time>2014-04-13T11:13:14Z</time>
		</trkpt>
		<trkpt lat="53.9722747802734" lon="13.1296510696411">
			<ele>39.0999984741211</ele>
			<time>2014-04-13T11:13:15Z</time>
		</trkpt>
		<trkpt lat="53.9722175598145" lon="13.1296367645264">
			<ele>38.5999984741211</ele>
			<time>2014-04-13T11:13:16Z</time>
		</trkpt>
		<trkpt lat="53.9721641540527" lon="13.1296186447144">
			<ele>38.9000015258789</ele>
			<time>2014-04-13T11:13:17Z</time>
		</trkpt>
		<trkpt lat="53.9721031188965" lon="13.1296186447144">
			<ele>39</ele>
			<time>2014-04-13T11:13:18Z</time>
		</trkpt>
		<trkpt lat="53.9720458984375" lon="13.1296072006226">
			<ele>39.4000015258789</ele>
			<time>2014-04-13T11:13:19Z</time>
		</trkpt>
		<trkpt lat="53.9719924926758" lon="13.1295957565308">
			<ele>39.0999984741211</ele>
			<time>2014-04-13T11:13:20Z</time>
		</trkpt>
		<trkpt lat="53.9719390869141" lon="13.1295900344849">
			<ele>39.2999992370605</ele>
			<time>2014-04-13T11:13:21Z</time>
		</trkpt>
		<trkpt lat="53.9718856811523" lon="13.1295890808105">
			<ele>38.9000015258789</ele>
			<time>2014-04-13T11:13:22Z</time>
		</trkpt>
		<trkpt lat="53.9718399047852" lon="13.129584312439">
			<ele>38.9000015258789</ele>
			<time>2014-04-13T11:13:23Z</time>
		</trkpt>
		<trkpt lat="53.9717903137207" lon="13.1295804977417">
			<ele>38.7000007629395</ele>
			<time>2014-04-13T11:13:24Z</time>
		</trkpt>
		<trkpt lat="53.9717407226563" lon="13.1295776367188">
			<ele>38.9000015258789</ele>
			<time>2014-04-13T11:13:25Z</time>
		</trkpt>
		<trkpt lat="53.9716606140137" lon="13.1296033859253">
			<ele>39</ele>
			<time>2014-04-13T11:13:27Z</time>
		</trkpt>
		<trkpt lat="53.9715690612793" lon="13.1296195983887">
			<ele>39</ele>
			<time>2014-04-13T11:13:29Z</time>
		</trkpt>
		<trkpt lat="53.9714889526367" lon="13.1296319961548">
			<ele>39.0999984741211</ele>
			<time>2014-04-13T11:13:31Z</time>
		</trkpt>
		<trkpt lat="53.9714088439941" lon="13.1296482086182">
			<ele>39.5</ele>
			<time>2014-04-13T11:13:33Z</time>
		</trkpt>
		<trkpt lat="53.971321105957" lon="13.1296663284302">
			<ele>39.4000015258789</ele>
			<time>2014-04-13T11:13:35Z</time>
		</trkpt>
		<trkpt lat="53.9712409973145" lon="13.1296997070313">
			<ele>39.5</ele>
			<time>2014-04-13T11:13:37Z</time>
		</trkpt>
		<trkpt lat="53.9711608886719" lon="13.1297445297241">
			<ele>39.2999992370605</ele>
			<time>2014-04-13T11:13:39Z</time>
		</trkpt>
		<trkpt lat="53.971118927002" lon="13.1297693252563">
			<ele>39</ele>
			<time>2014-04-13T11:13:40Z</time>
		</trkpt>
		<trkpt lat="53.9710426330566" lon="13.1297559738159">
			<ele>38.5999984741211</ele>
			<time>2014-04-13T11:13:42Z</time>
		</trkpt>
		<trkpt lat="53.9709739685059" lon="13.1297454833984">
			<ele>40</ele>
			<time>2014-04-13T11:13:44Z</time>
		</trkpt>
		<trkpt lat="53.9709205627441" lon="13.1298198699951">
			<ele>40.2000007629395</ele>
			<time>2014-04-13T11:13:46Z</time>
		</trkpt>
		<trkpt lat="53.9708862304688" lon="13.1299505233765">
			<ele>40.9000015258789</ele>
			<time>2014-04-13T11:13:48Z</time>
		</trkpt>
		<trkpt lat="53.9708442687988" lon="13.1300716400146">
			<ele>41.5</ele>
			<time>2014-04-13T11:13:50Z</time>
		</trkpt>
		<trkpt lat="53.9708061218262" lon="13.1301870346069">
			<ele>40.7000007629395</ele>
			<time>2014-04-13T11:13:52Z</time>
		</trkpt>
		<trkpt lat="53.9707336425781" lon="13.1302719116211">
			<ele>39.9000015258789</ele>
			<time>2014-04-13T11:13:54Z</time>
		</trkpt>
		<trkpt lat="53.9706993103027" lon="13.1303396224976">
			<ele>41.0999984741211</ele>
			<time>2014-04-13T11:13:55Z</time>
		</trkpt>
		<trkpt lat="53.9706611633301" lon="13.1303834915161">
			<ele>41.2999992370605</ele>
			<time>2014-04-13T11:13:56Z</time>
		</trkpt>
		<trkpt lat="53.9705772399902" lon="13.1304569244385">
			<ele>41.7000007629395</ele>
			<time>2014-04-13T11:13:58Z</time>
		</trkpt>
		<trkpt lat="53.9705085754395" lon="13.1305322647095">
			<ele>41.5999984741211</ele>
			<time>2014-04-13T11:14:00Z</time>
		</trkpt>
		<trkpt lat="53.9704437255859" lon="13.1306056976318">
			<ele>40.7000007629395</ele>
			<time>2014-04-13T11:14:02Z</time>
		</trkpt>
		<trkpt lat="53.9703598022461" lon="13.130654335022">
			<ele>40.9000015258789</ele>
			<time>2014-04-13T11:14:04Z</time>
		</trkpt>
		<trkpt lat="53.9703140258789" lon="13.1306791305542">
			<ele>41.4000015258789</ele>
			<time>2014-04-13T11:14:05Z</time>
		</trkpt>
		<trkpt lat="53.9702339172363" lon="13.1307363510132">
			<ele>41.5</ele>
			<time>2014-04-13T11:14:07Z</time>
		</trkpt>
		<trkpt lat="53.9701614379883" lon="13.1307640075684">
			<ele>40.9000015258789</ele>
			<time>2014-04-13T11:14:09Z</time>
		</trkpt>
		<trkpt lat="53.9700889587402" lon="13.1308507919312">
			<ele>40.7000007629395</ele>
			<time>2014-04-13T11:14:11Z</time>
		</trkpt>
		<trkpt lat="53.9700202941895" lon="13.1309089660645">
			<ele>40.5</ele>
			<time>2014-04-13T11:14:13Z</time>
		</trkpt>
		<trkpt lat="53.9699668884277" lon="13.1309566497803">
			<ele>42.7999992370605</ele>
			<time>2014-04-13T11:14:14Z</time>
		</trkpt>
		<trkpt lat="53.9698867797852" lon="13.1310148239136">
			<ele>44</ele>
			<time>2014-04-13T11:14:16Z</time>
		</trkpt>
		<trkpt lat="53.9698066711426" lon="13.1310834884644">
			<ele>44.5999984741211</ele>
			<time>2014-04-13T11:14:18Z</time>
		</trkpt>
		<trkpt lat="53.9697608947754" lon="13.1311044692993">
			<ele>44.4000015258789</ele>
			<time>2014-04-13T11:14:19Z</time>
		</trkpt>
		<trkpt lat="53.9696769714355" lon="13.1311464309692">
			<ele>44.4000015258789</ele>
			<time>2014-04-13T11:14:21Z</time>
		</trkpt>
		<trkpt lat="53.9695625305176" lon="13.1312580108643">
			<ele>44.5999984741211</ele>
			<time>2014-04-13T11:14:24Z</time>
		</trkpt>
		<trkpt lat="53.9694900512695" lon="13.1313409805298">
			<ele>44.5999984741211</ele>
			<time>2014-04-13T11:14:26Z</time>
		</trkpt>
		<trkpt lat="53.9694480895996" lon="13.1313714981079">
			<ele>44.5999984741211</ele>
			<time>2014-04-13T11:14:27Z</time>
		</trkpt>
		<trkpt lat="53.9693603515625" lon="13.1314296722412">
			<ele>43.5</ele>
			<time>2014-04-13T11:14:29Z</time>
		</trkpt>
		<trkpt lat="53.9692687988281" lon="13.1314945220947">
			<ele>41.7000007629395</ele>
			<time>2014-04-13T11:14:31Z</time>
		</trkpt>
		<trkpt lat="53.9692153930664" lon="13.1315288543701">
			<ele>41.2999992370605</ele>
			<time>2014-04-13T11:14:32Z</time>
		</trkpt>
		<trkpt lat="53.969165802002" lon="13.1315574645996">
			<ele>41.5</ele>
			<time>2014-04-13T11:14:33Z</time>
		</trkpt>
		<trkpt lat="53.9691162109375" lon="13.1316356658936">
			<ele>42.0999984741211</ele>
			<time>2014-04-13T11:14:34Z</time>
		</trkpt>
		<trkpt lat="53.9690628051758" lon="13.131649017334">
			<ele>41.5</ele>
			<time>2014-04-13T11:14:35Z</time>
		</trkpt>
		<trkpt lat="53.9690132141113" lon="13.1316823959351">
			<ele>41.5999984741211</ele>
			<time>2014-04-13T11:14:36Z</time>
		</trkpt>
		<trkpt lat="53.9689636230469" lon="13.1317205429077">
			<ele>41</ele>
			<time>2014-04-13T11:14:37Z</time>
		</trkpt>
		<trkpt lat="53.9689140319824" lon="13.1317672729492">
			<ele>40.4000015258789</ele>
			<time>2014-04-13T11:14:38Z</time>
		</trkpt>
		<trkpt lat="53.9688682556152" lon="13.1318292617798">
			<ele>40.2000007629395</ele>
			<time>2014-04-13T11:14:39Z</time>
		</trkpt>
		<trkpt lat="53.968822479248" lon="13.1318826675415">
			<ele>40.2000007629395</ele>
			<time>2014-04-13T11:14:40Z</time>
		</trkpt>
		<trkpt lat="53.9687805175781" lon="13.1319351196289">
			<ele>40.0999984741211</ele>
			<time>2014-04-13T11:14:41Z</time>
		</trkpt>
		<trkpt lat="53.9687385559082" lon="13.1319847106934">
			<ele>40.5</ele>
			<time>2014-04-13T11:14:42Z</time>
		</trkpt>
		<trkpt lat="53.9686965942383" lon="13.1320362091064">
			<ele>40.9000015258789</ele>
			<time>2014-04-13T11:14:43Z</time>
		</trkpt>
		<trkpt lat="53.9686546325684" lon="13.1320858001709">
			<ele>40.5999984741211</ele>
			<time>2014-04-13T11:14:44Z</time>
		</trkpt>
		<trkpt lat="53.968620300293" lon="13.1321325302124">
			<ele>40.7999992370605</ele>
			<time>2014-04-13T11:14:45Z</time>
		</trkpt>
		<trkpt lat="53.968578338623" lon="13.1321792602539">
			<ele>40.5999984741211</ele>
			<time>2014-04-13T11:14:46Z</time>
		</trkpt>
		<trkpt lat="53.9685325622559" lon="13.1322250366211">
			<ele>40.5</ele>
			<time>2014-04-13T11:14:47Z</time>
		</trkpt>
		<trkpt lat="53.9684906005859" lon="13.1322717666626">
			<ele>41</ele>
			<time>2014-04-13T11:14:48Z</time>
		</trkpt>
		<trkpt lat="53.9684448242188" lon="13.1323280334473">
			<ele>40.5999984741211</ele>
			<time>2014-04-13T11:14:49Z</time>
		</trkpt>
		<trkpt lat="53.9684066772461" lon="13.132378578186">
			<ele>40.7999992370605</ele>
			<time>2014-04-13T11:14:50Z</time>
		</trkpt>
		<trkpt lat="53.9683723449707" lon="13.1324262619019">
			<ele>41.0999984741211</ele>
			<time>2014-04-13T11:14:51Z</time>
		</trkpt>
		<trkpt lat="53.9683303833008" lon="13.1324691772461">
			<ele>41</ele>
			<time>2014-04-13T11:14:52Z</time>
		</trkpt>
		<trkpt lat="53.9682884216309" lon="13.1325130462646">
			<ele>40.5</ele>
			<time>2014-04-13T11:14:53Z</time>
		</trkpt>
		<trkpt lat="53.968204498291" lon="13.132568359375">
			<ele>39.4000015258789</ele>
			<time>2014-04-13T11:14:55Z</time>
		</trkpt>
		<trkpt lat="53.9681167602539" lon="13.1325569152832">
			<ele>39</ele>
			<time>2014-04-13T11:14:57Z</time>
		</trkpt>
		<trkpt lat="53.9680671691895" lon="13.1325416564941">
			<ele>39.2000007629395</ele>
			<time>2014-04-13T11:14:58Z</time>
		</trkpt>
		<trkpt lat="53.9680137634277" lon="13.1325273513794">
			<ele>39.2000007629395</ele>
			<time>2014-04-13T11:14:59Z</time>
		</trkpt>
		<trkpt lat="53.9679641723633" lon="13.1325149536133">
			<ele>39.2000007629395</ele>
			<time>2014-04-13T11:15:01Z</time>
		</trkpt>
		<trkpt lat="53.9678688049316" lon="13.1324758529663">
			<ele>39.0999984741211</ele>
			<time>2014-04-13T11:15:02Z</time>
		</trkpt>
		<trkpt lat="53.9678153991699" lon="13.1324729919434">
			<ele>38.5999984741211</ele>
			<time>2014-04-13T11:15:03Z</time>
		</trkpt>
		<trkpt lat="53.9677619934082" lon="13.1324710845947">
			<ele>38.2999992370605</ele>
			<time>2014-04-13T11:15:04Z</time>
		</trkpt>
		<trkpt lat="53.9677085876465" lon="13.1324729919434">
			<ele>38.2999992370605</ele>
			<time>2014-04-13T11:15:05Z</time>
		</trkpt>
		<trkpt lat="53.9676513671875" lon="13.1324739456177">
			<ele>38.0999984741211</ele>
			<time>2014-04-13T11:15:06Z</time>
		</trkpt>
		<trkpt lat="53.9675903320313" lon="13.1324787139893">
			<ele>37.7999992370605</ele>
			<time>2014-04-13T11:15:07Z</time>
		</trkpt>
		<trkpt lat="53.9675331115723" lon="13.1324634552002">
			<ele>37.2999992370605</ele>
			<time>2014-04-13T11:15:08Z</time>
		</trkpt>
		<trkpt lat="53.9674797058105" lon="13.1324577331543">
			<ele>36.9000015258789</ele>
			<time>2014-04-13T11:15:09Z</time>
		</trkpt>
		<trkpt lat="53.9674263000488" lon="13.1324577331543">
			<ele>36.9000015258789</ele>
			<time>2014-04-13T11:15:10Z</time>
		</trkpt>
		<trkpt lat="53.9673728942871" lon="13.1324605941772">
			<ele>37</ele>
			<time>2014-04-13T11:15:11Z</time>
		</trkpt>
		<trkpt lat="53.9673194885254" lon="13.132474899292">
			<ele>36.9000015258789</ele>
			<time>2014-04-13T11:15:12Z</time>
		</trkpt>
		<trkpt lat="53.9672622680664" lon="13.1324825286865">
			<ele>37.0999984741211</ele>
			<time>2014-04-13T11:15:13Z</time>
		</trkpt>
		<trkpt lat="53.967212677002" lon="13.1325073242188">
			<ele>37.2000007629395</ele>
			<time>2014-04-13T11:15:14Z</time>
		</trkpt>
		<trkpt lat="53.9671630859375" lon="13.1325283050537">
			<ele>37.5</ele>
			<time>2014-04-13T11:15:15Z</time>
		</trkpt>
		<trkpt lat="53.9671058654785" lon="13.132529258728">
			<ele>37.4000015258789</ele>
			<time>2014-04-13T11:15:16Z</time>
		</trkpt>
		<trkpt lat="53.9670524597168" lon="13.1325349807739">
			<ele>37.0999984741211</ele>
			<time>2014-04-13T11:15:17Z</time>
		</trkpt>
		<trkpt lat="53.9670028686523" lon="13.1325397491455">
			<ele>37</ele>
			<time>2014-04-13T11:15:18Z</time>
		</trkpt>
		<trkpt lat="53.9669494628906" lon="13.1325387954712">
			<ele>37.0999984741211</ele>
			<time>2014-04-13T11:15:19Z</time>
		</trkpt>
		<trkpt lat="53.9669036865234" lon="13.13254737854">
			<ele>37</ele>
			<time>2014-04-13T11:15:20Z</time>
		</trkpt>
		<trkpt lat="53.9668502807617" lon="13.1325483322144">
			<ele>37.0999984741211</ele>
			<time>2014-04-13T11:15:21Z</time>
		</trkpt>
		<trkpt lat="53.9668006896973" lon="13.1325445175171">
			<ele>37.0999984741211</ele>
			<time>2014-04-13T11:15:22Z</time>
		</trkpt>
		<trkpt lat="53.9667510986328" lon="13.13254737854">
			<ele>37</ele>
			<time>2014-04-13T11:15:23Z</time>
		</trkpt>
		<trkpt lat="53.9667015075684" lon="13.1325492858887">
			<ele>37</ele>
			<time>2014-04-13T11:15:24Z</time>
		</trkpt>
		<trkpt lat="53.9666519165039" lon="13.13254737854">
			<ele>37.0999984741211</ele>
			<time>2014-04-13T11:15:25Z</time>
		</trkpt>
		<trkpt lat="53.9665641784668" lon="13.1325397491455">
			<ele>37.2000007629395</ele>
			<time>2014-04-13T11:15:27Z</time>
		</trkpt>
		<trkpt lat="53.9664688110352" lon="13.1325435638428">
			<ele>37.2999992370605</ele>
			<time>2014-04-13T11:15:29Z</time>
		</trkpt>
		<trkpt lat="53.9664192199707" lon="13.1325407028198">
			<ele>37</ele>
			<time>2014-04-13T11:15:30Z</time>
		</trkpt>
		<trkpt lat="53.9663734436035" lon="13.1325387954712">
			<ele>36.7000007629395</ele>
			<time>2014-04-13T11:15:31Z</time>
		</trkpt>
		<trkpt lat="53.9663238525391" lon="13.1325273513794">
			<ele>36.5</ele>
			<time>2014-04-13T11:15:32Z</time>
		</trkpt>
		<trkpt lat="53.9662780761719" lon="13.1325206756592">
			<ele>36.5999984741211</ele>
			<time>2014-04-13T11:15:33Z</time>
		</trkpt>
		<trkpt lat="53.9662322998047" lon="13.132513999939">
			<ele>36.2000007629395</ele>
			<time>2014-04-13T11:15:34Z</time>
		</trkpt>
		<trkpt lat="53.9661827087402" lon="13.1325044631958">
			<ele>36.2999992370605</ele>
			<time>2014-04-13T11:15:35Z</time>
		</trkpt>
		<trkpt lat="53.9661331176758" lon="13.132495880127">
			<ele>36.5</ele>
			<time>2014-04-13T11:15:36Z</time>
		</trkpt>
		<trkpt lat="53.9660873413086" lon="13.1324882507324">
			<ele>36.5999984741211</ele>
			<time>2014-04-13T11:15:37Z</time>
		</trkpt>
		<trkpt lat="53.9660377502441" lon="13.1324777603149">
			<ele>36.2999992370605</ele>
			<time>2014-04-13T11:15:38Z</time>
		</trkpt>
		<trkpt lat="53.9659881591797" lon="13.1324672698975">
			<ele>36</ele>
			<time>2014-04-13T11:15:39Z</time>
		</trkpt>
		<trkpt lat="53.9659423828125" lon="13.1324443817139">
			<ele>36.4000015258789</ele>
			<time>2014-04-13T11:15:40Z</time>
		</trkpt>
		<trkpt lat="53.965892791748" lon="13.1324300765991">
			<ele>36.5</ele>
			<time>2014-04-13T11:15:41Z</time>
		</trkpt>
		<trkpt lat="53.9658470153809" lon="13.1324138641357">
			<ele>36.2999992370605</ele>
			<time>2014-04-13T11:15:42Z</time>
		</trkpt>
		<trkpt lat="53.9657974243164" lon="13.1324024200439">
			<ele>36.0999984741211</ele>
			<time>2014-04-13T11:15:43Z</time>
		</trkpt>
		<trkpt lat="53.9657516479492" lon="13.1323871612549">
			<ele>36.2999992370605</ele>
			<time>2014-04-13T11:15:44Z</time>
		</trkpt>
		<trkpt lat="53.9657020568848" lon="13.1323690414429">
			<ele>36</ele>
			<time>2014-04-13T11:15:45Z</time>
		</trkpt>
		<trkpt lat="53.9656562805176" lon="13.1323537826538">
			<ele>35.9000015258789</ele>
			<time>2014-04-13T11:15:46Z</time>
		</trkpt>
		<trkpt lat="53.9656066894531" lon="13.1323375701904">
			<ele>36.2000007629395</ele>
			<time>2014-04-13T11:15:47Z</time>
		</trkpt>
		<trkpt lat="53.9655609130859" lon="13.1323184967041">
			<ele>36.2999992370605</ele>
			<time>2014-04-13T11:15:48Z</time>
		</trkpt>
		<trkpt lat="53.9655113220215" lon="13.1322984695435">
			<ele>36.2999992370605</ele>
			<time>2014-04-13T11:15:49Z</time>
		</trkpt>
		<trkpt lat="53.965461730957" lon="13.1322803497314">
			<ele>36.4000015258789</ele>
			<time>2014-04-13T11:15:50Z</time>
		</trkpt>
		<trkpt lat="53.9654121398926" lon="13.1322679519653">
			<ele>36.4000015258789</ele>
			<time>2014-04-13T11:15:51Z</time>
		</trkpt>
		<trkpt lat="53.9653663635254" lon="13.1322507858276">
			<ele>36.4000015258789</ele>
			<time>2014-04-13T11:15:52Z</time>
		</trkpt>
		<trkpt lat="53.9653205871582" lon="13.1322355270386">
			<ele>36.5</ele>
			<time>2014-04-13T11:15:53Z</time>
		</trkpt>
		<trkpt lat="53.9652709960938" lon="13.1322164535522">
			<ele>36.2999992370605</ele>
			<time>2014-04-13T11:15:54Z</time>
		</trkpt>
		<trkpt lat="53.9652252197266" lon="13.1322002410889">
			<ele>36.5</ele>
			<time>2014-04-13T11:15:55Z</time>
		</trkpt>
		<trkpt lat="53.9651756286621" lon="13.1321849822998">
			<ele>36.5</ele>
			<time>2014-04-13T11:15:56Z</time>
		</trkpt>
		<trkpt lat="53.9650840759277" lon="13.132152557373">
			<ele>36.7000007629395</ele>
			<time>2014-04-13T11:15:58Z</time>
		</trkpt>
		<trkpt lat="53.9649963378906" lon="13.132137298584">
			<ele>36.2999992370605</ele>
			<time>2014-04-13T11:16:00Z</time>
		</trkpt>
		<trkpt lat="53.9649505615234" lon="13.1321220397949">
			<ele>36.5</ele>
			<time>2014-04-13T11:16:01Z</time>
		</trkpt>
		<trkpt lat="53.9649047851563" lon="13.132116317749">
			<ele>36.5</ele>
			<time>2014-04-13T11:16:02Z</time>
		</trkpt>
		<trkpt lat="53.9648170471191" lon="13.1320915222168">
			<ele>37</ele>
			<time>2014-04-13T11:16:04Z</time>
		</trkpt>
		<trkpt lat="53.964771270752" lon="13.1320867538452">
			<ele>37</ele>
			<time>2014-04-13T11:16:05Z</time>
		</trkpt>
		<trkpt lat="53.9647254943848" lon="13.1320772171021">
			<ele>37</ele>
			<time>2014-04-13T11:16:06Z</time>
		</trkpt>
		<trkpt lat="53.9646835327148" lon="13.1320657730103">
			<ele>37.0999984741211</ele>
			<time>2014-04-13T11:16:07Z</time>
		</trkpt>
		<trkpt lat="53.9646377563477" lon="13.1320610046387">
			<ele>37</ele>
			<time>2014-04-13T11:16:08Z</time>
		</trkpt>
		<trkpt lat="53.9645462036133" lon="13.1320447921753">
			<ele>37.4000015258789</ele>
			<time>2014-04-13T11:16:10Z</time>
		</trkpt>
		<trkpt lat="53.9645004272461" lon="13.1320362091064">
			<ele>37.5999984741211</ele>
			<time>2014-04-13T11:16:11Z</time>
		</trkpt>
		<trkpt lat="53.9644546508789" lon="13.1320333480835">
			<ele>37.5</ele>
			<time>2014-04-13T11:16:12Z</time>
		</trkpt>
		<trkpt lat="53.9644088745117" lon="13.1320276260376">
			<ele>37.7000007629395</ele>
			<time>2014-04-13T11:16:13Z</time>
		</trkpt>
		<trkpt lat="53.9643630981445" lon="13.1320190429688">
			<ele>37.7999992370605</ele>
			<time>2014-04-13T11:16:14Z</time>
		</trkpt>
		<trkpt lat="53.9642715454102" lon="13.1320104598999">
			<ele>37.9000015258789</ele>
			<time>2014-04-13T11:16:16Z</time>
		</trkpt>
		<trkpt lat="53.964225769043" lon="13.1320037841797">
			<ele>37.9000015258789</ele>
			<time>2014-04-13T11:16:17Z</time>
		</trkpt>
		<trkpt lat="53.9641418457031" lon="13.1320018768311">
			<ele>37.5999984741211</ele>
			<time>2014-04-13T11:16:19Z</time>
		</trkpt>
		<trkpt lat="53.9640960693359" lon="13.1319980621338">
			<ele>37.7000007629395</ele>
			<time>2014-04-13T11:16:20Z</time>
		</trkpt>
		<trkpt lat="53.9640121459961" lon="13.1319971084595">
			<ele>37.5999984741211</ele>
			<time>2014-04-13T11:16:22Z</time>
		</trkpt>
		<trkpt lat="53.9639282226563" lon="13.1319999694824">
			<ele>37.5999984741211</ele>
			<time>2014-04-13T11:16:24Z</time>
		</trkpt>
		<trkpt lat="53.9638824462891" lon="13.1319971084595">
			<ele>37.5</ele>
			<time>2014-04-13T11:16:25Z</time>
		</trkpt>
		<trkpt lat="53.963794708252" lon="13.1319952011108">
			<ele>37.5</ele>
			<time>2014-04-13T11:16:27Z</time>
		</trkpt>
		<trkpt lat="53.9637489318848" lon="13.1319923400879">
			<ele>37.4000015258789</ele>
			<time>2014-04-13T11:16:28Z</time>
		</trkpt>
		<trkpt lat="53.9636650085449" lon="13.1319923400879">
			<ele>37.2000007629395</ele>
			<time>2014-04-13T11:16:30Z</time>
		</trkpt>
		<trkpt lat="53.9635772705078" lon="13.1319961547852">
			<ele>37.0999984741211</ele>
			<time>2014-04-13T11:16:32Z</time>
		</trkpt>
		<trkpt lat="53.9635314941406" lon="13.1319942474365">
			<ele>37.0999984741211</ele>
			<time>2014-04-13T11:16:33Z</time>
		</trkpt>
		<trkpt lat="53.9634895324707" lon="13.1319942474365">
			<ele>37.2000007629395</ele>
			<time>2014-04-13T11:16:34Z</time>
		</trkpt>
		<trkpt lat="53.9633979797363" lon="13.1319923400879">
			<ele>37.2000007629395</ele>
			<time>2014-04-13T11:16:36Z</time>
		</trkpt>
		<trkpt lat="53.9633102416992" lon="13.1319894790649">
			<ele>37.0999984741211</ele>
			<time>2014-04-13T11:16:38Z</time>
		</trkpt>
		<trkpt lat="53.963264465332" lon="13.1319875717163">
			<ele>37.0999984741211</ele>
			<time>2014-04-13T11:16:39Z</time>
		</trkpt>
		<trkpt lat="53.9632186889648" lon="13.1319875717163">
			<ele>37.2000007629395</ele>
			<time>2014-04-13T11:16:40Z</time>
		</trkpt>
		<trkpt lat="53.9631729125977" lon="13.1319856643677">
			<ele>37.0999984741211</ele>
			<time>2014-04-13T11:16:41Z</time>
		</trkpt>
		<trkpt lat="53.9630813598633" lon="13.1319894790649">
			<ele>36.7999992370605</ele>
			<time>2014-04-13T11:16:43Z</time>
		</trkpt>
		<trkpt lat="53.9629936218262" lon="13.1319856643677">
			<ele>36.4000015258789</ele>
			<time>2014-04-13T11:16:45Z</time>
		</trkpt>
		<trkpt lat="53.9629058837891" lon="13.1319894790649">
			<ele>36.2000007629395</ele>
			<time>2014-04-13T11:16:47Z</time>
		</trkpt>
		<trkpt lat="53.9628601074219" lon="13.1319875717163">
			<ele>36.2000007629395</ele>
			<time>2014-04-13T11:16:48Z</time>
		</trkpt>
		<trkpt lat="53.9628143310547" lon="13.1319828033447">
			<ele>36</ele>
			<time>2014-04-13T11:16:49Z</time>
		</trkpt>
		<trkpt lat="53.9627265930176" lon="13.1319847106934">
			<ele>36.0999984741211</ele>
			<time>2014-04-13T11:16:51Z</time>
		</trkpt>
		<trkpt lat="53.9626770019531" lon="13.131986618042">
			<ele>36.0999984741211</ele>
			<time>2014-04-13T11:16:52Z</time>
		</trkpt>
		<trkpt lat="53.9625854492188" lon="13.1319894790649">
			<ele>36.0999984741211</ele>
			<time>2014-04-13T11:16:54Z</time>
		</trkpt>
		<trkpt lat="53.9624977111816" lon="13.1319894790649">
			<ele>36</ele>
			<time>2014-04-13T11:16:56Z</time>
		</trkpt>
		<trkpt lat="53.9624061584473" lon="13.1319894790649">
			<ele>36</ele>
			<time>2014-04-13T11:16:58Z</time>
		</trkpt>
		<trkpt lat="53.9623603820801" lon="13.1319894790649">
			<ele>36</ele>
			<time>2014-04-13T11:16:59Z</time>
		</trkpt>
		<trkpt lat="53.9623146057129" lon="13.1319885253906">
			<ele>36</ele>
			<time>2014-04-13T11:17:00Z</time>
		</trkpt>
		<trkpt lat="53.9622688293457" lon="13.1319894790649">
			<ele>36.0999984741211</ele>
			<time>2014-04-13T11:17:01Z</time>
		</trkpt>
		<trkpt lat="53.9622230529785" lon="13.1319847106934">
			<ele>36.2999992370605</ele>
			<time>2014-04-13T11:17:02Z</time>
		</trkpt>
		<trkpt lat="53.9621772766113" lon="13.131986618042">
			<ele>36.5</ele>
			<time>2014-04-13T11:17:05Z</time>
		</trkpt>
		<trkpt lat="53.9620361328125" lon="13.1319875717163">
			<ele>36.5</ele>
			<time>2014-04-13T11:17:06Z</time>
		</trkpt>
		<trkpt lat="53.9619903564453" lon="13.1319808959961">
			<ele>36.5999984741211</ele>
			<time>2014-04-13T11:17:07Z</time>
		</trkpt>
		<trkpt lat="53.9619445800781" lon="13.1319770812988">
			<ele>36.5999984741211</ele>
			<time>2014-04-13T11:17:08Z</time>
		</trkpt>
		<trkpt lat="53.9618988037109" lon="13.1319780349731">
			<ele>36.7000007629395</ele>
			<time>2014-04-13T11:17:09Z</time>
		</trkpt>
		<trkpt lat="53.9618072509766" lon="13.1319742202759">
			<ele>36.5999984741211</ele>
			<time>2014-04-13T11:17:11Z</time>
		</trkpt>
		<trkpt lat="53.9617614746094" lon="13.1319761276245">
			<ele>36.7999992370605</ele>
			<time>2014-04-13T11:17:12Z</time>
		</trkpt>
		<trkpt lat="53.9617156982422" lon="13.1319704055786">
			<ele>36.7999992370605</ele>
			<time>2014-04-13T11:17:13Z</time>
		</trkpt>
		<trkpt lat="53.961669921875" lon="13.1319637298584">
			<ele>36.5999984741211</ele>
			<time>2014-04-13T11:17:14Z</time>
		</trkpt>
		<trkpt lat="53.9616241455078" lon="13.1319637298584">
			<ele>36.7000007629395</ele>
			<time>2014-04-13T11:17:15Z</time>
		</trkpt>
		<trkpt lat="53.9615745544434" lon="13.1319627761841">
			<ele>36.5999984741211</ele>
			<time>2014-04-13T11:17:16Z</time>
		</trkpt>
		<trkpt lat="53.9615287780762" lon="13.1319608688354">
			<ele>36.4000015258789</ele>
			<time>2014-04-13T11:17:17Z</time>
		</trkpt>
		<trkpt lat="53.9614791870117" lon="13.1319608688354">
			<ele>36.4000015258789</ele>
			<time>2014-04-13T11:17:18Z</time>
		</trkpt>
		<trkpt lat="53.9614295959473" lon="13.1319618225098">
			<ele>36.5</ele>
			<time>2014-04-13T11:17:19Z</time>
		</trkpt>
		<trkpt lat="53.9613838195801" lon="13.1319599151611">
			<ele>36.7000007629395</ele>
			<time>2014-04-13T11:17:20Z</time>
		</trkpt>
		<trkpt lat="53.9613342285156" lon="13.1319608688354">
			<ele>36.7999992370605</ele>
			<time>2014-04-13T11:17:21Z</time>
		</trkpt>
		<trkpt lat="53.9612884521484" lon="13.1319570541382">
			<ele>36.7000007629395</ele>
			<time>2014-04-13T11:17:22Z</time>
		</trkpt>
		<trkpt lat="53.9612426757813" lon="13.1319541931152">
			<ele>36.5999984741211</ele>
			<time>2014-04-13T11:17:23Z</time>
		</trkpt>
		<trkpt lat="53.9611930847168" lon="13.1319522857666">
			<ele>36.7999992370605</ele>
			<time>2014-04-13T11:17:24Z</time>
		</trkpt>
		<trkpt lat="53.9611473083496" lon="13.1319541931152">
			<ele>36.7000007629395</ele>
			<time>2014-04-13T11:17:25Z</time>
		</trkpt>
		<trkpt lat="53.9611015319824" lon="13.1319532394409">
			<ele>36.7000007629395</ele>
			<time>2014-04-13T11:17:26Z</time>
		</trkpt>
		<trkpt lat="53.9610557556152" lon="13.1319456100464">
			<ele>36.5</ele>
			<time>2014-04-13T11:17:27Z</time>
		</trkpt>
		<trkpt lat="53.9610061645508" lon="13.1319484710693">
			<ele>36.5999984741211</ele>
			<time>2014-04-13T11:17:28Z</time>
		</trkpt>
		<trkpt lat="53.9609565734863" lon="13.1319522857666">
			<ele>36.5999984741211</ele>
			<time>2014-04-13T11:17:29Z</time>
		</trkpt>
		<trkpt lat="53.9609069824219" lon="13.1319541931152">
			<ele>36.7999992370605</ele>
			<time>2014-04-13T11:17:30Z</time>
		</trkpt>
		<trkpt lat="53.9608573913574" lon="13.1319608688354">
			<ele>36.7999992370605</ele>
			<time>2014-04-13T11:17:31Z</time>
		</trkpt>
		<trkpt lat="53.960807800293" lon="13.1319675445557">
			<ele>36.7999992370605</ele>
			<time>2014-04-13T11:17:32Z</time>
		</trkpt>
		<trkpt lat="53.9607620239258" lon="13.1319799423218">
			<ele>36.9000015258789</ele>
			<time>2014-04-13T11:17:33Z</time>
		</trkpt>
		<trkpt lat="53.9607124328613" lon="13.1319923400879">
			<ele>36.7999992370605</ele>
			<time>2014-04-13T11:17:34Z</time>
		</trkpt>
		<trkpt lat="53.9606628417969" lon="13.1320056915283">
			<ele>36.7999992370605</ele>
			<time>2014-04-13T11:17:35Z</time>
		</trkpt>
		<trkpt lat="53.9606132507324" lon="13.1320171356201">
			<ele>36.7000007629395</ele>
			<time>2014-04-13T11:17:36Z</time>
		</trkpt>
		<trkpt lat="53.9605674743652" lon="13.1320352554321">
			<ele>36.7000007629395</ele>
			<time>2014-04-13T11:17:37Z</time>
		</trkpt>
		<trkpt lat="53.9605178833008" lon="13.1320571899414">
			<ele>36.7999992370605</ele>
			<time>2014-04-13T11:17:38Z</time>
		</trkpt>
		<trkpt lat="53.9604721069336" lon="13.1320772171021">
			<ele>36.9000015258789</ele>
			<time>2014-04-13T11:17:39Z</time>
		</trkpt>
		<trkpt lat="53.9604263305664" lon="13.1320991516113">
			<ele>36.7999992370605</ele>
			<time>2014-04-13T11:17:40Z</time>
		</trkpt>
		<trkpt lat="53.9603805541992" lon="13.1321287155151">
			<ele>36.7999992370605</ele>
			<time>2014-04-13T11:17:41Z</time>
		</trkpt>
		<trkpt lat="53.9603309631348" lon="13.132152557373">
			<ele>36.7999992370605</ele>
			<time>2014-04-13T11:17:42Z</time>
		</trkpt>
		<trkpt lat="53.9602890014648" lon="13.1321811676025">
			<ele>36.9000015258789</ele>
			<time>2014-04-13T11:17:43Z</time>
		</trkpt>
		<trkpt lat="53.9602470397949" lon="13.1322145462036">
			<ele>37.0999984741211</ele>
			<time>2014-04-13T11:17:44Z</time>
		</trkpt>
		<trkpt lat="53.9602012634277" lon="13.1322441101074">
			<ele>37.4000015258789</ele>
			<time>2014-04-13T11:17:45Z</time>
		</trkpt>
		<trkpt lat="53.9601554870605" lon="13.1322784423828">
			<ele>37.5</ele>
			<time>2014-04-13T11:17:46Z</time>
		</trkpt>
		<trkpt lat="53.9601135253906" lon="13.1323099136353">
			<ele>37.7000007629395</ele>
			<time>2014-04-13T11:17:47Z</time>
		</trkpt>
		<trkpt lat="53.960033416748" lon="13.1323747634888">
			<ele>37.9000015258789</ele>
			<time>2014-04-13T11:17:49Z</time>
		</trkpt>
		<trkpt lat="53.9599914550781" lon="13.1324071884155">
			<ele>38.0999984741211</ele>
			<time>2014-04-13T11:17:50Z</time>
		</trkpt>
		<trkpt lat="53.9599151611328" lon="13.1324558258057">
			<ele>38.4000015258789</ele>
			<time>2014-04-13T11:17:52Z</time>
		</trkpt>
		<trkpt lat="53.9598388671875" lon="13.1325120925903">
			<ele>38.7000007629395</ele>
			<time>2014-04-13T11:17:54Z</time>
		</trkpt>
		<trkpt lat="53.9597663879395" lon="13.1325645446777">
			<ele>39</ele>
			<time>2014-04-13T11:17:56Z</time>
		</trkpt>
		<trkpt lat="53.9596939086914" lon="13.1326208114624">
			<ele>39.2000007629395</ele>
			<time>2014-04-13T11:17:58Z</time>
		</trkpt>
		<trkpt lat="53.9596252441406" lon="13.1326770782471">
			<ele>39.2999992370605</ele>
			<time>2014-04-13T11:18:00Z</time>
		</trkpt>
		<trkpt lat="53.9595527648926" lon="13.1327352523804">
			<ele>39.4000015258789</ele>
			<time>2014-04-13T11:18:02Z</time>
		</trkpt>
		<trkpt lat="53.9594841003418" lon="13.1328020095825">
			<ele>39.5</ele>
			<time>2014-04-13T11:18:04Z</time>
		</trkpt>
		<trkpt lat="53.959415435791" lon="13.1328744888306">
			<ele>40.0999984741211</ele>
			<time>2014-04-13T11:18:06Z</time>
		</trkpt>
		<trkpt lat="53.9593467712402" lon="13.1329517364502">
			<ele>40.2000007629395</ele>
			<time>2014-04-13T11:18:08Z</time>
		</trkpt>
		<trkpt lat="53.9592781066895" lon="13.1330318450928">
			<ele>40.5</ele>
			<time>2014-04-13T11:18:10Z</time>
		</trkpt>
		<trkpt lat="53.9592132568359" lon="13.1331167221069">
			<ele>40.5999984741211</ele>
			<time>2014-04-13T11:18:12Z</time>
		</trkpt>
		<trkpt lat="53.9591484069824" lon="13.1331996917725">
			<ele>40.9000015258789</ele>
			<time>2014-04-13T11:18:14Z</time>
		</trkpt>
		<trkpt lat="53.9590759277344" lon="13.1332883834839">
			<ele>41.0999984741211</ele>
			<time>2014-04-13T11:18:16Z</time>
		</trkpt>
		<trkpt lat="53.9590110778809" lon="13.133373260498">
			<ele>41.0999984741211</ele>
			<time>2014-04-13T11:18:18Z</time>
		</trkpt>
		<trkpt lat="53.9589424133301" lon="13.1334571838379">
			<ele>41.0999984741211</ele>
			<time>2014-04-13T11:18:20Z</time>
		</trkpt>
		<trkpt lat="53.9588775634766" lon="13.1335401535034">
			<ele>41.2000007629395</ele>
			<time>2014-04-13T11:18:22Z</time>
		</trkpt>
		<trkpt lat="53.958812713623" lon="13.1336193084717">
			<ele>41.5</ele>
			<time>2014-04-13T11:18:24Z</time>
		</trkpt>
		<trkpt lat="53.9587478637695" lon="13.1337013244629">
			<ele>41.5</ele>
			<time>2014-04-13T11:18:26Z</time>
		</trkpt>
		<trkpt lat="53.958683013916" lon="13.1337823867798">
			<ele>41.9000015258789</ele>
			<time>2014-04-13T11:18:28Z</time>
		</trkpt>
		<trkpt lat="53.9586143493652" lon="13.1338691711426">
			<ele>42.0999984741211</ele>
			<time>2014-04-13T11:18:30Z</time>
		</trkpt>
		<trkpt lat="53.9585456848145" lon="13.1339569091797">
			<ele>42.5</ele>
			<time>2014-04-13T11:18:32Z</time>
		</trkpt>
		<trkpt lat="53.9584808349609" lon="13.1340389251709">
			<ele>42.7999992370605</ele>
			<time>2014-04-13T11:18:34Z</time>
		</trkpt>
		<trkpt lat="53.9584121704102" lon="13.1341180801392">
			<ele>42.5999984741211</ele>
			<time>2014-04-13T11:18:36Z</time>
		</trkpt>
		<trkpt lat="53.9583435058594" lon="13.1341962814331">
			<ele>42.9000015258789</ele>
			<time>2014-04-13T11:18:38Z</time>
		</trkpt>
		<trkpt lat="53.9582786560059" lon="13.1342830657959">
			<ele>43.2999992370605</ele>
			<time>2014-04-13T11:18:40Z</time>
		</trkpt>
		<trkpt lat="53.9582099914551" lon="13.1343698501587">
			<ele>43.2999992370605</ele>
			<time>2014-04-13T11:18:42Z</time>
		</trkpt>
		<trkpt lat="53.9581451416016" lon="13.1344556808472">
			<ele>43.5</ele>
			<time>2014-04-13T11:18:44Z</time>
		</trkpt>
		<trkpt lat="53.958080291748" lon="13.1345415115356">
			<ele>43.5999984741211</ele>
			<time>2014-04-13T11:18:46Z</time>
		</trkpt>
		<trkpt lat="53.9580116271973" lon="13.1346244812012">
			<ele>43.7000007629395</ele>
			<time>2014-04-13T11:18:48Z</time>
		</trkpt>
		<trkpt lat="53.9579467773438" lon="13.1347036361694">
			<ele>43.5</ele>
			<time>2014-04-13T11:18:50Z</time>
		</trkpt>
		<trkpt lat="53.957878112793" lon="13.1347894668579">
			<ele>43.5999984741211</ele>
			<time>2014-04-13T11:18:52Z</time>
		</trkpt>
		<trkpt lat="53.9578094482422" lon="13.1348724365234">
			<ele>43.5</ele>
			<time>2014-04-13T11:18:54Z</time>
		</trkpt>
		<trkpt lat="53.9577407836914" lon="13.1349592208862">
			<ele>43.2000007629395</ele>
			<time>2014-04-13T11:18:56Z</time>
		</trkpt>
		<trkpt lat="53.9576034545898" lon="13.1351184844971">
			<ele>43.5999984741211</ele>
			<time>2014-04-13T11:19:00Z</time>
		</trkpt>
		<trkpt lat="53.9574966430664" lon="13.1352310180664">
			<ele>43.2999992370605</ele>
			<time>2014-04-13T11:19:03Z</time>
		</trkpt>
		<trkpt lat="53.957447052002" lon="13.1353311538696">
			<ele>43.2000007629395</ele>
			<time>2014-04-13T11:19:05Z</time>
		</trkpt>
		<trkpt lat="53.957447052002" lon="13.1354675292969">
			<ele>42.9000015258789</ele>
			<time>2014-04-13T11:19:07Z</time>
		</trkpt>
		<trkpt lat="53.9574661254883" lon="13.1355457305908">
			<ele>42.5999984741211</ele>
			<time>2014-04-13T11:19:08Z</time>
		</trkpt>
		<trkpt lat="53.9574928283691" lon="13.1356315612793">
			<ele>42.5</ele>
			<time>2014-04-13T11:19:09Z</time>
		</trkpt>
		<trkpt lat="53.9575233459473" lon="13.1357164382935">
			<ele>42.2000007629395</ele>
			<time>2014-04-13T11:19:10Z</time>
		</trkpt>
		<trkpt lat="53.9575614929199" lon="13.1358079910278">
			<ele>42</ele>
			<time>2014-04-13T11:19:11Z</time>
		</trkpt>
		<trkpt lat="53.9576034545898" lon="13.1359081268311">
			<ele>41.7000007629395</ele>
			<time>2014-04-13T11:19:12Z</time>
		</trkpt>
		<trkpt lat="53.957649230957" lon="13.1360092163086">
			<ele>41.4000015258789</ele>
			<time>2014-04-13T11:19:13Z</time>
		</trkpt>
		<trkpt lat="53.9576950073242" lon="13.1361141204834">
			<ele>41.0999984741211</ele>
			<time>2014-04-13T11:19:14Z</time>
		</trkpt>
		<trkpt lat="53.9577407836914" lon="13.1362266540527">
			<ele>40.7999992370605</ele>
			<time>2014-04-13T11:19:15Z</time>
		</trkpt>
		<trkpt lat="53.9577865600586" lon="13.1363401412964">
			<ele>40.5</ele>
			<time>2014-04-13T11:19:16Z</time>
		</trkpt>
		<trkpt lat="53.957836151123" lon="13.1364603042603">
			<ele>40.5</ele>
			<time>2014-04-13T11:19:17Z</time>
		</trkpt>
		<trkpt lat="53.9578895568848" lon="13.1365795135498">
			<ele>40</ele>
			<time>2014-04-13T11:19:18Z</time>
		</trkpt>
		<trkpt lat="53.9579429626465" lon="13.1366958618164">
			<ele>39.5</ele>
			<time>2014-04-13T11:19:19Z</time>
		</trkpt>
		<trkpt lat="53.9579963684082" lon="13.136815071106">
			<ele>39.2999992370605</ele>
			<time>2014-04-13T11:19:20Z</time>
		</trkpt>
		<trkpt lat="53.9580688476563" lon="13.1369104385376">
			<ele>38.7000007629395</ele>
			<time>2014-04-13T11:19:21Z</time>
		</trkpt>
		<trkpt lat="53.9581413269043" lon="13.1369981765747">
			<ele>38.2999992370605</ele>
			<time>2014-04-13T11:19:22Z</time>
		</trkpt>
		<trkpt lat="53.9582214355469" lon="13.1370801925659">
			<ele>37.7999992370605</ele>
			<time>2014-04-13T11:19:23Z</time>
		</trkpt>
		<trkpt lat="53.9582977294922" lon="13.1371593475342">
			<ele>37.5999984741211</ele>
			<time>2014-04-13T11:19:24Z</time>
		</trkpt>
		<trkpt lat="53.9583740234375" lon="13.1372318267822">
			<ele>37.5</ele>
			<time>2014-04-13T11:19:25Z</time>
		</trkpt>
		<trkpt lat="53.9584503173828" lon="13.1373100280762">
			<ele>37.5</ele>
			<time>2014-04-13T11:19:26Z</time>
		</trkpt>
		<trkpt lat="53.9585266113281" lon="13.1373891830444">
			<ele>37.5</ele>
			<time>2014-04-13T11:19:27Z</time>
		</trkpt>
		<trkpt lat="53.9585990905762" lon="13.1374588012695">
			<ele>37.2000007629395</ele>
			<time>2014-04-13T11:19:28Z</time>
		</trkpt>
		<trkpt lat="53.9586753845215" lon="13.1375293731689">
			<ele>37</ele>
			<time>2014-04-13T11:19:29Z</time>
		</trkpt>
		<trkpt lat="53.9587440490723" lon="13.137598991394">
			<ele>36.9000015258789</ele>
			<time>2014-04-13T11:19:30Z</time>
		</trkpt>
		<trkpt lat="53.958812713623" lon="13.1376714706421">
			<ele>37.2000007629395</ele>
			<time>2014-04-13T11:19:31Z</time>
		</trkpt>
		<trkpt lat="53.9588813781738" lon="13.1377410888672">
			<ele>37.2999992370605</ele>
			<time>2014-04-13T11:19:32Z</time>
		</trkpt>
		<trkpt lat="53.9589462280273" lon="13.1378145217896">
			<ele>37.4000015258789</ele>
			<time>2014-04-13T11:19:33Z</time>
		</trkpt>
		<trkpt lat="53.9590148925781" lon="13.1378860473633">
			<ele>37.4000015258789</ele>
			<time>2014-04-13T11:19:34Z</time>
		</trkpt>
		<trkpt lat="53.9590797424316" lon="13.1379585266113">
			<ele>37.5</ele>
			<time>2014-04-13T11:19:35Z</time>
		</trkpt>
		<trkpt lat="53.9591445922852" lon="13.1380262374878">
			<ele>37.2999992370605</ele>
			<time>2014-04-13T11:19:36Z</time>
		</trkpt>
		<trkpt lat="53.9592094421387" lon="13.1380958557129">
			<ele>37</ele>
			<time>2014-04-13T11:19:37Z</time>
		</trkpt>
		<trkpt lat="53.9592742919922" lon="13.1381645202637">
			<ele>36.9000015258789</ele>
			<time>2014-04-13T11:19:38Z</time>
		</trkpt>
		<trkpt lat="53.9593391418457" lon="13.1382341384888">
			<ele>36.7999992370605</ele>
			<time>2014-04-13T11:19:39Z</time>
		</trkpt>
		<trkpt lat="53.9593963623047" lon="13.1383113861084">
			<ele>36.7999992370605</ele>
			<time>2014-04-13T11:19:40Z</time>
		</trkpt>
		<trkpt lat="53.9594535827637" lon="13.1383934020996">
			<ele>36.9000015258789</ele>
			<time>2014-04-13T11:19:41Z</time>
		</trkpt>
		<trkpt lat="53.9595069885254" lon="13.1384830474854">
			<ele>37.2000007629395</ele>
			<time>2014-04-13T11:19:42Z</time>
		</trkpt>
		<trkpt lat="53.9595565795898" lon="13.1385736465454">
			<ele>37.4000015258789</ele>
			<time>2014-04-13T11:19:43Z</time>
		</trkpt>
		<trkpt lat="53.9596061706543" lon="13.1386632919312">
			<ele>37.2000007629395</ele>
			<time>2014-04-13T11:19:44Z</time>
		</trkpt>
		<trkpt lat="53.9596557617188" lon="13.1387510299683">
			<ele>37.2999992370605</ele>
			<time>2014-04-13T11:19:45Z</time>
		</trkpt>
		<trkpt lat="53.9597053527832" lon="13.1388416290283">
			<ele>37.2999992370605</ele>
			<time>2014-04-13T11:19:46Z</time>
		</trkpt>
		<trkpt lat="53.9597587585449" lon="13.138934135437">
			<ele>37.0999984741211</ele>
			<time>2014-04-13T11:19:47Z</time>
		</trkpt>
		<trkpt lat="53.9598083496094" lon="13.1390256881714">
			<ele>37.2999992370605</ele>
			<time>2014-04-13T11:19:48Z</time>
		</trkpt>
		<trkpt lat="53.9598503112793" lon="13.1391124725342">
			<ele>37.4000015258789</ele>
			<time>2014-04-13T11:19:49Z</time>
		</trkpt>
		<trkpt lat="53.9598960876465" lon="13.1391830444336">
			<ele>37.7999992370605</ele>
			<time>2014-04-13T11:19:50Z</time>
		</trkpt>
		<trkpt lat="53.9599533081055" lon="13.1392612457275">
			<ele>38.2999992370605</ele>
			<time>2014-04-13T11:19:51Z</time>
		</trkpt>
		<trkpt lat="53.9600028991699" lon="13.1393451690674">
			<ele>38</ele>
			<time>2014-04-13T11:19:52Z</time>
		</trkpt>
		<trkpt lat="53.9600486755371" lon="13.1394281387329">
			<ele>37.7999992370605</ele>
			<time>2014-04-13T11:19:53Z</time>
		</trkpt>
		<trkpt lat="53.960090637207" lon="13.1395044326782">
			<ele>37.5999984741211</ele>
			<time>2014-04-13T11:19:54Z</time>
		</trkpt>
		<trkpt lat="53.9601440429688" lon="13.1395845413208">
			<ele>37.7000007629395</ele>
			<time>2014-04-13T11:19:55Z</time>
		</trkpt>
		<trkpt lat="53.9601974487305" lon="13.1396646499634">
			<ele>37.7000007629395</ele>
			<time>2014-04-13T11:19:56Z</time>
		</trkpt>
		<trkpt lat="53.9602508544922" lon="13.1397409439087">
			<ele>37.4000015258789</ele>
			<time>2014-04-13T11:19:57Z</time>
		</trkpt>
		<trkpt lat="53.9603004455566" lon="13.1398153305054">
			<ele>37.5</ele>
			<time>2014-04-13T11:19:58Z</time>
		</trkpt>
		<trkpt lat="53.9603500366211" lon="13.139892578125">
			<ele>37.5</ele>
			<time>2014-04-13T11:19:59Z</time>
		</trkpt>
		<trkpt lat="53.9603996276855" lon="13.1399641036987">
			<ele>37.5</ele>
			<time>2014-04-13T11:20:00Z</time>
		</trkpt>
		<trkpt lat="53.96044921875" lon="13.1400337219238">
			<ele>37.0999984741211</ele>
			<time>2014-04-13T11:20:01Z</time>
		</trkpt>
		<trkpt lat="53.9605026245117" lon="13.1401090621948">
			<ele>37.2999992370605</ele>
			<time>2014-04-13T11:20:02Z</time>
		</trkpt>
		<trkpt lat="53.9605522155762" lon="13.1401853561401">
			<ele>37.2999992370605</ele>
			<time>2014-04-13T11:20:03Z</time>
		</trkpt>
		<trkpt lat="53.9606056213379" lon="13.1402568817139">
			<ele>37.2999992370605</ele>
			<time>2014-04-13T11:20:04Z</time>
		</trkpt>
		<trkpt lat="53.9606552124023" lon="13.1403312683105">
			<ele>37.2999992370605</ele>
			<time>2014-04-13T11:20:05Z</time>
		</trkpt>
		<trkpt lat="53.9607048034668" lon="13.1404075622559">
			<ele>37.5999984741211</ele>
			<time>2014-04-13T11:20:06Z</time>
		</trkpt>
		<trkpt lat="53.9607543945313" lon="13.140477180481">
			<ele>37.5999984741211</ele>
			<time>2014-04-13T11:20:07Z</time>
		</trkpt>
		<trkpt lat="53.9608001708984" lon="13.140549659729">
			<ele>37.7000007629395</ele>
			<time>2014-04-13T11:20:08Z</time>
		</trkpt>
		<trkpt lat="53.9608459472656" lon="13.1406221389771">
			<ele>37.7999992370605</ele>
			<time>2014-04-13T11:20:09Z</time>
		</trkpt>
		<trkpt lat="53.9608879089355" lon="13.140697479248">
			<ele>38.2000007629395</ele>
			<time>2014-04-13T11:20:10Z</time>
		</trkpt>
		<trkpt lat="53.9609222412109" lon="13.1407794952393">
			<ele>38.0999984741211</ele>
			<time>2014-04-13T11:20:11Z</time>
		</trkpt>
		<trkpt lat="53.9609565734863" lon="13.1408576965332">
			<ele>38.2999992370605</ele>
			<time>2014-04-13T11:20:12Z</time>
		</trkpt>
		<trkpt lat="53.9609832763672" lon="13.1409349441528">
			<ele>38.5</ele>
			<time>2014-04-13T11:20:13Z</time>
		</trkpt>
		<trkpt lat="53.9609909057617" lon="13.1410293579102">
			<ele>38.7999992370605</ele>
			<time>2014-04-13T11:20:14Z</time>
		</trkpt>
		<trkpt lat="53.9610023498535" lon="13.1411113739014">
			<ele>38.7999992370605</ele>
			<time>2014-04-13T11:20:15Z</time>
		</trkpt>
		<trkpt lat="53.9610137939453" lon="13.1411952972412">
			<ele>38.7999992370605</ele>
			<time>2014-04-13T11:20:16Z</time>
		</trkpt>
		<trkpt lat="53.9610176086426" lon="13.1412754058838">
			<ele>39</ele>
			<time>2014-04-13T11:20:17Z</time>
		</trkpt>
		<trkpt lat="53.9610290527344" lon="13.1413583755493">
			<ele>38.7000007629395</ele>
			<time>2014-04-13T11:20:18Z</time>
		</trkpt>
		<trkpt lat="53.9610290527344" lon="13.1414365768433">
			<ele>38.5</ele>
			<time>2014-04-13T11:20:19Z</time>
		</trkpt>
		<trkpt lat="53.9610328674316" lon="13.1415157318115">
			<ele>38.5</ele>
			<time>2014-04-13T11:20:20Z</time>
		</trkpt>
		<trkpt lat="53.9610328674316" lon="13.141658782959">
			<ele>38.7999992370605</ele>
			<time>2014-04-13T11:20:22Z</time>
		</trkpt>
		<trkpt lat="53.9610328674316" lon="13.1417922973633">
			<ele>39</ele>
			<time>2014-04-13T11:20:24Z</time>
		</trkpt>
		<trkpt lat="53.9610214233398" lon="13.1419219970703">
			<ele>39.4000015258789</ele>
			<time>2014-04-13T11:20:26Z</time>
		</trkpt>
		<trkpt lat="53.9610061645508" lon="13.1420440673828">
			<ele>39.5999984741211</ele>
			<time>2014-04-13T11:20:28Z</time>
		</trkpt>
		<trkpt lat="53.9609870910645" lon="13.1421546936035">
			<ele>39.7999992370605</ele>
			<time>2014-04-13T11:20:30Z</time>
		</trkpt>
		<trkpt lat="53.9609680175781" lon="13.1422710418701">
			<ele>40.0999984741211</ele>
			<time>2014-04-13T11:20:32Z</time>
		</trkpt>
		<trkpt lat="53.9609451293945" lon="13.1423845291138">
			<ele>40.0999984741211</ele>
			<time>2014-04-13T11:20:34Z</time>
		</trkpt>
		<trkpt lat="53.9609184265137" lon="13.142481803894">
			<ele>40.2999992370605</ele>
			<time>2014-04-13T11:20:36Z</time>
		</trkpt>
		<trkpt lat="53.9608879089355" lon="13.1425838470459">
			<ele>40.5999984741211</ele>
			<time>2014-04-13T11:20:38Z</time>
		</trkpt>
		<trkpt lat="53.9608497619629" lon="13.142689704895">
			<ele>40.9000015258789</ele>
			<time>2014-04-13T11:20:40Z</time>
		</trkpt>
		<trkpt lat="53.960807800293" lon="13.1427898406982">
			<ele>41.2000007629395</ele>
			<time>2014-04-13T11:20:42Z</time>
		</trkpt>
		<trkpt lat="53.9607696533203" lon="13.1428880691528">
			<ele>41.5999984741211</ele>
			<time>2014-04-13T11:20:44Z</time>
		</trkpt>
		<trkpt lat="53.9607238769531" lon="13.1429853439331">
			<ele>41.7000007629395</ele>
			<time>2014-04-13T11:20:46Z</time>
		</trkpt>
		<trkpt lat="53.9606819152832" lon="13.1430835723877">
			<ele>42</ele>
			<time>2014-04-13T11:20:48Z</time>
		</trkpt>
		<trkpt lat="53.9606437683105" lon="13.1431903839111">
			<ele>42.0999984741211</ele>
			<time>2014-04-13T11:20:50Z</time>
		</trkpt>
		<trkpt lat="53.9605979919434" lon="13.1432981491089">
			<ele>42</ele>
			<time>2014-04-13T11:20:52Z</time>
		</trkpt>
		<trkpt lat="53.9605484008789" lon="13.143406867981">
			<ele>42.2999992370605</ele>
			<time>2014-04-13T11:20:54Z</time>
		</trkpt>
		<trkpt lat="53.9604988098145" lon="13.1435222625732">
			<ele>42.5</ele>
			<time>2014-04-13T11:20:56Z</time>
		</trkpt>
		<trkpt lat="53.9604530334473" lon="13.1436347961426">
			<ele>42.5999984741211</ele>
			<time>2014-04-13T11:20:58Z</time>
		</trkpt>
		<trkpt lat="53.9604072570801" lon="13.1437482833862">
			<ele>42.7000007629395</ele>
			<time>2014-04-13T11:21:00Z</time>
		</trkpt>
		<trkpt lat="53.9603614807129" lon="13.143871307373">
			<ele>43</ele>
			<time>2014-04-13T11:21:02Z</time>
		</trkpt>
		<trkpt lat="53.9603118896484" lon="13.1439952850342">
			<ele>43.2000007629395</ele>
			<time>2014-04-13T11:21:04Z</time>
		</trkpt>
		<trkpt lat="53.9602851867676" lon="13.144061088562">
			<ele>43.2999992370605</ele>
			<time>2014-04-13T11:21:05Z</time>
		</trkpt>
		<trkpt lat="53.9602355957031" lon="13.1441888809204">
			<ele>43.5</ele>
			<time>2014-04-13T11:21:07Z</time>
		</trkpt>
		<trkpt lat="53.9602127075195" lon="13.1442537307739">
			<ele>43.5</ele>
			<time>2014-04-13T11:21:08Z</time>
		</trkpt>
		<trkpt lat="53.9601860046387" lon="13.1443157196045">
			<ele>43.5999984741211</ele>
			<time>2014-04-13T11:21:09Z</time>
		</trkpt>
		<trkpt lat="53.9601593017578" lon="13.1443815231323">
			<ele>43.7999992370605</ele>
			<time>2014-04-13T11:21:10Z</time>
		</trkpt>
		<trkpt lat="53.960132598877" lon="13.1444463729858">
			<ele>43.7000007629395</ele>
			<time>2014-04-13T11:21:11Z</time>
		</trkpt>
		<trkpt lat="53.9601058959961" lon="13.144513130188">
			<ele>43.7000007629395</ele>
			<time>2014-04-13T11:21:12Z</time>
		</trkpt>
		<trkpt lat="53.9600486755371" lon="13.1446361541748">
			<ele>43.5999984741211</ele>
			<time>2014-04-13T11:21:14Z</time>
		</trkpt>
		<trkpt lat="53.9600219726563" lon="13.1447019577026">
			<ele>43.7999992370605</ele>
			<time>2014-04-13T11:21:15Z</time>
		</trkpt>
		<trkpt lat="53.9599723815918" lon="13.1448364257813">
			<ele>44</ele>
			<time>2014-04-13T11:21:17Z</time>
		</trkpt>
		<trkpt lat="53.9599494934082" lon="13.1449089050293">
			<ele>43.9000015258789</ele>
			<time>2014-04-13T11:21:18Z</time>
		</trkpt>
		<trkpt lat="53.9599227905273" lon="13.1449756622314">
			<ele>44</ele>
			<time>2014-04-13T11:21:19Z</time>
		</trkpt>
		<trkpt lat="53.9598922729492" lon="13.1450424194336">
			<ele>43.9000015258789</ele>
			<time>2014-04-13T11:21:20Z</time>
		</trkpt>
		<trkpt lat="53.9598350524902" lon="13.1451721191406">
			<ele>44.0999984741211</ele>
			<time>2014-04-13T11:21:22Z</time>
		</trkpt>
		<trkpt lat="53.9598083496094" lon="13.1452360153198">
			<ele>44.2000007629395</ele>
			<time>2014-04-13T11:21:23Z</time>
		</trkpt>
		<trkpt lat="53.9597816467285" lon="13.1453046798706">
			<ele>44.2999992370605</ele>
			<time>2014-04-13T11:21:24Z</time>
		</trkpt>
		<trkpt lat="53.9597549438477" lon="13.1453695297241">
			<ele>44.2000007629395</ele>
			<time>2014-04-13T11:21:25Z</time>
		</trkpt>
		<trkpt lat="53.9597244262695" lon="13.1454381942749">
			<ele>44.0999984741211</ele>
			<time>2014-04-13T11:21:26Z</time>
		</trkpt>
		<trkpt lat="53.9596939086914" lon="13.1455097198486">
			<ele>43.9000015258789</ele>
			<time>2014-04-13T11:21:27Z</time>
		</trkpt>
		<trkpt lat="53.9596633911133" lon="13.1455764770508">
			<ele>43.7999992370605</ele>
			<time>2014-04-13T11:21:28Z</time>
		</trkpt>
		<trkpt lat="53.9596366882324" lon="13.1456508636475">
			<ele>43.9000015258789</ele>
			<time>2014-04-13T11:21:29Z</time>
		</trkpt>
		<trkpt lat="53.9596061706543" lon="13.1457214355469">
			<ele>43.9000015258789</ele>
			<time>2014-04-13T11:21:30Z</time>
		</trkpt>
		<trkpt lat="53.9595794677734" lon="13.1457958221436">
			<ele>44.0999984741211</ele>
			<time>2014-04-13T11:21:31Z</time>
		</trkpt>
		<trkpt lat="53.959545135498" lon="13.1458692550659">
			<ele>44.0999984741211</ele>
			<time>2014-04-13T11:21:32Z</time>
		</trkpt>
		<trkpt lat="53.9595184326172" lon="13.1459436416626">
			<ele>44</ele>
			<time>2014-04-13T11:21:33Z</time>
		</trkpt>
		<trkpt lat="53.9594879150391" lon="13.1460227966309">
			<ele>43.9000015258789</ele>
			<time>2014-04-13T11:21:34Z</time>
		</trkpt>
		<trkpt lat="53.9594573974609" lon="13.1460971832275">
			<ele>43.5999984741211</ele>
			<time>2014-04-13T11:21:35Z</time>
		</trkpt>
		<trkpt lat="53.9594268798828" lon="13.1461706161499">
			<ele>43.7000007629395</ele>
			<time>2014-04-13T11:21:36Z</time>
		</trkpt>
		<trkpt lat="53.9593963623047" lon="13.1462488174438">
			<ele>43.7000007629395</ele>
			<time>2014-04-13T11:21:37Z</time>
		</trkpt>
		<trkpt lat="53.9593658447266" lon="13.1463251113892">
			<ele>43.9000015258789</ele>
			<time>2014-04-13T11:21:38Z</time>
		</trkpt>
		<trkpt lat="53.9593353271484" lon="13.1463994979858">
			<ele>44.0999984741211</ele>
			<time>2014-04-13T11:21:39Z</time>
		</trkpt>
		<trkpt lat="53.9593086242676" lon="13.1464786529541">
			<ele>44.0999984741211</ele>
			<time>2014-04-13T11:21:40Z</time>
		</trkpt>
		<trkpt lat="53.9592819213867" lon="13.146556854248">
			<ele>44.0999984741211</ele>
			<time>2014-04-13T11:21:41Z</time>
		</trkpt>
		<trkpt lat="53.9592475891113" lon="13.1466312408447">
			<ele>43.7999992370605</ele>
			<time>2014-04-13T11:21:42Z</time>
		</trkpt>
		<trkpt lat="53.9592208862305" lon="13.1467037200928">
			<ele>43.7000007629395</ele>
			<time>2014-04-13T11:21:43Z</time>
		</trkpt>
		<trkpt lat="53.9591903686523" lon="13.1467809677124">
			<ele>43.5</ele>
			<time>2014-04-13T11:21:44Z</time>
		</trkpt>
		<trkpt lat="53.9591598510742" lon="13.1468591690063">
			<ele>43.5</ele>
			<time>2014-04-13T11:21:45Z</time>
		</trkpt>
		<trkpt lat="53.9591331481934" lon="13.1469345092773">
			<ele>43.4000015258789</ele>
			<time>2014-04-13T11:21:46Z</time>
		</trkpt>
		<trkpt lat="53.9591026306152" lon="13.1470108032227">
			<ele>43.4000015258789</ele>
			<time>2014-04-13T11:21:47Z</time>
		</trkpt>
		<trkpt lat="53.9590759277344" lon="13.1470899581909">
			<ele>43.5</ele>
			<time>2014-04-13T11:21:48Z</time>
		</trkpt>
		<trkpt lat="53.9590454101563" lon="13.1471700668335">
			<ele>43.4000015258789</ele>
			<time>2014-04-13T11:21:49Z</time>
		</trkpt>
		<trkpt lat="53.9590187072754" lon="13.1472511291504">
			<ele>43.5</ele>
			<time>2014-04-13T11:21:50Z</time>
		</trkpt>
		<trkpt lat="53.9589881896973" lon="13.1473321914673">
			<ele>43.5999984741211</ele>
			<time>2014-04-13T11:21:51Z</time>
		</trkpt>
		<trkpt lat="53.9589614868164" lon="13.1474123001099">
			<ele>43.5999984741211</ele>
			<time>2014-04-13T11:21:52Z</time>
		</trkpt>
		<trkpt lat="53.9589347839355" lon="13.1474924087524">
			<ele>43.5</ele>
			<time>2014-04-13T11:21:53Z</time>
		</trkpt>
		<trkpt lat="53.9589080810547" lon="13.1475734710693">
			<ele>43.5999984741211</ele>
			<time>2014-04-13T11:21:54Z</time>
		</trkpt>
		<trkpt lat="53.9588813781738" lon="13.1476573944092">
			<ele>43.7000007629395</ele>
			<time>2014-04-13T11:21:55Z</time>
		</trkpt>
		<trkpt lat="53.9588584899902" lon="13.1477365493774">
			<ele>43.5999984741211</ele>
			<time>2014-04-13T11:21:56Z</time>
		</trkpt>
		<trkpt lat="53.9588317871094" lon="13.147819519043">
			<ele>43.7000007629395</ele>
			<time>2014-04-13T11:21:57Z</time>
		</trkpt>
		<trkpt lat="53.9588050842285" lon="13.1479024887085">
			<ele>43.7000007629395</ele>
			<time>2014-04-13T11:21:58Z</time>
		</trkpt>
		<trkpt lat="53.9587821960449" lon="13.1479825973511">
			<ele>43.7999992370605</ele>
			<time>2014-04-13T11:21:59Z</time>
		</trkpt>
		<trkpt lat="53.9587516784668" lon="13.1480655670166">
			<ele>43.9000015258789</ele>
			<time>2014-04-13T11:22:00Z</time>
		</trkpt>
		<trkpt lat="53.9587287902832" lon="13.1481485366821">
			<ele>43.9000015258789</ele>
			<time>2014-04-13T11:22:01Z</time>
		</trkpt>
		<trkpt lat="53.9586982727051" lon="13.1482315063477">
			<ele>43.9000015258789</ele>
			<time>2014-04-13T11:22:02Z</time>
		</trkpt>
		<trkpt lat="53.9586715698242" lon="13.1483116149902">
			<ele>43.9000015258789</ele>
			<time>2014-04-13T11:22:03Z</time>
		</trkpt>
		<trkpt lat="53.9586486816406" lon="13.1483955383301">
			<ele>44</ele>
			<time>2014-04-13T11:22:04Z</time>
		</trkpt>
		<trkpt lat="53.9586219787598" lon="13.1484823226929">
			<ele>43.9000015258789</ele>
			<time>2014-04-13T11:22:05Z</time>
		</trkpt>
		<trkpt lat="53.9585952758789" lon="13.1485719680786">
			<ele>44</ele>
			<time>2014-04-13T11:22:06Z</time>
		</trkpt>
		<trkpt lat="53.958568572998" lon="13.1486616134644">
			<ele>44.2000007629395</ele>
			<time>2014-04-13T11:22:07Z</time>
		</trkpt>
		<trkpt lat="53.9585456848145" lon="13.1487512588501">
			<ele>44.5</ele>
			<time>2014-04-13T11:22:08Z</time>
		</trkpt>
		<trkpt lat="53.9585189819336" lon="13.1488380432129">
			<ele>44.5</ele>
			<time>2014-04-13T11:22:09Z</time>
		</trkpt>
		<trkpt lat="53.9584922790527" lon="13.1489248275757">
			<ele>44.5</ele>
			<time>2014-04-13T11:22:10Z</time>
		</trkpt>
		<trkpt lat="53.9584693908691" lon="13.1490068435669">
			<ele>44.2999992370605</ele>
			<time>2014-04-13T11:22:11Z</time>
		</trkpt>
		<trkpt lat="53.9584426879883" lon="13.149094581604">
			<ele>44.4000015258789</ele>
			<time>2014-04-13T11:22:12Z</time>
		</trkpt>
		<trkpt lat="53.9584159851074" lon="13.1491813659668">
			<ele>44.4000015258789</ele>
			<time>2014-04-13T11:22:13Z</time>
		</trkpt>
		<trkpt lat="53.9583930969238" lon="13.1492700576782">
			<ele>44.0999984741211</ele>
			<time>2014-04-13T11:22:14Z</time>
		</trkpt>
		<trkpt lat="53.958366394043" lon="13.1493549346924">
			<ele>44.2999992370605</ele>
			<time>2014-04-13T11:22:15Z</time>
		</trkpt>
		<trkpt lat="53.9583396911621" lon="13.1494407653809">
			<ele>44.2999992370605</ele>
			<time>2014-04-13T11:22:16Z</time>
		</trkpt>
		<trkpt lat="53.9583129882813" lon="13.1495304107666">
			<ele>44.4000015258789</ele>
			<time>2014-04-13T11:22:17Z</time>
		</trkpt>
		<trkpt lat="53.9582824707031" lon="13.1496181488037">
			<ele>44.5</ele>
			<time>2014-04-13T11:22:18Z</time>
		</trkpt>
		<trkpt lat="53.9582595825195" lon="13.1497058868408">
			<ele>44.5</ele>
			<time>2014-04-13T11:22:19Z</time>
		</trkpt>
		<trkpt lat="53.9582328796387" lon="13.1497926712036">
			<ele>44.5999984741211</ele>
			<time>2014-04-13T11:22:20Z</time>
		</trkpt>
		<trkpt lat="53.9582061767578" lon="13.1498775482178">
			<ele>44.5</ele>
			<time>2014-04-13T11:22:21Z</time>
		</trkpt>
		<trkpt lat="53.958179473877" lon="13.1499681472778">
			<ele>44.5999984741211</ele>
			<time>2014-04-13T11:22:22Z</time>
		</trkpt>
		<trkpt lat="53.9581527709961" lon="13.1500577926636">
			<ele>44.5999984741211</ele>
			<time>2014-04-13T11:22:23Z</time>
		</trkpt>
		<trkpt lat="53.9581336975098" lon="13.150146484375">
			<ele>44.2999992370605</ele>
			<time>2014-04-13T11:22:24Z</time>
		</trkpt>
		<trkpt lat="53.9581069946289" lon="13.1502361297607">
			<ele>44.2999992370605</ele>
			<time>2014-04-13T11:22:25Z</time>
		</trkpt>
		<trkpt lat="53.9580764770508" lon="13.150318145752">
			<ele>44.4000015258789</ele>
			<time>2014-04-13T11:22:26Z</time>
		</trkpt>
		<trkpt lat="53.9580497741699" lon="13.1504096984863">
			<ele>44.5999984741211</ele>
			<time>2014-04-13T11:22:27Z</time>
		</trkpt>
		<trkpt lat="53.9580230712891" lon="13.1505002975464">
			<ele>44.2000007629395</ele>
			<time>2014-04-13T11:22:28Z</time>
		</trkpt>
		<trkpt lat="53.9579963684082" lon="13.1505928039551">
			<ele>44.2999992370605</ele>
			<time>2014-04-13T11:22:29Z</time>
		</trkpt>
		<trkpt lat="53.9579696655273" lon="13.1506862640381">
			<ele>44.4000015258789</ele>
			<time>2014-04-13T11:22:30Z</time>
		</trkpt>
		<trkpt lat="53.9579467773438" lon="13.1507711410522">
			<ele>44.4000015258789</ele>
			<time>2014-04-13T11:22:31Z</time>
		</trkpt>
		<trkpt lat="53.9579200744629" lon="13.1508550643921">
			<ele>44.2999992370605</ele>
			<time>2014-04-13T11:22:32Z</time>
		</trkpt>
		<trkpt lat="53.957893371582" lon="13.1509380340576">
			<ele>44.5</ele>
			<time>2014-04-13T11:22:33Z</time>
		</trkpt>
		<trkpt lat="53.9578666687012" lon="13.151029586792">
			<ele>44.4000015258789</ele>
			<time>2014-04-13T11:22:34Z</time>
		</trkpt>
		<trkpt lat="53.9578437805176" lon="13.1511182785034">
			<ele>44.2999992370605</ele>
			<time>2014-04-13T11:22:35Z</time>
		</trkpt>
		<trkpt lat="53.9578170776367" lon="13.1512088775635">
			<ele>44.2000007629395</ele>
			<time>2014-04-13T11:22:36Z</time>
		</trkpt>
		<trkpt lat="53.9577903747559" lon="13.1513032913208">
			<ele>44.0999984741211</ele>
			<time>2014-04-13T11:22:37Z</time>
		</trkpt>
		<trkpt lat="53.957763671875" lon="13.1513929367065">
			<ele>43.9000015258789</ele>
			<time>2014-04-13T11:22:38Z</time>
		</trkpt>
		<trkpt lat="53.9577369689941" lon="13.1514806747437">
			<ele>43.9000015258789</ele>
			<time>2014-04-13T11:22:39Z</time>
		</trkpt>
		<trkpt lat="53.9577102661133" lon="13.1515693664551">
			<ele>44</ele>
			<time>2014-04-13T11:22:40Z</time>
		</trkpt>
		<trkpt lat="53.9576873779297" lon="13.1516609191895">
			<ele>44.2000007629395</ele>
			<time>2014-04-13T11:22:41Z</time>
		</trkpt>
		<trkpt lat="53.9576606750488" lon="13.1517477035522">
			<ele>44.2000007629395</ele>
			<time>2014-04-13T11:22:42Z</time>
		</trkpt>
		<trkpt lat="53.957633972168" lon="13.1518383026123">
			<ele>44.0999984741211</ele>
			<time>2014-04-13T11:22:43Z</time>
		</trkpt>
		<trkpt lat="53.9576110839844" lon="13.1519250869751">
			<ele>44.2999992370605</ele>
			<time>2014-04-13T11:22:44Z</time>
		</trkpt>
		<trkpt lat="53.9575843811035" lon="13.1520118713379">
			<ele>44.2999992370605</ele>
			<time>2014-04-13T11:22:45Z</time>
		</trkpt>
		<trkpt lat="53.9575538635254" lon="13.152099609375">
			<ele>44.4000015258789</ele>
			<time>2014-04-13T11:22:46Z</time>
		</trkpt>
		<trkpt lat="53.9575271606445" lon="13.1521863937378">
			<ele>44.5999984741211</ele>
			<time>2014-04-13T11:22:47Z</time>
		</trkpt>
		<trkpt lat="53.9575004577637" lon="13.1522750854492">
			<ele>44.5</ele>
			<time>2014-04-13T11:22:48Z</time>
		</trkpt>
		<trkpt lat="53.9574775695801" lon="13.1523628234863">
			<ele>44.4000015258789</ele>
			<time>2014-04-13T11:22:49Z</time>
		</trkpt>
		<trkpt lat="53.9574508666992" lon="13.1524477005005">
			<ele>44.5999984741211</ele>
			<time>2014-04-13T11:22:50Z</time>
		</trkpt>
		<trkpt lat="53.9574241638184" lon="13.1525373458862">
			<ele>44.2999992370605</ele>
			<time>2014-04-13T11:22:51Z</time>
		</trkpt>
		<trkpt lat="53.9574012756348" lon="13.1526260375977">
			<ele>44.2999992370605</ele>
			<time>2014-04-13T11:22:52Z</time>
		</trkpt>
		<trkpt lat="53.9573745727539" lon="13.1527109146118">
			<ele>44.0999984741211</ele>
			<time>2014-04-13T11:22:53Z</time>
		</trkpt>
		<trkpt lat="53.957347869873" lon="13.1527996063232">
			<ele>44.2000007629395</ele>
			<time>2014-04-13T11:22:54Z</time>
		</trkpt>
		<trkpt lat="53.9573249816895" lon="13.1528835296631">
			<ele>44.2000007629395</ele>
			<time>2014-04-13T11:22:55Z</time>
		</trkpt>
		<trkpt lat="53.9572982788086" lon="13.1529655456543">
			<ele>44.2000007629395</ele>
			<time>2014-04-13T11:22:56Z</time>
		</trkpt>
		<trkpt lat="53.957275390625" lon="13.1530523300171">
			<ele>44.2999992370605</ele>
			<time>2014-04-13T11:22:57Z</time>
		</trkpt>
		<trkpt lat="53.9572486877441" lon="13.1531324386597">
			<ele>44.2999992370605</ele>
			<time>2014-04-13T11:22:58Z</time>
		</trkpt>
		<trkpt lat="53.9572219848633" lon="13.1532182693481">
			<ele>44.7000007629395</ele>
			<time>2014-04-13T11:22:59Z</time>
		</trkpt>
		<trkpt lat="53.9571952819824" lon="13.1533031463623">
			<ele>44.5999984741211</ele>
			<time>2014-04-13T11:23:00Z</time>
		</trkpt>
		<trkpt lat="53.9571685791016" lon="13.1533937454224">
			<ele>44.5</ele>
			<time>2014-04-13T11:23:01Z</time>
		</trkpt>
		<trkpt lat="53.957145690918" lon="13.1534833908081">
			<ele>44.5</ele>
			<time>2014-04-13T11:23:02Z</time>
		</trkpt>
		<trkpt lat="53.9571189880371" lon="13.1535778045654">
			<ele>44.4000015258789</ele>
			<time>2014-04-13T11:23:03Z</time>
		</trkpt>
		<trkpt lat="53.9570922851563" lon="13.1536731719971">
			<ele>44.2999992370605</ele>
			<time>2014-04-13T11:23:04Z</time>
		</trkpt>
		<trkpt lat="53.9570617675781" lon="13.1537656784058">
			<ele>44.5</ele>
			<time>2014-04-13T11:23:05Z</time>
		</trkpt>
		<trkpt lat="53.9570350646973" lon="13.1538591384888">
			<ele>44.4000015258789</ele>
			<time>2014-04-13T11:23:06Z</time>
		</trkpt>
		<trkpt lat="53.9570121765137" lon="13.1539497375488">
			<ele>44.5999984741211</ele>
			<time>2014-04-13T11:23:07Z</time>
		</trkpt>
		<trkpt lat="53.9569854736328" lon="13.1540412902832">
			<ele>44.7000007629395</ele>
			<time>2014-04-13T11:23:08Z</time>
		</trkpt>
		<trkpt lat="53.956958770752" lon="13.1541309356689">
			<ele>44.5</ele>
			<time>2014-04-13T11:23:09Z</time>
		</trkpt>
		<trkpt lat="53.9569358825684" lon="13.1542234420776">
			<ele>44.7999992370605</ele>
			<time>2014-04-13T11:23:10Z</time>
		</trkpt>
		<trkpt lat="53.9569053649902" lon="13.1543102264404">
			<ele>44.9000015258789</ele>
			<time>2014-04-13T11:23:11Z</time>
		</trkpt>
		<trkpt lat="53.9568824768066" lon="13.1544008255005">
			<ele>45.2000007629395</ele>
			<time>2014-04-13T11:23:12Z</time>
		</trkpt>
		<trkpt lat="53.9568557739258" lon="13.1544914245605">
			<ele>45.2000007629395</ele>
			<time>2014-04-13T11:23:13Z</time>
		</trkpt>
		<trkpt lat="53.9568328857422" lon="13.1545829772949">
			<ele>45.2000007629395</ele>
			<time>2014-04-13T11:23:14Z</time>
		</trkpt>
		<trkpt lat="53.9568099975586" lon="13.154670715332">
			<ele>45.2000007629395</ele>
			<time>2014-04-13T11:23:15Z</time>
		</trkpt>
		<trkpt lat="53.9567832946777" lon="13.1547594070435">
			<ele>45.2999992370605</ele>
			<time>2014-04-13T11:23:16Z</time>
		</trkpt>
		<trkpt lat="53.9567604064941" lon="13.1548452377319">
			<ele>45.2999992370605</ele>
			<time>2014-04-13T11:23:17Z</time>
		</trkpt>
		<trkpt lat="53.9567337036133" lon="13.154932975769">
			<ele>45.5</ele>
			<time>2014-04-13T11:23:18Z</time>
		</trkpt>
		<trkpt lat="53.9567108154297" lon="13.1550197601318">
			<ele>45.5999984741211</ele>
			<time>2014-04-13T11:23:19Z</time>
		</trkpt>
		<trkpt lat="53.9566879272461" lon="13.1551084518433">
			<ele>45.4000015258789</ele>
			<time>2014-04-13T11:23:20Z</time>
		</trkpt>
		<trkpt lat="53.9566612243652" lon="13.1551923751831">
			<ele>45.5</ele>
			<time>2014-04-13T11:23:21Z</time>
		</trkpt>
		<trkpt lat="53.9566345214844" lon="13.1552772521973">
			<ele>45.5999984741211</ele>
			<time>2014-04-13T11:23:22Z</time>
		</trkpt>
		<trkpt lat="53.9566078186035" lon="13.1553640365601">
			<ele>45.5</ele>
			<time>2014-04-13T11:23:23Z</time>
		</trkpt>
		<trkpt lat="53.9565849304199" lon="13.1554508209229">
			<ele>45.7999992370605</ele>
			<time>2014-04-13T11:23:24Z</time>
		</trkpt>
		<trkpt lat="53.9565582275391" lon="13.1555423736572">
			<ele>45.7000007629395</ele>
			<time>2014-04-13T11:23:25Z</time>
		</trkpt>
		<trkpt lat="53.9565315246582" lon="13.1556339263916">
			<ele>45.7000007629395</ele>
			<time>2014-04-13T11:23:26Z</time>
		</trkpt>
		<trkpt lat="53.9565048217773" lon="13.1557197570801">
			<ele>45.5999984741211</ele>
			<time>2014-04-13T11:23:27Z</time>
		</trkpt>
		<trkpt lat="53.9564819335938" lon="13.1558055877686">
			<ele>45.4000015258789</ele>
			<time>2014-04-13T11:23:28Z</time>
		</trkpt>
		<trkpt lat="53.9564552307129" lon="13.1558952331543">
			<ele>45.5</ele>
			<time>2014-04-13T11:23:29Z</time>
		</trkpt>
		<trkpt lat="53.956428527832" lon="13.1559867858887">
			<ele>45.4000015258789</ele>
			<time>2014-04-13T11:23:30Z</time>
		</trkpt>
		<trkpt lat="53.9564018249512" lon="13.1560764312744">
			<ele>45.4000015258789</ele>
			<time>2014-04-13T11:23:31Z</time>
		</trkpt>
		<trkpt lat="53.9563751220703" lon="13.1561651229858">
			<ele>45.2999992370605</ele>
			<time>2014-04-13T11:23:32Z</time>
		</trkpt>
		<trkpt lat="53.9563484191895" lon="13.1562566757202">
			<ele>45.4000015258789</ele>
			<time>2014-04-13T11:23:33Z</time>
		</trkpt>
		<trkpt lat="53.9563217163086" lon="13.1563482284546">
			<ele>45.2999992370605</ele>
			<time>2014-04-13T11:23:34Z</time>
		</trkpt>
		<trkpt lat="53.956298828125" lon="13.156436920166">
			<ele>45.2999992370605</ele>
			<time>2014-04-13T11:23:35Z</time>
		</trkpt>
		<trkpt lat="53.9562721252441" lon="13.1565256118774">
			<ele>45.2999992370605</ele>
			<time>2014-04-13T11:23:36Z</time>
		</trkpt>
		<trkpt lat="53.9562454223633" lon="13.1566162109375">
			<ele>45.4000015258789</ele>
			<time>2014-04-13T11:23:37Z</time>
		</trkpt>
		<trkpt lat="53.9562225341797" lon="13.1567049026489">
			<ele>45.2000007629395</ele>
			<time>2014-04-13T11:23:38Z</time>
		</trkpt>
		<trkpt lat="53.9561958312988" lon="13.1567945480347">
			<ele>45.2000007629395</ele>
			<time>2014-04-13T11:23:39Z</time>
		</trkpt>
		<trkpt lat="53.956169128418" lon="13.1568841934204">
			<ele>45.2999992370605</ele>
			<time>2014-04-13T11:23:40Z</time>
		</trkpt>
		<trkpt lat="53.9561424255371" lon="13.1569728851318">
			<ele>45.5</ele>
			<time>2014-04-13T11:23:41Z</time>
		</trkpt>
		<trkpt lat="53.9561157226563" lon="13.1570634841919">
			<ele>45.4000015258789</ele>
			<time>2014-04-13T11:23:42Z</time>
		</trkpt>
		<trkpt lat="53.9560890197754" lon="13.1571559906006">
			<ele>45.4000015258789</ele>
			<time>2014-04-13T11:23:43Z</time>
		</trkpt>
		<trkpt lat="53.9560623168945" lon="13.1572484970093">
			<ele>45.7000007629395</ele>
			<time>2014-04-13T11:23:44Z</time>
		</trkpt>
		<trkpt lat="53.9560356140137" lon="13.1573419570923">
			<ele>45.7000007629395</ele>
			<time>2014-04-13T11:23:45Z</time>
		</trkpt>
		<trkpt lat="53.9560089111328" lon="13.1574335098267">
			<ele>45.9000015258789</ele>
			<time>2014-04-13T11:23:46Z</time>
		</trkpt>
		<trkpt lat="53.955982208252" lon="13.157525062561">
			<ele>46</ele>
			<time>2014-04-13T11:23:47Z</time>
		</trkpt>
		<trkpt lat="53.9559555053711" lon="13.1576204299927">
			<ele>46.0999984741211</ele>
			<time>2014-04-13T11:23:48Z</time>
		</trkpt>
		<trkpt lat="53.9559288024902" lon="13.15771484375">
			<ele>46</ele>
			<time>2014-04-13T11:23:49Z</time>
		</trkpt>
		<trkpt lat="53.9559020996094" lon="13.1578102111816">
			<ele>46.2999992370605</ele>
			<time>2014-04-13T11:23:50Z</time>
		</trkpt>
		<trkpt lat="53.9558753967285" lon="13.1579065322876">
			<ele>46.5</ele>
			<time>2014-04-13T11:23:51Z</time>
		</trkpt>
		<trkpt lat="53.9558486938477" lon="13.1579999923706">
			<ele>46.4000015258789</ele>
			<time>2014-04-13T11:23:52Z</time>
		</trkpt>
		<trkpt lat="53.9558181762695" lon="13.1580944061279">
			<ele>46.2000007629395</ele>
			<time>2014-04-13T11:23:53Z</time>
		</trkpt>
		<trkpt lat="53.9557876586914" lon="13.1581897735596">
			<ele>45.9000015258789</ele>
			<time>2014-04-13T11:23:54Z</time>
		</trkpt>
		<trkpt lat="53.9557609558105" lon="13.1582832336426">
			<ele>45.5999984741211</ele>
			<time>2014-04-13T11:23:55Z</time>
		</trkpt>
		<trkpt lat="53.9557304382324" lon="13.1583814620972">
			<ele>45.5999984741211</ele>
			<time>2014-04-13T11:23:56Z</time>
		</trkpt>
		<trkpt lat="53.9556999206543" lon="13.1584777832031">
			<ele>45.7000007629395</ele>
			<time>2014-04-13T11:23:57Z</time>
		</trkpt>
		<trkpt lat="53.9556732177734" lon="13.158576965332">
			<ele>45.5999984741211</ele>
			<time>2014-04-13T11:23:58Z</time>
		</trkpt>
		<trkpt lat="53.9556465148926" lon="13.1586771011353">
			<ele>45.5999984741211</ele>
			<time>2014-04-13T11:23:59Z</time>
		</trkpt>
		<trkpt lat="53.9556159973145" lon="13.1587781906128">
			<ele>45.5</ele>
			<time>2014-04-13T11:24:00Z</time>
		</trkpt>
		<trkpt lat="53.9555892944336" lon="13.1588764190674">
			<ele>45.5999984741211</ele>
			<time>2014-04-13T11:24:01Z</time>
		</trkpt>
		<trkpt lat="53.9555587768555" lon="13.1589775085449">
			<ele>45.7999992370605</ele>
			<time>2014-04-13T11:24:02Z</time>
		</trkpt>
		<trkpt lat="53.9555320739746" lon="13.1590757369995">
			<ele>45.9000015258789</ele>
			<time>2014-04-13T11:24:03Z</time>
		</trkpt>
		<trkpt lat="53.9555053710938" lon="13.1591749191284">
			<ele>45.9000015258789</ele>
			<time>2014-04-13T11:24:04Z</time>
		</trkpt>
		<trkpt lat="53.9554748535156" lon="13.1592721939087">
			<ele>46</ele>
			<time>2014-04-13T11:24:05Z</time>
		</trkpt>
		<trkpt lat="53.9554443359375" lon="13.1593704223633">
			<ele>46</ele>
			<time>2014-04-13T11:24:06Z</time>
		</trkpt>
		<trkpt lat="53.9554138183594" lon="13.1594743728638">
			<ele>45.7999992370605</ele>
			<time>2014-04-13T11:24:07Z</time>
		</trkpt>
		<trkpt lat="53.9553833007813" lon="13.1595773696899">
			<ele>45.5999984741211</ele>
			<time>2014-04-13T11:24:08Z</time>
		</trkpt>
		<trkpt lat="53.9553527832031" lon="13.1596803665161">
			<ele>45.4000015258789</ele>
			<time>2014-04-13T11:24:09Z</time>
		</trkpt>
		<trkpt lat="53.955322265625" lon="13.1597871780396">
			<ele>45.2000007629395</ele>
			<time>2014-04-13T11:24:10Z</time>
		</trkpt>
		<trkpt lat="53.9552917480469" lon="13.1598892211914">
			<ele>45.2000007629395</ele>
			<time>2014-04-13T11:24:11Z</time>
		</trkpt>
		<trkpt lat="53.955265045166" lon="13.1599960327148">
			<ele>45.0999984741211</ele>
			<time>2014-04-13T11:24:12Z</time>
		</trkpt>
		<trkpt lat="53.9552345275879" lon="13.1600980758667">
			<ele>45.0999984741211</ele>
			<time>2014-04-13T11:24:13Z</time>
		</trkpt>
		<trkpt lat="53.9552040100098" lon="13.1602067947388">
			<ele>44.9000015258789</ele>
			<time>2014-04-13T11:24:14Z</time>
		</trkpt>
		<trkpt lat="53.9551734924316" lon="13.1603107452393">
			<ele>44.7999992370605</ele>
			<time>2014-04-13T11:24:15Z</time>
		</trkpt>
		<trkpt lat="53.9551391601563" lon="13.1604223251343">
			<ele>44.7000007629395</ele>
			<time>2014-04-13T11:24:16Z</time>
		</trkpt>
		<trkpt lat="53.9551124572754" lon="13.1605272293091">
			<ele>44.5</ele>
			<time>2014-04-13T11:24:17Z</time>
		</trkpt>
		<trkpt lat="53.9550857543945" lon="13.1606388092041">
			<ele>44.5999984741211</ele>
			<time>2014-04-13T11:24:18Z</time>
		</trkpt>
		<trkpt lat="53.9550552368164" lon="13.1607456207275">
			<ele>44.5</ele>
			<time>2014-04-13T11:24:19Z</time>
		</trkpt>
		<trkpt lat="53.955020904541" lon="13.1608505249023">
			<ele>44.5</ele>
			<time>2014-04-13T11:24:20Z</time>
		</trkpt>
		<trkpt lat="53.9549903869629" lon="13.1609649658203">
			<ele>44.7000007629395</ele>
			<time>2014-04-13T11:24:21Z</time>
		</trkpt>
		<trkpt lat="53.9549598693848" lon="13.1610794067383">
			<ele>44.5</ele>
			<time>2014-04-13T11:24:22Z</time>
		</trkpt>
		<trkpt lat="53.9549255371094" lon="13.1611890792847">
			<ele>44.7999992370605</ele>
			<time>2014-04-13T11:24:23Z</time>
		</trkpt>
		<trkpt lat="53.9548950195313" lon="13.1612997055054">
			<ele>44.7000007629395</ele>
			<time>2014-04-13T11:24:24Z</time>
		</trkpt>
		<trkpt lat="53.9548645019531" lon="13.1614122390747">
			<ele>44.7000007629395</ele>
			<time>2014-04-13T11:24:25Z</time>
		</trkpt>
		<trkpt lat="53.954833984375" lon="13.1615257263184">
			<ele>44.7000007629395</ele>
			<time>2014-04-13T11:24:26Z</time>
		</trkpt>
		<trkpt lat="53.9548034667969" lon="13.1616430282593">
			<ele>44.7000007629395</ele>
			<time>2014-04-13T11:24:27Z</time>
		</trkpt>
		<trkpt lat="53.9547691345215" lon="13.1617612838745">
			<ele>44.4000015258789</ele>
			<time>2014-04-13T11:24:28Z</time>
		</trkpt>
		<trkpt lat="53.9547309875488" lon="13.1618785858154">
			<ele>44.0999984741211</ele>
			<time>2014-04-13T11:24:29Z</time>
		</trkpt>
		<trkpt lat="53.9547004699707" lon="13.1619939804077">
			<ele>44.0999984741211</ele>
			<time>2014-04-13T11:24:30Z</time>
		</trkpt>
		<trkpt lat="53.954662322998" lon="13.1621141433716">
			<ele>43.9000015258789</ele>
			<time>2014-04-13T11:24:31Z</time>
		</trkpt>
		<trkpt lat="53.9546279907227" lon="13.1622362136841">
			<ele>43.9000015258789</ele>
			<time>2014-04-13T11:24:32Z</time>
		</trkpt>
		<trkpt lat="53.9545936584473" lon="13.1623620986938">
			<ele>44</ele>
			<time>2014-04-13T11:24:33Z</time>
		</trkpt>
		<trkpt lat="53.9545593261719" lon="13.1624879837036">
			<ele>44</ele>
			<time>2014-04-13T11:24:34Z</time>
		</trkpt>
		<trkpt lat="53.9545249938965" lon="13.1626138687134">
			<ele>44</ele>
			<time>2014-04-13T11:24:35Z</time>
		</trkpt>
		<trkpt lat="53.9544830322266" lon="13.1627368927002">
			<ele>43.9000015258789</ele>
			<time>2014-04-13T11:24:36Z</time>
		</trkpt>
		<trkpt lat="53.9544448852539" lon="13.1628637313843">
			<ele>43.9000015258789</ele>
			<time>2014-04-13T11:24:37Z</time>
		</trkpt>
		<trkpt lat="53.9544105529785" lon="13.1629943847656">
			<ele>43.7000007629395</ele>
			<time>2014-04-13T11:24:38Z</time>
		</trkpt>
		<trkpt lat="53.9543762207031" lon="13.1631212234497">
			<ele>43.7000007629395</ele>
			<time>2014-04-13T11:24:39Z</time>
		</trkpt>
		<trkpt lat="53.9543380737305" lon="13.1632499694824">
			<ele>43.5</ele>
			<time>2014-04-13T11:24:40Z</time>
		</trkpt>
		<trkpt lat="53.9542999267578" lon="13.1633749008179">
			<ele>43.4000015258789</ele>
			<time>2014-04-13T11:24:41Z</time>
		</trkpt>
		<trkpt lat="53.9542617797852" lon="13.1635036468506">
			<ele>43.5</ele>
			<time>2014-04-13T11:24:42Z</time>
		</trkpt>
		<trkpt lat="53.9542236328125" lon="13.163628578186">
			<ele>43.5</ele>
			<time>2014-04-13T11:24:43Z</time>
		</trkpt>
		<trkpt lat="53.9541893005371" lon="13.1637554168701">
			<ele>43.5999984741211</ele>
			<time>2014-04-13T11:24:44Z</time>
		</trkpt>
		<trkpt lat="53.9541473388672" lon="13.1638822555542">
			<ele>43.5999984741211</ele>
			<time>2014-04-13T11:24:45Z</time>
		</trkpt>
		<trkpt lat="53.9541091918945" lon="13.1640129089355">
			<ele>43.4000015258789</ele>
			<time>2014-04-13T11:24:46Z</time>
		</trkpt>
		<trkpt lat="53.9540748596191" lon="13.164134979248">
			<ele>43.4000015258789</ele>
			<time>2014-04-13T11:24:47Z</time>
		</trkpt>
		<trkpt lat="53.9540367126465" lon="13.1642646789551">
			<ele>43.4000015258789</ele>
			<time>2014-04-13T11:24:48Z</time>
		</trkpt>
		<trkpt lat="53.9540023803711" lon="13.1643924713135">
			<ele>43.5999984741211</ele>
			<time>2014-04-13T11:24:49Z</time>
		</trkpt>
		<trkpt lat="53.9539680480957" lon="13.1645193099976">
			<ele>43.4000015258789</ele>
			<time>2014-04-13T11:24:50Z</time>
		</trkpt>
		<trkpt lat="53.953929901123" lon="13.1646461486816">
			<ele>43.4000015258789</ele>
			<time>2014-04-13T11:24:51Z</time>
		</trkpt>
		<trkpt lat="53.9538955688477" lon="13.1647729873657">
			<ele>43.4000015258789</ele>
			<time>2014-04-13T11:24:52Z</time>
		</trkpt>
		<trkpt lat="53.953857421875" lon="13.1648998260498">
			<ele>43.2999992370605</ele>
			<time>2014-04-13T11:24:53Z</time>
		</trkpt>
		<trkpt lat="53.9538230895996" lon="13.1650266647339">
			<ele>43.2000007629395</ele>
			<time>2014-04-13T11:24:54Z</time>
		</trkpt>
		<trkpt lat="53.953784942627" lon="13.1651525497437">
			<ele>43.4000015258789</ele>
			<time>2014-04-13T11:24:55Z</time>
		</trkpt>
		<trkpt lat="53.9537506103516" lon="13.1652784347534">
			<ele>43.7000007629395</ele>
			<time>2014-04-13T11:24:56Z</time>
		</trkpt>
		<trkpt lat="53.9537124633789" lon="13.1654052734375">
			<ele>43.5</ele>
			<time>2014-04-13T11:24:57Z</time>
		</trkpt>
		<trkpt lat="53.9536781311035" lon="13.1655263900757">
			<ele>43.7000007629395</ele>
			<time>2014-04-13T11:24:58Z</time>
		</trkpt>
		<trkpt lat="53.9536437988281" lon="13.1656522750854">
			<ele>43.5999984741211</ele>
			<time>2014-04-13T11:24:59Z</time>
		</trkpt>
		<trkpt lat="53.9536056518555" lon="13.1657752990723">
			<ele>43.5999984741211</ele>
			<time>2014-04-13T11:25:00Z</time>
		</trkpt>
		<trkpt lat="53.9535675048828" lon="13.1659030914307">
			<ele>43.7000007629395</ele>
			<time>2014-04-13T11:25:01Z</time>
		</trkpt>
		<trkpt lat="53.9535293579102" lon="13.1660280227661">
			<ele>43.7999992370605</ele>
			<time>2014-04-13T11:25:02Z</time>
		</trkpt>
		<trkpt lat="53.9534950256348" lon="13.1661539077759">
			<ele>43.7999992370605</ele>
			<time>2014-04-13T11:25:03Z</time>
		</trkpt>
		<trkpt lat="53.9534568786621" lon="13.166277885437">
			<ele>43.9000015258789</ele>
			<time>2014-04-13T11:25:04Z</time>
		</trkpt>
		<trkpt lat="53.9534225463867" lon="13.1664047241211">
			<ele>43.5999984741211</ele>
			<time>2014-04-13T11:25:05Z</time>
		</trkpt>
		<trkpt lat="53.9533882141113" lon="13.166524887085">
			<ele>43.7999992370605</ele>
			<time>2014-04-13T11:25:06Z</time>
		</trkpt>
		<trkpt lat="53.9533500671387" lon="13.1666479110718">
			<ele>43.9000015258789</ele>
			<time>2014-04-13T11:25:07Z</time>
		</trkpt>
		<trkpt lat="53.9533157348633" lon="13.1667709350586">
			<ele>43.5999984741211</ele>
			<time>2014-04-13T11:25:08Z</time>
		</trkpt>
		<trkpt lat="53.9532814025879" lon="13.1668968200684">
			<ele>43.7999992370605</ele>
			<time>2014-04-13T11:25:09Z</time>
		</trkpt>
		<trkpt lat="53.9532470703125" lon="13.1670169830322">
			<ele>43.7000007629395</ele>
			<time>2014-04-13T11:25:10Z</time>
		</trkpt>
		<trkpt lat="53.9532089233398" lon="13.1671390533447">
			<ele>43.7999992370605</ele>
			<time>2014-04-13T11:25:11Z</time>
		</trkpt>
		<trkpt lat="53.9531745910645" lon="13.167254447937">
			<ele>43.7999992370605</ele>
			<time>2014-04-13T11:25:12Z</time>
		</trkpt>
		<trkpt lat="53.9531402587891" lon="13.1673727035522">
			<ele>43.7999992370605</ele>
			<time>2014-04-13T11:25:13Z</time>
		</trkpt>
		<trkpt lat="53.9531021118164" lon="13.1674890518188">
			<ele>43.9000015258789</ele>
			<time>2014-04-13T11:25:14Z</time>
		</trkpt>
		<trkpt lat="53.9530639648438" lon="13.1676025390625">
			<ele>43.7000007629395</ele>
			<time>2014-04-13T11:25:15Z</time>
		</trkpt>
		<trkpt lat="53.9530258178711" lon="13.1677150726318">
			<ele>43.7000007629395</ele>
			<time>2014-04-13T11:25:16Z</time>
		</trkpt>
		<trkpt lat="53.9529876708984" lon="13.1678276062012">
			<ele>43.4000015258789</ele>
			<time>2014-04-13T11:25:17Z</time>
		</trkpt>
		<trkpt lat="53.9529418945313" lon="13.1679430007935">
			<ele>43</ele>
			<time>2014-04-13T11:25:18Z</time>
		</trkpt>
		<trkpt lat="53.9528999328613" lon="13.1680583953857">
			<ele>43.0999984741211</ele>
			<time>2014-04-13T11:25:19Z</time>
		</trkpt>
		<trkpt lat="53.9528579711914" lon="13.1681699752808">
			<ele>43</ele>
			<time>2014-04-13T11:25:22Z</time>
		</trkpt>
		<trkpt lat="53.9527397155762" lon="13.1685066223145">
			<ele>43</ele>
			<time>2014-04-13T11:25:23Z</time>
		</trkpt>
		<trkpt lat="53.9526977539063" lon="13.1686134338379">
			<ele>42.7999992370605</ele>
			<time>2014-04-13T11:25:24Z</time>
		</trkpt>
		<trkpt lat="53.9526596069336" lon="13.1687202453613">
			<ele>43</ele>
			<time>2014-04-13T11:25:25Z</time>
		</trkpt>
		<trkpt lat="53.9526176452637" lon="13.168830871582">
			<ele>43.2000007629395</ele>
			<time>2014-04-13T11:25:26Z</time>
		</trkpt>
		<trkpt lat="53.952579498291" lon="13.1689357757568">
			<ele>43.2000007629395</ele>
			<time>2014-04-13T11:25:28Z</time>
		</trkpt>
		<trkpt lat="53.9525032043457" lon="13.1691560745239">
			<ele>43.0999984741211</ele>
			<time>2014-04-13T11:25:31Z</time>
		</trkpt>
		<trkpt lat="53.9524230957031" lon="13.1695137023926">
			<ele>43.2999992370605</ele>
			<time>2014-04-13T11:25:32Z</time>
		</trkpt>
		<trkpt lat="53.9524002075195" lon="13.1696434020996">
			<ele>43.2000007629395</ele>
			<time>2014-04-13T11:25:34Z</time>
		</trkpt>
		<trkpt lat="53.9523658752441" lon="13.1699047088623">
			<ele>43.5999984741211</ele>
			<time>2014-04-13T11:25:35Z</time>
		</trkpt>
		<trkpt lat="53.9523468017578" lon="13.1700315475464">
			<ele>43.2999992370605</ele>
			<time>2014-04-13T11:25:36Z</time>
		</trkpt>
		<trkpt lat="53.9523315429688" lon="13.1701593399048">
			<ele>43.2000007629395</ele>
			<time>2014-04-13T11:25:37Z</time>
		</trkpt>
		<trkpt lat="53.9523086547852" lon="13.1702852249146">
			<ele>43.4000015258789</ele>
			<time>2014-04-13T11:25:38Z</time>
		</trkpt>
		<trkpt lat="53.9522933959961" lon="13.1704053878784">
			<ele>43.4000015258789</ele>
			<time>2014-04-13T11:25:39Z</time>
		</trkpt>
		<trkpt lat="53.9522743225098" lon="13.1705312728882">
			<ele>43</ele>
			<time>2014-04-13T11:25:40Z</time>
		</trkpt>
		<trkpt lat="53.9522590637207" lon="13.1706600189209">
			<ele>42.9000015258789</ele>
			<time>2014-04-13T11:25:41Z</time>
		</trkpt>
		<trkpt lat="53.9522438049316" lon="13.170783996582">
			<ele>43.2000007629395</ele>
			<time>2014-04-13T11:25:42Z</time>
		</trkpt>
		<trkpt lat="53.9522285461426" lon="13.1709051132202">
			<ele>43.5</ele>
			<time>2014-04-13T11:25:43Z</time>
		</trkpt>
		<trkpt lat="53.9522132873535" lon="13.17103099823">
			<ele>43.7000007629395</ele>
			<time>2014-04-13T11:25:44Z</time>
		</trkpt>
		<trkpt lat="53.9521942138672" lon="13.1711521148682">
			<ele>43.5</ele>
			<time>2014-04-13T11:25:45Z</time>
		</trkpt>
		<trkpt lat="53.9521789550781" lon="13.171275138855">
			<ele>43.5</ele>
			<time>2014-04-13T11:25:46Z</time>
		</trkpt>
		<trkpt lat="53.9521598815918" lon="13.1713972091675">
			<ele>43.0999984741211</ele>
			<time>2014-04-13T11:25:47Z</time>
		</trkpt>
		<trkpt lat="53.9521446228027" lon="13.1715221405029">
			<ele>43.2000007629395</ele>
			<time>2014-04-13T11:25:48Z</time>
		</trkpt>
		<trkpt lat="53.9521293640137" lon="13.1716480255127">
			<ele>43</ele>
			<time>2014-04-13T11:25:49Z</time>
		</trkpt>
		<trkpt lat="53.9521102905273" lon="13.1717710494995">
			<ele>43.2999992370605</ele>
			<time>2014-04-13T11:25:50Z</time>
		</trkpt>
		<trkpt lat="53.952091217041" lon="13.1718978881836">
			<ele>43.5999984741211</ele>
			<time>2014-04-13T11:25:51Z</time>
		</trkpt>
		<trkpt lat="53.952075958252" lon="13.1720237731934">
			<ele>43.5999984741211</ele>
			<time>2014-04-13T11:25:52Z</time>
		</trkpt>
		<trkpt lat="53.9520606994629" lon="13.1721506118774">
			<ele>43.5999984741211</ele>
			<time>2014-04-13T11:25:53Z</time>
		</trkpt>
		<trkpt lat="53.9520454406738" lon="13.1722717285156">
			<ele>43.7000007629395</ele>
			<time>2014-04-13T11:25:54Z</time>
		</trkpt>
		<trkpt lat="53.9520301818848" lon="13.1723937988281">
			<ele>43.5999984741211</ele>
			<time>2014-04-13T11:25:55Z</time>
		</trkpt>
		<trkpt lat="53.9520111083984" lon="13.1725101470947">
			<ele>43.5999984741211</ele>
			<time>2014-04-13T11:25:56Z</time>
		</trkpt>
		<trkpt lat="53.9519958496094" lon="13.17262840271">
			<ele>44</ele>
			<time>2014-04-13T11:25:57Z</time>
		</trkpt>
		<trkpt lat="53.9519805908203" lon="13.1727504730225">
			<ele>44.2999992370605</ele>
			<time>2014-04-13T11:25:58Z</time>
		</trkpt>
		<trkpt lat="53.951961517334" lon="13.1728734970093">
			<ele>44.0999984741211</ele>
			<time>2014-04-13T11:25:59Z</time>
		</trkpt>
		<trkpt lat="53.9519462585449" lon="13.1729965209961">
			<ele>44.2999992370605</ele>
			<time>2014-04-13T11:26:00Z</time>
		</trkpt>
		<trkpt lat="53.9519271850586" lon="13.1731214523315">
			<ele>44.2999992370605</ele>
			<time>2014-04-13T11:26:01Z</time>
		</trkpt>
		<trkpt lat="53.9519119262695" lon="13.173246383667">
			<ele>44.4000015258789</ele>
			<time>2014-04-13T11:26:02Z</time>
		</trkpt>
		<trkpt lat="53.9518966674805" lon="13.1733713150024">
			<ele>44.0999984741211</ele>
			<time>2014-04-13T11:26:03Z</time>
		</trkpt>
		<trkpt lat="53.9518814086914" lon="13.1734962463379">
			<ele>44.2000007629395</ele>
			<time>2014-04-13T11:26:04Z</time>
		</trkpt>
		<trkpt lat="53.9518623352051" lon="13.1736278533936">
			<ele>43.9000015258789</ele>
			<time>2014-04-13T11:26:05Z</time>
		</trkpt>
		<trkpt lat="53.951847076416" lon="13.1737518310547">
			<ele>44</ele>
			<time>2014-04-13T11:26:06Z</time>
		</trkpt>
		<trkpt lat="53.951831817627" lon="13.1738786697388">
			<ele>43.7999992370605</ele>
			<time>2014-04-13T11:26:07Z</time>
		</trkpt>
		<trkpt lat="53.9518165588379" lon="13.1740026473999">
			<ele>43.7000007629395</ele>
			<time>2014-04-13T11:26:08Z</time>
		</trkpt>
		<trkpt lat="53.9518051147461" lon="13.1741304397583">
			<ele>43.7999992370605</ele>
			<time>2014-04-13T11:26:09Z</time>
		</trkpt>
		<trkpt lat="53.951789855957" lon="13.1742534637451">
			<ele>43.9000015258789</ele>
			<time>2014-04-13T11:26:10Z</time>
		</trkpt>
		<trkpt lat="53.951774597168" lon="13.1743831634521">
			<ele>43.9000015258789</ele>
			<time>2014-04-13T11:26:11Z</time>
		</trkpt>
		<trkpt lat="53.9517631530762" lon="13.1745157241821">
			<ele>44</ele>
			<time>2014-04-13T11:26:12Z</time>
		</trkpt>
		<trkpt lat="53.9517478942871" lon="13.1746435165405">
			<ele>43.9000015258789</ele>
			<time>2014-04-13T11:26:13Z</time>
		</trkpt>
		<trkpt lat="53.9517364501953" lon="13.1747713088989">
			<ele>44</ele>
			<time>2014-04-13T11:26:14Z</time>
		</trkpt>
		<trkpt lat="53.9517250061035" lon="13.1748962402344">
			<ele>43.9000015258789</ele>
			<time>2014-04-13T11:26:15Z</time>
		</trkpt>
		<trkpt lat="53.9517059326172" lon="13.1750268936157">
			<ele>43.7999992370605</ele>
			<time>2014-04-13T11:26:16Z</time>
		</trkpt>
		<trkpt lat="53.9516906738281" lon="13.1751623153687">
			<ele>43.9000015258789</ele>
			<time>2014-04-13T11:26:17Z</time>
		</trkpt>
		<trkpt lat="53.9516754150391" lon="13.1752977371216">
			<ele>44</ele>
			<time>2014-04-13T11:26:18Z</time>
		</trkpt>
		<trkpt lat="53.95166015625" lon="13.1754274368286">
			<ele>43.9000015258789</ele>
			<time>2014-04-13T11:26:19Z</time>
		</trkpt>
		<trkpt lat="53.9516448974609" lon="13.1755533218384">
			<ele>43.7999992370605</ele>
			<time>2014-04-13T11:26:20Z</time>
		</trkpt>
		<trkpt lat="53.9516296386719" lon="13.1756763458252">
			<ele>43.4000015258789</ele>
			<time>2014-04-13T11:26:21Z</time>
		</trkpt>
		<trkpt lat="53.9516143798828" lon="13.1758098602295">
			<ele>43.2999992370605</ele>
			<time>2014-04-13T11:26:22Z</time>
		</trkpt>
		<trkpt lat="53.9515953063965" lon="13.1759414672852">
			<ele>43</ele>
			<time>2014-04-13T11:26:23Z</time>
		</trkpt>
		<trkpt lat="53.9515762329102" lon="13.1760721206665">
			<ele>43.0999984741211</ele>
			<time>2014-04-13T11:26:24Z</time>
		</trkpt>
		<trkpt lat="53.9515609741211" lon="13.1762065887451">
			<ele>42.7999992370605</ele>
			<time>2014-04-13T11:26:25Z</time>
		</trkpt>
		<trkpt lat="53.951545715332" lon="13.1763343811035">
			<ele>43.0999984741211</ele>
			<time>2014-04-13T11:26:26Z</time>
		</trkpt>
		<trkpt lat="53.9515342712402" lon="13.1764631271362">
			<ele>43.2000007629395</ele>
			<time>2014-04-13T11:26:27Z</time>
		</trkpt>
		<trkpt lat="53.9515190124512" lon="13.1765956878662">
			<ele>43.2000007629395</ele>
			<time>2014-04-13T11:26:28Z</time>
		</trkpt>
		<trkpt lat="53.9514999389648" lon="13.1767282485962">
			<ele>43.0999984741211</ele>
			<time>2014-04-13T11:26:29Z</time>
		</trkpt>
		<trkpt lat="53.9514808654785" lon="13.1768531799316">
			<ele>43.0999984741211</ele>
			<time>2014-04-13T11:26:30Z</time>
		</trkpt>
		<trkpt lat="53.9514694213867" lon="13.1769866943359">
			<ele>43</ele>
			<time>2014-04-13T11:26:31Z</time>
		</trkpt>
		<trkpt lat="53.9514503479004" lon="13.1771154403687">
			<ele>42.4000015258789</ele>
			<time>2014-04-13T11:26:32Z</time>
		</trkpt>
		<trkpt lat="53.9514312744141" lon="13.1772432327271">
			<ele>42.2999992370605</ele>
			<time>2014-04-13T11:26:33Z</time>
		</trkpt>
		<trkpt lat="53.9514198303223" lon="13.1773681640625">
			<ele>42.7000007629395</ele>
			<time>2014-04-13T11:26:34Z</time>
		</trkpt>
		<trkpt lat="53.9514045715332" lon="13.1774950027466">
			<ele>42.7999992370605</ele>
			<time>2014-04-13T11:26:35Z</time>
		</trkpt>
		<trkpt lat="53.9513893127441" lon="13.1776285171509">
			<ele>43.2000007629395</ele>
			<time>2014-04-13T11:26:36Z</time>
		</trkpt>
		<trkpt lat="53.9513740539551" lon="13.1777563095093">
			<ele>43.4000015258789</ele>
			<time>2014-04-13T11:26:37Z</time>
		</trkpt>
		<trkpt lat="53.951358795166" lon="13.1778841018677">
			<ele>43.4000015258789</ele>
			<time>2014-04-13T11:26:38Z</time>
		</trkpt>
		<trkpt lat="53.951343536377" lon="13.1780223846436">
			<ele>43.4000015258789</ele>
			<time>2014-04-13T11:26:39Z</time>
		</trkpt>
		<trkpt lat="53.9513244628906" lon="13.1781511306763">
			<ele>43.4000015258789</ele>
			<time>2014-04-13T11:26:40Z</time>
		</trkpt>
		<trkpt lat="53.9513092041016" lon="13.1782836914063">
			<ele>43.7000007629395</ele>
			<time>2014-04-13T11:26:41Z</time>
		</trkpt>
		<trkpt lat="53.9512939453125" lon="13.1784114837646">
			<ele>43.7999992370605</ele>
			<time>2014-04-13T11:26:42Z</time>
		</trkpt>
		<trkpt lat="53.9512786865234" lon="13.1785373687744">
			<ele>43.7000007629395</ele>
			<time>2014-04-13T11:26:43Z</time>
		</trkpt>
		<trkpt lat="53.9512634277344" lon="13.1786613464355">
			<ele>43.5</ele>
			<time>2014-04-13T11:26:44Z</time>
		</trkpt>
		<trkpt lat="53.9512481689453" lon="13.1787881851196">
			<ele>43.2000007629395</ele>
			<time>2014-04-13T11:26:45Z</time>
		</trkpt>
		<trkpt lat="53.951229095459" lon="13.178918838501">
			<ele>43</ele>
			<time>2014-04-13T11:26:46Z</time>
		</trkpt>
		<trkpt lat="53.9512176513672" lon="13.1790447235107">
			<ele>43.0999984741211</ele>
			<time>2014-04-13T11:26:47Z</time>
		</trkpt>
		<trkpt lat="53.9512023925781" lon="13.1791696548462">
			<ele>43.0999984741211</ele>
			<time>2014-04-13T11:26:48Z</time>
		</trkpt>
		<trkpt lat="53.9511871337891" lon="13.179292678833">
			<ele>42.9000015258789</ele>
			<time>2014-04-13T11:26:49Z</time>
		</trkpt>
		<trkpt lat="53.951171875" lon="13.17942237854">
			<ele>42.5</ele>
			<time>2014-04-13T11:26:50Z</time>
		</trkpt>
		<trkpt lat="53.9511528015137" lon="13.1795482635498">
			<ele>42.7999992370605</ele>
			<time>2014-04-13T11:26:51Z</time>
		</trkpt>
		<trkpt lat="53.9511375427246" lon="13.1796741485596">
			<ele>42.9000015258789</ele>
			<time>2014-04-13T11:26:52Z</time>
		</trkpt>
		<trkpt lat="53.9511184692383" lon="13.1798009872437">
			<ele>43.0999984741211</ele>
			<time>2014-04-13T11:26:53Z</time>
		</trkpt>
		<trkpt lat="53.9511070251465" lon="13.1799249649048">
			<ele>43</ele>
			<time>2014-04-13T11:26:54Z</time>
		</trkpt>
		<trkpt lat="53.9510917663574" lon="13.1800518035889">
			<ele>42.7999992370605</ele>
			<time>2014-04-13T11:26:55Z</time>
		</trkpt>
		<trkpt lat="53.9510765075684" lon="13.18017578125">
			<ele>42.7000007629395</ele>
			<time>2014-04-13T11:26:56Z</time>
		</trkpt>
		<trkpt lat="53.9510612487793" lon="13.1803007125854">
			<ele>42.5</ele>
			<time>2014-04-13T11:26:57Z</time>
		</trkpt>
		<trkpt lat="53.9510459899902" lon="13.1804265975952">
			<ele>42.7000007629395</ele>
			<time>2014-04-13T11:26:58Z</time>
		</trkpt>
		<trkpt lat="53.9510307312012" lon="13.1805515289307">
			<ele>42.7999992370605</ele>
			<time>2014-04-13T11:26:59Z</time>
		</trkpt>
		<trkpt lat="53.9510154724121" lon="13.1806774139404">
			<ele>42.7999992370605</ele>
			<time>2014-04-13T11:27:00Z</time>
		</trkpt>
		<trkpt lat="53.951000213623" lon="13.1808052062988">
			<ele>42.7000007629395</ele>
			<time>2014-04-13T11:27:01Z</time>
		</trkpt>
		<trkpt lat="53.950984954834" lon="13.1809329986572">
			<ele>42.7999992370605</ele>
			<time>2014-04-13T11:27:02Z</time>
		</trkpt>
		<trkpt lat="53.9509658813477" lon="13.1810617446899">
			<ele>42.7000007629395</ele>
			<time>2014-04-13T11:27:03Z</time>
		</trkpt>
		<trkpt lat="53.9509506225586" lon="13.181191444397">
			<ele>42.7000007629395</ele>
			<time>2014-04-13T11:27:04Z</time>
		</trkpt>
		<trkpt lat="53.9509353637695" lon="13.1813163757324">
			<ele>42.4000015258789</ele>
			<time>2014-04-13T11:27:05Z</time>
		</trkpt>
		<trkpt lat="53.9509239196777" lon="13.1814422607422">
			<ele>42.0999984741211</ele>
			<time>2014-04-13T11:27:06Z</time>
		</trkpt>
		<trkpt lat="53.9509086608887" lon="13.1815729141235">
			<ele>42.2999992370605</ele>
			<time>2014-04-13T11:27:07Z</time>
		</trkpt>
		<trkpt lat="53.9508934020996" lon="13.1817035675049">
			<ele>42.4000015258789</ele>
			<time>2014-04-13T11:27:08Z</time>
		</trkpt>
		<trkpt lat="53.9508781433105" lon="13.1818284988403">
			<ele>42.4000015258789</ele>
			<time>2014-04-13T11:27:09Z</time>
		</trkpt>
		<trkpt lat="53.9508628845215" lon="13.1819562911987">
			<ele>42.5999984741211</ele>
			<time>2014-04-13T11:27:10Z</time>
		</trkpt>
		<trkpt lat="53.9508476257324" lon="13.1820859909058">
			<ele>42.5</ele>
			<time>2014-04-13T11:27:11Z</time>
		</trkpt>
		<trkpt lat="53.9508323669434" lon="13.1822137832642">
			<ele>42.5999984741211</ele>
			<time>2014-04-13T11:27:12Z</time>
		</trkpt>
		<trkpt lat="53.9508171081543" lon="13.1823453903198">
			<ele>42.7999992370605</ele>
			<time>2014-04-13T11:27:13Z</time>
		</trkpt>
		<trkpt lat="53.9508018493652" lon="13.1824722290039">
			<ele>42.7999992370605</ele>
			<time>2014-04-13T11:27:14Z</time>
		</trkpt>
		<trkpt lat="53.9507865905762" lon="13.182599067688">
			<ele>42.9000015258789</ele>
			<time>2014-04-13T11:27:15Z</time>
		</trkpt>
		<trkpt lat="53.9507713317871" lon="13.1827268600464">
			<ele>43</ele>
			<time>2014-04-13T11:27:16Z</time>
		</trkpt>
		<trkpt lat="53.950756072998" lon="13.1828517913818">
			<ele>42.9000015258789</ele>
			<time>2014-04-13T11:27:17Z</time>
		</trkpt>
		<trkpt lat="53.950740814209" lon="13.1829776763916">
			<ele>42.7999992370605</ele>
			<time>2014-04-13T11:27:18Z</time>
		</trkpt>
		<trkpt lat="53.9507255554199" lon="13.1831035614014">
			<ele>42.9000015258789</ele>
			<time>2014-04-13T11:27:19Z</time>
		</trkpt>
		<trkpt lat="53.9507064819336" lon="13.1832313537598">
			<ele>42.9000015258789</ele>
			<time>2014-04-13T11:27:20Z</time>
		</trkpt>
		<trkpt lat="53.9506912231445" lon="13.1833553314209">
			<ele>42.9000015258789</ele>
			<time>2014-04-13T11:27:21Z</time>
		</trkpt>
		<trkpt lat="53.9506759643555" lon="13.1834802627563">
			<ele>42.9000015258789</ele>
			<time>2014-04-13T11:27:22Z</time>
		</trkpt>
		<trkpt lat="53.9506607055664" lon="13.1836090087891">
			<ele>42.5999984741211</ele>
			<time>2014-04-13T11:27:23Z</time>
		</trkpt>
		<trkpt lat="53.9506454467773" lon="13.1837329864502">
			<ele>42.4000015258789</ele>
			<time>2014-04-13T11:27:24Z</time>
		</trkpt>
		<trkpt lat="53.950626373291" lon="13.1838645935059">
			<ele>42.4000015258789</ele>
			<time>2014-04-13T11:27:25Z</time>
		</trkpt>
		<trkpt lat="53.950611114502" lon="13.1839876174927">
			<ele>42.5</ele>
			<time>2014-04-13T11:27:26Z</time>
		</trkpt>
		<trkpt lat="53.9505958557129" lon="13.1841154098511">
			<ele>42.4000015258789</ele>
			<time>2014-04-13T11:27:27Z</time>
		</trkpt>
		<trkpt lat="53.9505767822266" lon="13.1842403411865">
			<ele>42.5</ele>
			<time>2014-04-13T11:27:28Z</time>
		</trkpt>
		<trkpt lat="53.9505577087402" lon="13.1843690872192">
			<ele>42.4000015258789</ele>
			<time>2014-04-13T11:27:29Z</time>
		</trkpt>
		<trkpt lat="53.9505386352539" lon="13.1844959259033">
			<ele>42.0999984741211</ele>
			<time>2014-04-13T11:27:30Z</time>
		</trkpt>
		<trkpt lat="53.9505195617676" lon="13.1846208572388">
			<ele>42.2999992370605</ele>
			<time>2014-04-13T11:27:31Z</time>
		</trkpt>
		<trkpt lat="53.9505043029785" lon="13.1847524642944">
			<ele>42.4000015258789</ele>
			<time>2014-04-13T11:27:32Z</time>
		</trkpt>
		<trkpt lat="53.9504928588867" lon="13.1848793029785">
			<ele>42.4000015258789</ele>
			<time>2014-04-13T11:27:33Z</time>
		</trkpt>
		<trkpt lat="53.9504890441895" lon="13.1850128173828">
			<ele>42.2000007629395</ele>
			<time>2014-04-13T11:27:34Z</time>
		</trkpt>
		<trkpt lat="53.9505004882813" lon="13.1851463317871">
			<ele>42.2999992370605</ele>
			<time>2014-04-13T11:27:35Z</time>
		</trkpt>
		<trkpt lat="53.9505233764648" lon="13.1852741241455">
			<ele>42.2000007629395</ele>
			<time>2014-04-13T11:27:36Z</time>
		</trkpt>
		<trkpt lat="53.9505462646484" lon="13.1853971481323">
			<ele>42.5</ele>
			<time>2014-04-13T11:27:37Z</time>
		</trkpt>
		<trkpt lat="53.950569152832" lon="13.1855230331421">
			<ele>42.5999984741211</ele>
			<time>2014-04-13T11:27:38Z</time>
		</trkpt>
		<trkpt lat="53.9505958557129" lon="13.1856498718262">
			<ele>42.5999984741211</ele>
			<time>2014-04-13T11:27:39Z</time>
		</trkpt>
		<trkpt lat="53.9506187438965" lon="13.1857757568359">
			<ele>42.7999992370605</ele>
			<time>2014-04-13T11:27:40Z</time>
		</trkpt>
		<trkpt lat="53.9506416320801" lon="13.1859006881714">
			<ele>42.5999984741211</ele>
			<time>2014-04-13T11:27:41Z</time>
		</trkpt>
		<trkpt lat="53.9506683349609" lon="13.1860294342041">
			<ele>42.2999992370605</ele>
			<time>2014-04-13T11:27:42Z</time>
		</trkpt>
		<trkpt lat="53.9506950378418" lon="13.1861600875854">
			<ele>42.2000007629395</ele>
			<time>2014-04-13T11:27:43Z</time>
		</trkpt>
		<trkpt lat="53.9507179260254" lon="13.1862907409668">
			<ele>42.0999984741211</ele>
			<time>2014-04-13T11:27:44Z</time>
		</trkpt>
		<trkpt lat="53.950740814209" lon="13.1864213943481">
			<ele>41.9000015258789</ele>
			<time>2014-04-13T11:27:45Z</time>
		</trkpt>
		<trkpt lat="53.9507637023926" lon="13.1865530014038">
			<ele>41.7999992370605</ele>
			<time>2014-04-13T11:27:46Z</time>
		</trkpt>
		<trkpt lat="53.9507904052734" lon="13.1866760253906">
			<ele>41.5</ele>
			<time>2014-04-13T11:27:47Z</time>
		</trkpt>
		<trkpt lat="53.950813293457" lon="13.186803817749">
			<ele>41.4000015258789</ele>
			<time>2014-04-13T11:27:48Z</time>
		</trkpt>
		<trkpt lat="53.9508361816406" lon="13.1869277954102">
			<ele>41.5</ele>
			<time>2014-04-13T11:27:49Z</time>
		</trkpt>
		<trkpt lat="53.9508590698242" lon="13.1870584487915">
			<ele>41.4000015258789</ele>
			<time>2014-04-13T11:27:50Z</time>
		</trkpt>
		<trkpt lat="53.9508781433105" lon="13.1871862411499">
			<ele>41.4000015258789</ele>
			<time>2014-04-13T11:27:51Z</time>
		</trkpt>
		<trkpt lat="53.9509048461914" lon="13.1873121261597">
			<ele>41.5999984741211</ele>
			<time>2014-04-13T11:27:52Z</time>
		</trkpt>
		<trkpt lat="53.9509239196777" lon="13.1874408721924">
			<ele>41.4000015258789</ele>
			<time>2014-04-13T11:27:53Z</time>
		</trkpt>
		<trkpt lat="53.9509506225586" lon="13.1875686645508">
			<ele>41.2999992370605</ele>
			<time>2014-04-13T11:27:54Z</time>
		</trkpt>
		<trkpt lat="53.9509696960449" lon="13.1876964569092">
			<ele>41.2000007629395</ele>
			<time>2014-04-13T11:27:55Z</time>
		</trkpt>
		<trkpt lat="53.9509925842285" lon="13.1878261566162">
			<ele>41.2000007629395</ele>
			<time>2014-04-13T11:27:56Z</time>
		</trkpt>
		<trkpt lat="53.9510154724121" lon="13.1879558563232">
			<ele>41</ele>
			<time>2014-04-13T11:27:57Z</time>
		</trkpt>
		<trkpt lat="53.9510383605957" lon="13.1880855560303">
			<ele>41</ele>
			<time>2014-04-13T11:27:58Z</time>
		</trkpt>
		<trkpt lat="53.951057434082" lon="13.1882152557373">
			<ele>40.9000015258789</ele>
			<time>2014-04-13T11:27:59Z</time>
		</trkpt>
		<trkpt lat="53.9510803222656" lon="13.1883459091187">
			<ele>41.0999984741211</ele>
			<time>2014-04-13T11:28:00Z</time>
		</trkpt>
		<trkpt lat="53.951099395752" lon="13.1884813308716">
			<ele>40.7999992370605</ele>
			<time>2014-04-13T11:28:01Z</time>
		</trkpt>
		<trkpt lat="53.9511184692383" lon="13.1886205673218">
			<ele>40.5</ele>
			<time>2014-04-13T11:28:02Z</time>
		</trkpt>
		<trkpt lat="53.9511337280273" lon="13.1887626647949">
			<ele>40</ele>
			<time>2014-04-13T11:28:03Z</time>
		</trkpt>
		<trkpt lat="53.9511528015137" lon="13.1889085769653">
			<ele>39.9000015258789</ele>
			<time>2014-04-13T11:28:04Z</time>
		</trkpt>
		<trkpt lat="53.9511642456055" lon="13.1890544891357">
			<ele>40</ele>
			<time>2014-04-13T11:28:05Z</time>
		</trkpt>
		<trkpt lat="53.9511756896973" lon="13.1892042160034">
			<ele>39.9000015258789</ele>
			<time>2014-04-13T11:28:06Z</time>
		</trkpt>
		<trkpt lat="53.9511833190918" lon="13.1893510818481">
			<ele>39.7000007629395</ele>
			<time>2014-04-13T11:28:07Z</time>
		</trkpt>
		<trkpt lat="53.9511909484863" lon="13.1894969940186">
			<ele>40</ele>
			<time>2014-04-13T11:28:08Z</time>
		</trkpt>
		<trkpt lat="53.9512023925781" lon="13.1896381378174">
			<ele>40.2999992370605</ele>
			<time>2014-04-13T11:28:09Z</time>
		</trkpt>
		<trkpt lat="53.9512062072754" lon="13.1897773742676">
			<ele>40.5999984741211</ele>
			<time>2014-04-13T11:28:10Z</time>
		</trkpt>
		<trkpt lat="53.9512138366699" lon="13.1899099349976">
			<ele>40.7000007629395</ele>
			<time>2014-04-13T11:28:11Z</time>
		</trkpt>
		<trkpt lat="53.9512214660645" lon="13.1900405883789">
			<ele>40.7999992370605</ele>
			<time>2014-04-13T11:28:12Z</time>
		</trkpt>
		<trkpt lat="53.951229095459" lon="13.190167427063">
			<ele>40.9000015258789</ele>
			<time>2014-04-13T11:28:13Z</time>
		</trkpt>
		<trkpt lat="53.9512329101563" lon="13.1902942657471">
			<ele>40.9000015258789</ele>
			<time>2014-04-13T11:28:14Z</time>
		</trkpt>
		<trkpt lat="53.9512405395508" lon="13.1904182434082">
			<ele>40.9000015258789</ele>
			<time>2014-04-13T11:28:15Z</time>
		</trkpt>
		<trkpt lat="53.9512481689453" lon="13.1905374526978">
			<ele>41</ele>
			<time>2014-04-13T11:28:16Z</time>
		</trkpt>
		<trkpt lat="53.9512557983398" lon="13.1906595230103">
			<ele>41.0999984741211</ele>
			<time>2014-04-13T11:28:17Z</time>
		</trkpt>
		<trkpt lat="53.9512634277344" lon="13.1907844543457">
			<ele>41</ele>
			<time>2014-04-13T11:28:18Z</time>
		</trkpt>
		<trkpt lat="53.9512672424316" lon="13.1909027099609">
			<ele>41.2000007629395</ele>
			<time>2014-04-13T11:28:19Z</time>
		</trkpt>
		<trkpt lat="53.9512786865234" lon="13.1910190582275">
			<ele>41.4000015258789</ele>
			<time>2014-04-13T11:28:20Z</time>
		</trkpt>
		<trkpt lat="53.9512825012207" lon="13.1911325454712">
			<ele>41.4000015258789</ele>
			<time>2014-04-13T11:28:21Z</time>
		</trkpt>
		<trkpt lat="53.9512901306152" lon="13.1912479400635">
			<ele>41.5</ele>
			<time>2014-04-13T11:28:22Z</time>
		</trkpt>
		<trkpt lat="53.9512977600098" lon="13.1913604736328">
			<ele>41.7999992370605</ele>
			<time>2014-04-13T11:28:23Z</time>
		</trkpt>
		<trkpt lat="53.9513053894043" lon="13.1914730072021">
			<ele>41.7999992370605</ele>
			<time>2014-04-13T11:28:24Z</time>
		</trkpt>
		<trkpt lat="53.9513092041016" lon="13.1915855407715">
			<ele>42.0999984741211</ele>
			<time>2014-04-13T11:28:25Z</time>
		</trkpt>
		<trkpt lat="53.9513168334961" lon="13.1916971206665">
			<ele>42.2000007629395</ele>
			<time>2014-04-13T11:28:26Z</time>
		</trkpt>
		<trkpt lat="53.9513244628906" lon="13.1918096542358">
			<ele>42.0999984741211</ele>
			<time>2014-04-13T11:28:27Z</time>
		</trkpt>
		<trkpt lat="53.9513320922852" lon="13.1919250488281">
			<ele>42.0999984741211</ele>
			<time>2014-04-13T11:28:28Z</time>
		</trkpt>
		<trkpt lat="53.9513359069824" lon="13.1920385360718">
			<ele>42.0999984741211</ele>
			<time>2014-04-13T11:28:29Z</time>
		</trkpt>
		<trkpt lat="53.9513473510742" lon="13.1921529769897">
			<ele>42.0999984741211</ele>
			<time>2014-04-13T11:28:30Z</time>
		</trkpt>
		<trkpt lat="53.9513549804688" lon="13.192268371582">
			<ele>42.0999984741211</ele>
			<time>2014-04-13T11:28:31Z</time>
		</trkpt>
		<trkpt lat="53.9513626098633" lon="13.1923809051514">
			<ele>42.0999984741211</ele>
			<time>2014-04-13T11:28:32Z</time>
		</trkpt>
		<trkpt lat="53.9513702392578" lon="13.1924905776978">
			<ele>42.0999984741211</ele>
			<time>2014-04-13T11:28:33Z</time>
		</trkpt>
		<trkpt lat="53.9513778686523" lon="13.1925973892212">
			<ele>42.2999992370605</ele>
			<time>2014-04-13T11:28:34Z</time>
		</trkpt>
		<trkpt lat="53.9513816833496" lon="13.1927042007446">
			<ele>42.5999984741211</ele>
			<time>2014-04-13T11:28:35Z</time>
		</trkpt>
		<trkpt lat="53.9513854980469" lon="13.1928119659424">
			<ele>43</ele>
			<time>2014-04-13T11:28:36Z</time>
		</trkpt>
		<trkpt lat="53.9513931274414" lon="13.1929149627686">
			<ele>43.0999984741211</ele>
			<time>2014-04-13T11:28:37Z</time>
		</trkpt>
		<trkpt lat="53.9514045715332" lon="13.1930122375488">
			<ele>43.2000007629395</ele>
			<time>2014-04-13T11:28:38Z</time>
		</trkpt>
		<trkpt lat="53.9514122009277" lon="13.1931142807007">
			<ele>43</ele>
			<time>2014-04-13T11:28:39Z</time>
		</trkpt>
		<trkpt lat="53.951416015625" lon="13.1932172775269">
			<ele>43</ele>
			<time>2014-04-13T11:28:40Z</time>
		</trkpt>
		<trkpt lat="53.9514198303223" lon="13.1933250427246">
			<ele>42.9000015258789</ele>
			<time>2014-04-13T11:28:41Z</time>
		</trkpt>
		<trkpt lat="53.9514274597168" lon="13.1934337615967">
			<ele>42.7999992370605</ele>
			<time>2014-04-13T11:28:42Z</time>
		</trkpt>
		<trkpt lat="53.9514350891113" lon="13.1935434341431">
			<ele>42.9000015258789</ele>
			<time>2014-04-13T11:28:43Z</time>
		</trkpt>
		<trkpt lat="53.9514389038086" lon="13.1936559677124">
			<ele>42.7999992370605</ele>
			<time>2014-04-13T11:28:44Z</time>
		</trkpt>
		<trkpt lat="53.9514503479004" lon="13.1937685012817">
			<ele>42.7999992370605</ele>
			<time>2014-04-13T11:28:45Z</time>
		</trkpt>
		<trkpt lat="53.9514579772949" lon="13.1938791275024">
			<ele>42.7999992370605</ele>
			<time>2014-04-13T11:28:46Z</time>
		</trkpt>
		<trkpt lat="53.9514656066895" lon="13.1939945220947">
			<ele>42.7999992370605</ele>
			<time>2014-04-13T11:28:47Z</time>
		</trkpt>
		<trkpt lat="53.9514694213867" lon="13.1941175460815">
			<ele>42.7000007629395</ele>
			<time>2014-04-13T11:28:48Z</time>
		</trkpt>
		<trkpt lat="53.9514770507813" lon="13.1942367553711">
			<ele>42.5999984741211</ele>
			<time>2014-04-13T11:28:49Z</time>
		</trkpt>
		<trkpt lat="53.9514846801758" lon="13.1943559646606">
			<ele>42.5999984741211</ele>
			<time>2014-04-13T11:28:50Z</time>
		</trkpt>
		<trkpt lat="53.9514923095703" lon="13.1944751739502">
			<ele>42.5</ele>
			<time>2014-04-13T11:28:51Z</time>
		</trkpt>
		<trkpt lat="53.9514999389648" lon="13.1946001052856">
			<ele>42.5</ele>
			<time>2014-04-13T11:28:52Z</time>
		</trkpt>
		<trkpt lat="53.9515075683594" lon="13.1947231292725">
			<ele>42.7000007629395</ele>
			<time>2014-04-13T11:28:53Z</time>
		</trkpt>
		<trkpt lat="53.9515113830566" lon="13.194845199585">
			<ele>42.5</ele>
			<time>2014-04-13T11:28:54Z</time>
		</trkpt>
		<trkpt lat="53.9515228271484" lon="13.1949691772461">
			<ele>42.4000015258789</ele>
			<time>2014-04-13T11:28:55Z</time>
		</trkpt>
		<trkpt lat="53.951530456543" lon="13.1950902938843">
			<ele>42.4000015258789</ele>
			<time>2014-04-13T11:28:56Z</time>
		</trkpt>
		<trkpt lat="53.9515342712402" lon="13.1952123641968">
			<ele>42.2999992370605</ele>
			<time>2014-04-13T11:28:57Z</time>
		</trkpt>
		<trkpt lat="53.9515419006348" lon="13.1953325271606">
			<ele>42.7000007629395</ele>
			<time>2014-04-13T11:28:58Z</time>
		</trkpt>
		<trkpt lat="53.9515495300293" lon="13.1954507827759">
			<ele>42.5999984741211</ele>
			<time>2014-04-13T11:28:59Z</time>
		</trkpt>
		<trkpt lat="53.9515571594238" lon="13.1955699920654">
			<ele>42.5</ele>
			<time>2014-04-13T11:29:00Z</time>
		</trkpt>
		<trkpt lat="53.9515647888184" lon="13.1956968307495">
			<ele>42.7999992370605</ele>
			<time>2014-04-13T11:29:01Z</time>
		</trkpt>
		<trkpt lat="53.9515686035156" lon="13.1958236694336">
			<ele>43</ele>
			<time>2014-04-13T11:29:02Z</time>
		</trkpt>
		<trkpt lat="53.9515724182129" lon="13.195951461792">
			<ele>43.0999984741211</ele>
			<time>2014-04-13T11:29:03Z</time>
		</trkpt>
		<trkpt lat="53.9515838623047" lon="13.1960725784302">
			<ele>43.2000007629395</ele>
			<time>2014-04-13T11:29:04Z</time>
		</trkpt>
		<trkpt lat="53.951587677002" lon="13.1961984634399">
			<ele>43.4000015258789</ele>
			<time>2014-04-13T11:29:05Z</time>
		</trkpt>
		<trkpt lat="53.9515953063965" lon="13.1963233947754">
			<ele>43.4000015258789</ele>
			<time>2014-04-13T11:29:06Z</time>
		</trkpt>
		<trkpt lat="53.9515991210938" lon="13.1964540481567">
			<ele>43.5</ele>
			<time>2014-04-13T11:29:07Z</time>
		</trkpt>
		<trkpt lat="53.9516105651855" lon="13.1965761184692">
			<ele>43.7000007629395</ele>
			<time>2014-04-13T11:29:08Z</time>
		</trkpt>
		<trkpt lat="53.9516143798828" lon="13.1966962814331">
			<ele>43.5999984741211</ele>
			<time>2014-04-13T11:29:09Z</time>
		</trkpt>
		<trkpt lat="53.9516181945801" lon="13.1968240737915">
			<ele>43.7000007629395</ele>
			<time>2014-04-13T11:29:10Z</time>
		</trkpt>
		<trkpt lat="53.9516220092773" lon="13.196949005127">
			<ele>43.9000015258789</ele>
			<time>2014-04-13T11:29:11Z</time>
		</trkpt>
		<trkpt lat="53.9516296386719" lon="13.1970691680908">
			<ele>43.5</ele>
			<time>2014-04-13T11:29:12Z</time>
		</trkpt>
		<trkpt lat="53.9516372680664" lon="13.1971912384033">
			<ele>43.4000015258789</ele>
			<time>2014-04-13T11:29:13Z</time>
		</trkpt>
		<trkpt lat="53.9516448974609" lon="13.1973161697388">
			<ele>43.2000007629395</ele>
			<time>2014-04-13T11:29:14Z</time>
		</trkpt>
		<trkpt lat="53.9516525268555" lon="13.1974411010742">
			<ele>43.2000007629395</ele>
			<time>2014-04-13T11:29:15Z</time>
		</trkpt>
		<trkpt lat="53.95166015625" lon="13.1975698471069">
			<ele>42.9000015258789</ele>
			<time>2014-04-13T11:29:16Z</time>
		</trkpt>
		<trkpt lat="53.9516639709473" lon="13.1976938247681">
			<ele>42.7999992370605</ele>
			<time>2014-04-13T11:29:17Z</time>
		</trkpt>
		<trkpt lat="53.9516716003418" lon="13.1978168487549">
			<ele>42.7000007629395</ele>
			<time>2014-04-13T11:29:18Z</time>
		</trkpt>
		<trkpt lat="53.9516792297363" lon="13.1979484558105">
			<ele>42.7999992370605</ele>
			<time>2014-04-13T11:29:19Z</time>
		</trkpt>
		<trkpt lat="53.9516944885254" lon="13.1980686187744">
			<ele>43</ele>
			<time>2014-04-13T11:29:20Z</time>
		</trkpt>
		<trkpt lat="53.9517059326172" lon="13.1981992721558">
			<ele>43.0999984741211</ele>
			<time>2014-04-13T11:29:21Z</time>
		</trkpt>
		<trkpt lat="53.9517288208008" lon="13.198314666748">
			<ele>43.2999992370605</ele>
			<time>2014-04-13T11:29:22Z</time>
		</trkpt>
		<trkpt lat="53.9517517089844" lon="13.1984357833862">
			<ele>43.4000015258789</ele>
			<time>2014-04-13T11:29:23Z</time>
		</trkpt>
		<trkpt lat="53.9517707824707" lon="13.1985464096069">
			<ele>43.7999992370605</ele>
			<time>2014-04-13T11:29:24Z</time>
		</trkpt>
		<trkpt lat="53.9517974853516" lon="13.1986608505249">
			<ele>43.7999992370605</ele>
			<time>2014-04-13T11:29:25Z</time>
		</trkpt>
		<trkpt lat="53.9518203735352" lon="13.1987724304199">
			<ele>43.7999992370605</ele>
			<time>2014-04-13T11:29:26Z</time>
		</trkpt>
		<trkpt lat="53.951847076416" lon="13.1988792419434">
			<ele>44</ele>
			<time>2014-04-13T11:29:27Z</time>
		</trkpt>
		<trkpt lat="53.9518699645996" lon="13.1989889144897">
			<ele>44.0999984741211</ele>
			<time>2014-04-13T11:29:28Z</time>
		</trkpt>
		<trkpt lat="53.9518966674805" lon="13.1990966796875">
			<ele>44.2000007629395</ele>
			<time>2014-04-13T11:29:29Z</time>
		</trkpt>
		<trkpt lat="53.9519233703613" lon="13.1992082595825">
			<ele>44.0999984741211</ele>
			<time>2014-04-13T11:29:30Z</time>
		</trkpt>
		<trkpt lat="53.9519462585449" lon="13.1993207931519">
			<ele>44.0999984741211</ele>
			<time>2014-04-13T11:29:31Z</time>
		</trkpt>
		<trkpt lat="53.9519691467285" lon="13.1994295120239">
			<ele>44</ele>
			<time>2014-04-13T11:29:32Z</time>
		</trkpt>
		<trkpt lat="53.9519958496094" lon="13.1995363235474">
			<ele>44.0999984741211</ele>
			<time>2014-04-13T11:29:33Z</time>
		</trkpt>
		<trkpt lat="53.952018737793" lon="13.1996459960938">
			<ele>43.9000015258789</ele>
			<time>2014-04-13T11:29:34Z</time>
		</trkpt>
		<trkpt lat="53.9520492553711" lon="13.1997566223145">
			<ele>44</ele>
			<time>2014-04-13T11:29:35Z</time>
		</trkpt>
		<trkpt lat="53.9520683288574" lon="13.1998653411865">
			<ele>43.5999984741211</ele>
			<time>2014-04-13T11:29:36Z</time>
		</trkpt>
		<trkpt lat="53.9520950317383" lon="13.1999778747559">
			<ele>43.5</ele>
			<time>2014-04-13T11:29:37Z</time>
		</trkpt>
		<trkpt lat="53.9521179199219" lon="13.2000846862793">
			<ele>43.4000015258789</ele>
			<time>2014-04-13T11:29:38Z</time>
		</trkpt>
		<trkpt lat="53.9521446228027" lon="13.2001914978027">
			<ele>43.4000015258789</ele>
			<time>2014-04-13T11:29:39Z</time>
		</trkpt>
		<trkpt lat="53.9521713256836" lon="13.2003049850464">
			<ele>43.5</ele>
			<time>2014-04-13T11:29:40Z</time>
		</trkpt>
		<trkpt lat="53.9521942138672" lon="13.2004194259644">
			<ele>43.5</ele>
			<time>2014-04-13T11:29:41Z</time>
		</trkpt>
		<trkpt lat="53.9522171020508" lon="13.200532913208">
			<ele>43.7999992370605</ele>
			<time>2014-04-13T11:29:42Z</time>
		</trkpt>
		<trkpt lat="53.9522438049316" lon="13.2006454467773">
			<ele>43.7999992370605</ele>
			<time>2014-04-13T11:29:43Z</time>
		</trkpt>
		<trkpt lat="53.9522705078125" lon="13.2007551193237">
			<ele>43.9000015258789</ele>
			<time>2014-04-13T11:29:44Z</time>
		</trkpt>
		<trkpt lat="53.9522895812988" lon="13.2008590698242">
			<ele>44.0999984741211</ele>
			<time>2014-04-13T11:29:45Z</time>
		</trkpt>
		<trkpt lat="53.9523124694824" lon="13.2009611129761">
			<ele>44.4000015258789</ele>
			<time>2014-04-13T11:29:46Z</time>
		</trkpt>
		<trkpt lat="53.952335357666" lon="13.2010583877563">
			<ele>44.7000007629395</ele>
			<time>2014-04-13T11:29:47Z</time>
		</trkpt>
		<trkpt lat="53.9523544311523" lon="13.2011470794678">
			<ele>44.9000015258789</ele>
			<time>2014-04-13T11:29:48Z</time>
		</trkpt>
		<trkpt lat="53.9523735046387" lon="13.2012357711792">
			<ele>45.0999984741211</ele>
			<time>2014-04-13T11:29:49Z</time>
		</trkpt>
		<trkpt lat="53.952392578125" lon="13.2013254165649">
			<ele>45.2000007629395</ele>
			<time>2014-04-13T11:29:50Z</time>
		</trkpt>
		<trkpt lat="53.9524116516113" lon="13.2014141082764">
			<ele>45.2000007629395</ele>
			<time>2014-04-13T11:29:51Z</time>
		</trkpt>
		<trkpt lat="53.9524307250977" lon="13.2015075683594">
			<ele>45.4000015258789</ele>
			<time>2014-04-13T11:29:52Z</time>
		</trkpt>
		<trkpt lat="53.952449798584" lon="13.2015981674194">
			<ele>45.4000015258789</ele>
			<time>2014-04-13T11:29:53Z</time>
		</trkpt>
		<trkpt lat="53.952465057373" lon="13.2016925811768">
			<ele>45.4000015258789</ele>
			<time>2014-04-13T11:29:54Z</time>
		</trkpt>
		<trkpt lat="53.9524803161621" lon="13.2017822265625">
			<ele>45.5</ele>
			<time>2014-04-13T11:29:55Z</time>
		</trkpt>
		<trkpt lat="53.9524955749512" lon="13.2018775939941">
			<ele>45.5</ele>
			<time>2014-04-13T11:29:56Z</time>
		</trkpt>
		<trkpt lat="53.9525146484375" lon="13.2019691467285">
			<ele>45.5999984741211</ele>
			<time>2014-04-13T11:29:57Z</time>
		</trkpt>
		<trkpt lat="53.9525337219238" lon="13.2020645141602">
			<ele>45.7000007629395</ele>
			<time>2014-04-13T11:29:58Z</time>
		</trkpt>
		<trkpt lat="53.9525527954102" lon="13.2021579742432">
			<ele>45.7000007629395</ele>
			<time>2014-04-13T11:29:59Z</time>
		</trkpt>
		<trkpt lat="53.9525680541992" lon="13.2022523880005">
			<ele>45.5999984741211</ele>
			<time>2014-04-13T11:30:00Z</time>
		</trkpt>
		<trkpt lat="53.9525833129883" lon="13.2023477554321">
			<ele>45.7000007629395</ele>
			<time>2014-04-13T11:30:01Z</time>
		</trkpt>
		<trkpt lat="53.9526023864746" lon="13.2024412155151">
			<ele>45.5</ele>
			<time>2014-04-13T11:30:02Z</time>
		</trkpt>
		<trkpt lat="53.9526176452637" lon="13.2025356292725">
			<ele>45.5999984741211</ele>
			<time>2014-04-13T11:30:03Z</time>
		</trkpt>
		<trkpt lat="53.95263671875" lon="13.2026309967041">
			<ele>45.4000015258789</ele>
			<time>2014-04-13T11:30:04Z</time>
		</trkpt>
		<trkpt lat="53.9526596069336" lon="13.2027339935303">
			<ele>45.4000015258789</ele>
			<time>2014-04-13T11:30:05Z</time>
		</trkpt>
		<trkpt lat="53.9526786804199" lon="13.2028331756592">
			<ele>45.2999992370605</ele>
			<time>2014-04-13T11:30:06Z</time>
		</trkpt>
		<trkpt lat="53.9526977539063" lon="13.2029342651367">
			<ele>45.2999992370605</ele>
			<time>2014-04-13T11:30:07Z</time>
		</trkpt>
		<trkpt lat="53.9527168273926" lon="13.2030353546143">
			<ele>45.4000015258789</ele>
			<time>2014-04-13T11:30:08Z</time>
		</trkpt>
		<trkpt lat="53.9527359008789" lon="13.2031345367432">
			<ele>45.2000007629395</ele>
			<time>2014-04-13T11:30:09Z</time>
		</trkpt>
		<trkpt lat="53.9527549743652" lon="13.203236579895">
			<ele>45.2000007629395</ele>
			<time>2014-04-13T11:30:10Z</time>
		</trkpt>
		<trkpt lat="53.9527778625488" lon="13.2033414840698">
			<ele>45.0999984741211</ele>
			<time>2014-04-13T11:30:11Z</time>
		</trkpt>
		<trkpt lat="53.9527969360352" lon="13.2034435272217">
			<ele>45</ele>
			<time>2014-04-13T11:30:12Z</time>
		</trkpt>
		<trkpt lat="53.9528160095215" lon="13.2035427093506">
			<ele>45</ele>
			<time>2014-04-13T11:30:13Z</time>
		</trkpt>
		<trkpt lat="53.9528350830078" lon="13.2036428451538">
			<ele>45.2999992370605</ele>
			<time>2014-04-13T11:30:14Z</time>
		</trkpt>
		<trkpt lat="53.9528541564941" lon="13.20374584198">
			<ele>45.2999992370605</ele>
			<time>2014-04-13T11:30:15Z</time>
		</trkpt>
		<trkpt lat="53.9528694152832" lon="13.2038478851318">
			<ele>45.2000007629395</ele>
			<time>2014-04-13T11:30:16Z</time>
		</trkpt>
		<trkpt lat="53.9528884887695" lon="13.203950881958">
			<ele>45.2999992370605</ele>
			<time>2014-04-13T11:30:17Z</time>
		</trkpt>
		<trkpt lat="53.9529075622559" lon="13.2040519714355">
			<ele>45.5999984741211</ele>
			<time>2014-04-13T11:30:18Z</time>
		</trkpt>
		<trkpt lat="53.9529266357422" lon="13.2041549682617">
			<ele>45.5</ele>
			<time>2014-04-13T11:30:19Z</time>
		</trkpt>
		<trkpt lat="53.9529457092285" lon="13.2042579650879">
			<ele>45.4000015258789</ele>
			<time>2014-04-13T11:30:20Z</time>
		</trkpt>
		<trkpt lat="53.9529647827148" lon="13.2043581008911">
			<ele>45.5</ele>
			<time>2014-04-13T11:30:21Z</time>
		</trkpt>
		<trkpt lat="53.9529838562012" lon="13.2044610977173">
			<ele>45.5999984741211</ele>
			<time>2014-04-13T11:30:22Z</time>
		</trkpt>
		<trkpt lat="53.9530029296875" lon="13.2045631408691">
			<ele>45.7999992370605</ele>
			<time>2014-04-13T11:30:23Z</time>
		</trkpt>
		<trkpt lat="53.9530181884766" lon="13.204665184021">
			<ele>46</ele>
			<time>2014-04-13T11:30:24Z</time>
		</trkpt>
		<trkpt lat="53.9530372619629" lon="13.2047691345215">
			<ele>45.7999992370605</ele>
			<time>2014-04-13T11:30:25Z</time>
		</trkpt>
		<trkpt lat="53.9530601501465" lon="13.2048721313477">
			<ele>45.7000007629395</ele>
			<time>2014-04-13T11:30:26Z</time>
		</trkpt>
		<trkpt lat="53.9530792236328" lon="13.2049751281738">
			<ele>45.7999992370605</ele>
			<time>2014-04-13T11:30:27Z</time>
		</trkpt>
		<trkpt lat="53.9530944824219" lon="13.2050819396973">
			<ele>45.7999992370605</ele>
			<time>2014-04-13T11:30:28Z</time>
		</trkpt>
		<trkpt lat="53.9531173706055" lon="13.2051858901978">
			<ele>45.9000015258789</ele>
			<time>2014-04-13T11:30:29Z</time>
		</trkpt>
		<trkpt lat="53.9531364440918" lon="13.2052974700928">
			<ele>46</ele>
			<time>2014-04-13T11:30:30Z</time>
		</trkpt>
		<trkpt lat="53.9531555175781" lon="13.2054080963135">
			<ele>46</ele>
			<time>2014-04-13T11:30:31Z</time>
		</trkpt>
		<trkpt lat="53.9531745910645" lon="13.2055187225342">
			<ele>46</ele>
			<time>2014-04-13T11:30:32Z</time>
		</trkpt>
		<trkpt lat="53.953197479248" lon="13.2056264877319">
			<ele>46</ele>
			<time>2014-04-13T11:30:33Z</time>
		</trkpt>
		<trkpt lat="53.9532165527344" lon="13.205735206604">
			<ele>46</ele>
			<time>2014-04-13T11:30:34Z</time>
		</trkpt>
		<trkpt lat="53.9532356262207" lon="13.2058458328247">
			<ele>45.9000015258789</ele>
			<time>2014-04-13T11:30:35Z</time>
		</trkpt>
		<trkpt lat="53.953254699707" lon="13.2059555053711">
			<ele>45.7000007629395</ele>
			<time>2014-04-13T11:30:36Z</time>
		</trkpt>
		<trkpt lat="53.9532775878906" lon="13.2060632705688">
			<ele>45.7000007629395</ele>
			<time>2014-04-13T11:30:37Z</time>
		</trkpt>
		<trkpt lat="53.9533004760742" lon="13.2061738967896">
			<ele>45.4000015258789</ele>
			<time>2014-04-13T11:30:38Z</time>
		</trkpt>
		<trkpt lat="53.9533195495605" lon="13.2062835693359">
			<ele>45.2999992370605</ele>
			<time>2014-04-13T11:30:39Z</time>
		</trkpt>
		<trkpt lat="53.9533386230469" lon="13.2063941955566">
			<ele>45.5999984741211</ele>
			<time>2014-04-13T11:30:40Z</time>
		</trkpt>
		<trkpt lat="53.9533576965332" lon="13.206503868103">
			<ele>45.5</ele>
			<time>2014-04-13T11:30:41Z</time>
		</trkpt>
		<trkpt lat="53.9533843994141" lon="13.2066097259521">
			<ele>45.5999984741211</ele>
			<time>2014-04-13T11:30:42Z</time>
		</trkpt>
		<trkpt lat="53.9534034729004" lon="13.2067222595215">
			<ele>45.7000007629395</ele>
			<time>2014-04-13T11:30:43Z</time>
		</trkpt>
		<trkpt lat="53.9534187316895" lon="13.2068347930908">
			<ele>45.9000015258789</ele>
			<time>2014-04-13T11:30:44Z</time>
		</trkpt>
		<trkpt lat="53.9534378051758" lon="13.2069444656372">
			<ele>45.9000015258789</ele>
			<time>2014-04-13T11:30:45Z</time>
		</trkpt>
		<trkpt lat="53.9534568786621" lon="13.2070550918579">
			<ele>46.2000007629395</ele>
			<time>2014-04-13T11:30:46Z</time>
		</trkpt>
		<trkpt lat="53.9534797668457" lon="13.2071666717529">
			<ele>46.2999992370605</ele>
			<time>2014-04-13T11:30:47Z</time>
		</trkpt>
		<trkpt lat="53.9535026550293" lon="13.2072763442993">
			<ele>46.2999992370605</ele>
			<time>2014-04-13T11:30:48Z</time>
		</trkpt>
		<trkpt lat="53.9535217285156" lon="13.2073917388916">
			<ele>46.2000007629395</ele>
			<time>2014-04-13T11:30:49Z</time>
		</trkpt>
		<trkpt lat="53.953540802002" lon="13.2075061798096">
			<ele>46.2999992370605</ele>
			<time>2014-04-13T11:30:50Z</time>
		</trkpt>
		<trkpt lat="53.9535636901855" lon="13.2076206207275">
			<ele>46.2000007629395</ele>
			<time>2014-04-13T11:30:51Z</time>
		</trkpt>
		<trkpt lat="53.9535865783691" lon="13.2077379226685">
			<ele>46.2000007629395</ele>
			<time>2014-04-13T11:30:52Z</time>
		</trkpt>
		<trkpt lat="53.9536056518555" lon="13.2078542709351">
			<ele>46.2000007629395</ele>
			<time>2014-04-13T11:30:53Z</time>
		</trkpt>
		<trkpt lat="53.9536285400391" lon="13.2079744338989">
			<ele>46</ele>
			<time>2014-04-13T11:30:54Z</time>
		</trkpt>
		<trkpt lat="53.9536514282227" lon="13.2080917358398">
			<ele>45.9000015258789</ele>
			<time>2014-04-13T11:30:55Z</time>
		</trkpt>
		<trkpt lat="53.953670501709" lon="13.208212852478">
			<ele>46</ele>
			<time>2014-04-13T11:30:56Z</time>
		</trkpt>
		<trkpt lat="53.9536895751953" lon="13.2083330154419">
			<ele>45.9000015258789</ele>
			<time>2014-04-13T11:30:57Z</time>
		</trkpt>
		<trkpt lat="53.9537124633789" lon="13.2084522247314">
			<ele>46</ele>
			<time>2014-04-13T11:30:58Z</time>
		</trkpt>
		<trkpt lat="53.9537353515625" lon="13.2085762023926">
			<ele>45.9000015258789</ele>
			<time>2014-04-13T11:30:59Z</time>
		</trkpt>
		<trkpt lat="53.9537544250488" lon="13.2086982727051">
			<ele>46</ele>
			<time>2014-04-13T11:31:00Z</time>
		</trkpt>
		<trkpt lat="53.9537734985352" lon="13.2088193893433">
			<ele>46.2999992370605</ele>
			<time>2014-04-13T11:31:01Z</time>
		</trkpt>
		<trkpt lat="53.9537963867188" lon="13.2089395523071">
			<ele>46.0999984741211</ele>
			<time>2014-04-13T11:31:02Z</time>
		</trkpt>
		<trkpt lat="53.9538116455078" lon="13.2090616226196">
			<ele>45.9000015258789</ele>
			<time>2014-04-13T11:31:03Z</time>
		</trkpt>
		<trkpt lat="53.9538345336914" lon="13.2091808319092">
			<ele>46.0999984741211</ele>
			<time>2014-04-13T11:31:04Z</time>
		</trkpt>
		<trkpt lat="53.953857421875" lon="13.2092981338501">
			<ele>46.2000007629395</ele>
			<time>2014-04-13T11:31:05Z</time>
		</trkpt>
		<trkpt lat="53.9538764953613" lon="13.2094144821167">
			<ele>45.9000015258789</ele>
			<time>2014-04-13T11:31:06Z</time>
		</trkpt>
		<trkpt lat="53.9538993835449" lon="13.2095375061035">
			<ele>46</ele>
			<time>2014-04-13T11:31:07Z</time>
		</trkpt>
		<trkpt lat="53.9539184570313" lon="13.2096576690674">
			<ele>46</ele>
			<time>2014-04-13T11:31:08Z</time>
		</trkpt>
		<trkpt lat="53.9539413452148" lon="13.2097759246826">
			<ele>45.7999992370605</ele>
			<time>2014-04-13T11:31:09Z</time>
		</trkpt>
		<trkpt lat="53.9539642333984" lon="13.2098932266235">
			<ele>45.9000015258789</ele>
			<time>2014-04-13T11:31:10Z</time>
		</trkpt>
		<trkpt lat="53.953987121582" lon="13.2100133895874">
			<ele>45.9000015258789</ele>
			<time>2014-04-13T11:31:11Z</time>
		</trkpt>
		<trkpt lat="53.9540100097656" lon="13.2101335525513">
			<ele>46</ele>
			<time>2014-04-13T11:31:12Z</time>
		</trkpt>
		<trkpt lat="53.9540328979492" lon="13.2102518081665">
			<ele>45.9000015258789</ele>
			<time>2014-04-13T11:31:13Z</time>
		</trkpt>
		<trkpt lat="53.9540557861328" lon="13.2103748321533">
			<ele>45.5999984741211</ele>
			<time>2014-04-13T11:31:14Z</time>
		</trkpt>
		<trkpt lat="53.9540786743164" lon="13.2104969024658">
			<ele>45.2999992370605</ele>
			<time>2014-04-13T11:31:15Z</time>
		</trkpt>
		<trkpt lat="53.9540977478027" lon="13.2106227874756">
			<ele>45.2999992370605</ele>
			<time>2014-04-13T11:31:16Z</time>
		</trkpt>
		<trkpt lat="53.9541206359863" lon="13.2107458114624">
			<ele>45.4000015258789</ele>
			<time>2014-04-13T11:31:17Z</time>
		</trkpt>
		<trkpt lat="53.9541435241699" lon="13.2108678817749">
			<ele>45.2000007629395</ele>
			<time>2014-04-13T11:31:18Z</time>
		</trkpt>
		<trkpt lat="53.9541664123535" lon="13.2109899520874">
			<ele>45.2999992370605</ele>
			<time>2014-04-13T11:31:19Z</time>
		</trkpt>
		<trkpt lat="53.9541893005371" lon="13.2111129760742">
			<ele>45.2000007629395</ele>
			<time>2014-04-13T11:31:20Z</time>
		</trkpt>
		<trkpt lat="53.954216003418" lon="13.211238861084">
			<ele>45.0999984741211</ele>
			<time>2014-04-13T11:31:21Z</time>
		</trkpt>
		<trkpt lat="53.9542350769043" lon="13.2113733291626">
			<ele>45.0999984741211</ele>
			<time>2014-04-13T11:31:22Z</time>
		</trkpt>
		<trkpt lat="53.9542579650879" lon="13.2115068435669">
			<ele>45</ele>
			<time>2014-04-13T11:31:23Z</time>
		</trkpt>
		<trkpt lat="53.9542846679688" lon="13.2116413116455">
			<ele>44.9000015258789</ele>
			<time>2014-04-13T11:31:24Z</time>
		</trkpt>
		<trkpt lat="53.9543075561523" lon="13.2117748260498">
			<ele>44.5999984741211</ele>
			<time>2014-04-13T11:31:25Z</time>
		</trkpt>
		<trkpt lat="53.9543304443359" lon="13.2119102478027">
			<ele>44.2999992370605</ele>
			<time>2014-04-13T11:31:26Z</time>
		</trkpt>
		<trkpt lat="53.9543571472168" lon="13.2120418548584">
			<ele>44.5</ele>
			<time>2014-04-13T11:31:27Z</time>
		</trkpt>
		<trkpt lat="53.9543800354004" lon="13.2121734619141">
			<ele>44.5999984741211</ele>
			<time>2014-04-13T11:31:28Z</time>
		</trkpt>
		<trkpt lat="53.954402923584" lon="13.2123022079468">
			<ele>45</ele>
			<time>2014-04-13T11:31:29Z</time>
		</trkpt>
		<trkpt lat="53.9544296264648" lon="13.2124271392822">
			<ele>44.9000015258789</ele>
			<time>2014-04-13T11:31:30Z</time>
		</trkpt>
		<trkpt lat="53.9544525146484" lon="13.2125539779663">
			<ele>45.4000015258789</ele>
			<time>2014-04-13T11:31:31Z</time>
		</trkpt>
		<trkpt lat="53.954475402832" lon="13.2126770019531">
			<ele>45.5</ele>
			<time>2014-04-13T11:31:32Z</time>
		</trkpt>
		<trkpt lat="53.9544944763184" lon="13.2128067016602">
			<ele>45.2999992370605</ele>
			<time>2014-04-13T11:31:33Z</time>
		</trkpt>
		<trkpt lat="53.954517364502" lon="13.2129335403442">
			<ele>45.2999992370605</ele>
			<time>2014-04-13T11:31:34Z</time>
		</trkpt>
		<trkpt lat="53.9545402526855" lon="13.2130584716797">
			<ele>45.5</ele>
			<time>2014-04-13T11:31:35Z</time>
		</trkpt>
		<trkpt lat="53.9545669555664" lon="13.2131814956665">
			<ele>45.7000007629395</ele>
			<time>2014-04-13T11:31:36Z</time>
		</trkpt>
		<trkpt lat="53.9545860290527" lon="13.2133083343506">
			<ele>45.7999992370605</ele>
			<time>2014-04-13T11:31:37Z</time>
		</trkpt>
		<trkpt lat="53.9546089172363" lon="13.2134304046631">
			<ele>46</ele>
			<time>2014-04-13T11:31:38Z</time>
		</trkpt>
		<trkpt lat="53.9546318054199" lon="13.2135562896729">
			<ele>46.0999984741211</ele>
			<time>2014-04-13T11:31:39Z</time>
		</trkpt>
		<trkpt lat="53.9546546936035" lon="13.2136783599854">
			<ele>46.2999992370605</ele>
			<time>2014-04-13T11:31:40Z</time>
		</trkpt>
		<trkpt lat="53.9546813964844" lon="13.2138004302979">
			<ele>46.4000015258789</ele>
			<time>2014-04-13T11:31:41Z</time>
		</trkpt>
		<trkpt lat="53.9547080993652" lon="13.2139234542847">
			<ele>46.4000015258789</ele>
			<time>2014-04-13T11:31:42Z</time>
		</trkpt>
		<trkpt lat="53.9547348022461" lon="13.2140445709229">
			<ele>46.5</ele>
			<time>2014-04-13T11:31:43Z</time>
		</trkpt>
		<trkpt lat="53.954761505127" lon="13.2141637802124">
			<ele>46.7999992370605</ele>
			<time>2014-04-13T11:31:44Z</time>
		</trkpt>
		<trkpt lat="53.9547920227051" lon="13.2142839431763">
			<ele>46.7999992370605</ele>
			<time>2014-04-13T11:31:45Z</time>
		</trkpt>
		<trkpt lat="53.9548225402832" lon="13.2144069671631">
			<ele>46.7999992370605</ele>
			<time>2014-04-13T11:31:46Z</time>
		</trkpt>
		<trkpt lat="53.9548530578613" lon="13.2145261764526">
			<ele>46.5999984741211</ele>
			<time>2014-04-13T11:31:47Z</time>
		</trkpt>
		<trkpt lat="53.9548835754395" lon="13.2146492004395">
			<ele>46.7000007629395</ele>
			<time>2014-04-13T11:31:48Z</time>
		</trkpt>
		<trkpt lat="53.9549140930176" lon="13.2147741317749">
			<ele>46.5999984741211</ele>
			<time>2014-04-13T11:31:49Z</time>
		</trkpt>
		<trkpt lat="53.954948425293" lon="13.214898109436">
			<ele>46.4000015258789</ele>
			<time>2014-04-13T11:31:50Z</time>
		</trkpt>
		<trkpt lat="53.9549827575684" lon="13.2150192260742">
			<ele>46.5</ele>
			<time>2014-04-13T11:31:51Z</time>
		</trkpt>
		<trkpt lat="53.9550170898438" lon="13.2151441574097">
			<ele>46.7999992370605</ele>
			<time>2014-04-13T11:31:52Z</time>
		</trkpt>
		<trkpt lat="53.9550514221191" lon="13.2152690887451">
			<ele>46.9000015258789</ele>
			<time>2014-04-13T11:31:53Z</time>
		</trkpt>
		<trkpt lat="53.9550857543945" lon="13.2153959274292">
			<ele>46.7000007629395</ele>
			<time>2014-04-13T11:31:54Z</time>
		</trkpt>
		<trkpt lat="53.9551162719727" lon="13.2155208587646">
			<ele>46.5999984741211</ele>
			<time>2014-04-13T11:31:55Z</time>
		</trkpt>
		<trkpt lat="53.9551544189453" lon="13.2156496047974">
			<ele>46.4000015258789</ele>
			<time>2014-04-13T11:31:56Z</time>
		</trkpt>
		<trkpt lat="53.9551887512207" lon="13.2157764434814">
			<ele>46.4000015258789</ele>
			<time>2014-04-13T11:31:57Z</time>
		</trkpt>
		<trkpt lat="53.9552230834961" lon="13.2158985137939">
			<ele>46.2000007629395</ele>
			<time>2014-04-13T11:31:58Z</time>
		</trkpt>
		<trkpt lat="53.9552574157715" lon="13.2160272598267">
			<ele>46.2000007629395</ele>
			<time>2014-04-13T11:31:59Z</time>
		</trkpt>
		<trkpt lat="53.9552917480469" lon="13.2161474227905">
			<ele>46.0999984741211</ele>
			<time>2014-04-13T11:32:00Z</time>
		</trkpt>
		<trkpt lat="53.955322265625" lon="13.2162628173828">
			<ele>46.2999992370605</ele>
			<time>2014-04-13T11:32:01Z</time>
		</trkpt>
		<trkpt lat="53.9553527832031" lon="13.2163753509521">
			<ele>46.4000015258789</ele>
			<time>2014-04-13T11:32:02Z</time>
		</trkpt>
		<trkpt lat="53.9553833007813" lon="13.2164888381958">
			<ele>46.5</ele>
			<time>2014-04-13T11:32:03Z</time>
		</trkpt>
		<trkpt lat="53.9554138183594" lon="13.2165956497192">
			<ele>46.7000007629395</ele>
			<time>2014-04-13T11:32:04Z</time>
		</trkpt>
		<trkpt lat="53.9554443359375" lon="13.2167043685913">
			<ele>46.4000015258789</ele>
			<time>2014-04-13T11:32:05Z</time>
		</trkpt>
		<trkpt lat="53.9554710388184" lon="13.2168121337891">
			<ele>46</ele>
			<time>2014-04-13T11:32:06Z</time>
		</trkpt>
		<trkpt lat="53.9555015563965" lon="13.2169208526611">
			<ele>46.0999984741211</ele>
			<time>2014-04-13T11:32:07Z</time>
		</trkpt>
		<trkpt lat="53.9555320739746" lon="13.2170305252075">
			<ele>46.0999984741211</ele>
			<time>2014-04-13T11:32:08Z</time>
		</trkpt>
		<trkpt lat="53.9555587768555" lon="13.2171401977539">
			<ele>46.2999992370605</ele>
			<time>2014-04-13T11:32:09Z</time>
		</trkpt>
		<trkpt lat="53.9555892944336" lon="13.2172517776489">
			<ele>46.5</ele>
			<time>2014-04-13T11:32:10Z</time>
		</trkpt>
		<trkpt lat="53.9556198120117" lon="13.2173643112183">
			<ele>46.4000015258789</ele>
			<time>2014-04-13T11:32:11Z</time>
		</trkpt>
		<trkpt lat="53.9556503295898" lon="13.2174711227417">
			<ele>46.4000015258789</ele>
			<time>2014-04-13T11:32:12Z</time>
		</trkpt>
		<trkpt lat="53.955680847168" lon="13.2175817489624">
			<ele>46.4000015258789</ele>
			<time>2014-04-13T11:32:13Z</time>
		</trkpt>
		<trkpt lat="53.9557075500488" lon="13.2176904678345">
			<ele>46.2999992370605</ele>
			<time>2014-04-13T11:32:14Z</time>
		</trkpt>
		<trkpt lat="53.9557342529297" lon="13.2177991867065">
			<ele>46.2999992370605</ele>
			<time>2014-04-13T11:32:15Z</time>
		</trkpt>
		<trkpt lat="53.9557647705078" lon="13.21790599823">
			<ele>46.5</ele>
			<time>2014-04-13T11:32:16Z</time>
		</trkpt>
		<trkpt lat="53.9557914733887" lon="13.2180156707764">
			<ele>46.2999992370605</ele>
			<time>2014-04-13T11:32:17Z</time>
		</trkpt>
		<trkpt lat="53.9558181762695" lon="13.2181215286255">
			<ele>46.2999992370605</ele>
			<time>2014-04-13T11:32:18Z</time>
		</trkpt>
		<trkpt lat="53.9558486938477" lon="13.2182312011719">
			<ele>46.2999992370605</ele>
			<time>2014-04-13T11:32:19Z</time>
		</trkpt>
		<trkpt lat="53.9558753967285" lon="13.2183361053467">
			<ele>46.0999984741211</ele>
			<time>2014-04-13T11:32:20Z</time>
		</trkpt>
		<trkpt lat="53.9559059143066" lon="13.2184457778931">
			<ele>46</ele>
			<time>2014-04-13T11:32:21Z</time>
		</trkpt>
		<trkpt lat="53.9559326171875" lon="13.2185525894165">
			<ele>46</ele>
			<time>2014-04-13T11:32:22Z</time>
		</trkpt>
		<trkpt lat="53.9559593200684" lon="13.2186574935913">
			<ele>46.2000007629395</ele>
			<time>2014-04-13T11:32:23Z</time>
		</trkpt>
		<trkpt lat="53.9559898376465" lon="13.2187643051147">
			<ele>46.5</ele>
			<time>2014-04-13T11:32:24Z</time>
		</trkpt>
		<trkpt lat="53.9560165405273" lon="13.218861579895">
			<ele>46.7999992370605</ele>
			<time>2014-04-13T11:32:25Z</time>
		</trkpt>
		<trkpt lat="53.9560470581055" lon="13.2189645767212">
			<ele>47</ele>
			<time>2014-04-13T11:32:26Z</time>
		</trkpt>
		<trkpt lat="53.9560737609863" lon="13.2190628051758">
			<ele>46.9000015258789</ele>
			<time>2014-04-13T11:32:27Z</time>
		</trkpt>
		<trkpt lat="53.9561004638672" lon="13.2191677093506">
			<ele>46.7000007629395</ele>
			<time>2014-04-13T11:32:28Z</time>
		</trkpt>
		<trkpt lat="53.9561309814453" lon="13.2192716598511">
			<ele>46.7000007629395</ele>
			<time>2014-04-13T11:32:29Z</time>
		</trkpt>
		<trkpt lat="53.9561576843262" lon="13.2193775177002">
			<ele>47</ele>
			<time>2014-04-13T11:32:30Z</time>
		</trkpt>
		<trkpt lat="53.9561882019043" lon="13.2194843292236">
			<ele>47</ele>
			<time>2014-04-13T11:32:31Z</time>
		</trkpt>
		<trkpt lat="53.9562149047852" lon="13.2195920944214">
			<ele>46.7000007629395</ele>
			<time>2014-04-13T11:32:32Z</time>
		</trkpt>
		<trkpt lat="53.956241607666" lon="13.2197027206421">
			<ele>46.4000015258789</ele>
			<time>2014-04-13T11:32:33Z</time>
		</trkpt>
		<trkpt lat="53.9562683105469" lon="13.2198104858398">
			<ele>46.5999984741211</ele>
			<time>2014-04-13T11:32:34Z</time>
		</trkpt>
		<trkpt lat="53.9563026428223" lon="13.2199220657349">
			<ele>46.7999992370605</ele>
			<time>2014-04-13T11:32:35Z</time>
		</trkpt>
		<trkpt lat="53.9563331604004" lon="13.2200355529785">
			<ele>47</ele>
			<time>2014-04-13T11:32:36Z</time>
		</trkpt>
		<trkpt lat="53.9563636779785" lon="13.2201509475708">
			<ele>46.9000015258789</ele>
			<time>2014-04-13T11:32:37Z</time>
		</trkpt>
		<trkpt lat="53.9563941955566" lon="13.2202644348145">
			<ele>46.9000015258789</ele>
			<time>2014-04-13T11:32:38Z</time>
		</trkpt>
		<trkpt lat="53.956428527832" lon="13.2203807830811">
			<ele>46.9000015258789</ele>
			<time>2014-04-13T11:32:39Z</time>
		</trkpt>
		<trkpt lat="53.9564590454102" lon="13.2205018997192">
			<ele>47</ele>
			<time>2014-04-13T11:32:40Z</time>
		</trkpt>
		<trkpt lat="53.956485748291" lon="13.2206239700317">
			<ele>46.9000015258789</ele>
			<time>2014-04-13T11:32:41Z</time>
		</trkpt>
		<trkpt lat="53.9565162658691" lon="13.2207479476929">
			<ele>46.9000015258789</ele>
			<time>2014-04-13T11:32:42Z</time>
		</trkpt>
		<trkpt lat="53.95654296875" lon="13.220874786377">
			<ele>47</ele>
			<time>2014-04-13T11:32:45Z</time>
		</trkpt>
		<trkpt lat="53.9565734863281" lon="13.2212696075439">
			<ele>45.7999992370605</ele>
			<time>2014-04-13T11:32:46Z</time>
		</trkpt>
		<trkpt lat="53.9565620422363" lon="13.2214097976685">
			<ele>45.5</ele>
			<time>2014-04-13T11:32:47Z</time>
		</trkpt>
		<trkpt lat="53.9565353393555" lon="13.221549987793">
			<ele>45.4000015258789</ele>
			<time>2014-04-13T11:32:48Z</time>
		</trkpt>
		<trkpt lat="53.9565086364746" lon="13.2216835021973">
			<ele>45.5</ele>
			<time>2014-04-13T11:32:49Z</time>
		</trkpt>
		<trkpt lat="53.9564743041992" lon="13.2218084335327">
			<ele>45.7000007629395</ele>
			<time>2014-04-13T11:32:50Z</time>
		</trkpt>
		<trkpt lat="53.9564399719238" lon="13.2219343185425">
			<ele>45.7000007629395</ele>
			<time>2014-04-13T11:32:51Z</time>
		</trkpt>
		<trkpt lat="53.9564056396484" lon="13.2220506668091">
			<ele>45.9000015258789</ele>
			<time>2014-04-13T11:32:52Z</time>
		</trkpt>
		<trkpt lat="53.956371307373" lon="13.2221670150757">
			<ele>46</ele>
			<time>2014-04-13T11:32:53Z</time>
		</trkpt>
		<trkpt lat="53.9563407897949" lon="13.2222852706909">
			<ele>45.9000015258789</ele>
			<time>2014-04-13T11:32:54Z</time>
		</trkpt>
		<trkpt lat="53.9563064575195" lon="13.2224054336548">
			<ele>45.9000015258789</ele>
			<time>2014-04-13T11:32:55Z</time>
		</trkpt>
		<trkpt lat="53.9562721252441" lon="13.2225170135498">
			<ele>45.9000015258789</ele>
			<time>2014-04-13T11:32:56Z</time>
		</trkpt>
		<trkpt lat="53.956241607666" lon="13.2226295471191">
			<ele>45.7999992370605</ele>
			<time>2014-04-13T11:32:57Z</time>
		</trkpt>
		<trkpt lat="53.9562110900879" lon="13.2227439880371">
			<ele>46.0999984741211</ele>
			<time>2014-04-13T11:32:58Z</time>
		</trkpt>
		<trkpt lat="53.956184387207" lon="13.2228555679321">
			<ele>46</ele>
			<time>2014-04-13T11:32:59Z</time>
		</trkpt>
		<trkpt lat="53.9561500549316" lon="13.2229671478271">
			<ele>45.7000007629395</ele>
			<time>2014-04-13T11:33:00Z</time>
		</trkpt>
		<trkpt lat="53.9561157226563" lon="13.2230777740479">
			<ele>46.0999984741211</ele>
			<time>2014-04-13T11:33:01Z</time>
		</trkpt>
		<trkpt lat="53.9560852050781" lon="13.2231931686401">
			<ele>46.4000015258789</ele>
			<time>2014-04-13T11:33:02Z</time>
		</trkpt>
		<trkpt lat="53.9560546875" lon="13.2233066558838">
			<ele>46.4000015258789</ele>
			<time>2014-04-13T11:33:03Z</time>
		</trkpt>
		<trkpt lat="53.9560203552246" lon="13.2234210968018">
			<ele>46.7999992370605</ele>
			<time>2014-04-13T11:33:04Z</time>
		</trkpt>
		<trkpt lat="53.9559936523438" lon="13.2235403060913">
			<ele>47</ele>
			<time>2014-04-13T11:33:05Z</time>
		</trkpt>
		<trkpt lat="53.9559593200684" lon="13.2236557006836">
			<ele>46.7999992370605</ele>
			<time>2014-04-13T11:33:06Z</time>
		</trkpt>
		<trkpt lat="53.9559288024902" lon="13.22376537323">
			<ele>46.7999992370605</ele>
			<time>2014-04-13T11:33:07Z</time>
		</trkpt>
		<trkpt lat="53.9558982849121" lon="13.2238826751709">
			<ele>47</ele>
			<time>2014-04-13T11:33:08Z</time>
		</trkpt>
		<trkpt lat="53.955867767334" lon="13.2239990234375">
			<ele>46.7999992370605</ele>
			<time>2014-04-13T11:33:09Z</time>
		</trkpt>
		<trkpt lat="53.9558334350586" lon="13.2241106033325">
			<ele>46.9000015258789</ele>
			<time>2014-04-13T11:33:10Z</time>
		</trkpt>
		<trkpt lat="53.9557991027832" lon="13.2242250442505">
			<ele>47</ele>
			<time>2014-04-13T11:33:11Z</time>
		</trkpt>
		<trkpt lat="53.9557685852051" lon="13.2243452072144">
			<ele>47.0999984741211</ele>
			<time>2014-04-13T11:33:12Z</time>
		</trkpt>
		<trkpt lat="53.9557495117188" lon="13.2244710922241">
			<ele>47.2000007629395</ele>
			<time>2014-04-13T11:33:13Z</time>
		</trkpt>
		<trkpt lat="53.9557495117188" lon="13.2245817184448">
			<ele>47</ele>
			<time>2014-04-13T11:33:14Z</time>
		</trkpt>
		<trkpt lat="53.9557495117188" lon="13.2247066497803">
			<ele>47.5</ele>
			<time>2014-04-13T11:33:15Z</time>
		</trkpt>
		<trkpt lat="53.9557495117188" lon="13.2248430252075">
			<ele>47.0999984741211</ele>
			<time>2014-04-13T11:33:16Z</time>
		</trkpt>
		<trkpt lat="53.9557609558105" lon="13.2249670028687">
			<ele>47</ele>
			<time>2014-04-13T11:33:17Z</time>
		</trkpt>
		<trkpt lat="53.9557647705078" lon="13.2250881195068">
			<ele>46.7999992370605</ele>
			<time>2014-04-13T11:33:18Z</time>
		</trkpt>
		<trkpt lat="53.9557762145996" lon="13.2252140045166">
			<ele>46.4000015258789</ele>
			<time>2014-04-13T11:33:19Z</time>
		</trkpt>
		<trkpt lat="53.9557914733887" lon="13.2253398895264">
			<ele>46.2000007629395</ele>
			<time>2014-04-13T11:33:20Z</time>
		</trkpt>
		<trkpt lat="53.9557952880859" lon="13.2254657745361">
			<ele>46.4000015258789</ele>
			<time>2014-04-13T11:33:21Z</time>
		</trkpt>
		<trkpt lat="53.9557991027832" lon="13.2255992889404">
			<ele>46.0999984741211</ele>
			<time>2014-04-13T11:33:22Z</time>
		</trkpt>
		<trkpt lat="53.955810546875" lon="13.2257308959961">
			<ele>46.0999984741211</ele>
			<time>2014-04-13T11:33:23Z</time>
		</trkpt>
		<trkpt lat="53.9558258056641" lon="13.2258577346802">
			<ele>45.7000007629395</ele>
			<time>2014-04-13T11:33:24Z</time>
		</trkpt>
		<trkpt lat="53.9558372497559" lon="13.2259845733643">
			<ele>45.7000007629395</ele>
			<time>2014-04-13T11:33:25Z</time>
		</trkpt>
		<trkpt lat="53.9558448791504" lon="13.2261047363281">
			<ele>46.2000007629395</ele>
			<time>2014-04-13T11:33:26Z</time>
		</trkpt>
		<trkpt lat="53.9558563232422" lon="13.2262201309204">
			<ele>46.4000015258789</ele>
			<time>2014-04-13T11:33:27Z</time>
		</trkpt>
		<trkpt lat="53.955867767334" lon="13.2263431549072">
			<ele>45.9000015258789</ele>
			<time>2014-04-13T11:33:28Z</time>
		</trkpt>
		<trkpt lat="53.9558792114258" lon="13.2264719009399">
			<ele>45.7999992370605</ele>
			<time>2014-04-13T11:33:29Z</time>
		</trkpt>
		<trkpt lat="53.9558944702148" lon="13.2266025543213">
			<ele>45.9000015258789</ele>
			<time>2014-04-13T11:33:30Z</time>
		</trkpt>
		<trkpt lat="53.9559097290039" lon="13.2267322540283">
			<ele>45.5999984741211</ele>
			<time>2014-04-13T11:33:31Z</time>
		</trkpt>
		<trkpt lat="53.9559211730957" lon="13.2268619537354">
			<ele>45.4000015258789</ele>
			<time>2014-04-13T11:33:32Z</time>
		</trkpt>
		<trkpt lat="53.9559326171875" lon="13.2269983291626">
			<ele>45.0999984741211</ele>
			<time>2014-04-13T11:33:33Z</time>
		</trkpt>
		<trkpt lat="53.9559440612793" lon="13.2271308898926">
			<ele>45.2999992370605</ele>
			<time>2014-04-13T11:33:34Z</time>
		</trkpt>
		<trkpt lat="53.9559593200684" lon="13.2272596359253">
			<ele>45.0999984741211</ele>
			<time>2014-04-13T11:33:35Z</time>
		</trkpt>
		<trkpt lat="53.9559707641602" lon="13.227391242981">
			<ele>44.5999984741211</ele>
			<time>2014-04-13T11:33:36Z</time>
		</trkpt>
		<trkpt lat="53.955982208252" lon="13.2275142669678">
			<ele>44.2999992370605</ele>
			<time>2014-04-13T11:33:37Z</time>
		</trkpt>
		<trkpt lat="53.955997467041" lon="13.2276496887207">
			<ele>44.7000007629395</ele>
			<time>2014-04-13T11:33:38Z</time>
		</trkpt>
		<trkpt lat="53.9560089111328" lon="13.2277812957764">
			<ele>44.5</ele>
			<time>2014-04-13T11:33:39Z</time>
		</trkpt>
		<trkpt lat="53.9560203552246" lon="13.2279119491577">
			<ele>44.2999992370605</ele>
			<time>2014-04-13T11:33:40Z</time>
		</trkpt>
		<trkpt lat="53.9560356140137" lon="13.2280416488647">
			<ele>44.5</ele>
			<time>2014-04-13T11:33:41Z</time>
		</trkpt>
		<trkpt lat="53.9560432434082" lon="13.2281761169434">
			<ele>44.5999984741211</ele>
			<time>2014-04-13T11:33:42Z</time>
		</trkpt>
		<trkpt lat="53.9560508728027" lon="13.2283020019531">
			<ele>44.5</ele>
			<time>2014-04-13T11:33:43Z</time>
		</trkpt>
		<trkpt lat="53.9560623168945" lon="13.2284307479858">
			<ele>44.4000015258789</ele>
			<time>2014-04-13T11:33:44Z</time>
		</trkpt>
		<trkpt lat="53.9560775756836" lon="13.2285614013672">
			<ele>44.2999992370605</ele>
			<time>2014-04-13T11:33:45Z</time>
		</trkpt>
		<trkpt lat="53.9560852050781" lon="13.2286901473999">
			<ele>44.5</ele>
			<time>2014-04-13T11:33:46Z</time>
		</trkpt>
		<trkpt lat="53.9560928344727" lon="13.2288217544556">
			<ele>44.5</ele>
			<time>2014-04-13T11:33:47Z</time>
		</trkpt>
		<trkpt lat="53.9560890197754" lon="13.2289505004883">
			<ele>44.5</ele>
			<time>2014-04-13T11:33:48Z</time>
		</trkpt>
		<trkpt lat="53.9560775756836" lon="13.229079246521">
			<ele>44.7999992370605</ele>
			<time>2014-04-13T11:33:49Z</time>
		</trkpt>
		<trkpt lat="53.9560546875" lon="13.2292127609253">
			<ele>45.0999984741211</ele>
			<time>2014-04-13T11:33:50Z</time>
		</trkpt>
		<trkpt lat="53.9560203552246" lon="13.2293376922607">
			<ele>45.0999984741211</ele>
			<time>2014-04-13T11:33:51Z</time>
		</trkpt>
		<trkpt lat="53.955997467041" lon="13.2294597625732">
			<ele>44.9000015258789</ele>
			<time>2014-04-13T11:33:52Z</time>
		</trkpt>
		<trkpt lat="53.9559707641602" lon="13.2295808792114">
			<ele>44.7000007629395</ele>
			<time>2014-04-13T11:33:53Z</time>
		</trkpt>
		<trkpt lat="53.9559440612793" lon="13.2297010421753">
			<ele>44.5999984741211</ele>
			<time>2014-04-13T11:33:54Z</time>
		</trkpt>
		<trkpt lat="53.9559173583984" lon="13.2298259735107">
			<ele>44.4000015258789</ele>
			<time>2014-04-13T11:33:55Z</time>
		</trkpt>
		<trkpt lat="53.9558906555176" lon="13.2299547195435">
			<ele>44.5999984741211</ele>
			<time>2014-04-13T11:33:56Z</time>
		</trkpt>
		<trkpt lat="53.9558639526367" lon="13.230073928833">
			<ele>44.7999992370605</ele>
			<time>2014-04-13T11:33:57Z</time>
		</trkpt>
		<trkpt lat="53.9558372497559" lon="13.2301940917969">
			<ele>45</ele>
			<time>2014-04-13T11:33:58Z</time>
		</trkpt>
		<trkpt lat="53.955810546875" lon="13.2303123474121">
			<ele>45.0999984741211</ele>
			<time>2014-04-13T11:33:59Z</time>
		</trkpt>
		<trkpt lat="53.9557800292969" lon="13.2304334640503">
			<ele>44.7999992370605</ele>
			<time>2014-04-13T11:34:00Z</time>
		</trkpt>
		<trkpt lat="53.9557456970215" lon="13.2305450439453">
			<ele>44.4000015258789</ele>
			<time>2014-04-13T11:34:01Z</time>
		</trkpt>
		<trkpt lat="53.9557075500488" lon="13.2306671142578">
			<ele>44.4000015258789</ele>
			<time>2014-04-13T11:34:02Z</time>
		</trkpt>
		<trkpt lat="53.9556655883789" lon="13.2307939529419">
			<ele>43.7999992370605</ele>
			<time>2014-04-13T11:34:03Z</time>
		</trkpt>
		<trkpt lat="53.955623626709" lon="13.2309236526489">
			<ele>43.5</ele>
			<time>2014-04-13T11:34:04Z</time>
		</trkpt>
		<trkpt lat="53.9555778503418" lon="13.2310543060303">
			<ele>43.0999984741211</ele>
			<time>2014-04-13T11:34:05Z</time>
		</trkpt>
		<trkpt lat="53.9555320739746" lon="13.2311868667603">
			<ele>42.9000015258789</ele>
			<time>2014-04-13T11:34:06Z</time>
		</trkpt>
		<trkpt lat="53.9554824829102" lon="13.2313098907471">
			<ele>42.7000007629395</ele>
			<time>2014-04-13T11:34:07Z</time>
		</trkpt>
		<trkpt lat="53.9554328918457" lon="13.2314386367798">
			<ele>42.5</ele>
			<time>2014-04-13T11:34:08Z</time>
		</trkpt>
		<trkpt lat="53.955379486084" lon="13.2315711975098">
			<ele>42.2000007629395</ele>
			<time>2014-04-13T11:34:09Z</time>
		</trkpt>
		<trkpt lat="53.9553298950195" lon="13.2316970825195">
			<ele>41.9000015258789</ele>
			<time>2014-04-13T11:34:10Z</time>
		</trkpt>
		<trkpt lat="53.9552803039551" lon="13.2318277359009">
			<ele>42.2000007629395</ele>
			<time>2014-04-13T11:34:13Z</time>
		</trkpt>
		<trkpt lat="53.9551391601563" lon="13.2322034835815">
			<ele>42.2000007629395</ele>
			<time>2014-04-13T11:34:14Z</time>
		</trkpt>
		<trkpt lat="53.9550895690918" lon="13.2323207855225">
			<ele>42.4000015258789</ele>
			<time>2014-04-13T11:34:15Z</time>
		</trkpt>
		<trkpt lat="53.9550399780273" lon="13.2324419021606">
			<ele>42.4000015258789</ele>
			<time>2014-04-13T11:34:16Z</time>
		</trkpt>
		<trkpt lat="53.9549942016602" lon="13.2325572967529">
			<ele>42.5999984741211</ele>
			<time>2014-04-13T11:34:17Z</time>
		</trkpt>
		<trkpt lat="53.9549522399902" lon="13.2326688766479">
			<ele>42.7000007629395</ele>
			<time>2014-04-13T11:34:18Z</time>
		</trkpt>
		<trkpt lat="53.954906463623" lon="13.2327785491943">
			<ele>42.7000007629395</ele>
			<time>2014-04-13T11:34:19Z</time>
		</trkpt>
		<trkpt lat="53.9548606872559" lon="13.2328834533691">
			<ele>42.7999992370605</ele>
			<time>2014-04-13T11:34:20Z</time>
		</trkpt>
		<trkpt lat="53.9548187255859" lon="13.2329931259155">
			<ele>42.7999992370605</ele>
			<time>2014-04-13T11:34:21Z</time>
		</trkpt>
		<trkpt lat="53.954776763916" lon="13.2331066131592">
			<ele>42.7999992370605</ele>
			<time>2014-04-13T11:34:24Z</time>
		</trkpt>
		<trkpt lat="53.9546546936035" lon="13.2334175109863">
			<ele>43.4000015258789</ele>
			<time>2014-04-13T11:34:25Z</time>
		</trkpt>
		<trkpt lat="53.9546203613281" lon="13.2335138320923">
			<ele>43.5999984741211</ele>
			<time>2014-04-13T11:34:26Z</time>
		</trkpt>
		<trkpt lat="53.9545822143555" lon="13.2336111068726">
			<ele>43.7000007629395</ele>
			<time>2014-04-13T11:34:27Z</time>
		</trkpt>
		<trkpt lat="53.9545440673828" lon="13.2337045669556">
			<ele>43.7000007629395</ele>
			<time>2014-04-13T11:34:28Z</time>
		</trkpt>
		<trkpt lat="53.9545059204102" lon="13.2338037490845">
			<ele>43.5</ele>
			<time>2014-04-13T11:34:29Z</time>
		</trkpt>
		<trkpt lat="53.9544677734375" lon="13.233904838562">
			<ele>43.2999992370605</ele>
			<time>2014-04-13T11:34:30Z</time>
		</trkpt>
		<trkpt lat="53.9544258117676" lon="13.2340078353882">
			<ele>43.4000015258789</ele>
			<time>2014-04-13T11:34:31Z</time>
		</trkpt>
		<trkpt lat="53.9543876647949" lon="13.2341117858887">
			<ele>43.4000015258789</ele>
			<time>2014-04-13T11:34:32Z</time>
		</trkpt>
		<trkpt lat="53.9543495178223" lon="13.2342195510864">
			<ele>43.0999984741211</ele>
			<time>2014-04-13T11:34:33Z</time>
		</trkpt>
		<trkpt lat="53.9543037414551" lon="13.2343235015869">
			<ele>43</ele>
			<time>2014-04-13T11:34:34Z</time>
		</trkpt>
		<trkpt lat="53.9542579650879" lon="13.2344284057617">
			<ele>42.9000015258789</ele>
			<time>2014-04-13T11:34:35Z</time>
		</trkpt>
		<trkpt lat="53.954216003418" lon="13.2345361709595">
			<ele>42.9000015258789</ele>
			<time>2014-04-13T11:34:36Z</time>
		</trkpt>
		<trkpt lat="53.954174041748" lon="13.2346439361572">
			<ele>43</ele>
			<time>2014-04-13T11:34:37Z</time>
		</trkpt>
		<trkpt lat="53.9541320800781" lon="13.2347526550293">
			<ele>43</ele>
			<time>2014-04-13T11:34:38Z</time>
		</trkpt>
		<trkpt lat="53.9540901184082" lon="13.2348613739014">
			<ele>42.9000015258789</ele>
			<time>2014-04-13T11:34:39Z</time>
		</trkpt>
		<trkpt lat="53.9540481567383" lon="13.2349662780762">
			<ele>42.7000007629395</ele>
			<time>2014-04-13T11:34:40Z</time>
		</trkpt>
		<trkpt lat="53.9540023803711" lon="13.235071182251">
			<ele>42.5999984741211</ele>
			<time>2014-04-13T11:34:41Z</time>
		</trkpt>
		<trkpt lat="53.9539642333984" lon="13.2351732254028">
			<ele>42.7000007629395</ele>
			<time>2014-04-13T11:34:42Z</time>
		</trkpt>
		<trkpt lat="53.9539222717285" lon="13.2352781295776">
			<ele>43</ele>
			<time>2014-04-13T11:34:43Z</time>
		</trkpt>
		<trkpt lat="53.9538841247559" lon="13.2353773117065">
			<ele>42.9000015258789</ele>
			<time>2014-04-13T11:34:44Z</time>
		</trkpt>
		<trkpt lat="53.9538497924805" lon="13.2354822158813">
			<ele>42.9000015258789</ele>
			<time>2014-04-13T11:34:45Z</time>
		</trkpt>
		<trkpt lat="53.9538078308105" lon="13.2355861663818">
			<ele>42.4000015258789</ele>
			<time>2014-04-13T11:34:46Z</time>
		</trkpt>
		<trkpt lat="53.9537658691406" lon="13.2356882095337">
			<ele>42.7000007629395</ele>
			<time>2014-04-13T11:34:47Z</time>
		</trkpt>
		<trkpt lat="53.9537239074707" lon="13.2357912063599">
			<ele>42.5999984741211</ele>
			<time>2014-04-13T11:34:48Z</time>
		</trkpt>
		<trkpt lat="53.9536819458008" lon="13.2358913421631">
			<ele>42.7000007629395</ele>
			<time>2014-04-13T11:34:49Z</time>
		</trkpt>
		<trkpt lat="53.9536476135254" lon="13.235990524292">
			<ele>42.7000007629395</ele>
			<time>2014-04-13T11:34:50Z</time>
		</trkpt>
		<trkpt lat="53.9536056518555" lon="13.2360897064209">
			<ele>42.5</ele>
			<time>2014-04-13T11:34:51Z</time>
		</trkpt>
		<trkpt lat="53.9535675048828" lon="13.2361936569214">
			<ele>42.5</ele>
			<time>2014-04-13T11:34:52Z</time>
		</trkpt>
		<trkpt lat="53.9535255432129" lon="13.2362966537476">
			<ele>42.4000015258789</ele>
			<time>2014-04-13T11:34:53Z</time>
		</trkpt>
		<trkpt lat="53.953483581543" lon="13.2364015579224">
			<ele>42.2999992370605</ele>
			<time>2014-04-13T11:34:54Z</time>
		</trkpt>
		<trkpt lat="53.953441619873" lon="13.2365083694458">
			<ele>42.2000007629395</ele>
			<time>2014-04-13T11:34:55Z</time>
		</trkpt>
		<trkpt lat="53.9533996582031" lon="13.2366170883179">
			<ele>42</ele>
			<time>2014-04-13T11:34:56Z</time>
		</trkpt>
		<trkpt lat="53.9533576965332" lon="13.2367286682129">
			<ele>41.7999992370605</ele>
			<time>2014-04-13T11:34:57Z</time>
		</trkpt>
		<trkpt lat="53.9533157348633" lon="13.236834526062">
			<ele>42.2000007629395</ele>
			<time>2014-04-13T11:34:58Z</time>
		</trkpt>
		<trkpt lat="53.9532737731934" lon="13.2369356155396">
			<ele>42.2999992370605</ele>
			<time>2014-04-13T11:34:59Z</time>
		</trkpt>
		<trkpt lat="53.9532356262207" lon="13.2370386123657">
			<ele>42.5</ele>
			<time>2014-04-13T11:35:00Z</time>
		</trkpt>
		<trkpt lat="53.9532012939453" lon="13.2371406555176">
			<ele>42.4000015258789</ele>
			<time>2014-04-13T11:35:01Z</time>
		</trkpt>
		<trkpt lat="53.9531593322754" lon="13.2372360229492">
			<ele>42.2999992370605</ele>
			<time>2014-04-13T11:35:02Z</time>
		</trkpt>
		<trkpt lat="53.9531211853027" lon="13.2373313903809">
			<ele>42.7000007629395</ele>
			<time>2014-04-13T11:35:03Z</time>
		</trkpt>
		<trkpt lat="53.9530868530273" lon="13.2374219894409">
			<ele>42.5</ele>
			<time>2014-04-13T11:35:04Z</time>
		</trkpt>
		<trkpt lat="53.9530487060547" lon="13.2375135421753">
			<ele>42.5</ele>
			<time>2014-04-13T11:35:05Z</time>
		</trkpt>
		<trkpt lat="53.9530143737793" lon="13.237603187561">
			<ele>42.5999984741211</ele>
			<time>2014-04-13T11:35:06Z</time>
		</trkpt>
		<trkpt lat="53.9529800415039" lon="13.2376956939697">
			<ele>42.7000007629395</ele>
			<time>2014-04-13T11:35:07Z</time>
		</trkpt>
		<trkpt lat="53.9529495239258" lon="13.2377891540527">
			<ele>43.0999984741211</ele>
			<time>2014-04-13T11:35:08Z</time>
		</trkpt>
		<trkpt lat="53.9529190063477" lon="13.2378721237183">
			<ele>43.2999992370605</ele>
			<time>2014-04-13T11:35:09Z</time>
		</trkpt>
		<trkpt lat="53.9528846740723" lon="13.2379560470581">
			<ele>43.5999984741211</ele>
			<time>2014-04-13T11:35:10Z</time>
		</trkpt>
		<trkpt lat="53.9528541564941" lon="13.2380323410034">
			<ele>43.7000007629395</ele>
			<time>2014-04-13T11:35:11Z</time>
		</trkpt>
		<trkpt lat="53.952823638916" lon="13.2381105422974">
			<ele>43.7000007629395</ele>
			<time>2014-04-13T11:35:12Z</time>
		</trkpt>
		<trkpt lat="53.9527969360352" lon="13.2381887435913">
			<ele>43.7999992370605</ele>
			<time>2014-04-13T11:35:13Z</time>
		</trkpt>
		<trkpt lat="53.9527702331543" lon="13.2382593154907">
			<ele>44.2000007629395</ele>
			<time>2014-04-13T11:35:14Z</time>
		</trkpt>
		<trkpt lat="53.9527397155762" lon="13.2383270263672">
			<ele>44.2999992370605</ele>
			<time>2014-04-13T11:35:15Z</time>
		</trkpt>
		<trkpt lat="53.952709197998" lon="13.2383947372437">
			<ele>44.5999984741211</ele>
			<time>2014-04-13T11:35:16Z</time>
		</trkpt>
		<trkpt lat="53.9526786804199" lon="13.2384653091431">
			<ele>44.5999984741211</ele>
			<time>2014-04-13T11:35:17Z</time>
		</trkpt>
		<trkpt lat="53.9526557922363" lon="13.2385301589966">
			<ele>44.5999984741211</ele>
			<time>2014-04-13T11:35:18Z</time>
		</trkpt>
		<trkpt lat="53.9526290893555" lon="13.2385950088501">
			<ele>44.9000015258789</ele>
			<time>2014-04-13T11:35:19Z</time>
		</trkpt>
		<trkpt lat="53.9526023864746" lon="13.2386608123779">
			<ele>44.7999992370605</ele>
			<time>2014-04-13T11:35:20Z</time>
		</trkpt>
		<trkpt lat="53.9525756835938" lon="13.2387247085571">
			<ele>44.9000015258789</ele>
			<time>2014-04-13T11:35:21Z</time>
		</trkpt>
		<trkpt lat="53.9525527954102" lon="13.2387924194336">
			<ele>44.9000015258789</ele>
			<time>2014-04-13T11:35:22Z</time>
		</trkpt>
		<trkpt lat="53.9525260925293" lon="13.2388591766357">
			<ele>45.0999984741211</ele>
			<time>2014-04-13T11:35:23Z</time>
		</trkpt>
		<trkpt lat="53.9524765014648" lon="13.2389831542969">
			<ele>45.5</ele>
			<time>2014-04-13T11:35:25Z</time>
		</trkpt>
		<trkpt lat="53.952449798584" lon="13.2390460968018">
			<ele>45.4000015258789</ele>
			<time>2014-04-13T11:35:26Z</time>
		</trkpt>
		<trkpt lat="53.9524002075195" lon="13.2391700744629">
			<ele>45.4000015258789</ele>
			<time>2014-04-13T11:35:28Z</time>
		</trkpt>
		<trkpt lat="53.9523506164551" lon="13.2393016815186">
			<ele>45.7000007629395</ele>
			<time>2014-04-13T11:35:30Z</time>
		</trkpt>
		<trkpt lat="53.9522972106934" lon="13.2394323348999">
			<ele>46.2000007629395</ele>
			<time>2014-04-13T11:35:32Z</time>
		</trkpt>
		<trkpt lat="53.9522705078125" lon="13.2394962310791">
			<ele>46.2999992370605</ele>
			<time>2014-04-13T11:35:33Z</time>
		</trkpt>
		<trkpt lat="53.9522476196289" lon="13.2395677566528">
			<ele>46.0999984741211</ele>
			<time>2014-04-13T11:35:34Z</time>
		</trkpt>
		<trkpt lat="53.9522171020508" lon="13.2396373748779">
			<ele>46</ele>
			<time>2014-04-13T11:35:35Z</time>
		</trkpt>
		<trkpt lat="53.9521903991699" lon="13.239709854126">
			<ele>46.2000007629395</ele>
			<time>2014-04-13T11:35:36Z</time>
		</trkpt>
		<trkpt lat="53.9521636962891" lon="13.2397813796997">
			<ele>46.2999992370605</ele>
			<time>2014-04-13T11:35:37Z</time>
		</trkpt>
		<trkpt lat="53.9521369934082" lon="13.2398509979248">
			<ele>46.2000007629395</ele>
			<time>2014-04-13T11:35:38Z</time>
		</trkpt>
		<trkpt lat="53.9521102905273" lon="13.2399215698242">
			<ele>46.2000007629395</ele>
			<time>2014-04-13T11:35:39Z</time>
		</trkpt>
		<trkpt lat="53.9520797729492" lon="13.2399930953979">
			<ele>46.4000015258789</ele>
			<time>2014-04-13T11:35:40Z</time>
		</trkpt>
		<trkpt lat="53.9520530700684" lon="13.2400665283203">
			<ele>46.5</ele>
			<time>2014-04-13T11:35:41Z</time>
		</trkpt>
		<trkpt lat="53.9520225524902" lon="13.2401428222656">
			<ele>46.4000015258789</ele>
			<time>2014-04-13T11:35:42Z</time>
		</trkpt>
		<trkpt lat="53.9519920349121" lon="13.2402229309082">
			<ele>46.2999992370605</ele>
			<time>2014-04-13T11:35:43Z</time>
		</trkpt>
		<trkpt lat="53.9519653320313" lon="13.2403011322021">
			<ele>46.4000015258789</ele>
			<time>2014-04-13T11:35:44Z</time>
		</trkpt>
		<trkpt lat="53.9519348144531" lon="13.2403802871704">
			<ele>46.2000007629395</ele>
			<time>2014-04-13T11:35:45Z</time>
		</trkpt>
		<trkpt lat="53.9519004821777" lon="13.24045753479">
			<ele>46.0999984741211</ele>
			<time>2014-04-13T11:35:46Z</time>
		</trkpt>
		<trkpt lat="53.9518661499023" lon="13.2405385971069">
			<ele>46.0999984741211</ele>
			<time>2014-04-13T11:35:47Z</time>
		</trkpt>
		<trkpt lat="53.951831817627" lon="13.2406187057495">
			<ele>46</ele>
			<time>2014-04-13T11:35:48Z</time>
		</trkpt>
		<trkpt lat="53.9517974853516" lon="13.2406969070435">
			<ele>46.0999984741211</ele>
			<time>2014-04-13T11:35:49Z</time>
		</trkpt>
		<trkpt lat="53.9517631530762" lon="13.240779876709">
			<ele>46.2000007629395</ele>
			<time>2014-04-13T11:35:50Z</time>
		</trkpt>
		<trkpt lat="53.951732635498" lon="13.2408676147461">
			<ele>46</ele>
			<time>2014-04-13T11:35:51Z</time>
		</trkpt>
		<trkpt lat="53.9516983032227" lon="13.2409496307373">
			<ele>45.9000015258789</ele>
			<time>2014-04-13T11:35:52Z</time>
		</trkpt>
		<trkpt lat="53.9516639709473" lon="13.2410354614258">
			<ele>46</ele>
			<time>2014-04-13T11:35:53Z</time>
		</trkpt>
		<trkpt lat="53.9516334533691" lon="13.2411231994629">
			<ele>46</ele>
			<time>2014-04-13T11:35:54Z</time>
		</trkpt>
		<trkpt lat="53.9515991210938" lon="13.2412099838257">
			<ele>46.0999984741211</ele>
			<time>2014-04-13T11:35:55Z</time>
		</trkpt>
		<trkpt lat="53.9515686035156" lon="13.2412948608398">
			<ele>46.2999992370605</ele>
			<time>2014-04-13T11:35:56Z</time>
		</trkpt>
		<trkpt lat="53.9515342712402" lon="13.2413759231567">
			<ele>46.0999984741211</ele>
			<time>2014-04-13T11:35:57Z</time>
		</trkpt>
		<trkpt lat="53.9515037536621" lon="13.2414617538452">
			<ele>46.4000015258789</ele>
			<time>2014-04-13T11:35:58Z</time>
		</trkpt>
		<trkpt lat="53.9514694213867" lon="13.241548538208">
			<ele>46.4000015258789</ele>
			<time>2014-04-13T11:35:59Z</time>
		</trkpt>
		<trkpt lat="53.9514350891113" lon="13.2416334152222">
			<ele>46.4000015258789</ele>
			<time>2014-04-13T11:36:00Z</time>
		</trkpt>
		<trkpt lat="53.9513969421387" lon="13.2417135238647">
			<ele>46.5999984741211</ele>
			<time>2014-04-13T11:36:01Z</time>
		</trkpt>
		<trkpt lat="53.9513664245605" lon="13.2417945861816">
			<ele>46.7000007629395</ele>
			<time>2014-04-13T11:36:02Z</time>
		</trkpt>
		<trkpt lat="53.9513282775879" lon="13.2418794631958">
			<ele>46.7999992370605</ele>
			<time>2014-04-13T11:36:03Z</time>
		</trkpt>
		<trkpt lat="53.9512939453125" lon="13.2419605255127">
			<ele>46.7999992370605</ele>
			<time>2014-04-13T11:36:04Z</time>
		</trkpt>
		<trkpt lat="53.9512596130371" lon="13.2420425415039">
			<ele>46.7999992370605</ele>
			<time>2014-04-13T11:36:05Z</time>
		</trkpt>
		<trkpt lat="53.951229095459" lon="13.2421207427979">
			<ele>47</ele>
			<time>2014-04-13T11:36:06Z</time>
		</trkpt>
		<trkpt lat="53.9511985778809" lon="13.2421989440918">
			<ele>47</ele>
			<time>2014-04-13T11:36:07Z</time>
		</trkpt>
		<trkpt lat="53.951171875" lon="13.2422828674316">
			<ele>46.7000007629395</ele>
			<time>2014-04-13T11:36:08Z</time>
		</trkpt>
		<trkpt lat="53.9511451721191" lon="13.2423639297485">
			<ele>46.7999992370605</ele>
			<time>2014-04-13T11:36:09Z</time>
		</trkpt>
		<trkpt lat="53.9511222839355" lon="13.2424516677856">
			<ele>46.9000015258789</ele>
			<time>2014-04-13T11:36:10Z</time>
		</trkpt>
		<trkpt lat="53.951099395752" lon="13.2425394058228">
			<ele>46.7999992370605</ele>
			<time>2014-04-13T11:36:11Z</time>
		</trkpt>
		<trkpt lat="53.9510803222656" lon="13.2426309585571">
			<ele>46.7000007629395</ele>
			<time>2014-04-13T11:36:12Z</time>
		</trkpt>
		<trkpt lat="53.9510612487793" lon="13.2427244186401">
			<ele>46.5999984741211</ele>
			<time>2014-04-13T11:36:13Z</time>
		</trkpt>
		<trkpt lat="53.9510383605957" lon="13.2428169250488">
			<ele>46.4000015258789</ele>
			<time>2014-04-13T11:36:14Z</time>
		</trkpt>
		<trkpt lat="53.9510154724121" lon="13.2429151535034">
			<ele>46.0999984741211</ele>
			<time>2014-04-13T11:36:15Z</time>
		</trkpt>
		<trkpt lat="53.9509963989258" lon="13.2430114746094">
			<ele>46</ele>
			<time>2014-04-13T11:36:16Z</time>
		</trkpt>
		<trkpt lat="53.9509735107422" lon="13.2431087493896">
			<ele>46.2000007629395</ele>
			<time>2014-04-13T11:36:17Z</time>
		</trkpt>
		<trkpt lat="53.9509506225586" lon="13.2432060241699">
			<ele>46.2999992370605</ele>
			<time>2014-04-13T11:36:18Z</time>
		</trkpt>
		<trkpt lat="53.950927734375" lon="13.2433042526245">
			<ele>46.2000007629395</ele>
			<time>2014-04-13T11:36:19Z</time>
		</trkpt>
		<trkpt lat="53.9509048461914" lon="13.2434091567993">
			<ele>46.2999992370605</ele>
			<time>2014-04-13T11:36:20Z</time>
		</trkpt>
		<trkpt lat="53.9508819580078" lon="13.2435083389282">
			<ele>46.0999984741211</ele>
			<time>2014-04-13T11:36:21Z</time>
		</trkpt>
		<trkpt lat="53.950855255127" lon="13.2436199188232">
			<ele>46</ele>
			<time>2014-04-13T11:36:22Z</time>
		</trkpt>
		<trkpt lat="53.9508323669434" lon="13.2437229156494">
			<ele>45.9000015258789</ele>
			<time>2014-04-13T11:36:23Z</time>
		</trkpt>
		<trkpt lat="53.9508094787598" lon="13.2438259124756">
			<ele>45.7999992370605</ele>
			<time>2014-04-13T11:36:24Z</time>
		</trkpt>
		<trkpt lat="53.9507865905762" lon="13.243932723999">
			<ele>45.7999992370605</ele>
			<time>2014-04-13T11:36:25Z</time>
		</trkpt>
		<trkpt lat="53.9507598876953" lon="13.2440404891968">
			<ele>45.5999984741211</ele>
			<time>2014-04-13T11:36:26Z</time>
		</trkpt>
		<trkpt lat="53.9507331848145" lon="13.2441511154175">
			<ele>45.9000015258789</ele>
			<time>2014-04-13T11:36:27Z</time>
		</trkpt>
		<trkpt lat="53.9507102966309" lon="13.2442598342896">
			<ele>46.5</ele>
			<time>2014-04-13T11:36:28Z</time>
		</trkpt>
		<trkpt lat="53.9506874084473" lon="13.2443656921387">
			<ele>46.7999992370605</ele>
			<time>2014-04-13T11:36:29Z</time>
		</trkpt>
		<trkpt lat="53.9506645202637" lon="13.2444677352905">
			<ele>47.2000007629395</ele>
			<time>2014-04-13T11:36:30Z</time>
		</trkpt>
		<trkpt lat="53.9506454467773" lon="13.2445640563965">
			<ele>47.4000015258789</ele>
			<time>2014-04-13T11:36:31Z</time>
		</trkpt>
		<trkpt lat="53.9506225585938" lon="13.2446575164795">
			<ele>47.5999984741211</ele>
			<time>2014-04-13T11:36:32Z</time>
		</trkpt>
		<trkpt lat="53.9506034851074" lon="13.2447471618652">
			<ele>47.9000015258789</ele>
			<time>2014-04-13T11:36:33Z</time>
		</trkpt>
		<trkpt lat="53.9505844116211" lon="13.2448406219482">
			<ele>48</ele>
			<time>2014-04-13T11:36:34Z</time>
		</trkpt>
		<trkpt lat="53.9505615234375" lon="13.2449312210083">
			<ele>48</ele>
			<time>2014-04-13T11:36:35Z</time>
		</trkpt>
		<trkpt lat="53.9505424499512" lon="13.2450218200684">
			<ele>47.7000007629395</ele>
			<time>2014-04-13T11:36:36Z</time>
		</trkpt>
		<trkpt lat="53.9505233764648" lon="13.2451124191284">
			<ele>47.5999984741211</ele>
			<time>2014-04-13T11:36:37Z</time>
		</trkpt>
		<trkpt lat="53.9505043029785" lon="13.2452039718628">
			<ele>47</ele>
			<time>2014-04-13T11:36:38Z</time>
		</trkpt>
		<trkpt lat="53.9504852294922" lon="13.2452907562256">
			<ele>46.9000015258789</ele>
			<time>2014-04-13T11:36:41Z</time>
		</trkpt>
		<trkpt lat="53.9504203796387" lon="13.2455635070801">
			<ele>47.5</ele>
			<time>2014-04-13T11:36:44Z</time>
		</trkpt>
		<trkpt lat="53.9503707885742" lon="13.2457494735718">
			<ele>47.2000007629395</ele>
			<time>2014-04-13T11:36:48Z</time>
		</trkpt>
		<trkpt lat="53.9502716064453" lon="13.2462348937988">
			<ele>47.4000015258789</ele>
			<time>2014-04-13T11:36:49Z</time>
		</trkpt>
		<trkpt lat="53.9502449035645" lon="13.2463340759277">
			<ele>47.5</ele>
			<time>2014-04-13T11:36:50Z</time>
		</trkpt>
		<trkpt lat="53.9502258300781" lon="13.2464351654053">
			<ele>47.4000015258789</ele>
			<time>2014-04-13T11:36:51Z</time>
		</trkpt>
		<trkpt lat="53.9501991271973" lon="13.2465333938599">
			<ele>47.2000007629395</ele>
			<time>2014-04-13T11:36:52Z</time>
		</trkpt>
		<trkpt lat="53.9501724243164" lon="13.2466354370117">
			<ele>47</ele>
			<time>2014-04-13T11:36:53Z</time>
		</trkpt>
		<trkpt lat="53.9501533508301" lon="13.2467374801636">
			<ele>47</ele>
			<time>2014-04-13T11:36:54Z</time>
		</trkpt>
		<trkpt lat="53.9501266479492" lon="13.2468376159668">
			<ele>47.0999984741211</ele>
			<time>2014-04-13T11:36:55Z</time>
		</trkpt>
		<trkpt lat="53.9501037597656" lon="13.2469444274902">
			<ele>47.0999984741211</ele>
			<time>2014-04-13T11:36:56Z</time>
		</trkpt>
		<trkpt lat="53.9500770568848" lon="13.2470436096191">
			<ele>47.2000007629395</ele>
			<time>2014-04-13T11:36:57Z</time>
		</trkpt>
		<trkpt lat="53.9500579833984" lon="13.2471475601196">
			<ele>47.2000007629395</ele>
			<time>2014-04-13T11:36:58Z</time>
		</trkpt>
		<trkpt lat="53.9500350952148" lon="13.2472505569458">
			<ele>47.2000007629395</ele>
			<time>2014-04-13T11:36:59Z</time>
		</trkpt>
		<trkpt lat="53.9500122070313" lon="13.2473497390747">
			<ele>47.0999984741211</ele>
			<time>2014-04-13T11:37:00Z</time>
		</trkpt>
		<trkpt lat="53.9499893188477" lon="13.2474546432495">
			<ele>47</ele>
			<time>2014-04-13T11:37:01Z</time>
		</trkpt>
		<trkpt lat="53.9499664306641" lon="13.2475547790527">
			<ele>47.2999992370605</ele>
			<time>2014-04-13T11:37:02Z</time>
		</trkpt>
		<trkpt lat="53.9499435424805" lon="13.2476558685303">
			<ele>47.5</ele>
			<time>2014-04-13T11:37:03Z</time>
		</trkpt>
		<trkpt lat="53.9499206542969" lon="13.2477617263794">
			<ele>47.7999992370605</ele>
			<time>2014-04-13T11:37:04Z</time>
		</trkpt>
		<trkpt lat="53.949893951416" lon="13.2478666305542">
			<ele>47.7000007629395</ele>
			<time>2014-04-13T11:37:05Z</time>
		</trkpt>
		<trkpt lat="53.9498748779297" lon="13.2479753494263">
			<ele>47.7999992370605</ele>
			<time>2014-04-13T11:37:06Z</time>
		</trkpt>
		<trkpt lat="53.9498481750488" lon="13.2480812072754">
			<ele>47.7000007629395</ele>
			<time>2014-04-13T11:37:07Z</time>
		</trkpt>
		<trkpt lat="53.9498252868652" lon="13.2481842041016">
			<ele>47.5</ele>
			<time>2014-04-13T11:37:08Z</time>
		</trkpt>
		<trkpt lat="53.9498023986816" lon="13.2482862472534">
			<ele>47.5999984741211</ele>
			<time>2014-04-13T11:37:09Z</time>
		</trkpt>
		<trkpt lat="53.949779510498" lon="13.2483949661255">
			<ele>47.5999984741211</ele>
			<time>2014-04-13T11:37:10Z</time>
		</trkpt>
		<trkpt lat="53.9497566223145" lon="13.2485046386719">
			<ele>47.7000007629395</ele>
			<time>2014-04-13T11:37:11Z</time>
		</trkpt>
		<trkpt lat="53.9497299194336" lon="13.248607635498">
			<ele>47.7999992370605</ele>
			<time>2014-04-13T11:37:12Z</time>
		</trkpt>
		<trkpt lat="53.9497032165527" lon="13.2487096786499">
			<ele>47.5</ele>
			<time>2014-04-13T11:37:13Z</time>
		</trkpt>
		<trkpt lat="53.9496803283691" lon="13.2488164901733">
			<ele>47.5999984741211</ele>
			<time>2014-04-13T11:37:14Z</time>
		</trkpt>
		<trkpt lat="53.9496574401855" lon="13.2489309310913">
			<ele>47.5999984741211</ele>
			<time>2014-04-13T11:37:15Z</time>
		</trkpt>
		<trkpt lat="53.9496307373047" lon="13.2490358352661">
			<ele>47.5</ele>
			<time>2014-04-13T11:37:16Z</time>
		</trkpt>
		<trkpt lat="53.9496040344238" lon="13.2491407394409">
			<ele>47.5999984741211</ele>
			<time>2014-04-13T11:37:17Z</time>
		</trkpt>
		<trkpt lat="53.9495811462402" lon="13.2492427825928">
			<ele>47.5</ele>
			<time>2014-04-13T11:37:18Z</time>
		</trkpt>
		<trkpt lat="53.9495582580566" lon="13.2493467330933">
			<ele>47.7000007629395</ele>
			<time>2014-04-13T11:37:19Z</time>
		</trkpt>
		<trkpt lat="53.9495315551758" lon="13.2494554519653">
			<ele>47.9000015258789</ele>
			<time>2014-04-13T11:37:20Z</time>
		</trkpt>
		<trkpt lat="53.9495124816895" lon="13.2495641708374">
			<ele>47.9000015258789</ele>
			<time>2014-04-13T11:37:21Z</time>
		</trkpt>
		<trkpt lat="53.9494857788086" lon="13.2496690750122">
			<ele>48</ele>
			<time>2014-04-13T11:37:22Z</time>
		</trkpt>
		<trkpt lat="53.949462890625" lon="13.24977684021">
			<ele>47.9000015258789</ele>
			<time>2014-04-13T11:37:23Z</time>
		</trkpt>
		<trkpt lat="53.9494361877441" lon="13.2498846054077">
			<ele>47.7999992370605</ele>
			<time>2014-04-13T11:37:24Z</time>
		</trkpt>
		<trkpt lat="53.9494094848633" lon="13.2499952316284">
			<ele>47.9000015258789</ele>
			<time>2014-04-13T11:37:25Z</time>
		</trkpt>
		<trkpt lat="53.9493865966797" lon="13.2501049041748">
			<ele>48</ele>
			<time>2014-04-13T11:37:26Z</time>
		</trkpt>
		<trkpt lat="53.9493598937988" lon="13.2502202987671">
			<ele>48.0999984741211</ele>
			<time>2014-04-13T11:37:27Z</time>
		</trkpt>
		<trkpt lat="53.9493370056152" lon="13.2503271102905">
			<ele>47.7999992370605</ele>
			<time>2014-04-13T11:37:28Z</time>
		</trkpt>
		<trkpt lat="53.9493103027344" lon="13.2504367828369">
			<ele>48</ele>
			<time>2014-04-13T11:37:29Z</time>
		</trkpt>
		<trkpt lat="53.9492874145508" lon="13.2505474090576">
			<ele>48.0999984741211</ele>
			<time>2014-04-13T11:37:30Z</time>
		</trkpt>
		<trkpt lat="53.9492683410645" lon="13.2506589889526">
			<ele>47.7999992370605</ele>
			<time>2014-04-13T11:37:31Z</time>
		</trkpt>
		<trkpt lat="53.9492454528809" lon="13.250771522522">
			<ele>48</ele>
			<time>2014-04-13T11:37:32Z</time>
		</trkpt>
		<trkpt lat="53.94921875" lon="13.2508888244629">
			<ele>47.7000007629395</ele>
			<time>2014-04-13T11:37:33Z</time>
		</trkpt>
		<trkpt lat="53.9491920471191" lon="13.250997543335">
			<ele>47.7000007629395</ele>
			<time>2014-04-13T11:37:34Z</time>
		</trkpt>
		<trkpt lat="53.9491653442383" lon="13.2511081695557">
			<ele>47.7999992370605</ele>
			<time>2014-04-13T11:37:35Z</time>
		</trkpt>
		<trkpt lat="53.9491386413574" lon="13.2512187957764">
			<ele>47.7000007629395</ele>
			<time>2014-04-13T11:37:36Z</time>
		</trkpt>
		<trkpt lat="53.9491157531738" lon="13.2513294219971">
			<ele>47.5999984741211</ele>
			<time>2014-04-13T11:37:37Z</time>
		</trkpt>
		<trkpt lat="53.949089050293" lon="13.2514371871948">
			<ele>47.5999984741211</ele>
			<time>2014-04-13T11:37:38Z</time>
		</trkpt>
		<trkpt lat="53.9490623474121" lon="13.2515506744385">
			<ele>47.7000007629395</ele>
			<time>2014-04-13T11:37:39Z</time>
		</trkpt>
		<trkpt lat="53.9490356445313" lon="13.2516593933105">
			<ele>47.4000015258789</ele>
			<time>2014-04-13T11:37:40Z</time>
		</trkpt>
		<trkpt lat="53.9490089416504" lon="13.2517747879028">
			<ele>47.5999984741211</ele>
			<time>2014-04-13T11:37:41Z</time>
		</trkpt>
		<trkpt lat="53.9489784240723" lon="13.2518892288208">
			<ele>47.5999984741211</ele>
			<time>2014-04-13T11:37:42Z</time>
		</trkpt>
		<trkpt lat="53.9489555358887" lon="13.2519950866699">
			<ele>47.7000007629395</ele>
			<time>2014-04-13T11:37:43Z</time>
		</trkpt>
		<trkpt lat="53.9489288330078" lon="13.2521018981934">
			<ele>47.7999992370605</ele>
			<time>2014-04-13T11:37:44Z</time>
		</trkpt>
		<trkpt lat="53.9489059448242" lon="13.2522163391113">
			<ele>48</ele>
			<time>2014-04-13T11:37:45Z</time>
		</trkpt>
		<trkpt lat="53.9488868713379" lon="13.2523326873779">
			<ele>48</ele>
			<time>2014-04-13T11:37:46Z</time>
		</trkpt>
		<trkpt lat="53.9488716125488" lon="13.2524452209473">
			<ele>48.2000007629395</ele>
			<time>2014-04-13T11:37:47Z</time>
		</trkpt>
		<trkpt lat="53.9488525390625" lon="13.2525606155396">
			<ele>48.5999984741211</ele>
			<time>2014-04-13T11:37:48Z</time>
		</trkpt>
		<trkpt lat="53.9488334655762" lon="13.2526750564575">
			<ele>48.7999992370605</ele>
			<time>2014-04-13T11:37:49Z</time>
		</trkpt>
		<trkpt lat="53.9488182067871" lon="13.2527856826782">
			<ele>49.0999984741211</ele>
			<time>2014-04-13T11:37:50Z</time>
		</trkpt>
		<trkpt lat="53.948802947998" lon="13.2528953552246">
			<ele>49.0999984741211</ele>
			<time>2014-04-13T11:37:51Z</time>
		</trkpt>
		<trkpt lat="53.948787689209" lon="13.2530012130737">
			<ele>49.2999992370605</ele>
			<time>2014-04-13T11:37:52Z</time>
		</trkpt>
		<trkpt lat="53.9487724304199" lon="13.2531108856201">
			<ele>49</ele>
			<time>2014-04-13T11:37:53Z</time>
		</trkpt>
		<trkpt lat="53.9487533569336" lon="13.2532186508179">
			<ele>48.9000015258789</ele>
			<time>2014-04-13T11:37:54Z</time>
		</trkpt>
		<trkpt lat="53.9487380981445" lon="13.2533273696899">
			<ele>48.9000015258789</ele>
			<time>2014-04-13T11:37:55Z</time>
		</trkpt>
		<trkpt lat="53.9487228393555" lon="13.2534294128418">
			<ele>48.9000015258789</ele>
			<time>2014-04-13T11:37:56Z</time>
		</trkpt>
		<trkpt lat="53.9487075805664" lon="13.2535314559937">
			<ele>49.2000007629395</ele>
			<time>2014-04-13T11:37:57Z</time>
		</trkpt>
		<trkpt lat="53.9486923217773" lon="13.2536344528198">
			<ele>49.2999992370605</ele>
			<time>2014-04-13T11:37:58Z</time>
		</trkpt>
		<trkpt lat="53.948673248291" lon="13.2537412643433">
			<ele>49.2000007629395</ele>
			<time>2014-04-13T11:37:59Z</time>
		</trkpt>
		<trkpt lat="53.9486541748047" lon="13.2538471221924">
			<ele>49.2999992370605</ele>
			<time>2014-04-13T11:38:00Z</time>
		</trkpt>
		<trkpt lat="53.9486389160156" lon="13.2539567947388">
			<ele>49.2999992370605</ele>
			<time>2014-04-13T11:38:01Z</time>
		</trkpt>
		<trkpt lat="53.9486198425293" lon="13.2540683746338">
			<ele>49.2000007629395</ele>
			<time>2014-04-13T11:38:02Z</time>
		</trkpt>
		<trkpt lat="53.9486045837402" lon="13.2541790008545">
			<ele>49.0999984741211</ele>
			<time>2014-04-13T11:38:03Z</time>
		</trkpt>
		<trkpt lat="53.9485855102539" lon="13.2542867660522">
			<ele>48.7999992370605</ele>
			<time>2014-04-13T11:38:04Z</time>
		</trkpt>
		<trkpt lat="53.9485702514648" lon="13.2543992996216">
			<ele>49.0999984741211</ele>
			<time>2014-04-13T11:38:05Z</time>
		</trkpt>
		<trkpt lat="53.9485511779785" lon="13.2545137405396">
			<ele>49.0999984741211</ele>
			<time>2014-04-13T11:38:06Z</time>
		</trkpt>
		<trkpt lat="53.9485321044922" lon="13.2546262741089">
			<ele>49.0999984741211</ele>
			<time>2014-04-13T11:38:07Z</time>
		</trkpt>
		<trkpt lat="53.9485168457031" lon="13.2547407150269">
			<ele>49</ele>
			<time>2014-04-13T11:38:08Z</time>
		</trkpt>
		<trkpt lat="53.9485015869141" lon="13.2548561096191">
			<ele>48.7999992370605</ele>
			<time>2014-04-13T11:38:09Z</time>
		</trkpt>
		<trkpt lat="53.9484825134277" lon="13.2549724578857">
			<ele>48.9000015258789</ele>
			<time>2014-04-13T11:38:10Z</time>
		</trkpt>
		<trkpt lat="53.9484672546387" lon="13.255087852478">
			<ele>48.9000015258789</ele>
			<time>2014-04-13T11:38:11Z</time>
		</trkpt>
		<trkpt lat="53.9484481811523" lon="13.255202293396">
			<ele>48.7999992370605</ele>
			<time>2014-04-13T11:38:12Z</time>
		</trkpt>
		<trkpt lat="53.948429107666" lon="13.2553186416626">
			<ele>49</ele>
			<time>2014-04-13T11:38:13Z</time>
		</trkpt>
		<trkpt lat="53.948413848877" lon="13.2554330825806">
			<ele>49</ele>
			<time>2014-04-13T11:38:14Z</time>
		</trkpt>
		<trkpt lat="53.9483947753906" lon="13.2555484771729">
			<ele>49.0999984741211</ele>
			<time>2014-04-13T11:38:15Z</time>
		</trkpt>
		<trkpt lat="53.9483757019043" lon="13.2556638717651">
			<ele>49.0999984741211</ele>
			<time>2014-04-13T11:38:16Z</time>
		</trkpt>
		<trkpt lat="53.948356628418" lon="13.2557802200317">
			<ele>49.2999992370605</ele>
			<time>2014-04-13T11:38:17Z</time>
		</trkpt>
		<trkpt lat="53.9483413696289" lon="13.255895614624">
			<ele>49.5</ele>
			<time>2014-04-13T11:38:18Z</time>
		</trkpt>
		<trkpt lat="53.9483222961426" lon="13.2560167312622">
			<ele>49.2999992370605</ele>
			<time>2014-04-13T11:38:19Z</time>
		</trkpt>
		<trkpt lat="53.9483032226563" lon="13.2561359405518">
			<ele>49.2000007629395</ele>
			<time>2014-04-13T11:38:20Z</time>
		</trkpt>
		<trkpt lat="53.9482841491699" lon="13.256251335144">
			<ele>49.2999992370605</ele>
			<time>2014-04-13T11:38:21Z</time>
		</trkpt>
		<trkpt lat="53.9482688903809" lon="13.2563667297363">
			<ele>49.4000015258789</ele>
			<time>2014-04-13T11:38:22Z</time>
		</trkpt>
		<trkpt lat="53.9482498168945" lon="13.2564830780029">
			<ele>49.5999984741211</ele>
			<time>2014-04-13T11:38:23Z</time>
		</trkpt>
		<trkpt lat="53.9482307434082" lon="13.2566003799438">
			<ele>49.7000007629395</ele>
			<time>2014-04-13T11:38:24Z</time>
		</trkpt>
		<trkpt lat="53.9482154846191" lon="13.2567138671875">
			<ele>49.7999992370605</ele>
			<time>2014-04-13T11:38:25Z</time>
		</trkpt>
		<trkpt lat="53.9482002258301" lon="13.2568311691284">
			<ele>49.7000007629395</ele>
			<time>2014-04-13T11:38:26Z</time>
		</trkpt>
		<trkpt lat="53.9481811523438" lon="13.256947517395">
			<ele>49.9000015258789</ele>
			<time>2014-04-13T11:38:27Z</time>
		</trkpt>
		<trkpt lat="53.9481620788574" lon="13.257061958313">
			<ele>49.9000015258789</ele>
			<time>2014-04-13T11:38:28Z</time>
		</trkpt>
		<trkpt lat="53.9481468200684" lon="13.2571754455566">
			<ele>50.2000007629395</ele>
			<time>2014-04-13T11:38:29Z</time>
		</trkpt>
		<trkpt lat="53.948127746582" lon="13.2572898864746">
			<ele>50.4000015258789</ele>
			<time>2014-04-13T11:38:30Z</time>
		</trkpt>
		<trkpt lat="53.9481086730957" lon="13.2574024200439">
			<ele>50.5</ele>
			<time>2014-04-13T11:38:31Z</time>
		</trkpt>
		<trkpt lat="53.9480934143066" lon="13.2575187683105">
			<ele>50.5</ele>
			<time>2014-04-13T11:38:32Z</time>
		</trkpt>
		<trkpt lat="53.9480743408203" lon="13.2576303482056">
			<ele>50.5999984741211</ele>
			<time>2014-04-13T11:38:33Z</time>
		</trkpt>
		<trkpt lat="53.9480590820313" lon="13.257740020752">
			<ele>50.4000015258789</ele>
			<time>2014-04-13T11:38:34Z</time>
		</trkpt>
		<trkpt lat="53.9480438232422" lon="13.2578506469727">
			<ele>50.2999992370605</ele>
			<time>2014-04-13T11:38:35Z</time>
		</trkpt>
		<trkpt lat="53.9480247497559" lon="13.2579650878906">
			<ele>50.0999984741211</ele>
			<time>2014-04-13T11:38:36Z</time>
		</trkpt>
		<trkpt lat="53.9480094909668" lon="13.2580785751343">
			<ele>50.0999984741211</ele>
			<time>2014-04-13T11:38:37Z</time>
		</trkpt>
		<trkpt lat="53.9479866027832" lon="13.2581901550293">
			<ele>50.0999984741211</ele>
			<time>2014-04-13T11:38:38Z</time>
		</trkpt>
		<trkpt lat="53.9479713439941" lon="13.2582998275757">
			<ele>50</ele>
			<time>2014-04-13T11:38:39Z</time>
		</trkpt>
		<trkpt lat="53.9479522705078" lon="13.2584104537964">
			<ele>50</ele>
			<time>2014-04-13T11:38:40Z</time>
		</trkpt>
		<trkpt lat="53.9479370117188" lon="13.2585229873657">
			<ele>50</ele>
			<time>2014-04-13T11:38:41Z</time>
		</trkpt>
		<trkpt lat="53.9479179382324" lon="13.2586374282837">
			<ele>49.9000015258789</ele>
			<time>2014-04-13T11:38:42Z</time>
		</trkpt>
		<trkpt lat="53.9479026794434" lon="13.2587490081787">
			<ele>50</ele>
			<time>2014-04-13T11:38:43Z</time>
		</trkpt>
		<trkpt lat="53.947883605957" lon="13.2588577270508">
			<ele>50.0999984741211</ele>
			<time>2014-04-13T11:38:44Z</time>
		</trkpt>
		<trkpt lat="53.947868347168" lon="13.2589654922485">
			<ele>50.2999992370605</ele>
			<time>2014-04-13T11:38:45Z</time>
		</trkpt>
		<trkpt lat="53.9478492736816" lon="13.2590713500977">
			<ele>50.5999984741211</ele>
			<time>2014-04-13T11:38:46Z</time>
		</trkpt>
		<trkpt lat="53.9478340148926" lon="13.2591772079468">
			<ele>50.7000007629395</ele>
			<time>2014-04-13T11:38:47Z</time>
		</trkpt>
		<trkpt lat="53.9478187561035" lon="13.2592840194702">
			<ele>50.7000007629395</ele>
			<time>2014-04-13T11:38:48Z</time>
		</trkpt>
		<trkpt lat="53.9478034973145" lon="13.2593927383423">
			<ele>50.9000015258789</ele>
			<time>2014-04-13T11:38:49Z</time>
		</trkpt>
		<trkpt lat="53.9477844238281" lon="13.25950050354">
			<ele>51</ele>
			<time>2014-04-13T11:38:50Z</time>
		</trkpt>
		<trkpt lat="53.9477691650391" lon="13.2596073150635">
			<ele>51</ele>
			<time>2014-04-13T11:38:51Z</time>
		</trkpt>
		<trkpt lat="53.94775390625" lon="13.2597150802612">
			<ele>51.0999984741211</ele>
			<time>2014-04-13T11:38:52Z</time>
		</trkpt>
		<trkpt lat="53.9477348327637" lon="13.2598218917847">
			<ele>51.0999984741211</ele>
			<time>2014-04-13T11:38:53Z</time>
		</trkpt>
		<trkpt lat="53.9477195739746" lon="13.2599267959595">
			<ele>51.2999992370605</ele>
			<time>2014-04-13T11:38:54Z</time>
		</trkpt>
		<trkpt lat="53.9477005004883" lon="13.2600297927856">
			<ele>51.5</ele>
			<time>2014-04-13T11:38:55Z</time>
		</trkpt>
		<trkpt lat="53.947681427002" lon="13.2601308822632">
			<ele>51.5</ele>
			<time>2014-04-13T11:38:56Z</time>
		</trkpt>
		<trkpt lat="53.9476661682129" lon="13.2602396011353">
			<ele>51.4000015258789</ele>
			<time>2014-04-13T11:38:57Z</time>
		</trkpt>
		<trkpt lat="53.9476470947266" lon="13.2603464126587">
			<ele>51.5</ele>
			<time>2014-04-13T11:38:58Z</time>
		</trkpt>
		<trkpt lat="53.9476318359375" lon="13.2604494094849">
			<ele>51.5999984741211</ele>
			<time>2014-04-13T11:38:59Z</time>
		</trkpt>
		<trkpt lat="53.9476165771484" lon="13.2605600357056">
			<ele>51.9000015258789</ele>
			<time>2014-04-13T11:39:00Z</time>
		</trkpt>
		<trkpt lat="53.9476013183594" lon="13.2606658935547">
			<ele>52</ele>
			<time>2014-04-13T11:39:01Z</time>
		</trkpt>
		<trkpt lat="53.9475860595703" lon="13.2607746124268">
			<ele>52.0999984741211</ele>
			<time>2014-04-13T11:39:02Z</time>
		</trkpt>
		<trkpt lat="53.947566986084" lon="13.2608823776245">
			<ele>52.0999984741211</ele>
			<time>2014-04-13T11:39:03Z</time>
		</trkpt>
		<trkpt lat="53.9475517272949" lon="13.2609901428223">
			<ele>52.0999984741211</ele>
			<time>2014-04-13T11:39:04Z</time>
		</trkpt>
		<trkpt lat="53.9475326538086" lon="13.2610969543457">
			<ele>51.9000015258789</ele>
			<time>2014-04-13T11:39:05Z</time>
		</trkpt>
		<trkpt lat="53.9475173950195" lon="13.2612047195435">
			<ele>51.5999984741211</ele>
			<time>2014-04-13T11:39:06Z</time>
		</trkpt>
		<trkpt lat="53.9474983215332" lon="13.2613153457642">
			<ele>51.7000007629395</ele>
			<time>2014-04-13T11:39:07Z</time>
		</trkpt>
		<trkpt lat="53.9474830627441" lon="13.2614250183105">
			<ele>51.5999984741211</ele>
			<time>2014-04-13T11:39:08Z</time>
		</trkpt>
		<trkpt lat="53.9474639892578" lon="13.2615356445313">
			<ele>51.5999984741211</ele>
			<time>2014-04-13T11:39:09Z</time>
		</trkpt>
		<trkpt lat="53.9474449157715" lon="13.2616395950317">
			<ele>51.9000015258789</ele>
			<time>2014-04-13T11:39:10Z</time>
		</trkpt>
		<trkpt lat="53.9474296569824" lon="13.2617483139038">
			<ele>52</ele>
			<time>2014-04-13T11:39:11Z</time>
		</trkpt>
		<trkpt lat="53.9474143981934" lon="13.2618627548218">
			<ele>51.7999992370605</ele>
			<time>2014-04-13T11:39:12Z</time>
		</trkpt>
		<trkpt lat="53.947395324707" lon="13.2619752883911">
			<ele>51.5999984741211</ele>
			<time>2014-04-13T11:39:13Z</time>
		</trkpt>
		<trkpt lat="53.947380065918" lon="13.2620878219604">
			<ele>51.5</ele>
			<time>2014-04-13T11:39:14Z</time>
		</trkpt>
		<trkpt lat="53.9473609924316" lon="13.2621936798096">
			<ele>51.5999984741211</ele>
			<time>2014-04-13T11:39:15Z</time>
		</trkpt>
		<trkpt lat="53.9473419189453" lon="13.2623023986816">
			<ele>51.5</ele>
			<time>2014-04-13T11:39:16Z</time>
		</trkpt>
		<trkpt lat="53.9473266601563" lon="13.262414932251">
			<ele>51.2999992370605</ele>
			<time>2014-04-13T11:39:17Z</time>
		</trkpt>
		<trkpt lat="53.9473114013672" lon="13.2625274658203">
			<ele>51.2000007629395</ele>
			<time>2014-04-13T11:39:18Z</time>
		</trkpt>
		<trkpt lat="53.9472961425781" lon="13.2626399993896">
			<ele>51.4000015258789</ele>
			<time>2014-04-13T11:39:19Z</time>
		</trkpt>
		<trkpt lat="53.9472770690918" lon="13.2627553939819">
			<ele>51.5999984741211</ele>
			<time>2014-04-13T11:39:20Z</time>
		</trkpt>
		<trkpt lat="53.9472579956055" lon="13.2628660202026">
			<ele>51.5</ele>
			<time>2014-04-13T11:39:21Z</time>
		</trkpt>
		<trkpt lat="53.9472427368164" lon="13.2629804611206">
			<ele>51.5</ele>
			<time>2014-04-13T11:39:22Z</time>
		</trkpt>
		<trkpt lat="53.9472274780273" lon="13.2630939483643">
			<ele>51.5</ele>
			<time>2014-04-13T11:39:23Z</time>
		</trkpt>
		<trkpt lat="53.9472122192383" lon="13.263204574585">
			<ele>51.5999984741211</ele>
			<time>2014-04-13T11:39:24Z</time>
		</trkpt>
		<trkpt lat="53.947193145752" lon="13.2633142471313">
			<ele>51.5999984741211</ele>
			<time>2014-04-13T11:39:25Z</time>
		</trkpt>
		<trkpt lat="53.9471740722656" lon="13.2634248733521">
			<ele>51.5999984741211</ele>
			<time>2014-04-13T11:39:26Z</time>
		</trkpt>
		<trkpt lat="53.9471549987793" lon="13.2635326385498">
			<ele>51.7999992370605</ele>
			<time>2014-04-13T11:39:27Z</time>
		</trkpt>
		<trkpt lat="53.9471397399902" lon="13.2636404037476">
			<ele>51.7000007629395</ele>
			<time>2014-04-13T11:39:28Z</time>
		</trkpt>
		<trkpt lat="53.9471206665039" lon="13.2637538909912">
			<ele>51.5999984741211</ele>
			<time>2014-04-13T11:39:29Z</time>
		</trkpt>
		<trkpt lat="53.9471054077148" lon="13.2638654708862">
			<ele>51.4000015258789</ele>
			<time>2014-04-13T11:39:30Z</time>
		</trkpt>
		<trkpt lat="53.9470863342285" lon="13.263973236084">
			<ele>51.2000007629395</ele>
			<time>2014-04-13T11:39:31Z</time>
		</trkpt>
		<trkpt lat="53.9470710754395" lon="13.264084815979">
			<ele>51.0999984741211</ele>
			<time>2014-04-13T11:39:32Z</time>
		</trkpt>
		<trkpt lat="53.9470520019531" lon="13.2641954421997">
			<ele>51</ele>
			<time>2014-04-13T11:39:33Z</time>
		</trkpt>
		<trkpt lat="53.9470367431641" lon="13.264307975769">
			<ele>51</ele>
			<time>2014-04-13T11:39:34Z</time>
		</trkpt>
		<trkpt lat="53.9470176696777" lon="13.2644166946411">
			<ele>51.2999992370605</ele>
			<time>2014-04-13T11:39:35Z</time>
		</trkpt>
		<trkpt lat="53.9470024108887" lon="13.2645320892334">
			<ele>51.5</ele>
			<time>2014-04-13T11:39:36Z</time>
		</trkpt>
		<trkpt lat="53.9469871520996" lon="13.2646455764771">
			<ele>51.5</ele>
			<time>2014-04-13T11:39:37Z</time>
		</trkpt>
		<trkpt lat="53.9469718933105" lon="13.2647619247437">
			<ele>51.5999984741211</ele>
			<time>2014-04-13T11:39:38Z</time>
		</trkpt>
		<trkpt lat="53.9469528198242" lon="13.2648706436157">
			<ele>51.5</ele>
			<time>2014-04-13T11:39:39Z</time>
		</trkpt>
		<trkpt lat="53.9469337463379" lon="13.2649841308594">
			<ele>51.4000015258789</ele>
			<time>2014-04-13T11:39:40Z</time>
		</trkpt>
		<trkpt lat="53.9469184875488" lon="13.2650966644287">
			<ele>51.4000015258789</ele>
			<time>2014-04-13T11:39:41Z</time>
		</trkpt>
		<trkpt lat="53.9468994140625" lon="13.2652044296265">
			<ele>51.5999984741211</ele>
			<time>2014-04-13T11:39:42Z</time>
		</trkpt>
		<trkpt lat="53.9468803405762" lon="13.2653198242188">
			<ele>51.5999984741211</ele>
			<time>2014-04-13T11:39:43Z</time>
		</trkpt>
		<trkpt lat="53.9468612670898" lon="13.2654371261597">
			<ele>51.4000015258789</ele>
			<time>2014-04-13T11:39:44Z</time>
		</trkpt>
		<trkpt lat="53.9468421936035" lon="13.265552520752">
			<ele>51.5999984741211</ele>
			<time>2014-04-13T11:39:45Z</time>
		</trkpt>
		<trkpt lat="53.9468231201172" lon="13.2656688690186">
			<ele>51.5999984741211</ele>
			<time>2014-04-13T11:39:46Z</time>
		</trkpt>
		<trkpt lat="53.9468040466309" lon="13.2657833099365">
			<ele>51.5999984741211</ele>
			<time>2014-04-13T11:39:47Z</time>
		</trkpt>
		<trkpt lat="53.9467887878418" lon="13.2658996582031">
			<ele>51.5999984741211</ele>
			<time>2014-04-13T11:39:48Z</time>
		</trkpt>
		<trkpt lat="53.9467697143555" lon="13.2660140991211">
			<ele>51.5</ele>
			<time>2014-04-13T11:39:49Z</time>
		</trkpt>
		<trkpt lat="53.9467506408691" lon="13.2661304473877">
			<ele>51.7000007629395</ele>
			<time>2014-04-13T11:39:50Z</time>
		</trkpt>
		<trkpt lat="53.9467353820801" lon="13.2662439346313">
			<ele>51.4000015258789</ele>
			<time>2014-04-13T11:39:51Z</time>
		</trkpt>
		<trkpt lat="53.9467163085938" lon="13.2663583755493">
			<ele>51.5</ele>
			<time>2014-04-13T11:39:52Z</time>
		</trkpt>
		<trkpt lat="53.9466972351074" lon="13.2664747238159">
			<ele>51.4000015258789</ele>
			<time>2014-04-13T11:39:53Z</time>
		</trkpt>
		<trkpt lat="53.9466819763184" lon="13.2665948867798">
			<ele>51.5</ele>
			<time>2014-04-13T11:39:54Z</time>
		</trkpt>
		<trkpt lat="53.946662902832" lon="13.2667102813721">
			<ele>51.5999984741211</ele>
			<time>2014-04-13T11:39:55Z</time>
		</trkpt>
		<trkpt lat="53.9466438293457" lon="13.26682472229">
			<ele>51.4000015258789</ele>
			<time>2014-04-13T11:39:56Z</time>
		</trkpt>
		<trkpt lat="53.9466209411621" lon="13.2669429779053">
			<ele>51.0999984741211</ele>
			<time>2014-04-13T11:39:57Z</time>
		</trkpt>
		<trkpt lat="53.946605682373" lon="13.2670621871948">
			<ele>51.2000007629395</ele>
			<time>2014-04-13T11:39:58Z</time>
		</trkpt>
		<trkpt lat="53.946590423584" lon="13.2671775817871">
			<ele>51.0999984741211</ele>
			<time>2014-04-13T11:39:59Z</time>
		</trkpt>
		<trkpt lat="53.9465713500977" lon="13.2672939300537">
			<ele>51.0999984741211</ele>
			<time>2014-04-13T11:40:00Z</time>
		</trkpt>
		<trkpt lat="53.9465522766113" lon="13.2674150466919">
			<ele>51.0999984741211</ele>
			<time>2014-04-13T11:40:01Z</time>
		</trkpt>
		<trkpt lat="53.9465370178223" lon="13.2675352096558">
			<ele>51.2000007629395</ele>
			<time>2014-04-13T11:40:02Z</time>
		</trkpt>
		<trkpt lat="53.9465179443359" lon="13.2676525115967">
			<ele>51</ele>
			<time>2014-04-13T11:40:03Z</time>
		</trkpt>
		<trkpt lat="53.9464988708496" lon="13.2677736282349">
			<ele>51.5</ele>
			<time>2014-04-13T11:40:04Z</time>
		</trkpt>
		<trkpt lat="53.9464797973633" lon="13.2678918838501">
			<ele>51.7000007629395</ele>
			<time>2014-04-13T11:40:05Z</time>
		</trkpt>
		<trkpt lat="53.9464645385742" lon="13.2680101394653">
			<ele>51.7000007629395</ele>
			<time>2014-04-13T11:40:06Z</time>
		</trkpt>
		<trkpt lat="53.9464530944824" lon="13.2681255340576">
			<ele>51.9000015258789</ele>
			<time>2014-04-13T11:40:07Z</time>
		</trkpt>
		<trkpt lat="53.9464416503906" lon="13.2682409286499">
			<ele>52.0999984741211</ele>
			<time>2014-04-13T11:40:08Z</time>
		</trkpt>
		<trkpt lat="53.9464263916016" lon="13.2683610916138">
			<ele>52</ele>
			<time>2014-04-13T11:40:09Z</time>
		</trkpt>
		<trkpt lat="53.9464111328125" lon="13.2684812545776">
			<ele>52.0999984741211</ele>
			<time>2014-04-13T11:40:10Z</time>
		</trkpt>
		<trkpt lat="53.9463920593262" lon="13.2686014175415">
			<ele>51.7999992370605</ele>
			<time>2014-04-13T11:40:11Z</time>
		</trkpt>
		<trkpt lat="53.9463729858398" lon="13.2687225341797">
			<ele>51.9000015258789</ele>
			<time>2014-04-13T11:40:12Z</time>
		</trkpt>
		<trkpt lat="53.9463539123535" lon="13.2688455581665">
			<ele>51.9000015258789</ele>
			<time>2014-04-13T11:40:13Z</time>
		</trkpt>
		<trkpt lat="53.9463310241699" lon="13.268970489502">
			<ele>52</ele>
			<time>2014-04-13T11:40:14Z</time>
		</trkpt>
		<trkpt lat="53.9463119506836" lon="13.2690887451172">
			<ele>52</ele>
			<time>2014-04-13T11:40:15Z</time>
		</trkpt>
		<trkpt lat="53.9462928771973" lon="13.2692098617554">
			<ele>51.9000015258789</ele>
			<time>2014-04-13T11:40:16Z</time>
		</trkpt>
		<trkpt lat="53.9462738037109" lon="13.2693309783936">
			<ele>51.9000015258789</ele>
			<time>2014-04-13T11:40:17Z</time>
		</trkpt>
		<trkpt lat="53.9462547302246" lon="13.2694540023804">
			<ele>51.7999992370605</ele>
			<time>2014-04-13T11:40:18Z</time>
		</trkpt>
		<trkpt lat="53.9462394714355" lon="13.2695751190186">
			<ele>51.7999992370605</ele>
			<time>2014-04-13T11:40:19Z</time>
		</trkpt>
		<trkpt lat="53.9462203979492" lon="13.2696981430054">
			<ele>51.7000007629395</ele>
			<time>2014-04-13T11:40:20Z</time>
		</trkpt>
		<trkpt lat="53.9462013244629" lon="13.2698192596436">
			<ele>51.7000007629395</ele>
			<time>2014-04-13T11:40:21Z</time>
		</trkpt>
		<trkpt lat="53.9461822509766" lon="13.2699384689331">
			<ele>51.4000015258789</ele>
			<time>2014-04-13T11:40:22Z</time>
		</trkpt>
		<trkpt lat="53.9461631774902" lon="13.270058631897">
			<ele>51.2000007629395</ele>
			<time>2014-04-13T11:40:23Z</time>
		</trkpt>
		<trkpt lat="53.9461441040039" lon="13.2701797485352">
			<ele>51.5</ele>
			<time>2014-04-13T11:40:24Z</time>
		</trkpt>
		<trkpt lat="53.9461250305176" lon="13.2702989578247">
			<ele>51.5</ele>
			<time>2014-04-13T11:40:25Z</time>
		</trkpt>
		<trkpt lat="53.9461059570313" lon="13.2704191207886">
			<ele>51.7000007629395</ele>
			<time>2014-04-13T11:40:26Z</time>
		</trkpt>
		<trkpt lat="53.9460868835449" lon="13.2705430984497">
			<ele>51.9000015258789</ele>
			<time>2014-04-13T11:40:27Z</time>
		</trkpt>
		<trkpt lat="53.9460678100586" lon="13.2706623077393">
			<ele>52.0999984741211</ele>
			<time>2014-04-13T11:40:28Z</time>
		</trkpt>
		<trkpt lat="53.9460487365723" lon="13.2707853317261">
			<ele>52.2000007629395</ele>
			<time>2014-04-13T11:40:29Z</time>
		</trkpt>
		<trkpt lat="53.9460296630859" lon="13.2709054946899">
			<ele>52.0999984741211</ele>
			<time>2014-04-13T11:40:30Z</time>
		</trkpt>
		<trkpt lat="53.9460105895996" lon="13.2710266113281">
			<ele>51.7999992370605</ele>
			<time>2014-04-13T11:40:31Z</time>
		</trkpt>
		<trkpt lat="53.9459915161133" lon="13.2711448669434">
			<ele>52.0999984741211</ele>
			<time>2014-04-13T11:40:32Z</time>
		</trkpt>
		<trkpt lat="53.945972442627" lon="13.2712650299072">
			<ele>52.0999984741211</ele>
			<time>2014-04-13T11:40:33Z</time>
		</trkpt>
		<trkpt lat="53.9459495544434" lon="13.2713851928711">
			<ele>52.2999992370605</ele>
			<time>2014-04-13T11:40:34Z</time>
		</trkpt>
		<trkpt lat="53.945930480957" lon="13.271505355835">
			<ele>52.2999992370605</ele>
			<time>2014-04-13T11:40:35Z</time>
		</trkpt>
		<trkpt lat="53.9459114074707" lon="13.2716236114502">
			<ele>52.2999992370605</ele>
			<time>2014-04-13T11:40:36Z</time>
		</trkpt>
		<trkpt lat="53.9458885192871" lon="13.2717428207397">
			<ele>51.9000015258789</ele>
			<time>2014-04-13T11:40:37Z</time>
		</trkpt>
		<trkpt lat="53.9458694458008" lon="13.2718629837036">
			<ele>52</ele>
			<time>2014-04-13T11:40:38Z</time>
		</trkpt>
		<trkpt lat="53.9458465576172" lon="13.2719831466675">
			<ele>51.9000015258789</ele>
			<time>2014-04-13T11:40:39Z</time>
		</trkpt>
		<trkpt lat="53.9458312988281" lon="13.27210521698">
			<ele>51.7999992370605</ele>
			<time>2014-04-13T11:40:40Z</time>
		</trkpt>
		<trkpt lat="53.9458122253418" lon="13.2722311019897">
			<ele>51.7999992370605</ele>
			<time>2014-04-13T11:40:41Z</time>
		</trkpt>
		<trkpt lat="53.9457931518555" lon="13.2723512649536">
			<ele>52.0999984741211</ele>
			<time>2014-04-13T11:40:42Z</time>
		</trkpt>
		<trkpt lat="53.9457740783691" lon="13.2724742889404">
			<ele>52</ele>
			<time>2014-04-13T11:40:43Z</time>
		</trkpt>
		<trkpt lat="53.9457511901855" lon="13.27259349823">
			<ele>51.7999992370605</ele>
			<time>2014-04-13T11:40:44Z</time>
		</trkpt>
		<trkpt lat="53.9457206726074" lon="13.2727108001709">
			<ele>51.9000015258789</ele>
			<time>2014-04-13T11:40:45Z</time>
		</trkpt>
		<trkpt lat="53.9456787109375" lon="13.272819519043">
			<ele>51.7999992370605</ele>
			<time>2014-04-13T11:40:46Z</time>
		</trkpt>
		<trkpt lat="53.9456367492676" lon="13.2729225158691">
			<ele>51.5</ele>
			<time>2014-04-13T11:40:47Z</time>
		</trkpt>
		<trkpt lat="53.9455871582031" lon="13.273024559021">
			<ele>51.2000007629395</ele>
			<time>2014-04-13T11:40:48Z</time>
		</trkpt>
		<trkpt lat="53.9455337524414" lon="13.2731199264526">
			<ele>50.9000015258789</ele>
			<time>2014-04-13T11:40:49Z</time>
		</trkpt>
		<trkpt lat="53.9454727172852" lon="13.2732009887695">
			<ele>50.9000015258789</ele>
			<time>2014-04-13T11:40:50Z</time>
		</trkpt>
		<trkpt lat="53.9454154968262" lon="13.2732820510864">
			<ele>51</ele>
			<time>2014-04-13T11:40:51Z</time>
		</trkpt>
		<trkpt lat="53.9453582763672" lon="13.2733612060547">
			<ele>50.5999984741211</ele>
			<time>2014-04-13T11:40:52Z</time>
		</trkpt>
		<trkpt lat="53.9453010559082" lon="13.2734375">
			<ele>50.5</ele>
			<time>2014-04-13T11:40:53Z</time>
		</trkpt>
		<trkpt lat="53.9452438354492" lon="13.2735118865967">
			<ele>50.5999984741211</ele>
			<time>2014-04-13T11:40:54Z</time>
		</trkpt>
		<trkpt lat="53.9451904296875" lon="13.2735891342163">
			<ele>50.5999984741211</ele>
			<time>2014-04-13T11:40:55Z</time>
		</trkpt>
		<trkpt lat="53.9451293945313" lon="13.2736644744873">
			<ele>51</ele>
			<time>2014-04-13T11:40:56Z</time>
		</trkpt>
		<trkpt lat="53.9450798034668" lon="13.273738861084">
			<ele>50.7999992370605</ele>
			<time>2014-04-13T11:40:57Z</time>
		</trkpt>
		<trkpt lat="53.9450225830078" lon="13.273814201355">
			<ele>51.2999992370605</ele>
			<time>2014-04-13T11:40:58Z</time>
		</trkpt>
		<trkpt lat="53.9449729919434" lon="13.273889541626">
			<ele>51.2000007629395</ele>
			<time>2014-04-13T11:40:59Z</time>
		</trkpt>
		<trkpt lat="53.9449195861816" lon="13.2739715576172">
			<ele>51.2999992370605</ele>
			<time>2014-04-13T11:41:00Z</time>
		</trkpt>
		<trkpt lat="53.9448585510254" lon="13.2740430831909">
			<ele>51.5</ele>
			<time>2014-04-13T11:41:01Z</time>
		</trkpt>
		<trkpt lat="53.9448051452637" lon="13.2741298675537">
			<ele>51.5999984741211</ele>
			<time>2014-04-13T11:41:02Z</time>
		</trkpt>
		<trkpt lat="53.9447479248047" lon="13.2742013931274">
			<ele>51.5999984741211</ele>
			<time>2014-04-13T11:41:03Z</time>
		</trkpt>
		<trkpt lat="53.9446983337402" lon="13.2742729187012">
			<ele>51.4000015258789</ele>
			<time>2014-04-13T11:41:04Z</time>
		</trkpt>
		<trkpt lat="53.9446449279785" lon="13.274338722229">
			<ele>51.5</ele>
			<time>2014-04-13T11:41:05Z</time>
		</trkpt>
		<trkpt lat="53.9445915222168" lon="13.274393081665">
			<ele>50.9000015258789</ele>
			<time>2014-04-13T11:41:07Z</time>
		</trkpt>
		<trkpt lat="53.9445419311523" lon="13.2744626998901">
			<ele>51.2000007629395</ele>
			<time>2014-04-13T11:41:08Z</time>
		</trkpt>
		<trkpt lat="53.9444847106934" lon="13.2745590209961">
			<ele>51.5</ele>
			<time>2014-04-13T11:41:10Z</time>
		</trkpt>
		<trkpt lat="53.9443321228027" lon="13.2747764587402">
			<ele>50.5999984741211</ele>
			<time>2014-04-13T11:41:15Z</time>
		</trkpt>
		<trkpt lat="53.9440727233887" lon="13.2751388549805">
			<ele>51</ele>
			<time>2014-04-13T11:41:18Z</time>
		</trkpt>
		<trkpt lat="53.943920135498" lon="13.2753524780273">
			<ele>50.7999992370605</ele>
			<time>2014-04-13T11:41:19Z</time>
		</trkpt>
		<trkpt lat="53.9438667297363" lon="13.2754287719727">
			<ele>51</ele>
			<time>2014-04-13T11:41:20Z</time>
		</trkpt>
		<trkpt lat="53.9438171386719" lon="13.275505065918">
			<ele>51.2000007629395</ele>
			<time>2014-04-13T11:41:21Z</time>
		</trkpt>
		<trkpt lat="53.9437637329102" lon="13.2755737304688">
			<ele>51.2999992370605</ele>
			<time>2014-04-13T11:41:23Z</time>
		</trkpt>
		<trkpt lat="53.9437141418457" lon="13.2756395339966">
			<ele>51.0999984741211</ele>
			<time>2014-04-13T11:41:23Z</time>
		</trkpt>
		<trkpt lat="53.9436569213867" lon="13.2757139205933">
			<ele>51.5999984741211</ele>
			<time>2014-04-13T11:41:24Z</time>
		</trkpt>
		<trkpt lat="53.9436111450195" lon="13.2757778167725">
			<ele>51.4000015258789</ele>
			<time>2014-04-13T11:41:25Z</time>
		</trkpt>
		<trkpt lat="53.9435577392578" lon="13.2758512496948">
			<ele>50.9000015258789</ele>
			<time>2014-04-13T11:41:28Z</time>
		</trkpt>
		<trkpt lat="53.9434051513672" lon="13.2760591506958">
			<ele>50.7999992370605</ele>
			<time>2014-04-13T11:41:29Z</time>
		</trkpt>
		<trkpt lat="53.9433555603027" lon="13.2761287689209">
			<ele>50.9000015258789</ele>
			<time>2014-04-13T11:41:30Z</time>
		</trkpt>
		<trkpt lat="53.9433059692383" lon="13.2761945724487">
			<ele>50.9000015258789</ele>
			<time>2014-04-13T11:41:32Z</time>
		</trkpt>
		<trkpt lat="53.9432487487793" lon="13.2762632369995">
			<ele>50.5</ele>
			<time>2014-04-13T11:41:32Z</time>
		</trkpt>
		<trkpt lat="53.9432029724121" lon="13.2763376235962">
			<ele>50.5</ele>
			<time>2014-04-13T11:41:33Z</time>
		</trkpt>
		<trkpt lat="53.9431495666504" lon="13.2764129638672">
			<ele>50.5</ele>
			<time>2014-04-13T11:41:34Z</time>
		</trkpt>
		<trkpt lat="53.9430961608887" lon="13.2764806747437">
			<ele>50.5</ele>
			<time>2014-04-13T11:41:35Z</time>
		</trkpt>
		<trkpt lat="53.9430465698242" lon="13.2765493392944">
			<ele>50.5999984741211</ele>
			<time>2014-04-13T11:41:36Z</time>
		</trkpt>
		<trkpt lat="53.9429969787598" lon="13.2766151428223">
			<ele>50.2999992370605</ele>
			<time>2014-04-13T11:41:37Z</time>
		</trkpt>
		<trkpt lat="53.9429473876953" lon="13.2766904830933">
			<ele>50.5</ele>
			<time>2014-04-13T11:41:38Z</time>
		</trkpt>
		<trkpt lat="53.9429016113281" lon="13.2767572402954">
			<ele>50.2000007629395</ele>
			<time>2014-04-13T11:41:40Z</time>
		</trkpt>
		<trkpt lat="53.9427947998047" lon="13.2768907546997">
			<ele>49.7999992370605</ele>
			<time>2014-04-13T11:41:41Z</time>
		</trkpt>
		<trkpt lat="53.942741394043" lon="13.2769556045532">
			<ele>49.7000007629395</ele>
			<time>2014-04-13T11:41:42Z</time>
		</trkpt>
		<trkpt lat="53.942684173584" lon="13.2770214080811">
			<ele>49.7000007629395</ele>
			<time>2014-04-13T11:41:43Z</time>
		</trkpt>
		<trkpt lat="53.9426345825195" lon="13.2770938873291">
			<ele>49.7000007629395</ele>
			<time>2014-04-13T11:41:44Z</time>
		</trkpt>
		<trkpt lat="53.9425849914551" lon="13.2771635055542">
			<ele>49.5999984741211</ele>
			<time>2014-04-13T11:41:45Z</time>
		</trkpt>
		<trkpt lat="53.9425315856934" lon="13.2772350311279">
			<ele>50.0999984741211</ele>
			<time>2014-04-13T11:41:46Z</time>
		</trkpt>
		<trkpt lat="53.9424819946289" lon="13.2773008346558">
			<ele>50.2000007629395</ele>
			<time>2014-04-13T11:41:47Z</time>
		</trkpt>
		<trkpt lat="53.9424285888672" lon="13.2773656845093">
			<ele>50.2999992370605</ele>
			<time>2014-04-13T11:41:48Z</time>
		</trkpt>
		<trkpt lat="53.9423751831055" lon="13.2774314880371">
			<ele>50.5</ele>
			<time>2014-04-13T11:41:49Z</time>
		</trkpt>
		<trkpt lat="53.9423294067383" lon="13.2774868011475">
			<ele>50.5999984741211</ele>
			<time>2014-04-13T11:41:50Z</time>
		</trkpt>
		<trkpt lat="53.9422798156738" lon="13.2775468826294">
			<ele>50.2000007629395</ele>
			<time>2014-04-13T11:41:51Z</time>
		</trkpt>
		<trkpt lat="53.9422340393066" lon="13.2776069641113">
			<ele>50.2000007629395</ele>
			<time>2014-04-13T11:41:52Z</time>
		</trkpt>
		<trkpt lat="53.9421844482422" lon="13.2776727676392">
			<ele>50.2999992370605</ele>
			<time>2014-04-13T11:41:53Z</time>
		</trkpt>
		<trkpt lat="53.942138671875" lon="13.2777328491211">
			<ele>50.5999984741211</ele>
			<time>2014-04-13T11:41:54Z</time>
		</trkpt>
		<trkpt lat="53.9420928955078" lon="13.277795791626">
			<ele>50.7999992370605</ele>
			<time>2014-04-13T11:41:55Z</time>
		</trkpt>
		<trkpt lat="53.9420394897461" lon="13.2778587341309">
			<ele>50.7000007629395</ele>
			<time>2014-04-13T11:41:56Z</time>
		</trkpt>
		<trkpt lat="53.9419898986816" lon="13.2779216766357">
			<ele>50.7000007629395</ele>
			<time>2014-04-13T11:41:57Z</time>
		</trkpt>
		<trkpt lat="53.9419288635254" lon="13.2779941558838">
			<ele>51.2000007629395</ele>
			<time>2014-04-13T11:41:58Z</time>
		</trkpt>
		<trkpt lat="53.9418716430664" lon="13.27805519104">
			<ele>51.2000007629395</ele>
			<time>2014-04-13T11:41:59Z</time>
		</trkpt>
		<trkpt lat="53.941822052002" lon="13.2781248092651">
			<ele>51.0999984741211</ele>
			<time>2014-04-13T11:42:00Z</time>
		</trkpt>
		<trkpt lat="53.941764831543" lon="13.2781887054443">
			<ele>51.2999992370605</ele>
			<time>2014-04-13T11:42:01Z</time>
		</trkpt>
		<trkpt lat="53.9417152404785" lon="13.2782564163208">
			<ele>51</ele>
			<time>2014-04-13T11:42:02Z</time>
		</trkpt>
		<trkpt lat="53.9416656494141" lon="13.2783250808716">
			<ele>51</ele>
			<time>2014-04-13T11:42:03Z</time>
		</trkpt>
		<trkpt lat="53.9416122436523" lon="13.2783899307251">
			<ele>51.0999984741211</ele>
			<time>2014-04-13T11:42:04Z</time>
		</trkpt>
		<trkpt lat="53.9415588378906" lon="13.2784585952759">
			<ele>51.0999984741211</ele>
			<time>2014-04-13T11:42:05Z</time>
		</trkpt>
		<trkpt lat="53.9415054321289" lon="13.278528213501">
			<ele>51.0999984741211</ele>
			<time>2014-04-13T11:42:06Z</time>
		</trkpt>
		<trkpt lat="53.9414558410645" lon="13.2785987854004">
			<ele>51</ele>
			<time>2014-04-13T11:42:07Z</time>
		</trkpt>
		<trkpt lat="53.9414024353027" lon="13.2786655426025">
			<ele>51.2000007629395</ele>
			<time>2014-04-13T11:42:08Z</time>
		</trkpt>
		<trkpt lat="53.941349029541" lon="13.278733253479">
			<ele>51.2000007629395</ele>
			<time>2014-04-13T11:42:09Z</time>
		</trkpt>
		<trkpt lat="53.9412956237793" lon="13.2788066864014">
			<ele>51.2999992370605</ele>
			<time>2014-04-13T11:42:10Z</time>
		</trkpt>
		<trkpt lat="53.9412384033203" lon="13.2788763046265">
			<ele>50.9000015258789</ele>
			<time>2014-04-13T11:42:13Z</time>
		</trkpt>
		<trkpt lat="53.9410705566406" lon="13.2790803909302">
			<ele>50.2000007629395</ele>
			<time>2014-04-13T11:42:14Z</time>
		</trkpt>
		<trkpt lat="53.9410171508789" lon="13.279146194458">
			<ele>50.0999984741211</ele>
			<time>2014-04-13T11:42:15Z</time>
		</trkpt>
		<trkpt lat="53.9409599304199" lon="13.2792196273804">
			<ele>50.2000007629395</ele>
			<time>2014-04-13T11:42:16Z</time>
		</trkpt>
		<trkpt lat="53.9409065246582" lon="13.2792959213257">
			<ele>50.2999992370605</ele>
			<time>2014-04-13T11:42:17Z</time>
		</trkpt>
		<trkpt lat="53.9408493041992" lon="13.2793731689453">
			<ele>50.2999992370605</ele>
			<time>2014-04-13T11:42:18Z</time>
		</trkpt>
		<trkpt lat="53.9407997131348" lon="13.2794523239136">
			<ele>50.0999984741211</ele>
			<time>2014-04-13T11:42:19Z</time>
		</trkpt>
		<trkpt lat="53.9407539367676" lon="13.2795238494873">
			<ele>50.2999992370605</ele>
			<time>2014-04-13T11:42:20Z</time>
		</trkpt>
		<trkpt lat="53.9407081604004" lon="13.2795963287354">
			<ele>50.2999992370605</ele>
			<time>2014-04-13T11:42:21Z</time>
		</trkpt>
		<trkpt lat="53.9406585693359" lon="13.2796773910522">
			<ele>50.4000015258789</ele>
			<time>2014-04-13T11:42:22Z</time>
		</trkpt>
		<trkpt lat="53.9406089782715" lon="13.2797470092773">
			<ele>50.4000015258789</ele>
			<time>2014-04-13T11:42:23Z</time>
		</trkpt>
		<trkpt lat="53.940559387207" lon="13.2798233032227">
			<ele>50.2999992370605</ele>
			<time>2014-04-13T11:42:25Z</time>
		</trkpt>
		<trkpt lat="53.9405097961426" lon="13.2799024581909">
			<ele>50.0999984741211</ele>
			<time>2014-04-13T11:42:26Z</time>
		</trkpt>
		<trkpt lat="53.9404182434082" lon="13.2800579071045">
			<ele>49.5</ele>
			<time>2014-04-13T11:42:27Z</time>
		</trkpt>
		<trkpt lat="53.9403686523438" lon="13.2801351547241">
			<ele>49.4000015258789</ele>
			<time>2014-04-13T11:42:28Z</time>
		</trkpt>
		<trkpt lat="53.9403190612793" lon="13.2802133560181">
			<ele>49.4000015258789</ele>
			<time>2014-04-13T11:42:29Z</time>
		</trkpt>
		<trkpt lat="53.9402770996094" lon="13.2802982330322">
			<ele>49.2999992370605</ele>
			<time>2014-04-13T11:42:30Z</time>
		</trkpt>
		<trkpt lat="53.9402351379395" lon="13.2803869247437">
			<ele>49.2000007629395</ele>
			<time>2014-04-13T11:42:31Z</time>
		</trkpt>
		<trkpt lat="53.9401931762695" lon="13.2804737091064">
			<ele>49.2000007629395</ele>
			<time>2014-04-13T11:42:32Z</time>
		</trkpt>
		<trkpt lat="53.9401473999023" lon="13.2805595397949">
			<ele>49.2000007629395</ele>
			<time>2014-04-13T11:42:33Z</time>
		</trkpt>
		<trkpt lat="53.9401054382324" lon="13.2806444168091">
			<ele>49.2000007629395</ele>
			<time>2014-04-13T11:42:34Z</time>
		</trkpt>
		<trkpt lat="53.9400596618652" lon="13.2807312011719">
			<ele>49</ele>
			<time>2014-04-13T11:42:35Z</time>
		</trkpt>
		<trkpt lat="53.9400215148926" lon="13.2808170318604">
			<ele>48.9000015258789</ele>
			<time>2014-04-13T11:42:36Z</time>
		</trkpt>
		<trkpt lat="53.9399795532227" lon="13.2809181213379">
			<ele>49</ele>
			<time>2014-04-13T11:42:37Z</time>
		</trkpt>
		<trkpt lat="53.93994140625" lon="13.2810106277466">
			<ele>49.0999984741211</ele>
			<time>2014-04-13T11:42:38Z</time>
		</trkpt>
		<trkpt lat="53.9398994445801" lon="13.2810974121094">
			<ele>49.0999984741211</ele>
			<time>2014-04-13T11:42:39Z</time>
		</trkpt>
		<trkpt lat="53.9398574829102" lon="13.2811870574951">
			<ele>48.7999992370605</ele>
			<time>2014-04-13T11:42:40Z</time>
		</trkpt>
		<trkpt lat="53.9398231506348" lon="13.2812757492065">
			<ele>48.9000015258789</ele>
			<time>2014-04-13T11:42:41Z</time>
		</trkpt>
		<trkpt lat="53.9397850036621" lon="13.2813692092896">
			<ele>49</ele>
			<time>2014-04-13T11:42:42Z</time>
		</trkpt>
		<trkpt lat="53.9397468566895" lon="13.2814607620239">
			<ele>48.7000007629395</ele>
			<time>2014-04-13T11:42:43Z</time>
		</trkpt>
		<trkpt lat="53.9397048950195" lon="13.2815494537354">
			<ele>48.7000007629395</ele>
			<time>2014-04-13T11:42:44Z</time>
		</trkpt>
		<trkpt lat="53.9396705627441" lon="13.2816400527954">
			<ele>48.5999984741211</ele>
			<time>2014-04-13T11:42:45Z</time>
		</trkpt>
		<trkpt lat="53.9396324157715" lon="13.2817325592041">
			<ele>48.2999992370605</ele>
			<time>2014-04-13T11:42:46Z</time>
		</trkpt>
		<trkpt lat="53.9395904541016" lon="13.2818279266357">
			<ele>48.2000007629395</ele>
			<time>2014-04-13T11:42:47Z</time>
		</trkpt>
		<trkpt lat="53.9395523071289" lon="13.2819204330444">
			<ele>48.4000015258789</ele>
			<time>2014-04-13T11:42:48Z</time>
		</trkpt>
		<trkpt lat="53.939510345459" lon="13.2820119857788">
			<ele>48.2999992370605</ele>
			<time>2014-04-13T11:42:49Z</time>
		</trkpt>
		<trkpt lat="53.9394683837891" lon="13.2821025848389">
			<ele>48.2999992370605</ele>
			<time>2014-04-13T11:42:50Z</time>
		</trkpt>
		<trkpt lat="53.9394302368164" lon="13.2821989059448">
			<ele>48.2999992370605</ele>
			<time>2014-04-13T11:42:51Z</time>
		</trkpt>
		<trkpt lat="53.9393920898438" lon="13.2822904586792">
			<ele>48.0999984741211</ele>
			<time>2014-04-13T11:42:52Z</time>
		</trkpt>
		<trkpt lat="53.9393501281738" lon="13.2823829650879">
			<ele>48</ele>
			<time>2014-04-13T11:42:53Z</time>
		</trkpt>
		<trkpt lat="53.9393119812012" lon="13.2824783325195">
			<ele>48.2000007629395</ele>
			<time>2014-04-13T11:42:54Z</time>
		</trkpt>
		<trkpt lat="53.939266204834" lon="13.2825584411621">
			<ele>48.2000007629395</ele>
			<time>2014-04-13T11:42:55Z</time>
		</trkpt>
		<trkpt lat="53.9392318725586" lon="13.2826538085938">
			<ele>47.5</ele>
			<time>2014-04-13T11:42:59Z</time>
		</trkpt>
		<trkpt lat="53.9391098022461" lon="13.2829256057739">
			<ele>46.9000015258789</ele>
			<time>2014-04-13T11:42:59Z</time>
		</trkpt>
		<trkpt lat="53.9390754699707" lon="13.2830181121826">
			<ele>46.5</ele>
			<time>2014-04-13T11:43:00Z</time>
		</trkpt>
		<trkpt lat="53.9390335083008" lon="13.2831144332886">
			<ele>46.2999992370605</ele>
			<time>2014-04-13T11:43:01Z</time>
		</trkpt>
		<trkpt lat="53.9389953613281" lon="13.2832069396973">
			<ele>46.2999992370605</ele>
			<time>2014-04-13T11:43:02Z</time>
		</trkpt>
		<trkpt lat="53.9389572143555" lon="13.2833003997803">
			<ele>46.4000015258789</ele>
			<time>2014-04-13T11:43:03Z</time>
		</trkpt>
		<trkpt lat="53.9389190673828" lon="13.2833909988403">
			<ele>46.7999992370605</ele>
			<time>2014-04-13T11:43:04Z</time>
		</trkpt>
		<trkpt lat="53.9388771057129" lon="13.2834815979004">
			<ele>47.2000007629395</ele>
			<time>2014-04-13T11:43:05Z</time>
		</trkpt>
		<trkpt lat="53.9388389587402" lon="13.2835664749146">
			<ele>47.2999992370605</ele>
			<time>2014-04-13T11:43:06Z</time>
		</trkpt>
		<trkpt lat="53.9388008117676" lon="13.283655166626">
			<ele>47.2000007629395</ele>
			<time>2014-04-13T11:43:07Z</time>
		</trkpt>
		<trkpt lat="53.9387626647949" lon="13.2837429046631">
			<ele>47.2000007629395</ele>
			<time>2014-04-13T11:43:08Z</time>
		</trkpt>
		<trkpt lat="53.9387245178223" lon="13.2838306427002">
			<ele>47.2999992370605</ele>
			<time>2014-04-13T11:43:09Z</time>
		</trkpt>
		<trkpt lat="53.9386863708496" lon="13.2839212417603">
			<ele>47.2999992370605</ele>
			<time>2014-04-13T11:43:10Z</time>
		</trkpt>
		<trkpt lat="53.938648223877" lon="13.2840032577515">
			<ele>47.2000007629395</ele>
			<time>2014-04-13T11:43:11Z</time>
		</trkpt>
		<trkpt lat="53.9386138916016" lon="13.2840852737427">
			<ele>47.2999992370605</ele>
			<time>2014-04-13T11:43:12Z</time>
		</trkpt>
		<trkpt lat="53.9385757446289" lon="13.2841672897339">
			<ele>46.9000015258789</ele>
			<time>2014-04-13T11:43:13Z</time>
		</trkpt>
		<trkpt lat="53.9385414123535" lon="13.2842559814453">
			<ele>46.7999992370605</ele>
			<time>2014-04-13T11:43:14Z</time>
		</trkpt>
		<trkpt lat="53.9385032653809" lon="13.2843418121338">
			<ele>47.2000007629395</ele>
			<time>2014-04-13T11:43:15Z</time>
		</trkpt>
		<trkpt lat="53.9384727478027" lon="13.2844247817993">
			<ele>47.5999984741211</ele>
			<time>2014-04-13T11:43:16Z</time>
		</trkpt>
		<trkpt lat="53.9384384155273" lon="13.2845106124878">
			<ele>48</ele>
			<time>2014-04-13T11:43:17Z</time>
		</trkpt>
		<trkpt lat="53.9384078979492" lon="13.2845935821533">
			<ele>48.2000007629395</ele>
			<time>2014-04-13T11:43:18Z</time>
		</trkpt>
		<trkpt lat="53.9383659362793" lon="13.2846813201904">
			<ele>48.2000007629395</ele>
			<time>2014-04-13T11:43:19Z</time>
		</trkpt>
		<trkpt lat="53.9383316040039" lon="13.284764289856">
			<ele>48.4000015258789</ele>
			<time>2014-04-13T11:43:20Z</time>
		</trkpt>
		<trkpt lat="53.9382972717285" lon="13.2848510742188">
			<ele>48.7000007629395</ele>
			<time>2014-04-13T11:43:21Z</time>
		</trkpt>
		<trkpt lat="53.9382591247559" lon="13.2849359512329">
			<ele>48.5999984741211</ele>
			<time>2014-04-13T11:43:22Z</time>
		</trkpt>
		<trkpt lat="53.9382247924805" lon="13.2850179672241">
			<ele>48.5</ele>
			<time>2014-04-13T11:43:23Z</time>
		</trkpt>
		<trkpt lat="53.9381904602051" lon="13.2850999832153">
			<ele>48.5999984741211</ele>
			<time>2014-04-13T11:43:24Z</time>
		</trkpt>
		<trkpt lat="53.938159942627" lon="13.2851810455322">
			<ele>48.7999992370605</ele>
			<time>2014-04-13T11:43:25Z</time>
		</trkpt>
		<trkpt lat="53.9381256103516" lon="13.285270690918">
			<ele>49.0999984741211</ele>
			<time>2014-04-13T11:43:26Z</time>
		</trkpt>
		<trkpt lat="53.9380874633789" lon="13.2853498458862">
			<ele>49</ele>
			<time>2014-04-13T11:43:29Z</time>
		</trkpt>
		<trkpt lat="53.9379959106445" lon="13.2855939865112">
			<ele>49</ele>
			<time>2014-04-13T11:43:30Z</time>
		</trkpt>
		<trkpt lat="53.9379577636719" lon="13.2856731414795">
			<ele>49.2000007629395</ele>
			<time>2014-04-13T11:43:31Z</time>
		</trkpt>
		<trkpt lat="53.9379234313965" lon="13.2857494354248">
			<ele>48.7000007629395</ele>
			<time>2014-04-13T11:43:32Z</time>
		</trkpt>
		<trkpt lat="53.9378890991211" lon="13.2858295440674">
			<ele>48.5999984741211</ele>
			<time>2014-04-13T11:43:34Z</time>
		</trkpt>
		<trkpt lat="53.9378204345703" lon="13.2859888076782">
			<ele>48.5999984741211</ele>
			<time>2014-04-13T11:43:35Z</time>
		</trkpt>
		<trkpt lat="53.9377861022949" lon="13.2860670089722">
			<ele>48.5999984741211</ele>
			<time>2014-04-13T11:43:36Z</time>
		</trkpt>
		<trkpt lat="53.9377517700195" lon="13.2861499786377">
			<ele>48.7999992370605</ele>
			<time>2014-04-13T11:43:37Z</time>
		</trkpt>
		<trkpt lat="53.9377174377441" lon="13.2862319946289">
			<ele>48.7999992370605</ele>
			<time>2014-04-13T11:43:38Z</time>
		</trkpt>
		<trkpt lat="53.9376792907715" lon="13.2863178253174">
			<ele>49.2000007629395</ele>
			<time>2014-04-13T11:43:39Z</time>
		</trkpt>
		<trkpt lat="53.9376449584961" lon="13.2864055633545">
			<ele>49.2000007629395</ele>
			<time>2014-04-13T11:43:40Z</time>
		</trkpt>
		<trkpt lat="53.9376106262207" lon="13.286491394043">
			<ele>49.2999992370605</ele>
			<time>2014-04-13T11:43:41Z</time>
		</trkpt>
		<trkpt lat="53.937572479248" lon="13.2865800857544">
			<ele>49.4000015258789</ele>
			<time>2014-04-13T11:43:42Z</time>
		</trkpt>
		<trkpt lat="53.9375381469727" lon="13.2866659164429">
			<ele>49.5</ele>
			<time>2014-04-13T11:43:43Z</time>
		</trkpt>
		<trkpt lat="53.9375" lon="13.2867460250854">
			<ele>49.4000015258789</ele>
			<time>2014-04-13T11:43:44Z</time>
		</trkpt>
		<trkpt lat="53.9374656677246" lon="13.2868280410767">
			<ele>49.5</ele>
			<time>2014-04-13T11:43:45Z</time>
		</trkpt>
		<trkpt lat="53.937427520752" lon="13.2869148254395">
			<ele>49.7000007629395</ele>
			<time>2014-04-13T11:43:46Z</time>
		</trkpt>
		<trkpt lat="53.9373931884766" lon="13.2869987487793">
			<ele>49.7999992370605</ele>
			<time>2014-04-13T11:43:47Z</time>
		</trkpt>
		<trkpt lat="53.9373588562012" lon="13.2870798110962">
			<ele>49.9000015258789</ele>
			<time>2014-04-13T11:43:48Z</time>
		</trkpt>
		<trkpt lat="53.9373207092285" lon="13.2871589660645">
			<ele>49.7000007629395</ele>
			<time>2014-04-13T11:43:49Z</time>
		</trkpt>
		<trkpt lat="53.9372863769531" lon="13.2872409820557">
			<ele>49.7999992370605</ele>
			<time>2014-04-13T11:43:50Z</time>
		</trkpt>
		<trkpt lat="53.9372520446777" lon="13.2873210906982">
			<ele>49.7000007629395</ele>
			<time>2014-04-13T11:43:51Z</time>
		</trkpt>
		<trkpt lat="53.9372177124023" lon="13.2874031066895">
			<ele>49.7999992370605</ele>
			<time>2014-04-13T11:43:52Z</time>
		</trkpt>
		<trkpt lat="53.9371795654297" lon="13.287486076355">
			<ele>49.9000015258789</ele>
			<time>2014-04-13T11:43:53Z</time>
		</trkpt>
		<trkpt lat="53.9371452331543" lon="13.2875719070435">
			<ele>49.7000007629395</ele>
			<time>2014-04-13T11:43:54Z</time>
		</trkpt>
		<trkpt lat="53.9371070861816" lon="13.2876586914063">
			<ele>49.5</ele>
			<time>2014-04-13T11:43:55Z</time>
		</trkpt>
		<trkpt lat="53.9370727539063" lon="13.2877473831177">
			<ele>49.5999984741211</ele>
			<time>2014-04-13T11:43:56Z</time>
		</trkpt>
		<trkpt lat="53.9370346069336" lon="13.2878370285034">
			<ele>49.4000015258789</ele>
			<time>2014-04-13T11:43:57Z</time>
		</trkpt>
		<trkpt lat="53.9369926452637" lon="13.2879257202148">
			<ele>49.5</ele>
			<time>2014-04-13T11:43:58Z</time>
		</trkpt>
		<trkpt lat="53.936954498291" lon="13.2880163192749">
			<ele>49.7999992370605</ele>
			<time>2014-04-13T11:43:59Z</time>
		</trkpt>
		<trkpt lat="53.9369201660156" lon="13.2881107330322">
			<ele>49.9000015258789</ele>
			<time>2014-04-13T11:44:00Z</time>
		</trkpt>
		<trkpt lat="53.936882019043" lon="13.2882013320923">
			<ele>50</ele>
			<time>2014-04-13T11:44:01Z</time>
		</trkpt>
		<trkpt lat="53.936840057373" lon="13.2882843017578">
			<ele>50</ele>
			<time>2014-04-13T11:44:02Z</time>
		</trkpt>
		<trkpt lat="53.9368057250977" lon="13.2883749008179">
			<ele>49.7999992370605</ele>
			<time>2014-04-13T11:44:03Z</time>
		</trkpt>
		<trkpt lat="53.9367713928223" lon="13.2884635925293">
			<ele>49.7999992370605</ele>
			<time>2014-04-13T11:44:04Z</time>
		</trkpt>
		<trkpt lat="53.9367332458496" lon="13.2885494232178">
			<ele>49.7999992370605</ele>
			<time>2014-04-13T11:44:05Z</time>
		</trkpt>
		<trkpt lat="53.9366989135742" lon="13.2886371612549">
			<ele>49.5999984741211</ele>
			<time>2014-04-13T11:44:06Z</time>
		</trkpt>
		<trkpt lat="53.9366645812988" lon="13.2887258529663">
			<ele>49.2999992370605</ele>
			<time>2014-04-13T11:44:07Z</time>
		</trkpt>
		<trkpt lat="53.9366302490234" lon="13.2888126373291">
			<ele>49.4000015258789</ele>
			<time>2014-04-13T11:44:08Z</time>
		</trkpt>
		<trkpt lat="53.9365921020508" lon="13.2889003753662">
			<ele>49.2000007629395</ele>
			<time>2014-04-13T11:44:09Z</time>
		</trkpt>
		<trkpt lat="53.9365539550781" lon="13.2889814376831">
			<ele>48.9000015258789</ele>
			<time>2014-04-13T11:44:10Z</time>
		</trkpt>
		<trkpt lat="53.9365196228027" lon="13.2890634536743">
			<ele>48.7000007629395</ele>
			<time>2014-04-13T11:44:11Z</time>
		</trkpt>
		<trkpt lat="53.9364891052246" lon="13.2891426086426">
			<ele>48.7000007629395</ele>
			<time>2014-04-13T11:44:12Z</time>
		</trkpt>
		<trkpt lat="53.9364547729492" lon="13.2892303466797">
			<ele>48.4000015258789</ele>
			<time>2014-04-13T11:44:13Z</time>
		</trkpt>
		<trkpt lat="53.9364280700684" lon="13.2893123626709">
			<ele>48.5</ele>
			<time>2014-04-13T11:44:14Z</time>
		</trkpt>
		<trkpt lat="53.9363899230957" lon="13.2893867492676">
			<ele>48.5</ele>
			<time>2014-04-13T11:44:15Z</time>
		</trkpt>
		<trkpt lat="53.9363594055176" lon="13.2894630432129">
			<ele>48.5</ele>
			<time>2014-04-13T11:44:16Z</time>
		</trkpt>
		<trkpt lat="53.9363250732422" lon="13.2895374298096">
			<ele>48.2999992370605</ele>
			<time>2014-04-13T11:44:17Z</time>
		</trkpt>
		<trkpt lat="53.9362945556641" lon="13.2896146774292">
			<ele>48.2999992370605</ele>
			<time>2014-04-13T11:44:18Z</time>
		</trkpt>
		<trkpt lat="53.9362602233887" lon="13.289698600769">
			<ele>48.7999992370605</ele>
			<time>2014-04-13T11:44:19Z</time>
		</trkpt>
		<trkpt lat="53.936222076416" lon="13.2897815704346">
			<ele>48.7000007629395</ele>
			<time>2014-04-13T11:44:20Z</time>
		</trkpt>
		<trkpt lat="53.9361839294434" lon="13.2898683547974">
			<ele>48.7000007629395</ele>
			<time>2014-04-13T11:44:21Z</time>
		</trkpt>
		<trkpt lat="53.936149597168" lon="13.2899608612061">
			<ele>48.7999992370605</ele>
			<time>2014-04-13T11:44:22Z</time>
		</trkpt>
		<trkpt lat="53.9361114501953" lon="13.2900524139404">
			<ele>48.9000015258789</ele>
			<time>2014-04-13T11:44:23Z</time>
		</trkpt>
		<trkpt lat="53.9360733032227" lon="13.2901420593262">
			<ele>49</ele>
			<time>2014-04-13T11:44:24Z</time>
		</trkpt>
		<trkpt lat="53.93603515625" lon="13.2902297973633">
			<ele>49</ele>
			<time>2014-04-13T11:44:25Z</time>
		</trkpt>
		<trkpt lat="53.9359970092773" lon="13.2903242111206">
			<ele>48.9000015258789</ele>
			<time>2014-04-13T11:44:26Z</time>
		</trkpt>
		<trkpt lat="53.9359588623047" lon="13.2904224395752">
			<ele>48.9000015258789</ele>
			<time>2014-04-13T11:44:27Z</time>
		</trkpt>
		<trkpt lat="53.9359169006348" lon="13.2905187606812">
			<ele>48.7000007629395</ele>
			<time>2014-04-13T11:44:28Z</time>
		</trkpt>
		<trkpt lat="53.9358787536621" lon="13.2906169891357">
			<ele>48.7999992370605</ele>
			<time>2014-04-13T11:44:29Z</time>
		</trkpt>
		<trkpt lat="53.9358367919922" lon="13.2907085418701">
			<ele>48.5999984741211</ele>
			<time>2014-04-13T11:44:30Z</time>
		</trkpt>
		<trkpt lat="53.9357986450195" lon="13.2908067703247">
			<ele>48.5999984741211</ele>
			<time>2014-04-13T11:44:31Z</time>
		</trkpt>
		<trkpt lat="53.9357566833496" lon="13.290904045105">
			<ele>48.5</ele>
			<time>2014-04-13T11:44:32Z</time>
		</trkpt>
		<trkpt lat="53.9357147216797" lon="13.2909984588623">
			<ele>48.4000015258789</ele>
			<time>2014-04-13T11:44:33Z</time>
		</trkpt>
		<trkpt lat="53.9356727600098" lon="13.2910976409912">
			<ele>48.7999992370605</ele>
			<time>2014-04-13T11:44:34Z</time>
		</trkpt>
		<trkpt lat="53.9356307983398" lon="13.2911949157715">
			<ele>48.7999992370605</ele>
			<time>2014-04-13T11:44:35Z</time>
		</trkpt>
		<trkpt lat="53.9355926513672" lon="13.2913007736206">
			<ele>48.5999984741211</ele>
			<time>2014-04-13T11:44:36Z</time>
		</trkpt>
		<trkpt lat="53.9355506896973" lon="13.2914028167725">
			<ele>48.5999984741211</ele>
			<time>2014-04-13T11:44:37Z</time>
		</trkpt>
		<trkpt lat="53.9355087280273" lon="13.2915029525757">
			<ele>48.7999992370605</ele>
			<time>2014-04-13T11:44:38Z</time>
		</trkpt>
		<trkpt lat="53.9354629516602" lon="13.2916078567505">
			<ele>48.9000015258789</ele>
			<time>2014-04-13T11:44:39Z</time>
		</trkpt>
		<trkpt lat="53.9354209899902" lon="13.2917127609253">
			<ele>48.7000007629395</ele>
			<time>2014-04-13T11:44:40Z</time>
		</trkpt>
		<trkpt lat="53.9353790283203" lon="13.2918148040771">
			<ele>48.7999992370605</ele>
			<time>2014-04-13T11:44:41Z</time>
		</trkpt>
		<trkpt lat="53.9353370666504" lon="13.2919149398804">
			<ele>48.7999992370605</ele>
			<time>2014-04-13T11:44:42Z</time>
		</trkpt>
		<trkpt lat="53.9352912902832" lon="13.2920198440552">
			<ele>48.7000007629395</ele>
			<time>2014-04-13T11:44:43Z</time>
		</trkpt>
		<trkpt lat="53.9352493286133" lon="13.2921266555786">
			<ele>48.7000007629395</ele>
			<time>2014-04-13T11:44:44Z</time>
		</trkpt>
		<trkpt lat="53.9352073669434" lon="13.2922315597534">
			<ele>48.5999984741211</ele>
			<time>2014-04-13T11:44:45Z</time>
		</trkpt>
		<trkpt lat="53.9351654052734" lon="13.2923355102539">
			<ele>48.5999984741211</ele>
			<time>2014-04-13T11:44:46Z</time>
		</trkpt>
		<trkpt lat="53.9351272583008" lon="13.292441368103">
			<ele>48.5</ele>
			<time>2014-04-13T11:44:47Z</time>
		</trkpt>
		<trkpt lat="53.9350852966309" lon="13.2925443649292">
			<ele>48.5</ele>
			<time>2014-04-13T11:44:48Z</time>
		</trkpt>
		<trkpt lat="53.9350433349609" lon="13.2926483154297">
			<ele>48.2999992370605</ele>
			<time>2014-04-13T11:44:49Z</time>
		</trkpt>
		<trkpt lat="53.9349975585938" lon="13.2927513122559">
			<ele>48.4000015258789</ele>
			<time>2014-04-13T11:44:50Z</time>
		</trkpt>
		<trkpt lat="53.9349555969238" lon="13.292854309082">
			<ele>48.5999984741211</ele>
			<time>2014-04-13T11:44:51Z</time>
		</trkpt>
		<trkpt lat="53.9349136352539" lon="13.2929515838623">
			<ele>48.5999984741211</ele>
			<time>2014-04-13T11:44:52Z</time>
		</trkpt>
		<trkpt lat="53.9348678588867" lon="13.2930536270142">
			<ele>48.5999984741211</ele>
			<time>2014-04-13T11:44:53Z</time>
		</trkpt>
		<trkpt lat="53.9348258972168" lon="13.2931566238403">
			<ele>48.4000015258789</ele>
			<time>2014-04-13T11:44:54Z</time>
		</trkpt>
		<trkpt lat="53.9347839355469" lon="13.2932634353638">
			<ele>48.4000015258789</ele>
			<time>2014-04-13T11:44:55Z</time>
		</trkpt>
		<trkpt lat="53.9347381591797" lon="13.2933673858643">
			<ele>48.5</ele>
			<time>2014-04-13T11:44:56Z</time>
		</trkpt>
		<trkpt lat="53.9346961975098" lon="13.2934713363647">
			<ele>48.4000015258789</ele>
			<time>2014-04-13T11:44:57Z</time>
		</trkpt>
		<trkpt lat="53.9346504211426" lon="13.2935781478882">
			<ele>48.4000015258789</ele>
			<time>2014-04-13T11:44:58Z</time>
		</trkpt>
		<trkpt lat="53.9346046447754" lon="13.2936820983887">
			<ele>48.4000015258789</ele>
			<time>2014-04-13T11:44:59Z</time>
		</trkpt>
		<trkpt lat="53.9345626831055" lon="13.2937870025635">
			<ele>48.2999992370605</ele>
			<time>2014-04-13T11:45:00Z</time>
		</trkpt>
		<trkpt lat="53.9345169067383" lon="13.2938928604126">
			<ele>48.2999992370605</ele>
			<time>2014-04-13T11:45:01Z</time>
		</trkpt>
		<trkpt lat="53.9344711303711" lon="13.2939987182617">
			<ele>48.2000007629395</ele>
			<time>2014-04-13T11:45:02Z</time>
		</trkpt>
		<trkpt lat="53.9344253540039" lon="13.2941026687622">
			<ele>48.2999992370605</ele>
			<time>2014-04-13T11:45:03Z</time>
		</trkpt>
		<trkpt lat="53.9343795776367" lon="13.294207572937">
			<ele>48.0999984741211</ele>
			<time>2014-04-13T11:45:04Z</time>
		</trkpt>
		<trkpt lat="53.9343299865723" lon="13.2943105697632">
			<ele>48.0999984741211</ele>
			<time>2014-04-13T11:45:05Z</time>
		</trkpt>
		<trkpt lat="53.9342765808105" lon="13.2944097518921">
			<ele>47.7999992370605</ele>
			<time>2014-04-13T11:45:06Z</time>
		</trkpt>
		<trkpt lat="53.9342231750488" lon="13.2944984436035">
			<ele>47.7000007629395</ele>
			<time>2014-04-13T11:45:07Z</time>
		</trkpt>
		<trkpt lat="53.9341621398926" lon="13.2945804595947">
			<ele>47.7000007629395</ele>
			<time>2014-04-13T11:45:08Z</time>
		</trkpt>
		<trkpt lat="53.9340972900391" lon="13.2946405410767">
			<ele>47.7000007629395</ele>
			<time>2014-04-13T11:45:09Z</time>
		</trkpt>
		<trkpt lat="53.9340286254883" lon="13.2946996688843">
			<ele>47.5999984741211</ele>
			<time>2014-04-13T11:45:10Z</time>
		</trkpt>
		<trkpt lat="53.9339637756348" lon="13.2947549819946">
			<ele>47.7999992370605</ele>
			<time>2014-04-13T11:45:11Z</time>
		</trkpt>
		<trkpt lat="53.9338912963867" lon="13.2948007583618">
			<ele>47.7999992370605</ele>
			<time>2014-04-13T11:45:12Z</time>
		</trkpt>
		<trkpt lat="53.9338226318359" lon="13.294846534729">
			<ele>47.7999992370605</ele>
			<time>2014-04-13T11:45:13Z</time>
		</trkpt>
		<trkpt lat="53.9337539672852" lon="13.2948942184448">
			<ele>47.7999992370605</ele>
			<time>2014-04-13T11:45:14Z</time>
		</trkpt>
		<trkpt lat="53.9336814880371" lon="13.2949361801147">
			<ele>47.5999984741211</ele>
			<time>2014-04-13T11:45:15Z</time>
		</trkpt>
		<trkpt lat="53.9336166381836" lon="13.2949819564819">
			<ele>47.7000007629395</ele>
			<time>2014-04-13T11:45:16Z</time>
		</trkpt>
		<trkpt lat="53.9335517883301" lon="13.2950277328491">
			<ele>47.9000015258789</ele>
			<time>2014-04-13T11:45:17Z</time>
		</trkpt>
		<trkpt lat="53.9334869384766" lon="13.2950735092163">
			<ele>47.7000007629395</ele>
			<time>2014-04-13T11:45:18Z</time>
		</trkpt>
		<trkpt lat="53.933422088623" lon="13.2951183319092">
			<ele>47.5999984741211</ele>
			<time>2014-04-13T11:45:19Z</time>
		</trkpt>
		<trkpt lat="53.9333610534668" lon="13.2951641082764">
			<ele>47.7000007629395</ele>
			<time>2014-04-13T11:45:20Z</time>
		</trkpt>
		<trkpt lat="53.9332962036133" lon="13.2952156066895">
			<ele>47.7000007629395</ele>
			<time>2014-04-13T11:45:21Z</time>
		</trkpt>
		<trkpt lat="53.933235168457" lon="13.2952699661255">
			<ele>47.7999992370605</ele>
			<time>2014-04-13T11:45:22Z</time>
		</trkpt>
		<trkpt lat="53.933177947998" lon="13.2953338623047">
			<ele>47.7000007629395</ele>
			<time>2014-04-13T11:45:23Z</time>
		</trkpt>
		<trkpt lat="53.9331207275391" lon="13.2954006195068">
			<ele>47.7000007629395</ele>
			<time>2014-04-13T11:45:24Z</time>
		</trkpt>
		<trkpt lat="53.9330673217773" lon="13.2954740524292">
			<ele>47.7999992370605</ele>
			<time>2014-04-13T11:45:25Z</time>
		</trkpt>
		<trkpt lat="53.9330177307129" lon="13.2955493927002">
			<ele>47.7000007629395</ele>
			<time>2014-04-13T11:45:26Z</time>
		</trkpt>
		<trkpt lat="53.9329643249512" lon="13.2956275939941">
			<ele>47.5</ele>
			<time>2014-04-13T11:45:27Z</time>
		</trkpt>
		<trkpt lat="53.9329147338867" lon="13.2957048416138">
			<ele>47.7000007629395</ele>
			<time>2014-04-13T11:45:28Z</time>
		</trkpt>
		<trkpt lat="53.9328689575195" lon="13.2957811355591">
			<ele>47.5999984741211</ele>
			<time>2014-04-13T11:45:29Z</time>
		</trkpt>
		<trkpt lat="53.9328193664551" lon="13.2958526611328">
			<ele>47.7000007629395</ele>
			<time>2014-04-13T11:45:30Z</time>
		</trkpt>
		<trkpt lat="53.9327697753906" lon="13.2959280014038">
			<ele>47.9000015258789</ele>
			<time>2014-04-13T11:45:31Z</time>
		</trkpt>
		<trkpt lat="53.9327201843262" lon="13.2959966659546">
			<ele>48</ele>
			<time>2014-04-13T11:45:32Z</time>
		</trkpt>
		<trkpt lat="53.932674407959" lon="13.2960615158081">
			<ele>48.0999984741211</ele>
			<time>2014-04-13T11:45:33Z</time>
		</trkpt>
		<trkpt lat="53.9326324462891" lon="13.2961330413818">
			<ele>48.2000007629395</ele>
			<time>2014-04-13T11:45:34Z</time>
		</trkpt>
		<trkpt lat="53.9325866699219" lon="13.2962045669556">
			<ele>48.2000007629395</ele>
			<time>2014-04-13T11:45:35Z</time>
		</trkpt>
		<trkpt lat="53.932544708252" lon="13.2962713241577">
			<ele>48.2999992370605</ele>
			<time>2014-04-13T11:45:36Z</time>
		</trkpt>
		<trkpt lat="53.9324989318848" lon="13.2963380813599">
			<ele>48.2000007629395</ele>
			<time>2014-04-13T11:45:37Z</time>
		</trkpt>
		<trkpt lat="53.9324569702148" lon="13.2963991165161">
			<ele>48.4000015258789</ele>
			<time>2014-04-13T11:45:38Z</time>
		</trkpt>
		<trkpt lat="53.9324111938477" lon="13.2964668273926">
			<ele>48.7000007629395</ele>
			<time>2014-04-13T11:45:39Z</time>
		</trkpt>
		<trkpt lat="53.9323654174805" lon="13.2965335845947">
			<ele>48.7999992370605</ele>
			<time>2014-04-13T11:45:40Z</time>
		</trkpt>
		<trkpt lat="53.9323272705078" lon="13.2965936660767">
			<ele>48.7000007629395</ele>
			<time>2014-04-13T11:45:41Z</time>
		</trkpt>
		<trkpt lat="53.9322853088379" lon="13.2966575622559">
			<ele>48.4000015258789</ele>
			<time>2014-04-13T11:45:42Z</time>
		</trkpt>
		<trkpt lat="53.9322471618652" lon="13.2967157363892">
			<ele>48.5</ele>
			<time>2014-04-13T11:45:43Z</time>
		</trkpt>
		<trkpt lat="53.9322052001953" lon="13.2967720031738">
			<ele>48.5</ele>
			<time>2014-04-13T11:45:44Z</time>
		</trkpt>
		<trkpt lat="53.9321632385254" lon="13.2968292236328">
			<ele>48.5</ele>
			<time>2014-04-13T11:45:45Z</time>
		</trkpt>
		<trkpt lat="53.9321250915527" lon="13.2968854904175">
			<ele>48.4000015258789</ele>
			<time>2014-04-13T11:45:46Z</time>
		</trkpt>
		<trkpt lat="53.9320869445801" lon="13.2969417572021">
			<ele>48.2999992370605</ele>
			<time>2014-04-13T11:45:47Z</time>
		</trkpt>
		<trkpt lat="53.9320487976074" lon="13.2969961166382">
			<ele>48.4000015258789</ele>
			<time>2014-04-13T11:45:48Z</time>
		</trkpt>
		<trkpt lat="53.9320068359375" lon="13.2970533370972">
			<ele>48.2999992370605</ele>
			<time>2014-04-13T11:45:49Z</time>
		</trkpt>
		<trkpt lat="53.9319648742676" lon="13.2971057891846">
			<ele>48.5</ele>
			<time>2014-04-13T11:45:50Z</time>
		</trkpt>
		<trkpt lat="53.9319267272949" lon="13.2971639633179">
			<ele>48.5</ele>
			<time>2014-04-13T11:45:51Z</time>
		</trkpt>
		<trkpt lat="53.931884765625" lon="13.2972230911255">
			<ele>48.5999984741211</ele>
			<time>2014-04-13T11:45:52Z</time>
		</trkpt>
		<trkpt lat="53.9318466186523" lon="13.2972822189331">
			<ele>48.7000007629395</ele>
			<time>2014-04-13T11:45:53Z</time>
		</trkpt>
		<trkpt lat="53.9318084716797" lon="13.2973384857178">
			<ele>48.9000015258789</ele>
			<time>2014-04-13T11:45:54Z</time>
		</trkpt>
		<trkpt lat="53.931770324707" lon="13.297399520874">
			<ele>49</ele>
			<time>2014-04-13T11:45:55Z</time>
		</trkpt>
		<trkpt lat="53.9317321777344" lon="13.2974586486816">
			<ele>48.7999992370605</ele>
			<time>2014-04-13T11:45:56Z</time>
		</trkpt>
		<trkpt lat="53.9316940307617" lon="13.2975187301636">
			<ele>48.9000015258789</ele>
			<time>2014-04-13T11:45:57Z</time>
		</trkpt>
		<trkpt lat="53.9316520690918" lon="13.2975778579712">
			<ele>48.7999992370605</ele>
			<time>2014-04-13T11:45:58Z</time>
		</trkpt>
		<trkpt lat="53.9316139221191" lon="13.2976379394531">
			<ele>49</ele>
			<time>2014-04-13T11:45:59Z</time>
		</trkpt>
		<trkpt lat="53.9315757751465" lon="13.2976970672607">
			<ele>48.9000015258789</ele>
			<time>2014-04-13T11:46:00Z</time>
		</trkpt>
		<trkpt lat="53.9315299987793" lon="13.2977495193481">
			<ele>48.9000015258789</ele>
			<time>2014-04-13T11:46:01Z</time>
		</trkpt>
		<trkpt lat="53.9314918518066" lon="13.2978038787842">
			<ele>48.9000015258789</ele>
			<time>2014-04-13T11:46:02Z</time>
		</trkpt>
		<trkpt lat="53.9314498901367" lon="13.2978591918945">
			<ele>49</ele>
			<time>2014-04-13T11:46:03Z</time>
		</trkpt>
		<trkpt lat="53.9314117431641" lon="13.2979230880737">
			<ele>48.9000015258789</ele>
			<time>2014-04-13T11:46:04Z</time>
		</trkpt>
		<trkpt lat="53.9313697814941" lon="13.2979755401611">
			<ele>49</ele>
			<time>2014-04-13T11:46:05Z</time>
		</trkpt>
		<trkpt lat="53.9313316345215" lon="13.2980308532715">
			<ele>49.2000007629395</ele>
			<time>2014-04-13T11:46:06Z</time>
		</trkpt>
		<trkpt lat="53.9312896728516" lon="13.2980880737305">
			<ele>49.5999984741211</ele>
			<time>2014-04-13T11:46:07Z</time>
		</trkpt>
		<trkpt lat="53.9312477111816" lon="13.298150062561">
			<ele>49.7000007629395</ele>
			<time>2014-04-13T11:46:08Z</time>
		</trkpt>
		<trkpt lat="53.931209564209" lon="13.2982015609741">
			<ele>49.4000015258789</ele>
			<time>2014-04-13T11:46:09Z</time>
		</trkpt>
		<trkpt lat="53.9311752319336" lon="13.2982597351074">
			<ele>49.5999984741211</ele>
			<time>2014-04-13T11:46:10Z</time>
		</trkpt>
		<trkpt lat="53.9311332702637" lon="13.2983179092407">
			<ele>49.5999984741211</ele>
			<time>2014-04-13T11:46:11Z</time>
		</trkpt>
		<trkpt lat="53.9310569763184" lon="13.2984075546265">
			<ele>49.2999992370605</ele>
			<time>2014-04-13T11:46:13Z</time>
		</trkpt>
		<trkpt lat="53.9310150146484" lon="13.2984752655029">
			<ele>49.2999992370605</ele>
			<time>2014-04-13T11:46:14Z</time>
		</trkpt>
		<trkpt lat="53.9309768676758" lon="13.2985363006592">
			<ele>49.5999984741211</ele>
			<time>2014-04-13T11:46:15Z</time>
		</trkpt>
		<trkpt lat="53.9309349060059" lon="13.2985916137695">
			<ele>49.2000007629395</ele>
			<time>2014-04-13T11:46:16Z</time>
		</trkpt>
		<trkpt lat="53.9308967590332" lon="13.2986478805542">
			<ele>49.0999984741211</ele>
			<time>2014-04-13T11:46:17Z</time>
		</trkpt>
		<trkpt lat="53.930850982666" lon="13.2987089157104">
			<ele>49.5</ele>
			<time>2014-04-13T11:46:18Z</time>
		</trkpt>
		<trkpt lat="53.9308128356934" lon="13.2987651824951">
			<ele>49.5</ele>
			<time>2014-04-13T11:46:19Z</time>
		</trkpt>
		<trkpt lat="53.9307708740234" lon="13.2988252639771">
			<ele>49.7000007629395</ele>
			<time>2014-04-13T11:46:20Z</time>
		</trkpt>
		<trkpt lat="53.9307327270508" lon="13.2988834381104">
			<ele>49.5999984741211</ele>
			<time>2014-04-13T11:46:21Z</time>
		</trkpt>
		<trkpt lat="53.9306945800781" lon="13.298939704895">
			<ele>49.5</ele>
			<time>2014-04-13T11:46:22Z</time>
		</trkpt>
		<trkpt lat="53.9306526184082" lon="13.2989912033081">
			<ele>49.7000007629395</ele>
			<time>2014-04-13T11:46:23Z</time>
		</trkpt>
		<trkpt lat="53.9306144714355" lon="13.2990503311157">
			<ele>49.5999984741211</ele>
			<time>2014-04-13T11:46:24Z</time>
		</trkpt>
		<trkpt lat="53.9305801391602" lon="13.2991056442261">
			<ele>49.5999984741211</ele>
			<time>2014-04-13T11:46:25Z</time>
		</trkpt>
		<trkpt lat="53.9305381774902" lon="13.2991638183594">
			<ele>49.5999984741211</ele>
			<time>2014-04-13T11:46:26Z</time>
		</trkpt>
		<trkpt lat="53.9305000305176" lon="13.2992210388184">
			<ele>49.5999984741211</ele>
			<time>2014-04-13T11:46:27Z</time>
		</trkpt>
		<trkpt lat="53.9304618835449" lon="13.2992753982544">
			<ele>49.7000007629395</ele>
			<time>2014-04-13T11:46:28Z</time>
		</trkpt>
		<trkpt lat="53.930419921875" lon="13.2993412017822">
			<ele>50.0999984741211</ele>
			<time>2014-04-13T11:46:29Z</time>
		</trkpt>
		<trkpt lat="53.9303779602051" lon="13.2994022369385">
			<ele>50.2000007629395</ele>
			<time>2014-04-13T11:46:30Z</time>
		</trkpt>
		<trkpt lat="53.9303436279297" lon="13.2994499206543">
			<ele>50.2000007629395</ele>
			<time>2014-04-13T11:46:31Z</time>
		</trkpt>
		<trkpt lat="53.9303016662598" lon="13.2995128631592">
			<ele>50.4000015258789</ele>
			<time>2014-04-13T11:46:32Z</time>
		</trkpt>
		<trkpt lat="53.9302597045898" lon="13.2995681762695">
			<ele>50.4000015258789</ele>
			<time>2014-04-13T11:46:33Z</time>
		</trkpt>
		<trkpt lat="53.9302215576172" lon="13.2996196746826">
			<ele>50.4000015258789</ele>
			<time>2014-04-13T11:46:34Z</time>
		</trkpt>
		<trkpt lat="53.9301795959473" lon="13.2996816635132">
			<ele>50.5999984741211</ele>
			<time>2014-04-13T11:46:35Z</time>
		</trkpt>
		<trkpt lat="53.9301452636719" lon="13.2997360229492">
			<ele>50.7999992370605</ele>
			<time>2014-04-13T11:46:36Z</time>
		</trkpt>
		<trkpt lat="53.9301071166992" lon="13.2997961044312">
			<ele>50.7000007629395</ele>
			<time>2014-04-13T11:46:37Z</time>
		</trkpt>
		<trkpt lat="53.9300689697266" lon="13.2998571395874">
			<ele>50.9000015258789</ele>
			<time>2014-04-13T11:46:38Z</time>
		</trkpt>
		<trkpt lat="53.9300346374512" lon="13.2999210357666">
			<ele>51.0999984741211</ele>
			<time>2014-04-13T11:46:39Z</time>
		</trkpt>
		<trkpt lat="53.930004119873" lon="13.2999897003174">
			<ele>51.0999984741211</ele>
			<time>2014-04-13T11:46:40Z</time>
		</trkpt>
		<trkpt lat="53.9299774169922" lon="13.30006980896">
			<ele>51.2000007629395</ele>
			<time>2014-04-13T11:46:41Z</time>
		</trkpt>
		<trkpt lat="53.9299468994141" lon="13.3001594543457">
			<ele>51.0999984741211</ele>
			<time>2014-04-13T11:46:42Z</time>
		</trkpt>
		<trkpt lat="53.929931640625" lon="13.3002548217773">
			<ele>51.2999992370605</ele>
			<time>2014-04-13T11:46:43Z</time>
		</trkpt>
		<trkpt lat="53.9299240112305" lon="13.3003349304199">
			<ele>50.7999992370605</ele>
			<time>2014-04-13T11:46:44Z</time>
		</trkpt>
		<trkpt lat="53.9299125671387" lon="13.3004293441772">
			<ele>50.5999984741211</ele>
			<time>2014-04-13T11:46:45Z</time>
		</trkpt>
		<trkpt lat="53.9299049377441" lon="13.3005275726318">
			<ele>50.7000007629395</ele>
			<time>2014-04-13T11:46:46Z</time>
		</trkpt>
		<trkpt lat="53.9298973083496" lon="13.3006248474121">
			<ele>50.7000007629395</ele>
			<time>2014-04-13T11:46:47Z</time>
		</trkpt>
		<trkpt lat="53.9298896789551" lon="13.3007278442383">
			<ele>50.7000007629395</ele>
			<time>2014-04-13T11:46:48Z</time>
		</trkpt>
		<trkpt lat="53.9298934936523" lon="13.3008232116699">
			<ele>51.4000015258789</ele>
			<time>2014-04-13T11:46:49Z</time>
		</trkpt>
		<trkpt lat="53.9298896789551" lon="13.3009157180786">
			<ele>51.5999984741211</ele>
			<time>2014-04-13T11:46:50Z</time>
		</trkpt>
		<trkpt lat="53.9298858642578" lon="13.3010082244873">
			<ele>52.0999984741211</ele>
			<time>2014-04-13T11:46:51Z</time>
		</trkpt>
		<trkpt lat="53.9298782348633" lon="13.3011026382446">
			<ele>52.2999992370605</ele>
			<time>2014-04-13T11:46:52Z</time>
		</trkpt>
		<trkpt lat="53.9298706054688" lon="13.3011951446533">
			<ele>52.7999992370605</ele>
			<time>2014-04-13T11:46:53Z</time>
		</trkpt>
		<trkpt lat="53.9298629760742" lon="13.3012866973877">
			<ele>52.5999984741211</ele>
			<time>2014-04-13T11:46:54Z</time>
		</trkpt>
		<trkpt lat="53.9298553466797" lon="13.3013782501221">
			<ele>52.7000007629395</ele>
			<time>2014-04-13T11:46:55Z</time>
		</trkpt>
		<trkpt lat="53.9298439025879" lon="13.3014707565308">
			<ele>52.5</ele>
			<time>2014-04-13T11:46:56Z</time>
		</trkpt>
		<trkpt lat="53.9298362731934" lon="13.3015699386597">
			<ele>52.0999984741211</ele>
			<time>2014-04-13T11:46:57Z</time>
		</trkpt>
		<trkpt lat="53.9298286437988" lon="13.301664352417">
			<ele>52.2000007629395</ele>
			<time>2014-04-13T11:46:58Z</time>
		</trkpt>
		<trkpt lat="53.9298210144043" lon="13.3017597198486">
			<ele>52.4000015258789</ele>
			<time>2014-04-13T11:46:59Z</time>
		</trkpt>
		<trkpt lat="53.9298133850098" lon="13.3018560409546">
			<ele>52.2999992370605</ele>
			<time>2014-04-13T11:47:00Z</time>
		</trkpt>
		<trkpt lat="53.9298057556152" lon="13.3019542694092">
			<ele>52.2999992370605</ele>
			<time>2014-04-13T11:47:01Z</time>
		</trkpt>
		<trkpt lat="53.9297981262207" lon="13.3020524978638">
			<ele>52.0999984741211</ele>
			<time>2014-04-13T11:47:02Z</time>
		</trkpt>
		<trkpt lat="53.9297943115234" lon="13.3021593093872">
			<ele>51.7000007629395</ele>
			<time>2014-04-13T11:47:03Z</time>
		</trkpt>
		<trkpt lat="53.9297904968262" lon="13.3022584915161">
			<ele>51.7000007629395</ele>
			<time>2014-04-13T11:47:04Z</time>
		</trkpt>
		<trkpt lat="53.9297790527344" lon="13.302360534668">
			<ele>51.9000015258789</ele>
			<time>2014-04-13T11:47:05Z</time>
		</trkpt>
		<trkpt lat="53.9297752380371" lon="13.3024587631226">
			<ele>51.9000015258789</ele>
			<time>2014-04-13T11:47:06Z</time>
		</trkpt>
		<trkpt lat="53.9297637939453" lon="13.3025579452515">
			<ele>51.7000007629395</ele>
			<time>2014-04-13T11:47:07Z</time>
		</trkpt>
		<trkpt lat="53.9297523498535" lon="13.3026533126831">
			<ele>52</ele>
			<time>2014-04-13T11:47:08Z</time>
		</trkpt>
		<trkpt lat="53.9297409057617" lon="13.302755355835">
			<ele>52</ele>
			<time>2014-04-13T11:47:09Z</time>
		</trkpt>
		<trkpt lat="53.9297332763672" lon="13.3028545379639">
			<ele>52.5</ele>
			<time>2014-04-13T11:47:10Z</time>
		</trkpt>
		<trkpt lat="53.9297218322754" lon="13.3029556274414">
			<ele>52.4000015258789</ele>
			<time>2014-04-13T11:47:11Z</time>
		</trkpt>
		<trkpt lat="53.9297180175781" lon="13.3030519485474">
			<ele>52.2999992370605</ele>
			<time>2014-04-13T11:47:12Z</time>
		</trkpt>
		<trkpt lat="53.9297065734863" lon="13.3031539916992">
			<ele>52.2999992370605</ele>
			<time>2014-04-13T11:47:13Z</time>
		</trkpt>
		<trkpt lat="53.9296951293945" lon="13.3032550811768">
			<ele>52.5999984741211</ele>
			<time>2014-04-13T11:47:14Z</time>
		</trkpt>
		<trkpt lat="53.9296875" lon="13.3033504486084">
			<ele>52.5</ele>
			<time>2014-04-13T11:47:15Z</time>
		</trkpt>
		<trkpt lat="53.9296760559082" lon="13.3034524917603">
			<ele>52.4000015258789</ele>
			<time>2014-04-13T11:47:16Z</time>
		</trkpt>
		<trkpt lat="53.9296684265137" lon="13.3035497665405">
			<ele>52.7000007629395</ele>
			<time>2014-04-13T11:47:17Z</time>
		</trkpt>
		<trkpt lat="53.9296607971191" lon="13.303653717041">
			<ele>52.9000015258789</ele>
			<time>2014-04-13T11:47:18Z</time>
		</trkpt>
		<trkpt lat="53.9296569824219" lon="13.3037528991699">
			<ele>53.2000007629395</ele>
			<time>2014-04-13T11:47:19Z</time>
		</trkpt>
		<trkpt lat="53.9296455383301" lon="13.3038520812988">
			<ele>53.2999992370605</ele>
			<time>2014-04-13T11:47:20Z</time>
		</trkpt>
		<trkpt lat="53.9296417236328" lon="13.30393409729">
			<ele>53.2000007629395</ele>
			<time>2014-04-13T11:47:21Z</time>
		</trkpt>
		<trkpt lat="53.9296379089355" lon="13.3040227890015">
			<ele>53.0999984741211</ele>
			<time>2014-04-13T11:47:22Z</time>
		</trkpt>
		<trkpt lat="53.929630279541" lon="13.3041105270386">
			<ele>52.7000007629395</ele>
			<time>2014-04-13T11:47:23Z</time>
		</trkpt>
		<trkpt lat="53.9296226501465" lon="13.3041982650757">
			<ele>52.4000015258789</ele>
			<time>2014-04-13T11:47:24Z</time>
		</trkpt>
		<trkpt lat="53.929615020752" lon="13.3042869567871">
			<ele>52.5999984741211</ele>
			<time>2014-04-13T11:47:25Z</time>
		</trkpt>
		<trkpt lat="53.9296112060547" lon="13.3043766021729">
			<ele>52.7999992370605</ele>
			<time>2014-04-13T11:47:26Z</time>
		</trkpt>
		<trkpt lat="53.929615020752" lon="13.304461479187">
			<ele>52.7000007629395</ele>
			<time>2014-04-13T11:47:27Z</time>
		</trkpt>
		<trkpt lat="53.9296073913574" lon="13.3045482635498">
			<ele>52.7000007629395</ele>
			<time>2014-04-13T11:47:28Z</time>
		</trkpt>
		<trkpt lat="53.929573059082" lon="13.3046350479126">
			<ele>51.5999984741211</ele>
			<time>2014-04-13T11:47:30Z</time>
		</trkpt>
		<trkpt lat="53.929557800293" lon="13.3047437667847">
			<ele>51.9000015258789</ele>
			<time>2014-04-13T11:47:34Z</time>
		</trkpt>
		<trkpt lat="53.9295959472656" lon="13.3047065734863">
			<ele>51.2000007629395</ele>
			<time>2014-04-13T11:47:50Z</time>
		</trkpt>
		<trkpt lat="53.9295501708984" lon="13.304741859436">
			<ele>46.9000015258789</ele>
			<time>2014-04-13T11:57:38Z</time>
		</trkpt>
		<trkpt lat="53.9295349121094" lon="13.3048210144043">
			<ele>43.5999984741211</ele>
			<time>2014-04-13T11:57:49Z</time>
		</trkpt>
		<trkpt lat="53.9295425415039" lon="13.3049192428589">
			<ele>43.7999992370605</ele>
			<time>2014-04-13T11:57:52Z</time>
		</trkpt>
		<trkpt lat="53.9295387268066" lon="13.3050050735474">
			<ele>45.2000007629395</ele>
			<time>2014-04-13T11:57:57Z</time>
		</trkpt>
		<trkpt lat="53.929515838623" lon="13.3052549362183">
			<ele>45.5999984741211</ele>
			<time>2014-04-13T11:57:59Z</time>
		</trkpt>
		<trkpt lat="53.9295043945313" lon="13.3053960800171">
			<ele>45.5</ele>
			<time>2014-04-13T11:58:00Z</time>
		</trkpt>
		<trkpt lat="53.9294891357422" lon="13.3055562973022">
			<ele>46.4000015258789</ele>
			<time>2014-04-13T11:58:02Z</time>
		</trkpt>
		<trkpt lat="53.9294815063477" lon="13.305643081665">
			<ele>46.5</ele>
			<time>2014-04-13T11:58:03Z</time>
		</trkpt>
		<trkpt lat="53.9294776916504" lon="13.3057203292847">
			<ele>46</ele>
			<time>2014-04-13T11:58:04Z</time>
		</trkpt>
		<trkpt lat="53.9294738769531" lon="13.3058013916016">
			<ele>46.2999992370605</ele>
			<time>2014-04-13T11:58:05Z</time>
		</trkpt>
		<trkpt lat="53.9294662475586" lon="13.3058843612671">
			<ele>46.2000007629395</ele>
			<time>2014-04-13T11:58:06Z</time>
		</trkpt>
		<trkpt lat="53.9294548034668" lon="13.3059692382813">
			<ele>46.2000007629395</ele>
			<time>2014-04-13T11:58:07Z</time>
		</trkpt>
		<trkpt lat="53.9294471740723" lon="13.3061285018921">
			<ele>46.9000015258789</ele>
			<time>2014-04-13T11:58:09Z</time>
		</trkpt>
		<trkpt lat="53.9294395446777" lon="13.3062086105347">
			<ele>47.2000007629395</ele>
			<time>2014-04-13T11:58:10Z</time>
		</trkpt>
		<trkpt lat="53.9294357299805" lon="13.3062868118286">
			<ele>47.2999992370605</ele>
			<time>2014-04-13T11:58:11Z</time>
		</trkpt>
		<trkpt lat="53.9294319152832" lon="13.3063774108887">
			<ele>47.0999984741211</ele>
			<time>2014-04-13T11:58:12Z</time>
		</trkpt>
		<trkpt lat="53.9294128417969" lon="13.3064498901367">
			<ele>47.0999984741211</ele>
			<time>2014-04-13T11:58:13Z</time>
		</trkpt>
		<trkpt lat="53.9293823242188" lon="13.3065118789673">
			<ele>47.2000007629395</ele>
			<time>2014-04-13T11:58:14Z</time>
		</trkpt>
		<trkpt lat="53.9293518066406" lon="13.3065738677979">
			<ele>47.5</ele>
			<time>2014-04-13T11:58:15Z</time>
		</trkpt>
		<trkpt lat="53.9293098449707" lon="13.3066139221191">
			<ele>47.7000007629395</ele>
			<time>2014-04-13T11:58:16Z</time>
		</trkpt>
		<trkpt lat="53.9292259216309" lon="13.3066473007202">
			<ele>48.2000007629395</ele>
			<time>2014-04-13T11:58:18Z</time>
		</trkpt>
		<trkpt lat="53.929141998291" lon="13.3066625595093">
			<ele>48.5</ele>
			<time>2014-04-13T11:58:20Z</time>
		</trkpt>
		<trkpt lat="53.9290580749512" lon="13.3066883087158">
			<ele>48.7999992370605</ele>
			<time>2014-04-13T11:58:22Z</time>
		</trkpt>
		<trkpt lat="53.9289741516113" lon="13.3067102432251">
			<ele>49</ele>
			<time>2014-04-13T11:58:24Z</time>
		</trkpt>
		<trkpt lat="53.9288864135742" lon="13.3067388534546">
			<ele>49.0999984741211</ele>
			<time>2014-04-13T11:58:26Z</time>
		</trkpt>
		<trkpt lat="53.9288063049316" lon="13.3067636489868">
			<ele>49.2999992370605</ele>
			<time>2014-04-13T11:58:28Z</time>
		</trkpt>
		<trkpt lat="53.9287223815918" lon="13.3067865371704">
			<ele>49.7999992370605</ele>
			<time>2014-04-13T11:58:30Z</time>
		</trkpt>
		<trkpt lat="53.928638458252" lon="13.3068132400513">
			<ele>49.5999984741211</ele>
			<time>2014-04-13T11:58:32Z</time>
		</trkpt>
		<trkpt lat="53.9285545349121" lon="13.3068389892578">
			<ele>49.9000015258789</ele>
			<time>2014-04-13T11:58:34Z</time>
		</trkpt>
		<trkpt lat="53.9284744262695" lon="13.3068675994873">
			<ele>50.0999984741211</ele>
			<time>2014-04-13T11:58:36Z</time>
		</trkpt>
		<trkpt lat="53.9283905029297" lon="13.3068895339966">
			<ele>50.5999984741211</ele>
			<time>2014-04-13T11:58:38Z</time>
		</trkpt>
		<trkpt lat="53.9283142089844" lon="13.3069267272949">
			<ele>51</ele>
			<time>2014-04-13T11:58:40Z</time>
		</trkpt>
		<trkpt lat="53.9282379150391" lon="13.3069553375244">
			<ele>51.2000007629395</ele>
			<time>2014-04-13T11:58:42Z</time>
		</trkpt>
		<trkpt lat="53.9281578063965" lon="13.3069744110107">
			<ele>51.4000015258789</ele>
			<time>2014-04-13T11:58:44Z</time>
		</trkpt>
		<trkpt lat="53.9280776977539" lon="13.3070077896118">
			<ele>51.5999984741211</ele>
			<time>2014-04-13T11:58:46Z</time>
		</trkpt>
		<trkpt lat="53.9280052185059" lon="13.3070306777954">
			<ele>51.5</ele>
			<time>2014-04-13T11:58:48Z</time>
		</trkpt>
		<trkpt lat="53.9279251098633" lon="13.3070497512817">
			<ele>51.7000007629395</ele>
			<time>2014-04-13T11:58:50Z</time>
		</trkpt>
		<trkpt lat="53.9278526306152" lon="13.3070726394653">
			<ele>51.7000007629395</ele>
			<time>2014-04-13T11:58:52Z</time>
		</trkpt>
		<trkpt lat="53.9277763366699" lon="13.3071060180664">
			<ele>51.9000015258789</ele>
			<time>2014-04-13T11:58:54Z</time>
		</trkpt>
		<trkpt lat="53.9277000427246" lon="13.3071298599243">
			<ele>51.7999992370605</ele>
			<time>2014-04-13T11:58:56Z</time>
		</trkpt>
		<trkpt lat="53.927619934082" lon="13.3071660995483">
			<ele>52.0999984741211</ele>
			<time>2014-04-13T11:58:58Z</time>
		</trkpt>
		<trkpt lat="53.9275436401367" lon="13.3071889877319">
			<ele>51.5999984741211</ele>
			<time>2014-04-13T11:59:00Z</time>
		</trkpt>
		<trkpt lat="53.9274673461914" lon="13.3072071075439">
			<ele>51.2999992370605</ele>
			<time>2014-04-13T11:59:02Z</time>
		</trkpt>
		<trkpt lat="53.9273910522461" lon="13.3072328567505">
			<ele>51.5999984741211</ele>
			<time>2014-04-13T11:59:04Z</time>
		</trkpt>
		<trkpt lat="53.9273147583008" lon="13.307258605957">
			<ele>51.7000007629395</ele>
			<time>2014-04-13T11:59:06Z</time>
		</trkpt>
		<trkpt lat="53.9272384643555" lon="13.3072824478149">
			<ele>51.7999992370605</ele>
			<time>2014-04-13T11:59:08Z</time>
		</trkpt>
		<trkpt lat="53.9271621704102" lon="13.3073081970215">
			<ele>51.9000015258789</ele>
			<time>2014-04-13T11:59:10Z</time>
		</trkpt>
		<trkpt lat="53.9270782470703" lon="13.307333946228">
			<ele>52.2000007629395</ele>
			<time>2014-04-13T11:59:12Z</time>
		</trkpt>
		<trkpt lat="53.9269981384277" lon="13.3073644638062">
			<ele>52.5999984741211</ele>
			<time>2014-04-13T11:59:14Z</time>
		</trkpt>
		<trkpt lat="53.9269104003906" lon="13.3073863983154">
			<ele>52.9000015258789</ele>
			<time>2014-04-13T11:59:16Z</time>
		</trkpt>
		<trkpt lat="53.926830291748" lon="13.307412147522">
			<ele>53.0999984741211</ele>
			<time>2014-04-13T11:59:18Z</time>
		</trkpt>
		<trkpt lat="53.9267501831055" lon="13.307445526123">
			<ele>53.0999984741211</ele>
			<time>2014-04-13T11:59:20Z</time>
		</trkpt>
		<trkpt lat="53.9266738891602" lon="13.3074703216553">
			<ele>53</ele>
			<time>2014-04-13T11:59:22Z</time>
		</trkpt>
		<trkpt lat="53.9265975952148" lon="13.3074989318848">
			<ele>53.2000007629395</ele>
			<time>2014-04-13T11:59:24Z</time>
		</trkpt>
		<trkpt lat="53.9265213012695" lon="13.3075246810913">
			<ele>53.2000007629395</ele>
			<time>2014-04-13T11:59:26Z</time>
		</trkpt>
		<trkpt lat="53.9264450073242" lon="13.3075485229492">
			<ele>53.2999992370605</ele>
			<time>2014-04-13T11:59:28Z</time>
		</trkpt>
		<trkpt lat="53.9263725280762" lon="13.3075609207153">
			<ele>53.5</ele>
			<time>2014-04-13T11:59:30Z</time>
		</trkpt>
		<trkpt lat="53.9263000488281" lon="13.3075885772705">
			<ele>54</ele>
			<time>2014-04-13T11:59:32Z</time>
		</trkpt>
		<trkpt lat="53.9262237548828" lon="13.3076162338257">
			<ele>54.2000007629395</ele>
			<time>2014-04-13T11:59:34Z</time>
		</trkpt>
		<trkpt lat="53.9261512756348" lon="13.3076410293579">
			<ele>53.9000015258789</ele>
			<time>2014-04-13T11:59:36Z</time>
		</trkpt>
		<trkpt lat="53.9260749816895" lon="13.3076648712158">
			<ele>54.2000007629395</ele>
			<time>2014-04-13T11:59:38Z</time>
		</trkpt>
		<trkpt lat="53.9259986877441" lon="13.307689666748">
			<ele>54.2999992370605</ele>
			<time>2014-04-13T11:59:40Z</time>
		</trkpt>
		<trkpt lat="53.9259262084961" lon="13.3077116012573">
			<ele>54.7000007629395</ele>
			<time>2014-04-13T11:59:42Z</time>
		</trkpt>
		<trkpt lat="53.9258499145508" lon="13.3077363967896">
			<ele>54.7000007629395</ele>
			<time>2014-04-13T11:59:44Z</time>
		</trkpt>
		<trkpt lat="53.9257774353027" lon="13.307765007019">
			<ele>54.7999992370605</ele>
			<time>2014-04-13T11:59:46Z</time>
		</trkpt>
		<trkpt lat="53.9257049560547" lon="13.307785987854">
			<ele>54.9000015258789</ele>
			<time>2014-04-13T11:59:48Z</time>
		</trkpt>
		<trkpt lat="53.925594329834" lon="13.3078241348267">
			<ele>54.7999992370605</ele>
			<time>2014-04-13T11:59:56Z</time>
		</trkpt>
		<trkpt lat="53.925407409668" lon="13.3078889846802">
			<ele>54.9000015258789</ele>
			<time>2014-04-13T11:59:56Z</time>
		</trkpt>
		<trkpt lat="53.9253311157227" lon="13.3079090118408">
			<ele>55.2000007629395</ele>
			<time>2014-04-13T11:59:58Z</time>
		</trkpt>
		<trkpt lat="53.9252510070801" lon="13.3079347610474">
			<ele>54.7999992370605</ele>
			<time>2014-04-13T12:00:00Z</time>
		</trkpt>
		<trkpt lat="53.9251670837402" lon="13.3079624176025">
			<ele>55.4000015258789</ele>
			<time>2014-04-13T12:00:02Z</time>
		</trkpt>
		<trkpt lat="53.9250946044922" lon="13.3079843521118">
			<ele>55.7000007629395</ele>
			<time>2014-04-13T12:00:04Z</time>
		</trkpt>
		<trkpt lat="53.9250221252441" lon="13.3080081939697">
			<ele>55.5999984741211</ele>
			<time>2014-04-13T12:00:06Z</time>
		</trkpt>
		<trkpt lat="53.9249458312988" lon="13.3080368041992">
			<ele>55.7000007629395</ele>
			<time>2014-04-13T12:00:08Z</time>
		</trkpt>
		<trkpt lat="53.9248237609863" lon="13.3080625534058">
			<ele>56.2999992370605</ele>
			<time>2014-04-13T12:00:12Z</time>
		</trkpt>
		<trkpt lat="53.9247589111328" lon="13.3080797195435">
			<ele>55.9000015258789</ele>
			<time>2014-04-13T12:00:13Z</time>
		</trkpt>
		<trkpt lat="53.9246788024902" lon="13.3081188201904">
			<ele>56.2000007629395</ele>
			<time>2014-04-13T12:00:15Z</time>
		</trkpt>
		<trkpt lat="53.9245986938477" lon="13.3081493377686">
			<ele>56.0999984741211</ele>
			<time>2014-04-13T12:00:17Z</time>
		</trkpt>
		<trkpt lat="53.9245147705078" lon="13.308180809021">
			<ele>56</ele>
			<time>2014-04-13T12:00:19Z</time>
		</trkpt>
		<trkpt lat="53.924430847168" lon="13.3082027435303">
			<ele>56.2999992370605</ele>
			<time>2014-04-13T12:00:21Z</time>
		</trkpt>
		<trkpt lat="53.9243469238281" lon="13.3082218170166">
			<ele>56.0999984741211</ele>
			<time>2014-04-13T12:00:23Z</time>
		</trkpt>
		<trkpt lat="53.9242630004883" lon="13.308253288269">
			<ele>55.7999992370605</ele>
			<time>2014-04-13T12:00:25Z</time>
		</trkpt>
		<trkpt lat="53.9241790771484" lon="13.3082866668701">
			<ele>56.2000007629395</ele>
			<time>2014-04-13T12:00:27Z</time>
		</trkpt>
		<trkpt lat="53.9241333007813" lon="13.3083009719849">
			<ele>56</ele>
			<time>2014-04-13T12:00:28Z</time>
		</trkpt>
		<trkpt lat="53.9240493774414" lon="13.3083267211914">
			<ele>55.7000007629395</ele>
			<time>2014-04-13T12:00:30Z</time>
		</trkpt>
		<trkpt lat="53.9239959716797" lon="13.30832862854">
			<ele>55.5</ele>
			<time>2014-04-13T12:00:32Z</time>
		</trkpt>
		<trkpt lat="53.9239158630371" lon="13.308349609375">
			<ele>54.7000007629395</ele>
			<time>2014-04-13T12:00:36Z</time>
		</trkpt>
		<trkpt lat="53.9237365722656" lon="13.3084087371826">
			<ele>55.7000007629395</ele>
			<time>2014-04-13T12:00:37Z</time>
		</trkpt>
		<trkpt lat="53.9236488342285" lon="13.3084316253662">
			<ele>56.0999984741211</ele>
			<time>2014-04-13T12:00:39Z</time>
		</trkpt>
		<trkpt lat="53.9236030578613" lon="13.3084545135498">
			<ele>56.0999984741211</ele>
			<time>2014-04-13T12:00:40Z</time>
		</trkpt>
		<trkpt lat="53.9235572814941" lon="13.3084678649902">
			<ele>55.7999992370605</ele>
			<time>2014-04-13T12:00:41Z</time>
		</trkpt>
		<trkpt lat="53.9234733581543" lon="13.3085088729858">
			<ele>55.9000015258789</ele>
			<time>2014-04-13T12:00:43Z</time>
		</trkpt>
		<trkpt lat="53.9234275817871" lon="13.3085308074951">
			<ele>55.9000015258789</ele>
			<time>2014-04-13T12:00:44Z</time>
		</trkpt>
		<trkpt lat="53.9233856201172" lon="13.3085460662842">
			<ele>55.9000015258789</ele>
			<time>2014-04-13T12:00:45Z</time>
		</trkpt>
		<trkpt lat="53.92333984375" lon="13.3085584640503">
			<ele>55.7000007629395</ele>
			<time>2014-04-13T12:00:46Z</time>
		</trkpt>
		<trkpt lat="53.9232482910156" lon="13.3085784912109">
			<ele>55.9000015258789</ele>
			<time>2014-04-13T12:00:48Z</time>
		</trkpt>
		<trkpt lat="53.9231643676758" lon="13.3086061477661">
			<ele>56.0999984741211</ele>
			<time>2014-04-13T12:00:50Z</time>
		</trkpt>
		<trkpt lat="53.9231185913086" lon="13.3086233139038">
			<ele>56.2000007629395</ele>
			<time>2014-04-13T12:00:51Z</time>
		</trkpt>
		<trkpt lat="53.9229850769043" lon="13.308669090271">
			<ele>56.5</ele>
			<time>2014-04-13T12:00:54Z</time>
		</trkpt>
		<trkpt lat="53.9229431152344" lon="13.3086824417114">
			<ele>56.5</ele>
			<time>2014-04-13T12:00:55Z</time>
		</trkpt>
		<trkpt lat="53.9228591918945" lon="13.3086996078491">
			<ele>56.7999992370605</ele>
			<time>2014-04-13T12:00:57Z</time>
		</trkpt>
		<trkpt lat="53.9227714538574" lon="13.3087224960327">
			<ele>57.0999984741211</ele>
			<time>2014-04-13T12:00:59Z</time>
		</trkpt>
		<trkpt lat="53.9226837158203" lon="13.3087406158447">
			<ele>57.0999984741211</ele>
			<time>2014-04-13T12:01:01Z</time>
		</trkpt>
		<trkpt lat="53.9226379394531" lon="13.3087453842163">
			<ele>57.4000015258789</ele>
			<time>2014-04-13T12:01:02Z</time>
		</trkpt>
		<trkpt lat="53.922550201416" lon="13.3087520599365">
			<ele>57.2000007629395</ele>
			<time>2014-04-13T12:01:04Z</time>
		</trkpt>
		<trkpt lat="53.9224700927734" lon="13.3087587356567">
			<ele>57.0999984741211</ele>
			<time>2014-04-13T12:01:06Z</time>
		</trkpt>
		<trkpt lat="53.9223899841309" lon="13.3087635040283">
			<ele>57.4000015258789</ele>
			<time>2014-04-13T12:01:08Z</time>
		</trkpt>
		<trkpt lat="53.9223213195801" lon="13.3087692260742">
			<ele>57.7000007629395</ele>
			<time>2014-04-13T12:01:10Z</time>
		</trkpt>
		<trkpt lat="53.9222640991211" lon="13.3087720870972">
			<ele>58.0999984741211</ele>
			<time>2014-04-13T12:01:14Z</time>
		</trkpt>
		<trkpt lat="53.9222183227539" lon="13.3087863922119">
			<ele>57.5999984741211</ele>
			<time>2014-04-13T12:01:22Z</time>
		</trkpt>
		<trkpt lat="53.9221572875977" lon="13.3088026046753">
			<ele>58.2000007629395</ele>
			<time>2014-04-13T12:01:30Z</time>
		</trkpt>
		<trkpt lat="53.9221000671387" lon="13.308798789978">
			<ele>58.4000015258789</ele>
			<time>2014-04-13T12:01:32Z</time>
		</trkpt>
		<trkpt lat="53.9220314025879" lon="13.3087873458862">
			<ele>58.2000007629395</ele>
			<time>2014-04-13T12:01:34Z</time>
		</trkpt>
		<trkpt lat="53.9219551086426" lon="13.3087711334229">
			<ele>58.4000015258789</ele>
			<time>2014-04-13T12:01:36Z</time>
		</trkpt>
		<trkpt lat="53.9218673706055" lon="13.3087539672852">
			<ele>58.2999992370605</ele>
			<time>2014-04-13T12:01:38Z</time>
		</trkpt>
		<trkpt lat="53.9218215942383" lon="13.308744430542">
			<ele>58.2000007629395</ele>
			<time>2014-04-13T12:01:39Z</time>
		</trkpt>
		<trkpt lat="53.9217758178711" lon="13.3087310791016">
			<ele>58</ele>
			<time>2014-04-13T12:01:40Z</time>
		</trkpt>
		<trkpt lat="53.9217262268066" lon="13.3087177276611">
			<ele>57.7000007629395</ele>
			<time>2014-04-13T12:01:41Z</time>
		</trkpt>
		<trkpt lat="53.9216766357422" lon="13.3087043762207">
			<ele>57.5999984741211</ele>
			<time>2014-04-13T12:01:42Z</time>
		</trkpt>
		<trkpt lat="53.921630859375" lon="13.3086919784546">
			<ele>58.2000007629395</ele>
			<time>2014-04-13T12:01:43Z</time>
		</trkpt>
		<trkpt lat="53.9215774536133" lon="13.3086805343628">
			<ele>58</ele>
			<time>2014-04-13T12:01:44Z</time>
		</trkpt>
		<trkpt lat="53.9215278625488" lon="13.3086767196655">
			<ele>57.7000007629395</ele>
			<time>2014-04-13T12:01:45Z</time>
		</trkpt>
		<trkpt lat="53.9214744567871" lon="13.308669090271">
			<ele>57.7000007629395</ele>
			<time>2014-04-13T12:01:46Z</time>
		</trkpt>
		<trkpt lat="53.9214248657227" lon="13.3086566925049">
			<ele>57.7000007629395</ele>
			<time>2014-04-13T12:01:47Z</time>
		</trkpt>
		<trkpt lat="53.9213714599609" lon="13.3086376190186">
			<ele>57.7999992370605</ele>
			<time>2014-04-13T12:01:48Z</time>
		</trkpt>
		<trkpt lat="53.9213256835938" lon="13.3086194992065">
			<ele>58</ele>
			<time>2014-04-13T12:01:49Z</time>
		</trkpt>
		<trkpt lat="53.9212760925293" lon="13.3086013793945">
			<ele>58.4000015258789</ele>
			<time>2014-04-13T12:01:50Z</time>
		</trkpt>
		<trkpt lat="53.9212265014648" lon="13.3085880279541">
			<ele>58.5</ele>
			<time>2014-04-13T12:01:51Z</time>
		</trkpt>
		<trkpt lat="53.9211769104004" lon="13.3085823059082">
			<ele>58.5</ele>
			<time>2014-04-13T12:01:52Z</time>
		</trkpt>
		<trkpt lat="53.9211273193359" lon="13.308575630188">
			<ele>58.5999984741211</ele>
			<time>2014-04-13T12:01:53Z</time>
		</trkpt>
		<trkpt lat="53.9210739135742" lon="13.3085651397705">
			<ele>59</ele>
			<time>2014-04-13T12:01:54Z</time>
		</trkpt>
		<trkpt lat="53.9210243225098" lon="13.308554649353">
			<ele>59</ele>
			<time>2014-04-13T12:01:55Z</time>
		</trkpt>
		<trkpt lat="53.9209747314453" lon="13.3085451126099">
			<ele>58.9000015258789</ele>
			<time>2014-04-13T12:01:56Z</time>
		</trkpt>
		<trkpt lat="53.9209251403809" lon="13.3085374832153">
			<ele>58.9000015258789</ele>
			<time>2014-04-13T12:01:57Z</time>
		</trkpt>
		<trkpt lat="53.9208793640137" lon="13.3085289001465">
			<ele>59</ele>
			<time>2014-04-13T12:01:58Z</time>
		</trkpt>
		<trkpt lat="53.9208297729492" lon="13.308518409729">
			<ele>59.2000007629395</ele>
			<time>2014-04-13T12:01:59Z</time>
		</trkpt>
		<trkpt lat="53.920783996582" lon="13.3085050582886">
			<ele>59.2999992370605</ele>
			<time>2014-04-13T12:02:00Z</time>
		</trkpt>
		<trkpt lat="53.9207382202148" lon="13.3084917068481">
			<ele>59.4000015258789</ele>
			<time>2014-04-13T12:02:01Z</time>
		</trkpt>
		<trkpt lat="53.9206924438477" lon="13.3084774017334">
			<ele>59.4000015258789</ele>
			<time>2014-04-13T12:02:02Z</time>
		</trkpt>
		<trkpt lat="53.9206466674805" lon="13.3084621429443">
			<ele>59.5</ele>
			<time>2014-04-13T12:02:03Z</time>
		</trkpt>
		<trkpt lat="53.9206008911133" lon="13.3084516525269">
			<ele>59.2999992370605</ele>
			<time>2014-04-13T12:02:04Z</time>
		</trkpt>
		<trkpt lat="53.9205551147461" lon="13.308443069458">
			<ele>59.5</ele>
			<time>2014-04-13T12:02:05Z</time>
		</trkpt>
		<trkpt lat="53.9205093383789" lon="13.3084335327148">
			<ele>59.5999984741211</ele>
			<time>2014-04-13T12:02:06Z</time>
		</trkpt>
		<trkpt lat="53.9204635620117" lon="13.3084230422974">
			<ele>59.5999984741211</ele>
			<time>2014-04-13T12:02:07Z</time>
		</trkpt>
		<trkpt lat="53.9204177856445" lon="13.3084125518799">
			<ele>59.7999992370605</ele>
			<time>2014-04-13T12:02:08Z</time>
		</trkpt>
		<trkpt lat="53.9203720092773" lon="13.3084001541138">
			<ele>59.9000015258789</ele>
			<time>2014-04-13T12:02:09Z</time>
		</trkpt>
		<trkpt lat="53.9202842712402" lon="13.3083782196045">
			<ele>59.9000015258789</ele>
			<time>2014-04-13T12:02:11Z</time>
		</trkpt>
		<trkpt lat="53.920238494873" lon="13.3083639144897">
			<ele>59.7999992370605</ele>
			<time>2014-04-13T12:02:12Z</time>
		</trkpt>
		<trkpt lat="53.9201927185059" lon="13.3083477020264">
			<ele>59.9000015258789</ele>
			<time>2014-04-13T12:02:13Z</time>
		</trkpt>
		<trkpt lat="53.9201049804688" lon="13.3083209991455">
			<ele>59.7999992370605</ele>
			<time>2014-04-13T12:02:15Z</time>
		</trkpt>
		<trkpt lat="53.9200134277344" lon="13.3082904815674">
			<ele>59.7999992370605</ele>
			<time>2014-04-13T12:02:17Z</time>
		</trkpt>
		<trkpt lat="53.9199714660645" lon="13.3082714080811">
			<ele>60</ele>
			<time>2014-04-13T12:02:18Z</time>
		</trkpt>
		<trkpt lat="53.9198875427246" lon="13.3082323074341">
			<ele>60.4000015258789</ele>
			<time>2014-04-13T12:02:20Z</time>
		</trkpt>
		<trkpt lat="53.9197998046875" lon="13.3081941604614">
			<ele>60.2000007629395</ele>
			<time>2014-04-13T12:02:22Z</time>
		</trkpt>
		<trkpt lat="53.9197196960449" lon="13.3081579208374">
			<ele>60.2000007629395</ele>
			<time>2014-04-13T12:02:24Z</time>
		</trkpt>
		<trkpt lat="53.9196395874023" lon="13.3081216812134">
			<ele>60.2999992370605</ele>
			<time>2014-04-13T12:02:26Z</time>
		</trkpt>
		<trkpt lat="53.9195594787598" lon="13.3080863952637">
			<ele>60.5</ele>
			<time>2014-04-13T12:02:28Z</time>
		</trkpt>
		<trkpt lat="53.9194793701172" lon="13.3080453872681">
			<ele>60.5999984741211</ele>
			<time>2014-04-13T12:02:30Z</time>
		</trkpt>
		<trkpt lat="53.9193992614746" lon="13.308012008667">
			<ele>60.5999984741211</ele>
			<time>2014-04-13T12:02:32Z</time>
		</trkpt>
		<trkpt lat="53.9193229675293" lon="13.307975769043">
			<ele>60.7999992370605</ele>
			<time>2014-04-13T12:02:34Z</time>
		</trkpt>
		<trkpt lat="53.9192428588867" lon="13.307933807373">
			<ele>60.7999992370605</ele>
			<time>2014-04-13T12:02:36Z</time>
		</trkpt>
		<trkpt lat="53.9191589355469" lon="13.3079023361206">
			<ele>60.9000015258789</ele>
			<time>2014-04-13T12:02:38Z</time>
		</trkpt>
		<trkpt lat="53.9190826416016" lon="13.3078632354736">
			<ele>61</ele>
			<time>2014-04-13T12:02:40Z</time>
		</trkpt>
		<trkpt lat="53.9189987182617" lon="13.3078260421753">
			<ele>61</ele>
			<time>2014-04-13T12:02:42Z</time>
		</trkpt>
		<trkpt lat="53.9189186096191" lon="13.307788848877">
			<ele>61.2000007629395</ele>
			<time>2014-04-13T12:02:44Z</time>
		</trkpt>
		<trkpt lat="53.9188385009766" lon="13.3077487945557">
			<ele>61.2000007629395</ele>
			<time>2014-04-13T12:02:46Z</time>
		</trkpt>
		<trkpt lat="53.918758392334" lon="13.3077116012573">
			<ele>61.2000007629395</ele>
			<time>2014-04-13T12:02:48Z</time>
		</trkpt>
		<trkpt lat="53.9186744689941" lon="13.3076801300049">
			<ele>61.2999992370605</ele>
			<time>2014-04-13T12:02:50Z</time>
		</trkpt>
		<trkpt lat="53.9185943603516" lon="13.3076438903809">
			<ele>61.4000015258789</ele>
			<time>2014-04-13T12:02:52Z</time>
		</trkpt>
		<trkpt lat="53.9185066223145" lon="13.3076057434082">
			<ele>61.2999992370605</ele>
			<time>2014-04-13T12:02:54Z</time>
		</trkpt>
		<trkpt lat="53.9184608459473" lon="13.3075876235962">
			<ele>61.2000007629395</ele>
			<time>2014-04-13T12:02:55Z</time>
		</trkpt>
		<trkpt lat="53.9183769226074" lon="13.3075504302979">
			<ele>61.2000007629395</ele>
			<time>2014-04-13T12:02:57Z</time>
		</trkpt>
		<trkpt lat="53.9183311462402" lon="13.3075256347656">
			<ele>61.0999984741211</ele>
			<time>2014-04-13T12:02:58Z</time>
		</trkpt>
		<trkpt lat="53.9182815551758" lon="13.3075017929077">
			<ele>61.2999992370605</ele>
			<time>2014-04-13T12:02:59Z</time>
		</trkpt>
		<trkpt lat="53.9182357788086" lon="13.3074817657471">
			<ele>61.2999992370605</ele>
			<time>2014-04-13T12:03:00Z</time>
		</trkpt>
		<trkpt lat="53.9181900024414" lon="13.3074579238892">
			<ele>61.0999984741211</ele>
			<time>2014-04-13T12:03:01Z</time>
		</trkpt>
		<trkpt lat="53.9181442260742" lon="13.3074350357056">
			<ele>60.9000015258789</ele>
			<time>2014-04-13T12:03:02Z</time>
		</trkpt>
		<trkpt lat="53.918098449707" lon="13.3074150085449">
			<ele>61</ele>
			<time>2014-04-13T12:03:03Z</time>
		</trkpt>
		<trkpt lat="53.9180488586426" lon="13.3073949813843">
			<ele>61</ele>
			<time>2014-04-13T12:03:04Z</time>
		</trkpt>
		<trkpt lat="53.9179992675781" lon="13.3073759078979">
			<ele>60.9000015258789</ele>
			<time>2014-04-13T12:03:05Z</time>
		</trkpt>
		<trkpt lat="53.9179534912109" lon="13.3073558807373">
			<ele>61.2000007629395</ele>
			<time>2014-04-13T12:03:06Z</time>
		</trkpt>
		<trkpt lat="53.9179077148438" lon="13.3073377609253">
			<ele>61.2000007629395</ele>
			<time>2014-04-13T12:03:07Z</time>
		</trkpt>
		<trkpt lat="53.9178581237793" lon="13.3073205947876">
			<ele>61.2000007629395</ele>
			<time>2014-04-13T12:03:08Z</time>
		</trkpt>
		<trkpt lat="53.9178123474121" lon="13.3073024749756">
			<ele>61</ele>
			<time>2014-04-13T12:03:09Z</time>
		</trkpt>
		<trkpt lat="53.9177627563477" lon="13.3072776794434">
			<ele>61</ele>
			<time>2014-04-13T12:03:10Z</time>
		</trkpt>
		<trkpt lat="53.9177169799805" lon="13.3072509765625">
			<ele>60.7999992370605</ele>
			<time>2014-04-13T12:03:11Z</time>
		</trkpt>
		<trkpt lat="53.9176712036133" lon="13.3072242736816">
			<ele>60.5999984741211</ele>
			<time>2014-04-13T12:03:12Z</time>
		</trkpt>
		<trkpt lat="53.9176254272461" lon="13.3071966171265">
			<ele>60.7000007629395</ele>
			<time>2014-04-13T12:03:13Z</time>
		</trkpt>
		<trkpt lat="53.9175758361816" lon="13.3071708679199">
			<ele>60.5999984741211</ele>
			<time>2014-04-13T12:03:14Z</time>
		</trkpt>
		<trkpt lat="53.9175262451172" lon="13.3071479797363">
			<ele>60.2999992370605</ele>
			<time>2014-04-13T12:03:15Z</time>
		</trkpt>
		<trkpt lat="53.91748046875" lon="13.3071203231812">
			<ele>60.0999984741211</ele>
			<time>2014-04-13T12:03:16Z</time>
		</trkpt>
		<trkpt lat="53.9174270629883" lon="13.3071012496948">
			<ele>60</ele>
			<time>2014-04-13T12:03:17Z</time>
		</trkpt>
		<trkpt lat="53.9173774719238" lon="13.3070821762085">
			<ele>60.0999984741211</ele>
			<time>2014-04-13T12:03:18Z</time>
		</trkpt>
		<trkpt lat="53.9173240661621" lon="13.3070592880249">
			<ele>60.0999984741211</ele>
			<time>2014-04-13T12:03:19Z</time>
		</trkpt>
		<trkpt lat="53.9172744750977" lon="13.3070363998413">
			<ele>60</ele>
			<time>2014-04-13T12:03:20Z</time>
		</trkpt>
		<trkpt lat="53.9172210693359" lon="13.3070135116577">
			<ele>60</ele>
			<time>2014-04-13T12:03:21Z</time>
		</trkpt>
		<trkpt lat="53.9171752929688" lon="13.3069877624512">
			<ele>60</ele>
			<time>2014-04-13T12:03:22Z</time>
		</trkpt>
		<trkpt lat="53.917121887207" lon="13.3069648742676">
			<ele>59.9000015258789</ele>
			<time>2014-04-13T12:03:23Z</time>
		</trkpt>
		<trkpt lat="53.9170684814453" lon="13.306939125061">
			<ele>59.7000007629395</ele>
			<time>2014-04-13T12:03:24Z</time>
		</trkpt>
		<trkpt lat="53.9170188903809" lon="13.3069105148315">
			<ele>59.2000007629395</ele>
			<time>2014-04-13T12:03:25Z</time>
		</trkpt>
		<trkpt lat="53.9169692993164" lon="13.3068876266479">
			<ele>59</ele>
			<time>2014-04-13T12:03:26Z</time>
		</trkpt>
		<trkpt lat="53.9169158935547" lon="13.30686378479">
			<ele>58.7999992370605</ele>
			<time>2014-04-13T12:03:27Z</time>
		</trkpt>
		<trkpt lat="53.916862487793" lon="13.3068361282349">
			<ele>58.5999984741211</ele>
			<time>2014-04-13T12:03:28Z</time>
		</trkpt>
		<trkpt lat="53.9168090820313" lon="13.3068084716797">
			<ele>58.9000015258789</ele>
			<time>2014-04-13T12:03:29Z</time>
		</trkpt>
		<trkpt lat="53.9167556762695" lon="13.3067817687988">
			<ele>59</ele>
			<time>2014-04-13T12:03:30Z</time>
		</trkpt>
		<trkpt lat="53.9167060852051" lon="13.3067569732666">
			<ele>58.9000015258789</ele>
			<time>2014-04-13T12:03:31Z</time>
		</trkpt>
		<trkpt lat="53.9166526794434" lon="13.3067350387573">
			<ele>59.2000007629395</ele>
			<time>2014-04-13T12:03:32Z</time>
		</trkpt>
		<trkpt lat="53.9166030883789" lon="13.3067073822021">
			<ele>59.0999984741211</ele>
			<time>2014-04-13T12:03:33Z</time>
		</trkpt>
		<trkpt lat="53.9165534973145" lon="13.3066835403442">
			<ele>59.0999984741211</ele>
			<time>2014-04-13T12:03:34Z</time>
		</trkpt>
		<trkpt lat="53.9165000915527" lon="13.3066606521606">
			<ele>59.0999984741211</ele>
			<time>2014-04-13T12:03:35Z</time>
		</trkpt>
		<trkpt lat="53.9164505004883" lon="13.306640625">
			<ele>59.2000007629395</ele>
			<time>2014-04-13T12:03:36Z</time>
		</trkpt>
		<trkpt lat="53.9163970947266" lon="13.3066158294678">
			<ele>59.0999984741211</ele>
			<time>2014-04-13T12:03:37Z</time>
		</trkpt>
		<trkpt lat="53.9163475036621" lon="13.3065919876099">
			<ele>59.0999984741211</ele>
			<time>2014-04-13T12:03:38Z</time>
		</trkpt>
		<trkpt lat="53.9162979125977" lon="13.3065700531006">
			<ele>59</ele>
			<time>2014-04-13T12:03:39Z</time>
		</trkpt>
		<trkpt lat="53.9162445068359" lon="13.306547164917">
			<ele>58.9000015258789</ele>
			<time>2014-04-13T12:03:40Z</time>
		</trkpt>
		<trkpt lat="53.9161949157715" lon="13.3065233230591">
			<ele>58.7999992370605</ele>
			<time>2014-04-13T12:03:41Z</time>
		</trkpt>
		<trkpt lat="53.916145324707" lon="13.3064966201782">
			<ele>59</ele>
			<time>2014-04-13T12:03:42Z</time>
		</trkpt>
		<trkpt lat="53.9160957336426" lon="13.3064756393433">
			<ele>59.2000007629395</ele>
			<time>2014-04-13T12:03:43Z</time>
		</trkpt>
		<trkpt lat="53.9160461425781" lon="13.3064556121826">
			<ele>59.0999984741211</ele>
			<time>2014-04-13T12:03:44Z</time>
		</trkpt>
		<trkpt lat="53.9159965515137" lon="13.3064336776733">
			<ele>59.2000007629395</ele>
			<time>2014-04-13T12:03:45Z</time>
		</trkpt>
		<trkpt lat="53.915943145752" lon="13.306414604187">
			<ele>59.2999992370605</ele>
			<time>2014-04-13T12:03:46Z</time>
		</trkpt>
		<trkpt lat="53.9158935546875" lon="13.3063898086548">
			<ele>59.2000007629395</ele>
			<time>2014-04-13T12:03:47Z</time>
		</trkpt>
		<trkpt lat="53.9158401489258" lon="13.3063659667969">
			<ele>59.2000007629395</ele>
			<time>2014-04-13T12:03:48Z</time>
		</trkpt>
		<trkpt lat="53.9157867431641" lon="13.3063430786133">
			<ele>59</ele>
			<time>2014-04-13T12:03:49Z</time>
		</trkpt>
		<trkpt lat="53.9157333374023" lon="13.3063201904297">
			<ele>58.9000015258789</ele>
			<time>2014-04-13T12:03:50Z</time>
		</trkpt>
		<trkpt lat="53.9156799316406" lon="13.3062944412231">
			<ele>59.0999984741211</ele>
			<time>2014-04-13T12:03:51Z</time>
		</trkpt>
		<trkpt lat="53.9156265258789" lon="13.3062686920166">
			<ele>59.0999984741211</ele>
			<time>2014-04-13T12:03:52Z</time>
		</trkpt>
		<trkpt lat="53.9155731201172" lon="13.3062448501587">
			<ele>59</ele>
			<time>2014-04-13T12:03:53Z</time>
		</trkpt>
		<trkpt lat="53.9155235290527" lon="13.3062210083008">
			<ele>59</ele>
			<time>2014-04-13T12:03:54Z</time>
		</trkpt>
		<trkpt lat="53.915470123291" lon="13.3061971664429">
			<ele>59</ele>
			<time>2014-04-13T12:03:55Z</time>
		</trkpt>
		<trkpt lat="53.9154167175293" lon="13.306173324585">
			<ele>58.9000015258789</ele>
			<time>2014-04-13T12:03:56Z</time>
		</trkpt>
		<trkpt lat="53.9153671264648" lon="13.30615234375">
			<ele>58.5999984741211</ele>
			<time>2014-04-13T12:03:57Z</time>
		</trkpt>
		<trkpt lat="53.9153099060059" lon="13.3061256408691">
			<ele>58.2999992370605</ele>
			<time>2014-04-13T12:03:58Z</time>
		</trkpt>
		<trkpt lat="53.9152565002441" lon="13.3060960769653">
			<ele>58.2000007629395</ele>
			<time>2014-04-13T12:03:59Z</time>
		</trkpt>
		<trkpt lat="53.9152030944824" lon="13.3060626983643">
			<ele>58</ele>
			<time>2014-04-13T12:04:00Z</time>
		</trkpt>
		<trkpt lat="53.9151496887207" lon="13.3060369491577">
			<ele>58.2999992370605</ele>
			<time>2014-04-13T12:04:01Z</time>
		</trkpt>
		<trkpt lat="53.9150924682617" lon="13.3060140609741">
			<ele>58.0999984741211</ele>
			<time>2014-04-13T12:04:02Z</time>
		</trkpt>
		<trkpt lat="53.9150390625" lon="13.3059902191162">
			<ele>57.7999992370605</ele>
			<time>2014-04-13T12:04:03Z</time>
		</trkpt>
		<trkpt lat="53.914981842041" lon="13.3059644699097">
			<ele>57.5999984741211</ele>
			<time>2014-04-13T12:04:04Z</time>
		</trkpt>
		<trkpt lat="53.9149284362793" lon="13.3059434890747">
			<ele>57.4000015258789</ele>
			<time>2014-04-13T12:04:05Z</time>
		</trkpt>
		<trkpt lat="53.9148750305176" lon="13.3059206008911">
			<ele>57.2999992370605</ele>
			<time>2014-04-13T12:04:06Z</time>
		</trkpt>
		<trkpt lat="53.9148178100586" lon="13.3059024810791">
			<ele>57.2999992370605</ele>
			<time>2014-04-13T12:04:07Z</time>
		</trkpt>
		<trkpt lat="53.9147605895996" lon="13.3058910369873">
			<ele>57.0999984741211</ele>
			<time>2014-04-13T12:04:08Z</time>
		</trkpt>
		<trkpt lat="53.9147071838379" lon="13.3058662414551">
			<ele>56.7999992370605</ele>
			<time>2014-04-13T12:04:09Z</time>
		</trkpt>
		<trkpt lat="53.9146537780762" lon="13.3058366775513">
			<ele>56.7999992370605</ele>
			<time>2014-04-13T12:04:10Z</time>
		</trkpt>
		<trkpt lat="53.9145965576172" lon="13.3058090209961">
			<ele>56.7999992370605</ele>
			<time>2014-04-13T12:04:11Z</time>
		</trkpt>
		<trkpt lat="53.9145431518555" lon="13.3057794570923">
			<ele>56.7999992370605</ele>
			<time>2014-04-13T12:04:12Z</time>
		</trkpt>
		<trkpt lat="53.9144859313965" lon="13.3057518005371">
			<ele>56.9000015258789</ele>
			<time>2014-04-13T12:04:13Z</time>
		</trkpt>
		<trkpt lat="53.9144287109375" lon="13.3057289123535">
			<ele>57</ele>
			<time>2014-04-13T12:04:14Z</time>
		</trkpt>
		<trkpt lat="53.9143753051758" lon="13.305700302124">
			<ele>56.9000015258789</ele>
			<time>2014-04-13T12:04:15Z</time>
		</trkpt>
		<trkpt lat="53.9143180847168" lon="13.3056726455688">
			<ele>56.7000007629395</ele>
			<time>2014-04-13T12:04:16Z</time>
		</trkpt>
		<trkpt lat="53.9142646789551" lon="13.305645942688">
			<ele>56.5</ele>
			<time>2014-04-13T12:04:17Z</time>
		</trkpt>
		<trkpt lat="53.9142112731934" lon="13.3056192398071">
			<ele>56.4000015258789</ele>
			<time>2014-04-13T12:04:18Z</time>
		</trkpt>
		<trkpt lat="53.9141578674316" lon="13.3055944442749">
			<ele>56.2999992370605</ele>
			<time>2014-04-13T12:04:19Z</time>
		</trkpt>
		<trkpt lat="53.9141006469727" lon="13.305570602417">
			<ele>56.2999992370605</ele>
			<time>2014-04-13T12:04:20Z</time>
		</trkpt>
		<trkpt lat="53.9140472412109" lon="13.3055477142334">
			<ele>56.2999992370605</ele>
			<time>2014-04-13T12:04:21Z</time>
		</trkpt>
		<trkpt lat="53.9139938354492" lon="13.3055191040039">
			<ele>56.2000007629395</ele>
			<time>2014-04-13T12:04:22Z</time>
		</trkpt>
		<trkpt lat="53.9139404296875" lon="13.3054914474487">
			<ele>56.0999984741211</ele>
			<time>2014-04-13T12:04:23Z</time>
		</trkpt>
		<trkpt lat="53.9138870239258" lon="13.3054685592651">
			<ele>56</ele>
			<time>2014-04-13T12:04:24Z</time>
		</trkpt>
		<trkpt lat="53.9138336181641" lon="13.3054437637329">
			<ele>56</ele>
			<time>2014-04-13T12:04:25Z</time>
		</trkpt>
		<trkpt lat="53.9137763977051" lon="13.3054227828979">
			<ele>55.5999984741211</ele>
			<time>2014-04-13T12:04:26Z</time>
		</trkpt>
		<trkpt lat="53.9137268066406" lon="13.305401802063">
			<ele>55.2000007629395</ele>
			<time>2014-04-13T12:04:27Z</time>
		</trkpt>
		<trkpt lat="53.9136734008789" lon="13.3053779602051">
			<ele>54.9000015258789</ele>
			<time>2014-04-13T12:04:28Z</time>
		</trkpt>
		<trkpt lat="53.9136199951172" lon="13.3053512573242">
			<ele>54.7999992370605</ele>
			<time>2014-04-13T12:04:29Z</time>
		</trkpt>
		<trkpt lat="53.9135665893555" lon="13.3053283691406">
			<ele>54.5</ele>
			<time>2014-04-13T12:04:30Z</time>
		</trkpt>
		<trkpt lat="53.9135131835938" lon="13.3053064346313">
			<ele>54.2999992370605</ele>
			<time>2014-04-13T12:04:31Z</time>
		</trkpt>
		<trkpt lat="53.9134559631348" lon="13.3052864074707">
			<ele>54</ele>
			<time>2014-04-13T12:04:32Z</time>
		</trkpt>
		<trkpt lat="53.9134063720703" lon="13.3052587509155">
			<ele>54.0999984741211</ele>
			<time>2014-04-13T12:04:33Z</time>
		</trkpt>
		<trkpt lat="53.9133491516113" lon="13.3052339553833">
			<ele>54.0999984741211</ele>
			<time>2014-04-13T12:04:34Z</time>
		</trkpt>
		<trkpt lat="53.9132919311523" lon="13.3052053451538">
			<ele>54.2999992370605</ele>
			<time>2014-04-13T12:04:35Z</time>
		</trkpt>
		<trkpt lat="53.9132385253906" lon="13.3051786422729">
			<ele>54.5</ele>
			<time>2014-04-13T12:04:36Z</time>
		</trkpt>
		<trkpt lat="53.9131813049316" lon="13.3051538467407">
			<ele>54.4000015258789</ele>
			<time>2014-04-13T12:04:37Z</time>
		</trkpt>
		<trkpt lat="53.9131240844727" lon="13.3051300048828">
			<ele>54.5</ele>
			<time>2014-04-13T12:04:38Z</time>
		</trkpt>
		<trkpt lat="53.9130668640137" lon="13.3051042556763">
			<ele>54.5</ele>
			<time>2014-04-13T12:04:39Z</time>
		</trkpt>
		<trkpt lat="53.913013458252" lon="13.3050727844238">
			<ele>54.4000015258789</ele>
			<time>2014-04-13T12:04:40Z</time>
		</trkpt>
		<trkpt lat="53.912956237793" lon="13.3050508499146">
			<ele>54.2000007629395</ele>
			<time>2014-04-13T12:04:41Z</time>
		</trkpt>
		<trkpt lat="53.9129028320313" lon="13.3050260543823">
			<ele>54.2000007629395</ele>
			<time>2014-04-13T12:04:42Z</time>
		</trkpt>
		<trkpt lat="53.9128456115723" lon="13.3050003051758">
			<ele>53.9000015258789</ele>
			<time>2014-04-13T12:04:43Z</time>
		</trkpt>
		<trkpt lat="53.9127883911133" lon="13.304970741272">
			<ele>53.9000015258789</ele>
			<time>2014-04-13T12:04:44Z</time>
		</trkpt>
		<trkpt lat="53.9127311706543" lon="13.3049440383911">
			<ele>53.7999992370605</ele>
			<time>2014-04-13T12:04:45Z</time>
		</trkpt>
		<trkpt lat="53.9126777648926" lon="13.3049154281616">
			<ele>53.5999984741211</ele>
			<time>2014-04-13T12:04:46Z</time>
		</trkpt>
		<trkpt lat="53.9126167297363" lon="13.3048858642578">
			<ele>53.4000015258789</ele>
			<time>2014-04-13T12:04:47Z</time>
		</trkpt>
		<trkpt lat="53.9125633239746" lon="13.304856300354">
			<ele>53.4000015258789</ele>
			<time>2014-04-13T12:04:48Z</time>
		</trkpt>
		<trkpt lat="53.9125022888184" lon="13.3048315048218">
			<ele>53.7000007629395</ele>
			<time>2014-04-13T12:04:49Z</time>
		</trkpt>
		<trkpt lat="53.9124450683594" lon="13.3048028945923">
			<ele>53.5999984741211</ele>
			<time>2014-04-13T12:04:50Z</time>
		</trkpt>
		<trkpt lat="53.9123878479004" lon="13.3047723770142">
			<ele>53.5999984741211</ele>
			<time>2014-04-13T12:04:51Z</time>
		</trkpt>
		<trkpt lat="53.9123306274414" lon="13.3047456741333">
			<ele>53.5</ele>
			<time>2014-04-13T12:04:52Z</time>
		</trkpt>
		<trkpt lat="53.9122734069824" lon="13.3047199249268">
			<ele>53.2000007629395</ele>
			<time>2014-04-13T12:04:53Z</time>
		</trkpt>
		<trkpt lat="53.9122161865234" lon="13.3046960830688">
			<ele>53.0999984741211</ele>
			<time>2014-04-13T12:04:54Z</time>
		</trkpt>
		<trkpt lat="53.9121589660645" lon="13.3046731948853">
			<ele>52.7999992370605</ele>
			<time>2014-04-13T12:04:55Z</time>
		</trkpt>
		<trkpt lat="53.9121017456055" lon="13.3046522140503">
			<ele>52.7000007629395</ele>
			<time>2014-04-13T12:04:56Z</time>
		</trkpt>
		<trkpt lat="53.9120483398438" lon="13.3046283721924">
			<ele>52.7000007629395</ele>
			<time>2014-04-13T12:04:57Z</time>
		</trkpt>
		<trkpt lat="53.911994934082" lon="13.3046035766602">
			<ele>52.2999992370605</ele>
			<time>2014-04-13T12:04:58Z</time>
		</trkpt>
		<trkpt lat="53.911937713623" lon="13.3045797348022">
			<ele>52</ele>
			<time>2014-04-13T12:04:59Z</time>
		</trkpt>
		<trkpt lat="53.9118804931641" lon="13.3045530319214">
			<ele>51.9000015258789</ele>
			<time>2014-04-13T12:05:00Z</time>
		</trkpt>
		<trkpt lat="53.9118270874023" lon="13.3045272827148">
			<ele>52.0999984741211</ele>
			<time>2014-04-13T12:05:01Z</time>
		</trkpt>
		<trkpt lat="53.9117736816406" lon="13.3045024871826">
			<ele>52</ele>
			<time>2014-04-13T12:05:02Z</time>
		</trkpt>
		<trkpt lat="53.9117164611816" lon="13.3044786453247">
			<ele>51.7000007629395</ele>
			<time>2014-04-13T12:05:03Z</time>
		</trkpt>
		<trkpt lat="53.9116592407227" lon="13.3044509887695">
			<ele>51.7000007629395</ele>
			<time>2014-04-13T12:05:04Z</time>
		</trkpt>
		<trkpt lat="53.9116058349609" lon="13.3044195175171">
			<ele>51.5999984741211</ele>
			<time>2014-04-13T12:05:05Z</time>
		</trkpt>
		<trkpt lat="53.9115524291992" lon="13.304388999939">
			<ele>51.5</ele>
			<time>2014-04-13T12:05:06Z</time>
		</trkpt>
		<trkpt lat="53.9114990234375" lon="13.3043584823608">
			<ele>51.2999992370605</ele>
			<time>2014-04-13T12:05:07Z</time>
		</trkpt>
		<trkpt lat="53.9114456176758" lon="13.3043365478516">
			<ele>51.0999984741211</ele>
			<time>2014-04-13T12:05:08Z</time>
		</trkpt>
		<trkpt lat="53.9113922119141" lon="13.3043069839478">
			<ele>50.7000007629395</ele>
			<time>2014-04-13T12:05:09Z</time>
		</trkpt>
		<trkpt lat="53.9113388061523" lon="13.3042783737183">
			<ele>50.7000007629395</ele>
			<time>2014-04-13T12:05:10Z</time>
		</trkpt>
		<trkpt lat="53.9112892150879" lon="13.3042497634888">
			<ele>50.7999992370605</ele>
			<time>2014-04-13T12:05:11Z</time>
		</trkpt>
		<trkpt lat="53.9112358093262" lon="13.3042249679565">
			<ele>51.0999984741211</ele>
			<time>2014-04-13T12:05:12Z</time>
		</trkpt>
		<trkpt lat="53.9111862182617" lon="13.3042020797729">
			<ele>51.0999984741211</ele>
			<time>2014-04-13T12:05:13Z</time>
		</trkpt>
		<trkpt lat="53.9111366271973" lon="13.304178237915">
			<ele>51</ele>
			<time>2014-04-13T12:05:14Z</time>
		</trkpt>
		<trkpt lat="53.9110832214355" lon="13.3041572570801">
			<ele>50.7999992370605</ele>
			<time>2014-04-13T12:05:15Z</time>
		</trkpt>
		<trkpt lat="53.9110374450684" lon="13.3041305541992">
			<ele>50.9000015258789</ele>
			<time>2014-04-13T12:05:19Z</time>
		</trkpt>
		<trkpt lat="53.9108390808105" lon="13.304027557373">
			<ele>50.7999992370605</ele>
			<time>2014-04-13T12:05:21Z</time>
		</trkpt>
		<trkpt lat="53.9107437133789" lon="13.3039808273315">
			<ele>51.0999984741211</ele>
			<time>2014-04-13T12:05:22Z</time>
		</trkpt>
		<trkpt lat="53.9106979370117" lon="13.3039531707764">
			<ele>51.4000015258789</ele>
			<time>2014-04-13T12:05:23Z</time>
		</trkpt>
		<trkpt lat="53.9106521606445" lon="13.3039302825928">
			<ele>51.7000007629395</ele>
			<time>2014-04-13T12:05:24Z</time>
		</trkpt>
		<trkpt lat="53.9105682373047" lon="13.3038730621338">
			<ele>51.7999992370605</ele>
			<time>2014-04-13T12:05:26Z</time>
		</trkpt>
		<trkpt lat="53.9104957580566" lon="13.3038005828857">
			<ele>51.5999984741211</ele>
			<time>2014-04-13T12:05:28Z</time>
		</trkpt>
		<trkpt lat="53.9104194641113" lon="13.303729057312">
			<ele>51.7000007629395</ele>
			<time>2014-04-13T12:05:30Z</time>
		</trkpt>
		<trkpt lat="53.9103393554688" lon="13.3036651611328">
			<ele>51.5999984741211</ele>
			<time>2014-04-13T12:05:32Z</time>
		</trkpt>
		<trkpt lat="53.9102592468262" lon="13.3036098480225">
			<ele>51.7000007629395</ele>
			<time>2014-04-13T12:05:34Z</time>
		</trkpt>
		<trkpt lat="53.9101791381836" lon="13.3035526275635">
			<ele>51.7000007629395</ele>
			<time>2014-04-13T12:05:36Z</time>
		</trkpt>
		<trkpt lat="53.9101028442383" lon="13.3034858703613">
			<ele>51.4000015258789</ele>
			<time>2014-04-13T12:05:38Z</time>
		</trkpt>
		<trkpt lat="53.9100303649902" lon="13.3034267425537">
			<ele>51.0999984741211</ele>
			<time>2014-04-13T12:05:40Z</time>
		</trkpt>
		<trkpt lat="53.9099540710449" lon="13.3033838272095">
			<ele>50.7999992370605</ele>
			<time>2014-04-13T12:05:42Z</time>
		</trkpt>
		<trkpt lat="53.9098930358887" lon="13.3033580780029">
			<ele>48.5999984741211</ele>
			<time>2014-04-13T12:05:44Z</time>
		</trkpt>
		<trkpt lat="53.9099502563477" lon="13.3034286499023">
			<ele>48.7999992370605</ele>
			<time>2014-04-13T12:05:47Z</time>
		</trkpt>
		<trkpt lat="53.9100151062012" lon="13.3034639358521">
			<ele>49</ele>
			<time>2014-04-13T12:05:50Z</time>
		</trkpt>
		<trkpt lat="53.9100685119629" lon="13.3034915924072">
			<ele>49.5</ele>
			<time>2014-04-13T12:05:52Z</time>
		</trkpt>
		<trkpt lat="53.9101524353027" lon="13.3035535812378">
			<ele>50.5</ele>
			<time>2014-04-13T12:05:55Z</time>
		</trkpt>
		<trkpt lat="53.9101982116699" lon="13.3036870956421">
			<ele>50.5999984741211</ele>
			<time>2014-04-13T12:05:59Z</time>
		</trkpt>
		<trkpt lat="53.9101638793945" lon="13.3037939071655">
			<ele>51.0999984741211</ele>
			<time>2014-04-13T12:06:00Z</time>
		</trkpt>
		<trkpt lat="53.9101104736328" lon="13.3039054870605">
			<ele>52.0999984741211</ele>
			<time>2014-04-13T12:06:02Z</time>
		</trkpt>
		<trkpt lat="53.9100723266602" lon="13.3039674758911">
			<ele>51</ele>
			<time>2014-04-13T12:06:03Z</time>
		</trkpt>
		<trkpt lat="53.9100379943848" lon="13.3040313720703">
			<ele>51</ele>
			<time>2014-04-13T12:06:04Z</time>
		</trkpt>
		<trkpt lat="53.9099998474121" lon="13.3040962219238">
			<ele>51.0999984741211</ele>
			<time>2014-04-13T12:06:05Z</time>
		</trkpt>
		<trkpt lat="53.9099655151367" lon="13.3041620254517">
			<ele>51</ele>
			<time>2014-04-13T12:06:06Z</time>
		</trkpt>
		<trkpt lat="53.9099273681641" lon="13.3042278289795">
			<ele>51</ele>
			<time>2014-04-13T12:06:08Z</time>
		</trkpt>
		<trkpt lat="53.9098892211914" lon="13.3042984008789">
			<ele>50.7999992370605</ele>
			<time>2014-04-13T12:06:08Z</time>
		</trkpt>
		<trkpt lat="53.9098510742188" lon="13.3043613433838">
			<ele>50.9000015258789</ele>
			<time>2014-04-13T12:06:10Z</time>
		</trkpt>
		<trkpt lat="53.9098129272461" lon="13.3044290542603">
			<ele>50.9000015258789</ele>
			<time>2014-04-13T12:06:10Z</time>
		</trkpt>
		<trkpt lat="53.9097785949707" lon="13.3044872283936">
			<ele>51.5</ele>
			<time>2014-04-13T12:06:12Z</time>
		</trkpt>
		<trkpt lat="53.9097099304199" lon="13.304612159729">
			<ele>51.2999992370605</ele>
			<time>2014-04-13T12:06:13Z</time>
		</trkpt>
		<trkpt lat="53.9096755981445" lon="13.3046760559082">
			<ele>51.0999984741211</ele>
			<time>2014-04-13T12:06:14Z</time>
		</trkpt>
		<trkpt lat="53.9096412658691" lon="13.3047389984131">
			<ele>50.7000007629395</ele>
			<time>2014-04-13T12:06:15Z</time>
		</trkpt>
		<trkpt lat="53.9096069335938" lon="13.3048028945923">
			<ele>50.5</ele>
			<time>2014-04-13T12:06:16Z</time>
		</trkpt>
		<trkpt lat="53.9095840454102" lon="13.304877281189">
			<ele>50.4000015258789</ele>
			<time>2014-04-13T12:06:17Z</time>
		</trkpt>
		<trkpt lat="53.9095726013184" lon="13.3049631118774">
			<ele>50.7999992370605</ele>
			<time>2014-04-13T12:06:18Z</time>
		</trkpt>
		<trkpt lat="53.9095611572266" lon="13.3050537109375">
			<ele>50.5999984741211</ele>
			<time>2014-04-13T12:06:20Z</time>
		</trkpt>
		<trkpt lat="53.9095458984375" lon="13.3052387237549">
			<ele>50.2999992370605</ele>
			<time>2014-04-13T12:06:21Z</time>
		</trkpt>
		<trkpt lat="53.909538269043" lon="13.3053417205811">
			<ele>49.7999992370605</ele>
			<time>2014-04-13T12:06:22Z</time>
		</trkpt>
		<trkpt lat="53.9095306396484" lon="13.305438041687">
			<ele>49.9000015258789</ele>
			<time>2014-04-13T12:06:23Z</time>
		</trkpt>
		<trkpt lat="53.9095230102539" lon="13.3055362701416">
			<ele>50.2000007629395</ele>
			<time>2014-04-13T12:06:24Z</time>
		</trkpt>
		<trkpt lat="53.9095191955566" lon="13.3056344985962">
			<ele>50.2000007629395</ele>
			<time>2014-04-13T12:06:25Z</time>
		</trkpt>
		<trkpt lat="53.9095115661621" lon="13.3057308197021">
			<ele>50.2000007629395</ele>
			<time>2014-04-13T12:06:28Z</time>
		</trkpt>
		<trkpt lat="53.909496307373" lon="13.3059196472168">
			<ele>50.2000007629395</ele>
			<time>2014-04-13T12:06:28Z</time>
		</trkpt>
		<trkpt lat="53.9094886779785" lon="13.3060131072998">
			<ele>50</ele>
			<time>2014-04-13T12:06:29Z</time>
		</trkpt>
		<trkpt lat="53.909481048584" lon="13.3061084747314">
			<ele>50.2000007629395</ele>
			<time>2014-04-13T12:06:30Z</time>
		</trkpt>
		<trkpt lat="53.9094734191895" lon="13.3062028884888">
			<ele>50.2000007629395</ele>
			<time>2014-04-13T12:06:31Z</time>
		</trkpt>
		<trkpt lat="53.9094657897949" lon="13.3062934875488">
			<ele>50.2999992370605</ele>
			<time>2014-04-13T12:06:32Z</time>
		</trkpt>
		<trkpt lat="53.9094543457031" lon="13.3063879013062">
			<ele>50.5999984741211</ele>
			<time>2014-04-13T12:06:33Z</time>
		</trkpt>
		<trkpt lat="53.9094467163086" lon="13.3064737319946">
			<ele>50.7999992370605</ele>
			<time>2014-04-13T12:06:34Z</time>
		</trkpt>
		<trkpt lat="53.9094352722168" lon="13.306565284729">
			<ele>50.5</ele>
			<time>2014-04-13T12:06:35Z</time>
		</trkpt>
		<trkpt lat="53.9094314575195" lon="13.3066549301147">
			<ele>50.5</ele>
			<time>2014-04-13T12:06:36Z</time>
		</trkpt>
		<trkpt lat="53.909423828125" lon="13.3067493438721">
			<ele>50.7000007629395</ele>
			<time>2014-04-13T12:06:37Z</time>
		</trkpt>
		<trkpt lat="53.9094161987305" lon="13.3068437576294">
			<ele>50.2999992370605</ele>
			<time>2014-04-13T12:06:38Z</time>
		</trkpt>
		<trkpt lat="53.9094085693359" lon="13.3069353103638">
			<ele>50.2999992370605</ele>
			<time>2014-04-13T12:06:39Z</time>
		</trkpt>
		<trkpt lat="53.9094085693359" lon="13.3070240020752">
			<ele>50.2999992370605</ele>
			<time>2014-04-13T12:06:40Z</time>
		</trkpt>
		<trkpt lat="53.9094047546387" lon="13.3071165084839">
			<ele>50</ele>
			<time>2014-04-13T12:06:41Z</time>
		</trkpt>
		<trkpt lat="53.9093933105469" lon="13.3072118759155">
			<ele>50.0999984741211</ele>
			<time>2014-04-13T12:06:42Z</time>
		</trkpt>
		<trkpt lat="53.9093856811523" lon="13.3073053359985">
			<ele>49.2000007629395</ele>
			<time>2014-04-13T12:06:43Z</time>
		</trkpt>
		<trkpt lat="53.9093742370605" lon="13.3073978424072">
			<ele>48</ele>
			<time>2014-04-13T12:06:45Z</time>
		</trkpt>
		<trkpt lat="53.9093627929688" lon="13.3075847625732">
			<ele>49.2999992370605</ele>
			<time>2014-04-13T12:06:48Z</time>
		</trkpt>
		<trkpt lat="53.9093704223633" lon="13.3078575134277">
			<ele>49.5999984741211</ele>
			<time>2014-04-13T12:06:49Z</time>
		</trkpt>
		<trkpt lat="53.9093894958496" lon="13.3079557418823">
			<ele>49.2999992370605</ele>
			<time>2014-04-13T12:06:50Z</time>
		</trkpt>
		<trkpt lat="53.9094161987305" lon="13.3080415725708">
			<ele>49.7999992370605</ele>
			<time>2014-04-13T12:06:51Z</time>
		</trkpt>
		<trkpt lat="53.9094314575195" lon="13.308126449585">
			<ele>49.7999992370605</ele>
			<time>2014-04-13T12:06:52Z</time>
		</trkpt>
		<trkpt lat="53.9094581604004" lon="13.3082065582275">
			<ele>50.0999984741211</ele>
			<time>2014-04-13T12:06:53Z</time>
		</trkpt>
		<trkpt lat="53.9094734191895" lon="13.3082971572876">
			<ele>50.2999992370605</ele>
			<time>2014-04-13T12:06:54Z</time>
		</trkpt>
		<trkpt lat="53.9095191955566" lon="13.308385848999">
			<ele>51</ele>
			<time>2014-04-13T12:06:55Z</time>
		</trkpt>
		<trkpt lat="53.9095497131348" lon="13.3084659576416">
			<ele>51.5999984741211</ele>
			<time>2014-04-13T12:06:56Z</time>
		</trkpt>
		<trkpt lat="53.9095878601074" lon="13.3085308074951">
			<ele>51.5999984741211</ele>
			<time>2014-04-13T12:06:57Z</time>
		</trkpt>
		<trkpt lat="53.9096298217773" lon="13.3085823059082">
			<ele>51.7000007629395</ele>
			<time>2014-04-13T12:06:58Z</time>
		</trkpt>
		<trkpt lat="53.9096755981445" lon="13.3086290359497">
			<ele>52.0999984741211</ele>
			<time>2014-04-13T12:06:59Z</time>
		</trkpt>
		<trkpt lat="53.9097213745117" lon="13.308669090271">
			<ele>51.9000015258789</ele>
			<time>2014-04-13T12:07:00Z</time>
		</trkpt>
		<trkpt lat="53.9097595214844" lon="13.3087139129639">
			<ele>51.7000007629395</ele>
			<time>2014-04-13T12:07:01Z</time>
		</trkpt>
		<trkpt lat="53.9098014831543" lon="13.3087606430054">
			<ele>51.7999992370605</ele>
			<time>2014-04-13T12:07:02Z</time>
		</trkpt>
		<trkpt lat="53.9098434448242" lon="13.3088045120239">
			<ele>51.5999984741211</ele>
			<time>2014-04-13T12:07:03Z</time>
		</trkpt>
		<trkpt lat="53.9098815917969" lon="13.3088445663452">
			<ele>51.9000015258789</ele>
			<time>2014-04-13T12:07:04Z</time>
		</trkpt>
		<trkpt lat="53.9099197387695" lon="13.308892250061">
			<ele>51.9000015258789</ele>
			<time>2014-04-13T12:07:05Z</time>
		</trkpt>
		<trkpt lat="53.9099617004395" lon="13.3089361190796">
			<ele>51.9000015258789</ele>
			<time>2014-04-13T12:07:06Z</time>
		</trkpt>
		<trkpt lat="53.9100074768066" lon="13.3089752197266">
			<ele>52.2999992370605</ele>
			<time>2014-04-13T12:07:08Z</time>
		</trkpt>
		<trkpt lat="53.9100914001465" lon="13.3090553283691">
			<ele>52.7999992370605</ele>
			<time>2014-04-13T12:07:09Z</time>
		</trkpt>
		<trkpt lat="53.9101219177246" lon="13.3091144561768">
			<ele>52.7999992370605</ele>
			<time>2014-04-13T12:07:11Z</time>
		</trkpt>
		<trkpt lat="53.9101333618164" lon="13.3092823028564">
			<ele>53.0999984741211</ele>
			<time>2014-04-13T12:07:13Z</time>
		</trkpt>
		<trkpt lat="53.9101104736328" lon="13.3094491958618">
			<ele>53.5</ele>
			<time>2014-04-13T12:07:14Z</time>
		</trkpt>
		<trkpt lat="53.910099029541" lon="13.3095350265503">
			<ele>53.5</ele>
			<time>2014-04-13T12:07:15Z</time>
		</trkpt>
		<trkpt lat="53.9100914001465" lon="13.3096208572388">
			<ele>53.2000007629395</ele>
			<time>2014-04-13T12:07:17Z</time>
		</trkpt>
		<trkpt lat="53.9100761413574" lon="13.3098001480103">
			<ele>52.2000007629395</ele>
			<time>2014-04-13T12:07:18Z</time>
		</trkpt>
		<trkpt lat="53.9100723266602" lon="13.309886932373">
			<ele>52.5</ele>
			<time>2014-04-13T12:07:19Z</time>
		</trkpt>
		<trkpt lat="53.9100646972656" lon="13.3099746704102">
			<ele>52.4000015258789</ele>
			<time>2014-04-13T12:07:20Z</time>
		</trkpt>
		<trkpt lat="53.9100532531738" lon="13.31005859375">
			<ele>52.5999984741211</ele>
			<time>2014-04-13T12:07:21Z</time>
		</trkpt>
		<trkpt lat="53.9100379943848" lon="13.3101434707642">
			<ele>52.4000015258789</ele>
			<time>2014-04-13T12:07:22Z</time>
		</trkpt>
		<trkpt lat="53.9100151062012" lon="13.3102197647095">
			<ele>52.2999992370605</ele>
			<time>2014-04-13T12:07:23Z</time>
		</trkpt>
		<trkpt lat="53.909984588623" lon="13.3102798461914">
			<ele>52.2000007629395</ele>
			<time>2014-04-13T12:07:24Z</time>
		</trkpt>
		<trkpt lat="53.9099159240723" lon="13.3103313446045">
			<ele>51.5</ele>
			<time>2014-04-13T12:07:26Z</time>
		</trkpt>
		<trkpt lat="53.9098472595215" lon="13.3103036880493">
			<ele>51.5999984741211</ele>
			<time>2014-04-13T12:07:28Z</time>
		</trkpt>
		<trkpt lat="53.909797668457" lon="13.3102102279663">
			<ele>51.5</ele>
			<time>2014-04-13T12:07:31Z</time>
		</trkpt>
		<trkpt lat="53.9097442626953" lon="13.3101329803467">
			<ele>51.4000015258789</ele>
			<time>2014-04-13T12:07:32Z</time>
		</trkpt>
		<trkpt lat="53.9096946716309" lon="13.3100395202637">
			<ele>51.9000015258789</ele>
			<time>2014-04-13T12:07:34Z</time>
		</trkpt>
		<trkpt lat="53.9096374511719" lon="13.3099422454834">
			<ele>51.9000015258789</ele>
			<time>2014-04-13T12:07:36Z</time>
		</trkpt>
		<trkpt lat="53.9095840454102" lon="13.3098487854004">
			<ele>51.5999984741211</ele>
			<time>2014-04-13T12:07:38Z</time>
		</trkpt>
		<trkpt lat="53.9095230102539" lon="13.3097591400146">
			<ele>51.4000015258789</ele>
			<time>2014-04-13T12:07:40Z</time>
		</trkpt>
		<trkpt lat="53.9094734191895" lon="13.3096590042114">
			<ele>51.0999984741211</ele>
			<time>2014-04-13T12:07:42Z</time>
		</trkpt>
		<trkpt lat="53.9094161987305" lon="13.3095636367798">
			<ele>51.7999992370605</ele>
			<time>2014-04-13T12:07:44Z</time>
		</trkpt>
		<trkpt lat="53.9093818664551" lon="13.3095083236694">
			<ele>52</ele>
			<time>2014-04-13T12:07:45Z</time>
		</trkpt>
		<trkpt lat="53.9093284606934" lon="13.3094120025635">
			<ele>51.5999984741211</ele>
			<time>2014-04-13T12:07:47Z</time>
		</trkpt>
		<trkpt lat="53.9092597961426" lon="13.309308052063">
			<ele>51.2000007629395</ele>
			<time>2014-04-13T12:07:49Z</time>
		</trkpt>
		<trkpt lat="53.9091873168945" lon="13.3092174530029">
			<ele>48.4000015258789</ele>
			<time>2014-04-13T12:07:51Z</time>
		</trkpt>
		<trkpt lat="53.9091529846191" lon="13.3091678619385">
			<ele>48.2000007629395</ele>
			<time>2014-04-13T12:07:52Z</time>
		</trkpt>
		<trkpt lat="53.9090843200684" lon="13.3090667724609">
			<ele>49.5999984741211</ele>
			<time>2014-04-13T12:07:54Z</time>
		</trkpt>
		<trkpt lat="53.9090232849121" lon="13.3089656829834">
			<ele>49.4000015258789</ele>
			<time>2014-04-13T12:07:56Z</time>
		</trkpt>
		<trkpt lat="53.9089546203613" lon="13.30885887146">
			<ele>48.5999984741211</ele>
			<time>2014-04-13T12:07:58Z</time>
		</trkpt>
		<trkpt lat="53.9089202880859" lon="13.3088035583496">
			<ele>48.0999984741211</ele>
			<time>2014-04-13T12:07:59Z</time>
		</trkpt>
		<trkpt lat="53.9088592529297" lon="13.3087205886841">
			<ele>48.4000015258789</ele>
			<time>2014-04-13T12:08:01Z</time>
		</trkpt>
		<trkpt lat="53.9088020324707" lon="13.3086442947388">
			<ele>48.5</ele>
			<time>2014-04-13T12:08:03Z</time>
		</trkpt>
		<trkpt lat="53.9087448120117" lon="13.3085565567017">
			<ele>49</ele>
			<time>2014-04-13T12:08:05Z</time>
		</trkpt>
		<trkpt lat="53.9086952209473" lon="13.3084650039673">
			<ele>49.0999984741211</ele>
			<time>2014-04-13T12:08:07Z</time>
		</trkpt>
		<trkpt lat="53.9086380004883" lon="13.3083896636963">
			<ele>48.9000015258789</ele>
			<time>2014-04-13T12:08:09Z</time>
		</trkpt>
		<trkpt lat="53.9085884094238" lon="13.308313369751">
			<ele>49.4000015258789</ele>
			<time>2014-04-13T12:08:11Z</time>
		</trkpt>
		<trkpt lat="53.9085235595703" lon="13.3082246780396">
			<ele>49.0999984741211</ele>
			<time>2014-04-13T12:08:13Z</time>
		</trkpt>
		<trkpt lat="53.9084777832031" lon="13.3081827163696">
			<ele>49.7999992370605</ele>
			<time>2014-04-13T12:08:14Z</time>
		</trkpt>
		<trkpt lat="53.9084014892578" lon="13.3081130981445">
			<ele>49.7000007629395</ele>
			<time>2014-04-13T12:08:16Z</time>
		</trkpt>
		<trkpt lat="53.9083251953125" lon="13.3080463409424">
			<ele>49.2999992370605</ele>
			<time>2014-04-13T12:08:18Z</time>
		</trkpt>
		<trkpt lat="53.9082489013672" lon="13.3079833984375">
			<ele>48.7999992370605</ele>
			<time>2014-04-13T12:08:20Z</time>
		</trkpt>
		<trkpt lat="53.908203125" lon="13.3079471588135">
			<ele>48.5</ele>
			<time>2014-04-13T12:08:21Z</time>
		</trkpt>
		<trkpt lat="53.908130645752" lon="13.3078861236572">
			<ele>48</ele>
			<time>2014-04-13T12:08:23Z</time>
		</trkpt>
		<trkpt lat="53.9080924987793" lon="13.3078575134277">
			<ele>47.9000015258789</ele>
			<time>2014-04-13T12:08:24Z</time>
		</trkpt>
		<trkpt lat="53.908016204834" lon="13.3078012466431">
			<ele>47.2999992370605</ele>
			<time>2014-04-13T12:08:26Z</time>
		</trkpt>
		<trkpt lat="53.9079360961914" lon="13.3077402114868">
			<ele>47.0999984741211</ele>
			<time>2014-04-13T12:08:28Z</time>
		</trkpt>
		<trkpt lat="53.9078636169434" lon="13.3076887130737">
			<ele>47.2999992370605</ele>
			<time>2014-04-13T12:08:30Z</time>
		</trkpt>
		<trkpt lat="53.9077835083008" lon="13.3076267242432">
			<ele>47.5999984741211</ele>
			<time>2014-04-13T12:08:32Z</time>
		</trkpt>
		<trkpt lat="53.9077377319336" lon="13.3075923919678">
			<ele>47.7999992370605</ele>
			<time>2014-04-13T12:08:33Z</time>
		</trkpt>
		<trkpt lat="53.9076957702637" lon="13.3075618743896">
			<ele>47.4000015258789</ele>
			<time>2014-04-13T12:08:34Z</time>
		</trkpt>
		<trkpt lat="53.9076499938965" lon="13.3075351715088">
			<ele>47.5</ele>
			<time>2014-04-13T12:08:35Z</time>
		</trkpt>
		<trkpt lat="53.9075698852539" lon="13.3074760437012">
			<ele>47</ele>
			<time>2014-04-13T12:08:37Z</time>
		</trkpt>
		<trkpt lat="53.9074935913086" lon="13.3074083328247">
			<ele>46.9000015258789</ele>
			<time>2014-04-13T12:08:39Z</time>
		</trkpt>
		<trkpt lat="53.9074516296387" lon="13.3073740005493">
			<ele>46.7999992370605</ele>
			<time>2014-04-13T12:08:40Z</time>
		</trkpt>
		<trkpt lat="53.9074020385742" lon="13.3073387145996">
			<ele>46.2999992370605</ele>
			<time>2014-04-13T12:08:41Z</time>
		</trkpt>
		<trkpt lat="53.9073600769043" lon="13.307297706604">
			<ele>45.7999992370605</ele>
			<time>2014-04-13T12:08:42Z</time>
		</trkpt>
		<trkpt lat="53.9073143005371" lon="13.3072547912598">
			<ele>45.7999992370605</ele>
			<time>2014-04-13T12:08:43Z</time>
		</trkpt>
		<trkpt lat="53.9072303771973" lon="13.3071899414063">
			<ele>45.4000015258789</ele>
			<time>2014-04-13T12:08:45Z</time>
		</trkpt>
		<trkpt lat="53.9071846008301" lon="13.3071584701538">
			<ele>45.0999984741211</ele>
			<time>2014-04-13T12:08:46Z</time>
		</trkpt>
		<trkpt lat="53.9071350097656" lon="13.3071231842041">
			<ele>45</ele>
			<time>2014-04-13T12:08:47Z</time>
		</trkpt>
		<trkpt lat="53.9070892333984" lon="13.3070955276489">
			<ele>45</ele>
			<time>2014-04-13T12:08:48Z</time>
		</trkpt>
		<trkpt lat="53.9070358276367" lon="13.3070659637451">
			<ele>45.0999984741211</ele>
			<time>2014-04-13T12:08:49Z</time>
		</trkpt>
		<trkpt lat="53.9069900512695" lon="13.307032585144">
			<ele>45</ele>
			<time>2014-04-13T12:08:50Z</time>
		</trkpt>
		<trkpt lat="53.9069404602051" lon="13.3069839477539">
			<ele>45.0999984741211</ele>
			<time>2014-04-13T12:08:51Z</time>
		</trkpt>
		<trkpt lat="53.9068984985352" lon="13.3069438934326">
			<ele>44.9000015258789</ele>
			<time>2014-04-13T12:08:52Z</time>
		</trkpt>
		<trkpt lat="53.9068450927734" lon="13.3069076538086">
			<ele>44.5</ele>
			<time>2014-04-13T12:08:53Z</time>
		</trkpt>
		<trkpt lat="53.9067993164063" lon="13.3068790435791">
			<ele>44.7000007629395</ele>
			<time>2014-04-13T12:08:54Z</time>
		</trkpt>
		<trkpt lat="53.9067535400391" lon="13.3068399429321">
			<ele>44.5</ele>
			<time>2014-04-13T12:08:55Z</time>
		</trkpt>
		<trkpt lat="53.9067115783691" lon="13.3068103790283">
			<ele>44.7000007629395</ele>
			<time>2014-04-13T12:08:56Z</time>
		</trkpt>
		<trkpt lat="53.9066619873047" lon="13.3067741394043">
			<ele>45</ele>
			<time>2014-04-13T12:08:57Z</time>
		</trkpt>
		<trkpt lat="53.9066123962402" lon="13.3067455291748">
			<ele>44.7999992370605</ele>
			<time>2014-04-13T12:08:58Z</time>
		</trkpt>
		<trkpt lat="53.9065628051758" lon="13.3066987991333">
			<ele>44.7999992370605</ele>
			<time>2014-04-13T12:08:59Z</time>
		</trkpt>
		<trkpt lat="53.9065132141113" lon="13.3066596984863">
			<ele>44.7000007629395</ele>
			<time>2014-04-13T12:09:00Z</time>
		</trkpt>
		<trkpt lat="53.9064674377441" lon="13.3066329956055">
			<ele>44.5999984741211</ele>
			<time>2014-04-13T12:09:01Z</time>
		</trkpt>
		<trkpt lat="53.9064102172852" lon="13.3065948486328">
			<ele>44.7999992370605</ele>
			<time>2014-04-13T12:09:02Z</time>
		</trkpt>
		<trkpt lat="53.9063529968262" lon="13.3065538406372">
			<ele>44.5</ele>
			<time>2014-04-13T12:09:03Z</time>
		</trkpt>
		<trkpt lat="53.9062995910645" lon="13.3065223693848">
			<ele>44.2000007629395</ele>
			<time>2014-04-13T12:09:04Z</time>
		</trkpt>
		<trkpt lat="53.9062423706055" lon="13.3064756393433">
			<ele>43.9000015258789</ele>
			<time>2014-04-13T12:09:05Z</time>
		</trkpt>
		<trkpt lat="53.9061965942383" lon="13.3064298629761">
			<ele>43.5</ele>
			<time>2014-04-13T12:09:06Z</time>
		</trkpt>
		<trkpt lat="53.9061431884766" lon="13.3063716888428">
			<ele>43</ele>
			<time>2014-04-13T12:09:07Z</time>
		</trkpt>
		<trkpt lat="53.9060897827148" lon="13.3063230514526">
			<ele>42.2000007629395</ele>
			<time>2014-04-13T12:09:08Z</time>
		</trkpt>
		<trkpt lat="53.9060363769531" lon="13.3062877655029">
			<ele>42.5999984741211</ele>
			<time>2014-04-13T12:09:09Z</time>
		</trkpt>
		<trkpt lat="53.9059829711914" lon="13.3062562942505">
			<ele>41.4000015258789</ele>
			<time>2014-04-13T12:09:10Z</time>
		</trkpt>
		<trkpt lat="53.905933380127" lon="13.306209564209">
			<ele>40.7999992370605</ele>
			<time>2014-04-13T12:09:11Z</time>
		</trkpt>
		<trkpt lat="53.9058837890625" lon="13.3061800003052">
			<ele>40.9000015258789</ele>
			<time>2014-04-13T12:09:12Z</time>
		</trkpt>
		<trkpt lat="53.9058265686035" lon="13.306131362915">
			<ele>40.7999992370605</ele>
			<time>2014-04-13T12:09:13Z</time>
		</trkpt>
		<trkpt lat="53.9057731628418" lon="13.306095123291">
			<ele>40.5</ele>
			<time>2014-04-13T12:09:14Z</time>
		</trkpt>
		<trkpt lat="53.9057159423828" lon="13.3060607910156">
			<ele>40.2999992370605</ele>
			<time>2014-04-13T12:09:15Z</time>
		</trkpt>
		<trkpt lat="53.9056701660156" lon="13.3060302734375">
			<ele>40.2000007629395</ele>
			<time>2014-04-13T12:09:16Z</time>
		</trkpt>
		<trkpt lat="53.9056282043457" lon="13.3059949874878">
			<ele>40.0999984741211</ele>
			<time>2014-04-13T12:09:17Z</time>
		</trkpt>
		<trkpt lat="53.9055824279785" lon="13.3059635162354">
			<ele>40.5999984741211</ele>
			<time>2014-04-13T12:09:18Z</time>
		</trkpt>
		<trkpt lat="53.9055442810059" lon="13.3059253692627">
			<ele>40.5999984741211</ele>
			<time>2014-04-13T12:09:19Z</time>
		</trkpt>
		<trkpt lat="53.9055023193359" lon="13.3058948516846">
			<ele>40.7000007629395</ele>
			<time>2014-04-13T12:09:20Z</time>
		</trkpt>
		<trkpt lat="53.9054222106934" lon="13.3058366775513">
			<ele>40.2000007629395</ele>
			<time>2014-04-13T12:09:22Z</time>
		</trkpt>
		<trkpt lat="53.9053764343262" lon="13.3058099746704">
			<ele>40.2000007629395</ele>
			<time>2014-04-13T12:09:23Z</time>
		</trkpt>
		<trkpt lat="53.905330657959" lon="13.3057727813721">
			<ele>40.2000007629395</ele>
			<time>2014-04-13T12:09:24Z</time>
		</trkpt>
		<trkpt lat="53.9052810668945" lon="13.3057374954224">
			<ele>40.0999984741211</ele>
			<time>2014-04-13T12:09:25Z</time>
		</trkpt>
		<trkpt lat="53.9052352905273" lon="13.3056993484497">
			<ele>39.7000007629395</ele>
			<time>2014-04-13T12:09:26Z</time>
		</trkpt>
		<trkpt lat="53.9051895141602" lon="13.3056621551514">
			<ele>39.9000015258789</ele>
			<time>2014-04-13T12:09:27Z</time>
		</trkpt>
		<trkpt lat="53.9051361083984" lon="13.3056221008301">
			<ele>40.2000007629395</ele>
			<time>2014-04-13T12:09:28Z</time>
		</trkpt>
		<trkpt lat="53.9050903320313" lon="13.3055925369263">
			<ele>40.0999984741211</ele>
			<time>2014-04-13T12:09:29Z</time>
		</trkpt>
		<trkpt lat="53.9050483703613" lon="13.3055601119995">
			<ele>39.7000007629395</ele>
			<time>2014-04-13T12:09:30Z</time>
		</trkpt>
		<trkpt lat="53.9050025939941" lon="13.3055181503296">
			<ele>39.7999992370605</ele>
			<time>2014-04-13T12:09:31Z</time>
		</trkpt>
		<trkpt lat="53.9049606323242" lon="13.3054752349854">
			<ele>39.4000015258789</ele>
			<time>2014-04-13T12:09:32Z</time>
		</trkpt>
		<trkpt lat="53.9049186706543" lon="13.3054437637329">
			<ele>39.0999984741211</ele>
			<time>2014-04-13T12:09:33Z</time>
		</trkpt>
		<trkpt lat="53.9048728942871" lon="13.3054075241089">
			<ele>38.4000015258789</ele>
			<time>2014-04-13T12:09:34Z</time>
		</trkpt>
		<trkpt lat="53.9048271179199" lon="13.3053665161133">
			<ele>38.7999992370605</ele>
			<time>2014-04-13T12:09:35Z</time>
		</trkpt>
		<trkpt lat="53.9047546386719" lon="13.3053121566772">
			<ele>37.9000015258789</ele>
			<time>2014-04-13T12:09:37Z</time>
		</trkpt>
		<trkpt lat="53.904670715332" lon="13.3052654266357">
			<ele>37.5999984741211</ele>
			<time>2014-04-13T12:09:39Z</time>
		</trkpt>
		<trkpt lat="53.904598236084" lon="13.3052215576172">
			<ele>37.9000015258789</ele>
			<time>2014-04-13T12:09:41Z</time>
		</trkpt>
		<trkpt lat="53.9045181274414" lon="13.3051786422729">
			<ele>38.4000015258789</ele>
			<time>2014-04-13T12:09:43Z</time>
		</trkpt>
		<trkpt lat="53.9044380187988" lon="13.3051319122314">
			<ele>38.7999992370605</ele>
			<time>2014-04-13T12:09:45Z</time>
		</trkpt>
		<trkpt lat="53.9043579101563" lon="13.3050861358643">
			<ele>38.5999984741211</ele>
			<time>2014-04-13T12:09:47Z</time>
		</trkpt>
		<trkpt lat="53.9042892456055" lon="13.3050394058228">
			<ele>38.7000007629395</ele>
			<time>2014-04-13T12:09:49Z</time>
		</trkpt>
		<trkpt lat="53.9042129516602" lon="13.3049945831299">
			<ele>39.2999992370605</ele>
			<time>2014-04-13T12:09:51Z</time>
		</trkpt>
		<trkpt lat="53.9041481018066" lon="13.3049516677856">
			<ele>39.7999992370605</ele>
			<time>2014-04-13T12:09:53Z</time>
		</trkpt>
		<trkpt lat="53.9040718078613" lon="13.3049058914185">
			<ele>40.0999984741211</ele>
			<time>2014-04-13T12:09:55Z</time>
		</trkpt>
		<trkpt lat="53.903995513916" lon="13.3048639297485">
			<ele>40.7000007629395</ele>
			<time>2014-04-13T12:09:57Z</time>
		</trkpt>
		<trkpt lat="53.903923034668" lon="13.304817199707">
			<ele>41</ele>
			<time>2014-04-13T12:09:59Z</time>
		</trkpt>
		<trkpt lat="53.9038619995117" lon="13.3047609329224">
			<ele>41</ele>
			<time>2014-04-13T12:10:01Z</time>
		</trkpt>
		<trkpt lat="53.9038009643555" lon="13.3046979904175">
			<ele>40.2999992370605</ele>
			<time>2014-04-13T12:10:03Z</time>
		</trkpt>
		<trkpt lat="53.9037399291992" lon="13.3046531677246">
			<ele>40.0999984741211</ele>
			<time>2014-04-13T12:10:05Z</time>
		</trkpt>
		<trkpt lat="53.9036674499512" lon="13.3046226501465">
			<ele>42.2000007629395</ele>
			<time>2014-04-13T12:10:07Z</time>
		</trkpt>
		<trkpt lat="53.9035911560059" lon="13.3045978546143">
			<ele>42.0999984741211</ele>
			<time>2014-04-13T12:10:09Z</time>
		</trkpt>
		<trkpt lat="53.9035263061523" lon="13.3045568466187">
			<ele>41.2999992370605</ele>
			<time>2014-04-13T12:10:11Z</time>
		</trkpt>
		<trkpt lat="53.9034614562988" lon="13.3045272827148">
			<ele>41.2000007629395</ele>
			<time>2014-04-13T12:10:13Z</time>
		</trkpt>
		<trkpt lat="53.9033851623535" lon="13.3045043945313">
			<ele>40.9000015258789</ele>
			<time>2014-04-13T12:10:15Z</time>
		</trkpt>
		<trkpt lat="53.9033164978027" lon="13.3044853210449">
			<ele>41.5999984741211</ele>
			<time>2014-04-13T12:10:17Z</time>
		</trkpt>
		<trkpt lat="53.9032554626465" lon="13.304479598999">
			<ele>41.2999992370605</ele>
			<time>2014-04-13T12:10:19Z</time>
		</trkpt>
		<trkpt lat="53.903190612793" lon="13.30446434021">
			<ele>41.2000007629395</ele>
			<time>2014-04-13T12:10:21Z</time>
		</trkpt>
		<trkpt lat="53.9031257629395" lon="13.3044366836548">
			<ele>43</ele>
			<time>2014-04-13T12:10:23Z</time>
		</trkpt>
		<trkpt lat="53.9030685424805" lon="13.3044538497925">
			<ele>44.2999992370605</ele>
			<time>2014-04-13T12:10:25Z</time>
		</trkpt>
		<trkpt lat="53.903003692627" lon="13.3044557571411">
			<ele>44.9000015258789</ele>
			<time>2014-04-13T12:10:27Z</time>
		</trkpt>
		<trkpt lat="53.9029312133789" lon="13.3044357299805">
			<ele>43.5999984741211</ele>
			<time>2014-04-13T12:10:29Z</time>
		</trkpt>
		<trkpt lat="53.9028587341309" lon="13.304407119751">
			<ele>43.5999984741211</ele>
			<time>2014-04-13T12:10:31Z</time>
		</trkpt>
		<trkpt lat="53.9027786254883" lon="13.304386138916">
			<ele>43.5</ele>
			<time>2014-04-13T12:10:33Z</time>
		</trkpt>
		<trkpt lat="53.9027099609375" lon="13.3043689727783">
			<ele>43.7000007629395</ele>
			<time>2014-04-13T12:10:35Z</time>
		</trkpt>
		<trkpt lat="53.9026336669922" lon="13.3043527603149">
			<ele>43.5</ele>
			<time>2014-04-13T12:10:37Z</time>
		</trkpt>
		<trkpt lat="53.9025611877441" lon="13.3043308258057">
			<ele>43.2000007629395</ele>
			<time>2014-04-13T12:10:39Z</time>
		</trkpt>
		<trkpt lat="53.9024848937988" lon="13.3043079376221">
			<ele>43.9000015258789</ele>
			<time>2014-04-13T12:10:41Z</time>
		</trkpt>
		<trkpt lat="53.902416229248" lon="13.3042898178101">
			<ele>43.7999992370605</ele>
			<time>2014-04-13T12:10:43Z</time>
		</trkpt>
		<trkpt lat="53.9023475646973" lon="13.3042736053467">
			<ele>43.7000007629395</ele>
			<time>2014-04-13T12:10:45Z</time>
		</trkpt>
		<trkpt lat="53.9022789001465" lon="13.3042507171631">
			<ele>43.7999992370605</ele>
			<time>2014-04-13T12:10:47Z</time>
		</trkpt>
		<trkpt lat="53.9022064208984" lon="13.304235458374">
			<ele>43.5999984741211</ele>
			<time>2014-04-13T12:10:49Z</time>
		</trkpt>
		<trkpt lat="53.9021339416504" lon="13.304217338562">
			<ele>44.0999984741211</ele>
			<time>2014-04-13T12:10:51Z</time>
		</trkpt>
		<trkpt lat="53.9020614624023" lon="13.3041944503784">
			<ele>44.7999992370605</ele>
			<time>2014-04-13T12:10:53Z</time>
		</trkpt>
		<trkpt lat="53.9019927978516" lon="13.3041772842407">
			<ele>45.5</ele>
			<time>2014-04-13T12:10:55Z</time>
		</trkpt>
		<trkpt lat="53.9019355773926" lon="13.3041648864746">
			<ele>45.5</ele>
			<time>2014-04-13T12:10:57Z</time>
		</trkpt>
		<trkpt lat="53.9018898010254" lon="13.3041677474976">
			<ele>45.0999984741211</ele>
			<time>2014-04-13T12:10:59Z</time>
		</trkpt>
		<trkpt lat="53.9018363952637" lon="13.3041505813599">
			<ele>50.7000007629395</ele>
			<time>2014-04-13T12:12:35Z</time>
		</trkpt>
		<trkpt lat="53.9017868041992" lon="13.3041334152222">
			<ele>48.5999984741211</ele>
			<time>2014-04-13T12:12:37Z</time>
		</trkpt>
		<trkpt lat="53.9017372131348" lon="13.3041257858276">
			<ele>49.0999984741211</ele>
			<time>2014-04-13T12:12:39Z</time>
		</trkpt>
		<trkpt lat="53.901668548584" lon="13.3041095733643">
			<ele>48.9000015258789</ele>
			<time>2014-04-13T12:12:41Z</time>
		</trkpt>
		<trkpt lat="53.9015998840332" lon="13.3040943145752">
			<ele>48.2999992370605</ele>
			<time>2014-04-13T12:12:43Z</time>
		</trkpt>
		<trkpt lat="53.9015274047852" lon="13.3040771484375">
			<ele>47.9000015258789</ele>
			<time>2014-04-13T12:12:45Z</time>
		</trkpt>
		<trkpt lat="53.9014587402344" lon="13.3040609359741">
			<ele>47.2999992370605</ele>
			<time>2014-04-13T12:12:47Z</time>
		</trkpt>
		<trkpt lat="53.9013862609863" lon="13.3040466308594">
			<ele>47.4000015258789</ele>
			<time>2014-04-13T12:12:49Z</time>
		</trkpt>
		<trkpt lat="53.9013175964355" lon="13.304030418396">
			<ele>47.5999984741211</ele>
			<time>2014-04-13T12:12:51Z</time>
		</trkpt>
		<trkpt lat="53.9012565612793" lon="13.304012298584">
			<ele>47</ele>
			<time>2014-04-13T12:12:53Z</time>
		</trkpt>
		<trkpt lat="53.9011993408203" lon="13.3040008544922">
			<ele>46.4000015258789</ele>
			<time>2014-04-13T12:12:55Z</time>
		</trkpt>
		<trkpt lat="53.9011306762695" lon="13.3039951324463">
			<ele>47</ele>
			<time>2014-04-13T12:12:57Z</time>
		</trkpt>
		<trkpt lat="53.9010620117188" lon="13.3039779663086">
			<ele>47.5</ele>
			<time>2014-04-13T12:12:59Z</time>
		</trkpt>
		<trkpt lat="53.9010009765625" lon="13.3039522171021">
			<ele>48.0999984741211</ele>
			<time>2014-04-13T12:13:01Z</time>
		</trkpt>
		<trkpt lat="53.9009399414063" lon="13.3039312362671">
			<ele>47</ele>
			<time>2014-04-13T12:13:03Z</time>
		</trkpt>
		<trkpt lat="53.9008712768555" lon="13.3039121627808">
			<ele>46.9000015258789</ele>
			<time>2014-04-13T12:13:05Z</time>
		</trkpt>
		<trkpt lat="53.9007987976074" lon="13.3039016723633">
			<ele>47.7000007629395</ele>
			<time>2014-04-13T12:13:07Z</time>
		</trkpt>
		<trkpt lat="53.9007453918457" lon="13.3038663864136">
			<ele>47</ele>
			<time>2014-04-13T12:13:09Z</time>
		</trkpt>
		<trkpt lat="53.9006996154785" lon="13.3039503097534">
			<ele>47.5</ele>
			<time>2014-04-13T12:13:12Z</time>
		</trkpt>
		<trkpt lat="53.9006271362305" lon="13.3039627075195">
			<ele>46.7999992370605</ele>
			<time>2014-04-13T12:13:15Z</time>
		</trkpt>
		<trkpt lat="53.9005737304688" lon="13.3039484024048">
			<ele>47.0999984741211</ele>
			<time>2014-04-13T12:13:17Z</time>
		</trkpt>
		<trkpt lat="53.900505065918" lon="13.3039302825928">
			<ele>46.2000007629395</ele>
			<time>2014-04-13T12:13:19Z</time>
		</trkpt>
		<trkpt lat="53.9004364013672" lon="13.3039150238037">
			<ele>46.0999984741211</ele>
			<time>2014-04-13T12:13:21Z</time>
		</trkpt>
		<trkpt lat="53.9003753662109" lon="13.3038873672485">
			<ele>45.9000015258789</ele>
			<time>2014-04-13T12:13:23Z</time>
		</trkpt>
		<trkpt lat="53.9003143310547" lon="13.3038682937622">
			<ele>45.4000015258789</ele>
			<time>2014-04-13T12:13:25Z</time>
		</trkpt>
		<trkpt lat="53.9002494812012" lon="13.3038549423218">
			<ele>46</ele>
			<time>2014-04-13T12:13:27Z</time>
		</trkpt>
		<trkpt lat="53.9001731872559" lon="13.303858757019">
			<ele>45.7000007629395</ele>
			<time>2014-04-13T12:13:29Z</time>
		</trkpt>
		<trkpt lat="53.9001007080078" lon="13.3038396835327">
			<ele>45.9000015258789</ele>
			<time>2014-04-13T12:13:31Z</time>
		</trkpt>
		<trkpt lat="53.9000358581543" lon="13.3038349151611">
			<ele>46.5</ele>
			<time>2014-04-13T12:13:33Z</time>
		</trkpt>
		<trkpt lat="53.8999786376953" lon="13.3038320541382">
			<ele>47.7000007629395</ele>
			<time>2014-04-13T12:13:35Z</time>
		</trkpt>
		<trkpt lat="53.8999061584473" lon="13.3038396835327">
			<ele>50.0999984741211</ele>
			<time>2014-04-13T12:13:37Z</time>
		</trkpt>
		<trkpt lat="53.8998374938965" lon="13.3038263320923">
			<ele>51.5</ele>
			<time>2014-04-13T12:13:39Z</time>
		</trkpt>
		<trkpt lat="53.8997650146484" lon="13.3038301467896">
			<ele>50.5</ele>
			<time>2014-04-13T12:13:41Z</time>
		</trkpt>
		<trkpt lat="53.8996849060059" lon="13.3038425445557">
			<ele>49.2999992370605</ele>
			<time>2014-04-13T12:13:43Z</time>
		</trkpt>
		<trkpt lat="53.8996162414551" lon="13.3038482666016">
			<ele>49.7999992370605</ele>
			<time>2014-04-13T12:13:45Z</time>
		</trkpt>
		<trkpt lat="53.8995513916016" lon="13.3038530349731">
			<ele>50.5</ele>
			<time>2014-04-13T12:13:47Z</time>
		</trkpt>
		<trkpt lat="53.8994979858398" lon="13.3038625717163">
			<ele>51.7000007629395</ele>
			<time>2014-04-13T12:13:49Z</time>
		</trkpt>
		<trkpt lat="53.8994522094727" lon="13.3038682937622">
			<ele>50.2999992370605</ele>
			<time>2014-04-13T12:13:50Z</time>
		</trkpt>
		<trkpt lat="53.8993873596191" lon="13.303882598877">
			<ele>50.7999992370605</ele>
			<time>2014-04-13T12:13:52Z</time>
		</trkpt>
		<trkpt lat="53.8993263244629" lon="13.3039064407349">
			<ele>51.7000007629395</ele>
			<time>2014-04-13T12:13:54Z</time>
		</trkpt>
		<trkpt lat="53.8992500305176" lon="13.3039121627808">
			<ele>49.9000015258789</ele>
			<time>2014-04-13T12:13:56Z</time>
		</trkpt>
		<trkpt lat="53.8991813659668" lon="13.3039054870605">
			<ele>49.9000015258789</ele>
			<time>2014-04-13T12:13:58Z</time>
		</trkpt>
		<trkpt lat="53.8991012573242" lon="13.3039302825928">
			<ele>51.9000015258789</ele>
			<time>2014-04-13T12:14:00Z</time>
		</trkpt>
		<trkpt lat="53.8990325927734" lon="13.3039512634277">
			<ele>53.5999984741211</ele>
			<time>2014-04-13T12:14:02Z</time>
		</trkpt>
		<trkpt lat="53.8989677429199" lon="13.3039512634277">
			<ele>53.4000015258789</ele>
			<time>2014-04-13T12:14:04Z</time>
		</trkpt>
		<trkpt lat="53.8988990783691" lon="13.303955078125">
			<ele>53.0999984741211</ele>
			<time>2014-04-13T12:14:06Z</time>
		</trkpt>
		<trkpt lat="53.8988342285156" lon="13.3039541244507">
			<ele>54.2000007629395</ele>
			<time>2014-04-13T12:14:08Z</time>
		</trkpt>
		<trkpt lat="53.8987579345703" lon="13.3039608001709">
			<ele>53.5999984741211</ele>
			<time>2014-04-13T12:14:10Z</time>
		</trkpt>
		<trkpt lat="53.8986930847168" lon="13.3039674758911">
			<ele>54.0999984741211</ele>
			<time>2014-04-13T12:14:12Z</time>
		</trkpt>
		<trkpt lat="53.8986206054688" lon="13.3039655685425">
			<ele>55.0999984741211</ele>
			<time>2014-04-13T12:14:14Z</time>
		</trkpt>
		<trkpt lat="53.8985481262207" lon="13.3039722442627">
			<ele>55.4000015258789</ele>
			<time>2014-04-13T12:14:16Z</time>
		</trkpt>
		<trkpt lat="53.8985023498535" lon="13.3039817810059">
			<ele>55.5999984741211</ele>
			<time>2014-04-13T12:14:17Z</time>
		</trkpt>
		<trkpt lat="53.8984222412109" lon="13.303994178772">
			<ele>56.0999984741211</ele>
			<time>2014-04-13T12:14:19Z</time>
		</trkpt>
		<trkpt lat="53.8983535766602" lon="13.3039970397949">
			<ele>56.7999992370605</ele>
			<time>2014-04-13T12:14:21Z</time>
		</trkpt>
		<trkpt lat="53.8982772827148" lon="13.3039922714233">
			<ele>57</ele>
			<time>2014-04-13T12:14:23Z</time>
		</trkpt>
		<trkpt lat="53.8981857299805" lon="13.3039836883545">
			<ele>56.2000007629395</ele>
			<time>2014-04-13T12:14:25Z</time>
		</trkpt>
		<trkpt lat="53.898120880127" lon="13.3039836883545">
			<ele>54.2000007629395</ele>
			<time>2014-04-13T12:14:28Z</time>
		</trkpt>
		<trkpt lat="53.8980712890625" lon="13.3039703369141">
			<ele>53.0999984741211</ele>
			<time>2014-04-13T12:14:30Z</time>
		</trkpt>
		<trkpt lat="53.8979949951172" lon="13.3039789199829">
			<ele>53</ele>
			<time>2014-04-13T12:14:32Z</time>
		</trkpt>
		<trkpt lat="53.8979263305664" lon="13.3039960861206">
			<ele>53.5999984741211</ele>
			<time>2014-04-13T12:14:34Z</time>
		</trkpt>
		<trkpt lat="53.8978385925293" lon="13.3040199279785">
			<ele>53.0999984741211</ele>
			<time>2014-04-13T12:14:36Z</time>
		</trkpt>
		<trkpt lat="53.8977394104004" lon="13.3040208816528">
			<ele>53.5999984741211</ele>
			<time>2014-04-13T12:14:38Z</time>
		</trkpt>
		<trkpt lat="53.8976516723633" lon="13.3040161132813">
			<ele>53.9000015258789</ele>
			<time>2014-04-13T12:14:40Z</time>
		</trkpt>
		<trkpt lat="53.897575378418" lon="13.304051399231">
			<ele>54.2999992370605</ele>
			<time>2014-04-13T12:14:42Z</time>
		</trkpt>
		<trkpt lat="53.8975028991699" lon="13.3040857315063">
			<ele>53.9000015258789</ele>
			<time>2014-04-13T12:14:44Z</time>
		</trkpt>
		<trkpt lat="53.8974533081055" lon="13.3040895462036">
			<ele>55.4000015258789</ele>
			<time>2014-04-13T12:14:46Z</time>
		</trkpt>
		<trkpt lat="53.8973731994629" lon="13.3040819168091">
			<ele>53.5999984741211</ele>
			<time>2014-04-13T12:14:48Z</time>
		</trkpt>
		<trkpt lat="53.8973236083984" lon="13.3040933609009">
			<ele>52.4000015258789</ele>
			<time>2014-04-13T12:14:49Z</time>
		</trkpt>
		<trkpt lat="53.8972473144531" lon="13.3040971755981">
			<ele>55.0999984741211</ele>
			<time>2014-04-13T12:14:51Z</time>
		</trkpt>
		<trkpt lat="53.8971977233887" lon="13.3040971755981">
			<ele>55.5</ele>
			<time>2014-04-13T12:14:52Z</time>
		</trkpt>
		<trkpt lat="53.8971214294434" lon="13.3041009902954">
			<ele>57.2999992370605</ele>
			<time>2014-04-13T12:14:54Z</time>
		</trkpt>
		<trkpt lat="53.8970527648926" lon="13.3041191101074">
			<ele>56.4000015258789</ele>
			<time>2014-04-13T12:14:56Z</time>
		</trkpt>
		<trkpt lat="53.8969841003418" lon="13.3041076660156">
			<ele>56.4000015258789</ele>
			<time>2014-04-13T12:14:58Z</time>
		</trkpt>
		<trkpt lat="53.8969039916992" lon="13.3041067123413">
			<ele>55.2999992370605</ele>
			<time>2014-04-13T12:15:00Z</time>
		</trkpt>
		<trkpt lat="53.8968353271484" lon="13.3041162490845">
			<ele>54.0999984741211</ele>
			<time>2014-04-13T12:15:02Z</time>
		</trkpt>
		<trkpt lat="53.8967628479004" lon="13.3041038513184">
			<ele>54.5999984741211</ele>
			<time>2014-04-13T12:15:04Z</time>
		</trkpt>
		<trkpt lat="53.8966903686523" lon="13.3041133880615">
			<ele>53.5</ele>
			<time>2014-04-13T12:15:06Z</time>
		</trkpt>
		<trkpt lat="53.8966178894043" lon="13.3041038513184">
			<ele>53.5</ele>
			<time>2014-04-13T12:15:08Z</time>
		</trkpt>
		<trkpt lat="53.896541595459" lon="13.3041067123413">
			<ele>52.5</ele>
			<time>2014-04-13T12:15:10Z</time>
		</trkpt>
		<trkpt lat="53.8964653015137" lon="13.3041076660156">
			<ele>51.9000015258789</ele>
			<time>2014-04-13T12:15:12Z</time>
		</trkpt>
		<trkpt lat="53.8963890075684" lon="13.3040962219238">
			<ele>51.9000015258789</ele>
			<time>2014-04-13T12:15:14Z</time>
		</trkpt>
		<trkpt lat="53.896312713623" lon="13.3040828704834">
			<ele>52.2999992370605</ele>
			<time>2014-04-13T12:15:16Z</time>
		</trkpt>
		<trkpt lat="53.896240234375" lon="13.3040723800659">
			<ele>51.2999992370605</ele>
			<time>2014-04-13T12:15:18Z</time>
		</trkpt>
		<trkpt lat="53.8961753845215" lon="13.3040657043457">
			<ele>50.9000015258789</ele>
			<time>2014-04-13T12:15:20Z</time>
		</trkpt>
		<trkpt lat="53.8961029052734" lon="13.3040618896484">
			<ele>50.5</ele>
			<time>2014-04-13T12:15:22Z</time>
		</trkpt>
		<trkpt lat="53.8960304260254" lon="13.3040628433228">
			<ele>49.7999992370605</ele>
			<time>2014-04-13T12:15:24Z</time>
		</trkpt>
		<trkpt lat="53.8959579467773" lon="13.3040599822998">
			<ele>49</ele>
			<time>2014-04-13T12:15:26Z</time>
		</trkpt>
		<trkpt lat="53.8958854675293" lon="13.3040380477905">
			<ele>48.5999984741211</ele>
			<time>2014-04-13T12:15:28Z</time>
		</trkpt>
		<trkpt lat="53.8958206176758" lon="13.3040428161621">
			<ele>48.9000015258789</ele>
			<time>2014-04-13T12:15:30Z</time>
		</trkpt>
		<trkpt lat="53.895751953125" lon="13.3040256500244">
			<ele>48.5999984741211</ele>
			<time>2014-04-13T12:15:32Z</time>
		</trkpt>
		<trkpt lat="53.8957061767578" lon="13.3040218353271">
			<ele>48.7999992370605</ele>
			<time>2014-04-13T12:15:33Z</time>
		</trkpt>
		<trkpt lat="53.8956336975098" lon="13.3040323257446">
			<ele>49.2000007629395</ele>
			<time>2014-04-13T12:15:35Z</time>
		</trkpt>
		<trkpt lat="53.8955879211426" lon="13.3040475845337">
			<ele>48.7000007629395</ele>
			<time>2014-04-13T12:15:36Z</time>
		</trkpt>
		<trkpt lat="53.8955039978027" lon="13.3040390014648">
			<ele>47.4000015258789</ele>
			<time>2014-04-13T12:15:38Z</time>
		</trkpt>
		<trkpt lat="53.8954429626465" lon="13.3040266036987">
			<ele>47.7000007629395</ele>
			<time>2014-04-13T12:15:40Z</time>
		</trkpt>
		<trkpt lat="53.8953628540039" lon="13.3040294647217">
			<ele>49.5999984741211</ele>
			<time>2014-04-13T12:15:42Z</time>
		</trkpt>
		<trkpt lat="53.8953056335449" lon="13.3040199279785">
			<ele>51</ele>
			<time>2014-04-13T12:15:44Z</time>
		</trkpt>
		<trkpt lat="53.8952445983887" lon="13.3040180206299">
			<ele>51.7999992370605</ele>
			<time>2014-04-13T12:15:46Z</time>
		</trkpt>
		<trkpt lat="53.8951835632324" lon="13.3040218353271">
			<ele>52</ele>
			<time>2014-04-13T12:15:48Z</time>
		</trkpt>
		<trkpt lat="53.8951034545898" lon="13.3040046691895">
			<ele>51.0999984741211</ele>
			<time>2014-04-13T12:15:50Z</time>
		</trkpt>
		<trkpt lat="53.89501953125" lon="13.3040075302124">
			<ele>50.4000015258789</ele>
			<time>2014-04-13T12:15:52Z</time>
		</trkpt>
		<trkpt lat="53.8949699401855" lon="13.3040208816528">
			<ele>49.9000015258789</ele>
			<time>2014-04-13T12:15:53Z</time>
		</trkpt>
		<trkpt lat="53.8949165344238" lon="13.3039865493774">
			<ele>47.7000007629395</ele>
			<time>2014-04-13T12:15:55Z</time>
		</trkpt>
		<trkpt lat="53.894832611084" lon="13.3039827346802">
			<ele>49.5</ele>
			<time>2014-04-13T12:15:57Z</time>
		</trkpt>
		<trkpt lat="53.8947715759277" lon="13.3039751052856">
			<ele>50.0999984741211</ele>
			<time>2014-04-13T12:15:59Z</time>
		</trkpt>
		<trkpt lat="53.8947105407715" lon="13.3039464950562">
			<ele>51.2999992370605</ele>
			<time>2014-04-13T12:16:01Z</time>
		</trkpt>
		<trkpt lat="53.8946647644043" lon="13.3039445877075">
			<ele>51.7000007629395</ele>
			<time>2014-04-13T12:16:02Z</time>
		</trkpt>
		<trkpt lat="53.8946113586426" lon="13.3039598464966">
			<ele>51.7999992370605</ele>
			<time>2014-04-13T12:16:04Z</time>
		</trkpt>
		<trkpt lat="53.8945655822754" lon="13.3039464950562">
			<ele>51.9000015258789</ele>
			<time>2014-04-13T12:16:05Z</time>
		</trkpt>
		<trkpt lat="53.8944969177246" lon="13.3039426803589">
			<ele>51.7999992370605</ele>
			<time>2014-04-13T12:16:07Z</time>
		</trkpt>
		<trkpt lat="53.8944358825684" lon="13.3039236068726">
			<ele>52</ele>
			<time>2014-04-13T12:16:09Z</time>
		</trkpt>
		<trkpt lat="53.8943862915039" lon="13.3039121627808">
			<ele>51.9000015258789</ele>
			<time>2014-04-13T12:16:10Z</time>
		</trkpt>
		<trkpt lat="53.8943023681641" lon="13.3039054870605">
			<ele>52</ele>
			<time>2014-04-13T12:16:12Z</time>
		</trkpt>
		<trkpt lat="53.8942527770996" lon="13.3038349151611">
			<ele>49.5</ele>
			<time>2014-04-13T12:16:15Z</time>
		</trkpt>
		<trkpt lat="53.8941802978516" lon="13.303786277771">
			<ele>49.2999992370605</ele>
			<time>2014-04-13T12:16:17Z</time>
		</trkpt>
		<trkpt lat="53.894115447998" lon="13.3037576675415">
			<ele>49.7000007629395</ele>
			<time>2014-04-13T12:16:19Z</time>
		</trkpt>
		<trkpt lat="53.8940658569336" lon="13.3037157058716">
			<ele>50.7999992370605</ele>
			<time>2014-04-13T12:16:21Z</time>
		</trkpt>
		<trkpt lat="53.8940353393555" lon="13.3036584854126">
			<ele>50.2000007629395</ele>
			<time>2014-04-13T12:16:23Z</time>
		</trkpt>
		<trkpt lat="53.8939781188965" lon="13.3036098480225">
			<ele>49.4000015258789</ele>
			<time>2014-04-13T12:16:25Z</time>
		</trkpt>
		<trkpt lat="53.8939208984375" lon="13.3035736083984">
			<ele>50.2999992370605</ele>
			<time>2014-04-13T12:16:27Z</time>
		</trkpt>
		<trkpt lat="53.893856048584" lon="13.3035383224487">
			<ele>49.7000007629395</ele>
			<time>2014-04-13T12:16:29Z</time>
		</trkpt>
		<trkpt lat="53.8937873840332" lon="13.303484916687">
			<ele>50.5</ele>
			<time>2014-04-13T12:16:31Z</time>
		</trkpt>
		<trkpt lat="53.8937377929688" lon="13.3034152984619">
			<ele>47.5999984741211</ele>
			<time>2014-04-13T12:16:33Z</time>
		</trkpt>
		<trkpt lat="53.893684387207" lon="13.3033351898193">
			<ele>46.5</ele>
			<time>2014-04-13T12:16:35Z</time>
		</trkpt>
		<trkpt lat="53.8936309814453" lon="13.3032751083374">
			<ele>46.4000015258789</ele>
			<time>2014-04-13T12:16:37Z</time>
		</trkpt>
		<trkpt lat="53.8935775756836" lon="13.3032131195068">
			<ele>47.5999984741211</ele>
			<time>2014-04-13T12:16:39Z</time>
		</trkpt>
		<trkpt lat="53.8935241699219" lon="13.3031206130981">
			<ele>48.0999984741211</ele>
			<time>2014-04-13T12:16:41Z</time>
		</trkpt>
		<trkpt lat="53.893482208252" lon="13.3031034469604">
			<ele>49.2999992370605</ele>
			<time>2014-04-13T12:16:42Z</time>
		</trkpt>
		<trkpt lat="53.8934288024902" lon="13.3030338287354">
			<ele>50.0999984741211</ele>
			<time>2014-04-13T12:16:44Z</time>
		</trkpt>
		<trkpt lat="53.8933563232422" lon="13.3029565811157">
			<ele>49.4000015258789</ele>
			<time>2014-04-13T12:16:46Z</time>
		</trkpt>
		<trkpt lat="53.8933219909668" lon="13.3028964996338">
			<ele>49.9000015258789</ele>
			<time>2014-04-13T12:16:48Z</time>
		</trkpt>
		<trkpt lat="53.8932609558105" lon="13.3027963638306">
			<ele>47.5</ele>
			<time>2014-04-13T12:16:50Z</time>
		</trkpt>
		<trkpt lat="53.8932342529297" lon="13.3026695251465">
			<ele>46.9000015258789</ele>
			<time>2014-04-13T12:16:52Z</time>
		</trkpt>
		<trkpt lat="53.8932418823242" lon="13.302529335022">
			<ele>47</ele>
			<time>2014-04-13T12:16:54Z</time>
		</trkpt>
		<trkpt lat="53.893196105957" lon="13.3024272918701">
			<ele>47.7000007629395</ele>
			<time>2014-04-13T12:16:56Z</time>
		</trkpt>
		<trkpt lat="53.8931503295898" lon="13.3023643493652">
			<ele>47.5999984741211</ele>
			<time>2014-04-13T12:16:58Z</time>
		</trkpt>
		<trkpt lat="53.8930931091309" lon="13.3023233413696">
			<ele>45.9000015258789</ele>
			<time>2014-04-13T12:17:00Z</time>
		</trkpt>
		<trkpt lat="53.8930397033691" lon="13.3022708892822">
			<ele>45</ele>
			<time>2014-04-13T12:17:02Z</time>
		</trkpt>
		<trkpt lat="53.8929824829102" lon="13.3021974563599">
			<ele>45.5999984741211</ele>
			<time>2014-04-13T12:17:04Z</time>
		</trkpt>
		<trkpt lat="53.8929214477539" lon="13.3021364212036">
			<ele>45.7999992370605</ele>
			<time>2014-04-13T12:17:06Z</time>
		</trkpt>
		<trkpt lat="53.8928756713867" lon="13.3020401000977">
			<ele>44.5</ele>
			<time>2014-04-13T12:17:08Z</time>
		</trkpt>
		<trkpt lat="53.8928146362305" lon="13.3019800186157">
			<ele>45</ele>
			<time>2014-04-13T12:17:10Z</time>
		</trkpt>
		<trkpt lat="53.8927536010742" lon="13.3019113540649">
			<ele>44.2000007629395</ele>
			<time>2014-04-13T12:17:12Z</time>
		</trkpt>
		<trkpt lat="53.8927001953125" lon="13.3018474578857">
			<ele>43.5</ele>
			<time>2014-04-13T12:17:14Z</time>
		</trkpt>
		<trkpt lat="53.8926467895508" lon="13.3017873764038">
			<ele>44.5999984741211</ele>
			<time>2014-04-13T12:17:16Z</time>
		</trkpt>
		<trkpt lat="53.8925971984863" lon="13.3017425537109">
			<ele>44</ele>
			<time>2014-04-13T12:17:18Z</time>
		</trkpt>
		<trkpt lat="53.8925514221191" lon="13.3016815185547">
			<ele>44.5</ele>
			<time>2014-04-13T12:17:20Z</time>
		</trkpt>
		<trkpt lat="53.892505645752" lon="13.3016157150269">
			<ele>44.7999992370605</ele>
			<time>2014-04-13T12:17:22Z</time>
		</trkpt>
		<trkpt lat="53.8924560546875" lon="13.3015689849854">
			<ele>43.5999984741211</ele>
			<time>2014-04-13T12:17:24Z</time>
		</trkpt>
		<trkpt lat="53.8924102783203" lon="13.3015089035034">
			<ele>43.5</ele>
			<time>2014-04-13T12:17:26Z</time>
		</trkpt>
		<trkpt lat="53.8923645019531" lon="13.3014545440674">
			<ele>43.7999992370605</ele>
			<time>2014-04-13T12:17:28Z</time>
		</trkpt>
		<trkpt lat="53.8923301696777" lon="13.3014039993286">
			<ele>42.9000015258789</ele>
			<time>2014-04-13T12:17:30Z</time>
		</trkpt>
		<trkpt lat="53.892276763916" lon="13.3013381958008">
			<ele>43.7999992370605</ele>
			<time>2014-04-13T12:17:32Z</time>
		</trkpt>
		<trkpt lat="53.8922233581543" lon="13.3012752532959">
			<ele>44.0999984741211</ele>
			<time>2014-04-13T12:17:34Z</time>
		</trkpt>
		<trkpt lat="53.8921775817871" lon="13.3012104034424">
			<ele>44.2999992370605</ele>
			<time>2014-04-13T12:17:36Z</time>
		</trkpt>
		<trkpt lat="53.8921279907227" lon="13.3011589050293">
			<ele>44.9000015258789</ele>
			<time>2014-04-13T12:17:38Z</time>
		</trkpt>
		<trkpt lat="53.8920860290527" lon="13.3011064529419">
			<ele>45.9000015258789</ele>
			<time>2014-04-13T12:17:40Z</time>
		</trkpt>
		<trkpt lat="53.8920402526855" lon="13.3010549545288">
			<ele>45.2999992370605</ele>
			<time>2014-04-13T12:17:42Z</time>
		</trkpt>
		<trkpt lat="53.8919906616211" lon="13.3009901046753">
			<ele>46.2999992370605</ele>
			<time>2014-04-13T12:17:44Z</time>
		</trkpt>
		<trkpt lat="53.8919410705566" lon="13.3009233474731">
			<ele>47.0999984741211</ele>
			<time>2014-04-13T12:17:46Z</time>
		</trkpt>
		<trkpt lat="53.8918991088867" lon="13.3008880615234">
			<ele>47.7999992370605</ele>
			<time>2014-04-13T12:17:48Z</time>
		</trkpt>
		<trkpt lat="53.8918533325195" lon="13.3008193969727">
			<ele>47.5</ele>
			<time>2014-04-13T12:17:50Z</time>
		</trkpt>
		<trkpt lat="53.8918075561523" lon="13.3007640838623">
			<ele>47.9000015258789</ele>
			<time>2014-04-13T12:17:52Z</time>
		</trkpt>
		<trkpt lat="53.8917617797852" lon="13.3007192611694">
			<ele>47.2999992370605</ele>
			<time>2014-04-13T12:17:54Z</time>
		</trkpt>
		<trkpt lat="53.891716003418" lon="13.3006629943848">
			<ele>47.4000015258789</ele>
			<time>2014-04-13T12:17:56Z</time>
		</trkpt>
		<trkpt lat="53.891674041748" lon="13.3006105422974">
			<ele>47.0999984741211</ele>
			<time>2014-04-13T12:17:58Z</time>
		</trkpt>
		<trkpt lat="53.8916282653809" lon="13.3005590438843">
			<ele>47.4000015258789</ele>
			<time>2014-04-13T12:18:00Z</time>
		</trkpt>
		<trkpt lat="53.8915824890137" lon="13.3005037307739">
			<ele>46.9000015258789</ele>
			<time>2014-04-13T12:18:02Z</time>
		</trkpt>
		<trkpt lat="53.8915405273438" lon="13.3004446029663">
			<ele>46.7000007629395</ele>
			<time>2014-04-13T12:18:04Z</time>
		</trkpt>
		<trkpt lat="53.8915023803711" lon="13.3003816604614">
			<ele>46.9000015258789</ele>
			<time>2014-04-13T12:18:06Z</time>
		</trkpt>
		<trkpt lat="53.8914489746094" lon="13.3003263473511">
			<ele>46.5999984741211</ele>
			<time>2014-04-13T12:18:08Z</time>
		</trkpt>
		<trkpt lat="53.8914070129395" lon="13.3002758026123">
			<ele>46.2999992370605</ele>
			<time>2014-04-13T12:18:10Z</time>
		</trkpt>
		<trkpt lat="53.8913612365723" lon="13.3002243041992">
			<ele>46.5999984741211</ele>
			<time>2014-04-13T12:18:12Z</time>
		</trkpt>
		<trkpt lat="53.8913154602051" lon="13.3001680374146">
			<ele>46.5999984741211</ele>
			<time>2014-04-13T12:18:14Z</time>
		</trkpt>
		<trkpt lat="53.8912658691406" lon="13.3001098632813">
			<ele>46.7000007629395</ele>
			<time>2014-04-13T12:18:16Z</time>
		</trkpt>
		<trkpt lat="53.8912315368652" lon="13.3000516891479">
			<ele>46.9000015258789</ele>
			<time>2014-04-13T12:18:18Z</time>
		</trkpt>
		<trkpt lat="53.8911819458008" lon="13.2999954223633">
			<ele>47.0999984741211</ele>
			<time>2014-04-13T12:18:20Z</time>
		</trkpt>
		<trkpt lat="53.8911323547363" lon="13.2999334335327">
			<ele>46.9000015258789</ele>
			<time>2014-04-13T12:18:22Z</time>
		</trkpt>
		<trkpt lat="53.8910789489746" lon="13.2998647689819">
			<ele>47.4000015258789</ele>
			<time>2014-04-13T12:18:24Z</time>
		</trkpt>
		<trkpt lat="53.8910293579102" lon="13.2998037338257">
			<ele>46.9000015258789</ele>
			<time>2014-04-13T12:18:26Z</time>
		</trkpt>
		<trkpt lat="53.890983581543" lon="13.2997369766235">
			<ele>47.0999984741211</ele>
			<time>2014-04-13T12:18:28Z</time>
		</trkpt>
		<trkpt lat="53.8909378051758" lon="13.2996778488159">
			<ele>47.0999984741211</ele>
			<time>2014-04-13T12:18:30Z</time>
		</trkpt>
		<trkpt lat="53.8908920288086" lon="13.2996225357056">
			<ele>47.2000007629395</ele>
			<time>2014-04-13T12:18:32Z</time>
		</trkpt>
		<trkpt lat="53.8908424377441" lon="13.2995615005493">
			<ele>47.5999984741211</ele>
			<time>2014-04-13T12:18:34Z</time>
		</trkpt>
		<trkpt lat="53.8907928466797" lon="13.2995014190674">
			<ele>47.4000015258789</ele>
			<time>2014-04-13T12:18:36Z</time>
		</trkpt>
		<trkpt lat="53.8907508850098" lon="13.2994499206543">
			<ele>47.2999992370605</ele>
			<time>2014-04-13T12:18:38Z</time>
		</trkpt>
		<trkpt lat="53.8907127380371" lon="13.2993936538696">
			<ele>47.2999992370605</ele>
			<time>2014-04-13T12:18:40Z</time>
		</trkpt>
		<trkpt lat="53.8906631469727" lon="13.2993335723877">
			<ele>47.7999992370605</ele>
			<time>2014-04-13T12:18:42Z</time>
		</trkpt>
		<trkpt lat="53.8906173706055" lon="13.299277305603">
			<ele>47.9000015258789</ele>
			<time>2014-04-13T12:18:44Z</time>
		</trkpt>
		<trkpt lat="53.8905715942383" lon="13.2992181777954">
			<ele>47.7999992370605</ele>
			<time>2014-04-13T12:18:46Z</time>
		</trkpt>
		<trkpt lat="53.8905220031738" lon="13.2991600036621">
			<ele>48</ele>
			<time>2014-04-13T12:18:48Z</time>
		</trkpt>
		<trkpt lat="53.8904762268066" lon="13.2990999221802">
			<ele>48.4000015258789</ele>
			<time>2014-04-13T12:18:50Z</time>
		</trkpt>
		<trkpt lat="53.8904304504395" lon="13.2990436553955">
			<ele>48.7000007629395</ele>
			<time>2014-04-13T12:18:52Z</time>
		</trkpt>
		<trkpt lat="53.8903846740723" lon="13.2989912033081">
			<ele>48.5</ele>
			<time>2014-04-13T12:18:54Z</time>
		</trkpt>
		<trkpt lat="53.8903388977051" lon="13.298939704895">
			<ele>48.5</ele>
			<time>2014-04-13T12:18:56Z</time>
		</trkpt>
		<trkpt lat="53.8902969360352" lon="13.2988786697388">
			<ele>48.2999992370605</ele>
			<time>2014-04-13T12:18:58Z</time>
		</trkpt>
		<trkpt lat="53.890251159668" lon="13.2988233566284">
			<ele>48.9000015258789</ele>
			<time>2014-04-13T12:19:00Z</time>
		</trkpt>
		<trkpt lat="53.8902053833008" lon="13.298770904541">
			<ele>49.2999992370605</ele>
			<time>2014-04-13T12:19:02Z</time>
		</trkpt>
		<trkpt lat="53.8901596069336" lon="13.2987022399902">
			<ele>49.9000015258789</ele>
			<time>2014-04-13T12:19:04Z</time>
		</trkpt>
		<trkpt lat="53.8901100158691" lon="13.2986259460449">
			<ele>50.7000007629395</ele>
			<time>2014-04-13T12:19:06Z</time>
		</trkpt>
		<trkpt lat="53.8900680541992" lon="13.2985610961914">
			<ele>51.5</ele>
			<time>2014-04-13T12:19:08Z</time>
		</trkpt>
		<trkpt lat="53.8900146484375" lon="13.2985057830811">
			<ele>50.7000007629395</ele>
			<time>2014-04-13T12:19:10Z</time>
		</trkpt>
		<trkpt lat="53.8899726867676" lon="13.2984495162964">
			<ele>50.7999992370605</ele>
			<time>2014-04-13T12:19:12Z</time>
		</trkpt>
		<trkpt lat="53.8899230957031" lon="13.2983922958374">
			<ele>50.9000015258789</ele>
			<time>2014-04-13T12:19:14Z</time>
		</trkpt>
		<trkpt lat="53.8898658752441" lon="13.2983179092407">
			<ele>50.5</ele>
			<time>2014-04-13T12:19:16Z</time>
		</trkpt>
		<trkpt lat="53.8898124694824" lon="13.2982568740845">
			<ele>49.9000015258789</ele>
			<time>2014-04-13T12:19:18Z</time>
		</trkpt>
		<trkpt lat="53.8897590637207" lon="13.2981948852539">
			<ele>50.0999984741211</ele>
			<time>2014-04-13T12:19:20Z</time>
		</trkpt>
		<trkpt lat="53.8897094726563" lon="13.2981328964233">
			<ele>50.0999984741211</ele>
			<time>2014-04-13T12:19:22Z</time>
		</trkpt>
		<trkpt lat="53.8896675109863" lon="13.2980604171753">
			<ele>50.2999992370605</ele>
			<time>2014-04-13T12:19:24Z</time>
		</trkpt>
		<trkpt lat="53.8896141052246" lon="13.297999382019">
			<ele>50</ele>
			<time>2014-04-13T12:19:26Z</time>
		</trkpt>
		<trkpt lat="53.8895568847656" lon="13.2979326248169">
			<ele>49.5999984741211</ele>
			<time>2014-04-13T12:19:28Z</time>
		</trkpt>
		<trkpt lat="53.8895111083984" lon="13.2978620529175">
			<ele>49.4000015258789</ele>
			<time>2014-04-13T12:19:30Z</time>
		</trkpt>
		<trkpt lat="53.8894577026367" lon="13.297794342041">
			<ele>49</ele>
			<time>2014-04-13T12:19:32Z</time>
		</trkpt>
		<trkpt lat="53.889404296875" lon="13.2977323532104">
			<ele>49</ele>
			<time>2014-04-13T12:19:34Z</time>
		</trkpt>
		<trkpt lat="53.8893547058105" lon="13.2976636886597">
			<ele>48.7999992370605</ele>
			<time>2014-04-13T12:19:36Z</time>
		</trkpt>
		<trkpt lat="53.8893051147461" lon="13.2976055145264">
			<ele>48.5999984741211</ele>
			<time>2014-04-13T12:19:38Z</time>
		</trkpt>
		<trkpt lat="53.8892517089844" lon="13.2975482940674">
			<ele>49</ele>
			<time>2014-04-13T12:19:40Z</time>
		</trkpt>
		<trkpt lat="53.8892059326172" lon="13.2974910736084">
			<ele>48.9000015258789</ele>
			<time>2014-04-13T12:19:42Z</time>
		</trkpt>
		<trkpt lat="53.88916015625" lon="13.2974414825439">
			<ele>49.0999984741211</ele>
			<time>2014-04-13T12:19:44Z</time>
		</trkpt>
		<trkpt lat="53.8891181945801" lon="13.2973909378052">
			<ele>48.2999992370605</ele>
			<time>2014-04-13T12:19:46Z</time>
		</trkpt>
		<trkpt lat="53.8890686035156" lon="13.2973356246948">
			<ele>47.9000015258789</ele>
			<time>2014-04-13T12:19:48Z</time>
		</trkpt>
		<trkpt lat="53.8890228271484" lon="13.2972764968872">
			<ele>47.9000015258789</ele>
			<time>2014-04-13T12:19:50Z</time>
		</trkpt>
		<trkpt lat="53.8889770507813" lon="13.2972269058228">
			<ele>48.2999992370605</ele>
			<time>2014-04-13T12:19:52Z</time>
		</trkpt>
		<trkpt lat="53.8889350891113" lon="13.2971668243408">
			<ele>48.5999984741211</ele>
			<time>2014-04-13T12:19:54Z</time>
		</trkpt>
		<trkpt lat="53.8888816833496" lon="13.2971115112305">
			<ele>48.2000007629395</ele>
			<time>2014-04-13T12:19:56Z</time>
		</trkpt>
		<trkpt lat="53.8888397216797" lon="13.2970504760742">
			<ele>48.2999992370605</ele>
			<time>2014-04-13T12:19:58Z</time>
		</trkpt>
		<trkpt lat="53.8887939453125" lon="13.2969989776611">
			<ele>48.5</ele>
			<time>2014-04-13T12:20:00Z</time>
		</trkpt>
		<trkpt lat="53.8887481689453" lon="13.2969455718994">
			<ele>48.7999992370605</ele>
			<time>2014-04-13T12:20:02Z</time>
		</trkpt>
		<trkpt lat="53.8886985778809" lon="13.2968854904175">
			<ele>48.7999992370605</ele>
			<time>2014-04-13T12:20:04Z</time>
		</trkpt>
		<trkpt lat="53.8886566162109" lon="13.2968091964722">
			<ele>49</ele>
			<time>2014-04-13T12:20:06Z</time>
		</trkpt>
		<trkpt lat="53.8886070251465" lon="13.2967500686646">
			<ele>49.2000007629395</ele>
			<time>2014-04-13T12:20:08Z</time>
		</trkpt>
		<trkpt lat="53.8885612487793" lon="13.2966966629028">
			<ele>49.5999984741211</ele>
			<time>2014-04-13T12:20:10Z</time>
		</trkpt>
		<trkpt lat="53.8885116577148" lon="13.2966365814209">
			<ele>49.7000007629395</ele>
			<time>2014-04-13T12:20:12Z</time>
		</trkpt>
		<trkpt lat="53.8884696960449" lon="13.2965745925903">
			<ele>49.7000007629395</ele>
			<time>2014-04-13T12:20:14Z</time>
		</trkpt>
		<trkpt lat="53.888427734375" lon="13.296516418457">
			<ele>50.0999984741211</ele>
			<time>2014-04-13T12:20:16Z</time>
		</trkpt>
		<trkpt lat="53.8883819580078" lon="13.296462059021">
			<ele>50.5999984741211</ele>
			<time>2014-04-13T12:20:18Z</time>
		</trkpt>
		<trkpt lat="53.8883361816406" lon="13.2964105606079">
			<ele>50.2999992370605</ele>
			<time>2014-04-13T12:20:20Z</time>
		</trkpt>
		<trkpt lat="53.8882942199707" lon="13.2963495254517">
			<ele>49.7999992370605</ele>
			<time>2014-04-13T12:20:22Z</time>
		</trkpt>
		<trkpt lat="53.8882484436035" lon="13.2963228225708">
			<ele>50.0999984741211</ele>
			<time>2014-04-13T12:20:24Z</time>
		</trkpt>
		<trkpt lat="53.8881797790527" lon="13.2963590621948">
			<ele>50.5</ele>
			<time>2014-04-13T12:20:27Z</time>
		</trkpt>
		<trkpt lat="53.8881454467773" lon="13.2964525222778">
			<ele>50.4000015258789</ele>
			<time>2014-04-13T12:20:29Z</time>
		</trkpt>
		<trkpt lat="53.8881149291992" lon="13.2965755462646">
			<ele>50</ele>
			<time>2014-04-13T12:20:31Z</time>
		</trkpt>
		<trkpt lat="53.8880805969238" lon="13.2966966629028">
			<ele>50.0999984741211</ele>
			<time>2014-04-13T12:20:33Z</time>
		</trkpt>
		<trkpt lat="53.888053894043" lon="13.2968111038208">
			<ele>50.2999992370605</ele>
			<time>2014-04-13T12:20:35Z</time>
		</trkpt>
		<trkpt lat="53.8880310058594" lon="13.2969217300415">
			<ele>50.4000015258789</ele>
			<time>2014-04-13T12:20:37Z</time>
		</trkpt>
		<trkpt lat="53.8880081176758" lon="13.2970275878906">
			<ele>50.2000007629395</ele>
			<time>2014-04-13T12:20:39Z</time>
		</trkpt>
		<trkpt lat="53.8879814147949" lon="13.2971267700195">
			<ele>50.2000007629395</ele>
			<time>2014-04-13T12:20:41Z</time>
		</trkpt>
		<trkpt lat="53.8879547119141" lon="13.297233581543">
			<ele>50.5</ele>
			<time>2014-04-13T12:20:43Z</time>
		</trkpt>
		<trkpt lat="53.8879203796387" lon="13.2973546981812">
			<ele>50.4000015258789</ele>
			<time>2014-04-13T12:20:45Z</time>
		</trkpt>
		<trkpt lat="53.8878898620605" lon="13.2974853515625">
			<ele>50.2999992370605</ele>
			<time>2014-04-13T12:20:47Z</time>
		</trkpt>
		<trkpt lat="53.8878555297852" lon="13.2976179122925">
			<ele>50</ele>
			<time>2014-04-13T12:20:49Z</time>
		</trkpt>
		<trkpt lat="53.8878326416016" lon="13.2977457046509">
			<ele>50.0999984741211</ele>
			<time>2014-04-13T12:20:52Z</time>
		</trkpt>
		<trkpt lat="53.8878059387207" lon="13.2978801727295">
			<ele>52.5999984741211</ele>
			<time>2014-04-13T12:20:56Z</time>
		</trkpt>
		<trkpt lat="53.8877143859863" lon="13.2981834411621">
			<ele>50.5999984741211</ele>
			<time>2014-04-13T12:20:58Z</time>
		</trkpt>
		<trkpt lat="53.8876724243164" lon="13.2983388900757">
			<ele>50.7000007629395</ele>
			<time>2014-04-13T12:21:00Z</time>
		</trkpt>
		<trkpt lat="53.887638092041" lon="13.2984895706177">
			<ele>50.4000015258789</ele>
			<time>2014-04-13T12:21:01Z</time>
		</trkpt>
		<trkpt lat="53.8876152038574" lon="13.2985696792603">
			<ele>50.2999992370605</ele>
			<time>2014-04-13T12:21:02Z</time>
		</trkpt>
		<trkpt lat="53.8875923156738" lon="13.2986497879028">
			<ele>50.4000015258789</ele>
			<time>2014-04-13T12:21:03Z</time>
		</trkpt>
		<trkpt lat="53.8875694274902" lon="13.2987356185913">
			<ele>50.5</ele>
			<time>2014-04-13T12:21:04Z</time>
		</trkpt>
		<trkpt lat="53.8875503540039" lon="13.2988243103027">
			<ele>50.5999984741211</ele>
			<time>2014-04-13T12:21:05Z</time>
		</trkpt>
		<trkpt lat="53.887523651123" lon="13.2989082336426">
			<ele>50.2999992370605</ele>
			<time>2014-04-13T12:21:06Z</time>
		</trkpt>
		<trkpt lat="53.8875045776367" lon="13.2989931106567">
			<ele>50.2000007629395</ele>
			<time>2014-04-13T12:21:07Z</time>
		</trkpt>
		<trkpt lat="53.8874816894531" lon="13.2990808486938">
			<ele>50.0999984741211</ele>
			<time>2014-04-13T12:21:08Z</time>
		</trkpt>
		<trkpt lat="53.8874664306641" lon="13.2991743087769">
			<ele>50.2999992370605</ele>
			<time>2014-04-13T12:21:09Z</time>
		</trkpt>
		<trkpt lat="53.8874435424805" lon="13.2992630004883">
			<ele>50.4000015258789</ele>
			<time>2014-04-13T12:21:10Z</time>
		</trkpt>
		<trkpt lat="53.8874168395996" lon="13.2993497848511">
			<ele>50.0999984741211</ele>
			<time>2014-04-13T12:21:11Z</time>
		</trkpt>
		<trkpt lat="53.887393951416" lon="13.2994337081909">
			<ele>50.2000007629395</ele>
			<time>2014-04-13T12:21:12Z</time>
		</trkpt>
		<trkpt lat="53.8873672485352" lon="13.2995233535767">
			<ele>50.2000007629395</ele>
			<time>2014-04-13T12:21:13Z</time>
		</trkpt>
		<trkpt lat="53.8873443603516" lon="13.2996120452881">
			<ele>50.2999992370605</ele>
			<time>2014-04-13T12:21:14Z</time>
		</trkpt>
		<trkpt lat="53.887321472168" lon="13.2996978759766">
			<ele>50.4000015258789</ele>
			<time>2014-04-13T12:21:15Z</time>
		</trkpt>
		<trkpt lat="53.8872985839844" lon="13.2997808456421">
			<ele>50.2999992370605</ele>
			<time>2014-04-13T12:21:16Z</time>
		</trkpt>
		<trkpt lat="53.887279510498" lon="13.2998609542847">
			<ele>50.2000007629395</ele>
			<time>2014-04-13T12:21:17Z</time>
		</trkpt>
		<trkpt lat="53.8872604370117" lon="13.2999429702759">
			<ele>50.4000015258789</ele>
			<time>2014-04-13T12:21:18Z</time>
		</trkpt>
		<trkpt lat="53.8872375488281" lon="13.3000183105469">
			<ele>50.4000015258789</ele>
			<time>2014-04-13T12:21:19Z</time>
		</trkpt>
		<trkpt lat="53.8872146606445" lon="13.3001022338867">
			<ele>50.5</ele>
			<time>2014-04-13T12:21:20Z</time>
		</trkpt>
		<trkpt lat="53.8871955871582" lon="13.300181388855">
			<ele>50.2000007629395</ele>
			<time>2014-04-13T12:21:21Z</time>
		</trkpt>
		<trkpt lat="53.8871879577637" lon="13.3002681732178">
			<ele>50.2999992370605</ele>
			<time>2014-04-13T12:21:22Z</time>
		</trkpt>
		<trkpt lat="53.8871726989746" lon="13.3003559112549">
			<ele>50.5</ele>
			<time>2014-04-13T12:21:23Z</time>
		</trkpt>
		<trkpt lat="53.8871536254883" lon="13.3004446029663">
			<ele>50.2000007629395</ele>
			<time>2014-04-13T12:21:24Z</time>
		</trkpt>
		<trkpt lat="53.887134552002" lon="13.3005294799805">
			<ele>50.2000007629395</ele>
			<time>2014-04-13T12:21:25Z</time>
		</trkpt>
		<trkpt lat="53.8871078491211" lon="13.3006162643433">
			<ele>50.2000007629395</ele>
			<time>2014-04-13T12:21:26Z</time>
		</trkpt>
		<trkpt lat="53.8870811462402" lon="13.3007049560547">
			<ele>50.2000007629395</ele>
			<time>2014-04-13T12:21:27Z</time>
		</trkpt>
		<trkpt lat="53.8870582580566" lon="13.3007965087891">
			<ele>49.9000015258789</ele>
			<time>2014-04-13T12:21:28Z</time>
		</trkpt>
		<trkpt lat="53.887035369873" lon="13.3008861541748">
			<ele>49.7000007629395</ele>
			<time>2014-04-13T12:21:29Z</time>
		</trkpt>
		<trkpt lat="53.8870124816895" lon="13.3009748458862">
			<ele>49.5999984741211</ele>
			<time>2014-04-13T12:21:30Z</time>
		</trkpt>
		<trkpt lat="53.8869934082031" lon="13.3010673522949">
			<ele>49.5</ele>
			<time>2014-04-13T12:21:31Z</time>
		</trkpt>
		<trkpt lat="53.8869667053223" lon="13.3011636734009">
			<ele>49.5999984741211</ele>
			<time>2014-04-13T12:21:32Z</time>
		</trkpt>
		<trkpt lat="53.8869438171387" lon="13.3012590408325">
			<ele>49.9000015258789</ele>
			<time>2014-04-13T12:21:33Z</time>
		</trkpt>
		<trkpt lat="53.8869209289551" lon="13.3013486862183">
			<ele>49.7999992370605</ele>
			<time>2014-04-13T12:21:34Z</time>
		</trkpt>
		<trkpt lat="53.8869018554688" lon="13.3014554977417">
			<ele>49.9000015258789</ele>
			<time>2014-04-13T12:21:35Z</time>
		</trkpt>
		<trkpt lat="53.8868789672852" lon="13.3015508651733">
			<ele>50</ele>
			<time>2014-04-13T12:21:36Z</time>
		</trkpt>
		<trkpt lat="53.8868560791016" lon="13.3016529083252">
			<ele>49.9000015258789</ele>
			<time>2014-04-13T12:21:37Z</time>
		</trkpt>
		<trkpt lat="53.886833190918" lon="13.3017520904541">
			<ele>49.9000015258789</ele>
			<time>2014-04-13T12:21:38Z</time>
		</trkpt>
		<trkpt lat="53.8868103027344" lon="13.3018484115601">
			<ele>49.5999984741211</ele>
			<time>2014-04-13T12:21:39Z</time>
		</trkpt>
		<trkpt lat="53.8867797851563" lon="13.3019418716431">
			<ele>49.5</ele>
			<time>2014-04-13T12:21:40Z</time>
		</trkpt>
		<trkpt lat="53.8867568969727" lon="13.3020362854004">
			<ele>49.2000007629395</ele>
			<time>2014-04-13T12:21:41Z</time>
		</trkpt>
		<trkpt lat="53.8867225646973" lon="13.3021221160889">
			<ele>49.7000007629395</ele>
			<time>2014-04-13T12:21:42Z</time>
		</trkpt>
		<trkpt lat="53.8866882324219" lon="13.302209854126">
			<ele>49.7000007629395</ele>
			<time>2014-04-13T12:21:43Z</time>
		</trkpt>
		<trkpt lat="53.886646270752" lon="13.302285194397">
			<ele>49.5</ele>
			<time>2014-04-13T12:21:44Z</time>
		</trkpt>
		<trkpt lat="53.8865966796875" lon="13.3023557662964">
			<ele>49.0999984741211</ele>
			<time>2014-04-13T12:21:45Z</time>
		</trkpt>
		<trkpt lat="53.8865509033203" lon="13.3024234771729">
			<ele>49.2999992370605</ele>
			<time>2014-04-13T12:21:46Z</time>
		</trkpt>
		<trkpt lat="53.8865051269531" lon="13.3024911880493">
			<ele>48.7999992370605</ele>
			<time>2014-04-13T12:21:47Z</time>
		</trkpt>
		<trkpt lat="53.8864593505859" lon="13.3025617599487">
			<ele>48.7000007629395</ele>
			<time>2014-04-13T12:21:48Z</time>
		</trkpt>
		<trkpt lat="53.8864212036133" lon="13.3026371002197">
			<ele>48.7999992370605</ele>
			<time>2014-04-13T12:21:49Z</time>
		</trkpt>
		<trkpt lat="53.8863906860352" lon="13.3027172088623">
			<ele>48.9000015258789</ele>
			<time>2014-04-13T12:21:50Z</time>
		</trkpt>
		<trkpt lat="53.8863639831543" lon="13.3028078079224">
			<ele>48.9000015258789</ele>
			<time>2014-04-13T12:21:51Z</time>
		</trkpt>
		<trkpt lat="53.8863410949707" lon="13.3028974533081">
			<ele>48.9000015258789</ele>
			<time>2014-04-13T12:21:52Z</time>
		</trkpt>
		<trkpt lat="53.8863220214844" lon="13.3029947280884">
			<ele>49.0999984741211</ele>
			<time>2014-04-13T12:21:53Z</time>
		</trkpt>
		<trkpt lat="53.8863067626953" lon="13.303092956543">
			<ele>48.9000015258789</ele>
			<time>2014-04-13T12:21:54Z</time>
		</trkpt>
		<trkpt lat="53.8862915039063" lon="13.3031883239746">
			<ele>48.7000007629395</ele>
			<time>2014-04-13T12:21:55Z</time>
		</trkpt>
		<trkpt lat="53.8862762451172" lon="13.3032779693604">
			<ele>49</ele>
			<time>2014-04-13T12:21:56Z</time>
		</trkpt>
		<trkpt lat="53.8862609863281" lon="13.3033771514893">
			<ele>49.2000007629395</ele>
			<time>2014-04-13T12:21:57Z</time>
		</trkpt>
		<trkpt lat="53.8862457275391" lon="13.3034744262695">
			<ele>49</ele>
			<time>2014-04-13T12:21:58Z</time>
		</trkpt>
		<trkpt lat="53.8862266540527" lon="13.3035717010498">
			<ele>49</ele>
			<time>2014-04-13T12:21:59Z</time>
		</trkpt>
		<trkpt lat="53.8862113952637" lon="13.3036708831787">
			<ele>49</ele>
			<time>2014-04-13T12:22:00Z</time>
		</trkpt>
		<trkpt lat="53.8861961364746" lon="13.303768157959">
			<ele>49.2999992370605</ele>
			<time>2014-04-13T12:22:01Z</time>
		</trkpt>
		<trkpt lat="53.8861808776855" lon="13.3038663864136">
			<ele>49.5</ele>
			<time>2014-04-13T12:22:02Z</time>
		</trkpt>
		<trkpt lat="53.8861656188965" lon="13.3039674758911">
			<ele>49.4000015258789</ele>
			<time>2014-04-13T12:22:03Z</time>
		</trkpt>
		<trkpt lat="53.8861465454102" lon="13.3040685653687">
			<ele>49.4000015258789</ele>
			<time>2014-04-13T12:22:04Z</time>
		</trkpt>
		<trkpt lat="53.8861274719238" lon="13.304162979126">
			<ele>49.0999984741211</ele>
			<time>2014-04-13T12:22:05Z</time>
		</trkpt>
		<trkpt lat="53.8861083984375" lon="13.3042678833008">
			<ele>49</ele>
			<time>2014-04-13T12:22:06Z</time>
		</trkpt>
		<trkpt lat="53.8860893249512" lon="13.3043699264526">
			<ele>49</ele>
			<time>2014-04-13T12:22:07Z</time>
		</trkpt>
		<trkpt lat="53.8860702514648" lon="13.3044710159302">
			<ele>49.0999984741211</ele>
			<time>2014-04-13T12:22:08Z</time>
		</trkpt>
		<trkpt lat="53.8860511779785" lon="13.3045740127563">
			<ele>49.0999984741211</ele>
			<time>2014-04-13T12:22:09Z</time>
		</trkpt>
		<trkpt lat="53.8860321044922" lon="13.3046779632568">
			<ele>48.9000015258789</ele>
			<time>2014-04-13T12:22:10Z</time>
		</trkpt>
		<trkpt lat="53.8860130310059" lon="13.3047895431519">
			<ele>49</ele>
			<time>2014-04-13T12:22:11Z</time>
		</trkpt>
		<trkpt lat="53.8859939575195" lon="13.304895401001">
			<ele>48.9000015258789</ele>
			<time>2014-04-13T12:22:12Z</time>
		</trkpt>
		<trkpt lat="53.8859786987305" lon="13.3049993515015">
			<ele>48.7999992370605</ele>
			<time>2014-04-13T12:22:13Z</time>
		</trkpt>
		<trkpt lat="53.8859634399414" lon="13.3051071166992">
			<ele>48.7999992370605</ele>
			<time>2014-04-13T12:22:14Z</time>
		</trkpt>
		<trkpt lat="53.8859443664551" lon="13.3052167892456">
			<ele>48.9000015258789</ele>
			<time>2014-04-13T12:22:15Z</time>
		</trkpt>
		<trkpt lat="53.885929107666" lon="13.305326461792">
			<ele>48.9000015258789</ele>
			<time>2014-04-13T12:22:16Z</time>
		</trkpt>
		<trkpt lat="53.8859100341797" lon="13.3054370880127">
			<ele>49</ele>
			<time>2014-04-13T12:22:17Z</time>
		</trkpt>
		<trkpt lat="53.8858947753906" lon="13.3055400848389">
			<ele>48.9000015258789</ele>
			<time>2014-04-13T12:22:18Z</time>
		</trkpt>
		<trkpt lat="53.8858757019043" lon="13.305645942688">
			<ele>48.9000015258789</ele>
			<time>2014-04-13T12:22:19Z</time>
		</trkpt>
		<trkpt lat="53.8858604431152" lon="13.3057479858398">
			<ele>48.9000015258789</ele>
			<time>2014-04-13T12:22:20Z</time>
		</trkpt>
		<trkpt lat="53.8858413696289" lon="13.3058576583862">
			<ele>48.7999992370605</ele>
			<time>2014-04-13T12:22:21Z</time>
		</trkpt>
		<trkpt lat="53.8858184814453" lon="13.3059720993042">
			<ele>48.9000015258789</ele>
			<time>2014-04-13T12:22:22Z</time>
		</trkpt>
		<trkpt lat="53.8858032226563" lon="13.3060808181763">
			<ele>49</ele>
			<time>2014-04-13T12:22:23Z</time>
		</trkpt>
		<trkpt lat="53.8857841491699" lon="13.3061895370483">
			<ele>49</ele>
			<time>2014-04-13T12:22:24Z</time>
		</trkpt>
		<trkpt lat="53.8857612609863" lon="13.3062982559204">
			<ele>49</ele>
			<time>2014-04-13T12:22:25Z</time>
		</trkpt>
		<trkpt lat="53.8857421875" lon="13.3064088821411">
			<ele>48.9000015258789</ele>
			<time>2014-04-13T12:22:26Z</time>
		</trkpt>
		<trkpt lat="53.8857231140137" lon="13.3065185546875">
			<ele>49.0999984741211</ele>
			<time>2014-04-13T12:22:27Z</time>
		</trkpt>
		<trkpt lat="53.8857040405273" lon="13.3066301345825">
			<ele>49.0999984741211</ele>
			<time>2014-04-13T12:22:28Z</time>
		</trkpt>
		<trkpt lat="53.885684967041" lon="13.3067388534546">
			<ele>49.2000007629395</ele>
			<time>2014-04-13T12:22:29Z</time>
		</trkpt>
		<trkpt lat="53.8856658935547" lon="13.306845664978">
			<ele>49</ele>
			<time>2014-04-13T12:22:30Z</time>
		</trkpt>
		<trkpt lat="53.8856430053711" lon="13.306960105896">
			<ele>49.0999984741211</ele>
			<time>2014-04-13T12:22:31Z</time>
		</trkpt>
		<trkpt lat="53.8856239318848" lon="13.3070678710938">
			<ele>48.9000015258789</ele>
			<time>2014-04-13T12:22:32Z</time>
		</trkpt>
		<trkpt lat="53.8856048583984" lon="13.3071756362915">
			<ele>48.7999992370605</ele>
			<time>2014-04-13T12:22:33Z</time>
		</trkpt>
		<trkpt lat="53.8855857849121" lon="13.3072814941406">
			<ele>48.7000007629395</ele>
			<time>2014-04-13T12:22:34Z</time>
		</trkpt>
		<trkpt lat="53.8855667114258" lon="13.3073902130127">
			<ele>48.2999992370605</ele>
			<time>2014-04-13T12:22:35Z</time>
		</trkpt>
		<trkpt lat="53.8855438232422" lon="13.3074998855591">
			<ele>48.4000015258789</ele>
			<time>2014-04-13T12:22:36Z</time>
		</trkpt>
		<trkpt lat="53.8855247497559" lon="13.3076086044312">
			<ele>48.2999992370605</ele>
			<time>2014-04-13T12:22:37Z</time>
		</trkpt>
		<trkpt lat="53.8855094909668" lon="13.3077144622803">
			<ele>48.5</ele>
			<time>2014-04-13T12:22:38Z</time>
		</trkpt>
		<trkpt lat="53.8854904174805" lon="13.3078212738037">
			<ele>48.7999992370605</ele>
			<time>2014-04-13T12:22:39Z</time>
		</trkpt>
		<trkpt lat="53.8854675292969" lon="13.3079271316528">
			<ele>48.5999984741211</ele>
			<time>2014-04-13T12:22:40Z</time>
		</trkpt>
		<trkpt lat="53.8854484558105" lon="13.3080320358276">
			<ele>48.5999984741211</ele>
			<time>2014-04-13T12:22:41Z</time>
		</trkpt>
		<trkpt lat="53.8854293823242" lon="13.3081388473511">
			<ele>48.5</ele>
			<time>2014-04-13T12:22:42Z</time>
		</trkpt>
		<trkpt lat="53.8854141235352" lon="13.3082485198975">
			<ele>48.2999992370605</ele>
			<time>2014-04-13T12:22:43Z</time>
		</trkpt>
		<trkpt lat="53.8853988647461" lon="13.3083553314209">
			<ele>48.4000015258789</ele>
			<time>2014-04-13T12:22:44Z</time>
		</trkpt>
		<trkpt lat="53.8853759765625" lon="13.30846118927">
			<ele>48.4000015258789</ele>
			<time>2014-04-13T12:22:45Z</time>
		</trkpt>
		<trkpt lat="53.8853530883789" lon="13.3085660934448">
			<ele>48.7000007629395</ele>
			<time>2014-04-13T12:22:46Z</time>
		</trkpt>
		<trkpt lat="53.8853340148926" lon="13.3086767196655">
			<ele>48.5</ele>
			<time>2014-04-13T12:22:47Z</time>
		</trkpt>
		<trkpt lat="53.8853187561035" lon="13.3087768554688">
			<ele>48.4000015258789</ele>
			<time>2014-04-13T12:22:48Z</time>
		</trkpt>
		<trkpt lat="53.8852996826172" lon="13.3088912963867">
			<ele>48.5999984741211</ele>
			<time>2014-04-13T12:22:49Z</time>
		</trkpt>
		<trkpt lat="53.8852806091309" lon="13.3090019226074">
			<ele>48.5999984741211</ele>
			<time>2014-04-13T12:22:50Z</time>
		</trkpt>
		<trkpt lat="53.8852615356445" lon="13.3091068267822">
			<ele>48.7999992370605</ele>
			<time>2014-04-13T12:22:51Z</time>
		</trkpt>
		<trkpt lat="53.8852386474609" lon="13.3092126846313">
			<ele>48.9000015258789</ele>
			<time>2014-04-13T12:22:52Z</time>
		</trkpt>
		<trkpt lat="53.8852195739746" lon="13.3093147277832">
			<ele>49.2999992370605</ele>
			<time>2014-04-13T12:22:53Z</time>
		</trkpt>
		<trkpt lat="53.8852043151855" lon="13.309422492981">
			<ele>49.4000015258789</ele>
			<time>2014-04-13T12:22:54Z</time>
		</trkpt>
		<trkpt lat="53.8851852416992" lon="13.309531211853">
			<ele>49.5999984741211</ele>
			<time>2014-04-13T12:22:55Z</time>
		</trkpt>
		<trkpt lat="53.8851661682129" lon="13.3096361160278">
			<ele>49.4000015258789</ele>
			<time>2014-04-13T12:22:56Z</time>
		</trkpt>
		<trkpt lat="53.8851509094238" lon="13.3097486495972">
			<ele>49.2999992370605</ele>
			<time>2014-04-13T12:22:57Z</time>
		</trkpt>
		<trkpt lat="53.8851280212402" lon="13.3098554611206">
			<ele>49.0999984741211</ele>
			<time>2014-04-13T12:22:58Z</time>
		</trkpt>
		<trkpt lat="53.8851051330566" lon="13.3099670410156">
			<ele>49.2000007629395</ele>
			<time>2014-04-13T12:22:59Z</time>
		</trkpt>
		<trkpt lat="53.885082244873" lon="13.3100757598877">
			<ele>49.0999984741211</ele>
			<time>2014-04-13T12:23:00Z</time>
		</trkpt>
		<trkpt lat="53.8850631713867" lon="13.3101806640625">
			<ele>49</ele>
			<time>2014-04-13T12:23:01Z</time>
		</trkpt>
		<trkpt lat="53.8850479125977" lon="13.3102874755859">
			<ele>49.5</ele>
			<time>2014-04-13T12:23:02Z</time>
		</trkpt>
		<trkpt lat="53.8850288391113" lon="13.3104009628296">
			<ele>49.5999984741211</ele>
			<time>2014-04-13T12:23:03Z</time>
		</trkpt>
		<trkpt lat="53.8850059509277" lon="13.3105115890503">
			<ele>49.7000007629395</ele>
			<time>2014-04-13T12:23:04Z</time>
		</trkpt>
		<trkpt lat="53.8849868774414" lon="13.3106231689453">
			<ele>49.5</ele>
			<time>2014-04-13T12:23:05Z</time>
		</trkpt>
		<trkpt lat="53.8849639892578" lon="13.3107318878174">
			<ele>49.2000007629395</ele>
			<time>2014-04-13T12:23:06Z</time>
		</trkpt>
		<trkpt lat="53.8849487304688" lon="13.3108406066895">
			<ele>49</ele>
			<time>2014-04-13T12:23:07Z</time>
		</trkpt>
		<trkpt lat="53.8849220275879" lon="13.3109502792358">
			<ele>48.9000015258789</ele>
			<time>2014-04-13T12:23:08Z</time>
		</trkpt>
		<trkpt lat="53.8849029541016" lon="13.3110609054565">
			<ele>48.9000015258789</ele>
			<time>2014-04-13T12:23:09Z</time>
		</trkpt>
		<trkpt lat="53.884880065918" lon="13.3111705780029">
			<ele>49.0999984741211</ele>
			<time>2014-04-13T12:23:10Z</time>
		</trkpt>
		<trkpt lat="53.8848648071289" lon="13.3112802505493">
			<ele>49</ele>
			<time>2014-04-13T12:23:11Z</time>
		</trkpt>
		<trkpt lat="53.8848419189453" lon="13.3113899230957">
			<ele>48.9000015258789</ele>
			<time>2014-04-13T12:23:12Z</time>
		</trkpt>
		<trkpt lat="53.884822845459" lon="13.3115005493164">
			<ele>48.5999984741211</ele>
			<time>2014-04-13T12:23:13Z</time>
		</trkpt>
		<trkpt lat="53.8848037719727" lon="13.3116092681885">
			<ele>48.5999984741211</ele>
			<time>2014-04-13T12:23:14Z</time>
		</trkpt>
		<trkpt lat="53.8847846984863" lon="13.3117160797119">
			<ele>48.5999984741211</ele>
			<time>2014-04-13T12:23:15Z</time>
		</trkpt>
		<trkpt lat="53.884765625" lon="13.3118238449097">
			<ele>48.7000007629395</ele>
			<time>2014-04-13T12:23:16Z</time>
		</trkpt>
		<trkpt lat="53.8847465515137" lon="13.3119344711304">
			<ele>48.9000015258789</ele>
			<time>2014-04-13T12:23:17Z</time>
		</trkpt>
		<trkpt lat="53.8847274780273" lon="13.3120384216309">
			<ele>48.7999992370605</ele>
			<time>2014-04-13T12:23:18Z</time>
		</trkpt>
		<trkpt lat="53.8847045898438" lon="13.3121519088745">
			<ele>49</ele>
			<time>2014-04-13T12:23:19Z</time>
		</trkpt>
		<trkpt lat="53.8846893310547" lon="13.3122587203979">
			<ele>48.7000007629395</ele>
			<time>2014-04-13T12:23:20Z</time>
		</trkpt>
		<trkpt lat="53.8846664428711" lon="13.3123693466187">
			<ele>48.7000007629395</ele>
			<time>2014-04-13T12:23:21Z</time>
		</trkpt>
		<trkpt lat="53.8846473693848" lon="13.3124752044678">
			<ele>48.7000007629395</ele>
			<time>2014-04-13T12:23:22Z</time>
		</trkpt>
		<trkpt lat="53.8846282958984" lon="13.3125810623169">
			<ele>48.7999992370605</ele>
			<time>2014-04-13T12:23:23Z</time>
		</trkpt>
		<trkpt lat="53.8846092224121" lon="13.312689781189">
			<ele>48.9000015258789</ele>
			<time>2014-04-13T12:23:24Z</time>
		</trkpt>
		<trkpt lat="53.8845863342285" lon="13.312801361084">
			<ele>49</ele>
			<time>2014-04-13T12:23:25Z</time>
		</trkpt>
		<trkpt lat="53.8845672607422" lon="13.3129062652588">
			<ele>49.0999984741211</ele>
			<time>2014-04-13T12:23:26Z</time>
		</trkpt>
		<trkpt lat="53.8845443725586" lon="13.3130102157593">
			<ele>49.0999984741211</ele>
			<time>2014-04-13T12:23:27Z</time>
		</trkpt>
		<trkpt lat="53.8845252990723" lon="13.3131122589111">
			<ele>49.0999984741211</ele>
			<time>2014-04-13T12:23:28Z</time>
		</trkpt>
		<trkpt lat="53.8845062255859" lon="13.3132181167603">
			<ele>49.2000007629395</ele>
			<time>2014-04-13T12:23:29Z</time>
		</trkpt>
		<trkpt lat="53.8844871520996" lon="13.3133220672607">
			<ele>49.4000015258789</ele>
			<time>2014-04-13T12:23:30Z</time>
		</trkpt>
		<trkpt lat="53.8844718933105" lon="13.3134288787842">
			<ele>49.2000007629395</ele>
			<time>2014-04-13T12:23:31Z</time>
		</trkpt>
		<trkpt lat="53.8844566345215" lon="13.3135299682617">
			<ele>49</ele>
			<time>2014-04-13T12:23:32Z</time>
		</trkpt>
		<trkpt lat="53.8844337463379" lon="13.3136444091797">
			<ele>49.5</ele>
			<time>2014-04-13T12:23:33Z</time>
		</trkpt>
		<trkpt lat="53.8844146728516" lon="13.3137502670288">
			<ele>49.5999984741211</ele>
			<time>2014-04-13T12:23:34Z</time>
		</trkpt>
		<trkpt lat="53.884391784668" lon="13.3138523101807">
			<ele>49.7999992370605</ele>
			<time>2014-04-13T12:23:35Z</time>
		</trkpt>
		<trkpt lat="53.8843727111816" lon="13.3139610290527">
			<ele>49.9000015258789</ele>
			<time>2014-04-13T12:23:36Z</time>
		</trkpt>
		<trkpt lat="53.8843536376953" lon="13.3140687942505">
			<ele>49.7999992370605</ele>
			<time>2014-04-13T12:23:37Z</time>
		</trkpt>
		<trkpt lat="53.884334564209" lon="13.3141736984253">
			<ele>49.9000015258789</ele>
			<time>2014-04-13T12:23:38Z</time>
		</trkpt>
		<trkpt lat="53.8843154907227" lon="13.3142747879028">
			<ele>49.7000007629395</ele>
			<time>2014-04-13T12:23:39Z</time>
		</trkpt>
		<trkpt lat="53.8842964172363" lon="13.314380645752">
			<ele>49.7999992370605</ele>
			<time>2014-04-13T12:23:40Z</time>
		</trkpt>
		<trkpt lat="53.88427734375" lon="13.3144865036011">
			<ele>49.7000007629395</ele>
			<time>2014-04-13T12:23:41Z</time>
		</trkpt>
		<trkpt lat="53.8842582702637" lon="13.3145971298218">
			<ele>49.5</ele>
			<time>2014-04-13T12:23:42Z</time>
		</trkpt>
		<trkpt lat="53.8842391967773" lon="13.3147039413452">
			<ele>49.9000015258789</ele>
			<time>2014-04-13T12:23:43Z</time>
		</trkpt>
		<trkpt lat="53.8842163085938" lon="13.3148097991943">
			<ele>50</ele>
			<time>2014-04-13T12:23:44Z</time>
		</trkpt>
		<trkpt lat="53.8841972351074" lon="13.3149108886719">
			<ele>49.9000015258789</ele>
			<time>2014-04-13T12:23:45Z</time>
		</trkpt>
		<trkpt lat="53.8841819763184" lon="13.3150129318237">
			<ele>50</ele>
			<time>2014-04-13T12:23:46Z</time>
		</trkpt>
		<trkpt lat="53.884162902832" lon="13.3151187896729">
			<ele>50.2000007629395</ele>
			<time>2014-04-13T12:23:47Z</time>
		</trkpt>
		<trkpt lat="53.884147644043" lon="13.315221786499">
			<ele>50.2999992370605</ele>
			<time>2014-04-13T12:23:48Z</time>
		</trkpt>
		<trkpt lat="53.8841247558594" lon="13.3153219223022">
			<ele>50.5999984741211</ele>
			<time>2014-04-13T12:23:49Z</time>
		</trkpt>
		<trkpt lat="53.8841094970703" lon="13.3154153823853">
			<ele>50.5</ele>
			<time>2014-04-13T12:23:50Z</time>
		</trkpt>
		<trkpt lat="53.884090423584" lon="13.3155097961426">
			<ele>50.7000007629395</ele>
			<time>2014-04-13T12:23:51Z</time>
		</trkpt>
		<trkpt lat="53.8840713500977" lon="13.3156023025513">
			<ele>50.4000015258789</ele>
			<time>2014-04-13T12:23:52Z</time>
		</trkpt>
		<trkpt lat="53.8840637207031" lon="13.3156929016113">
			<ele>50.7999992370605</ele>
			<time>2014-04-13T12:23:53Z</time>
		</trkpt>
		<trkpt lat="53.8840522766113" lon="13.3157892227173">
			<ele>51.4000015258789</ele>
			<time>2014-04-13T12:23:54Z</time>
		</trkpt>
		<trkpt lat="53.8840408325195" lon="13.3158912658691">
			<ele>51.7999992370605</ele>
			<time>2014-04-13T12:23:55Z</time>
		</trkpt>
		<trkpt lat="53.8840217590332" lon="13.315990447998">
			<ele>51.5999984741211</ele>
			<time>2014-04-13T12:23:56Z</time>
		</trkpt>
		<trkpt lat="53.8840141296387" lon="13.3160839080811">
			<ele>51.4000015258789</ele>
			<time>2014-04-13T12:23:57Z</time>
		</trkpt>
		<trkpt lat="53.8840065002441" lon="13.3161888122559">
			<ele>51.5</ele>
			<time>2014-04-13T12:23:58Z</time>
		</trkpt>
		<trkpt lat="53.8839988708496" lon="13.316294670105">
			<ele>51.7999992370605</ele>
			<time>2014-04-13T12:23:59Z</time>
		</trkpt>
		<trkpt lat="53.8839950561523" lon="13.3163900375366">
			<ele>51.5999984741211</ele>
			<time>2014-04-13T12:24:00Z</time>
		</trkpt>
		<trkpt lat="53.8839912414551" lon="13.3164920806885">
			<ele>51.4000015258789</ele>
			<time>2014-04-13T12:24:01Z</time>
		</trkpt>
		<trkpt lat="53.8839836120605" lon="13.3165922164917">
			<ele>51.7999992370605</ele>
			<time>2014-04-13T12:24:02Z</time>
		</trkpt>
		<trkpt lat="53.883975982666" lon="13.3166933059692">
			<ele>51.5999984741211</ele>
			<time>2014-04-13T12:24:03Z</time>
		</trkpt>
		<trkpt lat="53.8839721679688" lon="13.3167972564697">
			<ele>51.5</ele>
			<time>2014-04-13T12:24:04Z</time>
		</trkpt>
		<trkpt lat="53.8839645385742" lon="13.3168983459473">
			<ele>51.2999992370605</ele>
			<time>2014-04-13T12:24:05Z</time>
		</trkpt>
		<trkpt lat="53.8839569091797" lon="13.3170022964478">
			<ele>51.2000007629395</ele>
			<time>2014-04-13T12:24:06Z</time>
		</trkpt>
		<trkpt lat="53.8839454650879" lon="13.3171100616455">
			<ele>51.0999984741211</ele>
			<time>2014-04-13T12:24:07Z</time>
		</trkpt>
		<trkpt lat="53.8839416503906" lon="13.3172149658203">
			<ele>51.0999984741211</ele>
			<time>2014-04-13T12:24:08Z</time>
		</trkpt>
		<trkpt lat="53.8839416503906" lon="13.3173217773438">
			<ele>51.2999992370605</ele>
			<time>2014-04-13T12:24:09Z</time>
		</trkpt>
		<trkpt lat="53.8839302062988" lon="13.3174266815186">
			<ele>51.2000007629395</ele>
			<time>2014-04-13T12:24:10Z</time>
		</trkpt>
		<trkpt lat="53.8839263916016" lon="13.3175373077393">
			<ele>51.2999992370605</ele>
			<time>2014-04-13T12:24:11Z</time>
		</trkpt>
		<trkpt lat="53.8839225769043" lon="13.3176469802856">
			<ele>51.5999984741211</ele>
			<time>2014-04-13T12:24:12Z</time>
		</trkpt>
		<trkpt lat="53.883918762207" lon="13.317756652832">
			<ele>51.5999984741211</ele>
			<time>2014-04-13T12:24:13Z</time>
		</trkpt>
		<trkpt lat="53.8839149475098" lon="13.3178606033325">
			<ele>51.5</ele>
			<time>2014-04-13T12:24:14Z</time>
		</trkpt>
		<trkpt lat="53.8839073181152" lon="13.3179693222046">
			<ele>51.5999984741211</ele>
			<time>2014-04-13T12:24:15Z</time>
		</trkpt>
		<trkpt lat="53.883903503418" lon="13.3180818557739">
			<ele>51.5</ele>
			<time>2014-04-13T12:24:16Z</time>
		</trkpt>
		<trkpt lat="53.8838958740234" lon="13.318190574646">
			<ele>51.5</ele>
			<time>2014-04-13T12:24:17Z</time>
		</trkpt>
		<trkpt lat="53.8838920593262" lon="13.318302154541">
			<ele>51.5</ele>
			<time>2014-04-13T12:24:18Z</time>
		</trkpt>
		<trkpt lat="53.8838882446289" lon="13.3184118270874">
			<ele>51.2999992370605</ele>
			<time>2014-04-13T12:24:19Z</time>
		</trkpt>
		<trkpt lat="53.8838844299316" lon="13.3185224533081">
			<ele>51.2000007629395</ele>
			<time>2014-04-13T12:24:20Z</time>
		</trkpt>
		<trkpt lat="53.8838806152344" lon="13.3186368942261">
			<ele>51.2000007629395</ele>
			<time>2014-04-13T12:24:21Z</time>
		</trkpt>
		<trkpt lat="53.8838729858398" lon="13.3187503814697">
			<ele>51.4000015258789</ele>
			<time>2014-04-13T12:24:22Z</time>
		</trkpt>
		<trkpt lat="53.8838691711426" lon="13.3188638687134">
			<ele>51.5</ele>
			<time>2014-04-13T12:24:23Z</time>
		</trkpt>
		<trkpt lat="53.883861541748" lon="13.318977355957">
			<ele>51.5999984741211</ele>
			<time>2014-04-13T12:24:24Z</time>
		</trkpt>
		<trkpt lat="53.8838577270508" lon="13.319091796875">
			<ele>51.4000015258789</ele>
			<time>2014-04-13T12:24:25Z</time>
		</trkpt>
		<trkpt lat="53.8838500976563" lon="13.3192052841187">
			<ele>51.4000015258789</ele>
			<time>2014-04-13T12:24:26Z</time>
		</trkpt>
		<trkpt lat="53.8838424682617" lon="13.319317817688">
			<ele>51.5999984741211</ele>
			<time>2014-04-13T12:24:27Z</time>
		</trkpt>
		<trkpt lat="53.8838348388672" lon="13.3194303512573">
			<ele>51.2999992370605</ele>
			<time>2014-04-13T12:24:28Z</time>
		</trkpt>
		<trkpt lat="53.8838272094727" lon="13.319543838501">
			<ele>51.0999984741211</ele>
			<time>2014-04-13T12:24:29Z</time>
		</trkpt>
		<trkpt lat="53.8838157653809" lon="13.3196592330933">
			<ele>51.2000007629395</ele>
			<time>2014-04-13T12:24:30Z</time>
		</trkpt>
		<trkpt lat="53.8838043212891" lon="13.3197765350342">
			<ele>51.4000015258789</ele>
			<time>2014-04-13T12:24:31Z</time>
		</trkpt>
		<trkpt lat="53.8837928771973" lon="13.3198900222778">
			<ele>51.4000015258789</ele>
			<time>2014-04-13T12:24:32Z</time>
		</trkpt>
		<trkpt lat="53.8837776184082" lon="13.3200063705444">
			<ele>51.2000007629395</ele>
			<time>2014-04-13T12:24:33Z</time>
		</trkpt>
		<trkpt lat="53.8837623596191" lon="13.3201236724854">
			<ele>51.0999984741211</ele>
			<time>2014-04-13T12:24:34Z</time>
		</trkpt>
		<trkpt lat="53.8837471008301" lon="13.3202419281006">
			<ele>51.0999984741211</ele>
			<time>2014-04-13T12:24:35Z</time>
		</trkpt>
		<trkpt lat="53.883731842041" lon="13.3203573226929">
			<ele>51.2000007629395</ele>
			<time>2014-04-13T12:24:36Z</time>
		</trkpt>
		<trkpt lat="53.883716583252" lon="13.3204698562622">
			<ele>51.2000007629395</ele>
			<time>2014-04-13T12:24:37Z</time>
		</trkpt>
		<trkpt lat="53.8837051391602" lon="13.3205871582031">
			<ele>51.5</ele>
			<time>2014-04-13T12:24:38Z</time>
		</trkpt>
		<trkpt lat="53.8836936950684" lon="13.320707321167">
			<ele>51.5</ele>
			<time>2014-04-13T12:24:39Z</time>
		</trkpt>
		<trkpt lat="53.8836860656738" lon="13.3208255767822">
			<ele>51.4000015258789</ele>
			<time>2014-04-13T12:24:40Z</time>
		</trkpt>
		<trkpt lat="53.883674621582" lon="13.3209438323975">
			<ele>51.2999992370605</ele>
			<time>2014-04-13T12:24:41Z</time>
		</trkpt>
		<trkpt lat="53.883659362793" lon="13.3210639953613">
			<ele>51.2000007629395</ele>
			<time>2014-04-13T12:24:42Z</time>
		</trkpt>
		<trkpt lat="53.8836479187012" lon="13.3211822509766">
			<ele>51.0999984741211</ele>
			<time>2014-04-13T12:24:43Z</time>
		</trkpt>
		<trkpt lat="53.8836326599121" lon="13.3213052749634">
			<ele>51</ele>
			<time>2014-04-13T12:24:44Z</time>
		</trkpt>
		<trkpt lat="53.8836212158203" lon="13.3214273452759">
			<ele>50.9000015258789</ele>
			<time>2014-04-13T12:24:45Z</time>
		</trkpt>
		<trkpt lat="53.8836059570313" lon="13.321551322937">
			<ele>50.7999992370605</ele>
			<time>2014-04-13T12:24:46Z</time>
		</trkpt>
		<trkpt lat="53.8835906982422" lon="13.3216753005981">
			<ele>50.9000015258789</ele>
			<time>2014-04-13T12:24:47Z</time>
		</trkpt>
		<trkpt lat="53.8835754394531" lon="13.3217964172363">
			<ele>50.7999992370605</ele>
			<time>2014-04-13T12:24:48Z</time>
		</trkpt>
		<trkpt lat="53.8835601806641" lon="13.3219223022461">
			<ele>50.7999992370605</ele>
			<time>2014-04-13T12:24:49Z</time>
		</trkpt>
		<trkpt lat="53.883544921875" lon="13.3220434188843">
			<ele>50.9000015258789</ele>
			<time>2014-04-13T12:24:50Z</time>
		</trkpt>
		<trkpt lat="53.8835296630859" lon="13.3221654891968">
			<ele>51.0999984741211</ele>
			<time>2014-04-13T12:24:51Z</time>
		</trkpt>
		<trkpt lat="53.8835105895996" lon="13.3222875595093">
			<ele>51.0999984741211</ele>
			<time>2014-04-13T12:24:52Z</time>
		</trkpt>
		<trkpt lat="53.8834953308105" lon="13.3224153518677">
			<ele>51.0999984741211</ele>
			<time>2014-04-13T12:24:53Z</time>
		</trkpt>
		<trkpt lat="53.8834800720215" lon="13.3225402832031">
			<ele>51.2000007629395</ele>
			<time>2014-04-13T12:24:54Z</time>
		</trkpt>
		<trkpt lat="53.8834648132324" lon="13.3226652145386">
			<ele>51.0999984741211</ele>
			<time>2014-04-13T12:24:55Z</time>
		</trkpt>
		<trkpt lat="53.8834495544434" lon="13.3227920532227">
			<ele>51</ele>
			<time>2014-04-13T12:24:56Z</time>
		</trkpt>
		<trkpt lat="53.8834342956543" lon="13.3229169845581">
			<ele>51</ele>
			<time>2014-04-13T12:24:57Z</time>
		</trkpt>
		<trkpt lat="53.8834190368652" lon="13.3230419158936">
			<ele>51.0999984741211</ele>
			<time>2014-04-13T12:24:58Z</time>
		</trkpt>
		<trkpt lat="53.8834037780762" lon="13.3231706619263">
			<ele>51.2000007629395</ele>
			<time>2014-04-13T12:24:59Z</time>
		</trkpt>
		<trkpt lat="53.8833885192871" lon="13.3232984542847">
			<ele>51.2999992370605</ele>
			<time>2014-04-13T12:25:00Z</time>
		</trkpt>
		<trkpt lat="53.883373260498" lon="13.3234262466431">
			<ele>51.2999992370605</ele>
			<time>2014-04-13T12:25:01Z</time>
		</trkpt>
		<trkpt lat="53.883358001709" lon="13.3235549926758">
			<ele>51.2000007629395</ele>
			<time>2014-04-13T12:25:02Z</time>
		</trkpt>
		<trkpt lat="53.8833465576172" lon="13.3236837387085">
			<ele>51.2000007629395</ele>
			<time>2014-04-13T12:25:03Z</time>
		</trkpt>
		<trkpt lat="53.8833274841309" lon="13.3238153457642">
			<ele>51</ele>
			<time>2014-04-13T12:25:04Z</time>
		</trkpt>
		<trkpt lat="53.8833160400391" lon="13.3239431381226">
			<ele>51.0999984741211</ele>
			<time>2014-04-13T12:25:05Z</time>
		</trkpt>
		<trkpt lat="53.8833045959473" lon="13.3240737915039">
			<ele>51.2999992370605</ele>
			<time>2014-04-13T12:25:06Z</time>
		</trkpt>
		<trkpt lat="53.8832893371582" lon="13.3242034912109">
			<ele>51.2999992370605</ele>
			<time>2014-04-13T12:25:07Z</time>
		</trkpt>
		<trkpt lat="53.8832740783691" lon="13.324333190918">
			<ele>51.2000007629395</ele>
			<time>2014-04-13T12:25:08Z</time>
		</trkpt>
		<trkpt lat="53.8832550048828" lon="13.3244667053223">
			<ele>51.2000007629395</ele>
			<time>2014-04-13T12:25:09Z</time>
		</trkpt>
		<trkpt lat="53.8832397460938" lon="13.3245992660522">
			<ele>51.2000007629395</ele>
			<time>2014-04-13T12:25:10Z</time>
		</trkpt>
		<trkpt lat="53.8832244873047" lon="13.3247299194336">
			<ele>51</ele>
			<time>2014-04-13T12:25:11Z</time>
		</trkpt>
		<trkpt lat="53.8832092285156" lon="13.3248634338379">
			<ele>51</ele>
			<time>2014-04-13T12:25:12Z</time>
		</trkpt>
		<trkpt lat="53.8831977844238" lon="13.3249950408936">
			<ele>51.0999984741211</ele>
			<time>2014-04-13T12:25:13Z</time>
		</trkpt>
		<trkpt lat="53.8831787109375" lon="13.3251285552979">
			<ele>51.2000007629395</ele>
			<time>2014-04-13T12:25:14Z</time>
		</trkpt>
		<trkpt lat="53.8831634521484" lon="13.3252620697021">
			<ele>51</ele>
			<time>2014-04-13T12:25:15Z</time>
		</trkpt>
		<trkpt lat="53.8831481933594" lon="13.3253946304321">
			<ele>50.9000015258789</ele>
			<time>2014-04-13T12:25:16Z</time>
		</trkpt>
		<trkpt lat="53.883129119873" lon="13.3255290985107">
			<ele>51</ele>
			<time>2014-04-13T12:25:17Z</time>
		</trkpt>
		<trkpt lat="53.883113861084" lon="13.325662612915">
			<ele>51.0999984741211</ele>
			<time>2014-04-13T12:25:18Z</time>
		</trkpt>
		<trkpt lat="53.8830947875977" lon="13.3257970809937">
			<ele>51</ele>
			<time>2014-04-13T12:25:19Z</time>
		</trkpt>
		<trkpt lat="53.8830757141113" lon="13.3259315490723">
			<ele>51.2000007629395</ele>
			<time>2014-04-13T12:25:20Z</time>
		</trkpt>
		<trkpt lat="53.8830604553223" lon="13.3260698318481">
			<ele>51.2000007629395</ele>
			<time>2014-04-13T12:25:21Z</time>
		</trkpt>
		<trkpt lat="53.8830490112305" lon="13.3262062072754">
			<ele>51.4000015258789</ele>
			<time>2014-04-13T12:25:22Z</time>
		</trkpt>
		<trkpt lat="53.8830299377441" lon="13.3263444900513">
			<ele>51.2000007629395</ele>
			<time>2014-04-13T12:25:23Z</time>
		</trkpt>
		<trkpt lat="53.8830146789551" lon="13.3264808654785">
			<ele>51.2000007629395</ele>
			<time>2014-04-13T12:25:24Z</time>
		</trkpt>
		<trkpt lat="53.882999420166" lon="13.3266191482544">
			<ele>51.0999984741211</ele>
			<time>2014-04-13T12:25:25Z</time>
		</trkpt>
		<trkpt lat="53.8829803466797" lon="13.3267583847046">
			<ele>50.9000015258789</ele>
			<time>2014-04-13T12:25:26Z</time>
		</trkpt>
		<trkpt lat="53.8829612731934" lon="13.3268995285034">
			<ele>50.9000015258789</ele>
			<time>2014-04-13T12:25:27Z</time>
		</trkpt>
		<trkpt lat="53.8829460144043" lon="13.3270416259766">
			<ele>50.7000007629395</ele>
			<time>2014-04-13T12:25:28Z</time>
		</trkpt>
		<trkpt lat="53.8829307556152" lon="13.3271865844727">
			<ele>50.5999984741211</ele>
			<time>2014-04-13T12:25:29Z</time>
		</trkpt>
		<trkpt lat="53.8829154968262" lon="13.3273334503174">
			<ele>50.2999992370605</ele>
			<time>2014-04-13T12:25:30Z</time>
		</trkpt>
		<trkpt lat="53.8829002380371" lon="13.3274774551392">
			<ele>50.2999992370605</ele>
			<time>2014-04-13T12:25:31Z</time>
		</trkpt>
		<trkpt lat="53.8828811645508" lon="13.3276214599609">
			<ele>50.0999984741211</ele>
			<time>2014-04-13T12:25:32Z</time>
		</trkpt>
		<trkpt lat="53.8828620910645" lon="13.3277654647827">
			<ele>50.0999984741211</ele>
			<time>2014-04-13T12:25:33Z</time>
		</trkpt>
		<trkpt lat="53.8828430175781" lon="13.3279113769531">
			<ele>50.2000007629395</ele>
			<time>2014-04-13T12:25:34Z</time>
		</trkpt>
		<trkpt lat="53.8828277587891" lon="13.3280572891235">
			<ele>50.0999984741211</ele>
			<time>2014-04-13T12:25:35Z</time>
		</trkpt>
		<trkpt lat="53.8828086853027" lon="13.3282012939453">
			<ele>50.0999984741211</ele>
			<time>2014-04-13T12:25:36Z</time>
		</trkpt>
		<trkpt lat="53.8827857971191" lon="13.3283491134644">
			<ele>49.9000015258789</ele>
			<time>2014-04-13T12:25:37Z</time>
		</trkpt>
		<trkpt lat="53.8827705383301" lon="13.328501701355">
			<ele>49.7000007629395</ele>
			<time>2014-04-13T12:25:38Z</time>
		</trkpt>
		<trkpt lat="53.882755279541" lon="13.3286552429199">
			<ele>49.5</ele>
			<time>2014-04-13T12:25:39Z</time>
		</trkpt>
		<trkpt lat="53.8827362060547" lon="13.328803062439">
			<ele>49.2000007629395</ele>
			<time>2014-04-13T12:25:40Z</time>
		</trkpt>
		<trkpt lat="53.8827171325684" lon="13.3289480209351">
			<ele>49.5999984741211</ele>
			<time>2014-04-13T12:25:41Z</time>
		</trkpt>
		<trkpt lat="53.882698059082" lon="13.3291034698486">
			<ele>49.5</ele>
			<time>2014-04-13T12:25:42Z</time>
		</trkpt>
		<trkpt lat="53.882682800293" lon="13.3292579650879">
			<ele>49.9000015258789</ele>
			<time>2014-04-13T12:25:43Z</time>
		</trkpt>
		<trkpt lat="53.8826599121094" lon="13.3294143676758">
			<ele>50.0999984741211</ele>
			<time>2014-04-13T12:25:44Z</time>
		</trkpt>
		<trkpt lat="53.8826446533203" lon="13.329571723938">
			<ele>50</ele>
			<time>2014-04-13T12:25:45Z</time>
		</trkpt>
		<trkpt lat="53.882625579834" lon="13.3297281265259">
			<ele>49.9000015258789</ele>
			<time>2014-04-13T12:25:46Z</time>
		</trkpt>
		<trkpt lat="53.8826065063477" lon="13.3298835754395">
			<ele>50</ele>
			<time>2014-04-13T12:25:47Z</time>
		</trkpt>
		<trkpt lat="53.8825912475586" lon="13.3300428390503">
			<ele>50</ele>
			<time>2014-04-13T12:25:48Z</time>
		</trkpt>
		<trkpt lat="53.882568359375" lon="13.3302011489868">
			<ele>50</ele>
			<time>2014-04-13T12:25:49Z</time>
		</trkpt>
		<trkpt lat="53.8825531005859" lon="13.3303556442261">
			<ele>49.7999992370605</ele>
			<time>2014-04-13T12:25:50Z</time>
		</trkpt>
		<trkpt lat="53.8825340270996" lon="13.3305149078369">
			<ele>49.9000015258789</ele>
			<time>2014-04-13T12:25:51Z</time>
		</trkpt>
		<trkpt lat="53.8825149536133" lon="13.3306760787964">
			<ele>49.7999992370605</ele>
			<time>2014-04-13T12:25:52Z</time>
		</trkpt>
		<trkpt lat="53.882495880127" lon="13.3308362960815">
			<ele>49.7999992370605</ele>
			<time>2014-04-13T12:25:53Z</time>
		</trkpt>
		<trkpt lat="53.8824768066406" lon="13.3309946060181">
			<ele>49.7000007629395</ele>
			<time>2014-04-13T12:25:54Z</time>
		</trkpt>
		<trkpt lat="53.8824653625488" lon="13.3311567306519">
			<ele>49.7000007629395</ele>
			<time>2014-04-13T12:25:55Z</time>
		</trkpt>
		<trkpt lat="53.8824501037598" lon="13.3313159942627">
			<ele>49.5999984741211</ele>
			<time>2014-04-13T12:25:56Z</time>
		</trkpt>
		<trkpt lat="53.8824310302734" lon="13.3314771652222">
			<ele>49.7000007629395</ele>
			<time>2014-04-13T12:25:57Z</time>
		</trkpt>
		<trkpt lat="53.8824119567871" lon="13.331636428833">
			<ele>49.5999984741211</ele>
			<time>2014-04-13T12:25:58Z</time>
		</trkpt>
		<trkpt lat="53.8823928833008" lon="13.3317966461182">
			<ele>49.7000007629395</ele>
			<time>2014-04-13T12:25:59Z</time>
		</trkpt>
		<trkpt lat="53.8823738098145" lon="13.3319568634033">
			<ele>49.7000007629395</ele>
			<time>2014-04-13T12:26:00Z</time>
		</trkpt>
		<trkpt lat="53.8823547363281" lon="13.3321142196655">
			<ele>49.5999984741211</ele>
			<time>2014-04-13T12:26:01Z</time>
		</trkpt>
		<trkpt lat="53.8823394775391" lon="13.3322744369507">
			<ele>49.5</ele>
			<time>2014-04-13T12:26:02Z</time>
		</trkpt>
		<trkpt lat="53.8823204040527" lon="13.3324365615845">
			<ele>49.5</ele>
			<time>2014-04-13T12:26:03Z</time>
		</trkpt>
		<trkpt lat="53.8823051452637" lon="13.3325958251953">
			<ele>49.2999992370605</ele>
			<time>2014-04-13T12:26:06Z</time>
		</trkpt>
		<trkpt lat="53.8822479248047" lon="13.333080291748">
			<ele>49</ele>
			<time>2014-04-13T12:26:08Z</time>
		</trkpt>
		<trkpt lat="53.8822059631348" lon="13.3333940505981">
			<ele>48.7000007629395</ele>
			<time>2014-04-13T12:26:09Z</time>
		</trkpt>
		<trkpt lat="53.8821868896484" lon="13.333553314209">
			<ele>48.7000007629395</ele>
			<time>2014-04-13T12:26:10Z</time>
		</trkpt>
		<trkpt lat="53.8821716308594" lon="13.3337163925171">
			<ele>48.4000015258789</ele>
			<time>2014-04-13T12:26:11Z</time>
		</trkpt>
		<trkpt lat="53.8821601867676" lon="13.3338823318481">
			<ele>48.4000015258789</ele>
			<time>2014-04-13T12:26:13Z</time>
		</trkpt>
		<trkpt lat="53.8821220397949" lon="13.3342113494873">
			<ele>48</ele>
			<time>2014-04-13T12:26:14Z</time>
		</trkpt>
		<trkpt lat="53.8821029663086" lon="13.334376335144">
			<ele>48.0999984741211</ele>
			<time>2014-04-13T12:26:15Z</time>
		</trkpt>
		<trkpt lat="53.8820877075195" lon="13.3345422744751">
			<ele>48</ele>
			<time>2014-04-13T12:26:16Z</time>
		</trkpt>
		<trkpt lat="53.8820648193359" lon="13.3347034454346">
			<ele>48</ele>
			<time>2014-04-13T12:26:18Z</time>
		</trkpt>
		<trkpt lat="53.8820266723633" lon="13.3350296020508">
			<ele>47.9000015258789</ele>
			<time>2014-04-13T12:26:19Z</time>
		</trkpt>
		<trkpt lat="53.8820114135742" lon="13.3351936340332">
			<ele>47.7000007629395</ele>
			<time>2014-04-13T12:26:20Z</time>
		</trkpt>
		<trkpt lat="53.8819961547852" lon="13.3353519439697">
			<ele>47.5</ele>
			<time>2014-04-13T12:26:21Z</time>
		</trkpt>
		<trkpt lat="53.8819808959961" lon="13.3355016708374">
			<ele>47.4000015258789</ele>
			<time>2014-04-13T12:26:23Z</time>
		</trkpt>
		<trkpt lat="53.8819580078125" lon="13.3356494903564">
			<ele>47</ele>
			<time>2014-04-13T12:26:23Z</time>
		</trkpt>
		<trkpt lat="53.8819274902344" lon="13.3357772827148">
			<ele>46.7999992370605</ele>
			<time>2014-04-13T12:26:24Z</time>
		</trkpt>
		<trkpt lat="53.8818778991699" lon="13.3358755111694">
			<ele>46.4000015258789</ele>
			<time>2014-04-13T12:26:25Z</time>
		</trkpt>
		<trkpt lat="53.8817710876465" lon="13.3358793258667">
			<ele>47.5</ele>
			<time>2014-04-13T12:26:26Z</time>
		</trkpt>
		<trkpt lat="53.8816909790039" lon="13.3358669281006">
			<ele>47.5</ele>
			<time>2014-04-13T12:26:27Z</time>
		</trkpt>
		<trkpt lat="53.8816146850586" lon="13.3358364105225">
			<ele>47.9000015258789</ele>
			<time>2014-04-13T12:26:28Z</time>
		</trkpt>
		<trkpt lat="53.8815422058105" lon="13.3358163833618">
			<ele>47.7999992370605</ele>
			<time>2014-04-13T12:26:29Z</time>
		</trkpt>
		<trkpt lat="53.8814697265625" lon="13.3358068466187">
			<ele>47.9000015258789</ele>
			<time>2014-04-13T12:26:30Z</time>
		</trkpt>
		<trkpt lat="53.8813972473145" lon="13.335789680481">
			<ele>48</ele>
			<time>2014-04-13T12:26:31Z</time>
		</trkpt>
		<trkpt lat="53.8813285827637" lon="13.3357725143433">
			<ele>48.0999984741211</ele>
			<time>2014-04-13T12:26:32Z</time>
		</trkpt>
		<trkpt lat="53.8812637329102" lon="13.3357563018799">
			<ele>48.2000007629395</ele>
			<time>2014-04-13T12:26:33Z</time>
		</trkpt>
		<trkpt lat="53.8811988830566" lon="13.3357429504395">
			<ele>48.5</ele>
			<time>2014-04-13T12:26:34Z</time>
		</trkpt>
		<trkpt lat="53.8811378479004" lon="13.3357353210449">
			<ele>48.4000015258789</ele>
			<time>2014-04-13T12:26:35Z</time>
		</trkpt>
		<trkpt lat="53.8810768127441" lon="13.3357238769531">
			<ele>48.4000015258789</ele>
			<time>2014-04-13T12:26:36Z</time>
		</trkpt>
		<trkpt lat="53.8810157775879" lon="13.335711479187">
			<ele>48.5</ele>
			<time>2014-04-13T12:26:37Z</time>
		</trkpt>
		<trkpt lat="53.8809585571289" lon="13.3357057571411">
			<ele>48.4000015258789</ele>
			<time>2014-04-13T12:26:38Z</time>
		</trkpt>
		<trkpt lat="53.8809051513672" lon="13.3357028961182">
			<ele>48.5999984741211</ele>
			<time>2014-04-13T12:26:39Z</time>
		</trkpt>
		<trkpt lat="53.8808517456055" lon="13.3356952667236">
			<ele>48.7999992370605</ele>
			<time>2014-04-13T12:26:40Z</time>
		</trkpt>
		<trkpt lat="53.8807983398438" lon="13.3356876373291">
			<ele>48.5999984741211</ele>
			<time>2014-04-13T12:26:41Z</time>
		</trkpt>
		<trkpt lat="53.8807487487793" lon="13.3356885910034">
			<ele>48.4000015258789</ele>
			<time>2014-04-13T12:26:42Z</time>
		</trkpt>
		<trkpt lat="53.8806991577148" lon="13.3357019424438">
			<ele>48.5</ele>
			<time>2014-04-13T12:26:43Z</time>
		</trkpt>
		<trkpt lat="53.8806610107422" lon="13.3357563018799">
			<ele>48.2000007629395</ele>
			<time>2014-04-13T12:26:44Z</time>
		</trkpt>
		<trkpt lat="53.8806419372559" lon="13.335844039917">
			<ele>47.9000015258789</ele>
			<time>2014-04-13T12:26:45Z</time>
		</trkpt>
		<trkpt lat="53.8806381225586" lon="13.3359422683716">
			<ele>47.5999984741211</ele>
			<time>2014-04-13T12:26:46Z</time>
		</trkpt>
		<trkpt lat="53.8806304931641" lon="13.3360462188721">
			<ele>47.5</ele>
			<time>2014-04-13T12:26:47Z</time>
		</trkpt>
		<trkpt lat="53.8806266784668" lon="13.3361511230469">
			<ele>47.4000015258789</ele>
			<time>2014-04-13T12:26:48Z</time>
		</trkpt>
		<trkpt lat="53.8806228637695" lon="13.3362627029419">
			<ele>47.2999992370605</ele>
			<time>2014-04-13T12:26:49Z</time>
		</trkpt>
		<trkpt lat="53.8806190490723" lon="13.3363780975342">
			<ele>47.2000007629395</ele>
			<time>2014-04-13T12:26:50Z</time>
		</trkpt>
		<trkpt lat="53.8806076049805" lon="13.3364963531494">
			<ele>46.9000015258789</ele>
			<time>2014-04-13T12:26:51Z</time>
		</trkpt>
		<trkpt lat="53.8805885314941" lon="13.336612701416">
			<ele>46.9000015258789</ele>
			<time>2014-04-13T12:26:52Z</time>
		</trkpt>
		<trkpt lat="53.8805656433105" lon="13.3367309570313">
			<ele>46.5</ele>
			<time>2014-04-13T12:26:53Z</time>
		</trkpt>
		<trkpt lat="53.8805503845215" lon="13.3368539810181">
			<ele>46.2999992370605</ele>
			<time>2014-04-13T12:26:54Z</time>
		</trkpt>
		<trkpt lat="53.8805503845215" lon="13.3369846343994">
			<ele>46.2000007629395</ele>
			<time>2014-04-13T12:26:55Z</time>
		</trkpt>
		<trkpt lat="53.8805656433105" lon="13.3371133804321">
			<ele>46.2000007629395</ele>
			<time>2014-04-13T12:26:56Z</time>
		</trkpt>
		<trkpt lat="53.8805885314941" lon="13.3372402191162">
			<ele>46.2999992370605</ele>
			<time>2014-04-13T12:26:57Z</time>
		</trkpt>
		<trkpt lat="53.880615234375" lon="13.3373680114746">
			<ele>46.0999984741211</ele>
			<time>2014-04-13T12:26:58Z</time>
		</trkpt>
		<trkpt lat="53.8806419372559" lon="13.337498664856">
			<ele>46</ele>
			<time>2014-04-13T12:26:59Z</time>
		</trkpt>
		<trkpt lat="53.880672454834" lon="13.337628364563">
			<ele>46</ele>
			<time>2014-04-13T12:27:00Z</time>
		</trkpt>
		<trkpt lat="53.8806991577148" lon="13.3377618789673">
			<ele>45.7999992370605</ele>
			<time>2014-04-13T12:27:01Z</time>
		</trkpt>
		<trkpt lat="53.880729675293" lon="13.3378944396973">
			<ele>45.9000015258789</ele>
			<time>2014-04-13T12:27:02Z</time>
		</trkpt>
		<trkpt lat="53.8807640075684" lon="13.3380260467529">
			<ele>46</ele>
			<time>2014-04-13T12:27:03Z</time>
		</trkpt>
		<trkpt lat="53.8807907104492" lon="13.3381567001343">
			<ele>46</ele>
			<time>2014-04-13T12:27:05Z</time>
		</trkpt>
		<trkpt lat="53.8808212280273" lon="13.3382892608643">
			<ele>46</ele>
			<time>2014-04-13T12:27:06Z</time>
		</trkpt>
		<trkpt lat="53.8808937072754" lon="13.3385419845581">
			<ele>46.0999984741211</ele>
			<time>2014-04-13T12:27:07Z</time>
		</trkpt>
		<trkpt lat="53.8809280395508" lon="13.3386688232422">
			<ele>46.2000007629395</ele>
			<time>2014-04-13T12:27:08Z</time>
		</trkpt>
		<trkpt lat="53.8809623718262" lon="13.3387966156006">
			<ele>46.2000007629395</ele>
			<time>2014-04-13T12:27:09Z</time>
		</trkpt>
		<trkpt lat="53.8809928894043" lon="13.338924407959">
			<ele>46</ele>
			<time>2014-04-13T12:27:10Z</time>
		</trkpt>
		<trkpt lat="53.8810234069824" lon="13.3390502929688">
			<ele>45.7000007629395</ele>
			<time>2014-04-13T12:27:11Z</time>
		</trkpt>
		<trkpt lat="53.8810577392578" lon="13.3391761779785">
			<ele>45.7000007629395</ele>
			<time>2014-04-13T12:27:12Z</time>
		</trkpt>
		<trkpt lat="53.8810920715332" lon="13.3393030166626">
			<ele>45.7999992370605</ele>
			<time>2014-04-13T12:27:13Z</time>
		</trkpt>
		<trkpt lat="53.8811264038086" lon="13.3394298553467">
			<ele>46.0999984741211</ele>
			<time>2014-04-13T12:27:14Z</time>
		</trkpt>
		<trkpt lat="53.8811569213867" lon="13.3395624160767">
			<ele>46.0999984741211</ele>
			<time>2014-04-13T12:27:15Z</time>
		</trkpt>
		<trkpt lat="53.8811836242676" lon="13.339693069458">
			<ele>46.2999992370605</ele>
			<time>2014-04-13T12:27:16Z</time>
		</trkpt>
		<trkpt lat="53.8811950683594" lon="13.3398294448853">
			<ele>46.4000015258789</ele>
			<time>2014-04-13T12:27:18Z</time>
		</trkpt>
		<trkpt lat="53.881233215332" lon="13.3400745391846">
			<ele>44.7999992370605</ele>
			<time>2014-04-13T12:27:19Z</time>
		</trkpt>
		<trkpt lat="53.8812446594238" lon="13.3402366638184">
			<ele>45.5</ele>
			<time>2014-04-13T12:27:21Z</time>
		</trkpt>
		<trkpt lat="53.8812789916992" lon="13.340500831604">
			<ele>46.2999992370605</ele>
			<time>2014-04-13T12:27:23Z</time>
		</trkpt>
		<trkpt lat="53.8813209533691" lon="13.3407669067383">
			<ele>46.5</ele>
			<time>2014-04-13T12:27:24Z</time>
		</trkpt>
		<trkpt lat="53.8813362121582" lon="13.3408994674683">
			<ele>46.7999992370605</ele>
			<time>2014-04-13T12:27:25Z</time>
		</trkpt>
		<trkpt lat="53.8813514709473" lon="13.3410301208496">
			<ele>47.2000007629395</ele>
			<time>2014-04-13T12:27:26Z</time>
		</trkpt>
		<trkpt lat="53.8813667297363" lon="13.3411636352539">
			<ele>47.2000007629395</ele>
			<time>2014-04-13T12:27:27Z</time>
		</trkpt>
		<trkpt lat="53.8813781738281" lon="13.341290473938">
			<ele>47.9000015258789</ele>
			<time>2014-04-13T12:27:28Z</time>
		</trkpt>
		<trkpt lat="53.8813934326172" lon="13.3414173126221">
			<ele>48</ele>
			<time>2014-04-13T12:27:29Z</time>
		</trkpt>
		<trkpt lat="53.8814125061035" lon="13.3415451049805">
			<ele>48.2000007629395</ele>
			<time>2014-04-13T12:27:30Z</time>
		</trkpt>
		<trkpt lat="53.8814277648926" lon="13.3416738510132">
			<ele>48.0999984741211</ele>
			<time>2014-04-13T12:27:31Z</time>
		</trkpt>
		<trkpt lat="53.8814430236816" lon="13.3417997360229">
			<ele>48</ele>
			<time>2014-04-13T12:27:32Z</time>
		</trkpt>
		<trkpt lat="53.881462097168" lon="13.3419198989868">
			<ele>48.0999984741211</ele>
			<time>2014-04-13T12:27:33Z</time>
		</trkpt>
		<trkpt lat="53.8814735412598" lon="13.3420400619507">
			<ele>48.2000007629395</ele>
			<time>2014-04-13T12:27:34Z</time>
		</trkpt>
		<trkpt lat="53.8814888000488" lon="13.3421602249146">
			<ele>48.7000007629395</ele>
			<time>2014-04-13T12:27:35Z</time>
		</trkpt>
		<trkpt lat="53.8815040588379" lon="13.3422775268555">
			<ele>48.7999992370605</ele>
			<time>2014-04-13T12:27:36Z</time>
		</trkpt>
		<trkpt lat="53.8815155029297" lon="13.342399597168">
			<ele>49</ele>
			<time>2014-04-13T12:27:37Z</time>
		</trkpt>
		<trkpt lat="53.8815269470215" lon="13.3425216674805">
			<ele>49.2000007629395</ele>
			<time>2014-04-13T12:27:38Z</time>
		</trkpt>
		<trkpt lat="53.8815383911133" lon="13.3426399230957">
			<ele>49.5</ele>
			<time>2014-04-13T12:27:39Z</time>
		</trkpt>
		<trkpt lat="53.8815498352051" lon="13.3427581787109">
			<ele>49.7999992370605</ele>
			<time>2014-04-13T12:27:40Z</time>
		</trkpt>
		<trkpt lat="53.8815650939941" lon="13.3428764343262">
			<ele>49.9000015258789</ele>
			<time>2014-04-13T12:27:41Z</time>
		</trkpt>
		<trkpt lat="53.8815803527832" lon="13.3429937362671">
			<ele>49.9000015258789</ele>
			<time>2014-04-13T12:27:42Z</time>
		</trkpt>
		<trkpt lat="53.8815956115723" lon="13.343111038208">
			<ele>50.0999984741211</ele>
			<time>2014-04-13T12:27:43Z</time>
		</trkpt>
		<trkpt lat="53.8816070556641" lon="13.3432264328003">
			<ele>50.2999992370605</ele>
			<time>2014-04-13T12:27:44Z</time>
		</trkpt>
		<trkpt lat="53.8816223144531" lon="13.3433418273926">
			<ele>50.4000015258789</ele>
			<time>2014-04-13T12:27:45Z</time>
		</trkpt>
		<trkpt lat="53.8816375732422" lon="13.3434534072876">
			<ele>50.7999992370605</ele>
			<time>2014-04-13T12:27:46Z</time>
		</trkpt>
		<trkpt lat="53.8816528320313" lon="13.3435611724854">
			<ele>51</ele>
			<time>2014-04-13T12:27:47Z</time>
		</trkpt>
		<trkpt lat="53.8816680908203" lon="13.3436698913574">
			<ele>51.4000015258789</ele>
			<time>2014-04-13T12:27:48Z</time>
		</trkpt>
		<trkpt lat="53.8816795349121" lon="13.3437728881836">
			<ele>51.9000015258789</ele>
			<time>2014-04-13T12:27:49Z</time>
		</trkpt>
		<trkpt lat="53.8816909790039" lon="13.3438758850098">
			<ele>52.0999984741211</ele>
			<time>2014-04-13T12:27:50Z</time>
		</trkpt>
		<trkpt lat="53.8816986083984" lon="13.3439683914185">
			<ele>52.5</ele>
			<time>2014-04-13T12:27:51Z</time>
		</trkpt>
		<trkpt lat="53.8817100524902" lon="13.3440561294556">
			<ele>53.0999984741211</ele>
			<time>2014-04-13T12:27:52Z</time>
		</trkpt>
		<trkpt lat="53.881721496582" lon="13.3441362380981">
			<ele>53.7000007629395</ele>
			<time>2014-04-13T12:27:53Z</time>
		</trkpt>
		<trkpt lat="53.8817329406738" lon="13.3442134857178">
			<ele>53.9000015258789</ele>
			<time>2014-04-13T12:27:54Z</time>
		</trkpt>
		<trkpt lat="53.8817443847656" lon="13.3442897796631">
			<ele>54.4000015258789</ele>
			<time>2014-04-13T12:27:55Z</time>
		</trkpt>
		<trkpt lat="53.8817672729492" lon="13.3444290161133">
			<ele>54.7000007629395</ele>
			<time>2014-04-13T12:27:57Z</time>
		</trkpt>
		<trkpt lat="53.8817863464355" lon="13.3445510864258">
			<ele>55.2999992370605</ele>
			<time>2014-04-13T12:27:59Z</time>
		</trkpt>
		<trkpt lat="53.8817901611328" lon="13.3446617126465">
			<ele>55.7999992370605</ele>
			<time>2014-04-13T12:28:01Z</time>
		</trkpt>
		<trkpt lat="53.8818016052246" lon="13.344762802124">
			<ele>56.0999984741211</ele>
			<time>2014-04-13T12:28:03Z</time>
		</trkpt>
		<trkpt lat="53.8818130493164" lon="13.3448629379272">
			<ele>56.5999984741211</ele>
			<time>2014-04-13T12:28:05Z</time>
		</trkpt>
		<trkpt lat="53.8818244934082" lon="13.3449516296387">
			<ele>57.2000007629395</ele>
			<time>2014-04-13T12:28:07Z</time>
		</trkpt>
		<trkpt lat="53.8818283081055" lon="13.3450355529785">
			<ele>57.4000015258789</ele>
			<time>2014-04-13T12:28:09Z</time>
		</trkpt>
		<trkpt lat="53.8818435668945" lon="13.3451166152954">
			<ele>57.7999992370605</ele>
			<time>2014-04-13T12:28:11Z</time>
		</trkpt>
		<trkpt lat="53.8818550109863" lon="13.3452014923096">
			<ele>57.5999984741211</ele>
			<time>2014-04-13T12:28:13Z</time>
		</trkpt>
		<trkpt lat="53.8818740844727" lon="13.345287322998">
			<ele>57.7999992370605</ele>
			<time>2014-04-13T12:28:15Z</time>
		</trkpt>
		<trkpt lat="53.8818778991699" lon="13.3453769683838">
			<ele>58.2000007629395</ele>
			<time>2014-04-13T12:28:17Z</time>
		</trkpt>
		<trkpt lat="53.8818817138672" lon="13.3454618453979">
			<ele>58.5</ele>
			<time>2014-04-13T12:28:19Z</time>
		</trkpt>
		<trkpt lat="53.8818778991699" lon="13.3455686569214">
			<ele>58.7999992370605</ele>
			<time>2014-04-13T12:28:22Z</time>
		</trkpt>
		<trkpt lat="53.8819046020508" lon="13.3456783294678">
			<ele>56.2000007629395</ele>
			<time>2014-04-13T12:30:05Z</time>
		</trkpt>
		<trkpt lat="53.8819313049316" lon="13.3458814620972">
			<ele>56.5999984741211</ele>
			<time>2014-04-13T12:30:11Z</time>
		</trkpt>
		<trkpt lat="53.8819808959961" lon="13.3462285995483">
			<ele>56.5</ele>
			<time>2014-04-13T12:30:14Z</time>
		</trkpt>
		<trkpt lat="53.882022857666" lon="13.3465909957886">
			<ele>55.4000015258789</ele>
			<time>2014-04-13T12:30:21Z</time>
		</trkpt>
		<trkpt lat="53.8821144104004" lon="13.3473463058472">
			<ele>52.7000007629395</ele>
			<time>2014-04-13T12:30:25Z</time>
		</trkpt>
		<trkpt lat="53.8821868896484" lon="13.3479623794556">
			<ele>50.9000015258789</ele>
			<time>2014-04-13T12:30:28Z</time>
		</trkpt>
		<trkpt lat="53.882266998291" lon="13.3485956192017">
			<ele>51</ele>
			<time>2014-04-13T12:30:32Z</time>
		</trkpt>
		<trkpt lat="53.8823318481445" lon="13.3490552902222">
			<ele>51.2000007629395</ele>
			<time>2014-04-13T12:30:33Z</time>
		</trkpt>
		<trkpt lat="53.8823585510254" lon="13.3492050170898">
			<ele>51</ele>
			<time>2014-04-13T12:30:34Z</time>
		</trkpt>
		<trkpt lat="53.8824043273926" lon="13.3494968414307">
			<ele>51</ele>
			<time>2014-04-13T12:30:35Z</time>
		</trkpt>
		<trkpt lat="53.8824234008789" lon="13.3496427536011">
			<ele>51.0999984741211</ele>
			<time>2014-04-13T12:30:36Z</time>
		</trkpt>
		<trkpt lat="53.8824424743652" lon="13.3497886657715">
			<ele>51</ele>
			<time>2014-04-13T12:30:37Z</time>
		</trkpt>
		<trkpt lat="53.8824653625488" lon="13.3499231338501">
			<ele>51.0999984741211</ele>
			<time>2014-04-13T12:30:38Z</time>
		</trkpt>
		<trkpt lat="53.8824806213379" lon="13.3500642776489">
			<ele>51.2000007629395</ele>
			<time>2014-04-13T12:30:39Z</time>
		</trkpt>
		<trkpt lat="53.8824996948242" lon="13.3502006530762">
			<ele>51.2000007629395</ele>
			<time>2014-04-13T12:30:40Z</time>
		</trkpt>
		<trkpt lat="53.8825073242188" lon="13.350341796875">
			<ele>51.2999992370605</ele>
			<time>2014-04-13T12:30:41Z</time>
		</trkpt>
		<trkpt lat="53.8825225830078" lon="13.3504791259766">
			<ele>51.4000015258789</ele>
			<time>2014-04-13T12:30:42Z</time>
		</trkpt>
		<trkpt lat="53.8825454711914" lon="13.3506107330322">
			<ele>51.5</ele>
			<time>2014-04-13T12:30:43Z</time>
		</trkpt>
		<trkpt lat="53.8825607299805" lon="13.3507432937622">
			<ele>51.5</ele>
			<time>2014-04-13T12:30:44Z</time>
		</trkpt>
		<trkpt lat="53.8825759887695" lon="13.3508758544922">
			<ele>51.4000015258789</ele>
			<time>2014-04-13T12:30:45Z</time>
		</trkpt>
		<trkpt lat="53.8825874328613" lon="13.3510084152222">
			<ele>51.2999992370605</ele>
			<time>2014-04-13T12:30:46Z</time>
		</trkpt>
		<trkpt lat="53.8826065063477" lon="13.3511362075806">
			<ele>51.2000007629395</ele>
			<time>2014-04-13T12:30:47Z</time>
		</trkpt>
		<trkpt lat="53.8826179504395" lon="13.3512592315674">
			<ele>51.2999992370605</ele>
			<time>2014-04-13T12:30:48Z</time>
		</trkpt>
		<trkpt lat="53.8826370239258" lon="13.3513813018799">
			<ele>51.5</ele>
			<time>2014-04-13T12:30:49Z</time>
		</trkpt>
		<trkpt lat="53.8826522827148" lon="13.3515014648438">
			<ele>51.4000015258789</ele>
			<time>2014-04-13T12:30:50Z</time>
		</trkpt>
		<trkpt lat="53.8826675415039" lon="13.3516178131104">
			<ele>51.4000015258789</ele>
			<time>2014-04-13T12:30:51Z</time>
		</trkpt>
		<trkpt lat="53.882682800293" lon="13.3517379760742">
			<ele>51.2999992370605</ele>
			<time>2014-04-13T12:30:52Z</time>
		</trkpt>
		<trkpt lat="53.882698059082" lon="13.3518514633179">
			<ele>51.5</ele>
			<time>2014-04-13T12:30:53Z</time>
		</trkpt>
		<trkpt lat="53.8827095031738" lon="13.3519601821899">
			<ele>51.5999984741211</ele>
			<time>2014-04-13T12:30:54Z</time>
		</trkpt>
		<trkpt lat="53.8827247619629" lon="13.352068901062">
			<ele>51.4000015258789</ele>
			<time>2014-04-13T12:30:55Z</time>
		</trkpt>
		<trkpt lat="53.8827362060547" lon="13.3521738052368">
			<ele>51.5</ele>
			<time>2014-04-13T12:30:56Z</time>
		</trkpt>
		<trkpt lat="53.8827476501465" lon="13.3522748947144">
			<ele>51.4000015258789</ele>
			<time>2014-04-13T12:30:57Z</time>
		</trkpt>
		<trkpt lat="53.8827629089355" lon="13.3523788452148">
			<ele>51.4000015258789</ele>
			<time>2014-04-13T12:30:58Z</time>
		</trkpt>
		<trkpt lat="53.8827781677246" lon="13.3524808883667">
			<ele>51.4000015258789</ele>
			<time>2014-04-13T12:30:59Z</time>
		</trkpt>
		<trkpt lat="53.8827934265137" lon="13.3525800704956">
			<ele>51.5</ele>
			<time>2014-04-13T12:31:00Z</time>
		</trkpt>
		<trkpt lat="53.8828048706055" lon="13.3526773452759">
			<ele>51.7000007629395</ele>
			<time>2014-04-13T12:31:01Z</time>
		</trkpt>
		<trkpt lat="53.8828163146973" lon="13.3527774810791">
			<ele>51.7000007629395</ele>
			<time>2014-04-13T12:31:02Z</time>
		</trkpt>
		<trkpt lat="53.8828239440918" lon="13.3528709411621">
			<ele>52</ele>
			<time>2014-04-13T12:31:03Z</time>
		</trkpt>
		<trkpt lat="53.8828392028809" lon="13.3529691696167">
			<ele>52</ele>
			<time>2014-04-13T12:31:04Z</time>
		</trkpt>
		<trkpt lat="53.8828506469727" lon="13.3530683517456">
			<ele>51.7999992370605</ele>
			<time>2014-04-13T12:31:05Z</time>
		</trkpt>
		<trkpt lat="53.8828659057617" lon="13.3531675338745">
			<ele>51.7000007629395</ele>
			<time>2014-04-13T12:31:06Z</time>
		</trkpt>
		<trkpt lat="53.8828735351563" lon="13.3532695770264">
			<ele>51.9000015258789</ele>
			<time>2014-04-13T12:31:07Z</time>
		</trkpt>
		<trkpt lat="53.8828887939453" lon="13.3533639907837">
			<ele>52.0999984741211</ele>
			<time>2014-04-13T12:31:08Z</time>
		</trkpt>
		<trkpt lat="53.8828964233398" lon="13.3534564971924">
			<ele>52.4000015258789</ele>
			<time>2014-04-13T12:31:09Z</time>
		</trkpt>
		<trkpt lat="53.8829078674316" lon="13.3535490036011">
			<ele>52.5999984741211</ele>
			<time>2014-04-13T12:31:10Z</time>
		</trkpt>
		<trkpt lat="53.8829231262207" lon="13.3536386489868">
			<ele>52.4000015258789</ele>
			<time>2014-04-13T12:31:11Z</time>
		</trkpt>
		<trkpt lat="53.8829307556152" lon="13.3537311553955">
			<ele>52.0999984741211</ele>
			<time>2014-04-13T12:31:12Z</time>
		</trkpt>
		<trkpt lat="53.882942199707" lon="13.3538208007813">
			<ele>52</ele>
			<time>2014-04-13T12:31:13Z</time>
		</trkpt>
		<trkpt lat="53.8829498291016" lon="13.353910446167">
			<ele>51.9000015258789</ele>
			<time>2014-04-13T12:31:14Z</time>
		</trkpt>
		<trkpt lat="53.8829612731934" lon="13.35400390625">
			<ele>51.7000007629395</ele>
			<time>2014-04-13T12:31:15Z</time>
		</trkpt>
		<trkpt lat="53.8829765319824" lon="13.3540935516357">
			<ele>51.4000015258789</ele>
			<time>2014-04-13T12:31:16Z</time>
		</trkpt>
		<trkpt lat="53.8829879760742" lon="13.3541898727417">
			<ele>51.4000015258789</ele>
			<time>2014-04-13T12:31:17Z</time>
		</trkpt>
		<trkpt lat="53.8829956054688" lon="13.3542890548706">
			<ele>51.5999984741211</ele>
			<time>2014-04-13T12:31:18Z</time>
		</trkpt>
		<trkpt lat="53.8830032348633" lon="13.3543853759766">
			<ele>51.5</ele>
			<time>2014-04-13T12:31:19Z</time>
		</trkpt>
		<trkpt lat="53.8830146789551" lon="13.3544816970825">
			<ele>51.4000015258789</ele>
			<time>2014-04-13T12:31:20Z</time>
		</trkpt>
		<trkpt lat="53.8830261230469" lon="13.3545770645142">
			<ele>51.4000015258789</ele>
			<time>2014-04-13T12:31:21Z</time>
		</trkpt>
		<trkpt lat="53.8830375671387" lon="13.3546762466431">
			<ele>51.2999992370605</ele>
			<time>2014-04-13T12:31:22Z</time>
		</trkpt>
		<trkpt lat="53.8830490112305" lon="13.3547763824463">
			<ele>51.0999984741211</ele>
			<time>2014-04-13T12:31:23Z</time>
		</trkpt>
		<trkpt lat="53.8830642700195" lon="13.3548746109009">
			<ele>51</ele>
			<time>2014-04-13T12:31:24Z</time>
		</trkpt>
		<trkpt lat="53.8830757141113" lon="13.3549747467041">
			<ele>51.2000007629395</ele>
			<time>2014-04-13T12:31:25Z</time>
		</trkpt>
		<trkpt lat="53.8830909729004" lon="13.3550720214844">
			<ele>50.7999992370605</ele>
			<time>2014-04-13T12:31:26Z</time>
		</trkpt>
		<trkpt lat="53.8830986022949" lon="13.3551712036133">
			<ele>50.5</ele>
			<time>2014-04-13T12:31:27Z</time>
		</trkpt>
		<trkpt lat="53.883113861084" lon="13.3552656173706">
			<ele>50.7000007629395</ele>
			<time>2014-04-13T12:31:28Z</time>
		</trkpt>
		<trkpt lat="53.8831253051758" lon="13.3553609848022">
			<ele>50.5999984741211</ele>
			<time>2014-04-13T12:31:29Z</time>
		</trkpt>
		<trkpt lat="53.8831367492676" lon="13.3554573059082">
			<ele>50.9000015258789</ele>
			<time>2014-04-13T12:31:30Z</time>
		</trkpt>
		<trkpt lat="53.8831481933594" lon="13.3555526733398">
			<ele>51</ele>
			<time>2014-04-13T12:31:31Z</time>
		</trkpt>
		<trkpt lat="53.8831596374512" lon="13.3556451797485">
			<ele>51.0999984741211</ele>
			<time>2014-04-13T12:31:32Z</time>
		</trkpt>
		<trkpt lat="53.8831672668457" lon="13.3557415008545">
			<ele>51.2000007629395</ele>
			<time>2014-04-13T12:31:33Z</time>
		</trkpt>
		<trkpt lat="53.8831787109375" lon="13.3558320999146">
			<ele>51.0999984741211</ele>
			<time>2014-04-13T12:31:34Z</time>
		</trkpt>
		<trkpt lat="53.8831901550293" lon="13.3559255599976">
			<ele>50.9000015258789</ele>
			<time>2014-04-13T12:31:35Z</time>
		</trkpt>
		<trkpt lat="53.8832054138184" lon="13.3560132980347">
			<ele>51.2000007629395</ele>
			<time>2014-04-13T12:31:36Z</time>
		</trkpt>
		<trkpt lat="53.8832168579102" lon="13.3561058044434">
			<ele>51</ele>
			<time>2014-04-13T12:31:37Z</time>
		</trkpt>
		<trkpt lat="53.883228302002" lon="13.3561992645264">
			<ele>51.2000007629395</ele>
			<time>2014-04-13T12:31:38Z</time>
		</trkpt>
		<trkpt lat="53.8832359313965" lon="13.356294631958">
			<ele>51.0999984741211</ele>
			<time>2014-04-13T12:31:39Z</time>
		</trkpt>
		<trkpt lat="53.8832473754883" lon="13.356388092041">
			<ele>51.2000007629395</ele>
			<time>2014-04-13T12:31:40Z</time>
		</trkpt>
		<trkpt lat="53.8832626342773" lon="13.3564796447754">
			<ele>51.0999984741211</ele>
			<time>2014-04-13T12:31:41Z</time>
		</trkpt>
		<trkpt lat="53.8832740783691" lon="13.356575012207">
			<ele>51</ele>
			<time>2014-04-13T12:31:42Z</time>
		</trkpt>
		<trkpt lat="53.8832855224609" lon="13.35666847229">
			<ele>50.7999992370605</ele>
			<time>2014-04-13T12:31:43Z</time>
		</trkpt>
		<trkpt lat="53.8832931518555" lon="13.3567581176758">
			<ele>50.5999984741211</ele>
			<time>2014-04-13T12:31:44Z</time>
		</trkpt>
		<trkpt lat="53.8833084106445" lon="13.3568496704102">
			<ele>50.4000015258789</ele>
			<time>2014-04-13T12:31:45Z</time>
		</trkpt>
		<trkpt lat="53.8833160400391" lon="13.3569412231445">
			<ele>50.5</ele>
			<time>2014-04-13T12:31:46Z</time>
		</trkpt>
		<trkpt lat="53.8833274841309" lon="13.3570308685303">
			<ele>50.7000007629395</ele>
			<time>2014-04-13T12:31:47Z</time>
		</trkpt>
		<trkpt lat="53.8833389282227" lon="13.3571195602417">
			<ele>50.5</ele>
			<time>2014-04-13T12:31:48Z</time>
		</trkpt>
		<trkpt lat="53.8833503723145" lon="13.3572034835815">
			<ele>50.2999992370605</ele>
			<time>2014-04-13T12:31:49Z</time>
		</trkpt>
		<trkpt lat="53.8833618164063" lon="13.35728931427">
			<ele>50.2999992370605</ele>
			<time>2014-04-13T12:31:50Z</time>
		</trkpt>
		<trkpt lat="53.8833656311035" lon="13.3573951721191">
			<ele>49.5</ele>
			<time>2014-04-13T12:31:51Z</time>
		</trkpt>
		<trkpt lat="53.8833694458008" lon="13.3574895858765">
			<ele>49.0999984741211</ele>
			<time>2014-04-13T12:31:52Z</time>
		</trkpt>
		<trkpt lat="53.883373260498" lon="13.3575811386108">
			<ele>48.5999984741211</ele>
			<time>2014-04-13T12:31:53Z</time>
		</trkpt>
		<trkpt lat="53.8833808898926" lon="13.3576650619507">
			<ele>48.5999984741211</ele>
			<time>2014-04-13T12:31:54Z</time>
		</trkpt>
		<trkpt lat="53.8833923339844" lon="13.3577470779419">
			<ele>48.5</ele>
			<time>2014-04-13T12:31:55Z</time>
		</trkpt>
		<trkpt lat="53.8833999633789" lon="13.3578281402588">
			<ele>48.4000015258789</ele>
			<time>2014-04-13T12:31:56Z</time>
		</trkpt>
		<trkpt lat="53.8834114074707" lon="13.3579111099243">
			<ele>48.7000007629395</ele>
			<time>2014-04-13T12:31:57Z</time>
		</trkpt>
		<trkpt lat="53.8834190368652" lon="13.3579921722412">
			<ele>48.5999984741211</ele>
			<time>2014-04-13T12:31:58Z</time>
		</trkpt>
		<trkpt lat="53.8834266662598" lon="13.3580780029297">
			<ele>48</ele>
			<time>2014-04-13T12:31:59Z</time>
		</trkpt>
		<trkpt lat="53.8834381103516" lon="13.3581552505493">
			<ele>48</ele>
			<time>2014-04-13T12:32:00Z</time>
		</trkpt>
		<trkpt lat="53.8834533691406" lon="13.3582372665405">
			<ele>48</ele>
			<time>2014-04-13T12:32:01Z</time>
		</trkpt>
		<trkpt lat="53.8834648132324" lon="13.3583307266235">
			<ele>47.7999992370605</ele>
			<time>2014-04-13T12:32:02Z</time>
		</trkpt>
		<trkpt lat="53.8834762573242" lon="13.3584156036377">
			<ele>48.2000007629395</ele>
			<time>2014-04-13T12:32:03Z</time>
		</trkpt>
		<trkpt lat="53.883487701416" lon="13.3584985733032">
			<ele>48.2999992370605</ele>
			<time>2014-04-13T12:32:04Z</time>
		</trkpt>
		<trkpt lat="53.8834991455078" lon="13.358585357666">
			<ele>47.5999984741211</ele>
			<time>2014-04-13T12:32:05Z</time>
		</trkpt>
		<trkpt lat="53.8835144042969" lon="13.3586683273315">
			<ele>47.4000015258789</ele>
			<time>2014-04-13T12:32:06Z</time>
		</trkpt>
		<trkpt lat="53.8835296630859" lon="13.3587522506714">
			<ele>47.2000007629395</ele>
			<time>2014-04-13T12:32:07Z</time>
		</trkpt>
		<trkpt lat="53.883544921875" lon="13.3588342666626">
			<ele>46.9000015258789</ele>
			<time>2014-04-13T12:32:08Z</time>
		</trkpt>
		<trkpt lat="53.8835487365723" lon="13.3589134216309">
			<ele>46.7000007629395</ele>
			<time>2014-04-13T12:32:09Z</time>
		</trkpt>
		<trkpt lat="53.8835716247559" lon="13.3590106964111">
			<ele>46.2000007629395</ele>
			<time>2014-04-13T12:32:10Z</time>
		</trkpt>
		<trkpt lat="53.8835906982422" lon="13.359094619751">
			<ele>46.2000007629395</ele>
			<time>2014-04-13T12:32:11Z</time>
		</trkpt>
		<trkpt lat="53.8836097717285" lon="13.3591814041138">
			<ele>46.4000015258789</ele>
			<time>2014-04-13T12:32:12Z</time>
		</trkpt>
		<trkpt lat="53.8836250305176" lon="13.3592643737793">
			<ele>46</ele>
			<time>2014-04-13T12:32:13Z</time>
		</trkpt>
		<trkpt lat="53.8836479187012" lon="13.3593397140503">
			<ele>46</ele>
			<time>2014-04-13T12:32:14Z</time>
		</trkpt>
		<trkpt lat="53.8836708068848" lon="13.3594264984131">
			<ele>45.9000015258789</ele>
			<time>2014-04-13T12:32:15Z</time>
		</trkpt>
		<trkpt lat="53.8836975097656" lon="13.3595104217529">
			<ele>45.7999992370605</ele>
			<time>2014-04-13T12:32:16Z</time>
		</trkpt>
		<trkpt lat="53.8837203979492" lon="13.3595924377441">
			<ele>45.7000007629395</ele>
			<time>2014-04-13T12:32:17Z</time>
		</trkpt>
		<trkpt lat="53.8837394714355" lon="13.3596811294556">
			<ele>45.5</ele>
			<time>2014-04-13T12:32:18Z</time>
		</trkpt>
		<trkpt lat="53.8837699890137" lon="13.3597593307495">
			<ele>45.7000007629395</ele>
			<time>2014-04-13T12:32:19Z</time>
		</trkpt>
		<trkpt lat="53.8837966918945" lon="13.3598461151123">
			<ele>45.9000015258789</ele>
			<time>2014-04-13T12:32:20Z</time>
		</trkpt>
		<trkpt lat="53.8838233947754" lon="13.3599281311035">
			<ele>45.4000015258789</ele>
			<time>2014-04-13T12:32:21Z</time>
		</trkpt>
		<trkpt lat="53.883846282959" lon="13.360013961792">
			<ele>45.2999992370605</ele>
			<time>2014-04-13T12:32:22Z</time>
		</trkpt>
		<trkpt lat="53.8838691711426" lon="13.3601016998291">
			<ele>45.2000007629395</ele>
			<time>2014-04-13T12:32:25Z</time>
		</trkpt>
		<trkpt lat="53.883918762207" lon="13.3602647781372">
			<ele>45.2999992370605</ele>
			<time>2014-04-13T12:32:26Z</time>
		</trkpt>
		<trkpt lat="53.8839378356934" lon="13.3603487014771">
			<ele>45.5</ele>
			<time>2014-04-13T12:32:26Z</time>
		</trkpt>
		<trkpt lat="53.8839569091797" lon="13.3604288101196">
			<ele>45.2999992370605</ele>
			<time>2014-04-13T12:32:27Z</time>
		</trkpt>
		<trkpt lat="53.8839912414551" lon="13.3605098724365">
			<ele>45.2000007629395</ele>
			<time>2014-04-13T12:32:29Z</time>
		</trkpt>
		<trkpt lat="53.8840408325195" lon="13.3606767654419">
			<ele>44.7999992370605</ele>
			<time>2014-04-13T12:32:30Z</time>
		</trkpt>
		<trkpt lat="53.8840637207031" lon="13.3607654571533">
			<ele>44.5999984741211</ele>
			<time>2014-04-13T12:32:31Z</time>
		</trkpt>
		<trkpt lat="53.8840942382813" lon="13.3608512878418">
			<ele>44.2999992370605</ele>
			<time>2014-04-13T12:32:32Z</time>
		</trkpt>
		<trkpt lat="53.8841209411621" lon="13.3609352111816">
			<ele>44.5</ele>
			<time>2014-04-13T12:32:33Z</time>
		</trkpt>
		<trkpt lat="53.884147644043" lon="13.3610219955444">
			<ele>44.0999984741211</ele>
			<time>2014-04-13T12:32:34Z</time>
		</trkpt>
		<trkpt lat="53.8841743469238" lon="13.3611135482788">
			<ele>43.5</ele>
			<time>2014-04-13T12:32:35Z</time>
		</trkpt>
		<trkpt lat="53.8841972351074" lon="13.3612003326416">
			<ele>42.7000007629395</ele>
			<time>2014-04-13T12:32:37Z</time>
		</trkpt>
		<trkpt lat="53.8842315673828" lon="13.3612833023071">
			<ele>42.2999992370605</ele>
			<time>2014-04-13T12:32:37Z</time>
		</trkpt>
		<trkpt lat="53.8842582702637" lon="13.3613796234131">
			<ele>42.2999992370605</ele>
			<time>2014-04-13T12:32:40Z</time>
		</trkpt>
		<trkpt lat="53.884334564209" lon="13.3616714477539">
			<ele>42.4000015258789</ele>
			<time>2014-04-13T12:32:42Z</time>
		</trkpt>
		<trkpt lat="53.8843955993652" lon="13.3618631362915">
			<ele>43.4000015258789</ele>
			<time>2014-04-13T12:32:43Z</time>
		</trkpt>
		<trkpt lat="53.8843994140625" lon="13.3619441986084">
			<ele>42.7000007629395</ele>
			<time>2014-04-13T12:32:44Z</time>
		</trkpt>
		<trkpt lat="53.8844032287598" lon="13.3620281219482">
			<ele>43</ele>
			<time>2014-04-13T12:32:45Z</time>
		</trkpt>
		<trkpt lat="53.884391784668" lon="13.3621072769165">
			<ele>43.0999984741211</ele>
			<time>2014-04-13T12:32:46Z</time>
		</trkpt>
		<trkpt lat="53.8843421936035" lon="13.3621597290039">
			<ele>43.5</ele>
			<time>2014-04-13T12:32:47Z</time>
		</trkpt>
		<trkpt lat="53.8842926025391" lon="13.3622150421143">
			<ele>43.5</ele>
			<time>2014-04-13T12:32:48Z</time>
		</trkpt>
		<trkpt lat="53.8842468261719" lon="13.3622398376465">
			<ele>43.5</ele>
			<time>2014-04-13T12:32:49Z</time>
		</trkpt>
		<trkpt lat="53.884162902832" lon="13.362283706665">
			<ele>43.4000015258789</ele>
			<time>2014-04-13T12:32:51Z</time>
		</trkpt>
		<trkpt lat="53.8841171264648" lon="13.3623142242432">
			<ele>43.5999984741211</ele>
			<time>2014-04-13T12:32:52Z</time>
		</trkpt>
		<trkpt lat="53.8840751647949" lon="13.3623542785645">
			<ele>44.0999984741211</ele>
			<time>2014-04-13T12:32:53Z</time>
		</trkpt>
		<trkpt lat="53.8840293884277" lon="13.3623838424683">
			<ele>43.7999992370605</ele>
			<time>2014-04-13T12:32:54Z</time>
		</trkpt>
		<trkpt lat="53.8839874267578" lon="13.3624277114868">
			<ele>43.9000015258789</ele>
			<time>2014-04-13T12:32:55Z</time>
		</trkpt>
		<trkpt lat="53.8839454650879" lon="13.3624773025513">
			<ele>44</ele>
			<time>2014-04-13T12:32:56Z</time>
		</trkpt>
		<trkpt lat="53.883861541748" lon="13.3625421524048">
			<ele>43.7999992370605</ele>
			<time>2014-04-13T12:32:58Z</time>
		</trkpt>
		<trkpt lat="53.8838157653809" lon="13.3625717163086">
			<ele>44.0999984741211</ele>
			<time>2014-04-13T12:32:59Z</time>
		</trkpt>
		<trkpt lat="53.8837738037109" lon="13.3626022338867">
			<ele>43.9000015258789</ele>
			<time>2014-04-13T12:33:00Z</time>
		</trkpt>
		<trkpt lat="53.8837280273438" lon="13.3626384735107">
			<ele>43.9000015258789</ele>
			<time>2014-04-13T12:33:01Z</time>
		</trkpt>
		<trkpt lat="53.8836860656738" lon="13.3626728057861">
			<ele>43.5999984741211</ele>
			<time>2014-04-13T12:33:02Z</time>
		</trkpt>
		<trkpt lat="53.8835983276367" lon="13.3627643585205">
			<ele>42.7999992370605</ele>
			<time>2014-04-13T12:33:04Z</time>
		</trkpt>
		<trkpt lat="53.8835487365723" lon="13.3627996444702">
			<ele>43.2000007629395</ele>
			<time>2014-04-13T12:33:05Z</time>
		</trkpt>
		<trkpt lat="53.8834991455078" lon="13.3628387451172">
			<ele>42.9000015258789</ele>
			<time>2014-04-13T12:33:06Z</time>
		</trkpt>
		<trkpt lat="53.8834571838379" lon="13.3628768920898">
			<ele>43.2000007629395</ele>
			<time>2014-04-13T12:33:07Z</time>
		</trkpt>
		<trkpt lat="53.8834037780762" lon="13.3629217147827">
			<ele>43.2000007629395</ele>
			<time>2014-04-13T12:33:08Z</time>
		</trkpt>
		<trkpt lat="53.883358001709" lon="13.362964630127">
			<ele>43</ele>
			<time>2014-04-13T12:33:09Z</time>
		</trkpt>
		<trkpt lat="53.8833084106445" lon="13.3630123138428">
			<ele>43.5</ele>
			<time>2014-04-13T12:33:10Z</time>
		</trkpt>
		<trkpt lat="53.8832588195801" lon="13.3630466461182">
			<ele>43.7000007629395</ele>
			<time>2014-04-13T12:33:11Z</time>
		</trkpt>
		<trkpt lat="53.8832092285156" lon="13.3630876541138">
			<ele>43.5999984741211</ele>
			<time>2014-04-13T12:33:12Z</time>
		</trkpt>
		<trkpt lat="53.8831596374512" lon="13.3631277084351">
			<ele>43.4000015258789</ele>
			<time>2014-04-13T12:33:13Z</time>
		</trkpt>
		<trkpt lat="53.8831062316895" lon="13.3631744384766">
			<ele>42.7000007629395</ele>
			<time>2014-04-13T12:33:14Z</time>
		</trkpt>
		<trkpt lat="53.8830604553223" lon="13.3632183074951">
			<ele>42.5</ele>
			<time>2014-04-13T12:33:15Z</time>
		</trkpt>
		<trkpt lat="53.8830108642578" lon="13.363263130188">
			<ele>43</ele>
			<time>2014-04-13T12:33:16Z</time>
		</trkpt>
		<trkpt lat="53.8829536437988" lon="13.3633089065552">
			<ele>43.7000007629395</ele>
			<time>2014-04-13T12:33:17Z</time>
		</trkpt>
		<trkpt lat="53.8829116821289" lon="13.3633394241333">
			<ele>43.5</ele>
			<time>2014-04-13T12:33:18Z</time>
		</trkpt>
		<trkpt lat="53.8828659057617" lon="13.3633804321289">
			<ele>43.5</ele>
			<time>2014-04-13T12:33:19Z</time>
		</trkpt>
		<trkpt lat="53.8828239440918" lon="13.3634176254272">
			<ele>42.7000007629395</ele>
			<time>2014-04-13T12:33:20Z</time>
		</trkpt>
		<trkpt lat="53.8827857971191" lon="13.3634538650513">
			<ele>43.2999992370605</ele>
			<time>2014-04-13T12:33:21Z</time>
		</trkpt>
		<trkpt lat="53.8827056884766" lon="13.3635168075562">
			<ele>44.4000015258789</ele>
			<time>2014-04-13T12:33:23Z</time>
		</trkpt>
		<trkpt lat="53.8826332092285" lon="13.3635807037354">
			<ele>44.7999992370605</ele>
			<time>2014-04-13T12:33:25Z</time>
		</trkpt>
		<trkpt lat="53.8825531005859" lon="13.3636465072632">
			<ele>45.2999992370605</ele>
			<time>2014-04-13T12:33:27Z</time>
		</trkpt>
		<trkpt lat="53.8824882507324" lon="13.3636980056763">
			<ele>46.2000007629395</ele>
			<time>2014-04-13T12:33:29Z</time>
		</trkpt>
		<trkpt lat="53.8824081420898" lon="13.3637647628784">
			<ele>45.5</ele>
			<time>2014-04-13T12:33:31Z</time>
		</trkpt>
		<trkpt lat="53.8823661804199" lon="13.3638000488281">
			<ele>44.9000015258789</ele>
			<time>2014-04-13T12:33:32Z</time>
		</trkpt>
		<trkpt lat="53.88232421875" lon="13.3638391494751">
			<ele>45.0999984741211</ele>
			<time>2014-04-13T12:33:33Z</time>
		</trkpt>
		<trkpt lat="53.8822479248047" lon="13.3638963699341">
			<ele>45</ele>
			<time>2014-04-13T12:33:35Z</time>
		</trkpt>
		<trkpt lat="53.8821754455566" lon="13.3639545440674">
			<ele>45.2000007629395</ele>
			<time>2014-04-13T12:33:37Z</time>
		</trkpt>
		<trkpt lat="53.8820991516113" lon="13.3640146255493">
			<ele>45.5999984741211</ele>
			<time>2014-04-13T12:33:39Z</time>
		</trkpt>
		<trkpt lat="53.8820266723633" lon="13.3640727996826">
			<ele>45.5</ele>
			<time>2014-04-13T12:33:41Z</time>
		</trkpt>
		<trkpt lat="53.8819618225098" lon="13.3641300201416">
			<ele>46</ele>
			<time>2014-04-13T12:33:43Z</time>
		</trkpt>
		<trkpt lat="53.8818855285645" lon="13.3641929626465">
			<ele>46.0999984741211</ele>
			<time>2014-04-13T12:33:45Z</time>
		</trkpt>
		<trkpt lat="53.8818092346191" lon="13.3642578125">
			<ele>46</ele>
			<time>2014-04-13T12:33:47Z</time>
		</trkpt>
		<trkpt lat="53.8817672729492" lon="13.3642902374268">
			<ele>46.4000015258789</ele>
			<time>2014-04-13T12:33:48Z</time>
		</trkpt>
		<trkpt lat="53.8816871643066" lon="13.3643579483032">
			<ele>45.7999992370605</ele>
			<time>2014-04-13T12:33:50Z</time>
		</trkpt>
		<trkpt lat="53.8816032409668" lon="13.3644313812256">
			<ele>46</ele>
			<time>2014-04-13T12:33:52Z</time>
		</trkpt>
		<trkpt lat="53.881534576416" lon="13.3644895553589">
			<ele>45.7999992370605</ele>
			<time>2014-04-13T12:33:54Z</time>
		</trkpt>
		<trkpt lat="53.8814582824707" lon="13.3645553588867">
			<ele>46.2000007629395</ele>
			<time>2014-04-13T12:33:56Z</time>
		</trkpt>
		<trkpt lat="53.8813858032227" lon="13.3646125793457">
			<ele>46</ele>
			<time>2014-04-13T12:33:58Z</time>
		</trkpt>
		<trkpt lat="53.8813095092773" lon="13.3646774291992">
			<ele>46.2999992370605</ele>
			<time>2014-04-13T12:34:00Z</time>
		</trkpt>
		<trkpt lat="53.8812294006348" lon="13.3647489547729">
			<ele>45.9000015258789</ele>
			<time>2014-04-13T12:34:02Z</time>
		</trkpt>
		<trkpt lat="53.8811531066895" lon="13.3648090362549">
			<ele>45.7000007629395</ele>
			<time>2014-04-13T12:34:04Z</time>
		</trkpt>
		<trkpt lat="53.8810844421387" lon="13.3648719787598">
			<ele>46.2000007629395</ele>
			<time>2014-04-13T12:34:06Z</time>
		</trkpt>
		<trkpt lat="53.8810043334961" lon="13.3649282455444">
			<ele>46.0999984741211</ele>
			<time>2014-04-13T12:34:08Z</time>
		</trkpt>
		<trkpt lat="53.8809280395508" lon="13.3649911880493">
			<ele>46.4000015258789</ele>
			<time>2014-04-13T12:34:10Z</time>
		</trkpt>
		<trkpt lat="53.8808517456055" lon="13.3650550842285">
			<ele>46.4000015258789</ele>
			<time>2014-04-13T12:34:12Z</time>
		</trkpt>
		<trkpt lat="53.8807754516602" lon="13.3651256561279">
			<ele>46.7000007629395</ele>
			<time>2014-04-13T12:34:14Z</time>
		</trkpt>
		<trkpt lat="53.8807258605957" lon="13.3651657104492">
			<ele>46.4000015258789</ele>
			<time>2014-04-13T12:34:15Z</time>
		</trkpt>
		<trkpt lat="53.8806533813477" lon="13.3652276992798">
			<ele>45.9000015258789</ele>
			<time>2014-04-13T12:34:17Z</time>
		</trkpt>
		<trkpt lat="53.8805809020996" lon="13.365291595459">
			<ele>46.5999984741211</ele>
			<time>2014-04-13T12:34:19Z</time>
		</trkpt>
		<trkpt lat="53.8805084228516" lon="13.3653526306152">
			<ele>47</ele>
			<time>2014-04-13T12:34:21Z</time>
		</trkpt>
		<trkpt lat="53.880428314209" lon="13.3654069900513">
			<ele>47.4000015258789</ele>
			<time>2014-04-13T12:34:23Z</time>
		</trkpt>
		<trkpt lat="53.8803520202637" lon="13.3654699325562">
			<ele>47.5</ele>
			<time>2014-04-13T12:34:25Z</time>
		</trkpt>
		<trkpt lat="53.8803100585938" lon="13.3655033111572">
			<ele>47.7000007629395</ele>
			<time>2014-04-13T12:34:26Z</time>
		</trkpt>
		<trkpt lat="53.8802375793457" lon="13.3655672073364">
			<ele>47.5</ele>
			<time>2014-04-13T12:34:28Z</time>
		</trkpt>
		<trkpt lat="53.8801651000977" lon="13.3656320571899">
			<ele>47.2999992370605</ele>
			<time>2014-04-13T12:34:30Z</time>
		</trkpt>
		<trkpt lat="53.8800849914551" lon="13.3656930923462">
			<ele>47.2999992370605</ele>
			<time>2014-04-13T12:34:32Z</time>
		</trkpt>
		<trkpt lat="53.8800048828125" lon="13.3657636642456">
			<ele>47.7000007629395</ele>
			<time>2014-04-13T12:34:34Z</time>
		</trkpt>
		<trkpt lat="53.8799324035645" lon="13.3658332824707">
			<ele>47.5999984741211</ele>
			<time>2014-04-13T12:34:36Z</time>
		</trkpt>
		<trkpt lat="53.8798522949219" lon="13.365891456604">
			<ele>47.5999984741211</ele>
			<time>2014-04-13T12:34:38Z</time>
		</trkpt>
		<trkpt lat="53.8797760009766" lon="13.3659629821777">
			<ele>47.4000015258789</ele>
			<time>2014-04-13T12:34:40Z</time>
		</trkpt>
		<trkpt lat="53.8797302246094" lon="13.3659963607788">
			<ele>47.5999984741211</ele>
			<time>2014-04-13T12:34:41Z</time>
		</trkpt>
		<trkpt lat="53.8796882629395" lon="13.3660306930542">
			<ele>47.5999984741211</ele>
			<time>2014-04-13T12:34:42Z</time>
		</trkpt>
		<trkpt lat="53.8796424865723" lon="13.3660697937012">
			<ele>47.0999984741211</ele>
			<time>2014-04-13T12:34:43Z</time>
		</trkpt>
		<trkpt lat="53.8796005249023" lon="13.3661088943481">
			<ele>47</ele>
			<time>2014-04-13T12:34:44Z</time>
		</trkpt>
		<trkpt lat="53.8795204162598" lon="13.3661699295044">
			<ele>46.7999992370605</ele>
			<time>2014-04-13T12:34:46Z</time>
		</trkpt>
		<trkpt lat="53.8794784545898" lon="13.3662080764771">
			<ele>46.5999984741211</ele>
			<time>2014-04-13T12:34:47Z</time>
		</trkpt>
		<trkpt lat="53.8794403076172" lon="13.3662452697754">
			<ele>46.5</ele>
			<time>2014-04-13T12:34:48Z</time>
		</trkpt>
		<trkpt lat="53.87939453125" lon="13.366286277771">
			<ele>46.2999992370605</ele>
			<time>2014-04-13T12:34:49Z</time>
		</trkpt>
		<trkpt lat="53.8793525695801" lon="13.3663244247437">
			<ele>46.4000015258789</ele>
			<time>2014-04-13T12:34:50Z</time>
		</trkpt>
		<trkpt lat="53.8792686462402" lon="13.3663873672485">
			<ele>46.5</ele>
			<time>2014-04-13T12:34:52Z</time>
		</trkpt>
		<trkpt lat="53.879222869873" lon="13.3664245605469">
			<ele>46.7999992370605</ele>
			<time>2014-04-13T12:34:53Z</time>
		</trkpt>
		<trkpt lat="53.8791809082031" lon="13.3664617538452">
			<ele>46.7999992370605</ele>
			<time>2014-04-13T12:34:54Z</time>
		</trkpt>
		<trkpt lat="53.8791351318359" lon="13.3665018081665">
			<ele>46.5999984741211</ele>
			<time>2014-04-13T12:34:55Z</time>
		</trkpt>
		<trkpt lat="53.879093170166" lon="13.3665370941162">
			<ele>46.5999984741211</ele>
			<time>2014-04-13T12:34:56Z</time>
		</trkpt>
		<trkpt lat="53.8790473937988" lon="13.3665733337402">
			<ele>46.5999984741211</ele>
			<time>2014-04-13T12:34:57Z</time>
		</trkpt>
		<trkpt lat="53.8790054321289" lon="13.3666095733643">
			<ele>46.7000007629395</ele>
			<time>2014-04-13T12:34:58Z</time>
		</trkpt>
		<trkpt lat="53.8789596557617" lon="13.3666467666626">
			<ele>46.7999992370605</ele>
			<time>2014-04-13T12:34:59Z</time>
		</trkpt>
		<trkpt lat="53.8789176940918" lon="13.3666830062866">
			<ele>46.7999992370605</ele>
			<time>2014-04-13T12:35:00Z</time>
		</trkpt>
		<trkpt lat="53.8788719177246" lon="13.3667154312134">
			<ele>47</ele>
			<time>2014-04-13T12:35:01Z</time>
		</trkpt>
		<trkpt lat="53.878833770752" lon="13.3667526245117">
			<ele>47.0999984741211</ele>
			<time>2014-04-13T12:35:02Z</time>
		</trkpt>
		<trkpt lat="53.8787536621094" lon="13.3668155670166">
			<ele>46.7999992370605</ele>
			<time>2014-04-13T12:35:04Z</time>
		</trkpt>
		<trkpt lat="53.8787117004395" lon="13.3668489456177">
			<ele>46.4000015258789</ele>
			<time>2014-04-13T12:35:05Z</time>
		</trkpt>
		<trkpt lat="53.8786659240723" lon="13.3668880462646">
			<ele>46.0999984741211</ele>
			<time>2014-04-13T12:35:06Z</time>
		</trkpt>
		<trkpt lat="53.8786201477051" lon="13.3669214248657">
			<ele>46.4000015258789</ele>
			<time>2014-04-13T12:35:07Z</time>
		</trkpt>
		<trkpt lat="53.8785743713379" lon="13.3669548034668">
			<ele>46.4000015258789</ele>
			<time>2014-04-13T12:35:08Z</time>
		</trkpt>
		<trkpt lat="53.8785362243652" lon="13.3669862747192">
			<ele>46.4000015258789</ele>
			<time>2014-04-13T12:35:09Z</time>
		</trkpt>
		<trkpt lat="53.8784942626953" lon="13.3670234680176">
			<ele>46.7000007629395</ele>
			<time>2014-04-13T12:35:10Z</time>
		</trkpt>
		<trkpt lat="53.8784523010254" lon="13.367057800293">
			<ele>47</ele>
			<time>2014-04-13T12:35:11Z</time>
		</trkpt>
		<trkpt lat="53.8784103393555" lon="13.3670883178711">
			<ele>46.9000015258789</ele>
			<time>2014-04-13T12:35:12Z</time>
		</trkpt>
		<trkpt lat="53.8783683776855" lon="13.3671169281006">
			<ele>46.7000007629395</ele>
			<time>2014-04-13T12:35:13Z</time>
		</trkpt>
		<trkpt lat="53.8783264160156" lon="13.3671569824219">
			<ele>46.2000007629395</ele>
			<time>2014-04-13T12:35:14Z</time>
		</trkpt>
		<trkpt lat="53.878246307373" lon="13.3672256469727">
			<ele>46.9000015258789</ele>
			<time>2014-04-13T12:35:16Z</time>
		</trkpt>
		<trkpt lat="53.8781700134277" lon="13.3672876358032">
			<ele>46.9000015258789</ele>
			<time>2014-04-13T12:35:18Z</time>
		</trkpt>
		<trkpt lat="53.8781280517578" lon="13.3673191070557">
			<ele>46.5999984741211</ele>
			<time>2014-04-13T12:35:19Z</time>
		</trkpt>
		<trkpt lat="53.8780860900879" lon="13.3673524856567">
			<ele>47</ele>
			<time>2014-04-13T12:35:20Z</time>
		</trkpt>
		<trkpt lat="53.878002166748" lon="13.3674173355103">
			<ele>47</ele>
			<time>2014-04-13T12:35:22Z</time>
		</trkpt>
		<trkpt lat="53.8779258728027" lon="13.3674821853638">
			<ele>47.2000007629395</ele>
			<time>2014-04-13T12:35:24Z</time>
		</trkpt>
		<trkpt lat="53.8778800964355" lon="13.3675107955933">
			<ele>47.4000015258789</ele>
			<time>2014-04-13T12:35:25Z</time>
		</trkpt>
		<trkpt lat="53.8778038024902" lon="13.3675785064697">
			<ele>47.5999984741211</ele>
			<time>2014-04-13T12:35:27Z</time>
		</trkpt>
		<trkpt lat="53.8777313232422" lon="13.3676385879517">
			<ele>47.7999992370605</ele>
			<time>2014-04-13T12:35:29Z</time>
		</trkpt>
		<trkpt lat="53.8776550292969" lon="13.3677158355713">
			<ele>48</ele>
			<time>2014-04-13T12:35:31Z</time>
		</trkpt>
		<trkpt lat="53.877571105957" lon="13.3677768707275">
			<ele>48</ele>
			<time>2014-04-13T12:35:33Z</time>
		</trkpt>
		<trkpt lat="53.877498626709" lon="13.3678398132324">
			<ele>47.5</ele>
			<time>2014-04-13T12:35:35Z</time>
		</trkpt>
		<trkpt lat="53.8774223327637" lon="13.3679027557373">
			<ele>47.9000015258789</ele>
			<time>2014-04-13T12:35:37Z</time>
		</trkpt>
		<trkpt lat="53.8773498535156" lon="13.3679599761963">
			<ele>48</ele>
			<time>2014-04-13T12:35:39Z</time>
		</trkpt>
		<trkpt lat="53.8772811889648" lon="13.3680257797241">
			<ele>48.2000007629395</ele>
			<time>2014-04-13T12:35:41Z</time>
		</trkpt>
		<trkpt lat="53.8772087097168" lon="13.3680877685547">
			<ele>48.5</ele>
			<time>2014-04-13T12:35:43Z</time>
		</trkpt>
		<trkpt lat="53.8771324157715" lon="13.3681497573853">
			<ele>48.5</ele>
			<time>2014-04-13T12:35:45Z</time>
		</trkpt>
		<trkpt lat="53.8770599365234" lon="13.3682098388672">
			<ele>48</ele>
			<time>2014-04-13T12:35:47Z</time>
		</trkpt>
		<trkpt lat="53.8769950866699" lon="13.3682661056519">
			<ele>47.5999984741211</ele>
			<time>2014-04-13T12:35:49Z</time>
		</trkpt>
		<trkpt lat="53.8769187927246" lon="13.3683233261108">
			<ele>47.5999984741211</ele>
			<time>2014-04-13T12:35:51Z</time>
		</trkpt>
		<trkpt lat="53.8768730163574" lon="13.3683519363403">
			<ele>47.4000015258789</ele>
			<time>2014-04-13T12:35:52Z</time>
		</trkpt>
		<trkpt lat="53.8767929077148" lon="13.3683862686157">
			<ele>47.2000007629395</ele>
			<time>2014-04-13T12:35:54Z</time>
		</trkpt>
		<trkpt lat="53.8767166137695" lon="13.3684530258179">
			<ele>47.4000015258789</ele>
			<time>2014-04-13T12:35:56Z</time>
		</trkpt>
		<trkpt lat="53.8766555786133" lon="13.3685121536255">
			<ele>47</ele>
			<time>2014-04-13T12:35:58Z</time>
		</trkpt>
		<trkpt lat="53.8765869140625" lon="13.3685779571533">
			<ele>46.5999984741211</ele>
			<time>2014-04-13T12:36:00Z</time>
		</trkpt>
		<trkpt lat="53.8765182495117" lon="13.3686294555664">
			<ele>46.7000007629395</ele>
			<time>2014-04-13T12:36:02Z</time>
		</trkpt>
		<trkpt lat="53.8764572143555" lon="13.3686828613281">
			<ele>48.2000007629395</ele>
			<time>2014-04-13T12:36:04Z</time>
		</trkpt>
		<trkpt lat="53.8763885498047" lon="13.3687343597412">
			<ele>47.7000007629395</ele>
			<time>2014-04-13T12:36:06Z</time>
		</trkpt>
		<trkpt lat="53.8763198852539" lon="13.3687887191772">
			<ele>47.7000007629395</ele>
			<time>2014-04-13T12:36:08Z</time>
		</trkpt>
		<trkpt lat="53.8762550354004" lon="13.3688373565674">
			<ele>47.2000007629395</ele>
			<time>2014-04-13T12:36:10Z</time>
		</trkpt>
		<trkpt lat="53.8761901855469" lon="13.3688955307007">
			<ele>47.7000007629395</ele>
			<time>2014-04-13T12:36:12Z</time>
		</trkpt>
		<trkpt lat="53.8761291503906" lon="13.3689432144165">
			<ele>47.9000015258789</ele>
			<time>2014-04-13T12:36:14Z</time>
		</trkpt>
		<trkpt lat="53.8760643005371" lon="13.3689975738525">
			<ele>48.4000015258789</ele>
			<time>2014-04-13T12:36:16Z</time>
		</trkpt>
		<trkpt lat="53.8759918212891" lon="13.3690538406372">
			<ele>49</ele>
			<time>2014-04-13T12:36:18Z</time>
		</trkpt>
		<trkpt lat="53.8759231567383" lon="13.3691072463989">
			<ele>49.0999984741211</ele>
			<time>2014-04-13T12:36:20Z</time>
		</trkpt>
		<trkpt lat="53.8758392333984" lon="13.369161605835">
			<ele>48.5999984741211</ele>
			<time>2014-04-13T12:36:22Z</time>
		</trkpt>
		<trkpt lat="53.8757934570313" lon="13.3691921234131">
			<ele>48.9000015258789</ele>
			<time>2014-04-13T12:36:23Z</time>
		</trkpt>
		<trkpt lat="53.8757209777832" lon="13.3692493438721">
			<ele>49.2999992370605</ele>
			<time>2014-04-13T12:36:25Z</time>
		</trkpt>
		<trkpt lat="53.8756370544434" lon="13.3692970275879">
			<ele>47.9000015258789</ele>
			<time>2014-04-13T12:36:27Z</time>
		</trkpt>
		<trkpt lat="53.875560760498" lon="13.3693408966064">
			<ele>47</ele>
			<time>2014-04-13T12:36:29Z</time>
		</trkpt>
		<trkpt lat="53.8755035400391" lon="13.369384765625">
			<ele>47.2000007629395</ele>
			<time>2014-04-13T12:36:31Z</time>
		</trkpt>
		<trkpt lat="53.8754348754883" lon="13.3694171905518">
			<ele>47.0999984741211</ele>
			<time>2014-04-13T12:36:33Z</time>
		</trkpt>
		<trkpt lat="53.8753662109375" lon="13.3694591522217">
			<ele>47.0999984741211</ele>
			<time>2014-04-13T12:36:35Z</time>
		</trkpt>
		<trkpt lat="53.8753128051758" lon="13.369517326355">
			<ele>47.5999984741211</ele>
			<time>2014-04-13T12:36:37Z</time>
		</trkpt>
		<trkpt lat="53.8752670288086" lon="13.3696260452271">
			<ele>46.5</ele>
			<time>2014-04-13T12:36:39Z</time>
		</trkpt>
		<trkpt lat="53.8751945495605" lon="13.3696975708008">
			<ele>46.2000007629395</ele>
			<time>2014-04-13T12:36:41Z</time>
		</trkpt>
		<trkpt lat="53.8751182556152" lon="13.3697414398193">
			<ele>45.7000007629395</ele>
			<time>2014-04-13T12:36:43Z</time>
		</trkpt>
		<trkpt lat="53.8750534057617" lon="13.3697700500488">
			<ele>46.5</ele>
			<time>2014-04-13T12:36:45Z</time>
		</trkpt>
		<trkpt lat="53.8750076293945" lon="13.3698101043701">
			<ele>46.7999992370605</ele>
			<time>2014-04-13T12:36:46Z</time>
		</trkpt>
		<trkpt lat="53.8749351501465" lon="13.3698587417603">
			<ele>47.0999984741211</ele>
			<time>2014-04-13T12:36:48Z</time>
		</trkpt>
		<trkpt lat="53.8748512268066" lon="13.3699016571045">
			<ele>46.7000007629395</ele>
			<time>2014-04-13T12:36:50Z</time>
		</trkpt>
		<trkpt lat="53.8747673034668" lon="13.3699541091919">
			<ele>46.2000007629395</ele>
			<time>2014-04-13T12:36:52Z</time>
		</trkpt>
		<trkpt lat="53.874683380127" lon="13.3699979782104">
			<ele>46.2999992370605</ele>
			<time>2014-04-13T12:36:54Z</time>
		</trkpt>
		<trkpt lat="53.8746070861816" lon="13.3700437545776">
			<ele>45.4000015258789</ele>
			<time>2014-04-13T12:36:56Z</time>
		</trkpt>
		<trkpt lat="53.8745307922363" lon="13.3701009750366">
			<ele>45.7999992370605</ele>
			<time>2014-04-13T12:36:58Z</time>
		</trkpt>
		<trkpt lat="53.8744850158691" lon="13.3701229095459">
			<ele>46.0999984741211</ele>
			<time>2014-04-13T12:36:59Z</time>
		</trkpt>
		<trkpt lat="53.8744049072266" lon="13.3701696395874">
			<ele>46.7999992370605</ele>
			<time>2014-04-13T12:37:01Z</time>
		</trkpt>
		<trkpt lat="53.8743553161621" lon="13.3702621459961">
			<ele>47.5</ele>
			<time>2014-04-13T12:37:03Z</time>
		</trkpt>
		<trkpt lat="53.8743133544922" lon="13.3703269958496">
			<ele>47.5</ele>
			<time>2014-04-13T12:37:05Z</time>
		</trkpt>
		<trkpt lat="53.8742256164551" lon="13.3703346252441">
			<ele>45.7000007629395</ele>
			<time>2014-04-13T12:37:08Z</time>
		</trkpt>
		<trkpt lat="53.8741798400879" lon="13.3703098297119">
			<ele>46.4000015258789</ele>
			<time>2014-04-13T12:37:36Z</time>
		</trkpt>
		<trkpt lat="53.8741302490234" lon="13.3703241348267">
			<ele>47.4000015258789</ele>
			<time>2014-04-13T12:37:38Z</time>
		</trkpt>
		<trkpt lat="53.8740768432617" lon="13.3703565597534">
			<ele>47.2999992370605</ele>
			<time>2014-04-13T12:37:40Z</time>
		</trkpt>
		<trkpt lat="53.8739624023438" lon="13.3704280853271">
			<ele>46.2000007629395</ele>
			<time>2014-04-13T12:37:43Z</time>
		</trkpt>
		<trkpt lat="53.8738594055176" lon="13.3704795837402">
			<ele>46.2000007629395</ele>
			<time>2014-04-13T12:37:47Z</time>
		</trkpt>
		<trkpt lat="53.8738059997559" lon="13.3705320358276">
			<ele>47</ele>
			<time>2014-04-13T12:37:48Z</time>
		</trkpt>
		<trkpt lat="53.8737030029297" lon="13.3705730438232">
			<ele>43.7999992370605</ele>
			<time>2014-04-13T12:37:53Z</time>
		</trkpt>
		<trkpt lat="53.8736000061035" lon="13.3706359863281">
			<ele>45.9000015258789</ele>
			<time>2014-04-13T12:37:54Z</time>
		</trkpt>
		<trkpt lat="53.8734970092773" lon="13.3706693649292">
			<ele>45.9000015258789</ele>
			<time>2014-04-13T12:37:57Z</time>
		</trkpt>
		<trkpt lat="53.8733825683594" lon="13.37073802948">
			<ele>46.5</ele>
			<time>2014-04-13T12:38:00Z</time>
		</trkpt>
		<trkpt lat="53.8733329772949" lon="13.3707551956177">
			<ele>48</ele>
			<time>2014-04-13T12:38:02Z</time>
		</trkpt>
		<trkpt lat="53.8732528686523" lon="13.3708047866821">
			<ele>48.5</ele>
			<time>2014-04-13T12:38:04Z</time>
		</trkpt>
		<trkpt lat="53.8731231689453" lon="13.3708868026733">
			<ele>48.5</ele>
			<time>2014-04-13T12:38:07Z</time>
		</trkpt>
		<trkpt lat="53.873046875" lon="13.3709306716919">
			<ele>49.2000007629395</ele>
			<time>2014-04-13T12:38:08Z</time>
		</trkpt>
		<trkpt lat="53.8729972839355" lon="13.3709650039673">
			<ele>48.5</ele>
			<time>2014-04-13T12:38:09Z</time>
		</trkpt>
		<trkpt lat="53.8729553222656" lon="13.370997428894">
			<ele>48.4000015258789</ele>
			<time>2014-04-13T12:38:10Z</time>
		</trkpt>
		<trkpt lat="53.8728866577148" lon="13.3710441589355">
			<ele>48.5999984741211</ele>
			<time>2014-04-13T12:38:12Z</time>
		</trkpt>
		<trkpt lat="53.8728179931641" lon="13.3710927963257">
			<ele>49.2000007629395</ele>
			<time>2014-04-13T12:38:14Z</time>
		</trkpt>
		<trkpt lat="53.8727416992188" lon="13.3711242675781">
			<ele>49.5999984741211</ele>
			<time>2014-04-13T12:38:16Z</time>
		</trkpt>
		<trkpt lat="53.8726692199707" lon="13.3711547851563">
			<ele>50.5</ele>
			<time>2014-04-13T12:38:18Z</time>
		</trkpt>
		<trkpt lat="53.8726043701172" lon="13.3711862564087">
			<ele>49.9000015258789</ele>
			<time>2014-04-13T12:38:20Z</time>
		</trkpt>
		<trkpt lat="53.8725395202637" lon="13.3712339401245">
			<ele>50.7000007629395</ele>
			<time>2014-04-13T12:38:22Z</time>
		</trkpt>
		<trkpt lat="53.8724708557129" lon="13.3712778091431">
			<ele>50.7999992370605</ele>
			<time>2014-04-13T12:38:24Z</time>
		</trkpt>
		<trkpt lat="53.8724060058594" lon="13.3713331222534">
			<ele>51</ele>
			<time>2014-04-13T12:38:26Z</time>
		</trkpt>
		<trkpt lat="53.8723487854004" lon="13.3713903427124">
			<ele>51.5</ele>
			<time>2014-04-13T12:38:28Z</time>
		</trkpt>
		<trkpt lat="53.8722763061523" lon="13.3714361190796">
			<ele>50.9000015258789</ele>
			<time>2014-04-13T12:38:30Z</time>
		</trkpt>
		<trkpt lat="53.8722114562988" lon="13.3714895248413">
			<ele>51</ele>
			<time>2014-04-13T12:38:32Z</time>
		</trkpt>
		<trkpt lat="53.8721504211426" lon="13.3715381622314">
			<ele>51.0999984741211</ele>
			<time>2014-04-13T12:38:34Z</time>
		</trkpt>
		<trkpt lat="53.8720855712891" lon="13.3715867996216">
			<ele>50.7999992370605</ele>
			<time>2014-04-13T12:38:36Z</time>
		</trkpt>
		<trkpt lat="53.8720207214355" lon="13.371639251709">
			<ele>50.7999992370605</ele>
			<time>2014-04-13T12:38:38Z</time>
		</trkpt>
		<trkpt lat="53.871955871582" lon="13.3716907501221">
			<ele>50.9000015258789</ele>
			<time>2014-04-13T12:38:40Z</time>
		</trkpt>
		<trkpt lat="53.8718948364258" lon="13.3717374801636">
			<ele>51</ele>
			<time>2014-04-13T12:38:42Z</time>
		</trkpt>
		<trkpt lat="53.8718376159668" lon="13.3717861175537">
			<ele>51.0999984741211</ele>
			<time>2014-04-13T12:38:44Z</time>
		</trkpt>
		<trkpt lat="53.8717727661133" lon="13.3718338012695">
			<ele>51.0999984741211</ele>
			<time>2014-04-13T12:38:46Z</time>
		</trkpt>
		<trkpt lat="53.871711730957" lon="13.3718862533569">
			<ele>51</ele>
			<time>2014-04-13T12:38:48Z</time>
		</trkpt>
		<trkpt lat="53.8716468811035" lon="13.3719367980957">
			<ele>51.0999984741211</ele>
			<time>2014-04-13T12:38:50Z</time>
		</trkpt>
		<trkpt lat="53.87158203125" lon="13.3719892501831">
			<ele>51.2999992370605</ele>
			<time>2014-04-13T12:38:52Z</time>
		</trkpt>
		<trkpt lat="53.8715171813965" lon="13.3720445632935">
			<ele>51.2999992370605</ele>
			<time>2014-04-13T12:38:54Z</time>
		</trkpt>
		<trkpt lat="53.871452331543" lon="13.3720970153809">
			<ele>51.2999992370605</ele>
			<time>2014-04-13T12:38:56Z</time>
		</trkpt>
		<trkpt lat="53.8713836669922" lon="13.3721485137939">
			<ele>51.2000007629395</ele>
			<time>2014-04-13T12:38:58Z</time>
		</trkpt>
		<trkpt lat="53.8713188171387" lon="13.3722038269043">
			<ele>51.0999984741211</ele>
			<time>2014-04-13T12:39:00Z</time>
		</trkpt>
		<trkpt lat="53.8712539672852" lon="13.3722591400146">
			<ele>51</ele>
			<time>2014-04-13T12:39:02Z</time>
		</trkpt>
		<trkpt lat="53.8711853027344" lon="13.3723134994507">
			<ele>51.2000007629395</ele>
			<time>2014-04-13T12:39:04Z</time>
		</trkpt>
		<trkpt lat="53.8711204528809" lon="13.372368812561">
			<ele>51.2000007629395</ele>
			<time>2014-04-13T12:39:06Z</time>
		</trkpt>
		<trkpt lat="53.8710594177246" lon="13.3724203109741">
			<ele>51.2000007629395</ele>
			<time>2014-04-13T12:39:08Z</time>
		</trkpt>
		<trkpt lat="53.8709907531738" lon="13.3724718093872">
			<ele>51.2000007629395</ele>
			<time>2014-04-13T12:39:10Z</time>
		</trkpt>
		<trkpt lat="53.8709259033203" lon="13.3725261688232">
			<ele>51.2999992370605</ele>
			<time>2014-04-13T12:39:12Z</time>
		</trkpt>
		<trkpt lat="53.8708572387695" lon="13.372579574585">
			<ele>51.2000007629395</ele>
			<time>2014-04-13T12:39:14Z</time>
		</trkpt>
		<trkpt lat="53.8707847595215" lon="13.3726367950439">
			<ele>51.5</ele>
			<time>2014-04-13T12:39:16Z</time>
		</trkpt>
		<trkpt lat="53.8707122802734" lon="13.3726997375488">
			<ele>51.5</ele>
			<time>2014-04-13T12:39:18Z</time>
		</trkpt>
		<trkpt lat="53.8706359863281" lon="13.3727569580078">
			<ele>51.5</ele>
			<time>2014-04-13T12:39:20Z</time>
		</trkpt>
		<trkpt lat="53.8705635070801" lon="13.3728189468384">
			<ele>51.2999992370605</ele>
			<time>2014-04-13T12:39:22Z</time>
		</trkpt>
		<trkpt lat="53.870491027832" lon="13.3728799819946">
			<ele>51.4000015258789</ele>
			<time>2014-04-13T12:39:24Z</time>
		</trkpt>
		<trkpt lat="53.870418548584" lon="13.3729381561279">
			<ele>51.5999984741211</ele>
			<time>2014-04-13T12:39:26Z</time>
		</trkpt>
		<trkpt lat="53.8703460693359" lon="13.3729953765869">
			<ele>51.9000015258789</ele>
			<time>2014-04-13T12:39:28Z</time>
		</trkpt>
		<trkpt lat="53.8702735900879" lon="13.3730545043945">
			<ele>51.9000015258789</ele>
			<time>2014-04-13T12:39:30Z</time>
		</trkpt>
		<trkpt lat="53.8702049255371" lon="13.3731126785278">
			<ele>52</ele>
			<time>2014-04-13T12:39:32Z</time>
		</trkpt>
		<trkpt lat="53.8701324462891" lon="13.3731737136841">
			<ele>52</ele>
			<time>2014-04-13T12:39:34Z</time>
		</trkpt>
		<trkpt lat="53.870059967041" lon="13.3732328414917">
			<ele>52</ele>
			<time>2014-04-13T12:39:36Z</time>
		</trkpt>
		<trkpt lat="53.8699836730957" lon="13.3732929229736">
			<ele>52</ele>
			<time>2014-04-13T12:39:38Z</time>
		</trkpt>
		<trkpt lat="53.8699111938477" lon="13.3733510971069">
			<ele>52.0999984741211</ele>
			<time>2014-04-13T12:39:40Z</time>
		</trkpt>
		<trkpt lat="53.8698348999023" lon="13.3734111785889">
			<ele>52.0999984741211</ele>
			<time>2014-04-13T12:39:42Z</time>
		</trkpt>
		<trkpt lat="53.8697624206543" lon="13.3734712600708">
			<ele>51.9000015258789</ele>
			<time>2014-04-13T12:39:44Z</time>
		</trkpt>
		<trkpt lat="53.869686126709" lon="13.3735332489014">
			<ele>51.9000015258789</ele>
			<time>2014-04-13T12:39:46Z</time>
		</trkpt>
		<trkpt lat="53.8696098327637" lon="13.3735971450806">
			<ele>51.7000007629395</ele>
			<time>2014-04-13T12:39:48Z</time>
		</trkpt>
		<trkpt lat="53.8695297241211" lon="13.3736591339111">
			<ele>51.7000007629395</ele>
			<time>2014-04-13T12:39:50Z</time>
		</trkpt>
		<trkpt lat="53.8694877624512" lon="13.3736925125122">
			<ele>51.7999992370605</ele>
			<time>2014-04-13T12:39:51Z</time>
		</trkpt>
		<trkpt lat="53.869441986084" lon="13.3737268447876">
			<ele>52</ele>
			<time>2014-04-13T12:39:52Z</time>
		</trkpt>
		<trkpt lat="53.8694000244141" lon="13.3737592697144">
			<ele>52.0999984741211</ele>
			<time>2014-04-13T12:39:53Z</time>
		</trkpt>
		<trkpt lat="53.8693580627441" lon="13.3737916946411">
			<ele>52.0999984741211</ele>
			<time>2014-04-13T12:39:54Z</time>
		</trkpt>
		<trkpt lat="53.8693161010742" lon="13.3738241195679">
			<ele>52.2999992370605</ele>
			<time>2014-04-13T12:39:55Z</time>
		</trkpt>
		<trkpt lat="53.8692741394043" lon="13.3738584518433">
			<ele>52.4000015258789</ele>
			<time>2014-04-13T12:39:56Z</time>
		</trkpt>
		<trkpt lat="53.8692321777344" lon="13.37389087677">
			<ele>52.5999984741211</ele>
			<time>2014-04-13T12:39:57Z</time>
		</trkpt>
		<trkpt lat="53.8691864013672" lon="13.3739252090454">
			<ele>52.5999984741211</ele>
			<time>2014-04-13T12:39:58Z</time>
		</trkpt>
		<trkpt lat="53.8691062927246" lon="13.373987197876">
			<ele>52.9000015258789</ele>
			<time>2014-04-13T12:40:00Z</time>
		</trkpt>
		<trkpt lat="53.8690643310547" lon="13.3740215301514">
			<ele>52.7999992370605</ele>
			<time>2014-04-13T12:40:01Z</time>
		</trkpt>
		<trkpt lat="53.8689842224121" lon="13.374077796936">
			<ele>52.7999992370605</ele>
			<time>2014-04-13T12:40:03Z</time>
		</trkpt>
		<trkpt lat="53.8689422607422" lon="13.3741121292114">
			<ele>52.7000007629395</ele>
			<time>2014-04-13T12:40:04Z</time>
		</trkpt>
		<trkpt lat="53.8689002990723" lon="13.3741474151611">
			<ele>52.5999984741211</ele>
			<time>2014-04-13T12:40:05Z</time>
		</trkpt>
		<trkpt lat="53.8688201904297" lon="13.3742094039917">
			<ele>52.7999992370605</ele>
			<time>2014-04-13T12:40:07Z</time>
		</trkpt>
		<trkpt lat="53.8687400817871" lon="13.3742752075195">
			<ele>52.9000015258789</ele>
			<time>2014-04-13T12:40:09Z</time>
		</trkpt>
		<trkpt lat="53.8686599731445" lon="13.3743410110474">
			<ele>52.5</ele>
			<time>2014-04-13T12:40:11Z</time>
		</trkpt>
		<trkpt lat="53.8686180114746" lon="13.3743724822998">
			<ele>52.4000015258789</ele>
			<time>2014-04-13T12:40:12Z</time>
		</trkpt>
		<trkpt lat="53.8685417175293" lon="13.3744354248047">
			<ele>52.5</ele>
			<time>2014-04-13T12:40:14Z</time>
		</trkpt>
		<trkpt lat="53.8684616088867" lon="13.3744993209839">
			<ele>52.5999984741211</ele>
			<time>2014-04-13T12:40:16Z</time>
		</trkpt>
		<trkpt lat="53.8683853149414" lon="13.3745603561401">
			<ele>52.5999984741211</ele>
			<time>2014-04-13T12:40:18Z</time>
		</trkpt>
		<trkpt lat="53.8683128356934" lon="13.3746213912964">
			<ele>52.5</ele>
			<time>2014-04-13T12:40:20Z</time>
		</trkpt>
		<trkpt lat="53.8682327270508" lon="13.374683380127">
			<ele>52.5</ele>
			<time>2014-04-13T12:40:22Z</time>
		</trkpt>
		<trkpt lat="53.8681564331055" lon="13.3747463226318">
			<ele>52.4000015258789</ele>
			<time>2014-04-13T12:40:24Z</time>
		</trkpt>
		<trkpt lat="53.8680763244629" lon="13.3748121261597">
			<ele>52.2000007629395</ele>
			<time>2014-04-13T12:40:26Z</time>
		</trkpt>
		<trkpt lat="53.8679962158203" lon="13.3748741149902">
			<ele>52</ele>
			<time>2014-04-13T12:40:28Z</time>
		</trkpt>
		<trkpt lat="53.8679542541504" lon="13.374906539917">
			<ele>51.9000015258789</ele>
			<time>2014-04-13T12:40:29Z</time>
		</trkpt>
		<trkpt lat="53.8679122924805" lon="13.3749418258667">
			<ele>52</ele>
			<time>2014-04-13T12:40:30Z</time>
		</trkpt>
		<trkpt lat="53.8678703308105" lon="13.3749742507935">
			<ele>52.0999984741211</ele>
			<time>2014-04-13T12:40:31Z</time>
		</trkpt>
		<trkpt lat="53.8678283691406" lon="13.3750104904175">
			<ele>52.0999984741211</ele>
			<time>2014-04-13T12:40:32Z</time>
		</trkpt>
		<trkpt lat="53.867790222168" lon="13.3750410079956">
			<ele>52</ele>
			<time>2014-04-13T12:40:33Z</time>
		</trkpt>
		<trkpt lat="53.867748260498" lon="13.3750734329224">
			<ele>51.9000015258789</ele>
			<time>2014-04-13T12:40:34Z</time>
		</trkpt>
		<trkpt lat="53.8677062988281" lon="13.3751058578491">
			<ele>52</ele>
			<time>2014-04-13T12:40:35Z</time>
		</trkpt>
		<trkpt lat="53.8676643371582" lon="13.3751401901245">
			<ele>51.9000015258789</ele>
			<time>2014-04-13T12:40:36Z</time>
		</trkpt>
		<trkpt lat="53.8676223754883" lon="13.3751726150513">
			<ele>51.9000015258789</ele>
			<time>2014-04-13T12:40:37Z</time>
		</trkpt>
		<trkpt lat="53.867546081543" lon="13.3752374649048">
			<ele>51.7999992370605</ele>
			<time>2014-04-13T12:40:39Z</time>
		</trkpt>
		<trkpt lat="53.8674659729004" lon="13.3753023147583">
			<ele>52</ele>
			<time>2014-04-13T12:40:41Z</time>
		</trkpt>
		<trkpt lat="53.8673896789551" lon="13.3753652572632">
			<ele>51.9000015258789</ele>
			<time>2014-04-13T12:40:43Z</time>
		</trkpt>
		<trkpt lat="53.8673133850098" lon="13.3754301071167">
			<ele>52.0999984741211</ele>
			<time>2014-04-13T12:40:45Z</time>
		</trkpt>
		<trkpt lat="53.8672370910645" lon="13.3754901885986">
			<ele>52.0999984741211</ele>
			<time>2014-04-13T12:40:47Z</time>
		</trkpt>
		<trkpt lat="53.8671569824219" lon="13.3755512237549">
			<ele>52.2999992370605</ele>
			<time>2014-04-13T12:40:49Z</time>
		</trkpt>
		<trkpt lat="53.8670806884766" lon="13.3756141662598">
			<ele>52.4000015258789</ele>
			<time>2014-04-13T12:40:51Z</time>
		</trkpt>
		<trkpt lat="53.8670043945313" lon="13.3756771087646">
			<ele>52.5</ele>
			<time>2014-04-13T12:40:53Z</time>
		</trkpt>
		<trkpt lat="53.8669281005859" lon="13.3757390975952">
			<ele>52.5999984741211</ele>
			<time>2014-04-13T12:40:55Z</time>
		</trkpt>
		<trkpt lat="53.8668518066406" lon="13.3758020401001">
			<ele>52.7000007629395</ele>
			<time>2014-04-13T12:40:57Z</time>
		</trkpt>
		<trkpt lat="53.8667755126953" lon="13.3758640289307">
			<ele>53</ele>
			<time>2014-04-13T12:40:59Z</time>
		</trkpt>
		<trkpt lat="53.8666954040527" lon="13.3759279251099">
			<ele>52.9000015258789</ele>
			<time>2014-04-13T12:41:01Z</time>
		</trkpt>
		<trkpt lat="53.8666572570801" lon="13.3759632110596">
			<ele>52.9000015258789</ele>
			<time>2014-04-13T12:41:02Z</time>
		</trkpt>
		<trkpt lat="53.8665771484375" lon="13.3760261535645">
			<ele>53</ele>
			<time>2014-04-13T12:41:04Z</time>
		</trkpt>
		<trkpt lat="53.8665008544922" lon="13.3760938644409">
			<ele>53.0999984741211</ele>
			<time>2014-04-13T12:41:06Z</time>
		</trkpt>
		<trkpt lat="53.8664207458496" lon="13.3761587142944">
			<ele>53</ele>
			<time>2014-04-13T12:41:08Z</time>
		</trkpt>
		<trkpt lat="53.866340637207" lon="13.3762264251709">
			<ele>53.0999984741211</ele>
			<time>2014-04-13T12:41:10Z</time>
		</trkpt>
		<trkpt lat="53.8662605285645" lon="13.3762941360474">
			<ele>53.0999984741211</ele>
			<time>2014-04-13T12:41:12Z</time>
		</trkpt>
		<trkpt lat="53.8662223815918" lon="13.3763294219971">
			<ele>53.0999984741211</ele>
			<time>2014-04-13T12:41:13Z</time>
		</trkpt>
		<trkpt lat="53.8661804199219" lon="13.3763637542725">
			<ele>53.0999984741211</ele>
			<time>2014-04-13T12:41:14Z</time>
		</trkpt>
		<trkpt lat="53.866138458252" lon="13.3763980865479">
			<ele>53.0999984741211</ele>
			<time>2014-04-13T12:41:15Z</time>
		</trkpt>
		<trkpt lat="53.866096496582" lon="13.3764305114746">
			<ele>53</ele>
			<time>2014-04-13T12:41:16Z</time>
		</trkpt>
		<trkpt lat="53.8660545349121" lon="13.3764638900757">
			<ele>53</ele>
			<time>2014-04-13T12:41:17Z</time>
		</trkpt>
		<trkpt lat="53.8660125732422" lon="13.3764963150024">
			<ele>53.0999984741211</ele>
			<time>2014-04-13T12:41:18Z</time>
		</trkpt>
		<trkpt lat="53.8659706115723" lon="13.3765316009521">
			<ele>53.0999984741211</ele>
			<time>2014-04-13T12:41:19Z</time>
		</trkpt>
		<trkpt lat="53.8659286499023" lon="13.3765659332275">
			<ele>53.2000007629395</ele>
			<time>2014-04-13T12:41:20Z</time>
		</trkpt>
		<trkpt lat="53.8658866882324" lon="13.3766012191772">
			<ele>53.0999984741211</ele>
			<time>2014-04-13T12:41:21Z</time>
		</trkpt>
		<trkpt lat="53.8658447265625" lon="13.3766345977783">
			<ele>52.9000015258789</ele>
			<time>2014-04-13T12:41:22Z</time>
		</trkpt>
		<trkpt lat="53.8658027648926" lon="13.3766679763794">
			<ele>52.7999992370605</ele>
			<time>2014-04-13T12:41:23Z</time>
		</trkpt>
		<trkpt lat="53.8657608032227" lon="13.3767004013062">
			<ele>52.9000015258789</ele>
			<time>2014-04-13T12:41:24Z</time>
		</trkpt>
		<trkpt lat="53.8657188415527" lon="13.3767318725586">
			<ele>52.9000015258789</ele>
			<time>2014-04-13T12:41:25Z</time>
		</trkpt>
		<trkpt lat="53.8656730651855" lon="13.3767652511597">
			<ele>52.5999984741211</ele>
			<time>2014-04-13T12:41:26Z</time>
		</trkpt>
		<trkpt lat="53.865592956543" lon="13.3768339157104">
			<ele>52.2999992370605</ele>
			<time>2014-04-13T12:41:28Z</time>
		</trkpt>
		<trkpt lat="53.865550994873" lon="13.3768663406372">
			<ele>52.2999992370605</ele>
			<time>2014-04-13T12:41:29Z</time>
		</trkpt>
		<trkpt lat="53.8655090332031" lon="13.3769006729126">
			<ele>52.2000007629395</ele>
			<time>2014-04-13T12:41:30Z</time>
		</trkpt>
		<trkpt lat="53.8654670715332" lon="13.3769340515137">
			<ele>52.2999992370605</ele>
			<time>2014-04-13T12:41:31Z</time>
		</trkpt>
		<trkpt lat="53.865421295166" lon="13.3769636154175">
			<ele>52.7000007629395</ele>
			<time>2014-04-13T12:41:32Z</time>
		</trkpt>
		<trkpt lat="53.8653793334961" lon="13.3769969940186">
			<ele>52.7999992370605</ele>
			<time>2014-04-13T12:41:33Z</time>
		</trkpt>
		<trkpt lat="53.8652954101563" lon="13.3770561218262">
			<ele>52.7999992370605</ele>
			<time>2014-04-13T12:41:35Z</time>
		</trkpt>
		<trkpt lat="53.8652534484863" lon="13.3770875930786">
			<ele>52.5999984741211</ele>
			<time>2014-04-13T12:41:36Z</time>
		</trkpt>
		<trkpt lat="53.8652076721191" lon="13.3771190643311">
			<ele>52.5</ele>
			<time>2014-04-13T12:41:37Z</time>
		</trkpt>
		<trkpt lat="53.8651657104492" lon="13.3771533966064">
			<ele>52.2000007629395</ele>
			<time>2014-04-13T12:41:38Z</time>
		</trkpt>
		<trkpt lat="53.8651237487793" lon="13.3771848678589">
			<ele>52.2000007629395</ele>
			<time>2014-04-13T12:41:39Z</time>
		</trkpt>
		<trkpt lat="53.8650817871094" lon="13.3772192001343">
			<ele>51.7999992370605</ele>
			<time>2014-04-13T12:41:40Z</time>
		</trkpt>
		<trkpt lat="53.8650360107422" lon="13.377251625061">
			<ele>51.9000015258789</ele>
			<time>2014-04-13T12:41:41Z</time>
		</trkpt>
		<trkpt lat="53.864990234375" lon="13.3772859573364">
			<ele>52.0999984741211</ele>
			<time>2014-04-13T12:41:42Z</time>
		</trkpt>
		<trkpt lat="53.8649444580078" lon="13.3773202896118">
			<ele>51.9000015258789</ele>
			<time>2014-04-13T12:41:43Z</time>
		</trkpt>
		<trkpt lat="53.8649024963379" lon="13.3773546218872">
			<ele>51.7999992370605</ele>
			<time>2014-04-13T12:41:44Z</time>
		</trkpt>
		<trkpt lat="53.8648567199707" lon="13.3773889541626">
			<ele>51.5</ele>
			<time>2014-04-13T12:41:45Z</time>
		</trkpt>
		<trkpt lat="53.8648109436035" lon="13.3774223327637">
			<ele>51.5999984741211</ele>
			<time>2014-04-13T12:41:46Z</time>
		</trkpt>
		<trkpt lat="53.8647651672363" lon="13.377459526062">
			<ele>51.5999984741211</ele>
			<time>2014-04-13T12:41:47Z</time>
		</trkpt>
		<trkpt lat="53.8647193908691" lon="13.3774948120117">
			<ele>51.7000007629395</ele>
			<time>2014-04-13T12:41:48Z</time>
		</trkpt>
		<trkpt lat="53.864673614502" lon="13.3775300979614">
			<ele>51.7000007629395</ele>
			<time>2014-04-13T12:41:49Z</time>
		</trkpt>
		<trkpt lat="53.8646278381348" lon="13.3775653839111">
			<ele>51.7000007629395</ele>
			<time>2014-04-13T12:41:50Z</time>
		</trkpt>
		<trkpt lat="53.8645820617676" lon="13.3776016235352">
			<ele>52</ele>
			<time>2014-04-13T12:41:51Z</time>
		</trkpt>
		<trkpt lat="53.8645362854004" lon="13.3776397705078">
			<ele>52.0999984741211</ele>
			<time>2014-04-13T12:41:52Z</time>
		</trkpt>
		<trkpt lat="53.8644905090332" lon="13.3776760101318">
			<ele>52.2000007629395</ele>
			<time>2014-04-13T12:41:53Z</time>
		</trkpt>
		<trkpt lat="53.8644485473633" lon="13.3777170181274">
			<ele>52.0999984741211</ele>
			<time>2014-04-13T12:41:54Z</time>
		</trkpt>
		<trkpt lat="53.8644065856934" lon="13.3777523040771">
			<ele>52</ele>
			<time>2014-04-13T12:41:55Z</time>
		</trkpt>
		<trkpt lat="53.8643608093262" lon="13.3777904510498">
			<ele>52.0999984741211</ele>
			<time>2014-04-13T12:41:56Z</time>
		</trkpt>
		<trkpt lat="53.8643188476563" lon="13.3778314590454">
			<ele>52</ele>
			<time>2014-04-13T12:41:57Z</time>
		</trkpt>
		<trkpt lat="53.8642730712891" lon="13.3778696060181">
			<ele>52</ele>
			<time>2014-04-13T12:41:58Z</time>
		</trkpt>
		<trkpt lat="53.8642272949219" lon="13.3779144287109">
			<ele>52</ele>
			<time>2014-04-13T12:41:59Z</time>
		</trkpt>
		<trkpt lat="53.8641891479492" lon="13.3779611587524">
			<ele>51.9000015258789</ele>
			<time>2014-04-13T12:42:00Z</time>
		</trkpt>
		<trkpt lat="53.8641510009766" lon="13.3780155181885">
			<ele>51.7999992370605</ele>
			<time>2014-04-13T12:42:01Z</time>
		</trkpt>
		<trkpt lat="53.8641090393066" lon="13.3780736923218">
			<ele>51.7000007629395</ele>
			<time>2014-04-13T12:42:02Z</time>
		</trkpt>
		<trkpt lat="53.864070892334" lon="13.3781328201294">
			<ele>51.7999992370605</ele>
			<time>2014-04-13T12:42:03Z</time>
		</trkpt>
		<trkpt lat="53.8640365600586" lon="13.37819480896">
			<ele>51.9000015258789</ele>
			<time>2014-04-13T12:42:04Z</time>
		</trkpt>
		<trkpt lat="53.8640022277832" lon="13.3782529830933">
			<ele>52</ele>
			<time>2014-04-13T12:42:05Z</time>
		</trkpt>
		<trkpt lat="53.8639640808105" lon="13.3783082962036">
			<ele>52.0999984741211</ele>
			<time>2014-04-13T12:42:06Z</time>
		</trkpt>
		<trkpt lat="53.8639297485352" lon="13.3783655166626">
			<ele>52</ele>
			<time>2014-04-13T12:42:07Z</time>
		</trkpt>
		<trkpt lat="53.8638916015625" lon="13.3784236907959">
			<ele>52.0999984741211</ele>
			<time>2014-04-13T12:42:08Z</time>
		</trkpt>
		<trkpt lat="53.8638534545898" lon="13.3784780502319">
			<ele>52</ele>
			<time>2014-04-13T12:42:09Z</time>
		</trkpt>
		<trkpt lat="53.8638114929199" lon="13.3785333633423">
			<ele>51.9000015258789</ele>
			<time>2014-04-13T12:42:10Z</time>
		</trkpt>
		<trkpt lat="53.8637733459473" lon="13.3785858154297">
			<ele>52</ele>
			<time>2014-04-13T12:42:11Z</time>
		</trkpt>
		<trkpt lat="53.8637313842773" lon="13.3786401748657">
			<ele>51.9000015258789</ele>
			<time>2014-04-13T12:42:12Z</time>
		</trkpt>
		<trkpt lat="53.8636894226074" lon="13.3786935806274">
			<ele>52.0999984741211</ele>
			<time>2014-04-13T12:42:13Z</time>
		</trkpt>
		<trkpt lat="53.8636474609375" lon="13.3787469863892">
			<ele>52.2000007629395</ele>
			<time>2014-04-13T12:42:14Z</time>
		</trkpt>
		<trkpt lat="53.8636016845703" lon="13.3788013458252">
			<ele>52.4000015258789</ele>
			<time>2014-04-13T12:42:15Z</time>
		</trkpt>
		<trkpt lat="53.8635597229004" lon="13.3788528442383">
			<ele>52.7000007629395</ele>
			<time>2014-04-13T12:42:16Z</time>
		</trkpt>
		<trkpt lat="53.8635139465332" lon="13.3789072036743">
			<ele>52.7000007629395</ele>
			<time>2014-04-13T12:42:17Z</time>
		</trkpt>
		<trkpt lat="53.8634719848633" lon="13.378963470459">
			<ele>52.7999992370605</ele>
			<time>2014-04-13T12:42:18Z</time>
		</trkpt>
		<trkpt lat="53.8634262084961" lon="13.3790187835693">
			<ele>52.7999992370605</ele>
			<time>2014-04-13T12:42:19Z</time>
		</trkpt>
		<trkpt lat="53.8633842468262" lon="13.3790721893311">
			<ele>52.7999992370605</ele>
			<time>2014-04-13T12:42:20Z</time>
		</trkpt>
		<trkpt lat="53.863338470459" lon="13.3791284561157">
			<ele>52.7999992370605</ele>
			<time>2014-04-13T12:42:21Z</time>
		</trkpt>
		<trkpt lat="53.8632926940918" lon="13.3791809082031">
			<ele>53.0999984741211</ele>
			<time>2014-04-13T12:42:22Z</time>
		</trkpt>
		<trkpt lat="53.8632507324219" lon="13.3792362213135">
			<ele>53.2999992370605</ele>
			<time>2014-04-13T12:42:23Z</time>
		</trkpt>
		<trkpt lat="53.863208770752" lon="13.3792896270752">
			<ele>53.5</ele>
			<time>2014-04-13T12:42:24Z</time>
		</trkpt>
		<trkpt lat="53.8631629943848" lon="13.379340171814">
			<ele>53.5</ele>
			<time>2014-04-13T12:42:25Z</time>
		</trkpt>
		<trkpt lat="53.8631172180176" lon="13.3793954849243">
			<ele>53.5999984741211</ele>
			<time>2014-04-13T12:42:26Z</time>
		</trkpt>
		<trkpt lat="53.8630790710449" lon="13.379448890686">
			<ele>53.5</ele>
			<time>2014-04-13T12:42:27Z</time>
		</trkpt>
		<trkpt lat="53.8630409240723" lon="13.3794965744019">
			<ele>53.4000015258789</ele>
			<time>2014-04-13T12:42:28Z</time>
		</trkpt>
		<trkpt lat="53.8629989624023" lon="13.3795480728149">
			<ele>53.5</ele>
			<time>2014-04-13T12:42:29Z</time>
		</trkpt>
		<trkpt lat="53.8629608154297" lon="13.379602432251">
			<ele>53.2000007629395</ele>
			<time>2014-04-13T12:42:30Z</time>
		</trkpt>
		<trkpt lat="53.862922668457" lon="13.3796529769897">
			<ele>53.2000007629395</ele>
			<time>2014-04-13T12:42:31Z</time>
		</trkpt>
		<trkpt lat="53.8628845214844" lon="13.3797054290771">
			<ele>53.2000007629395</ele>
			<time>2014-04-13T12:42:32Z</time>
		</trkpt>
		<trkpt lat="53.8628463745117" lon="13.3797550201416">
			<ele>53.2000007629395</ele>
			<time>2014-04-13T12:42:33Z</time>
		</trkpt>
		<trkpt lat="53.8628044128418" lon="13.379810333252">
			<ele>52.9000015258789</ele>
			<time>2014-04-13T12:42:34Z</time>
		</trkpt>
		<trkpt lat="53.8627586364746" lon="13.3798666000366">
			<ele>52.7000007629395</ele>
			<time>2014-04-13T12:42:35Z</time>
		</trkpt>
		<trkpt lat="53.8627128601074" lon="13.3799257278442">
			<ele>52.5999984741211</ele>
			<time>2014-04-13T12:42:36Z</time>
		</trkpt>
		<trkpt lat="53.8626670837402" lon="13.3799810409546">
			<ele>52.5999984741211</ele>
			<time>2014-04-13T12:42:37Z</time>
		</trkpt>
		<trkpt lat="53.862621307373" lon="13.3800392150879">
			<ele>52.4000015258789</ele>
			<time>2014-04-13T12:42:38Z</time>
		</trkpt>
		<trkpt lat="53.8625717163086" lon="13.3800992965698">
			<ele>52.2000007629395</ele>
			<time>2014-04-13T12:42:39Z</time>
		</trkpt>
		<trkpt lat="53.8625259399414" lon="13.3801565170288">
			<ele>52.2999992370605</ele>
			<time>2014-04-13T12:42:40Z</time>
		</trkpt>
		<trkpt lat="53.8624801635742" lon="13.3802165985107">
			<ele>52.2999992370605</ele>
			<time>2014-04-13T12:42:41Z</time>
		</trkpt>
		<trkpt lat="53.862434387207" lon="13.3802738189697">
			<ele>52.4000015258789</ele>
			<time>2014-04-13T12:42:42Z</time>
		</trkpt>
		<trkpt lat="53.8623886108398" lon="13.3803329467773">
			<ele>52.2000007629395</ele>
			<time>2014-04-13T12:42:43Z</time>
		</trkpt>
		<trkpt lat="53.8623428344727" lon="13.3803930282593">
			<ele>52.0999984741211</ele>
			<time>2014-04-13T12:42:44Z</time>
		</trkpt>
		<trkpt lat="53.8622970581055" lon="13.3804512023926">
			<ele>52.0999984741211</ele>
			<time>2014-04-13T12:42:45Z</time>
		</trkpt>
		<trkpt lat="53.8622512817383" lon="13.3805103302002">
			<ele>52.2000007629395</ele>
			<time>2014-04-13T12:42:46Z</time>
		</trkpt>
		<trkpt lat="53.8622055053711" lon="13.3805751800537">
			<ele>52.0999984741211</ele>
			<time>2014-04-13T12:42:47Z</time>
		</trkpt>
		<trkpt lat="53.8621597290039" lon="13.3806381225586">
			<ele>52.2000007629395</ele>
			<time>2014-04-13T12:42:48Z</time>
		</trkpt>
		<trkpt lat="53.8621139526367" lon="13.3807020187378">
			<ele>52.2000007629395</ele>
			<time>2014-04-13T12:42:49Z</time>
		</trkpt>
		<trkpt lat="53.8620681762695" lon="13.3807640075684">
			<ele>52.0999984741211</ele>
			<time>2014-04-13T12:42:50Z</time>
		</trkpt>
		<trkpt lat="53.8620185852051" lon="13.3808279037476">
			<ele>52.0999984741211</ele>
			<time>2014-04-13T12:42:51Z</time>
		</trkpt>
		<trkpt lat="53.8619689941406" lon="13.3808908462524">
			<ele>52</ele>
			<time>2014-04-13T12:42:52Z</time>
		</trkpt>
		<trkpt lat="53.8619194030762" lon="13.380952835083">
			<ele>52.2000007629395</ele>
			<time>2014-04-13T12:42:53Z</time>
		</trkpt>
		<trkpt lat="53.861873626709" lon="13.3810167312622">
			<ele>52.0999984741211</ele>
			<time>2014-04-13T12:42:54Z</time>
		</trkpt>
		<trkpt lat="53.8618202209473" lon="13.3810796737671">
			<ele>52.2000007629395</ele>
			<time>2014-04-13T12:42:55Z</time>
		</trkpt>
		<trkpt lat="53.8617744445801" lon="13.3811349868774">
			<ele>51.9000015258789</ele>
			<time>2014-04-13T12:42:56Z</time>
		</trkpt>
		<trkpt lat="53.8617248535156" lon="13.381199836731">
			<ele>51.5999984741211</ele>
			<time>2014-04-13T12:42:57Z</time>
		</trkpt>
		<trkpt lat="53.8616752624512" lon="13.3812675476074">
			<ele>51.5</ele>
			<time>2014-04-13T12:42:58Z</time>
		</trkpt>
		<trkpt lat="53.8616256713867" lon="13.3813343048096">
			<ele>51.5999984741211</ele>
			<time>2014-04-13T12:42:59Z</time>
		</trkpt>
		<trkpt lat="53.8615798950195" lon="13.3813972473145">
			<ele>51.5999984741211</ele>
			<time>2014-04-13T12:43:00Z</time>
		</trkpt>
		<trkpt lat="53.8615303039551" lon="13.381462097168">
			<ele>51.5999984741211</ele>
			<time>2014-04-13T12:43:01Z</time>
		</trkpt>
		<trkpt lat="53.8614768981934" lon="13.3815259933472">
			<ele>51.5</ele>
			<time>2014-04-13T12:43:02Z</time>
		</trkpt>
		<trkpt lat="53.8614273071289" lon="13.3815937042236">
			<ele>51.4000015258789</ele>
			<time>2014-04-13T12:43:03Z</time>
		</trkpt>
		<trkpt lat="53.8613739013672" lon="13.3816556930542">
			<ele>51.2000007629395</ele>
			<time>2014-04-13T12:43:04Z</time>
		</trkpt>
		<trkpt lat="53.8613204956055" lon="13.3817253112793">
			<ele>51.2000007629395</ele>
			<time>2014-04-13T12:43:05Z</time>
		</trkpt>
		<trkpt lat="53.8612670898438" lon="13.3817977905273">
			<ele>51.0999984741211</ele>
			<time>2014-04-13T12:43:06Z</time>
		</trkpt>
		<trkpt lat="53.861213684082" lon="13.3818693161011">
			<ele>51</ele>
			<time>2014-04-13T12:43:07Z</time>
		</trkpt>
		<trkpt lat="53.8611640930176" lon="13.3819370269775">
			<ele>51</ele>
			<time>2014-04-13T12:43:08Z</time>
		</trkpt>
		<trkpt lat="53.8611106872559" lon="13.382004737854">
			<ele>50.9000015258789</ele>
			<time>2014-04-13T12:43:09Z</time>
		</trkpt>
		<trkpt lat="53.8610534667969" lon="13.3820791244507">
			<ele>50.7999992370605</ele>
			<time>2014-04-13T12:43:10Z</time>
		</trkpt>
		<trkpt lat="53.8609962463379" lon="13.3821496963501">
			<ele>50.7000007629395</ele>
			<time>2014-04-13T12:43:11Z</time>
		</trkpt>
		<trkpt lat="53.8609390258789" lon="13.3822212219238">
			<ele>50.4000015258789</ele>
			<time>2014-04-13T12:43:12Z</time>
		</trkpt>
		<trkpt lat="53.8608856201172" lon="13.3822917938232">
			<ele>50</ele>
			<time>2014-04-13T12:43:13Z</time>
		</trkpt>
		<trkpt lat="53.8608283996582" lon="13.3823595046997">
			<ele>49.9000015258789</ele>
			<time>2014-04-13T12:43:14Z</time>
		</trkpt>
		<trkpt lat="53.8607749938965" lon="13.3824272155762">
			<ele>49.9000015258789</ele>
			<time>2014-04-13T12:43:15Z</time>
		</trkpt>
		<trkpt lat="53.8607215881348" lon="13.3824968338013">
			<ele>49.7000007629395</ele>
			<time>2014-04-13T12:43:16Z</time>
		</trkpt>
		<trkpt lat="53.860668182373" lon="13.3825645446777">
			<ele>49.5999984741211</ele>
			<time>2014-04-13T12:43:17Z</time>
		</trkpt>
		<trkpt lat="53.8606147766113" lon="13.3826341629028">
			<ele>49.5</ele>
			<time>2014-04-13T12:43:18Z</time>
		</trkpt>
		<trkpt lat="53.8605575561523" lon="13.382700920105">
			<ele>49.2000007629395</ele>
			<time>2014-04-13T12:43:19Z</time>
		</trkpt>
		<trkpt lat="53.8605041503906" lon="13.3827648162842">
			<ele>49.0999984741211</ele>
			<time>2014-04-13T12:43:20Z</time>
		</trkpt>
		<trkpt lat="53.8604469299316" lon="13.3828353881836">
			<ele>48.7999992370605</ele>
			<time>2014-04-13T12:43:21Z</time>
		</trkpt>
		<trkpt lat="53.8603973388672" lon="13.3829078674316">
			<ele>48.7999992370605</ele>
			<time>2014-04-13T12:43:22Z</time>
		</trkpt>
		<trkpt lat="53.8603401184082" lon="13.3829736709595">
			<ele>48.5999984741211</ele>
			<time>2014-04-13T12:43:23Z</time>
		</trkpt>
		<trkpt lat="53.8602905273438" lon="13.383038520813">
			<ele>48.5999984741211</ele>
			<time>2014-04-13T12:43:24Z</time>
		</trkpt>
		<trkpt lat="53.8602447509766" lon="13.3831081390381">
			<ele>48.5999984741211</ele>
			<time>2014-04-13T12:43:25Z</time>
		</trkpt>
		<trkpt lat="53.8601951599121" lon="13.3831834793091">
			<ele>48.2000007629395</ele>
			<time>2014-04-13T12:43:26Z</time>
		</trkpt>
		<trkpt lat="53.8601493835449" lon="13.3832569122314">
			<ele>47.9000015258789</ele>
			<time>2014-04-13T12:43:27Z</time>
		</trkpt>
		<trkpt lat="53.8601036071777" lon="13.3833284378052">
			<ele>47.9000015258789</ele>
			<time>2014-04-13T12:43:28Z</time>
		</trkpt>
		<trkpt lat="53.8600540161133" lon="13.3833932876587">
			<ele>47.5999984741211</ele>
			<time>2014-04-13T12:43:29Z</time>
		</trkpt>
		<trkpt lat="53.8600006103516" lon="13.3834581375122">
			<ele>47.7000007629395</ele>
			<time>2014-04-13T12:43:30Z</time>
		</trkpt>
		<trkpt lat="53.8599510192871" lon="13.3835220336914">
			<ele>47.5</ele>
			<time>2014-04-13T12:43:31Z</time>
		</trkpt>
		<trkpt lat="53.8598976135254" lon="13.3835878372192">
			<ele>47.2999992370605</ele>
			<time>2014-04-13T12:43:32Z</time>
		</trkpt>
		<trkpt lat="53.8598480224609" lon="13.3836517333984">
			<ele>47</ele>
			<time>2014-04-13T12:43:33Z</time>
		</trkpt>
		<trkpt lat="53.859790802002" lon="13.3837156295776">
			<ele>46.7999992370605</ele>
			<time>2014-04-13T12:43:34Z</time>
		</trkpt>
		<trkpt lat="53.8597412109375" lon="13.3837814331055">
			<ele>46.7000007629395</ele>
			<time>2014-04-13T12:43:35Z</time>
		</trkpt>
		<trkpt lat="53.8596878051758" lon="13.3838472366333">
			<ele>46.5999984741211</ele>
			<time>2014-04-13T12:43:36Z</time>
		</trkpt>
		<trkpt lat="53.8596343994141" lon="13.3839130401611">
			<ele>46.5999984741211</ele>
			<time>2014-04-13T12:43:37Z</time>
		</trkpt>
		<trkpt lat="53.8595848083496" lon="13.3839750289917">
			<ele>46.5</ele>
			<time>2014-04-13T12:43:38Z</time>
		</trkpt>
		<trkpt lat="53.8595314025879" lon="13.3840370178223">
			<ele>46.2000007629395</ele>
			<time>2014-04-13T12:43:39Z</time>
		</trkpt>
		<trkpt lat="53.8594818115234" lon="13.3840980529785">
			<ele>46.2000007629395</ele>
			<time>2014-04-13T12:43:40Z</time>
		</trkpt>
		<trkpt lat="53.859432220459" lon="13.3841552734375">
			<ele>45.9000015258789</ele>
			<time>2014-04-13T12:43:41Z</time>
		</trkpt>
		<trkpt lat="53.8593864440918" lon="13.3842124938965">
			<ele>46</ele>
			<time>2014-04-13T12:43:42Z</time>
		</trkpt>
		<trkpt lat="53.8593368530273" lon="13.3842716217041">
			<ele>45.7000007629395</ele>
			<time>2014-04-13T12:43:43Z</time>
		</trkpt>
		<trkpt lat="53.8592910766602" lon="13.3843326568604">
			<ele>45.7000007629395</ele>
			<time>2014-04-13T12:43:44Z</time>
		</trkpt>
		<trkpt lat="53.859245300293" lon="13.3843965530396">
			<ele>45.5</ele>
			<time>2014-04-13T12:43:45Z</time>
		</trkpt>
		<trkpt lat="53.8591957092285" lon="13.3844556808472">
			<ele>45.5</ele>
			<time>2014-04-13T12:43:46Z</time>
		</trkpt>
		<trkpt lat="53.8591499328613" lon="13.3845176696777">
			<ele>45.5999984741211</ele>
			<time>2014-04-13T12:43:47Z</time>
		</trkpt>
		<trkpt lat="53.8591041564941" lon="13.3845834732056">
			<ele>45.5</ele>
			<time>2014-04-13T12:43:48Z</time>
		</trkpt>
		<trkpt lat="53.8590545654297" lon="13.3846445083618">
			<ele>45.5999984741211</ele>
			<time>2014-04-13T12:43:49Z</time>
		</trkpt>
		<trkpt lat="53.8590087890625" lon="13.3847074508667">
			<ele>45.7000007629395</ele>
			<time>2014-04-13T12:43:50Z</time>
		</trkpt>
		<trkpt lat="53.858959197998" lon="13.3847742080688">
			<ele>45.5999984741211</ele>
			<time>2014-04-13T12:43:51Z</time>
		</trkpt>
		<trkpt lat="53.8589096069336" lon="13.3848371505737">
			<ele>45.5</ele>
			<time>2014-04-13T12:43:52Z</time>
		</trkpt>
		<trkpt lat="53.8588638305664" lon="13.3848991394043">
			<ele>45.2999992370605</ele>
			<time>2014-04-13T12:43:53Z</time>
		</trkpt>
		<trkpt lat="53.858814239502" lon="13.3849601745605">
			<ele>45.2999992370605</ele>
			<time>2014-04-13T12:43:54Z</time>
		</trkpt>
		<trkpt lat="53.8587684631348" lon="13.3850240707397">
			<ele>45</ele>
			<time>2014-04-13T12:43:55Z</time>
		</trkpt>
		<trkpt lat="53.8587188720703" lon="13.3850879669189">
			<ele>44.7000007629395</ele>
			<time>2014-04-13T12:43:56Z</time>
		</trkpt>
		<trkpt lat="53.8586692810059" lon="13.3851528167725">
			<ele>44.5</ele>
			<time>2014-04-13T12:43:57Z</time>
		</trkpt>
		<trkpt lat="53.8586235046387" lon="13.3852167129517">
			<ele>44.4000015258789</ele>
			<time>2014-04-13T12:43:58Z</time>
		</trkpt>
		<trkpt lat="53.8585777282715" lon="13.3852844238281">
			<ele>44.4000015258789</ele>
			<time>2014-04-13T12:43:59Z</time>
		</trkpt>
		<trkpt lat="53.8585357666016" lon="13.3853521347046">
			<ele>44.4000015258789</ele>
			<time>2014-04-13T12:44:00Z</time>
		</trkpt>
		<trkpt lat="53.8584899902344" lon="13.3854198455811">
			<ele>44.2000007629395</ele>
			<time>2014-04-13T12:44:01Z</time>
		</trkpt>
		<trkpt lat="53.8584442138672" lon="13.3854837417603">
			<ele>44.0999984741211</ele>
			<time>2014-04-13T12:44:02Z</time>
		</trkpt>
		<trkpt lat="53.8583984375" lon="13.3855466842651">
			<ele>44.2000007629395</ele>
			<time>2014-04-13T12:44:03Z</time>
		</trkpt>
		<trkpt lat="53.8583526611328" lon="13.385612487793">
			<ele>44</ele>
			<time>2014-04-13T12:44:04Z</time>
		</trkpt>
		<trkpt lat="53.8583030700684" lon="13.3856782913208">
			<ele>44.0999984741211</ele>
			<time>2014-04-13T12:44:05Z</time>
		</trkpt>
		<trkpt lat="53.8582572937012" lon="13.3857412338257">
			<ele>44.0999984741211</ele>
			<time>2014-04-13T12:44:06Z</time>
		</trkpt>
		<trkpt lat="53.8582153320313" lon="13.3858041763306">
			<ele>44</ele>
			<time>2014-04-13T12:44:08Z</time>
		</trkpt>
		<trkpt lat="53.8581352233887" lon="13.3859376907349">
			<ele>44.0999984741211</ele>
			<time>2014-04-13T12:44:09Z</time>
		</trkpt>
		<trkpt lat="53.858097076416" lon="13.3860034942627">
			<ele>44.4000015258789</ele>
			<time>2014-04-13T12:44:10Z</time>
		</trkpt>
		<trkpt lat="53.8580551147461" lon="13.3861112594604">
			<ele>44.2999992370605</ele>
			<time>2014-04-13T12:44:12Z</time>
		</trkpt>
		<trkpt lat="53.8580322265625" lon="13.3862066268921">
			<ele>44.4000015258789</ele>
			<time>2014-04-13T12:44:14Z</time>
		</trkpt>
		<trkpt lat="53.8580017089844" lon="13.3862895965576">
			<ele>44.0999984741211</ele>
			<time>2014-04-13T12:44:17Z</time>
		</trkpt>
		<trkpt lat="53.8579597473145" lon="13.3863477706909">
			<ele>43.5999984741211</ele>
			<time>2014-04-13T12:44:35Z</time>
		</trkpt>
		<trkpt lat="53.8579139709473" lon="13.3863334655762">
			<ele>43.9000015258789</ele>
			<time>2014-04-13T12:44:37Z</time>
		</trkpt>
		<trkpt lat="53.8578605651855" lon="13.3863210678101">
			<ele>43.5</ele>
			<time>2014-04-13T12:44:39Z</time>
		</trkpt>
		<trkpt lat="53.857795715332" lon="13.3863048553467">
			<ele>43.5999984741211</ele>
			<time>2014-04-13T12:44:41Z</time>
		</trkpt>
		<trkpt lat="53.8577308654785" lon="13.3862924575806">
			<ele>43.7999992370605</ele>
			<time>2014-04-13T12:44:43Z</time>
		</trkpt>
		<trkpt lat="53.857666015625" lon="13.386284828186">
			<ele>44</ele>
			<time>2014-04-13T12:44:45Z</time>
		</trkpt>
		<trkpt lat="53.857608795166" lon="13.3862934112549">
			<ele>43.7000007629395</ele>
			<time>2014-04-13T12:44:47Z</time>
		</trkpt>
		<trkpt lat="53.8575439453125" lon="13.3862972259521">
			<ele>43.7000007629395</ele>
			<time>2014-04-13T12:44:49Z</time>
		</trkpt>
		<trkpt lat="53.8574676513672" lon="13.386302947998">
			<ele>43.7000007629395</ele>
			<time>2014-04-13T12:44:51Z</time>
		</trkpt>
		<trkpt lat="53.8573837280273" lon="13.3863019943237">
			<ele>43.9000015258789</ele>
			<time>2014-04-13T12:44:53Z</time>
		</trkpt>
		<trkpt lat="53.8572959899902" lon="13.386323928833">
			<ele>43.7999992370605</ele>
			<time>2014-04-13T12:44:55Z</time>
		</trkpt>
		<trkpt lat="53.8572082519531" lon="13.3863401412964">
			<ele>44</ele>
			<time>2014-04-13T12:44:57Z</time>
		</trkpt>
		<trkpt lat="53.857120513916" lon="13.3863496780396">
			<ele>43.9000015258789</ele>
			<time>2014-04-13T12:44:59Z</time>
		</trkpt>
		<trkpt lat="53.8570289611816" lon="13.3863639831543">
			<ele>43.9000015258789</ele>
			<time>2014-04-13T12:45:01Z</time>
		</trkpt>
		<trkpt lat="53.8569412231445" lon="13.3863801956177">
			<ele>43.9000015258789</ele>
			<time>2014-04-13T12:45:03Z</time>
		</trkpt>
		<trkpt lat="53.8568916320801" lon="13.3863859176636">
			<ele>43.9000015258789</ele>
			<time>2014-04-13T12:45:04Z</time>
		</trkpt>
		<trkpt lat="53.8568420410156" lon="13.3863954544067">
			<ele>44.4000015258789</ele>
			<time>2014-04-13T12:45:05Z</time>
		</trkpt>
		<trkpt lat="53.8567962646484" lon="13.3864154815674">
			<ele>44.2000007629395</ele>
			<time>2014-04-13T12:45:06Z</time>
		</trkpt>
		<trkpt lat="53.8567504882813" lon="13.3864154815674">
			<ele>43.9000015258789</ele>
			<time>2014-04-13T12:45:07Z</time>
		</trkpt>
		<trkpt lat="53.8567008972168" lon="13.386420249939">
			<ele>44</ele>
			<time>2014-04-13T12:45:08Z</time>
		</trkpt>
		<trkpt lat="53.8566551208496" lon="13.3864316940308">
			<ele>43.7000007629395</ele>
			<time>2014-04-13T12:45:09Z</time>
		</trkpt>
		<trkpt lat="53.8566055297852" lon="13.3864488601685">
			<ele>43.5</ele>
			<time>2014-04-13T12:45:10Z</time>
		</trkpt>
		<trkpt lat="53.8565559387207" lon="13.3864679336548">
			<ele>43.4000015258789</ele>
			<time>2014-04-13T12:45:11Z</time>
		</trkpt>
		<trkpt lat="53.8564987182617" lon="13.3864879608154">
			<ele>43.4000015258789</ele>
			<time>2014-04-13T12:45:12Z</time>
		</trkpt>
		<trkpt lat="53.8564453125" lon="13.3865032196045">
			<ele>43.7000007629395</ele>
			<time>2014-04-13T12:45:13Z</time>
		</trkpt>
		<trkpt lat="53.8563919067383" lon="13.3865184783936">
			<ele>43.7000007629395</ele>
			<time>2014-04-13T12:45:14Z</time>
		</trkpt>
		<trkpt lat="53.8563385009766" lon="13.386547088623">
			<ele>43.7000007629395</ele>
			<time>2014-04-13T12:45:15Z</time>
		</trkpt>
		<trkpt lat="53.8562812805176" lon="13.3865718841553">
			<ele>43.7000007629395</ele>
			<time>2014-04-13T12:45:16Z</time>
		</trkpt>
		<trkpt lat="53.8562316894531" lon="13.3865919113159">
			<ele>43.7999992370605</ele>
			<time>2014-04-13T12:45:17Z</time>
		</trkpt>
		<trkpt lat="53.8561744689941" lon="13.386622428894">
			<ele>43.7000007629395</ele>
			<time>2014-04-13T12:45:18Z</time>
		</trkpt>
		<trkpt lat="53.8561248779297" lon="13.3866586685181">
			<ele>43.7000007629395</ele>
			<time>2014-04-13T12:45:19Z</time>
		</trkpt>
		<trkpt lat="53.8560600280762" lon="13.3866920471191">
			<ele>44</ele>
			<time>2014-04-13T12:45:20Z</time>
		</trkpt>
		<trkpt lat="53.8560028076172" lon="13.3867130279541">
			<ele>43.9000015258789</ele>
			<time>2014-04-13T12:45:21Z</time>
		</trkpt>
		<trkpt lat="53.8559455871582" lon="13.3867311477661">
			<ele>43.5999984741211</ele>
			<time>2014-04-13T12:45:22Z</time>
		</trkpt>
		<trkpt lat="53.8558807373047" lon="13.3867568969727">
			<ele>43.2000007629395</ele>
			<time>2014-04-13T12:45:23Z</time>
		</trkpt>
		<trkpt lat="53.8558235168457" lon="13.3867721557617">
			<ele>42.7999992370605</ele>
			<time>2014-04-13T12:45:24Z</time>
		</trkpt>
		<trkpt lat="53.8557662963867" lon="13.3867826461792">
			<ele>42.7000007629395</ele>
			<time>2014-04-13T12:45:25Z</time>
		</trkpt>
		<trkpt lat="53.855712890625" lon="13.3868093490601">
			<ele>42.9000015258789</ele>
			<time>2014-04-13T12:45:26Z</time>
		</trkpt>
		<trkpt lat="53.8556632995605" lon="13.386830329895">
			<ele>42.7999992370605</ele>
			<time>2014-04-13T12:45:27Z</time>
		</trkpt>
		<trkpt lat="53.8556022644043" lon="13.3868608474731">
			<ele>42.5999984741211</ele>
			<time>2014-04-13T12:45:28Z</time>
		</trkpt>
		<trkpt lat="53.8555450439453" lon="13.3868932723999">
			<ele>42.4000015258789</ele>
			<time>2014-04-13T12:45:29Z</time>
		</trkpt>
		<trkpt lat="53.8554840087891" lon="13.3869199752808">
			<ele>42.2000007629395</ele>
			<time>2014-04-13T12:45:30Z</time>
		</trkpt>
		<trkpt lat="53.8554344177246" lon="13.3869466781616">
			<ele>42.4000015258789</ele>
			<time>2014-04-13T12:45:31Z</time>
		</trkpt>
		<trkpt lat="53.8553810119629" lon="13.3869562149048">
			<ele>42.2000007629395</ele>
			<time>2014-04-13T12:45:32Z</time>
		</trkpt>
		<trkpt lat="53.8553314208984" lon="13.3869543075562">
			<ele>42.2000007629395</ele>
			<time>2014-04-13T12:45:33Z</time>
		</trkpt>
		<trkpt lat="53.8552780151367" lon="13.3869619369507">
			<ele>42.2000007629395</ele>
			<time>2014-04-13T12:45:34Z</time>
		</trkpt>
		<trkpt lat="53.8552169799805" lon="13.3869762420654">
			<ele>42.0999984741211</ele>
			<time>2014-04-13T12:45:35Z</time>
		</trkpt>
		<trkpt lat="53.855167388916" lon="13.3869771957397">
			<ele>42.2000007629395</ele>
			<time>2014-04-13T12:45:36Z</time>
		</trkpt>
		<trkpt lat="53.855110168457" lon="13.3869924545288">
			<ele>42.5999984741211</ele>
			<time>2014-04-13T12:45:37Z</time>
		</trkpt>
		<trkpt lat="53.8550567626953" lon="13.3870010375977">
			<ele>41.7999992370605</ele>
			<time>2014-04-13T12:45:38Z</time>
		</trkpt>
		<trkpt lat="53.8549995422363" lon="13.3870143890381">
			<ele>41.9000015258789</ele>
			<time>2014-04-13T12:45:39Z</time>
		</trkpt>
		<trkpt lat="53.8549423217773" lon="13.3870401382446">
			<ele>42.5</ele>
			<time>2014-04-13T12:45:40Z</time>
		</trkpt>
		<trkpt lat="53.8548393249512" lon="13.3870639801025">
			<ele>43.9000015258789</ele>
			<time>2014-04-13T12:45:42Z</time>
		</trkpt>
		<trkpt lat="53.8547859191895" lon="13.3870363235474">
			<ele>43.4000015258789</ele>
			<time>2014-04-13T12:45:43Z</time>
		</trkpt>
		<trkpt lat="53.854736328125" lon="13.3870534896851">
			<ele>43.9000015258789</ele>
			<time>2014-04-13T12:45:44Z</time>
		</trkpt>
		<trkpt lat="53.8546905517578" lon="13.3870573043823">
			<ele>43.7999992370605</ele>
			<time>2014-04-13T12:45:45Z</time>
		</trkpt>
		<trkpt lat="53.8546028137207" lon="13.3870630264282">
			<ele>44.2000007629395</ele>
			<time>2014-04-13T12:45:47Z</time>
		</trkpt>
		<trkpt lat="53.8545379638672" lon="13.3870906829834">
			<ele>44.7000007629395</ele>
			<time>2014-04-13T12:45:52Z</time>
		</trkpt>
		<trkpt lat="53.8543128967285" lon="13.3871431350708">
			<ele>45.7000007629395</ele>
			<time>2014-04-13T12:45:55Z</time>
		</trkpt>
		<trkpt lat="53.8541412353516" lon="13.3871736526489">
			<ele>45.5999984741211</ele>
			<time>2014-04-13T12:45:56Z</time>
		</trkpt>
		<trkpt lat="53.8540916442871" lon="13.387186050415">
			<ele>45.4000015258789</ele>
			<time>2014-04-13T12:45:59Z</time>
		</trkpt>
		<trkpt lat="53.853931427002" lon="13.3871908187866">
			<ele>45</ele>
			<time>2014-04-13T12:46:01Z</time>
		</trkpt>
		<trkpt lat="53.8538284301758" lon="13.3872127532959">
			<ele>45.0999984741211</ele>
			<time>2014-04-13T12:46:02Z</time>
		</trkpt>
		<trkpt lat="53.8537788391113" lon="13.3872289657593">
			<ele>45.4000015258789</ele>
			<time>2014-04-13T12:46:06Z</time>
		</trkpt>
		<trkpt lat="53.853572845459" lon="13.3872737884521">
			<ele>45.0999984741211</ele>
			<time>2014-04-13T12:46:07Z</time>
		</trkpt>
		<trkpt lat="53.8535232543945" lon="13.387282371521">
			<ele>45.2000007629395</ele>
			<time>2014-04-13T12:46:08Z</time>
		</trkpt>
		<trkpt lat="53.8534698486328" lon="13.3872957229614">
			<ele>45.0999984741211</ele>
			<time>2014-04-13T12:46:09Z</time>
		</trkpt>
		<trkpt lat="53.8534164428711" lon="13.3873043060303">
			<ele>45</ele>
			<time>2014-04-13T12:46:10Z</time>
		</trkpt>
		<trkpt lat="53.8533592224121" lon="13.3873128890991">
			<ele>45.2999992370605</ele>
			<time>2014-04-13T12:46:11Z</time>
		</trkpt>
		<trkpt lat="53.8533058166504" lon="13.387321472168">
			<ele>45.2999992370605</ele>
			<time>2014-04-13T12:46:12Z</time>
		</trkpt>
		<trkpt lat="53.8532524108887" lon="13.3873424530029">
			<ele>45.0999984741211</ele>
			<time>2014-04-13T12:46:13Z</time>
		</trkpt>
		<trkpt lat="53.8532028198242" lon="13.3873443603516">
			<ele>45.2000007629395</ele>
			<time>2014-04-13T12:46:14Z</time>
		</trkpt>
		<trkpt lat="53.8531455993652" lon="13.3873462677002">
			<ele>44.7000007629395</ele>
			<time>2014-04-13T12:46:15Z</time>
		</trkpt>
		<trkpt lat="53.8530960083008" lon="13.3873682022095">
			<ele>45</ele>
			<time>2014-04-13T12:46:16Z</time>
		</trkpt>
		<trkpt lat="53.8530426025391" lon="13.3873805999756">
			<ele>44.7000007629395</ele>
			<time>2014-04-13T12:46:17Z</time>
		</trkpt>
		<trkpt lat="53.8529968261719" lon="13.3873977661133">
			<ele>44.5</ele>
			<time>2014-04-13T12:46:18Z</time>
		</trkpt>
		<trkpt lat="53.8529472351074" lon="13.3874101638794">
			<ele>44.5</ele>
			<time>2014-04-13T12:46:19Z</time>
		</trkpt>
		<trkpt lat="53.8529014587402" lon="13.3874034881592">
			<ele>42.5</ele>
			<time>2014-04-13T12:46:20Z</time>
		</trkpt>
		<trkpt lat="53.852855682373" lon="13.3874101638794">
			<ele>41.9000015258789</ele>
			<time>2014-04-13T12:46:21Z</time>
		</trkpt>
		<trkpt lat="53.8527603149414" lon="13.3874406814575">
			<ele>41.5</ele>
			<time>2014-04-13T12:46:23Z</time>
		</trkpt>
		<trkpt lat="53.852710723877" lon="13.3874464035034">
			<ele>41.2999992370605</ele>
			<time>2014-04-13T12:46:24Z</time>
		</trkpt>
		<trkpt lat="53.8526611328125" lon="13.3874597549438">
			<ele>41.4000015258789</ele>
			<time>2014-04-13T12:46:25Z</time>
		</trkpt>
		<trkpt lat="53.852611541748" lon="13.3874654769897">
			<ele>41.2999992370605</ele>
			<time>2014-04-13T12:46:26Z</time>
		</trkpt>
		<trkpt lat="53.8525619506836" lon="13.3874826431274">
			<ele>41.0999984741211</ele>
			<time>2014-04-13T12:46:27Z</time>
		</trkpt>
		<trkpt lat="53.8525123596191" lon="13.3874883651733">
			<ele>41</ele>
			<time>2014-04-13T12:46:28Z</time>
		</trkpt>
		<trkpt lat="53.8524551391602" lon="13.3874969482422">
			<ele>42.0999984741211</ele>
			<time>2014-04-13T12:46:29Z</time>
		</trkpt>
		<trkpt lat="53.8524017333984" lon="13.3875074386597">
			<ele>41.7999992370605</ele>
			<time>2014-04-13T12:46:30Z</time>
		</trkpt>
		<trkpt lat="53.8523483276367" lon="13.3875122070313">
			<ele>41.9000015258789</ele>
			<time>2014-04-13T12:46:31Z</time>
		</trkpt>
		<trkpt lat="53.8522987365723" lon="13.3875188827515">
			<ele>41.9000015258789</ele>
			<time>2014-04-13T12:46:32Z</time>
		</trkpt>
		<trkpt lat="53.8522491455078" lon="13.3875141143799">
			<ele>41.7999992370605</ele>
			<time>2014-04-13T12:46:33Z</time>
		</trkpt>
		<trkpt lat="53.8521957397461" lon="13.3875284194946">
			<ele>42.2999992370605</ele>
			<time>2014-04-13T12:46:34Z</time>
		</trkpt>
		<trkpt lat="53.8521423339844" lon="13.3875417709351">
			<ele>42.0999984741211</ele>
			<time>2014-04-13T12:46:35Z</time>
		</trkpt>
		<trkpt lat="53.8520927429199" lon="13.3875513076782">
			<ele>42.4000015258789</ele>
			<time>2014-04-13T12:46:36Z</time>
		</trkpt>
		<trkpt lat="53.8520469665527" lon="13.3875608444214">
			<ele>42.4000015258789</ele>
			<time>2014-04-13T12:46:37Z</time>
		</trkpt>
		<trkpt lat="53.8519973754883" lon="13.3875713348389">
			<ele>42.9000015258789</ele>
			<time>2014-04-13T12:46:38Z</time>
		</trkpt>
		<trkpt lat="53.8519134521484" lon="13.3875694274902">
			<ele>43</ele>
			<time>2014-04-13T12:46:40Z</time>
		</trkpt>
		<trkpt lat="53.8518600463867" lon="13.3875761032104">
			<ele>42.9000015258789</ele>
			<time>2014-04-13T12:46:41Z</time>
		</trkpt>
		<trkpt lat="53.851806640625" lon="13.3875799179077">
			<ele>43.5</ele>
			<time>2014-04-13T12:46:42Z</time>
		</trkpt>
		<trkpt lat="53.8517608642578" lon="13.3875875473022">
			<ele>43.5</ele>
			<time>2014-04-13T12:46:43Z</time>
		</trkpt>
		<trkpt lat="53.8517150878906" lon="13.3875780105591">
			<ele>43.5</ele>
			<time>2014-04-13T12:46:44Z</time>
		</trkpt>
		<trkpt lat="53.8516540527344" lon="13.3875827789307">
			<ele>44.0999984741211</ele>
			<time>2014-04-13T12:46:45Z</time>
		</trkpt>
		<trkpt lat="53.8516044616699" lon="13.3875913619995">
			<ele>44.7000007629395</ele>
			<time>2014-04-13T12:46:46Z</time>
		</trkpt>
		<trkpt lat="53.8515510559082" lon="13.3875980377197">
			<ele>45.2999992370605</ele>
			<time>2014-04-13T12:46:47Z</time>
		</trkpt>
		<trkpt lat="53.8514976501465" lon="13.3876142501831">
			<ele>45.5</ele>
			<time>2014-04-13T12:46:48Z</time>
		</trkpt>
		<trkpt lat="53.8514556884766" lon="13.3876333236694">
			<ele>45.5</ele>
			<time>2014-04-13T12:46:49Z</time>
		</trkpt>
		<trkpt lat="53.8514060974121" lon="13.3876352310181">
			<ele>45.5</ele>
			<time>2014-04-13T12:46:50Z</time>
		</trkpt>
		<trkpt lat="53.8513565063477" lon="13.3876371383667">
			<ele>45.5999984741211</ele>
			<time>2014-04-13T12:46:51Z</time>
		</trkpt>
		<trkpt lat="53.8513069152832" lon="13.3876390457153">
			<ele>45.9000015258789</ele>
			<time>2014-04-13T12:46:52Z</time>
		</trkpt>
		<trkpt lat="53.851261138916" lon="13.3876543045044">
			<ele>46.2000007629395</ele>
			<time>2014-04-13T12:46:53Z</time>
		</trkpt>
		<trkpt lat="53.8512153625488" lon="13.3876647949219">
			<ele>46.5</ele>
			<time>2014-04-13T12:46:54Z</time>
		</trkpt>
		<trkpt lat="53.8511619567871" lon="13.3876667022705">
			<ele>46.7000007629395</ele>
			<time>2014-04-13T12:46:55Z</time>
		</trkpt>
		<trkpt lat="53.8510704040527" lon="13.3876857757568">
			<ele>47</ele>
			<time>2014-04-13T12:46:57Z</time>
		</trkpt>
		<trkpt lat="53.8509826660156" lon="13.3876972198486">
			<ele>46.5999984741211</ele>
			<time>2014-04-13T12:46:59Z</time>
		</trkpt>
		<trkpt lat="53.8509330749512" lon="13.3876943588257">
			<ele>46.5999984741211</ele>
			<time>2014-04-13T12:47:00Z</time>
		</trkpt>
		<trkpt lat="53.8508911132813" lon="13.3877143859863">
			<ele>46.2000007629395</ele>
			<time>2014-04-13T12:47:01Z</time>
		</trkpt>
		<trkpt lat="53.8508415222168" lon="13.3877258300781">
			<ele>46</ele>
			<time>2014-04-13T12:47:02Z</time>
		</trkpt>
		<trkpt lat="53.8507919311523" lon="13.3877325057983">
			<ele>46.7000007629395</ele>
			<time>2014-04-13T12:47:03Z</time>
		</trkpt>
		<trkpt lat="53.8506965637207" lon="13.3877429962158">
			<ele>47.2000007629395</ele>
			<time>2014-04-13T12:47:05Z</time>
		</trkpt>
		<trkpt lat="53.8506126403809" lon="13.3877582550049">
			<ele>47.7999992370605</ele>
			<time>2014-04-13T12:47:07Z</time>
		</trkpt>
		<trkpt lat="53.8505630493164" lon="13.3877592086792">
			<ele>47.5999984741211</ele>
			<time>2014-04-13T12:47:08Z</time>
		</trkpt>
		<trkpt lat="53.8505172729492" lon="13.3877687454224">
			<ele>47.7000007629395</ele>
			<time>2014-04-13T12:47:09Z</time>
		</trkpt>
		<trkpt lat="53.8504295349121" lon="13.3877897262573">
			<ele>47.2999992370605</ele>
			<time>2014-04-13T12:47:11Z</time>
		</trkpt>
		<trkpt lat="53.8503799438477" lon="13.3877973556519">
			<ele>47.0999984741211</ele>
			<time>2014-04-13T12:47:12Z</time>
		</trkpt>
		<trkpt lat="53.8503112792969" lon="13.3878154754639">
			<ele>47</ele>
			<time>2014-04-13T12:47:14Z</time>
		</trkpt>
		<trkpt lat="53.8502388000488" lon="13.3878202438354">
			<ele>46.4000015258789</ele>
			<time>2014-04-13T12:47:16Z</time>
		</trkpt>
		<trkpt lat="53.8501930236816" lon="13.3878326416016">
			<ele>46.2000007629395</ele>
			<time>2014-04-13T12:47:17Z</time>
		</trkpt>
		<trkpt lat="53.8501396179199" lon="13.3878450393677">
			<ele>45.5999984741211</ele>
			<time>2014-04-13T12:47:18Z</time>
		</trkpt>
		<trkpt lat="53.8500900268555" lon="13.3878564834595">
			<ele>45.7999992370605</ele>
			<time>2014-04-13T12:47:19Z</time>
		</trkpt>
		<trkpt lat="53.850040435791" lon="13.3878650665283">
			<ele>45.7000007629395</ele>
			<time>2014-04-13T12:47:20Z</time>
		</trkpt>
		<trkpt lat="53.8499908447266" lon="13.3878793716431">
			<ele>45.7999992370605</ele>
			<time>2014-04-13T12:47:21Z</time>
		</trkpt>
		<trkpt lat="53.8499412536621" lon="13.3878860473633">
			<ele>46.0999984741211</ele>
			<time>2014-04-13T12:47:22Z</time>
		</trkpt>
		<trkpt lat="53.8498916625977" lon="13.3878908157349">
			<ele>46.0999984741211</ele>
			<time>2014-04-13T12:47:23Z</time>
		</trkpt>
		<trkpt lat="53.8498077392578" lon="13.3878965377808">
			<ele>46.2999992370605</ele>
			<time>2014-04-13T12:47:25Z</time>
		</trkpt>
		<trkpt lat="53.8497619628906" lon="13.3879022598267">
			<ele>46.2999992370605</ele>
			<time>2014-04-13T12:47:26Z</time>
		</trkpt>
		<trkpt lat="53.8497161865234" lon="13.3879117965698">
			<ele>46.4000015258789</ele>
			<time>2014-04-13T12:47:27Z</time>
		</trkpt>
		<trkpt lat="53.8496704101563" lon="13.387921333313">
			<ele>46.5999984741211</ele>
			<time>2014-04-13T12:47:28Z</time>
		</trkpt>
		<trkpt lat="53.8495864868164" lon="13.3879404067993">
			<ele>46.4000015258789</ele>
			<time>2014-04-13T12:47:30Z</time>
		</trkpt>
		<trkpt lat="53.8494987487793" lon="13.3879623413086">
			<ele>46.7999992370605</ele>
			<time>2014-04-13T12:47:32Z</time>
		</trkpt>
		<trkpt lat="53.8494110107422" lon="13.3879880905151">
			<ele>46.7999992370605</ele>
			<time>2014-04-13T12:47:34Z</time>
		</trkpt>
		<trkpt lat="53.8493309020996" lon="13.3880205154419">
			<ele>46.7999992370605</ele>
			<time>2014-04-13T12:47:36Z</time>
		</trkpt>
		<trkpt lat="53.8492469787598" lon="13.3880681991577">
			<ele>47</ele>
			<time>2014-04-13T12:47:38Z</time>
		</trkpt>
		<trkpt lat="53.8492012023926" lon="13.3880910873413">
			<ele>47</ele>
			<time>2014-04-13T12:47:39Z</time>
		</trkpt>
		<trkpt lat="53.8491592407227" lon="13.3881120681763">
			<ele>47</ele>
			<time>2014-04-13T12:47:40Z</time>
		</trkpt>
		<trkpt lat="53.8491134643555" lon="13.3881397247314">
			<ele>47.0999984741211</ele>
			<time>2014-04-13T12:47:41Z</time>
		</trkpt>
		<trkpt lat="53.8490295410156" lon="13.3881950378418">
			<ele>47.2999992370605</ele>
			<time>2014-04-13T12:47:43Z</time>
		</trkpt>
		<trkpt lat="53.8489837646484" lon="13.3882188796997">
			<ele>47.2999992370605</ele>
			<time>2014-04-13T12:47:44Z</time>
		</trkpt>
		<trkpt lat="53.8489418029785" lon="13.3882522583008">
			<ele>47.2999992370605</ele>
			<time>2014-04-13T12:47:45Z</time>
		</trkpt>
		<trkpt lat="53.8488655090332" lon="13.3883266448975">
			<ele>47.4000015258789</ele>
			<time>2014-04-13T12:47:47Z</time>
		</trkpt>
		<trkpt lat="53.8487892150879" lon="13.3884057998657">
			<ele>47.5999984741211</ele>
			<time>2014-04-13T12:47:49Z</time>
		</trkpt>
		<trkpt lat="53.8487205505371" lon="13.3884954452515">
			<ele>47.7999992370605</ele>
			<time>2014-04-13T12:47:51Z</time>
		</trkpt>
		<trkpt lat="53.8486480712891" lon="13.3885955810547">
			<ele>47.7000007629395</ele>
			<time>2014-04-13T12:47:53Z</time>
		</trkpt>
		<trkpt lat="53.8486137390137" lon="13.3886423110962">
			<ele>47.7999992370605</ele>
			<time>2014-04-13T12:47:54Z</time>
		</trkpt>
		<trkpt lat="53.8485794067383" lon="13.3886947631836">
			<ele>47.9000015258789</ele>
			<time>2014-04-13T12:47:55Z</time>
		</trkpt>
		<trkpt lat="53.8485107421875" lon="13.3887939453125">
			<ele>47.9000015258789</ele>
			<time>2014-04-13T12:47:57Z</time>
		</trkpt>
		<trkpt lat="53.8484725952148" lon="13.3888463973999">
			<ele>48.0999984741211</ele>
			<time>2014-04-13T12:47:58Z</time>
		</trkpt>
		<trkpt lat="53.8484382629395" lon="13.3888969421387">
			<ele>48.0999984741211</ele>
			<time>2014-04-13T12:47:59Z</time>
		</trkpt>
		<trkpt lat="53.8484039306641" lon="13.388952255249">
			<ele>48.0999984741211</ele>
			<time>2014-04-13T12:48:00Z</time>
		</trkpt>
		<trkpt lat="53.8483657836914" lon="13.3890027999878">
			<ele>48.2000007629395</ele>
			<time>2014-04-13T12:48:01Z</time>
		</trkpt>
		<trkpt lat="53.8483276367188" lon="13.3890533447266">
			<ele>48</ele>
			<time>2014-04-13T12:48:02Z</time>
		</trkpt>
		<trkpt lat="53.8482933044434" lon="13.3891086578369">
			<ele>48.0999984741211</ele>
			<time>2014-04-13T12:48:03Z</time>
		</trkpt>
		<trkpt lat="53.848258972168" lon="13.3891630172729">
			<ele>47.9000015258789</ele>
			<time>2014-04-13T12:48:04Z</time>
		</trkpt>
		<trkpt lat="53.848217010498" lon="13.3892126083374">
			<ele>48.2000007629395</ele>
			<time>2014-04-13T12:48:05Z</time>
		</trkpt>
		<trkpt lat="53.8481788635254" lon="13.3892621994019">
			<ele>48.2000007629395</ele>
			<time>2014-04-13T12:48:06Z</time>
		</trkpt>
		<trkpt lat="53.8481407165527" lon="13.3893098831177">
			<ele>48.2999992370605</ele>
			<time>2014-04-13T12:48:07Z</time>
		</trkpt>
		<trkpt lat="53.8481063842773" lon="13.3893613815308">
			<ele>48.4000015258789</ele>
			<time>2014-04-13T12:48:08Z</time>
		</trkpt>
		<trkpt lat="53.8480682373047" lon="13.3894157409668">
			<ele>48.2000007629395</ele>
			<time>2014-04-13T12:48:09Z</time>
		</trkpt>
		<trkpt lat="53.8480262756348" lon="13.3894720077515">
			<ele>48.0999984741211</ele>
			<time>2014-04-13T12:48:10Z</time>
		</trkpt>
		<trkpt lat="53.8479919433594" lon="13.3895273208618">
			<ele>48</ele>
			<time>2014-04-13T12:48:11Z</time>
		</trkpt>
		<trkpt lat="53.8479537963867" lon="13.3895807266235">
			<ele>48.0999984741211</ele>
			<time>2014-04-13T12:48:12Z</time>
		</trkpt>
		<trkpt lat="53.8479156494141" lon="13.3896360397339">
			<ele>48.0999984741211</ele>
			<time>2014-04-13T12:48:13Z</time>
		</trkpt>
		<trkpt lat="53.8478736877441" lon="13.3896903991699">
			<ele>47.9000015258789</ele>
			<time>2014-04-13T12:48:14Z</time>
		</trkpt>
		<trkpt lat="53.8478355407715" lon="13.3897457122803">
			<ele>48</ele>
			<time>2014-04-13T12:48:15Z</time>
		</trkpt>
		<trkpt lat="53.8477935791016" lon="13.3898000717163">
			<ele>48</ele>
			<time>2014-04-13T12:48:16Z</time>
		</trkpt>
		<trkpt lat="53.8477516174316" lon="13.3898553848267">
			<ele>47.9000015258789</ele>
			<time>2014-04-13T12:48:17Z</time>
		</trkpt>
		<trkpt lat="53.8477096557617" lon="13.389910697937">
			<ele>48.2999992370605</ele>
			<time>2014-04-13T12:48:18Z</time>
		</trkpt>
		<trkpt lat="53.8476715087891" lon="13.3899669647217">
			<ele>48.2999992370605</ele>
			<time>2014-04-13T12:48:19Z</time>
		</trkpt>
		<trkpt lat="53.8476295471191" lon="13.390022277832">
			<ele>48.2999992370605</ele>
			<time>2014-04-13T12:48:20Z</time>
		</trkpt>
		<trkpt lat="53.8475914001465" lon="13.3900804519653">
			<ele>47.9000015258789</ele>
			<time>2014-04-13T12:48:21Z</time>
		</trkpt>
		<trkpt lat="53.8475532531738" lon="13.3901376724243">
			<ele>48.0999984741211</ele>
			<time>2014-04-13T12:48:22Z</time>
		</trkpt>
		<trkpt lat="53.8475112915039" lon="13.3901958465576">
			<ele>48.2999992370605</ele>
			<time>2014-04-13T12:48:23Z</time>
		</trkpt>
		<trkpt lat="53.847469329834" lon="13.3902530670166">
			<ele>48.2999992370605</ele>
			<time>2014-04-13T12:48:24Z</time>
		</trkpt>
		<trkpt lat="53.8474273681641" lon="13.3903141021729">
			<ele>48.4000015258789</ele>
			<time>2014-04-13T12:48:25Z</time>
		</trkpt>
		<trkpt lat="53.8473854064941" lon="13.3903713226318">
			<ele>48.2999992370605</ele>
			<time>2014-04-13T12:48:26Z</time>
		</trkpt>
		<trkpt lat="53.847339630127" lon="13.3904333114624">
			<ele>48.4000015258789</ele>
			<time>2014-04-13T12:48:27Z</time>
		</trkpt>
		<trkpt lat="53.8472938537598" lon="13.39049243927">
			<ele>48.5</ele>
			<time>2014-04-13T12:48:28Z</time>
		</trkpt>
		<trkpt lat="53.8472480773926" lon="13.3905544281006">
			<ele>48.5</ele>
			<time>2014-04-13T12:48:29Z</time>
		</trkpt>
		<trkpt lat="53.8472023010254" lon="13.3906145095825">
			<ele>48.5999984741211</ele>
			<time>2014-04-13T12:48:30Z</time>
		</trkpt>
		<trkpt lat="53.8471603393555" lon="13.3906764984131">
			<ele>48.5</ele>
			<time>2014-04-13T12:48:31Z</time>
		</trkpt>
		<trkpt lat="53.8471145629883" lon="13.3907413482666">
			<ele>48.5999984741211</ele>
			<time>2014-04-13T12:48:32Z</time>
		</trkpt>
		<trkpt lat="53.8470687866211" lon="13.3908023834229">
			<ele>48.5</ele>
			<time>2014-04-13T12:48:33Z</time>
		</trkpt>
		<trkpt lat="53.8470230102539" lon="13.3908643722534">
			<ele>48.4000015258789</ele>
			<time>2014-04-13T12:48:34Z</time>
		</trkpt>
		<trkpt lat="53.846981048584" lon="13.3909301757813">
			<ele>48.2000007629395</ele>
			<time>2014-04-13T12:48:35Z</time>
		</trkpt>
		<trkpt lat="53.8469352722168" lon="13.3909940719604">
			<ele>48.2000007629395</ele>
			<time>2014-04-13T12:48:36Z</time>
		</trkpt>
		<trkpt lat="53.8468894958496" lon="13.3910579681396">
			<ele>48.2000007629395</ele>
			<time>2014-04-13T12:48:37Z</time>
		</trkpt>
		<trkpt lat="53.8468437194824" lon="13.3911190032959">
			<ele>48.2000007629395</ele>
			<time>2014-04-13T12:48:38Z</time>
		</trkpt>
		<trkpt lat="53.8467979431152" lon="13.3911828994751">
			<ele>47.7999992370605</ele>
			<time>2014-04-13T12:48:39Z</time>
		</trkpt>
		<trkpt lat="53.8467483520508" lon="13.39124584198">
			<ele>47.5</ele>
			<time>2014-04-13T12:48:40Z</time>
		</trkpt>
		<trkpt lat="53.8467025756836" lon="13.3913087844849">
			<ele>47.7000007629395</ele>
			<time>2014-04-13T12:48:41Z</time>
		</trkpt>
		<trkpt lat="53.8466567993164" lon="13.3913726806641">
			<ele>47.5</ele>
			<time>2014-04-13T12:48:42Z</time>
		</trkpt>
		<trkpt lat="53.8466110229492" lon="13.3914384841919">
			<ele>47.4000015258789</ele>
			<time>2014-04-13T12:48:43Z</time>
		</trkpt>
		<trkpt lat="53.846565246582" lon="13.3915023803711">
			<ele>47.5</ele>
			<time>2014-04-13T12:48:44Z</time>
		</trkpt>
		<trkpt lat="53.8465194702148" lon="13.3915681838989">
			<ele>47.5999984741211</ele>
			<time>2014-04-13T12:48:45Z</time>
		</trkpt>
		<trkpt lat="53.8464736938477" lon="13.3916349411011">
			<ele>47.4000015258789</ele>
			<time>2014-04-13T12:48:46Z</time>
		</trkpt>
		<trkpt lat="53.8464279174805" lon="13.3917007446289">
			<ele>47.5</ele>
			<time>2014-04-13T12:48:47Z</time>
		</trkpt>
		<trkpt lat="53.8463859558105" lon="13.3917636871338">
			<ele>47.4000015258789</ele>
			<time>2014-04-13T12:48:48Z</time>
		</trkpt>
		<trkpt lat="53.8463401794434" lon="13.391827583313">
			<ele>47.2999992370605</ele>
			<time>2014-04-13T12:48:49Z</time>
		</trkpt>
		<trkpt lat="53.8462944030762" lon="13.3918905258179">
			<ele>47.4000015258789</ele>
			<time>2014-04-13T12:48:56Z</time>
		</trkpt>
		<trkpt lat="53.8460006713867" lon="13.3922891616821">
			<ele>47.4000015258789</ele>
			<time>2014-04-13T12:49:02Z</time>
		</trkpt>
		<trkpt lat="53.8457870483398" lon="13.3925867080688">
			<ele>47.5999984741211</ele>
			<time>2014-04-13T12:49:04Z</time>
		</trkpt>
		<trkpt lat="53.8456573486328" lon="13.392786026001">
			<ele>47.7000007629395</ele>
			<time>2014-04-13T12:49:06Z</time>
		</trkpt>
		<trkpt lat="53.845516204834" lon="13.3929796218872">
			<ele>47.4000015258789</ele>
			<time>2014-04-13T12:49:30Z</time>
		</trkpt>
		<trkpt lat="53.8451881408691" lon="13.3934288024902">
			<ele>48.2000007629395</ele>
			<time>2014-04-13T12:49:31Z</time>
		</trkpt>
		<trkpt lat="53.8451042175293" lon="13.3935527801514">
			<ele>48</ele>
			<time>2014-04-13T12:49:32Z</time>
		</trkpt>
		<trkpt lat="53.8448867797852" lon="13.3938875198364">
			<ele>44.7999992370605</ele>
			<time>2014-04-13T12:49:32Z</time>
		</trkpt>
		<trkpt lat="53.8445014953613" lon="13.3943586349487">
			<ele>50.5999984741211</ele>
			<time>2014-04-13T12:49:32Z</time>
		</trkpt>
		<trkpt lat="53.8442878723145" lon="13.394681930542">
			<ele>48.9000015258789</ele>
			<time>2014-04-13T12:49:35Z</time>
		</trkpt>
		<trkpt lat="53.8441619873047" lon="13.3948755264282">
			<ele>48.0999984741211</ele>
			<time>2014-04-13T12:49:37Z</time>
		</trkpt>
		<trkpt lat="53.8441162109375" lon="13.3949346542358">
			<ele>48.0999984741211</ele>
			<time>2014-04-13T12:49:38Z</time>
		</trkpt>
		<trkpt lat="53.8440208435059" lon="13.3950634002686">
			<ele>47.7000007629395</ele>
			<time>2014-04-13T12:49:41Z</time>
		</trkpt>
		<trkpt lat="53.8438758850098" lon="13.3952655792236">
			<ele>47.2999992370605</ele>
			<time>2014-04-13T12:49:43Z</time>
		</trkpt>
		<trkpt lat="53.8437767028809" lon="13.3953981399536">
			<ele>47</ele>
			<time>2014-04-13T12:49:46Z</time>
		</trkpt>
		<trkpt lat="53.8436813354492" lon="13.3955402374268">
			<ele>46.9000015258789</ele>
			<time>2014-04-13T12:49:46Z</time>
		</trkpt>
		<trkpt lat="53.843635559082" lon="13.3956069946289">
			<ele>46.7999992370605</ele>
			<time>2014-04-13T12:49:47Z</time>
		</trkpt>
		<trkpt lat="53.8435859680176" lon="13.3956747055054">
			<ele>47</ele>
			<time>2014-04-13T12:49:48Z</time>
		</trkpt>
		<trkpt lat="53.8435363769531" lon="13.3957376480103">
			<ele>47.0999984741211</ele>
			<time>2014-04-13T12:49:49Z</time>
		</trkpt>
		<trkpt lat="53.8434867858887" lon="13.3957967758179">
			<ele>47.0999984741211</ele>
			<time>2014-04-13T12:49:50Z</time>
		</trkpt>
		<trkpt lat="53.8434371948242" lon="13.3958578109741">
			<ele>47</ele>
			<time>2014-04-13T12:49:51Z</time>
		</trkpt>
		<trkpt lat="53.843391418457" lon="13.3959331512451">
			<ele>47.0999984741211</ele>
			<time>2014-04-13T12:49:52Z</time>
		</trkpt>
		<trkpt lat="53.8433532714844" lon="13.3960123062134">
			<ele>47</ele>
			<time>2014-04-13T12:49:53Z</time>
		</trkpt>
		<trkpt lat="53.8433113098145" lon="13.3960876464844">
			<ele>47</ele>
			<time>2014-04-13T12:49:54Z</time>
		</trkpt>
		<trkpt lat="53.84326171875" lon="13.3961534500122">
			<ele>47.0999984741211</ele>
			<time>2014-04-13T12:49:55Z</time>
		</trkpt>
		<trkpt lat="53.8432159423828" lon="13.3962173461914">
			<ele>46.9000015258789</ele>
			<time>2014-04-13T12:49:56Z</time>
		</trkpt>
		<trkpt lat="53.8431701660156" lon="13.3962831497192">
			<ele>46.9000015258789</ele>
			<time>2014-04-13T12:49:57Z</time>
		</trkpt>
		<trkpt lat="53.8431205749512" lon="13.3963470458984">
			<ele>46.7999992370605</ele>
			<time>2014-04-13T12:49:58Z</time>
		</trkpt>
		<trkpt lat="53.8430709838867" lon="13.3964138031006">
			<ele>46.9000015258789</ele>
			<time>2014-04-13T12:49:59Z</time>
		</trkpt>
		<trkpt lat="53.8430252075195" lon="13.3964786529541">
			<ele>46.7999992370605</ele>
			<time>2014-04-13T12:50:00Z</time>
		</trkpt>
		<trkpt lat="53.8429756164551" lon="13.396541595459">
			<ele>46.7000007629395</ele>
			<time>2014-04-13T12:50:01Z</time>
		</trkpt>
		<trkpt lat="53.8429260253906" lon="13.3966064453125">
			<ele>46.5999984741211</ele>
			<time>2014-04-13T12:50:02Z</time>
		</trkpt>
		<trkpt lat="53.8428840637207" lon="13.3966779708862">
			<ele>46.7999992370605</ele>
			<time>2014-04-13T12:50:03Z</time>
		</trkpt>
		<trkpt lat="53.8428344726563" lon="13.3967409133911">
			<ele>46.5999984741211</ele>
			<time>2014-04-13T12:50:04Z</time>
		</trkpt>
		<trkpt lat="53.8427848815918" lon="13.3968076705933">
			<ele>46.5</ele>
			<time>2014-04-13T12:50:05Z</time>
		</trkpt>
		<trkpt lat="53.8427391052246" lon="13.3968744277954">
			<ele>46.5999984741211</ele>
			<time>2014-04-13T12:50:06Z</time>
		</trkpt>
		<trkpt lat="53.8426895141602" lon="13.3969411849976">
			<ele>46.7999992370605</ele>
			<time>2014-04-13T12:50:07Z</time>
		</trkpt>
		<trkpt lat="53.8426399230957" lon="13.397008895874">
			<ele>46.7999992370605</ele>
			<time>2014-04-13T12:50:08Z</time>
		</trkpt>
		<trkpt lat="53.8425941467285" lon="13.3970737457275">
			<ele>46.7999992370605</ele>
			<time>2014-04-13T12:50:09Z</time>
		</trkpt>
		<trkpt lat="53.8425483703613" lon="13.3971357345581">
			<ele>46.7999992370605</ele>
			<time>2014-04-13T12:50:10Z</time>
		</trkpt>
		<trkpt lat="53.8424987792969" lon="13.3972005844116">
			<ele>46.7999992370605</ele>
			<time>2014-04-13T12:50:11Z</time>
		</trkpt>
		<trkpt lat="53.8424530029297" lon="13.3972673416138">
			<ele>46.9000015258789</ele>
			<time>2014-04-13T12:50:12Z</time>
		</trkpt>
		<trkpt lat="53.8424034118652" lon="13.3973331451416">
			<ele>46.7000007629395</ele>
			<time>2014-04-13T12:50:13Z</time>
		</trkpt>
		<trkpt lat="53.842357635498" lon="13.3973979949951">
			<ele>46.7000007629395</ele>
			<time>2014-04-13T12:50:14Z</time>
		</trkpt>
		<trkpt lat="53.8423118591309" lon="13.3974628448486">
			<ele>46.7999992370605</ele>
			<time>2014-04-13T12:50:15Z</time>
		</trkpt>
		<trkpt lat="53.8422622680664" lon="13.3975296020508">
			<ele>46.7999992370605</ele>
			<time>2014-04-13T12:50:16Z</time>
		</trkpt>
		<trkpt lat="53.842212677002" lon="13.3975973129272">
			<ele>46.7999992370605</ele>
			<time>2014-04-13T12:50:17Z</time>
		</trkpt>
		<trkpt lat="53.8421669006348" lon="13.3976650238037">
			<ele>46.7999992370605</ele>
			<time>2014-04-13T12:50:18Z</time>
		</trkpt>
		<trkpt lat="53.8421211242676" lon="13.3977336883545">
			<ele>46.9000015258789</ele>
			<time>2014-04-13T12:50:19Z</time>
		</trkpt>
		<trkpt lat="53.8420715332031" lon="13.3977975845337">
			<ele>46.7999992370605</ele>
			<time>2014-04-13T12:50:20Z</time>
		</trkpt>
		<trkpt lat="53.8420219421387" lon="13.3978624343872">
			<ele>46.9000015258789</ele>
			<time>2014-04-13T12:50:21Z</time>
		</trkpt>
		<trkpt lat="53.8419723510742" lon="13.3979291915894">
			<ele>47</ele>
			<time>2014-04-13T12:50:22Z</time>
		</trkpt>
		<trkpt lat="53.8419227600098" lon="13.3979988098145">
			<ele>47</ele>
			<time>2014-04-13T12:50:23Z</time>
		</trkpt>
		<trkpt lat="53.8418769836426" lon="13.3980655670166">
			<ele>47</ele>
			<time>2014-04-13T12:50:24Z</time>
		</trkpt>
		<trkpt lat="53.8418235778809" lon="13.398136138916">
			<ele>47</ele>
			<time>2014-04-13T12:50:25Z</time>
		</trkpt>
		<trkpt lat="53.8417778015137" lon="13.3981990814209">
			<ele>47</ele>
			<time>2014-04-13T12:50:26Z</time>
		</trkpt>
		<trkpt lat="53.8417320251465" lon="13.398265838623">
			<ele>47.0999984741211</ele>
			<time>2014-04-13T12:50:27Z</time>
		</trkpt>
		<trkpt lat="53.841682434082" lon="13.3983345031738">
			<ele>47.0999984741211</ele>
			<time>2014-04-13T12:50:28Z</time>
		</trkpt>
		<trkpt lat="53.8416328430176" lon="13.3984041213989">
			<ele>47</ele>
			<time>2014-04-13T12:50:29Z</time>
		</trkpt>
		<trkpt lat="53.8415832519531" lon="13.3984718322754">
			<ele>46.7999992370605</ele>
			<time>2014-04-13T12:50:30Z</time>
		</trkpt>
		<trkpt lat="53.8415336608887" lon="13.3985385894775">
			<ele>46.9000015258789</ele>
			<time>2014-04-13T12:50:31Z</time>
		</trkpt>
		<trkpt lat="53.8414840698242" lon="13.398609161377">
			<ele>46.7000007629395</ele>
			<time>2014-04-13T12:50:32Z</time>
		</trkpt>
		<trkpt lat="53.8414306640625" lon="13.3986778259277">
			<ele>46.7000007629395</ele>
			<time>2014-04-13T12:50:33Z</time>
		</trkpt>
		<trkpt lat="53.8413772583008" lon="13.3987503051758">
			<ele>46.9000015258789</ele>
			<time>2014-04-13T12:50:34Z</time>
		</trkpt>
		<trkpt lat="53.8413276672363" lon="13.3988275527954">
			<ele>46.9000015258789</ele>
			<time>2014-04-13T12:50:35Z</time>
		</trkpt>
		<trkpt lat="53.8412780761719" lon="13.3988981246948">
			<ele>46.7999992370605</ele>
			<time>2014-04-13T12:50:36Z</time>
		</trkpt>
		<trkpt lat="53.8412284851074" lon="13.3989696502686">
			<ele>46.7999992370605</ele>
			<time>2014-04-13T12:50:37Z</time>
		</trkpt>
		<trkpt lat="53.841178894043" lon="13.399037361145">
			<ele>46.9000015258789</ele>
			<time>2014-04-13T12:50:38Z</time>
		</trkpt>
		<trkpt lat="53.8411293029785" lon="13.3991079330444">
			<ele>47</ele>
			<time>2014-04-13T12:50:39Z</time>
		</trkpt>
		<trkpt lat="53.8410797119141" lon="13.3991775512695">
			<ele>47.0999984741211</ele>
			<time>2014-04-13T12:50:40Z</time>
		</trkpt>
		<trkpt lat="53.8410263061523" lon="13.3992509841919">
			<ele>47.2000007629395</ele>
			<time>2014-04-13T12:50:41Z</time>
		</trkpt>
		<trkpt lat="53.8409767150879" lon="13.3993196487427">
			<ele>47.0999984741211</ele>
			<time>2014-04-13T12:50:42Z</time>
		</trkpt>
		<trkpt lat="53.8409271240234" lon="13.3993864059448">
			<ele>47.0999984741211</ele>
			<time>2014-04-13T12:50:43Z</time>
		</trkpt>
		<trkpt lat="53.840877532959" lon="13.399453163147">
			<ele>47</ele>
			<time>2014-04-13T12:50:44Z</time>
		</trkpt>
		<trkpt lat="53.8408279418945" lon="13.3995237350464">
			<ele>47.4000015258789</ele>
			<time>2014-04-13T12:50:45Z</time>
		</trkpt>
		<trkpt lat="53.8407783508301" lon="13.3995933532715">
			<ele>47.2000007629395</ele>
			<time>2014-04-13T12:50:46Z</time>
		</trkpt>
		<trkpt lat="53.8407325744629" lon="13.3996639251709">
			<ele>47.0999984741211</ele>
			<time>2014-04-13T12:50:47Z</time>
		</trkpt>
		<trkpt lat="53.8406829833984" lon="13.3997344970703">
			<ele>47</ele>
			<time>2014-04-13T12:50:48Z</time>
		</trkpt>
		<trkpt lat="53.840633392334" lon="13.399806022644">
			<ele>47</ele>
			<time>2014-04-13T12:50:49Z</time>
		</trkpt>
		<trkpt lat="53.8405838012695" lon="13.3998804092407">
			<ele>47</ele>
			<time>2014-04-13T12:50:50Z</time>
		</trkpt>
		<trkpt lat="53.8405342102051" lon="13.3999443054199">
			<ele>47.0999984741211</ele>
			<time>2014-04-13T12:50:51Z</time>
		</trkpt>
		<trkpt lat="53.8404808044434" lon="13.4000120162964">
			<ele>47</ele>
			<time>2014-04-13T12:50:52Z</time>
		</trkpt>
		<trkpt lat="53.8404312133789" lon="13.4000806808472">
			<ele>46.9000015258789</ele>
			<time>2014-04-13T12:50:53Z</time>
		</trkpt>
		<trkpt lat="53.8403816223145" lon="13.4001502990723">
			<ele>46.7000007629395</ele>
			<time>2014-04-13T12:50:54Z</time>
		</trkpt>
		<trkpt lat="53.8403358459473" lon="13.4002227783203">
			<ele>46.5999984741211</ele>
			<time>2014-04-13T12:50:55Z</time>
		</trkpt>
		<trkpt lat="53.8402862548828" lon="13.4002933502197">
			<ele>46.7000007629395</ele>
			<time>2014-04-13T12:50:56Z</time>
		</trkpt>
		<trkpt lat="53.8402366638184" lon="13.4003610610962">
			<ele>46.9000015258789</ele>
			<time>2014-04-13T12:50:57Z</time>
		</trkpt>
		<trkpt lat="53.8401870727539" lon="13.4004278182983">
			<ele>47.0999984741211</ele>
			<time>2014-04-13T12:50:58Z</time>
		</trkpt>
		<trkpt lat="53.8401336669922" lon="13.4004955291748">
			<ele>47.4000015258789</ele>
			<time>2014-04-13T12:50:59Z</time>
		</trkpt>
		<trkpt lat="53.8400802612305" lon="13.4005603790283">
			<ele>47.4000015258789</ele>
			<time>2014-04-13T12:51:00Z</time>
		</trkpt>
		<trkpt lat="53.840030670166" lon="13.4006309509277">
			<ele>47.7000007629395</ele>
			<time>2014-04-13T12:51:01Z</time>
		</trkpt>
		<trkpt lat="53.8399810791016" lon="13.4007024765015">
			<ele>47.7000007629395</ele>
			<time>2014-04-13T12:51:02Z</time>
		</trkpt>
		<trkpt lat="53.8399314880371" lon="13.4007720947266">
			<ele>47.5999984741211</ele>
			<time>2014-04-13T12:51:03Z</time>
		</trkpt>
		<trkpt lat="53.8398857116699" lon="13.400842666626">
			<ele>47.7000007629395</ele>
			<time>2014-04-13T12:51:04Z</time>
		</trkpt>
		<trkpt lat="53.8398361206055" lon="13.4009094238281">
			<ele>47.5999984741211</ele>
			<time>2014-04-13T12:51:05Z</time>
		</trkpt>
		<trkpt lat="53.839786529541" lon="13.4009780883789">
			<ele>47.5</ele>
			<time>2014-04-13T12:51:06Z</time>
		</trkpt>
		<trkpt lat="53.8397331237793" lon="13.4010457992554">
			<ele>47.7000007629395</ele>
			<time>2014-04-13T12:51:07Z</time>
		</trkpt>
		<trkpt lat="53.8396835327148" lon="13.4011068344116">
			<ele>47.9000015258789</ele>
			<time>2014-04-13T12:51:08Z</time>
		</trkpt>
		<trkpt lat="53.8396339416504" lon="13.4011783599854">
			<ele>47.7999992370605</ele>
			<time>2014-04-13T12:51:09Z</time>
		</trkpt>
		<trkpt lat="53.8395843505859" lon="13.4012460708618">
			<ele>47.7000007629395</ele>
			<time>2014-04-13T12:51:10Z</time>
		</trkpt>
		<trkpt lat="53.8395347595215" lon="13.4013185501099">
			<ele>47.7000007629395</ele>
			<time>2014-04-13T12:51:11Z</time>
		</trkpt>
		<trkpt lat="53.839485168457" lon="13.4013900756836">
			<ele>47.5999984741211</ele>
			<time>2014-04-13T12:51:12Z</time>
		</trkpt>
		<trkpt lat="53.8394355773926" lon="13.401460647583">
			<ele>47.7000007629395</ele>
			<time>2014-04-13T12:51:13Z</time>
		</trkpt>
		<trkpt lat="53.8393859863281" lon="13.4015302658081">
			<ele>47.7000007629395</ele>
			<time>2014-04-13T12:51:14Z</time>
		</trkpt>
		<trkpt lat="53.8393363952637" lon="13.4015989303589">
			<ele>47.5999984741211</ele>
			<time>2014-04-13T12:51:15Z</time>
		</trkpt>
		<trkpt lat="53.8392906188965" lon="13.4016666412354">
			<ele>47.5</ele>
			<time>2014-04-13T12:51:16Z</time>
		</trkpt>
		<trkpt lat="53.839241027832" lon="13.4017343521118">
			<ele>47.4000015258789</ele>
			<time>2014-04-13T12:51:17Z</time>
		</trkpt>
		<trkpt lat="53.8391952514648" lon="13.4018049240112">
			<ele>47.4000015258789</ele>
			<time>2014-04-13T12:51:18Z</time>
		</trkpt>
		<trkpt lat="53.8391456604004" lon="13.4018716812134">
			<ele>47.2000007629395</ele>
			<time>2014-04-13T12:51:19Z</time>
		</trkpt>
		<trkpt lat="53.8390922546387" lon="13.4019460678101">
			<ele>47.2000007629395</ele>
			<time>2014-04-13T12:51:20Z</time>
		</trkpt>
		<trkpt lat="53.8390464782715" lon="13.4020118713379">
			<ele>47.0999984741211</ele>
			<time>2014-04-13T12:51:21Z</time>
		</trkpt>
		<trkpt lat="53.8389892578125" lon="13.4020671844482">
			<ele>47.4000015258789</ele>
			<time>2014-04-13T12:51:22Z</time>
		</trkpt>
		<trkpt lat="53.8389358520508" lon="13.4021301269531">
			<ele>47.2999992370605</ele>
			<time>2014-04-13T12:51:23Z</time>
		</trkpt>
		<trkpt lat="53.8388824462891" lon="13.4021987915039">
			<ele>47.4000015258789</ele>
			<time>2014-04-13T12:51:24Z</time>
		</trkpt>
		<trkpt lat="53.8388290405273" lon="13.4022674560547">
			<ele>47.5999984741211</ele>
			<time>2014-04-13T12:51:25Z</time>
		</trkpt>
		<trkpt lat="53.8387832641602" lon="13.4023418426514">
			<ele>47.5</ele>
			<time>2014-04-13T12:51:26Z</time>
		</trkpt>
		<trkpt lat="53.838737487793" lon="13.4024124145508">
			<ele>47.4000015258789</ele>
			<time>2014-04-13T12:51:27Z</time>
		</trkpt>
		<trkpt lat="53.8386840820313" lon="13.4024810791016">
			<ele>47.5</ele>
			<time>2014-04-13T12:51:28Z</time>
		</trkpt>
		<trkpt lat="53.8386306762695" lon="13.4025392532349">
			<ele>47.5</ele>
			<time>2014-04-13T12:51:29Z</time>
		</trkpt>
		<trkpt lat="53.8385734558105" lon="13.4026155471802">
			<ele>47.5999984741211</ele>
			<time>2014-04-13T12:51:30Z</time>
		</trkpt>
		<trkpt lat="53.8385200500488" lon="13.4026765823364">
			<ele>47.5</ele>
			<time>2014-04-13T12:51:31Z</time>
		</trkpt>
		<trkpt lat="53.8384742736816" lon="13.4027442932129">
			<ele>47.2999992370605</ele>
			<time>2014-04-13T12:51:32Z</time>
		</trkpt>
		<trkpt lat="53.8384208679199" lon="13.4028167724609">
			<ele>47.5</ele>
			<time>2014-04-13T12:51:33Z</time>
		</trkpt>
		<trkpt lat="53.8383750915527" lon="13.402886390686">
			<ele>47.5999984741211</ele>
			<time>2014-04-13T12:51:34Z</time>
		</trkpt>
		<trkpt lat="53.8383255004883" lon="13.4029493331909">
			<ele>47.4000015258789</ele>
			<time>2014-04-13T12:51:35Z</time>
		</trkpt>
		<trkpt lat="53.8382797241211" lon="13.4030141830444">
			<ele>47.4000015258789</ele>
			<time>2014-04-13T12:51:36Z</time>
		</trkpt>
		<trkpt lat="53.8382301330566" lon="13.4030818939209">
			<ele>47.4000015258789</ele>
			<time>2014-04-13T12:51:37Z</time>
		</trkpt>
		<trkpt lat="53.8381767272949" lon="13.4031448364258">
			<ele>47.5999984741211</ele>
			<time>2014-04-13T12:51:38Z</time>
		</trkpt>
		<trkpt lat="53.8381271362305" lon="13.4032182693481">
			<ele>47.5999984741211</ele>
			<time>2014-04-13T12:51:39Z</time>
		</trkpt>
		<trkpt lat="53.838077545166" lon="13.403284072876">
			<ele>47.7999992370605</ele>
			<time>2014-04-13T12:51:40Z</time>
		</trkpt>
		<trkpt lat="53.8380279541016" lon="13.4033536911011">
			<ele>48</ele>
			<time>2014-04-13T12:51:41Z</time>
		</trkpt>
		<trkpt lat="53.8379859924316" lon="13.4034271240234">
			<ele>47.5999984741211</ele>
			<time>2014-04-13T12:51:42Z</time>
		</trkpt>
		<trkpt lat="53.8379364013672" lon="13.4035015106201">
			<ele>47.7999992370605</ele>
			<time>2014-04-13T12:51:43Z</time>
		</trkpt>
		<trkpt lat="53.837890625" lon="13.403564453125">
			<ele>47.7000007629395</ele>
			<time>2014-04-13T12:51:44Z</time>
		</trkpt>
		<trkpt lat="53.8378448486328" lon="13.4036283493042">
			<ele>47.5</ele>
			<time>2014-04-13T12:51:45Z</time>
		</trkpt>
		<trkpt lat="53.8377990722656" lon="13.4037055969238">
			<ele>47.5</ele>
			<time>2014-04-13T12:51:46Z</time>
		</trkpt>
		<trkpt lat="53.8377494812012" lon="13.403769493103">
			<ele>47.4000015258789</ele>
			<time>2014-04-13T12:51:47Z</time>
		</trkpt>
		<trkpt lat="53.8376960754395" lon="13.4038362503052">
			<ele>47.4000015258789</ele>
			<time>2014-04-13T12:51:48Z</time>
		</trkpt>
		<trkpt lat="53.8376502990723" lon="13.403902053833">
			<ele>47.2999992370605</ele>
			<time>2014-04-13T12:51:49Z</time>
		</trkpt>
		<trkpt lat="53.8376045227051" lon="13.4039640426636">
			<ele>47.2999992370605</ele>
			<time>2014-04-13T12:51:50Z</time>
		</trkpt>
		<trkpt lat="53.8375587463379" lon="13.4040355682373">
			<ele>47.2000007629395</ele>
			<time>2014-04-13T12:51:51Z</time>
		</trkpt>
		<trkpt lat="53.8375129699707" lon="13.4041090011597">
			<ele>47.2000007629395</ele>
			<time>2014-04-13T12:51:52Z</time>
		</trkpt>
		<trkpt lat="53.8374671936035" lon="13.4041709899902">
			<ele>47</ele>
			<time>2014-04-13T12:51:53Z</time>
		</trkpt>
		<trkpt lat="53.8374176025391" lon="13.4042387008667">
			<ele>47.0999984741211</ele>
			<time>2014-04-13T12:51:54Z</time>
		</trkpt>
		<trkpt lat="53.8373718261719" lon="13.4043045043945">
			<ele>47.0999984741211</ele>
			<time>2014-04-13T12:51:55Z</time>
		</trkpt>
		<trkpt lat="53.8373260498047" lon="13.4043731689453">
			<ele>47</ele>
			<time>2014-04-13T12:51:56Z</time>
		</trkpt>
		<trkpt lat="53.8372802734375" lon="13.4044408798218">
			<ele>46.9000015258789</ele>
			<time>2014-04-13T12:51:57Z</time>
		</trkpt>
		<trkpt lat="53.8372344970703" lon="13.404504776001">
			<ele>46.5999984741211</ele>
			<time>2014-04-13T12:51:58Z</time>
		</trkpt>
		<trkpt lat="53.8371849060059" lon="13.4045705795288">
			<ele>46.2999992370605</ele>
			<time>2014-04-13T12:51:59Z</time>
		</trkpt>
		<trkpt lat="53.8371353149414" lon="13.4046354293823">
			<ele>46.4000015258789</ele>
			<time>2014-04-13T12:52:00Z</time>
		</trkpt>
		<trkpt lat="53.8370933532715" lon="13.4047040939331">
			<ele>46.5</ele>
			<time>2014-04-13T12:52:01Z</time>
		</trkpt>
		<trkpt lat="53.8370475769043" lon="13.4047718048096">
			<ele>46</ele>
			<time>2014-04-13T12:52:02Z</time>
		</trkpt>
		<trkpt lat="53.8370018005371" lon="13.4048366546631">
			<ele>45.9000015258789</ele>
			<time>2014-04-13T12:52:03Z</time>
		</trkpt>
		<trkpt lat="53.8369522094727" lon="13.4049072265625">
			<ele>45.9000015258789</ele>
			<time>2014-04-13T12:52:04Z</time>
		</trkpt>
		<trkpt lat="53.8369064331055" lon="13.4049758911133">
			<ele>46</ele>
			<time>2014-04-13T12:52:05Z</time>
		</trkpt>
		<trkpt lat="53.8368606567383" lon="13.4050436019897">
			<ele>45.7999992370605</ele>
			<time>2014-04-13T12:52:06Z</time>
		</trkpt>
		<trkpt lat="53.8368110656738" lon="13.4051113128662">
			<ele>45.7000007629395</ele>
			<time>2014-04-13T12:52:07Z</time>
		</trkpt>
		<trkpt lat="53.8367652893066" lon="13.4051790237427">
			<ele>45.7000007629395</ele>
			<time>2014-04-13T12:52:08Z</time>
		</trkpt>
		<trkpt lat="53.8367195129395" lon="13.4052438735962">
			<ele>45.5999984741211</ele>
			<time>2014-04-13T12:52:09Z</time>
		</trkpt>
		<trkpt lat="53.836669921875" lon="13.4053153991699">
			<ele>45.2000007629395</ele>
			<time>2014-04-13T12:52:10Z</time>
		</trkpt>
		<trkpt lat="53.8366203308105" lon="13.4053773880005">
			<ele>45.0999984741211</ele>
			<time>2014-04-13T12:52:11Z</time>
		</trkpt>
		<trkpt lat="53.8365707397461" lon="13.405442237854">
			<ele>45.0999984741211</ele>
			<time>2014-04-13T12:52:12Z</time>
		</trkpt>
		<trkpt lat="53.8365249633789" lon="13.4055099487305">
			<ele>44.7999992370605</ele>
			<time>2014-04-13T12:52:13Z</time>
		</trkpt>
		<trkpt lat="53.8364715576172" lon="13.4055805206299">
			<ele>45</ele>
			<time>2014-04-13T12:52:14Z</time>
		</trkpt>
		<trkpt lat="53.8364219665527" lon="13.4056482315063">
			<ele>44.9000015258789</ele>
			<time>2014-04-13T12:52:15Z</time>
		</trkpt>
		<trkpt lat="53.8363723754883" lon="13.4057149887085">
			<ele>45.2000007629395</ele>
			<time>2014-04-13T12:52:16Z</time>
		</trkpt>
		<trkpt lat="53.8363227844238" lon="13.4057912826538">
			<ele>45.2999992370605</ele>
			<time>2014-04-13T12:52:17Z</time>
		</trkpt>
		<trkpt lat="53.8362770080566" lon="13.4058685302734">
			<ele>45.4000015258789</ele>
			<time>2014-04-13T12:52:18Z</time>
		</trkpt>
		<trkpt lat="53.836238861084" lon="13.4059524536133">
			<ele>45.4000015258789</ele>
			<time>2014-04-13T12:52:19Z</time>
		</trkpt>
		<trkpt lat="53.8362007141113" lon="13.4060382843018">
			<ele>45.4000015258789</ele>
			<time>2014-04-13T12:52:20Z</time>
		</trkpt>
		<trkpt lat="53.8361625671387" lon="13.4061336517334">
			<ele>45.5999984741211</ele>
			<time>2014-04-13T12:52:21Z</time>
		</trkpt>
		<trkpt lat="53.8361320495605" lon="13.406231880188">
			<ele>45.4000015258789</ele>
			<time>2014-04-13T12:52:22Z</time>
		</trkpt>
		<trkpt lat="53.8361015319824" lon="13.4063310623169">
			<ele>45.5999984741211</ele>
			<time>2014-04-13T12:52:23Z</time>
		</trkpt>
		<trkpt lat="53.8360710144043" lon="13.4064331054688">
			<ele>45.5999984741211</ele>
			<time>2014-04-13T12:52:24Z</time>
		</trkpt>
		<trkpt lat="53.8360404968262" lon="13.4065284729004">
			<ele>45.5</ele>
			<time>2014-04-13T12:52:25Z</time>
		</trkpt>
		<trkpt lat="53.836009979248" lon="13.4066257476807">
			<ele>45.2000007629395</ele>
			<time>2014-04-13T12:52:26Z</time>
		</trkpt>
		<trkpt lat="53.8359794616699" lon="13.4067239761353">
			<ele>45.2999992370605</ele>
			<time>2014-04-13T12:52:27Z</time>
		</trkpt>
		<trkpt lat="53.8359489440918" lon="13.4068222045898">
			<ele>45.2000007629395</ele>
			<time>2014-04-13T12:52:28Z</time>
		</trkpt>
		<trkpt lat="53.8359184265137" lon="13.4069194793701">
			<ele>44.9000015258789</ele>
			<time>2014-04-13T12:52:29Z</time>
		</trkpt>
		<trkpt lat="53.8358840942383" lon="13.4070158004761">
			<ele>44.7000007629395</ele>
			<time>2014-04-13T12:52:30Z</time>
		</trkpt>
		<trkpt lat="53.8358535766602" lon="13.4071140289307">
			<ele>44.4000015258789</ele>
			<time>2014-04-13T12:52:31Z</time>
		</trkpt>
		<trkpt lat="53.8358192443848" lon="13.4072141647339">
			<ele>44.5</ele>
			<time>2014-04-13T12:52:32Z</time>
		</trkpt>
		<trkpt lat="53.8357887268066" lon="13.4073133468628">
			<ele>44.5999984741211</ele>
			<time>2014-04-13T12:52:33Z</time>
		</trkpt>
		<trkpt lat="53.8357620239258" lon="13.407416343689">
			<ele>44.7999992370605</ele>
			<time>2014-04-13T12:52:34Z</time>
		</trkpt>
		<trkpt lat="53.8357315063477" lon="13.4075193405151">
			<ele>45.0999984741211</ele>
			<time>2014-04-13T12:52:35Z</time>
		</trkpt>
		<trkpt lat="53.8357086181641" lon="13.407621383667">
			<ele>45.0999984741211</ele>
			<time>2014-04-13T12:52:36Z</time>
		</trkpt>
		<trkpt lat="53.835693359375" lon="13.4077291488647">
			<ele>44.9000015258789</ele>
			<time>2014-04-13T12:52:38Z</time>
		</trkpt>
		<trkpt lat="53.8356552124023" lon="13.4079437255859">
			<ele>45.4000015258789</ele>
			<time>2014-04-13T12:52:39Z</time>
		</trkpt>
		<trkpt lat="53.835636138916" lon="13.4080505371094">
			<ele>45.5</ele>
			<time>2014-04-13T12:52:40Z</time>
		</trkpt>
		<trkpt lat="53.8356246948242" lon="13.4081592559814">
			<ele>45.9000015258789</ele>
			<time>2014-04-13T12:52:41Z</time>
		</trkpt>
		<trkpt lat="53.8356094360352" lon="13.4082651138306">
			<ele>46</ele>
			<time>2014-04-13T12:52:42Z</time>
		</trkpt>
		<trkpt lat="53.8355979919434" lon="13.4083690643311">
			<ele>45.9000015258789</ele>
			<time>2014-04-13T12:52:44Z</time>
		</trkpt>
		<trkpt lat="53.8355751037598" lon="13.4085750579834">
			<ele>46.0999984741211</ele>
			<time>2014-04-13T12:52:45Z</time>
		</trkpt>
		<trkpt lat="53.8355598449707" lon="13.4086818695068">
			<ele>46.2999992370605</ele>
			<time>2014-04-13T12:52:46Z</time>
		</trkpt>
		<trkpt lat="53.8355445861816" lon="13.4087896347046">
			<ele>46.2999992370605</ele>
			<time>2014-04-13T12:52:47Z</time>
		</trkpt>
		<trkpt lat="53.8355255126953" lon="13.4088954925537">
			<ele>46.5</ele>
			<time>2014-04-13T12:52:48Z</time>
		</trkpt>
		<trkpt lat="53.8355140686035" lon="13.4090051651001">
			<ele>46</ele>
			<time>2014-04-13T12:52:49Z</time>
		</trkpt>
		<trkpt lat="53.8354988098145" lon="13.4091110229492">
			<ele>46.5</ele>
			<time>2014-04-13T12:52:51Z</time>
		</trkpt>
		<trkpt lat="53.8354797363281" lon="13.4092197418213">
			<ele>46.7000007629395</ele>
			<time>2014-04-13T12:52:51Z</time>
		</trkpt>
		<trkpt lat="53.8354606628418" lon="13.4093198776245">
			<ele>47.2000007629395</ele>
			<time>2014-04-13T12:52:53Z</time>
		</trkpt>
		<trkpt lat="53.8354263305664" lon="13.4095325469971">
			<ele>47.7000007629395</ele>
			<time>2014-04-13T12:52:54Z</time>
		</trkpt>
		<trkpt lat="53.8354148864746" lon="13.4096326828003">
			<ele>47.5999984741211</ele>
			<time>2014-04-13T12:52:55Z</time>
		</trkpt>
		<trkpt lat="53.8353996276855" lon="13.4097375869751">
			<ele>47.7000007629395</ele>
			<time>2014-04-13T12:52:56Z</time>
		</trkpt>
		<trkpt lat="53.8353805541992" lon="13.4098405838013">
			<ele>47.7999992370605</ele>
			<time>2014-04-13T12:52:59Z</time>
		</trkpt>
		<trkpt lat="53.8353500366211" lon="13.4100494384766">
			<ele>47.9000015258789</ele>
			<time>2014-04-13T12:53:00Z</time>
		</trkpt>
		<trkpt lat="53.8353157043457" lon="13.4102592468262">
			<ele>48.0999984741211</ele>
			<time>2014-04-13T12:53:01Z</time>
		</trkpt>
		<trkpt lat="53.8353004455566" lon="13.4103670120239">
			<ele>48.0999984741211</ele>
			<time>2014-04-13T12:53:02Z</time>
		</trkpt>
		<trkpt lat="53.8352813720703" lon="13.4104776382446">
			<ele>48.2000007629395</ele>
			<time>2014-04-13T12:53:03Z</time>
		</trkpt>
		<trkpt lat="53.8352584838867" lon="13.4105844497681">
			<ele>48.5999984741211</ele>
			<time>2014-04-13T12:53:04Z</time>
		</trkpt>
		<trkpt lat="53.8352394104004" lon="13.4106960296631">
			<ele>48.7999992370605</ele>
			<time>2014-04-13T12:53:05Z</time>
		</trkpt>
		<trkpt lat="53.8352241516113" lon="13.4108076095581">
			<ele>48.7000007629395</ele>
			<time>2014-04-13T12:53:06Z</time>
		</trkpt>
		<trkpt lat="53.8352127075195" lon="13.4109182357788">
			<ele>48.7999992370605</ele>
			<time>2014-04-13T12:53:07Z</time>
		</trkpt>
		<trkpt lat="53.8351936340332" lon="13.4110269546509">
			<ele>48.9000015258789</ele>
			<time>2014-04-13T12:53:08Z</time>
		</trkpt>
		<trkpt lat="53.8351745605469" lon="13.4111375808716">
			<ele>48.9000015258789</ele>
			<time>2014-04-13T12:53:09Z</time>
		</trkpt>
		<trkpt lat="53.8351593017578" lon="13.4112462997437">
			<ele>49.2000007629395</ele>
			<time>2014-04-13T12:53:10Z</time>
		</trkpt>
		<trkpt lat="53.8351440429688" lon="13.4113540649414">
			<ele>49.2000007629395</ele>
			<time>2014-04-13T12:53:11Z</time>
		</trkpt>
		<trkpt lat="53.8351249694824" lon="13.4114608764648">
			<ele>49.5</ele>
			<time>2014-04-13T12:53:12Z</time>
		</trkpt>
		<trkpt lat="53.8351097106934" lon="13.4115705490112">
			<ele>49.5999984741211</ele>
			<time>2014-04-13T12:53:14Z</time>
		</trkpt>
		<trkpt lat="53.835075378418" lon="13.4117765426636">
			<ele>49.7000007629395</ele>
			<time>2014-04-13T12:53:15Z</time>
		</trkpt>
		<trkpt lat="53.8350601196289" lon="13.411883354187">
			<ele>49.5999984741211</ele>
			<time>2014-04-13T12:53:16Z</time>
		</trkpt>
		<trkpt lat="53.8350410461426" lon="13.4119901657104">
			<ele>49.5</ele>
			<time>2014-04-13T12:53:18Z</time>
		</trkpt>
		<trkpt lat="53.8350296020508" lon="13.4120950698853">
			<ele>49.5999984741211</ele>
			<time>2014-04-13T12:53:18Z</time>
		</trkpt>
		<trkpt lat="53.8350143432617" lon="13.4122018814087">
			<ele>49.5999984741211</ele>
			<time>2014-04-13T12:53:19Z</time>
		</trkpt>
		<trkpt lat="53.8349990844727" lon="13.4123010635376">
			<ele>49.7000007629395</ele>
			<time>2014-04-13T12:53:20Z</time>
		</trkpt>
		<trkpt lat="53.8349800109863" lon="13.4124040603638">
			<ele>49.9000015258789</ele>
			<time>2014-04-13T12:53:21Z</time>
		</trkpt>
		<trkpt lat="53.8349647521973" lon="13.4125080108643">
			<ele>50</ele>
			<time>2014-04-13T12:53:22Z</time>
		</trkpt>
		<trkpt lat="53.8349494934082" lon="13.4126091003418">
			<ele>49.9000015258789</ele>
			<time>2014-04-13T12:53:23Z</time>
		</trkpt>
		<trkpt lat="53.8349304199219" lon="13.4127168655396">
			<ele>49.7999992370605</ele>
			<time>2014-04-13T12:53:24Z</time>
		</trkpt>
		<trkpt lat="53.8349151611328" lon="13.4128227233887">
			<ele>49.7999992370605</ele>
			<time>2014-04-13T12:53:25Z</time>
		</trkpt>
		<trkpt lat="53.8348999023438" lon="13.4129285812378">
			<ele>49.9000015258789</ele>
			<time>2014-04-13T12:53:26Z</time>
		</trkpt>
		<trkpt lat="53.8348846435547" lon="13.4130277633667">
			<ele>50</ele>
			<time>2014-04-13T12:53:27Z</time>
		</trkpt>
		<trkpt lat="53.8348655700684" lon="13.4131345748901">
			<ele>50.2000007629395</ele>
			<time>2014-04-13T12:53:28Z</time>
		</trkpt>
		<trkpt lat="53.8348503112793" lon="13.4132413864136">
			<ele>50.2999992370605</ele>
			<time>2014-04-13T12:53:29Z</time>
		</trkpt>
		<trkpt lat="53.8348350524902" lon="13.4133472442627">
			<ele>50.4000015258789</ele>
			<time>2014-04-13T12:53:30Z</time>
		</trkpt>
		<trkpt lat="53.8348159790039" lon="13.4134492874146">
			<ele>50.5</ele>
			<time>2014-04-13T12:53:31Z</time>
		</trkpt>
		<trkpt lat="53.8348007202148" lon="13.4135522842407">
			<ele>50.7999992370605</ele>
			<time>2014-04-13T12:53:32Z</time>
		</trkpt>
		<trkpt lat="53.834789276123" lon="13.4136543273926">
			<ele>50.7999992370605</ele>
			<time>2014-04-13T12:53:33Z</time>
		</trkpt>
		<trkpt lat="53.834774017334" lon="13.4137544631958">
			<ele>50.7999992370605</ele>
			<time>2014-04-13T12:53:34Z</time>
		</trkpt>
		<trkpt lat="53.8347587585449" lon="13.413857460022">
			<ele>50.9000015258789</ele>
			<time>2014-04-13T12:53:35Z</time>
		</trkpt>
		<trkpt lat="53.8347434997559" lon="13.4139585494995">
			<ele>50.7999992370605</ele>
			<time>2014-04-13T12:53:36Z</time>
		</trkpt>
		<trkpt lat="53.8347282409668" lon="13.4140634536743">
			<ele>50.9000015258789</ele>
			<time>2014-04-13T12:53:37Z</time>
		</trkpt>
		<trkpt lat="53.8347091674805" lon="13.4141645431519">
			<ele>51</ele>
			<time>2014-04-13T12:53:38Z</time>
		</trkpt>
		<trkpt lat="53.8346939086914" lon="13.4142684936523">
			<ele>51.2000007629395</ele>
			<time>2014-04-13T12:53:39Z</time>
		</trkpt>
		<trkpt lat="53.8346786499023" lon="13.4143724441528">
			<ele>51.0999984741211</ele>
			<time>2014-04-13T12:53:40Z</time>
		</trkpt>
		<trkpt lat="53.8346633911133" lon="13.4144763946533">
			<ele>51.0999984741211</ele>
			<time>2014-04-13T12:53:41Z</time>
		</trkpt>
		<trkpt lat="53.8346481323242" lon="13.4145774841309">
			<ele>51.2999992370605</ele>
			<time>2014-04-13T12:53:42Z</time>
		</trkpt>
		<trkpt lat="53.8346328735352" lon="13.4146766662598">
			<ele>51.5</ele>
			<time>2014-04-13T12:53:43Z</time>
		</trkpt>
		<trkpt lat="53.8346176147461" lon="13.4147777557373">
			<ele>51.2000007629395</ele>
			<time>2014-04-13T12:53:44Z</time>
		</trkpt>
		<trkpt lat="53.834602355957" lon="13.4148797988892">
			<ele>51.2999992370605</ele>
			<time>2014-04-13T12:53:45Z</time>
		</trkpt>
		<trkpt lat="53.8345909118652" lon="13.4149808883667">
			<ele>51.2999992370605</ele>
			<time>2014-04-13T12:53:46Z</time>
		</trkpt>
		<trkpt lat="53.8345756530762" lon="13.4150800704956">
			<ele>51.5999984741211</ele>
			<time>2014-04-13T12:53:47Z</time>
		</trkpt>
		<trkpt lat="53.8345603942871" lon="13.4151811599731">
			<ele>51.5999984741211</ele>
			<time>2014-04-13T12:53:48Z</time>
		</trkpt>
		<trkpt lat="53.834545135498" lon="13.4152851104736">
			<ele>51.7000007629395</ele>
			<time>2014-04-13T12:53:49Z</time>
		</trkpt>
		<trkpt lat="53.834529876709" lon="13.4153919219971">
			<ele>51.9000015258789</ele>
			<time>2014-04-13T12:53:50Z</time>
		</trkpt>
		<trkpt lat="53.8345108032227" lon="13.4154977798462">
			<ele>51.9000015258789</ele>
			<time>2014-04-13T12:53:51Z</time>
		</trkpt>
		<trkpt lat="53.8344955444336" lon="13.4156036376953">
			<ele>51.7999992370605</ele>
			<time>2014-04-13T12:53:52Z</time>
		</trkpt>
		<trkpt lat="53.8344764709473" lon="13.4157075881958">
			<ele>52</ele>
			<time>2014-04-13T12:53:53Z</time>
		</trkpt>
		<trkpt lat="53.8344650268555" lon="13.4158163070679">
			<ele>52</ele>
			<time>2014-04-13T12:53:54Z</time>
		</trkpt>
		<trkpt lat="53.8344459533691" lon="13.415922164917">
			<ele>52</ele>
			<time>2014-04-13T12:53:55Z</time>
		</trkpt>
		<trkpt lat="53.8344306945801" lon="13.4160299301147">
			<ele>52.0999984741211</ele>
			<time>2014-04-13T12:53:56Z</time>
		</trkpt>
		<trkpt lat="53.834415435791" lon="13.4161367416382">
			<ele>52</ele>
			<time>2014-04-13T12:53:57Z</time>
		</trkpt>
		<trkpt lat="53.8344039916992" lon="13.4162425994873">
			<ele>52</ele>
			<time>2014-04-13T12:53:58Z</time>
		</trkpt>
		<trkpt lat="53.8343849182129" lon="13.416353225708">
			<ele>51.9000015258789</ele>
			<time>2014-04-13T12:53:59Z</time>
		</trkpt>
		<trkpt lat="53.8343658447266" lon="13.4164667129517">
			<ele>51.9000015258789</ele>
			<time>2014-04-13T12:54:00Z</time>
		</trkpt>
		<trkpt lat="53.8343505859375" lon="13.4165773391724">
			<ele>51.9000015258789</ele>
			<time>2014-04-13T12:54:01Z</time>
		</trkpt>
		<trkpt lat="53.8343315124512" lon="13.4166879653931">
			<ele>51.9000015258789</ele>
			<time>2014-04-13T12:54:02Z</time>
		</trkpt>
		<trkpt lat="53.8343124389648" lon="13.4168004989624">
			<ele>52</ele>
			<time>2014-04-13T12:54:03Z</time>
		</trkpt>
		<trkpt lat="53.8342933654785" lon="13.4169130325317">
			<ele>51.9000015258789</ele>
			<time>2014-04-13T12:54:04Z</time>
		</trkpt>
		<trkpt lat="53.8342781066895" lon="13.4170227050781">
			<ele>51.7999992370605</ele>
			<time>2014-04-13T12:54:05Z</time>
		</trkpt>
		<trkpt lat="53.8342628479004" lon="13.4171323776245">
			<ele>51.7999992370605</ele>
			<time>2014-04-13T12:54:06Z</time>
		</trkpt>
		<trkpt lat="53.8342514038086" lon="13.4172430038452">
			<ele>51.7999992370605</ele>
			<time>2014-04-13T12:54:07Z</time>
		</trkpt>
		<trkpt lat="53.8342361450195" lon="13.4173545837402">
			<ele>51.7999992370605</ele>
			<time>2014-04-13T12:54:08Z</time>
		</trkpt>
		<trkpt lat="53.8342170715332" lon="13.4174633026123">
			<ele>51.7999992370605</ele>
			<time>2014-04-13T12:54:09Z</time>
		</trkpt>
		<trkpt lat="53.8342018127441" lon="13.4175720214844">
			<ele>51.7000007629395</ele>
			<time>2014-04-13T12:54:10Z</time>
		</trkpt>
		<trkpt lat="53.8341865539551" lon="13.4176845550537">
			<ele>51.5999984741211</ele>
			<time>2014-04-13T12:54:11Z</time>
		</trkpt>
		<trkpt lat="53.8341674804688" lon="13.4177989959717">
			<ele>51.5999984741211</ele>
			<time>2014-04-13T12:54:12Z</time>
		</trkpt>
		<trkpt lat="53.8341484069824" lon="13.4179153442383">
			<ele>51.5</ele>
			<time>2014-04-13T12:54:13Z</time>
		</trkpt>
		<trkpt lat="53.8341293334961" lon="13.4180288314819">
			<ele>51.4000015258789</ele>
			<time>2014-04-13T12:54:14Z</time>
		</trkpt>
		<trkpt lat="53.834114074707" lon="13.4181480407715">
			<ele>51.2999992370605</ele>
			<time>2014-04-13T12:54:15Z</time>
		</trkpt>
		<trkpt lat="53.834098815918" lon="13.4182624816895">
			<ele>51.4000015258789</ele>
			<time>2014-04-13T12:54:16Z</time>
		</trkpt>
		<trkpt lat="53.8340835571289" lon="13.4183769226074">
			<ele>51.2999992370605</ele>
			<time>2014-04-13T12:54:17Z</time>
		</trkpt>
		<trkpt lat="53.8340682983398" lon="13.4184894561768">
			<ele>51.0999984741211</ele>
			<time>2014-04-13T12:54:18Z</time>
		</trkpt>
		<trkpt lat="53.8340492248535" lon="13.4186058044434">
			<ele>51.2999992370605</ele>
			<time>2014-04-13T12:54:19Z</time>
		</trkpt>
		<trkpt lat="53.8340301513672" lon="13.4187211990356">
			<ele>51</ele>
			<time>2014-04-13T12:54:20Z</time>
		</trkpt>
		<trkpt lat="53.8340110778809" lon="13.4188385009766">
			<ele>51</ele>
			<time>2014-04-13T12:54:21Z</time>
		</trkpt>
		<trkpt lat="53.8339920043945" lon="13.4189624786377">
			<ele>50.9000015258789</ele>
			<time>2014-04-13T12:54:22Z</time>
		</trkpt>
		<trkpt lat="53.8339729309082" lon="13.4190845489502">
			<ele>50.9000015258789</ele>
			<time>2014-04-13T12:54:23Z</time>
		</trkpt>
		<trkpt lat="53.8339538574219" lon="13.419207572937">
			<ele>51</ele>
			<time>2014-04-13T12:54:24Z</time>
		</trkpt>
		<trkpt lat="53.8339347839355" lon="13.4193325042725">
			<ele>51.0999984741211</ele>
			<time>2014-04-13T12:54:25Z</time>
		</trkpt>
		<trkpt lat="53.8339157104492" lon="13.4194555282593">
			<ele>51.0999984741211</ele>
			<time>2014-04-13T12:54:26Z</time>
		</trkpt>
		<trkpt lat="53.8338966369629" lon="13.4195795059204">
			<ele>51.0999984741211</ele>
			<time>2014-04-13T12:54:27Z</time>
		</trkpt>
		<trkpt lat="53.8338775634766" lon="13.4197015762329">
			<ele>51.2999992370605</ele>
			<time>2014-04-13T12:54:28Z</time>
		</trkpt>
		<trkpt lat="53.8338623046875" lon="13.4198207855225">
			<ele>51.2999992370605</ele>
			<time>2014-04-13T12:54:29Z</time>
		</trkpt>
		<trkpt lat="53.8338432312012" lon="13.4199438095093">
			<ele>51.2999992370605</ele>
			<time>2014-04-13T12:54:30Z</time>
		</trkpt>
		<trkpt lat="53.8338241577148" lon="13.4200658798218">
			<ele>51.2000007629395</ele>
			<time>2014-04-13T12:54:31Z</time>
		</trkpt>
		<trkpt lat="53.8338050842285" lon="13.420184135437">
			<ele>51.5</ele>
			<time>2014-04-13T12:54:32Z</time>
		</trkpt>
		<trkpt lat="53.8337898254395" lon="13.4203081130981">
			<ele>51.2999992370605</ele>
			<time>2014-04-13T12:54:33Z</time>
		</trkpt>
		<trkpt lat="53.8337707519531" lon="13.4204339981079">
			<ele>51.2999992370605</ele>
			<time>2014-04-13T12:54:34Z</time>
		</trkpt>
		<trkpt lat="53.8337516784668" lon="13.420557975769">
			<ele>51.0999984741211</ele>
			<time>2014-04-13T12:54:35Z</time>
		</trkpt>
		<trkpt lat="53.8337326049805" lon="13.4206781387329">
			<ele>50.7999992370605</ele>
			<time>2014-04-13T12:54:36Z</time>
		</trkpt>
		<trkpt lat="53.8337135314941" lon="13.4208002090454">
			<ele>50.7000007629395</ele>
			<time>2014-04-13T12:54:37Z</time>
		</trkpt>
		<trkpt lat="53.8336944580078" lon="13.4209213256836">
			<ele>50.7999992370605</ele>
			<time>2014-04-13T12:54:38Z</time>
		</trkpt>
		<trkpt lat="53.8336753845215" lon="13.4210414886475">
			<ele>51</ele>
			<time>2014-04-13T12:54:39Z</time>
		</trkpt>
		<trkpt lat="53.8336563110352" lon="13.42116355896">
			<ele>50.7000007629395</ele>
			<time>2014-04-13T12:54:40Z</time>
		</trkpt>
		<trkpt lat="53.8336372375488" lon="13.4212884902954">
			<ele>50.7999992370605</ele>
			<time>2014-04-13T12:54:41Z</time>
		</trkpt>
		<trkpt lat="53.8336181640625" lon="13.4214067459106">
			<ele>50.5999984741211</ele>
			<time>2014-04-13T12:54:42Z</time>
		</trkpt>
		<trkpt lat="53.8336029052734" lon="13.4215240478516">
			<ele>50.7999992370605</ele>
			<time>2014-04-13T12:54:43Z</time>
		</trkpt>
		<trkpt lat="53.8335838317871" lon="13.4216432571411">
			<ele>50.7999992370605</ele>
			<time>2014-04-13T12:54:44Z</time>
		</trkpt>
		<trkpt lat="53.833568572998" lon="13.4217615127563">
			<ele>50.7999992370605</ele>
			<time>2014-04-13T12:54:45Z</time>
		</trkpt>
		<trkpt lat="53.8335494995117" lon="13.4218807220459">
			<ele>50.9000015258789</ele>
			<time>2014-04-13T12:54:46Z</time>
		</trkpt>
		<trkpt lat="53.8335304260254" lon="13.4219942092896">
			<ele>51</ele>
			<time>2014-04-13T12:54:47Z</time>
		</trkpt>
		<trkpt lat="53.8335151672363" lon="13.4221124649048">
			<ele>51.2000007629395</ele>
			<time>2014-04-13T12:54:48Z</time>
		</trkpt>
		<trkpt lat="53.8334999084473" lon="13.4222316741943">
			<ele>51.2999992370605</ele>
			<time>2014-04-13T12:54:49Z</time>
		</trkpt>
		<trkpt lat="53.8334770202637" lon="13.4223499298096">
			<ele>51.2999992370605</ele>
			<time>2014-04-13T12:54:50Z</time>
		</trkpt>
		<trkpt lat="53.8334579467773" lon="13.4224710464478">
			<ele>51.4000015258789</ele>
			<time>2014-04-13T12:54:51Z</time>
		</trkpt>
		<trkpt lat="53.8334426879883" lon="13.4225902557373">
			<ele>51.4000015258789</ele>
			<time>2014-04-13T12:54:52Z</time>
		</trkpt>
		<trkpt lat="53.833423614502" lon="13.4227085113525">
			<ele>51.7000007629395</ele>
			<time>2014-04-13T12:54:53Z</time>
		</trkpt>
		<trkpt lat="53.8334083557129" lon="13.4228267669678">
			<ele>51.5</ele>
			<time>2014-04-13T12:54:54Z</time>
		</trkpt>
		<trkpt lat="53.8333930969238" lon="13.4229431152344">
			<ele>51.5999984741211</ele>
			<time>2014-04-13T12:54:55Z</time>
		</trkpt>
		<trkpt lat="53.8333740234375" lon="13.423059463501">
			<ele>51.5</ele>
			<time>2014-04-13T12:54:56Z</time>
		</trkpt>
		<trkpt lat="53.8333587646484" lon="13.4231777191162">
			<ele>51.4000015258789</ele>
			<time>2014-04-13T12:54:57Z</time>
		</trkpt>
		<trkpt lat="53.8333396911621" lon="13.4232950210571">
			<ele>51.5999984741211</ele>
			<time>2014-04-13T12:54:58Z</time>
		</trkpt>
		<trkpt lat="53.8333206176758" lon="13.423412322998">
			<ele>51.7999992370605</ele>
			<time>2014-04-13T12:54:59Z</time>
		</trkpt>
		<trkpt lat="53.8333053588867" lon="13.4235315322876">
			<ele>52</ele>
			<time>2014-04-13T12:55:00Z</time>
		</trkpt>
		<trkpt lat="53.8332862854004" lon="13.4236469268799">
			<ele>52</ele>
			<time>2014-04-13T12:55:01Z</time>
		</trkpt>
		<trkpt lat="53.8332710266113" lon="13.4237661361694">
			<ele>52</ele>
			<time>2014-04-13T12:55:02Z</time>
		</trkpt>
		<trkpt lat="53.833251953125" lon="13.4238815307617">
			<ele>52.0999984741211</ele>
			<time>2014-04-13T12:55:03Z</time>
		</trkpt>
		<trkpt lat="53.8332328796387" lon="13.4239988327026">
			<ele>52</ele>
			<time>2014-04-13T12:55:04Z</time>
		</trkpt>
		<trkpt lat="53.8332176208496" lon="13.4241161346436">
			<ele>51.9000015258789</ele>
			<time>2014-04-13T12:55:05Z</time>
		</trkpt>
		<trkpt lat="53.8331985473633" lon="13.4242372512817">
			<ele>51.7000007629395</ele>
			<time>2014-04-13T12:55:06Z</time>
		</trkpt>
		<trkpt lat="53.833179473877" lon="13.4243516921997">
			<ele>51.7999992370605</ele>
			<time>2014-04-13T12:55:07Z</time>
		</trkpt>
		<trkpt lat="53.8331642150879" lon="13.4244699478149">
			<ele>51.7999992370605</ele>
			<time>2014-04-13T12:55:08Z</time>
		</trkpt>
		<trkpt lat="53.8331451416016" lon="13.4245920181274">
			<ele>51.7999992370605</ele>
			<time>2014-04-13T12:55:09Z</time>
		</trkpt>
		<trkpt lat="53.833122253418" lon="13.4247131347656">
			<ele>52</ele>
			<time>2014-04-13T12:55:10Z</time>
		</trkpt>
		<trkpt lat="53.8331031799316" lon="13.4248323440552">
			<ele>52</ele>
			<time>2014-04-13T12:55:11Z</time>
		</trkpt>
		<trkpt lat="53.8330841064453" lon="13.424952507019">
			<ele>52.0999984741211</ele>
			<time>2014-04-13T12:55:12Z</time>
		</trkpt>
		<trkpt lat="53.833065032959" lon="13.4250726699829">
			<ele>52</ele>
			<time>2014-04-13T12:55:13Z</time>
		</trkpt>
		<trkpt lat="53.8330497741699" lon="13.4251918792725">
			<ele>52.0999984741211</ele>
			<time>2014-04-13T12:55:14Z</time>
		</trkpt>
		<trkpt lat="53.8330345153809" lon="13.4253120422363">
			<ele>52.2000007629395</ele>
			<time>2014-04-13T12:55:15Z</time>
		</trkpt>
		<trkpt lat="53.8330154418945" lon="13.4254312515259">
			<ele>52.2000007629395</ele>
			<time>2014-04-13T12:55:16Z</time>
		</trkpt>
		<trkpt lat="53.8329963684082" lon="13.4255466461182">
			<ele>52.2000007629395</ele>
			<time>2014-04-13T12:55:17Z</time>
		</trkpt>
		<trkpt lat="53.8329772949219" lon="13.4256629943848">
			<ele>52.4000015258789</ele>
			<time>2014-04-13T12:55:18Z</time>
		</trkpt>
		<trkpt lat="53.8329620361328" lon="13.42578125">
			<ele>52.5</ele>
			<time>2014-04-13T12:55:19Z</time>
		</trkpt>
		<trkpt lat="53.8329429626465" lon="13.4258947372437">
			<ele>52.7000007629395</ele>
			<time>2014-04-13T12:55:20Z</time>
		</trkpt>
		<trkpt lat="53.8329277038574" lon="13.42600440979">
			<ele>52.7999992370605</ele>
			<time>2014-04-13T12:55:21Z</time>
		</trkpt>
		<trkpt lat="53.8329086303711" lon="13.4261169433594">
			<ele>52.9000015258789</ele>
			<time>2014-04-13T12:55:22Z</time>
		</trkpt>
		<trkpt lat="53.8328895568848" lon="13.426230430603">
			<ele>53</ele>
			<time>2014-04-13T12:55:23Z</time>
		</trkpt>
		<trkpt lat="53.8328742980957" lon="13.4263401031494">
			<ele>53.0999984741211</ele>
			<time>2014-04-13T12:55:24Z</time>
		</trkpt>
		<trkpt lat="53.8328590393066" lon="13.4264450073242">
			<ele>53</ele>
			<time>2014-04-13T12:55:25Z</time>
		</trkpt>
		<trkpt lat="53.8328399658203" lon="13.4265565872192">
			<ele>53.0999984741211</ele>
			<time>2014-04-13T12:55:26Z</time>
		</trkpt>
		<trkpt lat="53.8328247070313" lon="13.4266691207886">
			<ele>53.0999984741211</ele>
			<time>2014-04-13T12:55:27Z</time>
		</trkpt>
		<trkpt lat="53.8328094482422" lon="13.4267797470093">
			<ele>53.2999992370605</ele>
			<time>2014-04-13T12:55:28Z</time>
		</trkpt>
		<trkpt lat="53.8327941894531" lon="13.4268932342529">
			<ele>53.2999992370605</ele>
			<time>2014-04-13T12:55:29Z</time>
		</trkpt>
		<trkpt lat="53.8327789306641" lon="13.4269971847534">
			<ele>53.2999992370605</ele>
			<time>2014-04-13T12:55:30Z</time>
		</trkpt>
		<trkpt lat="53.8327598571777" lon="13.4271059036255">
			<ele>53.2999992370605</ele>
			<time>2014-04-13T12:55:31Z</time>
		</trkpt>
		<trkpt lat="53.8327445983887" lon="13.4272146224976">
			<ele>53.2000007629395</ele>
			<time>2014-04-13T12:55:32Z</time>
		</trkpt>
		<trkpt lat="53.8327293395996" lon="13.4273233413696">
			<ele>53.2999992370605</ele>
			<time>2014-04-13T12:55:33Z</time>
		</trkpt>
		<trkpt lat="53.8327140808105" lon="13.4274311065674">
			<ele>53.5</ele>
			<time>2014-04-13T12:55:34Z</time>
		</trkpt>
		<trkpt lat="53.8326988220215" lon="13.4275388717651">
			<ele>53.7000007629395</ele>
			<time>2014-04-13T12:55:35Z</time>
		</trkpt>
		<trkpt lat="53.8326835632324" lon="13.4276504516602">
			<ele>53.5</ele>
			<time>2014-04-13T12:55:36Z</time>
		</trkpt>
		<trkpt lat="53.8326644897461" lon="13.4277572631836">
			<ele>53.5</ele>
			<time>2014-04-13T12:55:37Z</time>
		</trkpt>
		<trkpt lat="53.8326530456543" lon="13.4278659820557">
			<ele>53.5999984741211</ele>
			<time>2014-04-13T12:55:38Z</time>
		</trkpt>
		<trkpt lat="53.8326377868652" lon="13.4279727935791">
			<ele>54</ele>
			<time>2014-04-13T12:55:42Z</time>
		</trkpt>
		<trkpt lat="53.8325653076172" lon="13.4284067153931">
			<ele>54.5</ele>
			<time>2014-04-13T12:55:46Z</time>
		</trkpt>
		<trkpt lat="53.8325157165527" lon="13.4287948608398">
			<ele>53.2000007629395</ele>
			<time>2014-04-13T12:55:51Z</time>
		</trkpt>
		<trkpt lat="53.8324508666992" lon="13.4292221069336">
			<ele>53.5999984741211</ele>
			<time>2014-04-13T12:55:52Z</time>
		</trkpt>
		<trkpt lat="53.8324317932129" lon="13.4293327331543">
			<ele>53.5999984741211</ele>
			<time>2014-04-13T12:55:54Z</time>
		</trkpt>
		<trkpt lat="53.8323783874512" lon="13.4296522140503">
			<ele>54.5</ele>
			<time>2014-04-13T12:55:56Z</time>
		</trkpt>
		<trkpt lat="53.8323593139648" lon="13.4297571182251">
			<ele>54.7000007629395</ele>
			<time>2014-04-13T12:55:56Z</time>
		</trkpt>
		<trkpt lat="53.8323440551758" lon="13.4298620223999">
			<ele>54.5999984741211</ele>
			<time>2014-04-13T12:55:58Z</time>
		</trkpt>
		<trkpt lat="53.8323249816895" lon="13.429970741272">
			<ele>54.7000007629395</ele>
			<time>2014-04-13T12:55:58Z</time>
		</trkpt>
		<trkpt lat="53.8323097229004" lon="13.430079460144">
			<ele>54.7999992370605</ele>
			<time>2014-04-13T12:56:00Z</time>
		</trkpt>
		<trkpt lat="53.832275390625" lon="13.4302959442139">
			<ele>55</ele>
			<time>2014-04-13T12:56:03Z</time>
		</trkpt>
		<trkpt lat="53.8322257995605" lon="13.4306259155273">
			<ele>55.2000007629395</ele>
			<time>2014-04-13T12:56:04Z</time>
		</trkpt>
		<trkpt lat="53.8322105407715" lon="13.4307374954224">
			<ele>55.4000015258789</ele>
			<time>2014-04-13T12:56:05Z</time>
		</trkpt>
		<trkpt lat="53.8321952819824" lon="13.4308443069458">
			<ele>55.2999992370605</ele>
			<time>2014-04-13T12:56:06Z</time>
		</trkpt>
		<trkpt lat="53.8321838378906" lon="13.4309492111206">
			<ele>55.2999992370605</ele>
			<time>2014-04-13T12:56:08Z</time>
		</trkpt>
		<trkpt lat="53.8321495056152" lon="13.4311618804932">
			<ele>55.4000015258789</ele>
			<time>2014-04-13T12:56:09Z</time>
		</trkpt>
		<trkpt lat="53.8321342468262" lon="13.4312696456909">
			<ele>55.4000015258789</ele>
			<time>2014-04-13T12:56:10Z</time>
		</trkpt>
		<trkpt lat="53.8321151733398" lon="13.4313745498657">
			<ele>55.4000015258789</ele>
			<time>2014-04-13T12:56:11Z</time>
		</trkpt>
		<trkpt lat="53.8320999145508" lon="13.4314804077148">
			<ele>55.4000015258789</ele>
			<time>2014-04-13T12:56:12Z</time>
		</trkpt>
		<trkpt lat="53.8320846557617" lon="13.4315881729126">
			<ele>55.2999992370605</ele>
			<time>2014-04-13T12:56:13Z</time>
		</trkpt>
		<trkpt lat="53.8320693969727" lon="13.4316959381104">
			<ele>55.4000015258789</ele>
			<time>2014-04-13T12:56:14Z</time>
		</trkpt>
		<trkpt lat="53.8320579528809" lon="13.4318008422852">
			<ele>55.5999984741211</ele>
			<time>2014-04-13T12:56:15Z</time>
		</trkpt>
		<trkpt lat="53.8320426940918" lon="13.43190574646">
			<ele>55.7000007629395</ele>
			<time>2014-04-13T12:56:16Z</time>
		</trkpt>
		<trkpt lat="53.8320274353027" lon="13.4320125579834">
			<ele>55.7000007629395</ele>
			<time>2014-04-13T12:56:17Z</time>
		</trkpt>
		<trkpt lat="53.8320159912109" lon="13.4321165084839">
			<ele>55.7000007629395</ele>
			<time>2014-04-13T12:56:18Z</time>
		</trkpt>
		<trkpt lat="53.8319969177246" lon="13.4322204589844">
			<ele>55.9000015258789</ele>
			<time>2014-04-13T12:56:19Z</time>
		</trkpt>
		<trkpt lat="53.8319778442383" lon="13.4323320388794">
			<ele>56.0999984741211</ele>
			<time>2014-04-13T12:56:20Z</time>
		</trkpt>
		<trkpt lat="53.8319625854492" lon="13.4324378967285">
			<ele>56.0999984741211</ele>
			<time>2014-04-13T12:56:21Z</time>
		</trkpt>
		<trkpt lat="53.8319473266602" lon="13.4325494766235">
			<ele>56.0999984741211</ele>
			<time>2014-04-13T12:56:22Z</time>
		</trkpt>
		<trkpt lat="53.8319282531738" lon="13.4326553344727">
			<ele>56.0999984741211</ele>
			<time>2014-04-13T12:56:23Z</time>
		</trkpt>
		<trkpt lat="53.8319129943848" lon="13.4327621459961">
			<ele>56.0999984741211</ele>
			<time>2014-04-13T12:56:24Z</time>
		</trkpt>
		<trkpt lat="53.8318939208984" lon="13.4328689575195">
			<ele>56</ele>
			<time>2014-04-13T12:56:25Z</time>
		</trkpt>
		<trkpt lat="53.8318786621094" lon="13.4329748153687">
			<ele>56.0999984741211</ele>
			<time>2014-04-13T12:56:26Z</time>
		</trkpt>
		<trkpt lat="53.8318634033203" lon="13.4330825805664">
			<ele>56.2000007629395</ele>
			<time>2014-04-13T12:56:27Z</time>
		</trkpt>
		<trkpt lat="53.8318481445313" lon="13.4331903457642">
			<ele>56.2000007629395</ele>
			<time>2014-04-13T12:56:28Z</time>
		</trkpt>
		<trkpt lat="53.8318328857422" lon="13.433295249939">
			<ele>56.2000007629395</ele>
			<time>2014-04-13T12:56:29Z</time>
		</trkpt>
		<trkpt lat="53.8318176269531" lon="13.4333992004395">
			<ele>56.0999984741211</ele>
			<time>2014-04-13T12:56:30Z</time>
		</trkpt>
		<trkpt lat="53.8318061828613" lon="13.4335031509399">
			<ele>56.0999984741211</ele>
			<time>2014-04-13T12:56:31Z</time>
		</trkpt>
		<trkpt lat="53.8317909240723" lon="13.4336080551147">
			<ele>56</ele>
			<time>2014-04-13T12:56:32Z</time>
		</trkpt>
		<trkpt lat="53.8317756652832" lon="13.4337120056152">
			<ele>56</ele>
			<time>2014-04-13T12:56:33Z</time>
		</trkpt>
		<trkpt lat="53.8317604064941" lon="13.43381690979">
			<ele>55.7999992370605</ele>
			<time>2014-04-13T12:56:34Z</time>
		</trkpt>
		<trkpt lat="53.8317451477051" lon="13.4339208602905">
			<ele>55.9000015258789</ele>
			<time>2014-04-13T12:56:35Z</time>
		</trkpt>
		<trkpt lat="53.8317260742188" lon="13.4340267181396">
			<ele>55.9000015258789</ele>
			<time>2014-04-13T12:56:36Z</time>
		</trkpt>
		<trkpt lat="53.8317108154297" lon="13.434136390686">
			<ele>55.7999992370605</ele>
			<time>2014-04-13T12:56:37Z</time>
		</trkpt>
		<trkpt lat="53.8316955566406" lon="13.4342451095581">
			<ele>55.7999992370605</ele>
			<time>2014-04-13T12:56:38Z</time>
		</trkpt>
		<trkpt lat="53.8316802978516" lon="13.4343528747559">
			<ele>55.9000015258789</ele>
			<time>2014-04-13T12:56:39Z</time>
		</trkpt>
		<trkpt lat="53.8316650390625" lon="13.4344606399536">
			<ele>55.5999984741211</ele>
			<time>2014-04-13T12:56:40Z</time>
		</trkpt>
		<trkpt lat="53.8316459655762" lon="13.4345703125">
			<ele>55.5999984741211</ele>
			<time>2014-04-13T12:56:41Z</time>
		</trkpt>
		<trkpt lat="53.8316307067871" lon="13.4346780776978">
			<ele>55.2999992370605</ele>
			<time>2014-04-13T12:56:42Z</time>
		</trkpt>
		<trkpt lat="53.831615447998" lon="13.4347887039185">
			<ele>55.0999984741211</ele>
			<time>2014-04-13T12:56:43Z</time>
		</trkpt>
		<trkpt lat="53.831600189209" lon="13.4349040985107">
			<ele>54.7999992370605</ele>
			<time>2014-04-13T12:56:44Z</time>
		</trkpt>
		<trkpt lat="53.8315811157227" lon="13.435022354126">
			<ele>54.5</ele>
			<time>2014-04-13T12:56:45Z</time>
		</trkpt>
		<trkpt lat="53.8315658569336" lon="13.4351396560669">
			<ele>54.2999992370605</ele>
			<time>2014-04-13T12:56:46Z</time>
		</trkpt>
		<trkpt lat="53.8315505981445" lon="13.4352617263794">
			<ele>54.2000007629395</ele>
			<time>2014-04-13T12:56:47Z</time>
		</trkpt>
		<trkpt lat="53.8315315246582" lon="13.4353828430176">
			<ele>54.0999984741211</ele>
			<time>2014-04-13T12:56:48Z</time>
		</trkpt>
		<trkpt lat="53.8315086364746" lon="13.4355068206787">
			<ele>53.7999992370605</ele>
			<time>2014-04-13T12:56:49Z</time>
		</trkpt>
		<trkpt lat="53.8314933776855" lon="13.4356260299683">
			<ele>53.7000007629395</ele>
			<time>2014-04-13T12:56:50Z</time>
		</trkpt>
		<trkpt lat="53.8314743041992" lon="13.4357557296753">
			<ele>53.7000007629395</ele>
			<time>2014-04-13T12:56:51Z</time>
		</trkpt>
		<trkpt lat="53.8314552307129" lon="13.4358806610107">
			<ele>53.5999984741211</ele>
			<time>2014-04-13T12:56:52Z</time>
		</trkpt>
		<trkpt lat="53.8314361572266" lon="13.4360084533691">
			<ele>53.4000015258789</ele>
			<time>2014-04-13T12:56:53Z</time>
		</trkpt>
		<trkpt lat="53.8314170837402" lon="13.4361419677734">
			<ele>53.2000007629395</ele>
			<time>2014-04-13T12:56:54Z</time>
		</trkpt>
		<trkpt lat="53.8313980102539" lon="13.4362707138062">
			<ele>53</ele>
			<time>2014-04-13T12:56:55Z</time>
		</trkpt>
		<trkpt lat="53.8313789367676" lon="13.4363975524902">
			<ele>53</ele>
			<time>2014-04-13T12:56:56Z</time>
		</trkpt>
		<trkpt lat="53.831356048584" lon="13.4365301132202">
			<ele>52.9000015258789</ele>
			<time>2014-04-13T12:56:57Z</time>
		</trkpt>
		<trkpt lat="53.8313331604004" lon="13.4366645812988">
			<ele>52.7000007629395</ele>
			<time>2014-04-13T12:56:58Z</time>
		</trkpt>
		<trkpt lat="53.8313102722168" lon="13.4367980957031">
			<ele>52.5999984741211</ele>
			<time>2014-04-13T12:56:59Z</time>
		</trkpt>
		<trkpt lat="53.8312911987305" lon="13.4369335174561">
			<ele>52.5999984741211</ele>
			<time>2014-04-13T12:57:00Z</time>
		</trkpt>
		<trkpt lat="53.8312683105469" lon="13.437068939209">
			<ele>52.5999984741211</ele>
			<time>2014-04-13T12:57:01Z</time>
		</trkpt>
		<trkpt lat="53.8312454223633" lon="13.4372062683105">
			<ele>52.5</ele>
			<time>2014-04-13T12:57:02Z</time>
		</trkpt>
		<trkpt lat="53.831226348877" lon="13.4373378753662">
			<ele>52.2999992370605</ele>
			<time>2014-04-13T12:57:03Z</time>
		</trkpt>
		<trkpt lat="53.8311958312988" lon="13.4374704360962">
			<ele>52.2000007629395</ele>
			<time>2014-04-13T12:57:04Z</time>
		</trkpt>
		<trkpt lat="53.8311729431152" lon="13.4376058578491">
			<ele>52.2000007629395</ele>
			<time>2014-04-13T12:57:05Z</time>
		</trkpt>
		<trkpt lat="53.8311462402344" lon="13.4377412796021">
			<ele>52.0999984741211</ele>
			<time>2014-04-13T12:57:06Z</time>
		</trkpt>
		<trkpt lat="53.8311233520508" lon="13.4378776550293">
			<ele>52</ele>
			<time>2014-04-13T12:57:07Z</time>
		</trkpt>
		<trkpt lat="53.8311042785645" lon="13.4380102157593">
			<ele>52.0999984741211</ele>
			<time>2014-04-13T12:57:08Z</time>
		</trkpt>
		<trkpt lat="53.8310852050781" lon="13.4381465911865">
			<ele>51.7999992370605</ele>
			<time>2014-04-13T12:57:09Z</time>
		</trkpt>
		<trkpt lat="53.8310623168945" lon="13.4382772445679">
			<ele>51.7999992370605</ele>
			<time>2014-04-13T12:57:10Z</time>
		</trkpt>
		<trkpt lat="53.8310432434082" lon="13.4384069442749">
			<ele>51.5999984741211</ele>
			<time>2014-04-13T12:57:11Z</time>
		</trkpt>
		<trkpt lat="53.8310203552246" lon="13.4385395050049">
			<ele>51.5</ele>
			<time>2014-04-13T12:57:12Z</time>
		</trkpt>
		<trkpt lat="53.830997467041" lon="13.4386730194092">
			<ele>51.5</ele>
			<time>2014-04-13T12:57:13Z</time>
		</trkpt>
		<trkpt lat="53.8309783935547" lon="13.4388065338135">
			<ele>51.9000015258789</ele>
			<time>2014-04-13T12:57:14Z</time>
		</trkpt>
		<trkpt lat="53.8309555053711" lon="13.4389333724976">
			<ele>52.5</ele>
			<time>2014-04-13T12:57:15Z</time>
		</trkpt>
		<trkpt lat="53.8309364318848" lon="13.4390649795532">
			<ele>52.4000015258789</ele>
			<time>2014-04-13T12:57:16Z</time>
		</trkpt>
		<trkpt lat="53.8309135437012" lon="13.4391937255859">
			<ele>52.5</ele>
			<time>2014-04-13T12:57:17Z</time>
		</trkpt>
		<trkpt lat="53.8308906555176" lon="13.4393301010132">
			<ele>52.5999984741211</ele>
			<time>2014-04-13T12:57:18Z</time>
		</trkpt>
		<trkpt lat="53.830867767334" lon="13.4394598007202">
			<ele>52.7000007629395</ele>
			<time>2014-04-13T12:57:19Z</time>
		</trkpt>
		<trkpt lat="53.8308525085449" lon="13.43958568573">
			<ele>52.7999992370605</ele>
			<time>2014-04-13T12:57:20Z</time>
		</trkpt>
		<trkpt lat="53.8308448791504" lon="13.4397087097168">
			<ele>52.7000007629395</ele>
			<time>2014-04-13T12:57:21Z</time>
		</trkpt>
		<trkpt lat="53.8308410644531" lon="13.4398355484009">
			<ele>52.7000007629395</ele>
			<time>2014-04-13T12:57:22Z</time>
		</trkpt>
		<trkpt lat="53.8308448791504" lon="13.4399566650391">
			<ele>52.9000015258789</ele>
			<time>2014-04-13T12:57:23Z</time>
		</trkpt>
		<trkpt lat="53.8308563232422" lon="13.4400806427002">
			<ele>52.7999992370605</ele>
			<time>2014-04-13T12:57:24Z</time>
		</trkpt>
		<trkpt lat="53.830867767334" lon="13.4402017593384">
			<ele>52.7000007629395</ele>
			<time>2014-04-13T12:57:25Z</time>
		</trkpt>
		<trkpt lat="53.8308792114258" lon="13.4403228759766">
			<ele>52.4000015258789</ele>
			<time>2014-04-13T12:57:26Z</time>
		</trkpt>
		<trkpt lat="53.8308906555176" lon="13.4404430389404">
			<ele>52.5</ele>
			<time>2014-04-13T12:57:27Z</time>
		</trkpt>
		<trkpt lat="53.8309059143066" lon="13.44056224823">
			<ele>52.2000007629395</ele>
			<time>2014-04-13T12:57:28Z</time>
		</trkpt>
		<trkpt lat="53.8309173583984" lon="13.4406805038452">
			<ele>52.0999984741211</ele>
			<time>2014-04-13T12:57:29Z</time>
		</trkpt>
		<trkpt lat="53.8309326171875" lon="13.4407997131348">
			<ele>52.2000007629395</ele>
			<time>2014-04-13T12:57:30Z</time>
		</trkpt>
		<trkpt lat="53.8309478759766" lon="13.4409170150757">
			<ele>52</ele>
			<time>2014-04-13T12:57:33Z</time>
		</trkpt>
		<trkpt lat="53.830982208252" lon="13.441258430481">
			<ele>51.4000015258789</ele>
			<time>2014-04-13T12:57:34Z</time>
		</trkpt>
		<trkpt lat="53.8309898376465" lon="13.4413681030273">
			<ele>51</ele>
			<time>2014-04-13T12:57:35Z</time>
		</trkpt>
		<trkpt lat="53.8310050964355" lon="13.4414663314819">
			<ele>51.2000007629395</ele>
			<time>2014-04-13T12:57:36Z</time>
		</trkpt>
		<trkpt lat="53.8310203552246" lon="13.4415740966797">
			<ele>51</ele>
			<time>2014-04-13T12:57:37Z</time>
		</trkpt>
		<trkpt lat="53.8310279846191" lon="13.4416818618774">
			<ele>51.2999992370605</ele>
			<time>2014-04-13T12:57:38Z</time>
		</trkpt>
		<trkpt lat="53.8310356140137" lon="13.441782951355">
			<ele>51.5</ele>
			<time>2014-04-13T12:57:39Z</time>
		</trkpt>
		<trkpt lat="53.8310432434082" lon="13.4418888092041">
			<ele>51.5999984741211</ele>
			<time>2014-04-13T12:57:40Z</time>
		</trkpt>
		<trkpt lat="53.8310470581055" lon="13.4419984817505">
			<ele>51.0999984741211</ele>
			<time>2014-04-13T12:57:41Z</time>
		</trkpt>
		<trkpt lat="53.8310508728027" lon="13.4421072006226">
			<ele>51.0999984741211</ele>
			<time>2014-04-13T12:57:42Z</time>
		</trkpt>
		<trkpt lat="53.8310585021973" lon="13.4422130584717">
			<ele>51.0999984741211</ele>
			<time>2014-04-13T12:57:43Z</time>
		</trkpt>
		<trkpt lat="53.8310661315918" lon="13.4423170089722">
			<ele>51.0999984741211</ele>
			<time>2014-04-13T12:57:44Z</time>
		</trkpt>
		<trkpt lat="53.8310737609863" lon="13.4424209594727">
			<ele>51.2999992370605</ele>
			<time>2014-04-13T12:57:45Z</time>
		</trkpt>
		<trkpt lat="53.8310813903809" lon="13.4425220489502">
			<ele>51.5</ele>
			<time>2014-04-13T12:57:46Z</time>
		</trkpt>
		<trkpt lat="53.8310852050781" lon="13.4426279067993">
			<ele>51.7000007629395</ele>
			<time>2014-04-13T12:57:47Z</time>
		</trkpt>
		<trkpt lat="53.8310928344727" lon="13.4427270889282">
			<ele>51.7000007629395</ele>
			<time>2014-04-13T12:57:48Z</time>
		</trkpt>
		<trkpt lat="53.8310966491699" lon="13.4428281784058">
			<ele>51.7999992370605</ele>
			<time>2014-04-13T12:57:49Z</time>
		</trkpt>
		<trkpt lat="53.8311080932617" lon="13.4429206848145">
			<ele>51.9000015258789</ele>
			<time>2014-04-13T12:57:50Z</time>
		</trkpt>
		<trkpt lat="53.8311157226563" lon="13.4430179595947">
			<ele>51.9000015258789</ele>
			<time>2014-04-13T12:57:51Z</time>
		</trkpt>
		<trkpt lat="53.8311233520508" lon="13.4431133270264">
			<ele>52</ele>
			<time>2014-04-13T12:57:52Z</time>
		</trkpt>
		<trkpt lat="53.831127166748" lon="13.4432048797607">
			<ele>51.7999992370605</ele>
			<time>2014-04-13T12:57:53Z</time>
		</trkpt>
		<trkpt lat="53.8311309814453" lon="13.443305015564">
			<ele>51.7000007629395</ele>
			<time>2014-04-13T12:57:54Z</time>
		</trkpt>
		<trkpt lat="53.8311386108398" lon="13.4434022903442">
			<ele>51.7000007629395</ele>
			<time>2014-04-13T12:57:55Z</time>
		</trkpt>
		<trkpt lat="53.8311462402344" lon="13.4434976577759">
			<ele>51.7000007629395</ele>
			<time>2014-04-13T12:57:56Z</time>
		</trkpt>
		<trkpt lat="53.8311538696289" lon="13.4435949325562">
			<ele>51.2999992370605</ele>
			<time>2014-04-13T12:57:57Z</time>
		</trkpt>
		<trkpt lat="53.8311653137207" lon="13.4436798095703">
			<ele>51.2000007629395</ele>
			<time>2014-04-13T12:57:58Z</time>
		</trkpt>
		<trkpt lat="53.8311576843262" lon="13.4437789916992">
			<ele>51.5</ele>
			<time>2014-04-13T12:57:59Z</time>
		</trkpt>
		<trkpt lat="53.8311462402344" lon="13.4438800811768">
			<ele>51.4000015258789</ele>
			<time>2014-04-13T12:58:00Z</time>
		</trkpt>
		<trkpt lat="53.831127166748" lon="13.4439744949341">
			<ele>51.2999992370605</ele>
			<time>2014-04-13T12:58:01Z</time>
		</trkpt>
		<trkpt lat="53.831111907959" lon="13.4440641403198">
			<ele>50.5</ele>
			<time>2014-04-13T12:58:02Z</time>
		</trkpt>
		<trkpt lat="53.8310890197754" lon="13.4441480636597">
			<ele>50.2999992370605</ele>
			<time>2014-04-13T12:58:03Z</time>
		</trkpt>
		<trkpt lat="53.8310623168945" lon="13.4442300796509">
			<ele>49.7999992370605</ele>
			<time>2014-04-13T12:58:04Z</time>
		</trkpt>
		<trkpt lat="53.8310012817383" lon="13.4443082809448">
			<ele>49.5999984741211</ele>
			<time>2014-04-13T12:58:05Z</time>
		</trkpt>
		<trkpt lat="53.8309669494629" lon="13.4443893432617">
			<ele>49.4000015258789</ele>
			<time>2014-04-13T12:58:06Z</time>
		</trkpt>
		<trkpt lat="53.8309326171875" lon="13.4444618225098">
			<ele>49.2999992370605</ele>
			<time>2014-04-13T12:58:07Z</time>
		</trkpt>
		<trkpt lat="53.8308982849121" lon="13.4445476531982">
			<ele>49.2000007629395</ele>
			<time>2014-04-13T12:58:08Z</time>
		</trkpt>
		<trkpt lat="53.8308639526367" lon="13.4446220397949">
			<ele>49.5</ele>
			<time>2014-04-13T12:58:09Z</time>
		</trkpt>
		<trkpt lat="53.8308296203613" lon="13.4446964263916">
			<ele>49.2999992370605</ele>
			<time>2014-04-13T12:58:10Z</time>
		</trkpt>
		<trkpt lat="53.8307991027832" lon="13.4447660446167">
			<ele>49.2999992370605</ele>
			<time>2014-04-13T12:58:11Z</time>
		</trkpt>
		<trkpt lat="53.8307685852051" lon="13.4448356628418">
			<ele>49.2999992370605</ele>
			<time>2014-04-13T12:58:12Z</time>
		</trkpt>
		<trkpt lat="53.8307304382324" lon="13.4449014663696">
			<ele>48.9000015258789</ele>
			<time>2014-04-13T12:58:13Z</time>
		</trkpt>
		<trkpt lat="53.8306999206543" lon="13.4449768066406">
			<ele>48.7999992370605</ele>
			<time>2014-04-13T12:58:14Z</time>
		</trkpt>
		<trkpt lat="53.8306655883789" lon="13.44504737854">
			<ele>48.7000007629395</ele>
			<time>2014-04-13T12:58:15Z</time>
		</trkpt>
		<trkpt lat="53.8306350708008" lon="13.445122718811">
			<ele>49.0999984741211</ele>
			<time>2014-04-13T12:58:16Z</time>
		</trkpt>
		<trkpt lat="53.8306045532227" lon="13.4451942443848">
			<ele>48.9000015258789</ele>
			<time>2014-04-13T12:58:17Z</time>
		</trkpt>
		<trkpt lat="53.8305740356445" lon="13.445255279541">
			<ele>49</ele>
			<time>2014-04-13T12:58:18Z</time>
		</trkpt>
		<trkpt lat="53.8305435180664" lon="13.4453144073486">
			<ele>49.0999984741211</ele>
			<time>2014-04-13T12:58:19Z</time>
		</trkpt>
		<trkpt lat="53.830509185791" lon="13.4453792572021">
			<ele>49.2999992370605</ele>
			<time>2014-04-13T12:58:20Z</time>
		</trkpt>
		<trkpt lat="53.8304786682129" lon="13.4454374313354">
			<ele>49.2999992370605</ele>
			<time>2014-04-13T12:58:21Z</time>
		</trkpt>
		<trkpt lat="53.8304443359375" lon="13.4455070495605">
			<ele>49.9000015258789</ele>
			<time>2014-04-13T12:58:22Z</time>
		</trkpt>
		<trkpt lat="53.8304176330566" lon="13.4455757141113">
			<ele>50.2000007629395</ele>
			<time>2014-04-13T12:58:23Z</time>
		</trkpt>
		<trkpt lat="53.8303909301758" lon="13.4456453323364">
			<ele>50.0999984741211</ele>
			<time>2014-04-13T12:58:24Z</time>
		</trkpt>
		<trkpt lat="53.8303604125977" lon="13.4457159042358">
			<ele>49.9000015258789</ele>
			<time>2014-04-13T12:58:25Z</time>
		</trkpt>
		<trkpt lat="53.8303337097168" lon="13.4457893371582">
			<ele>50</ele>
			<time>2014-04-13T12:58:26Z</time>
		</trkpt>
		<trkpt lat="53.8303031921387" lon="13.4458560943604">
			<ele>50.2999992370605</ele>
			<time>2014-04-13T12:58:27Z</time>
		</trkpt>
		<trkpt lat="53.8302803039551" lon="13.4459295272827">
			<ele>50.0999984741211</ele>
			<time>2014-04-13T12:58:28Z</time>
		</trkpt>
		<trkpt lat="53.8302536010742" lon="13.4460048675537">
			<ele>49.7999992370605</ele>
			<time>2014-04-13T12:58:29Z</time>
		</trkpt>
		<trkpt lat="53.8302307128906" lon="13.4460773468018">
			<ele>50</ele>
			<time>2014-04-13T12:58:30Z</time>
		</trkpt>
		<trkpt lat="53.8302040100098" lon="13.4461555480957">
			<ele>49.9000015258789</ele>
			<time>2014-04-13T12:58:31Z</time>
		</trkpt>
		<trkpt lat="53.8301773071289" lon="13.4462327957153">
			<ele>49.7999992370605</ele>
			<time>2014-04-13T12:58:32Z</time>
		</trkpt>
		<trkpt lat="53.8301467895508" lon="13.4463062286377">
			<ele>49.7999992370605</ele>
			<time>2014-04-13T12:58:33Z</time>
		</trkpt>
		<trkpt lat="53.8301200866699" lon="13.4463815689087">
			<ele>49.7999992370605</ele>
			<time>2014-04-13T12:58:34Z</time>
		</trkpt>
		<trkpt lat="53.8300933837891" lon="13.4464597702026">
			<ele>49.5</ele>
			<time>2014-04-13T12:58:35Z</time>
		</trkpt>
		<trkpt lat="53.8300666809082" lon="13.4465408325195">
			<ele>49.5999984741211</ele>
			<time>2014-04-13T12:58:36Z</time>
		</trkpt>
		<trkpt lat="53.8300399780273" lon="13.4466199874878">
			<ele>49.4000015258789</ele>
			<time>2014-04-13T12:58:37Z</time>
		</trkpt>
		<trkpt lat="53.8300132751465" lon="13.446702003479">
			<ele>49.2000007629395</ele>
			<time>2014-04-13T12:58:38Z</time>
		</trkpt>
		<trkpt lat="53.8299865722656" lon="13.4467859268188">
			<ele>49.5</ele>
			<time>2014-04-13T12:58:39Z</time>
		</trkpt>
		<trkpt lat="53.8299598693848" lon="13.4468717575073">
			<ele>49.0999984741211</ele>
			<time>2014-04-13T12:58:40Z</time>
		</trkpt>
		<trkpt lat="53.8299331665039" lon="13.4469604492188">
			<ele>48.7999992370605</ele>
			<time>2014-04-13T12:58:41Z</time>
		</trkpt>
		<trkpt lat="53.8299026489258" lon="13.4470500946045">
			<ele>48.5999984741211</ele>
			<time>2014-04-13T12:58:42Z</time>
		</trkpt>
		<trkpt lat="53.8298759460449" lon="13.4471368789673">
			<ele>48.7999992370605</ele>
			<time>2014-04-13T12:58:43Z</time>
		</trkpt>
		<trkpt lat="53.8298568725586" lon="13.4472360610962">
			<ele>49.0999984741211</ele>
			<time>2014-04-13T12:58:44Z</time>
		</trkpt>
		<trkpt lat="53.829833984375" lon="13.4473257064819">
			<ele>49.0999984741211</ele>
			<time>2014-04-13T12:58:45Z</time>
		</trkpt>
		<trkpt lat="53.8298110961914" lon="13.4474153518677">
			<ele>48.9000015258789</ele>
			<time>2014-04-13T12:58:46Z</time>
		</trkpt>
		<trkpt lat="53.8297920227051" lon="13.4475002288818">
			<ele>48.7999992370605</ele>
			<time>2014-04-13T12:58:47Z</time>
		</trkpt>
		<trkpt lat="53.829776763916" lon="13.4475898742676">
			<ele>48.5999984741211</ele>
			<time>2014-04-13T12:58:48Z</time>
		</trkpt>
		<trkpt lat="53.8297538757324" lon="13.4476852416992">
			<ele>48.7999992370605</ele>
			<time>2014-04-13T12:58:49Z</time>
		</trkpt>
		<trkpt lat="53.8297348022461" lon="13.4477844238281">
			<ele>49.0999984741211</ele>
			<time>2014-04-13T12:58:50Z</time>
		</trkpt>
		<trkpt lat="53.8297233581543" lon="13.4478769302368">
			<ele>48.5999984741211</ele>
			<time>2014-04-13T12:58:51Z</time>
		</trkpt>
		<trkpt lat="53.8297080993652" lon="13.4479732513428">
			<ele>48.4000015258789</ele>
			<time>2014-04-13T12:58:52Z</time>
		</trkpt>
		<trkpt lat="53.8296966552734" lon="13.4480714797974">
			<ele>48.2999992370605</ele>
			<time>2014-04-13T12:58:53Z</time>
		</trkpt>
		<trkpt lat="53.8296813964844" lon="13.4481782913208">
			<ele>48.2999992370605</ele>
			<time>2014-04-13T12:58:54Z</time>
		</trkpt>
		<trkpt lat="53.829662322998" lon="13.4482831954956">
			<ele>48.2000007629395</ele>
			<time>2014-04-13T12:58:55Z</time>
		</trkpt>
		<trkpt lat="53.8296508789063" lon="13.4483871459961">
			<ele>48.2999992370605</ele>
			<time>2014-04-13T12:58:56Z</time>
		</trkpt>
		<trkpt lat="53.8296318054199" lon="13.4484910964966">
			<ele>48.4000015258789</ele>
			<time>2014-04-13T12:58:57Z</time>
		</trkpt>
		<trkpt lat="53.8296165466309" lon="13.4485902786255">
			<ele>48.2999992370605</ele>
			<time>2014-04-13T12:58:58Z</time>
		</trkpt>
		<trkpt lat="53.8296051025391" lon="13.4486932754517">
			<ele>48.4000015258789</ele>
			<time>2014-04-13T12:58:59Z</time>
		</trkpt>
		<trkpt lat="53.82958984375" lon="13.4487934112549">
			<ele>48.7000007629395</ele>
			<time>2014-04-13T12:59:00Z</time>
		</trkpt>
		<trkpt lat="53.8295707702637" lon="13.4488897323608">
			<ele>48.5999984741211</ele>
			<time>2014-04-13T12:59:01Z</time>
		</trkpt>
		<trkpt lat="53.8295478820801" lon="13.4489793777466">
			<ele>48.2999992370605</ele>
			<time>2014-04-13T12:59:02Z</time>
		</trkpt>
		<trkpt lat="53.8295135498047" lon="13.4490594863892">
			<ele>48.2000007629395</ele>
			<time>2014-04-13T12:59:03Z</time>
		</trkpt>
		<trkpt lat="53.829475402832" lon="13.4491310119629">
			<ele>48.2999992370605</ele>
			<time>2014-04-13T12:59:04Z</time>
		</trkpt>
		<trkpt lat="53.8294296264648" lon="13.4491958618164">
			<ele>48.2999992370605</ele>
			<time>2014-04-13T12:59:05Z</time>
		</trkpt>
		<trkpt lat="53.8293838500977" lon="13.449257850647">
			<ele>48.4000015258789</ele>
			<time>2014-04-13T12:59:06Z</time>
		</trkpt>
		<trkpt lat="53.8293380737305" lon="13.4493207931519">
			<ele>48.5</ele>
			<time>2014-04-13T12:59:07Z</time>
		</trkpt>
		<trkpt lat="53.8292961120605" lon="13.4493827819824">
			<ele>48.4000015258789</ele>
			<time>2014-04-13T12:59:08Z</time>
		</trkpt>
		<trkpt lat="53.8292541503906" lon="13.4494400024414">
			<ele>48.2000007629395</ele>
			<time>2014-04-13T12:59:09Z</time>
		</trkpt>
		<trkpt lat="53.8292274475098" lon="13.4495048522949">
			<ele>48.2999992370605</ele>
			<time>2014-04-13T12:59:10Z</time>
		</trkpt>
		<trkpt lat="53.8291664123535" lon="13.4495620727539">
			<ele>49.0999984741211</ele>
			<time>2014-04-13T12:59:11Z</time>
		</trkpt>
		<trkpt lat="53.8291168212891" lon="13.4496059417725">
			<ele>48.7000007629395</ele>
			<time>2014-04-13T12:59:12Z</time>
		</trkpt>
		<trkpt lat="53.8290672302246" lon="13.4496669769287">
			<ele>48.2000007629395</ele>
			<time>2014-04-13T12:59:13Z</time>
		</trkpt>
		<trkpt lat="53.8290214538574" lon="13.4497156143188">
			<ele>48.0999984741211</ele>
			<time>2014-04-13T12:59:14Z</time>
		</trkpt>
		<trkpt lat="53.8289680480957" lon="13.4497814178467">
			<ele>48.5</ele>
			<time>2014-04-13T12:59:15Z</time>
		</trkpt>
		<trkpt lat="53.828914642334" lon="13.4498434066772">
			<ele>48.5999984741211</ele>
			<time>2014-04-13T12:59:16Z</time>
		</trkpt>
		<trkpt lat="53.8288650512695" lon="13.4499206542969">
			<ele>48.7000007629395</ele>
			<time>2014-04-13T12:59:17Z</time>
		</trkpt>
		<trkpt lat="53.8288612365723" lon="13.4499988555908">
			<ele>47.7000007629395</ele>
			<time>2014-04-13T12:59:18Z</time>
		</trkpt>
		<trkpt lat="53.8288536071777" lon="13.4500827789307">
			<ele>47.5</ele>
			<time>2014-04-13T12:59:19Z</time>
		</trkpt>
		<trkpt lat="53.828857421875" lon="13.4501619338989">
			<ele>47.2000007629395</ele>
			<time>2014-04-13T12:59:20Z</time>
		</trkpt>
		<trkpt lat="53.8289031982422" lon="13.450288772583">
			<ele>46.7000007629395</ele>
			<time>2014-04-13T12:59:22Z</time>
		</trkpt>
		<trkpt lat="53.8289566040039" lon="13.4503421783447">
			<ele>46.9000015258789</ele>
			<time>2014-04-13T12:59:23Z</time>
		</trkpt>
		<trkpt lat="53.828987121582" lon="13.4504051208496">
			<ele>47</ele>
			<time>2014-04-13T12:59:24Z</time>
		</trkpt>
		<trkpt lat="53.8290176391602" lon="13.4504728317261">
			<ele>46.9000015258789</ele>
			<time>2014-04-13T12:59:25Z</time>
		</trkpt>
		<trkpt lat="53.8290519714355" lon="13.4505434036255">
			<ele>46.5999984741211</ele>
			<time>2014-04-13T12:59:26Z</time>
		</trkpt>
		<trkpt lat="53.8290863037109" lon="13.4506092071533">
			<ele>46.4000015258789</ele>
			<time>2014-04-13T12:59:27Z</time>
		</trkpt>
		<trkpt lat="53.8291206359863" lon="13.4506816864014">
			<ele>46.4000015258789</ele>
			<time>2014-04-13T12:59:28Z</time>
		</trkpt>
		<trkpt lat="53.8291511535645" lon="13.4507579803467">
			<ele>46.2000007629395</ele>
			<time>2014-04-13T12:59:29Z</time>
		</trkpt>
		<trkpt lat="53.8291816711426" lon="13.4508333206177">
			<ele>46.2999992370605</ele>
			<time>2014-04-13T12:59:30Z</time>
		</trkpt>
		<trkpt lat="53.8292198181152" lon="13.4509115219116">
			<ele>46.0999984741211</ele>
			<time>2014-04-13T12:59:31Z</time>
		</trkpt>
		<trkpt lat="53.8292503356934" lon="13.4509859085083">
			<ele>46.5999984741211</ele>
			<time>2014-04-13T12:59:32Z</time>
		</trkpt>
		<trkpt lat="53.8292846679688" lon="13.4510612487793">
			<ele>46.5999984741211</ele>
			<time>2014-04-13T12:59:33Z</time>
		</trkpt>
		<trkpt lat="53.8293266296387" lon="13.4511346817017">
			<ele>46.5999984741211</ele>
			<time>2014-04-13T12:59:34Z</time>
		</trkpt>
		<trkpt lat="53.8293685913086" lon="13.4512014389038">
			<ele>46.9000015258789</ele>
			<time>2014-04-13T12:59:35Z</time>
		</trkpt>
		<trkpt lat="53.8294105529785" lon="13.4512662887573">
			<ele>47.2999992370605</ele>
			<time>2014-04-13T12:59:36Z</time>
		</trkpt>
		<trkpt lat="53.8294486999512" lon="13.4513301849365">
			<ele>47.2999992370605</ele>
			<time>2014-04-13T12:59:37Z</time>
		</trkpt>
		<trkpt lat="53.8294944763184" lon="13.4513940811157">
			<ele>47.2000007629395</ele>
			<time>2014-04-13T12:59:38Z</time>
		</trkpt>
		<trkpt lat="53.8295402526855" lon="13.4514541625977">
			<ele>47.2000007629395</ele>
			<time>2014-04-13T12:59:39Z</time>
		</trkpt>
		<trkpt lat="53.82958984375" lon="13.4515142440796">
			<ele>47.2999992370605</ele>
			<time>2014-04-13T12:59:40Z</time>
		</trkpt>
		<trkpt lat="53.8296394348145" lon="13.4515800476074">
			<ele>47.4000015258789</ele>
			<time>2014-04-13T12:59:41Z</time>
		</trkpt>
		<trkpt lat="53.8296890258789" lon="13.4516429901123">
			<ele>47.5</ele>
			<time>2014-04-13T12:59:42Z</time>
		</trkpt>
		<trkpt lat="53.8297424316406" lon="13.4517040252686">
			<ele>47.5</ele>
			<time>2014-04-13T12:59:43Z</time>
		</trkpt>
		<trkpt lat="53.8297920227051" lon="13.4517679214478">
			<ele>47.4000015258789</ele>
			<time>2014-04-13T12:59:44Z</time>
		</trkpt>
		<trkpt lat="53.8298416137695" lon="13.4518394470215">
			<ele>47.5999984741211</ele>
			<time>2014-04-13T12:59:45Z</time>
		</trkpt>
		<trkpt lat="53.829891204834" lon="13.4519128799438">
			<ele>47.5</ele>
			<time>2014-04-13T12:59:46Z</time>
		</trkpt>
		<trkpt lat="53.8299407958984" lon="13.4519786834717">
			<ele>47.2999992370605</ele>
			<time>2014-04-13T12:59:47Z</time>
		</trkpt>
		<trkpt lat="53.8299865722656" lon="13.4520454406738">
			<ele>47.4000015258789</ele>
			<time>2014-04-13T12:59:48Z</time>
		</trkpt>
		<trkpt lat="53.8300361633301" lon="13.4521131515503">
			<ele>47.4000015258789</ele>
			<time>2014-04-13T12:59:49Z</time>
		</trkpt>
		<trkpt lat="53.8300819396973" lon="13.4521780014038">
			<ele>47.4000015258789</ele>
			<time>2014-04-13T12:59:50Z</time>
		</trkpt>
		<trkpt lat="53.8301277160645" lon="13.4522438049316">
			<ele>47.2999992370605</ele>
			<time>2014-04-13T12:59:51Z</time>
		</trkpt>
		<trkpt lat="53.8301734924316" lon="13.4523105621338">
			<ele>47.4000015258789</ele>
			<time>2014-04-13T12:59:52Z</time>
		</trkpt>
		<trkpt lat="53.8302154541016" lon="13.4523792266846">
			<ele>47</ele>
			<time>2014-04-13T12:59:53Z</time>
		</trkpt>
		<trkpt lat="53.8302574157715" lon="13.4524507522583">
			<ele>47</ele>
			<time>2014-04-13T12:59:54Z</time>
		</trkpt>
		<trkpt lat="53.8302993774414" lon="13.4525213241577">
			<ele>47.0999984741211</ele>
			<time>2014-04-13T12:59:55Z</time>
		</trkpt>
		<trkpt lat="53.8303489685059" lon="13.4525899887085">
			<ele>47.0999984741211</ele>
			<time>2014-04-13T12:59:56Z</time>
		</trkpt>
		<trkpt lat="53.830394744873" lon="13.4526634216309">
			<ele>46.9000015258789</ele>
			<time>2014-04-13T12:59:57Z</time>
		</trkpt>
		<trkpt lat="53.8304443359375" lon="13.4527339935303">
			<ele>46.7999992370605</ele>
			<time>2014-04-13T12:59:58Z</time>
		</trkpt>
		<trkpt lat="53.8304862976074" lon="13.452805519104">
			<ele>47</ele>
			<time>2014-04-13T12:59:59Z</time>
		</trkpt>
		<trkpt lat="53.8305320739746" lon="13.4528741836548">
			<ele>47.0999984741211</ele>
			<time>2014-04-13T13:00:00Z</time>
		</trkpt>
		<trkpt lat="53.8305816650391" lon="13.4529504776001">
			<ele>47.0999984741211</ele>
			<time>2014-04-13T13:00:01Z</time>
		</trkpt>
		<trkpt lat="53.830623626709" lon="13.4530200958252">
			<ele>47</ele>
			<time>2014-04-13T13:00:02Z</time>
		</trkpt>
		<trkpt lat="53.8306770324707" lon="13.4530916213989">
			<ele>46.4000015258789</ele>
			<time>2014-04-13T13:00:03Z</time>
		</trkpt>
		<trkpt lat="53.8307266235352" lon="13.4531621932983">
			<ele>46.0999984741211</ele>
			<time>2014-04-13T13:00:04Z</time>
		</trkpt>
		<trkpt lat="53.8307762145996" lon="13.4532356262207">
			<ele>45.7000007629395</ele>
			<time>2014-04-13T13:00:05Z</time>
		</trkpt>
		<trkpt lat="53.8308258056641" lon="13.4533157348633">
			<ele>45.5</ele>
			<time>2014-04-13T13:00:06Z</time>
		</trkpt>
		<trkpt lat="53.8308792114258" lon="13.45339012146">
			<ele>45.2000007629395</ele>
			<time>2014-04-13T13:00:07Z</time>
		</trkpt>
		<trkpt lat="53.830940246582" lon="13.4534645080566">
			<ele>45.0999984741211</ele>
			<time>2014-04-13T13:00:08Z</time>
		</trkpt>
		<trkpt lat="53.8309936523438" lon="13.4535398483276">
			<ele>44.9000015258789</ele>
			<time>2014-04-13T13:00:09Z</time>
		</trkpt>
		<trkpt lat="53.8310508728027" lon="13.4536142349243">
			<ele>44.7000007629395</ele>
			<time>2014-04-13T13:00:10Z</time>
		</trkpt>
		<trkpt lat="53.831111907959" lon="13.4536876678467">
			<ele>44.2999992370605</ele>
			<time>2014-04-13T13:00:11Z</time>
		</trkpt>
		<trkpt lat="53.831169128418" lon="13.4537668228149">
			<ele>43.7999992370605</ele>
			<time>2014-04-13T13:00:12Z</time>
		</trkpt>
		<trkpt lat="53.8312301635742" lon="13.4538516998291">
			<ele>43.7000007629395</ele>
			<time>2014-04-13T13:00:13Z</time>
		</trkpt>
		<trkpt lat="53.8312873840332" lon="13.4539384841919">
			<ele>43.2999992370605</ele>
			<time>2014-04-13T13:00:14Z</time>
		</trkpt>
		<trkpt lat="53.8313407897949" lon="13.4540233612061">
			<ele>42.9000015258789</ele>
			<time>2014-04-13T13:00:15Z</time>
		</trkpt>
		<trkpt lat="53.8313980102539" lon="13.4541082382202">
			<ele>42.4000015258789</ele>
			<time>2014-04-13T13:00:16Z</time>
		</trkpt>
		<trkpt lat="53.8314590454102" lon="13.4541883468628">
			<ele>42.7000007629395</ele>
			<time>2014-04-13T13:00:17Z</time>
		</trkpt>
		<trkpt lat="53.8315200805664" lon="13.4542579650879">
			<ele>42.2999992370605</ele>
			<time>2014-04-13T13:00:18Z</time>
		</trkpt>
		<trkpt lat="53.8315773010254" lon="13.4543294906616">
			<ele>42.2000007629395</ele>
			<time>2014-04-13T13:00:19Z</time>
		</trkpt>
		<trkpt lat="53.8316345214844" lon="13.4544067382813">
			<ele>42.0999984741211</ele>
			<time>2014-04-13T13:00:20Z</time>
		</trkpt>
		<trkpt lat="53.8316879272461" lon="13.4544811248779">
			<ele>42.2000007629395</ele>
			<time>2014-04-13T13:00:21Z</time>
		</trkpt>
		<trkpt lat="53.8317451477051" lon="13.4545602798462">
			<ele>42.4000015258789</ele>
			<time>2014-04-13T13:00:22Z</time>
		</trkpt>
		<trkpt lat="53.8318023681641" lon="13.4546318054199">
			<ele>41.7000007629395</ele>
			<time>2014-04-13T13:00:23Z</time>
		</trkpt>
		<trkpt lat="53.8318634033203" lon="13.4547071456909">
			<ele>41.4000015258789</ele>
			<time>2014-04-13T13:00:24Z</time>
		</trkpt>
		<trkpt lat="53.8319206237793" lon="13.4547834396362">
			<ele>41.2999992370605</ele>
			<time>2014-04-13T13:00:25Z</time>
		</trkpt>
		<trkpt lat="53.8319816589355" lon="13.4548597335815">
			<ele>41.0999984741211</ele>
			<time>2014-04-13T13:00:26Z</time>
		</trkpt>
		<trkpt lat="53.8320350646973" lon="13.4549293518066">
			<ele>40.9000015258789</ele>
			<time>2014-04-13T13:00:27Z</time>
		</trkpt>
		<trkpt lat="53.832088470459" lon="13.4550008773804">
			<ele>40.5</ele>
			<time>2014-04-13T13:00:28Z</time>
		</trkpt>
		<trkpt lat="53.8321418762207" lon="13.4550676345825">
			<ele>40.9000015258789</ele>
			<time>2014-04-13T13:00:29Z</time>
		</trkpt>
		<trkpt lat="53.8321952819824" lon="13.4551372528076">
			<ele>40.5</ele>
			<time>2014-04-13T13:00:30Z</time>
		</trkpt>
		<trkpt lat="53.8322525024414" lon="13.4552087783813">
			<ele>40.5</ele>
			<time>2014-04-13T13:00:31Z</time>
		</trkpt>
		<trkpt lat="53.8323059082031" lon="13.4552717208862">
			<ele>40.5</ele>
			<time>2014-04-13T13:00:32Z</time>
		</trkpt>
		<trkpt lat="53.8323554992676" lon="13.4553365707397">
			<ele>40.2000007629395</ele>
			<time>2014-04-13T13:00:33Z</time>
		</trkpt>
		<trkpt lat="53.832405090332" lon="13.455394744873">
			<ele>40.2000007629395</ele>
			<time>2014-04-13T13:00:34Z</time>
		</trkpt>
		<trkpt lat="53.8324584960938" lon="13.4554605484009">
			<ele>40.2000007629395</ele>
			<time>2014-04-13T13:00:35Z</time>
		</trkpt>
		<trkpt lat="53.8325080871582" lon="13.4555225372314">
			<ele>40</ele>
			<time>2014-04-13T13:00:36Z</time>
		</trkpt>
		<trkpt lat="53.8325653076172" lon="13.455587387085">
			<ele>39.9000015258789</ele>
			<time>2014-04-13T13:00:37Z</time>
		</trkpt>
		<trkpt lat="53.8326187133789" lon="13.4556407928467">
			<ele>39.5999984741211</ele>
			<time>2014-04-13T13:00:38Z</time>
		</trkpt>
		<trkpt lat="53.8326644897461" lon="13.4556951522827">
			<ele>39.5999984741211</ele>
			<time>2014-04-13T13:00:39Z</time>
		</trkpt>
		<trkpt lat="53.832706451416" lon="13.4557609558105">
			<ele>39.7000007629395</ele>
			<time>2014-04-13T13:00:40Z</time>
		</trkpt>
		<trkpt lat="53.8327445983887" lon="13.4558124542236">
			<ele>39.5</ele>
			<time>2014-04-13T13:00:41Z</time>
		</trkpt>
		<trkpt lat="53.8327827453613" lon="13.4558773040771">
			<ele>39.4000015258789</ele>
			<time>2014-04-13T13:00:42Z</time>
		</trkpt>
		<trkpt lat="53.8328285217285" lon="13.4559459686279">
			<ele>39.5</ele>
			<time>2014-04-13T13:00:43Z</time>
		</trkpt>
		<trkpt lat="53.8328666687012" lon="13.4560060501099">
			<ele>39.7000007629395</ele>
			<time>2014-04-13T13:00:44Z</time>
		</trkpt>
		<trkpt lat="53.8329010009766" lon="13.4560642242432">
			<ele>39.7999992370605</ele>
			<time>2014-04-13T13:00:45Z</time>
		</trkpt>
		<trkpt lat="53.8329315185547" lon="13.4561252593994">
			<ele>39.7999992370605</ele>
			<time>2014-04-13T13:00:46Z</time>
		</trkpt>
		<trkpt lat="53.8329658508301" lon="13.45618724823">
			<ele>39.7999992370605</ele>
			<time>2014-04-13T13:00:47Z</time>
		</trkpt>
		<trkpt lat="53.8330001831055" lon="13.4562435150146">
			<ele>40.2000007629395</ele>
			<time>2014-04-13T13:00:48Z</time>
		</trkpt>
		<trkpt lat="53.8330345153809" lon="13.4562978744507">
			<ele>40</ele>
			<time>2014-04-13T13:00:49Z</time>
		</trkpt>
		<trkpt lat="53.8330764770508" lon="13.4564208984375">
			<ele>39.9000015258789</ele>
			<time>2014-04-13T13:00:51Z</time>
		</trkpt>
		<trkpt lat="53.8331260681152" lon="13.4565420150757">
			<ele>40</ele>
			<time>2014-04-13T13:00:53Z</time>
		</trkpt>
		<trkpt lat="53.8331756591797" lon="13.456657409668">
			<ele>39</ele>
			<time>2014-04-13T13:00:55Z</time>
		</trkpt>
		<trkpt lat="53.8332328796387" lon="13.4567699432373">
			<ele>39.5</ele>
			<time>2014-04-13T13:00:57Z</time>
		</trkpt>
		<trkpt lat="53.8332824707031" lon="13.4568920135498">
			<ele>39.7000007629395</ele>
			<time>2014-04-13T13:00:59Z</time>
		</trkpt>
		<trkpt lat="53.8333053588867" lon="13.4569549560547">
			<ele>39.0999984741211</ele>
			<time>2014-04-13T13:01:00Z</time>
		</trkpt>
		<trkpt lat="53.8333435058594" lon="13.4570732116699">
			<ele>39.2999992370605</ele>
			<time>2014-04-13T13:01:02Z</time>
		</trkpt>
		<trkpt lat="53.8333892822266" lon="13.4571809768677">
			<ele>39.5999984741211</ele>
			<time>2014-04-13T13:01:04Z</time>
		</trkpt>
		<trkpt lat="53.833438873291" lon="13.45729637146">
			<ele>39.2999992370605</ele>
			<time>2014-04-13T13:01:06Z</time>
		</trkpt>
		<trkpt lat="53.8334922790527" lon="13.4574089050293">
			<ele>39.5</ele>
			<time>2014-04-13T13:01:08Z</time>
		</trkpt>
		<trkpt lat="53.8335494995117" lon="13.4575300216675">
			<ele>39.2999992370605</ele>
			<time>2014-04-13T13:01:10Z</time>
		</trkpt>
		<trkpt lat="53.8335723876953" lon="13.4575939178467">
			<ele>39.4000015258789</ele>
			<time>2014-04-13T13:01:11Z</time>
		</trkpt>
		<trkpt lat="53.8335990905762" lon="13.4576597213745">
			<ele>39.2000007629395</ele>
			<time>2014-04-13T13:01:12Z</time>
		</trkpt>
		<trkpt lat="53.8336219787598" lon="13.4577322006226">
			<ele>39.2000007629395</ele>
			<time>2014-04-13T13:01:13Z</time>
		</trkpt>
		<trkpt lat="53.8336486816406" lon="13.457799911499">
			<ele>39.4000015258789</ele>
			<time>2014-04-13T13:01:14Z</time>
		</trkpt>
		<trkpt lat="53.8336791992188" lon="13.4578695297241">
			<ele>39.2999992370605</ele>
			<time>2014-04-13T13:01:15Z</time>
		</trkpt>
		<trkpt lat="53.8337135314941" lon="13.4579410552979">
			<ele>39.2999992370605</ele>
			<time>2014-04-13T13:01:16Z</time>
		</trkpt>
		<trkpt lat="53.833740234375" lon="13.4580049514771">
			<ele>39.2999992370605</ele>
			<time>2014-04-13T13:01:17Z</time>
		</trkpt>
		<trkpt lat="53.8337669372559" lon="13.4580755233765">
			<ele>39.2000007629395</ele>
			<time>2014-04-13T13:01:18Z</time>
		</trkpt>
		<trkpt lat="53.8338012695313" lon="13.4581356048584">
			<ele>39.5</ele>
			<time>2014-04-13T13:01:19Z</time>
		</trkpt>
		<trkpt lat="53.8338279724121" lon="13.458197593689">
			<ele>39.4000015258789</ele>
			<time>2014-04-13T13:01:20Z</time>
		</trkpt>
		<trkpt lat="53.8338470458984" lon="13.4582757949829">
			<ele>39.0999984741211</ele>
			<time>2014-04-13T13:01:21Z</time>
		</trkpt>
		<trkpt lat="53.8338661193848" lon="13.458348274231">
			<ele>38.7000007629395</ele>
			<time>2014-04-13T13:01:22Z</time>
		</trkpt>
		<trkpt lat="53.8339233398438" lon="13.4584789276123">
			<ele>38.2999992370605</ele>
			<time>2014-04-13T13:01:24Z</time>
		</trkpt>
		<trkpt lat="53.8339538574219" lon="13.4585485458374">
			<ele>38.4000015258789</ele>
			<time>2014-04-13T13:01:25Z</time>
		</trkpt>
		<trkpt lat="53.833984375" lon="13.4586191177368">
			<ele>38.2999992370605</ele>
			<time>2014-04-13T13:01:26Z</time>
		</trkpt>
		<trkpt lat="53.8340072631836" lon="13.4586896896362">
			<ele>38.0999984741211</ele>
			<time>2014-04-13T13:01:27Z</time>
		</trkpt>
		<trkpt lat="53.8340377807617" lon="13.4587659835815">
			<ele>38.4000015258789</ele>
			<time>2014-04-13T13:01:28Z</time>
		</trkpt>
		<trkpt lat="53.8340682983398" lon="13.4588460922241">
			<ele>38.4000015258789</ele>
			<time>2014-04-13T13:01:29Z</time>
		</trkpt>
		<trkpt lat="53.8341026306152" lon="13.4589061737061">
			<ele>38.5999984741211</ele>
			<time>2014-04-13T13:01:30Z</time>
		</trkpt>
		<trkpt lat="53.8341331481934" lon="13.4589643478394">
			<ele>38.7000007629395</ele>
			<time>2014-04-13T13:01:31Z</time>
		</trkpt>
		<trkpt lat="53.8341941833496" lon="13.4591035842896">
			<ele>39.0999984741211</ele>
			<time>2014-04-13T13:01:33Z</time>
		</trkpt>
		<trkpt lat="53.8342170715332" lon="13.4591827392578">
			<ele>38.5999984741211</ele>
			<time>2014-04-13T13:01:34Z</time>
		</trkpt>
		<trkpt lat="53.8342361450195" lon="13.4592628479004">
			<ele>38.7000007629395</ele>
			<time>2014-04-13T13:01:35Z</time>
		</trkpt>
		<trkpt lat="53.8342666625977" lon="13.4593296051025">
			<ele>38.5999984741211</ele>
			<time>2014-04-13T13:01:36Z</time>
		</trkpt>
		<trkpt lat="53.8342933654785" lon="13.4594020843506">
			<ele>38.9000015258789</ele>
			<time>2014-04-13T13:01:37Z</time>
		</trkpt>
		<trkpt lat="53.8343238830566" lon="13.4594697952271">
			<ele>39</ele>
			<time>2014-04-13T13:01:38Z</time>
		</trkpt>
		<trkpt lat="53.8343467712402" lon="13.4595384597778">
			<ele>38.9000015258789</ele>
			<time>2014-04-13T13:01:39Z</time>
		</trkpt>
		<trkpt lat="53.8343658447266" lon="13.4596090316772">
			<ele>38.9000015258789</ele>
			<time>2014-04-13T13:01:40Z</time>
		</trkpt>
		<trkpt lat="53.8343887329102" lon="13.459680557251">
			<ele>38.9000015258789</ele>
			<time>2014-04-13T13:01:41Z</time>
		</trkpt>
		<trkpt lat="53.8344306945801" lon="13.4598197937012">
			<ele>38.5</ele>
			<time>2014-04-13T13:01:43Z</time>
		</trkpt>
		<trkpt lat="53.8344802856445" lon="13.4599475860596">
			<ele>38.5999984741211</ele>
			<time>2014-04-13T13:01:45Z</time>
		</trkpt>
		<trkpt lat="53.8345031738281" lon="13.4600248336792">
			<ele>38.2999992370605</ele>
			<time>2014-04-13T13:01:46Z</time>
		</trkpt>
		<trkpt lat="53.8345413208008" lon="13.4601697921753">
			<ele>38.5</ele>
			<time>2014-04-13T13:01:48Z</time>
		</trkpt>
		<trkpt lat="53.8345642089844" lon="13.4602422714233">
			<ele>38.5</ele>
			<time>2014-04-13T13:01:49Z</time>
		</trkpt>
		<trkpt lat="53.834587097168" lon="13.4603118896484">
			<ele>38.2000007629395</ele>
			<time>2014-04-13T13:01:50Z</time>
		</trkpt>
		<trkpt lat="53.8346061706543" lon="13.4603862762451">
			<ele>37.9000015258789</ele>
			<time>2014-04-13T13:01:51Z</time>
		</trkpt>
		<trkpt lat="53.8346328735352" lon="13.4604635238647">
			<ele>37.9000015258789</ele>
			<time>2014-04-13T13:01:52Z</time>
		</trkpt>
		<trkpt lat="53.8346557617188" lon="13.4605369567871">
			<ele>37.9000015258789</ele>
			<time>2014-04-13T13:01:53Z</time>
		</trkpt>
		<trkpt lat="53.8346786499023" lon="13.4606142044067">
			<ele>38.0999984741211</ele>
			<time>2014-04-13T13:01:54Z</time>
		</trkpt>
		<trkpt lat="53.8347015380859" lon="13.4606895446777">
			<ele>38.4000015258789</ele>
			<time>2014-04-13T13:01:55Z</time>
		</trkpt>
		<trkpt lat="53.8347206115723" lon="13.4607706069946">
			<ele>38.4000015258789</ele>
			<time>2014-04-13T13:01:56Z</time>
		</trkpt>
		<trkpt lat="53.8347434997559" lon="13.4608459472656">
			<ele>38.4000015258789</ele>
			<time>2014-04-13T13:01:57Z</time>
		</trkpt>
		<trkpt lat="53.8347663879395" lon="13.4609174728394">
			<ele>38.4000015258789</ele>
			<time>2014-04-13T13:01:58Z</time>
		</trkpt>
		<trkpt lat="53.834789276123" lon="13.4609966278076">
			<ele>38.2000007629395</ele>
			<time>2014-04-13T13:01:59Z</time>
		</trkpt>
		<trkpt lat="53.8348083496094" lon="13.4610757827759">
			<ele>38.2999992370605</ele>
			<time>2014-04-13T13:02:00Z</time>
		</trkpt>
		<trkpt lat="53.834831237793" lon="13.4611577987671">
			<ele>38.2999992370605</ele>
			<time>2014-04-13T13:02:01Z</time>
		</trkpt>
		<trkpt lat="53.8348541259766" lon="13.4612350463867">
			<ele>38.4000015258789</ele>
			<time>2014-04-13T13:02:02Z</time>
		</trkpt>
		<trkpt lat="53.8348808288574" lon="13.4613180160522">
			<ele>38.4000015258789</ele>
			<time>2014-04-13T13:02:03Z</time>
		</trkpt>
		<trkpt lat="53.8348999023438" lon="13.4614057540894">
			<ele>38.5</ele>
			<time>2014-04-13T13:02:04Z</time>
		</trkpt>
		<trkpt lat="53.8349227905273" lon="13.4614934921265">
			<ele>38.7000007629395</ele>
			<time>2014-04-13T13:02:05Z</time>
		</trkpt>
		<trkpt lat="53.8349494934082" lon="13.4615831375122">
			<ele>39.2000007629395</ele>
			<time>2014-04-13T13:02:06Z</time>
		</trkpt>
		<trkpt lat="53.8349723815918" lon="13.4616689682007">
			<ele>39.4000015258789</ele>
			<time>2014-04-13T13:02:07Z</time>
		</trkpt>
		<trkpt lat="53.8349990844727" lon="13.4617576599121">
			<ele>39</ele>
			<time>2014-04-13T13:02:08Z</time>
		</trkpt>
		<trkpt lat="53.8350219726563" lon="13.4618453979492">
			<ele>39.0999984741211</ele>
			<time>2014-04-13T13:02:11Z</time>
		</trkpt>
		<trkpt lat="53.835090637207" lon="13.4620809555054">
			<ele>39.5</ele>
			<time>2014-04-13T13:02:12Z</time>
		</trkpt>
		<trkpt lat="53.8351097106934" lon="13.4621629714966">
			<ele>39.5</ele>
			<time>2014-04-13T13:02:13Z</time>
		</trkpt>
		<trkpt lat="53.835132598877" lon="13.4622373580933">
			<ele>39.7000007629395</ele>
			<time>2014-04-13T13:02:14Z</time>
		</trkpt>
		<trkpt lat="53.8351554870605" lon="13.4623050689697">
			<ele>39.5999984741211</ele>
			<time>2014-04-13T13:02:15Z</time>
		</trkpt>
		<trkpt lat="53.8351745605469" lon="13.4623756408691">
			<ele>39.4000015258789</ele>
			<time>2014-04-13T13:02:16Z</time>
		</trkpt>
		<trkpt lat="53.8351936340332" lon="13.4624452590942">
			<ele>39.7000007629395</ele>
			<time>2014-04-13T13:02:17Z</time>
		</trkpt>
		<trkpt lat="53.8352355957031" lon="13.4625806808472">
			<ele>39.7000007629395</ele>
			<time>2014-04-13T13:02:19Z</time>
		</trkpt>
		<trkpt lat="53.8352584838867" lon="13.4626474380493">
			<ele>39.7000007629395</ele>
			<time>2014-04-13T13:02:20Z</time>
		</trkpt>
		<trkpt lat="53.8352813720703" lon="13.4627265930176">
			<ele>39.4000015258789</ele>
			<time>2014-04-13T13:02:21Z</time>
		</trkpt>
		<trkpt lat="53.8353042602539" lon="13.4628009796143">
			<ele>39.5</ele>
			<time>2014-04-13T13:02:22Z</time>
		</trkpt>
		<trkpt lat="53.8353309631348" lon="13.4628715515137">
			<ele>39.2999992370605</ele>
			<time>2014-04-13T13:02:23Z</time>
		</trkpt>
		<trkpt lat="53.8353500366211" lon="13.4629516601563">
			<ele>39.4000015258789</ele>
			<time>2014-04-13T13:02:24Z</time>
		</trkpt>
		<trkpt lat="53.835376739502" lon="13.4630298614502">
			<ele>39.4000015258789</ele>
			<time>2014-04-13T13:02:25Z</time>
		</trkpt>
		<trkpt lat="53.8353996276855" lon="13.4631147384644">
			<ele>39.5</ele>
			<time>2014-04-13T13:02:26Z</time>
		</trkpt>
		<trkpt lat="53.8354263305664" lon="13.4631948471069">
			<ele>39.4000015258789</ele>
			<time>2014-04-13T13:02:27Z</time>
		</trkpt>
		<trkpt lat="53.83544921875" lon="13.4632768630981">
			<ele>39.5</ele>
			<time>2014-04-13T13:02:28Z</time>
		</trkpt>
		<trkpt lat="53.8354759216309" lon="13.4633617401123">
			<ele>39.4000015258789</ele>
			<time>2014-04-13T13:02:29Z</time>
		</trkpt>
		<trkpt lat="53.835506439209" lon="13.4634428024292">
			<ele>39.2999992370605</ele>
			<time>2014-04-13T13:02:30Z</time>
		</trkpt>
		<trkpt lat="53.8355331420898" lon="13.463526725769">
			<ele>39.2999992370605</ele>
			<time>2014-04-13T13:02:31Z</time>
		</trkpt>
		<trkpt lat="53.835563659668" lon="13.4636058807373">
			<ele>39.5</ele>
			<time>2014-04-13T13:02:32Z</time>
		</trkpt>
		<trkpt lat="53.8355941772461" lon="13.4636850357056">
			<ele>39.2999992370605</ele>
			<time>2014-04-13T13:02:33Z</time>
		</trkpt>
		<trkpt lat="53.835620880127" lon="13.4637622833252">
			<ele>39.4000015258789</ele>
			<time>2014-04-13T13:02:34Z</time>
		</trkpt>
		<trkpt lat="53.8356475830078" lon="13.4638404846191">
			<ele>39.2999992370605</ele>
			<time>2014-04-13T13:02:35Z</time>
		</trkpt>
		<trkpt lat="53.8356742858887" lon="13.4639167785645">
			<ele>39.4000015258789</ele>
			<time>2014-04-13T13:02:36Z</time>
		</trkpt>
		<trkpt lat="53.8357009887695" lon="13.46399974823">
			<ele>39.2999992370605</ele>
			<time>2014-04-13T13:02:37Z</time>
		</trkpt>
		<trkpt lat="53.8357238769531" lon="13.4640779495239">
			<ele>39.4000015258789</ele>
			<time>2014-04-13T13:02:38Z</time>
		</trkpt>
		<trkpt lat="53.8357467651367" lon="13.4641542434692">
			<ele>39.4000015258789</ele>
			<time>2014-04-13T13:02:39Z</time>
		</trkpt>
		<trkpt lat="53.8357696533203" lon="13.4642314910889">
			<ele>39.4000015258789</ele>
			<time>2014-04-13T13:02:40Z</time>
		</trkpt>
		<trkpt lat="53.8357963562012" lon="13.4643115997314">
			<ele>39.4000015258789</ele>
			<time>2014-04-13T13:02:41Z</time>
		</trkpt>
		<trkpt lat="53.835823059082" lon="13.4643821716309">
			<ele>39.2999992370605</ele>
			<time>2014-04-13T13:02:42Z</time>
		</trkpt>
		<trkpt lat="53.8358459472656" lon="13.4644508361816">
			<ele>39.4000015258789</ele>
			<time>2014-04-13T13:02:43Z</time>
		</trkpt>
		<trkpt lat="53.835865020752" lon="13.4645233154297">
			<ele>39.5</ele>
			<time>2014-04-13T13:02:44Z</time>
		</trkpt>
		<trkpt lat="53.8358917236328" lon="13.4645891189575">
			<ele>39.7000007629395</ele>
			<time>2014-04-13T13:02:45Z</time>
		</trkpt>
		<trkpt lat="53.8359184265137" lon="13.4646615982056">
			<ele>39.4000015258789</ele>
			<time>2014-04-13T13:02:46Z</time>
		</trkpt>
		<trkpt lat="53.8359375" lon="13.4647331237793">
			<ele>39.4000015258789</ele>
			<time>2014-04-13T13:02:47Z</time>
		</trkpt>
		<trkpt lat="53.8359565734863" lon="13.464804649353">
			<ele>39</ele>
			<time>2014-04-13T13:02:48Z</time>
		</trkpt>
		<trkpt lat="53.8359794616699" lon="13.4648742675781">
			<ele>39.0999984741211</ele>
			<time>2014-04-13T13:02:49Z</time>
		</trkpt>
		<trkpt lat="53.8360214233398" lon="13.4650020599365">
			<ele>39</ele>
			<time>2014-04-13T13:02:51Z</time>
		</trkpt>
		<trkpt lat="53.8360443115234" lon="13.46506690979">
			<ele>38.7999992370605</ele>
			<time>2014-04-13T13:02:52Z</time>
		</trkpt>
		<trkpt lat="53.8360824584961" lon="13.4651803970337">
			<ele>39.2000007629395</ele>
			<time>2014-04-13T13:02:54Z</time>
		</trkpt>
		<trkpt lat="53.8361206054688" lon="13.4652976989746">
			<ele>39.4000015258789</ele>
			<time>2014-04-13T13:02:56Z</time>
		</trkpt>
		<trkpt lat="53.8361587524414" lon="13.4654178619385">
			<ele>39.0999984741211</ele>
			<time>2014-04-13T13:02:58Z</time>
		</trkpt>
		<trkpt lat="53.8361892700195" lon="13.4655256271362">
			<ele>38.7999992370605</ele>
			<time>2014-04-13T13:03:00Z</time>
		</trkpt>
		<trkpt lat="53.8362159729004" lon="13.4656314849854">
			<ele>38.4000015258789</ele>
			<time>2014-04-13T13:03:02Z</time>
		</trkpt>
		<trkpt lat="53.8362617492676" lon="13.4657430648804">
			<ele>37.9000015258789</ele>
			<time>2014-04-13T13:03:04Z</time>
		</trkpt>
		<trkpt lat="53.836296081543" lon="13.4658622741699">
			<ele>38.0999984741211</ele>
			<time>2014-04-13T13:03:06Z</time>
		</trkpt>
		<trkpt lat="53.8363227844238" lon="13.4659862518311">
			<ele>38.7000007629395</ele>
			<time>2014-04-13T13:03:08Z</time>
		</trkpt>
		<trkpt lat="53.8363647460938" lon="13.4660930633545">
			<ele>38.9000015258789</ele>
			<time>2014-04-13T13:03:10Z</time>
		</trkpt>
		<trkpt lat="53.8363990783691" lon="13.4662046432495">
			<ele>39.2999992370605</ele>
			<time>2014-04-13T13:03:12Z</time>
		</trkpt>
		<trkpt lat="53.8364295959473" lon="13.4663190841675">
			<ele>40</ele>
			<time>2014-04-13T13:03:14Z</time>
		</trkpt>
		<trkpt lat="53.8364715576172" lon="13.4664449691772">
			<ele>40.5</ele>
			<time>2014-04-13T13:03:16Z</time>
		</trkpt>
		<trkpt lat="53.8365135192871" lon="13.4665670394897">
			<ele>40.2999992370605</ele>
			<time>2014-04-13T13:03:18Z</time>
		</trkpt>
		<trkpt lat="53.8365364074707" lon="13.4666347503662">
			<ele>40.5</ele>
			<time>2014-04-13T13:03:19Z</time>
		</trkpt>
		<trkpt lat="53.8365745544434" lon="13.4667596817017">
			<ele>40.7999992370605</ele>
			<time>2014-04-13T13:03:21Z</time>
		</trkpt>
		<trkpt lat="53.8366050720215" lon="13.4668893814087">
			<ele>40.9000015258789</ele>
			<time>2014-04-13T13:03:23Z</time>
		</trkpt>
		<trkpt lat="53.8366394042969" lon="13.4670257568359">
			<ele>40.4000015258789</ele>
			<time>2014-04-13T13:03:25Z</time>
		</trkpt>
		<trkpt lat="53.8366775512695" lon="13.4671583175659">
			<ele>40.0999984741211</ele>
			<time>2014-04-13T13:03:27Z</time>
		</trkpt>
		<trkpt lat="53.8367233276367" lon="13.46728515625">
			<ele>40</ele>
			<time>2014-04-13T13:03:29Z</time>
		</trkpt>
		<trkpt lat="53.8367691040039" lon="13.4674091339111">
			<ele>40.0999984741211</ele>
			<time>2014-04-13T13:03:31Z</time>
		</trkpt>
		<trkpt lat="53.8368110656738" lon="13.4675273895264">
			<ele>40</ele>
			<time>2014-04-13T13:03:33Z</time>
		</trkpt>
		<trkpt lat="53.836856842041" lon="13.46764087677">
			<ele>40.2000007629395</ele>
			<time>2014-04-13T13:03:35Z</time>
		</trkpt>
		<trkpt lat="53.8369064331055" lon="13.4677629470825">
			<ele>40.2999992370605</ele>
			<time>2014-04-13T13:03:37Z</time>
		</trkpt>
		<trkpt lat="53.8369522094727" lon="13.4678773880005">
			<ele>40.2000007629395</ele>
			<time>2014-04-13T13:03:39Z</time>
		</trkpt>
		<trkpt lat="53.8370056152344" lon="13.4679889678955">
			<ele>40.7000007629395</ele>
			<time>2014-04-13T13:03:41Z</time>
		</trkpt>
		<trkpt lat="53.8370552062988" lon="13.4680938720703">
			<ele>41</ele>
			<time>2014-04-13T13:03:43Z</time>
		</trkpt>
		<trkpt lat="53.837100982666" lon="13.4681987762451">
			<ele>41.0999984741211</ele>
			<time>2014-04-13T13:03:45Z</time>
		</trkpt>
		<trkpt lat="53.8371467590332" lon="13.4683036804199">
			<ele>41.4000015258789</ele>
			<time>2014-04-13T13:03:47Z</time>
		</trkpt>
		<trkpt lat="53.8371963500977" lon="13.468409538269">
			<ele>41.5</ele>
			<time>2014-04-13T13:03:49Z</time>
		</trkpt>
		<trkpt lat="53.8372459411621" lon="13.4685192108154">
			<ele>41.5</ele>
			<time>2014-04-13T13:03:51Z</time>
		</trkpt>
		<trkpt lat="53.8372955322266" lon="13.4686288833618">
			<ele>41.2000007629395</ele>
			<time>2014-04-13T13:03:53Z</time>
		</trkpt>
		<trkpt lat="53.8373527526855" lon="13.4687328338623">
			<ele>41.4000015258789</ele>
			<time>2014-04-13T13:03:55Z</time>
		</trkpt>
		<trkpt lat="53.83740234375" lon="13.4688396453857">
			<ele>41.2999992370605</ele>
			<time>2014-04-13T13:03:57Z</time>
		</trkpt>
		<trkpt lat="53.8374519348145" lon="13.4689474105835">
			<ele>41.4000015258789</ele>
			<time>2014-04-13T13:03:59Z</time>
		</trkpt>
		<trkpt lat="53.8375091552734" lon="13.4690599441528">
			<ele>41.2000007629395</ele>
			<time>2014-04-13T13:04:01Z</time>
		</trkpt>
		<trkpt lat="53.8375701904297" lon="13.4691734313965">
			<ele>41</ele>
			<time>2014-04-13T13:04:03Z</time>
		</trkpt>
		<trkpt lat="53.8376007080078" lon="13.4692316055298">
			<ele>41</ele>
			<time>2014-04-13T13:04:04Z</time>
		</trkpt>
		<trkpt lat="53.8376312255859" lon="13.4692935943604">
			<ele>40.7000007629395</ele>
			<time>2014-04-13T13:04:05Z</time>
		</trkpt>
		<trkpt lat="53.8376617431641" lon="13.4693574905396">
			<ele>40.5999984741211</ele>
			<time>2014-04-13T13:04:06Z</time>
		</trkpt>
		<trkpt lat="53.8376960754395" lon="13.4694185256958">
			<ele>40.4000015258789</ele>
			<time>2014-04-13T13:04:07Z</time>
		</trkpt>
		<trkpt lat="53.8377304077148" lon="13.4694833755493">
			<ele>40.5999984741211</ele>
			<time>2014-04-13T13:04:08Z</time>
		</trkpt>
		<trkpt lat="53.8377647399902" lon="13.4695405960083">
			<ele>40.5999984741211</ele>
			<time>2014-04-13T13:04:09Z</time>
		</trkpt>
		<trkpt lat="53.8378257751465" lon="13.4696474075317">
			<ele>41</ele>
			<time>2014-04-13T13:04:11Z</time>
		</trkpt>
		<trkpt lat="53.8378944396973" lon="13.4697532653809">
			<ele>41</ele>
			<time>2014-04-13T13:04:13Z</time>
		</trkpt>
		<trkpt lat="53.8379249572754" lon="13.4698104858398">
			<ele>40.9000015258789</ele>
			<time>2014-04-13T13:04:14Z</time>
		</trkpt>
		<trkpt lat="53.8379592895508" lon="13.4698724746704">
			<ele>40.9000015258789</ele>
			<time>2014-04-13T13:04:15Z</time>
		</trkpt>
		<trkpt lat="53.8379898071289" lon="13.4699354171753">
			<ele>41.0999984741211</ele>
			<time>2014-04-13T13:04:16Z</time>
		</trkpt>
		<trkpt lat="53.8380241394043" lon="13.4700021743774">
			<ele>41.0999984741211</ele>
			<time>2014-04-13T13:04:17Z</time>
		</trkpt>
		<trkpt lat="53.8380661010742" lon="13.470067024231">
			<ele>41.2000007629395</ele>
			<time>2014-04-13T13:04:18Z</time>
		</trkpt>
		<trkpt lat="53.8381080627441" lon="13.4701299667358">
			<ele>41.2000007629395</ele>
			<time>2014-04-13T13:04:19Z</time>
		</trkpt>
		<trkpt lat="53.8381462097168" lon="13.4701957702637">
			<ele>41.2000007629395</ele>
			<time>2014-04-13T13:04:20Z</time>
		</trkpt>
		<trkpt lat="53.8381767272949" lon="13.4702682495117">
			<ele>41.0999984741211</ele>
			<time>2014-04-13T13:04:21Z</time>
		</trkpt>
		<trkpt lat="53.8382110595703" lon="13.4703388214111">
			<ele>41.2000007629395</ele>
			<time>2014-04-13T13:04:22Z</time>
		</trkpt>
		<trkpt lat="53.838249206543" lon="13.4704027175903">
			<ele>41.4000015258789</ele>
			<time>2014-04-13T13:04:23Z</time>
		</trkpt>
		<trkpt lat="53.8382873535156" lon="13.4704742431641">
			<ele>41.4000015258789</ele>
			<time>2014-04-13T13:04:24Z</time>
		</trkpt>
		<trkpt lat="53.838321685791" lon="13.4705419540405">
			<ele>41.2999992370605</ele>
			<time>2014-04-13T13:04:25Z</time>
		</trkpt>
		<trkpt lat="53.8383560180664" lon="13.4706087112427">
			<ele>41.2999992370605</ele>
			<time>2014-04-13T13:04:26Z</time>
		</trkpt>
		<trkpt lat="53.8383941650391" lon="13.4706735610962">
			<ele>41.2999992370605</ele>
			<time>2014-04-13T13:04:27Z</time>
		</trkpt>
		<trkpt lat="53.8384284973145" lon="13.470742225647">
			<ele>41.2999992370605</ele>
			<time>2014-04-13T13:04:28Z</time>
		</trkpt>
		<trkpt lat="53.8384628295898" lon="13.4708156585693">
			<ele>41.4000015258789</ele>
			<time>2014-04-13T13:04:29Z</time>
		</trkpt>
		<trkpt lat="53.8384971618652" lon="13.4708852767944">
			<ele>41.2999992370605</ele>
			<time>2014-04-13T13:04:30Z</time>
		</trkpt>
		<trkpt lat="53.8385353088379" lon="13.4709501266479">
			<ele>41.5</ele>
			<time>2014-04-13T13:04:31Z</time>
		</trkpt>
		<trkpt lat="53.8385734558105" lon="13.4710187911987">
			<ele>41.9000015258789</ele>
			<time>2014-04-13T13:04:32Z</time>
		</trkpt>
		<trkpt lat="53.8386154174805" lon="13.4710884094238">
			<ele>42</ele>
			<time>2014-04-13T13:04:33Z</time>
		</trkpt>
		<trkpt lat="53.8386497497559" lon="13.471155166626">
			<ele>42.0999984741211</ele>
			<time>2014-04-13T13:04:34Z</time>
		</trkpt>
		<trkpt lat="53.8386764526367" lon="13.4712228775024">
			<ele>42.0999984741211</ele>
			<time>2014-04-13T13:04:35Z</time>
		</trkpt>
		<trkpt lat="53.8387069702148" lon="13.4712934494019">
			<ele>42.2999992370605</ele>
			<time>2014-04-13T13:04:36Z</time>
		</trkpt>
		<trkpt lat="53.8387336730957" lon="13.4713649749756">
			<ele>42.4000015258789</ele>
			<time>2014-04-13T13:04:37Z</time>
		</trkpt>
		<trkpt lat="53.8387641906738" lon="13.4714422225952">
			<ele>42.4000015258789</ele>
			<time>2014-04-13T13:04:38Z</time>
		</trkpt>
		<trkpt lat="53.8387870788574" lon="13.4715175628662">
			<ele>42.2999992370605</ele>
			<time>2014-04-13T13:04:39Z</time>
		</trkpt>
		<trkpt lat="53.838809967041" lon="13.4715967178345">
			<ele>42.0999984741211</ele>
			<time>2014-04-13T13:04:40Z</time>
		</trkpt>
		<trkpt lat="53.8388290405273" lon="13.4716806411743">
			<ele>42.2999992370605</ele>
			<time>2014-04-13T13:04:41Z</time>
		</trkpt>
		<trkpt lat="53.8388519287109" lon="13.4717607498169">
			<ele>42.2000007629395</ele>
			<time>2014-04-13T13:04:42Z</time>
		</trkpt>
		<trkpt lat="53.8388710021973" lon="13.4718437194824">
			<ele>42.2999992370605</ele>
			<time>2014-04-13T13:04:43Z</time>
		</trkpt>
		<trkpt lat="53.8388900756836" lon="13.4719266891479">
			<ele>42.5</ele>
			<time>2014-04-13T13:04:44Z</time>
		</trkpt>
		<trkpt lat="53.8389091491699" lon="13.4720134735107">
			<ele>42.4000015258789</ele>
			<time>2014-04-13T13:04:45Z</time>
		</trkpt>
		<trkpt lat="53.838924407959" lon="13.4721031188965">
			<ele>42.5</ele>
			<time>2014-04-13T13:04:46Z</time>
		</trkpt>
		<trkpt lat="53.838939666748" lon="13.472188949585">
			<ele>42.7000007629395</ele>
			<time>2014-04-13T13:04:47Z</time>
		</trkpt>
		<trkpt lat="53.8389511108398" lon="13.4722785949707">
			<ele>42.7000007629395</ele>
			<time>2014-04-13T13:04:48Z</time>
		</trkpt>
		<trkpt lat="53.8389625549316" lon="13.4723691940308">
			<ele>42.5999984741211</ele>
			<time>2014-04-13T13:04:49Z</time>
		</trkpt>
		<trkpt lat="53.8389739990234" lon="13.4724645614624">
			<ele>42.5999984741211</ele>
			<time>2014-04-13T13:04:50Z</time>
		</trkpt>
		<trkpt lat="53.8389892578125" lon="13.4725532531738">
			<ele>42.5999984741211</ele>
			<time>2014-04-13T13:04:51Z</time>
		</trkpt>
		<trkpt lat="53.8390007019043" lon="13.4726476669312">
			<ele>42.5999984741211</ele>
			<time>2014-04-13T13:04:52Z</time>
		</trkpt>
		<trkpt lat="53.8390121459961" lon="13.4727382659912">
			<ele>42.7000007629395</ele>
			<time>2014-04-13T13:04:53Z</time>
		</trkpt>
		<trkpt lat="53.8390274047852" lon="13.4728326797485">
			<ele>42.7999992370605</ele>
			<time>2014-04-13T13:04:54Z</time>
		</trkpt>
		<trkpt lat="53.839038848877" lon="13.4729242324829">
			<ele>42.9000015258789</ele>
			<time>2014-04-13T13:04:55Z</time>
		</trkpt>
		<trkpt lat="53.8390502929688" lon="13.4730138778687">
			<ele>43</ele>
			<time>2014-04-13T13:04:56Z</time>
		</trkpt>
		<trkpt lat="53.8390655517578" lon="13.4731016159058">
			<ele>43</ele>
			<time>2014-04-13T13:04:57Z</time>
		</trkpt>
		<trkpt lat="53.8390769958496" lon="13.4731903076172">
			<ele>43.4000015258789</ele>
			<time>2014-04-13T13:04:58Z</time>
		</trkpt>
		<trkpt lat="53.8390922546387" lon="13.4732789993286">
			<ele>43.5</ele>
			<time>2014-04-13T13:04:59Z</time>
		</trkpt>
		<trkpt lat="53.839111328125" lon="13.473370552063">
			<ele>43.7999992370605</ele>
			<time>2014-04-13T13:05:00Z</time>
		</trkpt>
		<trkpt lat="53.8391265869141" lon="13.4734668731689">
			<ele>43.7000007629395</ele>
			<time>2014-04-13T13:05:01Z</time>
		</trkpt>
		<trkpt lat="53.8391418457031" lon="13.473560333252">
			<ele>43.7999992370605</ele>
			<time>2014-04-13T13:05:02Z</time>
		</trkpt>
		<trkpt lat="53.8391532897949" lon="13.4736547470093">
			<ele>44.0999984741211</ele>
			<time>2014-04-13T13:05:03Z</time>
		</trkpt>
		<trkpt lat="53.839168548584" lon="13.4737434387207">
			<ele>44.2000007629395</ele>
			<time>2014-04-13T13:05:04Z</time>
		</trkpt>
		<trkpt lat="53.8391876220703" lon="13.4738349914551">
			<ele>44.2999992370605</ele>
			<time>2014-04-13T13:05:05Z</time>
		</trkpt>
		<trkpt lat="53.8392066955566" lon="13.4739274978638">
			<ele>44.2999992370605</ele>
			<time>2014-04-13T13:05:06Z</time>
		</trkpt>
		<trkpt lat="53.839225769043" lon="13.4740142822266">
			<ele>44.4000015258789</ele>
			<time>2014-04-13T13:05:07Z</time>
		</trkpt>
		<trkpt lat="53.8392448425293" lon="13.4741048812866">
			<ele>44.5</ele>
			<time>2014-04-13T13:05:08Z</time>
		</trkpt>
		<trkpt lat="53.8392639160156" lon="13.474193572998">
			<ele>44.5</ele>
			<time>2014-04-13T13:05:09Z</time>
		</trkpt>
		<trkpt lat="53.839282989502" lon="13.4742841720581">
			<ele>44.5</ele>
			<time>2014-04-13T13:05:10Z</time>
		</trkpt>
		<trkpt lat="53.8393020629883" lon="13.4743738174438">
			<ele>44.5</ele>
			<time>2014-04-13T13:05:11Z</time>
		</trkpt>
		<trkpt lat="53.8393249511719" lon="13.4744596481323">
			<ele>44.7000007629395</ele>
			<time>2014-04-13T13:05:12Z</time>
		</trkpt>
		<trkpt lat="53.8393478393555" lon="13.4745445251465">
			<ele>44.5999984741211</ele>
			<time>2014-04-13T13:05:13Z</time>
		</trkpt>
		<trkpt lat="53.8393745422363" lon="13.4746360778809">
			<ele>44.5</ele>
			<time>2014-04-13T13:05:14Z</time>
		</trkpt>
		<trkpt lat="53.8393936157227" lon="13.4747219085693">
			<ele>44.5999984741211</ele>
			<time>2014-04-13T13:05:15Z</time>
		</trkpt>
		<trkpt lat="53.8394203186035" lon="13.4748058319092">
			<ele>44.2999992370605</ele>
			<time>2014-04-13T13:05:16Z</time>
		</trkpt>
		<trkpt lat="53.8394432067871" lon="13.4748945236206">
			<ele>44.2999992370605</ele>
			<time>2014-04-13T13:05:17Z</time>
		</trkpt>
		<trkpt lat="53.839469909668" lon="13.4749813079834">
			<ele>44.2999992370605</ele>
			<time>2014-04-13T13:05:18Z</time>
		</trkpt>
		<trkpt lat="53.8394889831543" lon="13.4750719070435">
			<ele>44.2000007629395</ele>
			<time>2014-04-13T13:05:19Z</time>
		</trkpt>
		<trkpt lat="53.8395156860352" lon="13.4751615524292">
			<ele>44.2999992370605</ele>
			<time>2014-04-13T13:05:20Z</time>
		</trkpt>
		<trkpt lat="53.839542388916" lon="13.4752473831177">
			<ele>44.5</ele>
			<time>2014-04-13T13:05:21Z</time>
		</trkpt>
		<trkpt lat="53.8395652770996" lon="13.4753351211548">
			<ele>44.5999984741211</ele>
			<time>2014-04-13T13:05:22Z</time>
		</trkpt>
		<trkpt lat="53.8395881652832" lon="13.4754266738892">
			<ele>44.5</ele>
			<time>2014-04-13T13:05:23Z</time>
		</trkpt>
		<trkpt lat="53.8396072387695" lon="13.4755125045776">
			<ele>44.2000007629395</ele>
			<time>2014-04-13T13:05:24Z</time>
		</trkpt>
		<trkpt lat="53.8396263122559" lon="13.4756031036377">
			<ele>44.2000007629395</ele>
			<time>2014-04-13T13:05:25Z</time>
		</trkpt>
		<trkpt lat="53.8396453857422" lon="13.4756965637207">
			<ele>44.0999984741211</ele>
			<time>2014-04-13T13:05:26Z</time>
		</trkpt>
		<trkpt lat="53.8396606445313" lon="13.4757881164551">
			<ele>44.4000015258789</ele>
			<time>2014-04-13T13:05:27Z</time>
		</trkpt>
		<trkpt lat="53.8396759033203" lon="13.4758787155151">
			<ele>44.4000015258789</ele>
			<time>2014-04-13T13:05:28Z</time>
		</trkpt>
		<trkpt lat="53.8396911621094" lon="13.4759702682495">
			<ele>44.4000015258789</ele>
			<time>2014-04-13T13:05:29Z</time>
		</trkpt>
		<trkpt lat="53.8397064208984" lon="13.4760665893555">
			<ele>44.7000007629395</ele>
			<time>2014-04-13T13:05:30Z</time>
		</trkpt>
		<trkpt lat="53.8397178649902" lon="13.4761610031128">
			<ele>44.7000007629395</ele>
			<time>2014-04-13T13:05:31Z</time>
		</trkpt>
		<trkpt lat="53.839729309082" lon="13.4762496948242">
			<ele>44.7999992370605</ele>
			<time>2014-04-13T13:05:32Z</time>
		</trkpt>
		<trkpt lat="53.8397445678711" lon="13.4763383865356">
			<ele>44.5</ele>
			<time>2014-04-13T13:05:33Z</time>
		</trkpt>
		<trkpt lat="53.8397521972656" lon="13.4764347076416">
			<ele>44.5999984741211</ele>
			<time>2014-04-13T13:05:34Z</time>
		</trkpt>
		<trkpt lat="53.8397636413574" lon="13.4765272140503">
			<ele>44.7999992370605</ele>
			<time>2014-04-13T13:05:35Z</time>
		</trkpt>
		<trkpt lat="53.839771270752" lon="13.4766149520874">
			<ele>44.9000015258789</ele>
			<time>2014-04-13T13:05:36Z</time>
		</trkpt>
		<trkpt lat="53.8397789001465" lon="13.4767055511475">
			<ele>45</ele>
			<time>2014-04-13T13:05:37Z</time>
		</trkpt>
		<trkpt lat="53.8397789001465" lon="13.4768018722534">
			<ele>45</ele>
			<time>2014-04-13T13:05:38Z</time>
		</trkpt>
		<trkpt lat="53.8397827148438" lon="13.4768962860107">
			<ele>44.7000007629395</ele>
			<time>2014-04-13T13:05:39Z</time>
		</trkpt>
		<trkpt lat="53.8397979736328" lon="13.4769973754883">
			<ele>44.9000015258789</ele>
			<time>2014-04-13T13:05:40Z</time>
		</trkpt>
		<trkpt lat="53.8398056030273" lon="13.4770908355713">
			<ele>44.7999992370605</ele>
			<time>2014-04-13T13:05:41Z</time>
		</trkpt>
		<trkpt lat="53.8398170471191" lon="13.4771890640259">
			<ele>44.9000015258789</ele>
			<time>2014-04-13T13:05:42Z</time>
		</trkpt>
		<trkpt lat="53.8398208618164" lon="13.4772815704346">
			<ele>44.5</ele>
			<time>2014-04-13T13:05:43Z</time>
		</trkpt>
		<trkpt lat="53.8398284912109" lon="13.4773750305176">
			<ele>44.2000007629395</ele>
			<time>2014-04-13T13:05:44Z</time>
		</trkpt>
		<trkpt lat="53.8398399353027" lon="13.4774580001831">
			<ele>44.4000015258789</ele>
			<time>2014-04-13T13:05:45Z</time>
		</trkpt>
		<trkpt lat="53.8398513793945" lon="13.4775505065918">
			<ele>44</ele>
			<time>2014-04-13T13:05:46Z</time>
		</trkpt>
		<trkpt lat="53.8398628234863" lon="13.4776401519775">
			<ele>44</ele>
			<time>2014-04-13T13:05:47Z</time>
		</trkpt>
		<trkpt lat="53.8398742675781" lon="13.4777421951294">
			<ele>44.5</ele>
			<time>2014-04-13T13:05:48Z</time>
		</trkpt>
		<trkpt lat="53.8398742675781" lon="13.477837562561">
			<ele>45</ele>
			<time>2014-04-13T13:05:49Z</time>
		</trkpt>
		<trkpt lat="53.8398818969727" lon="13.4779281616211">
			<ele>45.0999984741211</ele>
			<time>2014-04-13T13:05:50Z</time>
		</trkpt>
		<trkpt lat="53.8398933410645" lon="13.4780178070068">
			<ele>45.2000007629395</ele>
			<time>2014-04-13T13:05:51Z</time>
		</trkpt>
		<trkpt lat="53.839900970459" lon="13.4781122207642">
			<ele>45</ele>
			<time>2014-04-13T13:05:52Z</time>
		</trkpt>
		<trkpt lat="53.8399124145508" lon="13.4781932830811">
			<ele>44.9000015258789</ele>
			<time>2014-04-13T13:05:53Z</time>
		</trkpt>
		<trkpt lat="53.839916229248" lon="13.4782867431641">
			<ele>44.7000007629395</ele>
			<time>2014-04-13T13:05:54Z</time>
		</trkpt>
		<trkpt lat="53.8399314880371" lon="13.4783840179443">
			<ele>44.7000007629395</ele>
			<time>2014-04-13T13:05:55Z</time>
		</trkpt>
		<trkpt lat="53.8399391174316" lon="13.4784870147705">
			<ele>44.7999992370605</ele>
			<time>2014-04-13T13:05:56Z</time>
		</trkpt>
		<trkpt lat="53.8399467468262" lon="13.4785842895508">
			<ele>44.9000015258789</ele>
			<time>2014-04-13T13:05:57Z</time>
		</trkpt>
		<trkpt lat="53.8399543762207" lon="13.478684425354">
			<ele>45.0999984741211</ele>
			<time>2014-04-13T13:05:58Z</time>
		</trkpt>
		<trkpt lat="53.8399620056152" lon="13.4787836074829">
			<ele>45.2000007629395</ele>
			<time>2014-04-13T13:05:59Z</time>
		</trkpt>
		<trkpt lat="53.839973449707" lon="13.4788808822632">
			<ele>45</ele>
			<time>2014-04-13T13:06:00Z</time>
		</trkpt>
		<trkpt lat="53.8399810791016" lon="13.4789800643921">
			<ele>45.2000007629395</ele>
			<time>2014-04-13T13:06:01Z</time>
		</trkpt>
		<trkpt lat="53.8399887084961" lon="13.4790802001953">
			<ele>45.4000015258789</ele>
			<time>2014-04-13T13:06:02Z</time>
		</trkpt>
		<trkpt lat="53.8399963378906" lon="13.4791793823242">
			<ele>45.2999992370605</ele>
			<time>2014-04-13T13:06:03Z</time>
		</trkpt>
		<trkpt lat="53.8400077819824" lon="13.4792785644531">
			<ele>45.2000007629395</ele>
			<time>2014-04-13T13:06:04Z</time>
		</trkpt>
		<trkpt lat="53.840015411377" lon="13.4793815612793">
			<ele>45.5</ele>
			<time>2014-04-13T13:06:05Z</time>
		</trkpt>
		<trkpt lat="53.8400230407715" lon="13.4794836044312">
			<ele>45.7999992370605</ele>
			<time>2014-04-13T13:06:06Z</time>
		</trkpt>
		<trkpt lat="53.840030670166" lon="13.479585647583">
			<ele>45.7999992370605</ele>
			<time>2014-04-13T13:06:07Z</time>
		</trkpt>
		<trkpt lat="53.8400382995605" lon="13.4796886444092">
			<ele>45.9000015258789</ele>
			<time>2014-04-13T13:06:08Z</time>
		</trkpt>
		<trkpt lat="53.8400497436523" lon="13.4797897338867">
			<ele>46.2000007629395</ele>
			<time>2014-04-13T13:06:09Z</time>
		</trkpt>
		<trkpt lat="53.8400611877441" lon="13.4798908233643">
			<ele>46.4000015258789</ele>
			<time>2014-04-13T13:06:10Z</time>
		</trkpt>
		<trkpt lat="53.8400726318359" lon="13.4799919128418">
			<ele>46.5</ele>
			<time>2014-04-13T13:06:11Z</time>
		</trkpt>
		<trkpt lat="53.8400840759277" lon="13.4800930023193">
			<ele>46.4000015258789</ele>
			<time>2014-04-13T13:06:12Z</time>
		</trkpt>
		<trkpt lat="53.8400917053223" lon="13.4801940917969">
			<ele>46.2999992370605</ele>
			<time>2014-04-13T13:06:13Z</time>
		</trkpt>
		<trkpt lat="53.8401069641113" lon="13.4802913665771">
			<ele>46.2999992370605</ele>
			<time>2014-04-13T13:06:14Z</time>
		</trkpt>
		<trkpt lat="53.8401184082031" lon="13.4803895950317">
			<ele>46.2999992370605</ele>
			<time>2014-04-13T13:06:15Z</time>
		</trkpt>
		<trkpt lat="53.8401298522949" lon="13.4804878234863">
			<ele>46.4000015258789</ele>
			<time>2014-04-13T13:06:16Z</time>
		</trkpt>
		<trkpt lat="53.8401374816895" lon="13.4805860519409">
			<ele>46.4000015258789</ele>
			<time>2014-04-13T13:06:17Z</time>
		</trkpt>
		<trkpt lat="53.840145111084" lon="13.4806842803955">
			<ele>46.5999984741211</ele>
			<time>2014-04-13T13:06:18Z</time>
		</trkpt>
		<trkpt lat="53.8401527404785" lon="13.4807806015015">
			<ele>46.7999992370605</ele>
			<time>2014-04-13T13:06:19Z</time>
		</trkpt>
		<trkpt lat="53.8401641845703" lon="13.4808769226074">
			<ele>47</ele>
			<time>2014-04-13T13:06:20Z</time>
		</trkpt>
		<trkpt lat="53.8401718139648" lon="13.480975151062">
			<ele>47</ele>
			<time>2014-04-13T13:06:21Z</time>
		</trkpt>
		<trkpt lat="53.8401794433594" lon="13.4810705184937">
			<ele>47</ele>
			<time>2014-04-13T13:06:22Z</time>
		</trkpt>
		<trkpt lat="53.8401908874512" lon="13.4811658859253">
			<ele>47.0999984741211</ele>
			<time>2014-04-13T13:06:23Z</time>
		</trkpt>
		<trkpt lat="53.8401985168457" lon="13.4812641143799">
			<ele>47.2000007629395</ele>
			<time>2014-04-13T13:06:24Z</time>
		</trkpt>
		<trkpt lat="53.8402099609375" lon="13.4813613891602">
			<ele>47.0999984741211</ele>
			<time>2014-04-13T13:06:25Z</time>
		</trkpt>
		<trkpt lat="53.840217590332" lon="13.4814605712891">
			<ele>47.2000007629395</ele>
			<time>2014-04-13T13:06:26Z</time>
		</trkpt>
		<trkpt lat="53.8402290344238" lon="13.4815540313721">
			<ele>47</ele>
			<time>2014-04-13T13:06:27Z</time>
		</trkpt>
		<trkpt lat="53.8402366638184" lon="13.4816522598267">
			<ele>47.0999984741211</ele>
			<time>2014-04-13T13:06:28Z</time>
		</trkpt>
		<trkpt lat="53.8402442932129" lon="13.4817543029785">
			<ele>46.9000015258789</ele>
			<time>2014-04-13T13:06:29Z</time>
		</trkpt>
		<trkpt lat="53.8402519226074" lon="13.4818468093872">
			<ele>46.9000015258789</ele>
			<time>2014-04-13T13:06:30Z</time>
		</trkpt>
		<trkpt lat="53.840259552002" lon="13.4819440841675">
			<ele>46.9000015258789</ele>
			<time>2014-04-13T13:06:31Z</time>
		</trkpt>
		<trkpt lat="53.8402633666992" lon="13.4820375442505">
			<ele>47</ele>
			<time>2014-04-13T13:06:32Z</time>
		</trkpt>
		<trkpt lat="53.8402709960938" lon="13.4821290969849">
			<ele>47.2000007629395</ele>
			<time>2014-04-13T13:06:33Z</time>
		</trkpt>
		<trkpt lat="53.8402786254883" lon="13.4822244644165">
			<ele>47.0999984741211</ele>
			<time>2014-04-13T13:06:34Z</time>
		</trkpt>
		<trkpt lat="53.8402862548828" lon="13.4823179244995">
			<ele>47.2999992370605</ele>
			<time>2014-04-13T13:06:35Z</time>
		</trkpt>
		<trkpt lat="53.8402976989746" lon="13.4824123382568">
			<ele>47.2000007629395</ele>
			<time>2014-04-13T13:06:36Z</time>
		</trkpt>
		<trkpt lat="53.8403053283691" lon="13.4825067520142">
			<ele>47.2000007629395</ele>
			<time>2014-04-13T13:06:37Z</time>
		</trkpt>
		<trkpt lat="53.8403129577637" lon="13.4826068878174">
			<ele>47.2999992370605</ele>
			<time>2014-04-13T13:06:38Z</time>
		</trkpt>
		<trkpt lat="53.8403167724609" lon="13.482702255249">
			<ele>47.2999992370605</ele>
			<time>2014-04-13T13:06:39Z</time>
		</trkpt>
		<trkpt lat="53.8403205871582" lon="13.4828004837036">
			<ele>47.2999992370605</ele>
			<time>2014-04-13T13:06:40Z</time>
		</trkpt>
		<trkpt lat="53.8403282165527" lon="13.4829025268555">
			<ele>47.0999984741211</ele>
			<time>2014-04-13T13:06:41Z</time>
		</trkpt>
		<trkpt lat="53.8403396606445" lon="13.483006477356">
			<ele>47.0999984741211</ele>
			<time>2014-04-13T13:06:42Z</time>
		</trkpt>
		<trkpt lat="53.8403434753418" lon="13.4831123352051">
			<ele>46.9000015258789</ele>
			<time>2014-04-13T13:06:43Z</time>
		</trkpt>
		<trkpt lat="53.8403472900391" lon="13.4832181930542">
			<ele>46.7999992370605</ele>
			<time>2014-04-13T13:06:44Z</time>
		</trkpt>
		<trkpt lat="53.8403549194336" lon="13.4833278656006">
			<ele>46.7999992370605</ele>
			<time>2014-04-13T13:06:45Z</time>
		</trkpt>
		<trkpt lat="53.8403625488281" lon="13.4834423065186">
			<ele>46.7000007629395</ele>
			<time>2014-04-13T13:06:46Z</time>
		</trkpt>
		<trkpt lat="53.8403701782227" lon="13.4835500717163">
			<ele>46.5999984741211</ele>
			<time>2014-04-13T13:06:47Z</time>
		</trkpt>
		<trkpt lat="53.8403816223145" lon="13.4836587905884">
			<ele>46.4000015258789</ele>
			<time>2014-04-13T13:06:48Z</time>
		</trkpt>
		<trkpt lat="53.840389251709" lon="13.4837703704834">
			<ele>46.2999992370605</ele>
			<time>2014-04-13T13:06:49Z</time>
		</trkpt>
		<trkpt lat="53.8403930664063" lon="13.4838771820068">
			<ele>46.2999992370605</ele>
			<time>2014-04-13T13:06:50Z</time>
		</trkpt>
		<trkpt lat="53.8404006958008" lon="13.4839878082275">
			<ele>46.0999984741211</ele>
			<time>2014-04-13T13:06:51Z</time>
		</trkpt>
		<trkpt lat="53.8404083251953" lon="13.484094619751">
			<ele>45.9000015258789</ele>
			<time>2014-04-13T13:06:52Z</time>
		</trkpt>
		<trkpt lat="53.8404121398926" lon="13.4842014312744">
			<ele>45.9000015258789</ele>
			<time>2014-04-13T13:06:53Z</time>
		</trkpt>
		<trkpt lat="53.8404197692871" lon="13.4843072891235">
			<ele>46</ele>
			<time>2014-04-13T13:06:54Z</time>
		</trkpt>
		<trkpt lat="53.8404235839844" lon="13.4844226837158">
			<ele>46.2999992370605</ele>
			<time>2014-04-13T13:06:55Z</time>
		</trkpt>
		<trkpt lat="53.8404312133789" lon="13.4845314025879">
			<ele>46.0999984741211</ele>
			<time>2014-04-13T13:06:56Z</time>
		</trkpt>
		<trkpt lat="53.8404350280762" lon="13.4846429824829">
			<ele>45.7000007629395</ele>
			<time>2014-04-13T13:06:57Z</time>
		</trkpt>
		<trkpt lat="53.8404502868652" lon="13.4847545623779">
			<ele>46</ele>
			<time>2014-04-13T13:06:58Z</time>
		</trkpt>
		<trkpt lat="53.8404579162598" lon="13.4848680496216">
			<ele>46.2999992370605</ele>
			<time>2014-04-13T13:06:59Z</time>
		</trkpt>
		<trkpt lat="53.8404655456543" lon="13.4849758148193">
			<ele>46.0999984741211</ele>
			<time>2014-04-13T13:07:00Z</time>
		</trkpt>
		<trkpt lat="53.8404693603516" lon="13.4850845336914">
			<ele>46.2000007629395</ele>
			<time>2014-04-13T13:07:01Z</time>
		</trkpt>
		<trkpt lat="53.8404731750488" lon="13.4851932525635">
			<ele>46.2999992370605</ele>
			<time>2014-04-13T13:07:02Z</time>
		</trkpt>
		<trkpt lat="53.8404769897461" lon="13.4853019714355">
			<ele>46.5999984741211</ele>
			<time>2014-04-13T13:07:03Z</time>
		</trkpt>
		<trkpt lat="53.8404846191406" lon="13.4854097366333">
			<ele>46.5</ele>
			<time>2014-04-13T13:07:04Z</time>
		</trkpt>
		<trkpt lat="53.8404884338379" lon="13.4855184555054">
			<ele>46.2999992370605</ele>
			<time>2014-04-13T13:07:05Z</time>
		</trkpt>
		<trkpt lat="53.8404884338379" lon="13.4856262207031">
			<ele>46.4000015258789</ele>
			<time>2014-04-13T13:07:06Z</time>
		</trkpt>
		<trkpt lat="53.8404884338379" lon="13.485728263855">
			<ele>46.5</ele>
			<time>2014-04-13T13:07:07Z</time>
		</trkpt>
		<trkpt lat="53.8404846191406" lon="13.4858369827271">
			<ele>46.2999992370605</ele>
			<time>2014-04-13T13:07:08Z</time>
		</trkpt>
		<trkpt lat="53.8404769897461" lon="13.4859428405762">
			<ele>46.5</ele>
			<time>2014-04-13T13:07:09Z</time>
		</trkpt>
		<trkpt lat="53.8404693603516" lon="13.486047744751">
			<ele>46.4000015258789</ele>
			<time>2014-04-13T13:07:10Z</time>
		</trkpt>
		<trkpt lat="53.8404579162598" lon="13.4861516952515">
			<ele>46.4000015258789</ele>
			<time>2014-04-13T13:07:11Z</time>
		</trkpt>
		<trkpt lat="53.840446472168" lon="13.4862575531006">
			<ele>46.2999992370605</ele>
			<time>2014-04-13T13:07:12Z</time>
		</trkpt>
		<trkpt lat="53.8404388427734" lon="13.4863653182983">
			<ele>46.2000007629395</ele>
			<time>2014-04-13T13:07:13Z</time>
		</trkpt>
		<trkpt lat="53.8404273986816" lon="13.4864683151245">
			<ele>46.5</ele>
			<time>2014-04-13T13:07:14Z</time>
		</trkpt>
		<trkpt lat="53.8404159545898" lon="13.4865751266479">
			<ele>46.5</ele>
			<time>2014-04-13T13:07:15Z</time>
		</trkpt>
		<trkpt lat="53.8404083251953" lon="13.4866771697998">
			<ele>46.5999984741211</ele>
			<time>2014-04-13T13:07:16Z</time>
		</trkpt>
		<trkpt lat="53.8404006958008" lon="13.4867830276489">
			<ele>46.4000015258789</ele>
			<time>2014-04-13T13:07:17Z</time>
		</trkpt>
		<trkpt lat="53.840389251709" lon="13.4868841171265">
			<ele>46.4000015258789</ele>
			<time>2014-04-13T13:07:18Z</time>
		</trkpt>
		<trkpt lat="53.8403816223145" lon="13.4869871139526">
			<ele>46.2999992370605</ele>
			<time>2014-04-13T13:07:19Z</time>
		</trkpt>
		<trkpt lat="53.8403739929199" lon="13.4870958328247">
			<ele>46.4000015258789</ele>
			<time>2014-04-13T13:07:20Z</time>
		</trkpt>
		<trkpt lat="53.8403625488281" lon="13.4872074127197">
			<ele>46.5</ele>
			<time>2014-04-13T13:07:21Z</time>
		</trkpt>
		<trkpt lat="53.8403549194336" lon="13.4873094558716">
			<ele>46.5</ele>
			<time>2014-04-13T13:07:22Z</time>
		</trkpt>
		<trkpt lat="53.8403434753418" lon="13.4874153137207">
			<ele>46.2000007629395</ele>
			<time>2014-04-13T13:07:23Z</time>
		</trkpt>
		<trkpt lat="53.8403396606445" lon="13.4875221252441">
			<ele>46.0999984741211</ele>
			<time>2014-04-13T13:07:24Z</time>
		</trkpt>
		<trkpt lat="53.8403282165527" lon="13.4876260757446">
			<ele>46</ele>
			<time>2014-04-13T13:07:25Z</time>
		</trkpt>
		<trkpt lat="53.8403167724609" lon="13.4877319335938">
			<ele>45.9000015258789</ele>
			<time>2014-04-13T13:07:26Z</time>
		</trkpt>
		<trkpt lat="53.8403091430664" lon="13.4878416061401">
			<ele>45.7999992370605</ele>
			<time>2014-04-13T13:07:27Z</time>
		</trkpt>
		<trkpt lat="53.8402976989746" lon="13.4879493713379">
			<ele>46</ele>
			<time>2014-04-13T13:07:28Z</time>
		</trkpt>
		<trkpt lat="53.8402900695801" lon="13.4880523681641">
			<ele>45.9000015258789</ele>
			<time>2014-04-13T13:07:29Z</time>
		</trkpt>
		<trkpt lat="53.8402824401855" lon="13.4881591796875">
			<ele>46.0999984741211</ele>
			<time>2014-04-13T13:07:30Z</time>
		</trkpt>
		<trkpt lat="53.8402709960938" lon="13.4882659912109">
			<ele>46.0999984741211</ele>
			<time>2014-04-13T13:07:31Z</time>
		</trkpt>
		<trkpt lat="53.8402633666992" lon="13.4883680343628">
			<ele>46.4000015258789</ele>
			<time>2014-04-13T13:07:32Z</time>
		</trkpt>
		<trkpt lat="53.8402519226074" lon="13.4884767532349">
			<ele>46.4000015258789</ele>
			<time>2014-04-13T13:07:33Z</time>
		</trkpt>
		<trkpt lat="53.8402404785156" lon="13.4885807037354">
			<ele>46.4000015258789</ele>
			<time>2014-04-13T13:07:34Z</time>
		</trkpt>
		<trkpt lat="53.8402290344238" lon="13.4886884689331">
			<ele>46.2999992370605</ele>
			<time>2014-04-13T13:07:35Z</time>
		</trkpt>
		<trkpt lat="53.8402252197266" lon="13.4887952804565">
			<ele>46.2999992370605</ele>
			<time>2014-04-13T13:07:36Z</time>
		</trkpt>
		<trkpt lat="53.8402137756348" lon="13.48890209198">
			<ele>46.4000015258789</ele>
			<time>2014-04-13T13:07:37Z</time>
		</trkpt>
		<trkpt lat="53.8402061462402" lon="13.4890041351318">
			<ele>46.5</ele>
			<time>2014-04-13T13:07:38Z</time>
		</trkpt>
		<trkpt lat="53.8401947021484" lon="13.4891080856323">
			<ele>46.7999992370605</ele>
			<time>2014-04-13T13:07:39Z</time>
		</trkpt>
		<trkpt lat="53.8401870727539" lon="13.4892101287842">
			<ele>46.7000007629395</ele>
			<time>2014-04-13T13:07:40Z</time>
		</trkpt>
		<trkpt lat="53.8401794433594" lon="13.4893093109131">
			<ele>46.5999984741211</ele>
			<time>2014-04-13T13:07:41Z</time>
		</trkpt>
		<trkpt lat="53.8401679992676" lon="13.4894113540649">
			<ele>46.7000007629395</ele>
			<time>2014-04-13T13:07:42Z</time>
		</trkpt>
		<trkpt lat="53.8401565551758" lon="13.4895153045654">
			<ele>46.7999992370605</ele>
			<time>2014-04-13T13:07:43Z</time>
		</trkpt>
		<trkpt lat="53.8401489257813" lon="13.4896202087402">
			<ele>46.7000007629395</ele>
			<time>2014-04-13T13:07:44Z</time>
		</trkpt>
		<trkpt lat="53.8401412963867" lon="13.4897270202637">
			<ele>46.7999992370605</ele>
			<time>2014-04-13T13:07:45Z</time>
		</trkpt>
		<trkpt lat="53.8401298522949" lon="13.4898328781128">
			<ele>46.7999992370605</ele>
			<time>2014-04-13T13:07:46Z</time>
		</trkpt>
		<trkpt lat="53.8401184082031" lon="13.4899396896362">
			<ele>47.0999984741211</ele>
			<time>2014-04-13T13:07:47Z</time>
		</trkpt>
		<trkpt lat="53.8401107788086" lon="13.4900407791138">
			<ele>46.9000015258789</ele>
			<time>2014-04-13T13:07:48Z</time>
		</trkpt>
		<trkpt lat="53.8401031494141" lon="13.4901466369629">
			<ele>46.7999992370605</ele>
			<time>2014-04-13T13:07:49Z</time>
		</trkpt>
		<trkpt lat="53.840087890625" lon="13.4902505874634">
			<ele>46.5999984741211</ele>
			<time>2014-04-13T13:07:50Z</time>
		</trkpt>
		<trkpt lat="53.8400802612305" lon="13.4903564453125">
			<ele>46.9000015258789</ele>
			<time>2014-04-13T13:07:51Z</time>
		</trkpt>
		<trkpt lat="53.8400726318359" lon="13.4904594421387">
			<ele>46.7999992370605</ele>
			<time>2014-04-13T13:07:52Z</time>
		</trkpt>
		<trkpt lat="53.8400650024414" lon="13.4905652999878">
			<ele>46.9000015258789</ele>
			<time>2014-04-13T13:07:53Z</time>
		</trkpt>
		<trkpt lat="53.8400573730469" lon="13.4906692504883">
			<ele>46.9000015258789</ele>
			<time>2014-04-13T13:07:54Z</time>
		</trkpt>
		<trkpt lat="53.8400459289551" lon="13.4907751083374">
			<ele>47</ele>
			<time>2014-04-13T13:07:55Z</time>
		</trkpt>
		<trkpt lat="53.8400344848633" lon="13.4908761978149">
			<ele>47</ele>
			<time>2014-04-13T13:07:56Z</time>
		</trkpt>
		<trkpt lat="53.8400268554688" lon="13.4909830093384">
			<ele>46.7000007629395</ele>
			<time>2014-04-13T13:07:57Z</time>
		</trkpt>
		<trkpt lat="53.8400192260742" lon="13.4910888671875">
			<ele>46.7999992370605</ele>
			<time>2014-04-13T13:07:58Z</time>
		</trkpt>
		<trkpt lat="53.840015411377" lon="13.4911956787109">
			<ele>46.7000007629395</ele>
			<time>2014-04-13T13:07:59Z</time>
		</trkpt>
		<trkpt lat="53.8400077819824" lon="13.4913053512573">
			<ele>46.5</ele>
			<time>2014-04-13T13:08:00Z</time>
		</trkpt>
		<trkpt lat="53.8399925231934" lon="13.4914083480835">
			<ele>46.5</ele>
			<time>2014-04-13T13:08:01Z</time>
		</trkpt>
		<trkpt lat="53.8399810791016" lon="13.4915113449097">
			<ele>46.5999984741211</ele>
			<time>2014-04-13T13:08:02Z</time>
		</trkpt>
		<trkpt lat="53.8399696350098" lon="13.4916172027588">
			<ele>46.4000015258789</ele>
			<time>2014-04-13T13:08:03Z</time>
		</trkpt>
		<trkpt lat="53.839958190918" lon="13.4917221069336">
			<ele>46.4000015258789</ele>
			<time>2014-04-13T13:08:04Z</time>
		</trkpt>
		<trkpt lat="53.8399505615234" lon="13.4918279647827">
			<ele>46.4000015258789</ele>
			<time>2014-04-13T13:08:05Z</time>
		</trkpt>
		<trkpt lat="53.8399391174316" lon="13.4919338226318">
			<ele>46.5</ele>
			<time>2014-04-13T13:08:06Z</time>
		</trkpt>
		<trkpt lat="53.8399276733398" lon="13.4920434951782">
			<ele>46.5999984741211</ele>
			<time>2014-04-13T13:08:07Z</time>
		</trkpt>
		<trkpt lat="53.8399124145508" lon="13.492151260376">
			<ele>46.5</ele>
			<time>2014-04-13T13:08:08Z</time>
		</trkpt>
		<trkpt lat="53.839900970459" lon="13.492259979248">
			<ele>46.2999992370605</ele>
			<time>2014-04-13T13:08:09Z</time>
		</trkpt>
		<trkpt lat="53.8398895263672" lon="13.4923706054688">
			<ele>46.2999992370605</ele>
			<time>2014-04-13T13:08:10Z</time>
		</trkpt>
		<trkpt lat="53.8398818969727" lon="13.4924821853638">
			<ele>46.2999992370605</ele>
			<time>2014-04-13T13:08:11Z</time>
		</trkpt>
		<trkpt lat="53.8398742675781" lon="13.4925870895386">
			<ele>46.0999984741211</ele>
			<time>2014-04-13T13:08:14Z</time>
		</trkpt>
		<trkpt lat="53.8398475646973" lon="13.4929084777832">
			<ele>45.9000015258789</ele>
			<time>2014-04-13T13:08:15Z</time>
		</trkpt>
		<trkpt lat="53.8398361206055" lon="13.4930143356323">
			<ele>45.9000015258789</ele>
			<time>2014-04-13T13:08:16Z</time>
		</trkpt>
		<trkpt lat="53.8398246765137" lon="13.4931230545044">
			<ele>46.0999984741211</ele>
			<time>2014-04-13T13:08:17Z</time>
		</trkpt>
		<trkpt lat="53.8398170471191" lon="13.4932289123535">
			<ele>46.0999984741211</ele>
			<time>2014-04-13T13:08:18Z</time>
		</trkpt>
		<trkpt lat="53.8398094177246" lon="13.4933319091797">
			<ele>45.9000015258789</ele>
			<time>2014-04-13T13:08:20Z</time>
		</trkpt>
		<trkpt lat="53.8397903442383" lon="13.493537902832">
			<ele>46.0999984741211</ele>
			<time>2014-04-13T13:08:21Z</time>
		</trkpt>
		<trkpt lat="53.8397827148438" lon="13.4936418533325">
			<ele>46</ele>
			<time>2014-04-13T13:08:22Z</time>
		</trkpt>
		<trkpt lat="53.839771270752" lon="13.4937448501587">
			<ele>45.9000015258789</ele>
			<time>2014-04-13T13:08:23Z</time>
		</trkpt>
		<trkpt lat="53.8397598266602" lon="13.4938564300537">
			<ele>46</ele>
			<time>2014-04-13T13:08:24Z</time>
		</trkpt>
		<trkpt lat="53.8397483825684" lon="13.4939661026001">
			<ele>45.9000015258789</ele>
			<time>2014-04-13T13:08:25Z</time>
		</trkpt>
		<trkpt lat="53.8397407531738" lon="13.4940700531006">
			<ele>45.7000007629395</ele>
			<time>2014-04-13T13:08:26Z</time>
		</trkpt>
		<trkpt lat="53.8397331237793" lon="13.4941749572754">
			<ele>46.0999984741211</ele>
			<time>2014-04-13T13:08:27Z</time>
		</trkpt>
		<trkpt lat="53.8397216796875" lon="13.4942770004272">
			<ele>46.4000015258789</ele>
			<time>2014-04-13T13:08:28Z</time>
		</trkpt>
		<trkpt lat="53.8397102355957" lon="13.4943809509277">
			<ele>46.5</ele>
			<time>2014-04-13T13:08:29Z</time>
		</trkpt>
		<trkpt lat="53.8397064208984" lon="13.4944877624512">
			<ele>46.5999984741211</ele>
			<time>2014-04-13T13:08:30Z</time>
		</trkpt>
		<trkpt lat="53.8396987915039" lon="13.494592666626">
			<ele>46.5999984741211</ele>
			<time>2014-04-13T13:08:31Z</time>
		</trkpt>
		<trkpt lat="53.8396873474121" lon="13.4946966171265">
			<ele>46.5999984741211</ele>
			<time>2014-04-13T13:08:32Z</time>
		</trkpt>
		<trkpt lat="53.8396759033203" lon="13.4947967529297">
			<ele>46.5999984741211</ele>
			<time>2014-04-13T13:08:33Z</time>
		</trkpt>
		<trkpt lat="53.8396644592285" lon="13.4949035644531">
			<ele>46.5</ele>
			<time>2014-04-13T13:08:34Z</time>
		</trkpt>
		<trkpt lat="53.8396530151367" lon="13.4950046539307">
			<ele>46.5</ele>
			<time>2014-04-13T13:08:35Z</time>
		</trkpt>
		<trkpt lat="53.8396415710449" lon="13.4951105117798">
			<ele>46.5</ele>
			<time>2014-04-13T13:08:36Z</time>
		</trkpt>
		<trkpt lat="53.8396339416504" lon="13.4952163696289">
			<ele>46.2000007629395</ele>
			<time>2014-04-13T13:08:37Z</time>
		</trkpt>
		<trkpt lat="53.8396224975586" lon="13.495322227478">
			<ele>45.9000015258789</ele>
			<time>2014-04-13T13:08:38Z</time>
		</trkpt>
		<trkpt lat="53.8396148681641" lon="13.4954290390015">
			<ele>45.9000015258789</ele>
			<time>2014-04-13T13:08:39Z</time>
		</trkpt>
		<trkpt lat="53.8396034240723" lon="13.4955348968506">
			<ele>45.7999992370605</ele>
			<time>2014-04-13T13:08:40Z</time>
		</trkpt>
		<trkpt lat="53.8395919799805" lon="13.4956407546997">
			<ele>45.5999984741211</ele>
			<time>2014-04-13T13:08:41Z</time>
		</trkpt>
		<trkpt lat="53.8395843505859" lon="13.4957447052002">
			<ele>45.5999984741211</ele>
			<time>2014-04-13T13:08:42Z</time>
		</trkpt>
		<trkpt lat="53.8395767211914" lon="13.4958505630493">
			<ele>45.5999984741211</ele>
			<time>2014-04-13T13:08:43Z</time>
		</trkpt>
		<trkpt lat="53.8395729064941" lon="13.4959564208984">
			<ele>45.5999984741211</ele>
			<time>2014-04-13T13:08:44Z</time>
		</trkpt>
		<trkpt lat="53.8395652770996" lon="13.4960651397705">
			<ele>45.5</ele>
			<time>2014-04-13T13:08:45Z</time>
		</trkpt>
		<trkpt lat="53.8395538330078" lon="13.4961795806885">
			<ele>45.7999992370605</ele>
			<time>2014-04-13T13:08:46Z</time>
		</trkpt>
		<trkpt lat="53.839542388916" lon="13.4962863922119">
			<ele>45.5999984741211</ele>
			<time>2014-04-13T13:08:47Z</time>
		</trkpt>
		<trkpt lat="53.8395347595215" lon="13.4963932037354">
			<ele>45.7000007629395</ele>
			<time>2014-04-13T13:08:48Z</time>
		</trkpt>
		<trkpt lat="53.8395233154297" lon="13.4964990615845">
			<ele>45.5999984741211</ele>
			<time>2014-04-13T13:08:49Z</time>
		</trkpt>
		<trkpt lat="53.8395080566406" lon="13.4966039657593">
			<ele>45.7000007629395</ele>
			<time>2014-04-13T13:08:50Z</time>
		</trkpt>
		<trkpt lat="53.8394966125488" lon="13.4967079162598">
			<ele>45.5</ele>
			<time>2014-04-13T13:08:51Z</time>
		</trkpt>
		<trkpt lat="53.839485168457" lon="13.4968118667603">
			<ele>45.5999984741211</ele>
			<time>2014-04-13T13:08:52Z</time>
		</trkpt>
		<trkpt lat="53.8394775390625" lon="13.496919631958">
			<ele>45.7000007629395</ele>
			<time>2014-04-13T13:08:53Z</time>
		</trkpt>
		<trkpt lat="53.839469909668" lon="13.4970283508301">
			<ele>45.9000015258789</ele>
			<time>2014-04-13T13:08:54Z</time>
		</trkpt>
		<trkpt lat="53.8394584655762" lon="13.4971380233765">
			<ele>45.7999992370605</ele>
			<time>2014-04-13T13:08:55Z</time>
		</trkpt>
		<trkpt lat="53.8394508361816" lon="13.4972429275513">
			<ele>45.7000007629395</ele>
			<time>2014-04-13T13:08:56Z</time>
		</trkpt>
		<trkpt lat="53.8394432067871" lon="13.497353553772">
			<ele>45.7999992370605</ele>
			<time>2014-04-13T13:08:57Z</time>
		</trkpt>
		<trkpt lat="53.8394355773926" lon="13.4974603652954">
			<ele>45.5999984741211</ele>
			<time>2014-04-13T13:08:58Z</time>
		</trkpt>
		<trkpt lat="53.8394241333008" lon="13.4975652694702">
			<ele>45.5</ele>
			<time>2014-04-13T13:08:59Z</time>
		</trkpt>
		<trkpt lat="53.8394165039063" lon="13.4976720809937">
			<ele>45.5999984741211</ele>
			<time>2014-04-13T13:09:00Z</time>
		</trkpt>
		<trkpt lat="53.8394088745117" lon="13.4977750778198">
			<ele>45.7999992370605</ele>
			<time>2014-04-13T13:09:01Z</time>
		</trkpt>
		<trkpt lat="53.8393974304199" lon="13.4978847503662">
			<ele>45.7999992370605</ele>
			<time>2014-04-13T13:09:02Z</time>
		</trkpt>
		<trkpt lat="53.8393898010254" lon="13.4979877471924">
			<ele>45.7000007629395</ele>
			<time>2014-04-13T13:09:03Z</time>
		</trkpt>
		<trkpt lat="53.8393783569336" lon="13.4980907440186">
			<ele>45.7000007629395</ele>
			<time>2014-04-13T13:09:04Z</time>
		</trkpt>
		<trkpt lat="53.8393669128418" lon="13.4981956481934">
			<ele>45.7000007629395</ele>
			<time>2014-04-13T13:09:05Z</time>
		</trkpt>
		<trkpt lat="53.83935546875" lon="13.4983034133911">
			<ele>45.7000007629395</ele>
			<time>2014-04-13T13:09:06Z</time>
		</trkpt>
		<trkpt lat="53.8393478393555" lon="13.4984121322632">
			<ele>45.7999992370605</ele>
			<time>2014-04-13T13:09:07Z</time>
		</trkpt>
		<trkpt lat="53.8393402099609" lon="13.4985103607178">
			<ele>45.5999984741211</ele>
			<time>2014-04-13T13:09:08Z</time>
		</trkpt>
		<trkpt lat="53.8393363952637" lon="13.4986181259155">
			<ele>45.7999992370605</ele>
			<time>2014-04-13T13:09:09Z</time>
		</trkpt>
		<trkpt lat="53.8393287658691" lon="13.498724937439">
			<ele>46</ele>
			<time>2014-04-13T13:09:10Z</time>
		</trkpt>
		<trkpt lat="53.8393173217773" lon="13.4988298416138">
			<ele>46</ele>
			<time>2014-04-13T13:09:11Z</time>
		</trkpt>
		<trkpt lat="53.8393058776855" lon="13.4989376068115">
			<ele>45.9000015258789</ele>
			<time>2014-04-13T13:09:12Z</time>
		</trkpt>
		<trkpt lat="53.8392944335938" lon="13.4990472793579">
			<ele>46</ele>
			<time>2014-04-13T13:09:13Z</time>
		</trkpt>
		<trkpt lat="53.839282989502" lon="13.4991579055786">
			<ele>45.9000015258789</ele>
			<time>2014-04-13T13:09:14Z</time>
		</trkpt>
		<trkpt lat="53.8392715454102" lon="13.4992647171021">
			<ele>46</ele>
			<time>2014-04-13T13:09:15Z</time>
		</trkpt>
		<trkpt lat="53.8392639160156" lon="13.4993715286255">
			<ele>46.0999984741211</ele>
			<time>2014-04-13T13:09:16Z</time>
		</trkpt>
		<trkpt lat="53.8392524719238" lon="13.4994792938232">
			<ele>46.0999984741211</ele>
			<time>2014-04-13T13:09:17Z</time>
		</trkpt>
		<trkpt lat="53.8392448425293" lon="13.4995822906494">
			<ele>46.2000007629395</ele>
			<time>2014-04-13T13:09:18Z</time>
		</trkpt>
		<trkpt lat="53.8392372131348" lon="13.499680519104">
			<ele>46.0999984741211</ele>
			<time>2014-04-13T13:09:19Z</time>
		</trkpt>
		<trkpt lat="53.8392295837402" lon="13.4997797012329">
			<ele>45.9000015258789</ele>
			<time>2014-04-13T13:09:20Z</time>
		</trkpt>
		<trkpt lat="53.8392219543457" lon="13.4998779296875">
			<ele>46</ele>
			<time>2014-04-13T13:09:21Z</time>
		</trkpt>
		<trkpt lat="53.8392105102539" lon="13.4999752044678">
			<ele>46</ele>
			<time>2014-04-13T13:09:22Z</time>
		</trkpt>
		<trkpt lat="53.8391990661621" lon="13.5000715255737">
			<ele>46.0999984741211</ele>
			<time>2014-04-13T13:09:23Z</time>
		</trkpt>
		<trkpt lat="53.8391876220703" lon="13.5001668930054">
			<ele>46.0999984741211</ele>
			<time>2014-04-13T13:09:24Z</time>
		</trkpt>
		<trkpt lat="53.8391723632813" lon="13.5002546310425">
			<ele>46.0999984741211</ele>
			<time>2014-04-13T13:09:25Z</time>
		</trkpt>
		<trkpt lat="53.8391571044922" lon="13.5003442764282">
			<ele>46</ele>
			<time>2014-04-13T13:09:26Z</time>
		</trkpt>
		<trkpt lat="53.8391418457031" lon="13.500433921814">
			<ele>45.7999992370605</ele>
			<time>2014-04-13T13:09:27Z</time>
		</trkpt>
		<trkpt lat="53.8391227722168" lon="13.5005292892456">
			<ele>46</ele>
			<time>2014-04-13T13:09:28Z</time>
		</trkpt>
		<trkpt lat="53.8390998840332" lon="13.500617980957">
			<ele>45.9000015258789</ele>
			<time>2014-04-13T13:09:29Z</time>
		</trkpt>
		<trkpt lat="53.8390769958496" lon="13.5007076263428">
			<ele>45.9000015258789</ele>
			<time>2014-04-13T13:09:30Z</time>
		</trkpt>
		<trkpt lat="53.839054107666" lon="13.5007972717285">
			<ele>46</ele>
			<time>2014-04-13T13:09:31Z</time>
		</trkpt>
		<trkpt lat="53.8390274047852" lon="13.5008878707886">
			<ele>46.2000007629395</ele>
			<time>2014-04-13T13:09:32Z</time>
		</trkpt>
		<trkpt lat="53.8390045166016" lon="13.5009841918945">
			<ele>46</ele>
			<time>2014-04-13T13:09:33Z</time>
		</trkpt>
		<trkpt lat="53.8389778137207" lon="13.5010786056519">
			<ele>46</ele>
			<time>2014-04-13T13:09:34Z</time>
		</trkpt>
		<trkpt lat="53.8389511108398" lon="13.5011749267578">
			<ele>46.0999984741211</ele>
			<time>2014-04-13T13:09:35Z</time>
		</trkpt>
		<trkpt lat="53.8389282226563" lon="13.5012664794922">
			<ele>45.7999992370605</ele>
			<time>2014-04-13T13:09:36Z</time>
		</trkpt>
		<trkpt lat="53.8389053344727" lon="13.5013637542725">
			<ele>45.7999992370605</ele>
			<time>2014-04-13T13:09:37Z</time>
		</trkpt>
		<trkpt lat="53.8388786315918" lon="13.5014638900757">
			<ele>45.7999992370605</ele>
			<time>2014-04-13T13:09:38Z</time>
		</trkpt>
		<trkpt lat="53.8388557434082" lon="13.5015621185303">
			<ele>45.9000015258789</ele>
			<time>2014-04-13T13:09:39Z</time>
		</trkpt>
		<trkpt lat="53.8388290405273" lon="13.5016603469849">
			<ele>45.7999992370605</ele>
			<time>2014-04-13T13:09:40Z</time>
		</trkpt>
		<trkpt lat="53.8388061523438" lon="13.5017623901367">
			<ele>45.7999992370605</ele>
			<time>2014-04-13T13:09:41Z</time>
		</trkpt>
		<trkpt lat="53.8387832641602" lon="13.5018615722656">
			<ele>45.7000007629395</ele>
			<time>2014-04-13T13:09:42Z</time>
		</trkpt>
		<trkpt lat="53.8387565612793" lon="13.5019569396973">
			<ele>45.7999992370605</ele>
			<time>2014-04-13T13:09:43Z</time>
		</trkpt>
		<trkpt lat="53.8387336730957" lon="13.5020542144775">
			<ele>45.5999984741211</ele>
			<time>2014-04-13T13:09:44Z</time>
		</trkpt>
		<trkpt lat="53.8387107849121" lon="13.5021524429321">
			<ele>45.7000007629395</ele>
			<time>2014-04-13T13:09:45Z</time>
		</trkpt>
		<trkpt lat="53.8386917114258" lon="13.5022525787354">
			<ele>45.7000007629395</ele>
			<time>2014-04-13T13:09:46Z</time>
		</trkpt>
		<trkpt lat="53.8386726379395" lon="13.5023546218872">
			<ele>45.5999984741211</ele>
			<time>2014-04-13T13:09:47Z</time>
		</trkpt>
		<trkpt lat="53.8386535644531" lon="13.5024518966675">
			<ele>45.5999984741211</ele>
			<time>2014-04-13T13:09:48Z</time>
		</trkpt>
		<trkpt lat="53.8386306762695" lon="13.5025510787964">
			<ele>45.5</ele>
			<time>2014-04-13T13:09:49Z</time>
		</trkpt>
		<trkpt lat="53.8386116027832" lon="13.502649307251">
			<ele>45.2999992370605</ele>
			<time>2014-04-13T13:09:50Z</time>
		</trkpt>
		<trkpt lat="53.8385925292969" lon="13.5027503967285">
			<ele>45.2999992370605</ele>
			<time>2014-04-13T13:09:51Z</time>
		</trkpt>
		<trkpt lat="53.8385696411133" lon="13.5028476715088">
			<ele>45.2999992370605</ele>
			<time>2014-04-13T13:09:52Z</time>
		</trkpt>
		<trkpt lat="53.8385467529297" lon="13.5029439926147">
			<ele>45.2000007629395</ele>
			<time>2014-04-13T13:09:53Z</time>
		</trkpt>
		<trkpt lat="53.8385238647461" lon="13.5030431747437">
			<ele>45.0999984741211</ele>
			<time>2014-04-13T13:09:54Z</time>
		</trkpt>
		<trkpt lat="53.8385009765625" lon="13.5031433105469">
			<ele>45.2999992370605</ele>
			<time>2014-04-13T13:09:55Z</time>
		</trkpt>
		<trkpt lat="53.8384742736816" lon="13.503246307373">
			<ele>45.2000007629395</ele>
			<time>2014-04-13T13:09:56Z</time>
		</trkpt>
		<trkpt lat="53.8384437561035" lon="13.503342628479">
			<ele>45.2000007629395</ele>
			<time>2014-04-13T13:09:57Z</time>
		</trkpt>
		<trkpt lat="53.8384170532227" lon="13.5034399032593">
			<ele>45.2999992370605</ele>
			<time>2014-04-13T13:09:58Z</time>
		</trkpt>
		<trkpt lat="53.8383979797363" lon="13.5035333633423">
			<ele>45.4000015258789</ele>
			<time>2014-04-13T13:09:59Z</time>
		</trkpt>
		<trkpt lat="53.8383712768555" lon="13.5036334991455">
			<ele>45.0999984741211</ele>
			<time>2014-04-13T13:10:00Z</time>
		</trkpt>
		<trkpt lat="53.8383483886719" lon="13.5037269592285">
			<ele>45.0999984741211</ele>
			<time>2014-04-13T13:10:01Z</time>
		</trkpt>
		<trkpt lat="53.8383255004883" lon="13.5038242340088">
			<ele>45</ele>
			<time>2014-04-13T13:10:02Z</time>
		</trkpt>
		<trkpt lat="53.838306427002" lon="13.5039224624634">
			<ele>45.0999984741211</ele>
			<time>2014-04-13T13:10:03Z</time>
		</trkpt>
		<trkpt lat="53.8382835388184" lon="13.5040159225464">
			<ele>45.0999984741211</ele>
			<time>2014-04-13T13:10:04Z</time>
		</trkpt>
		<trkpt lat="53.8382568359375" lon="13.504111289978">
			<ele>45</ele>
			<time>2014-04-13T13:10:05Z</time>
		</trkpt>
		<trkpt lat="53.8382339477539" lon="13.504204750061">
			<ele>44.9000015258789</ele>
			<time>2014-04-13T13:10:06Z</time>
		</trkpt>
		<trkpt lat="53.838207244873" lon="13.5043058395386">
			<ele>44.9000015258789</ele>
			<time>2014-04-13T13:10:07Z</time>
		</trkpt>
		<trkpt lat="53.8381881713867" lon="13.5044021606445">
			<ele>44.7000007629395</ele>
			<time>2014-04-13T13:10:08Z</time>
		</trkpt>
		<trkpt lat="53.8381652832031" lon="13.5045003890991">
			<ele>44.7999992370605</ele>
			<time>2014-04-13T13:10:09Z</time>
		</trkpt>
		<trkpt lat="53.8381423950195" lon="13.5046005249023">
			<ele>44.7000007629395</ele>
			<time>2014-04-13T13:10:10Z</time>
		</trkpt>
		<trkpt lat="53.8381195068359" lon="13.5047035217285">
			<ele>44.7000007629395</ele>
			<time>2014-04-13T13:10:11Z</time>
		</trkpt>
		<trkpt lat="53.8380928039551" lon="13.5048027038574">
			<ele>44.5999984741211</ele>
			<time>2014-04-13T13:10:12Z</time>
		</trkpt>
		<trkpt lat="53.8380699157715" lon="13.504903793335">
			<ele>44.2999992370605</ele>
			<time>2014-04-13T13:10:13Z</time>
		</trkpt>
		<trkpt lat="53.8380432128906" lon="13.5050058364868">
			<ele>44.2000007629395</ele>
			<time>2014-04-13T13:10:14Z</time>
		</trkpt>
		<trkpt lat="53.8380241394043" lon="13.5051069259644">
			<ele>44.0999984741211</ele>
			<time>2014-04-13T13:10:15Z</time>
		</trkpt>
		<trkpt lat="53.838005065918" lon="13.5052099227905">
			<ele>44.2000007629395</ele>
			<time>2014-04-13T13:10:16Z</time>
		</trkpt>
		<trkpt lat="53.8379859924316" lon="13.5053148269653">
			<ele>44.2999992370605</ele>
			<time>2014-04-13T13:10:17Z</time>
		</trkpt>
		<trkpt lat="53.8379707336426" lon="13.5054216384888">
			<ele>44.4000015258789</ele>
			<time>2014-04-13T13:10:18Z</time>
		</trkpt>
		<trkpt lat="53.8379516601563" lon="13.5055294036865">
			<ele>44.4000015258789</ele>
			<time>2014-04-13T13:10:19Z</time>
		</trkpt>
		<trkpt lat="53.8379364013672" lon="13.50563621521">
			<ele>44.5</ele>
			<time>2014-04-13T13:10:20Z</time>
		</trkpt>
		<trkpt lat="53.8379249572754" lon="13.5057420730591">
			<ele>44.5999984741211</ele>
			<time>2014-04-13T13:10:21Z</time>
		</trkpt>
		<trkpt lat="53.8379096984863" lon="13.5058488845825">
			<ele>44.7000007629395</ele>
			<time>2014-04-13T13:10:22Z</time>
		</trkpt>
		<trkpt lat="53.8378944396973" lon="13.5059614181519">
			<ele>44.4000015258789</ele>
			<time>2014-04-13T13:10:23Z</time>
		</trkpt>
		<trkpt lat="53.8378829956055" lon="13.5060691833496">
			<ele>44.5</ele>
			<time>2014-04-13T13:10:24Z</time>
		</trkpt>
		<trkpt lat="53.8378677368164" lon="13.5061731338501">
			<ele>44.7000007629395</ele>
			<time>2014-04-13T13:10:25Z</time>
		</trkpt>
		<trkpt lat="53.8378486633301" lon="13.5062866210938">
			<ele>44.9000015258789</ele>
			<time>2014-04-13T13:10:26Z</time>
		</trkpt>
		<trkpt lat="53.837833404541" lon="13.506402015686">
			<ele>44.9000015258789</ele>
			<time>2014-04-13T13:10:27Z</time>
		</trkpt>
		<trkpt lat="53.8378219604492" lon="13.5065145492554">
			<ele>45</ele>
			<time>2014-04-13T13:10:28Z</time>
		</trkpt>
		<trkpt lat="53.8378067016602" lon="13.5066223144531">
			<ele>45</ele>
			<time>2014-04-13T13:10:29Z</time>
		</trkpt>
		<trkpt lat="53.8377914428711" lon="13.5067338943481">
			<ele>45.4000015258789</ele>
			<time>2014-04-13T13:10:30Z</time>
		</trkpt>
		<trkpt lat="53.8377799987793" lon="13.5068426132202">
			<ele>45.5</ele>
			<time>2014-04-13T13:10:31Z</time>
		</trkpt>
		<trkpt lat="53.8377647399902" lon="13.5069522857666">
			<ele>45.4000015258789</ele>
			<time>2014-04-13T13:10:32Z</time>
		</trkpt>
		<trkpt lat="53.8377532958984" lon="13.5070581436157">
			<ele>45.4000015258789</ele>
			<time>2014-04-13T13:10:33Z</time>
		</trkpt>
		<trkpt lat="53.8377418518066" lon="13.5071697235107">
			<ele>45.5999984741211</ele>
			<time>2014-04-13T13:10:34Z</time>
		</trkpt>
		<trkpt lat="53.8377304077148" lon="13.5072813034058">
			<ele>45.4000015258789</ele>
			<time>2014-04-13T13:10:35Z</time>
		</trkpt>
		<trkpt lat="53.837718963623" lon="13.5073976516724">
			<ele>45.2000007629395</ele>
			<time>2014-04-13T13:10:36Z</time>
		</trkpt>
		<trkpt lat="53.837703704834" lon="13.5075159072876">
			<ele>45.0999984741211</ele>
			<time>2014-04-13T13:10:37Z</time>
		</trkpt>
		<trkpt lat="53.8376922607422" lon="13.5076360702515">
			<ele>45.2999992370605</ele>
			<time>2014-04-13T13:10:38Z</time>
		</trkpt>
		<trkpt lat="53.8376770019531" lon="13.5077457427979">
			<ele>45.2999992370605</ele>
			<time>2014-04-13T13:10:39Z</time>
		</trkpt>
		<trkpt lat="53.8376655578613" lon="13.5078639984131">
			<ele>45.4000015258789</ele>
			<time>2014-04-13T13:10:40Z</time>
		</trkpt>
		<trkpt lat="53.8376502990723" lon="13.5079793930054">
			<ele>45.4000015258789</ele>
			<time>2014-04-13T13:10:41Z</time>
		</trkpt>
		<trkpt lat="53.8376388549805" lon="13.508095741272">
			<ele>45.4000015258789</ele>
			<time>2014-04-13T13:10:42Z</time>
		</trkpt>
		<trkpt lat="53.8376312255859" lon="13.5081882476807">
			<ele>45.2000007629395</ele>
			<time>2014-04-13T13:10:43Z</time>
		</trkpt>
		<trkpt lat="53.8376197814941" lon="13.5083246231079">
			<ele>45</ele>
			<time>2014-04-13T13:10:44Z</time>
		</trkpt>
		<trkpt lat="53.8376083374023" lon="13.5084466934204">
			<ele>44.5999984741211</ele>
			<time>2014-04-13T13:10:45Z</time>
		</trkpt>
		<trkpt lat="53.8375968933105" lon="13.5085668563843">
			<ele>44.9000015258789</ele>
			<time>2014-04-13T13:10:46Z</time>
		</trkpt>
		<trkpt lat="53.837589263916" lon="13.5086803436279">
			<ele>45.5999984741211</ele>
			<time>2014-04-13T13:10:47Z</time>
		</trkpt>
		<trkpt lat="53.8375778198242" lon="13.5088005065918">
			<ele>45.2999992370605</ele>
			<time>2014-04-13T13:10:48Z</time>
		</trkpt>
		<trkpt lat="53.8375663757324" lon="13.508918762207">
			<ele>45.5</ele>
			<time>2014-04-13T13:10:49Z</time>
		</trkpt>
		<trkpt lat="53.8375625610352" lon="13.5090389251709">
			<ele>45.5</ele>
			<time>2014-04-13T13:10:50Z</time>
		</trkpt>
		<trkpt lat="53.8375511169434" lon="13.5091619491577">
			<ele>45.5999984741211</ele>
			<time>2014-04-13T13:10:51Z</time>
		</trkpt>
		<trkpt lat="53.8375396728516" lon="13.5092859268188">
			<ele>45.5999984741211</ele>
			<time>2014-04-13T13:10:52Z</time>
		</trkpt>
		<trkpt lat="53.837532043457" lon="13.5094137191772">
			<ele>45.5999984741211</ele>
			<time>2014-04-13T13:10:53Z</time>
		</trkpt>
		<trkpt lat="53.8375244140625" lon="13.5095415115356">
			<ele>45.5</ele>
			<time>2014-04-13T13:10:54Z</time>
		</trkpt>
		<trkpt lat="53.837516784668" lon="13.5096645355225">
			<ele>45.5999984741211</ele>
			<time>2014-04-13T13:10:55Z</time>
		</trkpt>
		<trkpt lat="53.8375053405762" lon="13.5097932815552">
			<ele>45.7000007629395</ele>
			<time>2014-04-13T13:10:56Z</time>
		</trkpt>
		<trkpt lat="53.8374977111816" lon="13.509916305542">
			<ele>45.7999992370605</ele>
			<time>2014-04-13T13:10:57Z</time>
		</trkpt>
		<trkpt lat="53.8374900817871" lon="13.5100374221802">
			<ele>45.7999992370605</ele>
			<time>2014-04-13T13:10:58Z</time>
		</trkpt>
		<trkpt lat="53.8374824523926" lon="13.5101633071899">
			<ele>45.9000015258789</ele>
			<time>2014-04-13T13:10:59Z</time>
		</trkpt>
		<trkpt lat="53.837474822998" lon="13.5102834701538">
			<ele>46</ele>
			<time>2014-04-13T13:11:00Z</time>
		</trkpt>
		<trkpt lat="53.8374671936035" lon="13.5104112625122">
			<ele>46.0999984741211</ele>
			<time>2014-04-13T13:11:01Z</time>
		</trkpt>
		<trkpt lat="53.837459564209" lon="13.510537147522">
			<ele>46.2999992370605</ele>
			<time>2014-04-13T13:11:02Z</time>
		</trkpt>
		<trkpt lat="53.8374519348145" lon="13.5106611251831">
			<ele>46.4000015258789</ele>
			<time>2014-04-13T13:11:03Z</time>
		</trkpt>
		<trkpt lat="53.8374443054199" lon="13.5107870101929">
			<ele>46.4000015258789</ele>
			<time>2014-04-13T13:11:04Z</time>
		</trkpt>
		<trkpt lat="53.8374366760254" lon="13.5109090805054">
			<ele>46.5</ele>
			<time>2014-04-13T13:11:05Z</time>
		</trkpt>
		<trkpt lat="53.8374290466309" lon="13.5110340118408">
			<ele>46.2999992370605</ele>
			<time>2014-04-13T13:11:06Z</time>
		</trkpt>
		<trkpt lat="53.8374214172363" lon="13.5111589431763">
			<ele>46.2000007629395</ele>
			<time>2014-04-13T13:11:07Z</time>
		</trkpt>
		<trkpt lat="53.8374099731445" lon="13.5112791061401">
			<ele>46.2999992370605</ele>
			<time>2014-04-13T13:11:08Z</time>
		</trkpt>
		<trkpt lat="53.83740234375" lon="13.5114002227783">
			<ele>46.4000015258789</ele>
			<time>2014-04-13T13:11:09Z</time>
		</trkpt>
		<trkpt lat="53.8373947143555" lon="13.5115213394165">
			<ele>46.0999984741211</ele>
			<time>2014-04-13T13:11:10Z</time>
		</trkpt>
		<trkpt lat="53.8373870849609" lon="13.5116415023804">
			<ele>45.9000015258789</ele>
			<time>2014-04-13T13:11:11Z</time>
		</trkpt>
		<trkpt lat="53.8373756408691" lon="13.5117626190186">
			<ele>45.7999992370605</ele>
			<time>2014-04-13T13:11:12Z</time>
		</trkpt>
		<trkpt lat="53.8373680114746" lon="13.5118837356567">
			<ele>45.9000015258789</ele>
			<time>2014-04-13T13:11:13Z</time>
		</trkpt>
		<trkpt lat="53.8373603820801" lon="13.5120058059692">
			<ele>45.9000015258789</ele>
			<time>2014-04-13T13:11:14Z</time>
		</trkpt>
		<trkpt lat="53.8373489379883" lon="13.5121278762817">
			<ele>45.7999992370605</ele>
			<time>2014-04-13T13:11:15Z</time>
		</trkpt>
		<trkpt lat="53.8373413085938" lon="13.5122509002686">
			<ele>46</ele>
			<time>2014-04-13T13:11:16Z</time>
		</trkpt>
		<trkpt lat="53.8373336791992" lon="13.5123710632324">
			<ele>46.0999984741211</ele>
			<time>2014-04-13T13:11:17Z</time>
		</trkpt>
		<trkpt lat="53.8373260498047" lon="13.5124931335449">
			<ele>46.2000007629395</ele>
			<time>2014-04-13T13:11:18Z</time>
		</trkpt>
		<trkpt lat="53.8373222351074" lon="13.5126142501831">
			<ele>46.2000007629395</ele>
			<time>2014-04-13T13:11:19Z</time>
		</trkpt>
		<trkpt lat="53.8373146057129" lon="13.5127429962158">
			<ele>45.9000015258789</ele>
			<time>2014-04-13T13:11:20Z</time>
		</trkpt>
		<trkpt lat="53.8373069763184" lon="13.5128612518311">
			<ele>46.0999984741211</ele>
			<time>2014-04-13T13:11:21Z</time>
		</trkpt>
		<trkpt lat="53.8372993469238" lon="13.5129833221436">
			<ele>46</ele>
			<time>2014-04-13T13:11:22Z</time>
		</trkpt>
		<trkpt lat="53.8372917175293" lon="13.5131025314331">
			<ele>46.2000007629395</ele>
			<time>2014-04-13T13:11:23Z</time>
		</trkpt>
		<trkpt lat="53.8372840881348" lon="13.513219833374">
			<ele>46.0999984741211</ele>
			<time>2014-04-13T13:11:24Z</time>
		</trkpt>
		<trkpt lat="53.8372802734375" lon="13.5133371353149">
			<ele>46.0999984741211</ele>
			<time>2014-04-13T13:11:25Z</time>
		</trkpt>
		<trkpt lat="53.837272644043" lon="13.5134544372559">
			<ele>45.9000015258789</ele>
			<time>2014-04-13T13:11:26Z</time>
		</trkpt>
		<trkpt lat="53.8372650146484" lon="13.5135717391968">
			<ele>46</ele>
			<time>2014-04-13T13:11:27Z</time>
		</trkpt>
		<trkpt lat="53.8372573852539" lon="13.5136861801147">
			<ele>45.7999992370605</ele>
			<time>2014-04-13T13:11:28Z</time>
		</trkpt>
		<trkpt lat="53.8372497558594" lon="13.513801574707">
			<ele>45.7999992370605</ele>
			<time>2014-04-13T13:11:29Z</time>
		</trkpt>
		<trkpt lat="53.8372421264648" lon="13.513916015625">
			<ele>45.9000015258789</ele>
			<time>2014-04-13T13:11:30Z</time>
		</trkpt>
		<trkpt lat="53.8372344970703" lon="13.5140314102173">
			<ele>45.9000015258789</ele>
			<time>2014-04-13T13:11:31Z</time>
		</trkpt>
		<trkpt lat="53.8372268676758" lon="13.5141487121582">
			<ele>45.5999984741211</ele>
			<time>2014-04-13T13:11:32Z</time>
		</trkpt>
		<trkpt lat="53.8372192382813" lon="13.5142660140991">
			<ele>45.5999984741211</ele>
			<time>2014-04-13T13:11:33Z</time>
		</trkpt>
		<trkpt lat="53.8372116088867" lon="13.5143785476685">
			<ele>45.5999984741211</ele>
			<time>2014-04-13T13:11:34Z</time>
		</trkpt>
		<trkpt lat="53.8372039794922" lon="13.5144939422607">
			<ele>45.5</ele>
			<time>2014-04-13T13:11:35Z</time>
		</trkpt>
		<trkpt lat="53.8371963500977" lon="13.5146102905273">
			<ele>45.5999984741211</ele>
			<time>2014-04-13T13:11:36Z</time>
		</trkpt>
		<trkpt lat="53.8371925354004" lon="13.5147266387939">
			<ele>45.5999984741211</ele>
			<time>2014-04-13T13:11:37Z</time>
		</trkpt>
		<trkpt lat="53.8371849060059" lon="13.5148401260376">
			<ele>45.5</ele>
			<time>2014-04-13T13:11:38Z</time>
		</trkpt>
		<trkpt lat="53.8371810913086" lon="13.5149564743042">
			<ele>45.5</ele>
			<time>2014-04-13T13:11:39Z</time>
		</trkpt>
		<trkpt lat="53.8371772766113" lon="13.5150690078735">
			<ele>45.5999984741211</ele>
			<time>2014-04-13T13:11:40Z</time>
		</trkpt>
		<trkpt lat="53.8371734619141" lon="13.5151805877686">
			<ele>45.5999984741211</ele>
			<time>2014-04-13T13:11:41Z</time>
		</trkpt>
		<trkpt lat="53.8371658325195" lon="13.5152931213379">
			<ele>45.5999984741211</ele>
			<time>2014-04-13T13:11:42Z</time>
		</trkpt>
		<trkpt lat="53.837158203125" lon="13.5154056549072">
			<ele>45.5999984741211</ele>
			<time>2014-04-13T13:11:43Z</time>
		</trkpt>
		<trkpt lat="53.8371543884277" lon="13.5155191421509">
			<ele>45.4000015258789</ele>
			<time>2014-04-13T13:11:44Z</time>
		</trkpt>
		<trkpt lat="53.8371505737305" lon="13.5156307220459">
			<ele>45.5</ele>
			<time>2014-04-13T13:11:45Z</time>
		</trkpt>
		<trkpt lat="53.8371505737305" lon="13.5157356262207">
			<ele>45.5999984741211</ele>
			<time>2014-04-13T13:11:46Z</time>
		</trkpt>
		<trkpt lat="53.8371543884277" lon="13.5158443450928">
			<ele>45.5999984741211</ele>
			<time>2014-04-13T13:11:47Z</time>
		</trkpt>
		<trkpt lat="53.8371658325195" lon="13.5159568786621">
			<ele>45.5999984741211</ele>
			<time>2014-04-13T13:11:48Z</time>
		</trkpt>
		<trkpt lat="53.8371810913086" lon="13.5160627365112">
			<ele>45.7999992370605</ele>
			<time>2014-04-13T13:11:49Z</time>
		</trkpt>
		<trkpt lat="53.8371963500977" lon="13.5161628723145">
			<ele>45.7999992370605</ele>
			<time>2014-04-13T13:11:50Z</time>
		</trkpt>
		<trkpt lat="53.8372192382813" lon="13.5162658691406">
			<ele>46</ele>
			<time>2014-04-13T13:11:51Z</time>
		</trkpt>
		<trkpt lat="53.8372421264648" lon="13.5163640975952">
			<ele>46.2000007629395</ele>
			<time>2014-04-13T13:11:52Z</time>
		</trkpt>
		<trkpt lat="53.8372650146484" lon="13.5164594650269">
			<ele>46.2000007629395</ele>
			<time>2014-04-13T13:11:53Z</time>
		</trkpt>
		<trkpt lat="53.837287902832" lon="13.5165491104126">
			<ele>46.2999992370605</ele>
			<time>2014-04-13T13:11:54Z</time>
		</trkpt>
		<trkpt lat="53.8373146057129" lon="13.5166435241699">
			<ele>46.5</ele>
			<time>2014-04-13T13:11:55Z</time>
		</trkpt>
		<trkpt lat="53.8373413085938" lon="13.5167350769043">
			<ele>46.5999984741211</ele>
			<time>2014-04-13T13:11:56Z</time>
		</trkpt>
		<trkpt lat="53.8373680114746" lon="13.5168228149414">
			<ele>46.7000007629395</ele>
			<time>2014-04-13T13:11:57Z</time>
		</trkpt>
		<trkpt lat="53.8373947143555" lon="13.5169076919556">
			<ele>46.7999992370605</ele>
			<time>2014-04-13T13:11:58Z</time>
		</trkpt>
		<trkpt lat="53.8374214172363" lon="13.5169954299927">
			<ele>46.9000015258789</ele>
			<time>2014-04-13T13:11:59Z</time>
		</trkpt>
		<trkpt lat="53.8374481201172" lon="13.5170831680298">
			<ele>46.7999992370605</ele>
			<time>2014-04-13T13:12:00Z</time>
		</trkpt>
		<trkpt lat="53.8374786376953" lon="13.5171718597412">
			<ele>46.7000007629395</ele>
			<time>2014-04-13T13:12:01Z</time>
		</trkpt>
		<trkpt lat="53.8374977111816" lon="13.5172576904297">
			<ele>46.5999984741211</ele>
			<time>2014-04-13T13:12:02Z</time>
		</trkpt>
		<trkpt lat="53.8375244140625" lon="13.5173444747925">
			<ele>46.5</ele>
			<time>2014-04-13T13:12:03Z</time>
		</trkpt>
		<trkpt lat="53.8375511169434" lon="13.5174341201782">
			<ele>46.2999992370605</ele>
			<time>2014-04-13T13:12:04Z</time>
		</trkpt>
		<trkpt lat="53.837574005127" lon="13.5175294876099">
			<ele>46.2000007629395</ele>
			<time>2014-04-13T13:12:05Z</time>
		</trkpt>
		<trkpt lat="53.8375968933105" lon="13.5176239013672">
			<ele>46</ele>
			<time>2014-04-13T13:12:06Z</time>
		</trkpt>
		<trkpt lat="53.8376197814941" lon="13.5177230834961">
			<ele>45.7999992370605</ele>
			<time>2014-04-13T13:12:07Z</time>
		</trkpt>
		<trkpt lat="53.8376502990723" lon="13.5178184509277">
			<ele>45.7000007629395</ele>
			<time>2014-04-13T13:12:08Z</time>
		</trkpt>
		<trkpt lat="53.8376770019531" lon="13.5179195404053">
			<ele>45.7000007629395</ele>
			<time>2014-04-13T13:12:09Z</time>
		</trkpt>
		<trkpt lat="53.8377075195313" lon="13.518027305603">
			<ele>45.5</ele>
			<time>2014-04-13T13:12:10Z</time>
		</trkpt>
		<trkpt lat="53.8377304077148" lon="13.5181360244751">
			<ele>45.2999992370605</ele>
			<time>2014-04-13T13:12:11Z</time>
		</trkpt>
		<trkpt lat="53.837760925293" lon="13.5182418823242">
			<ele>45.2000007629395</ele>
			<time>2014-04-13T13:12:12Z</time>
		</trkpt>
		<trkpt lat="53.8377914428711" lon="13.5183553695679">
			<ele>45.0999984741211</ele>
			<time>2014-04-13T13:12:13Z</time>
		</trkpt>
		<trkpt lat="53.837818145752" lon="13.5184688568115">
			<ele>44.9000015258789</ele>
			<time>2014-04-13T13:12:14Z</time>
		</trkpt>
		<trkpt lat="53.8378486633301" lon="13.5185804367065">
			<ele>45</ele>
			<time>2014-04-13T13:12:15Z</time>
		</trkpt>
		<trkpt lat="53.8378791809082" lon="13.5186967849731">
			<ele>45</ele>
			<time>2014-04-13T13:12:16Z</time>
		</trkpt>
		<trkpt lat="53.8379135131836" lon="13.5188150405884">
			<ele>44.7999992370605</ele>
			<time>2014-04-13T13:12:17Z</time>
		</trkpt>
		<trkpt lat="53.8379402160645" lon="13.5189352035522">
			<ele>44.9000015258789</ele>
			<time>2014-04-13T13:12:18Z</time>
		</trkpt>
		<trkpt lat="53.8379707336426" lon="13.5190572738647">
			<ele>44.9000015258789</ele>
			<time>2014-04-13T13:12:19Z</time>
		</trkpt>
		<trkpt lat="53.8379974365234" lon="13.5191812515259">
			<ele>44.9000015258789</ele>
			<time>2014-04-13T13:12:20Z</time>
		</trkpt>
		<trkpt lat="53.8380241394043" lon="13.5192975997925">
			<ele>44.7999992370605</ele>
			<time>2014-04-13T13:12:21Z</time>
		</trkpt>
		<trkpt lat="53.8380546569824" lon="13.5194120407104">
			<ele>44.7999992370605</ele>
			<time>2014-04-13T13:12:22Z</time>
		</trkpt>
		<trkpt lat="53.8380851745605" lon="13.5195283889771">
			<ele>44.9000015258789</ele>
			<time>2014-04-13T13:12:23Z</time>
		</trkpt>
		<trkpt lat="53.8381118774414" lon="13.519645690918">
			<ele>44.9000015258789</ele>
			<time>2014-04-13T13:12:24Z</time>
		</trkpt>
		<trkpt lat="53.8381462097168" lon="13.5197620391846">
			<ele>44.9000015258789</ele>
			<time>2014-04-13T13:12:25Z</time>
		</trkpt>
		<trkpt lat="53.8381729125977" lon="13.5198745727539">
			<ele>45</ele>
			<time>2014-04-13T13:12:26Z</time>
		</trkpt>
		<trkpt lat="53.8382034301758" lon="13.5199871063232">
			<ele>45.0999984741211</ele>
			<time>2014-04-13T13:12:27Z</time>
		</trkpt>
		<trkpt lat="53.8382339477539" lon="13.5201015472412">
			<ele>45.4000015258789</ele>
			<time>2014-04-13T13:12:28Z</time>
		</trkpt>
		<trkpt lat="53.8382682800293" lon="13.5202131271362">
			<ele>45.2000007629395</ele>
			<time>2014-04-13T13:12:29Z</time>
		</trkpt>
		<trkpt lat="53.8382949829102" lon="13.5203227996826">
			<ele>45.5999984741211</ele>
			<time>2014-04-13T13:12:30Z</time>
		</trkpt>
		<trkpt lat="53.8383293151855" lon="13.5204334259033">
			<ele>45.5999984741211</ele>
			<time>2014-04-13T13:12:31Z</time>
		</trkpt>
		<trkpt lat="53.8383636474609" lon="13.5205402374268">
			<ele>45.5999984741211</ele>
			<time>2014-04-13T13:12:32Z</time>
		</trkpt>
		<trkpt lat="53.8383979797363" lon="13.5206499099731">
			<ele>45.5999984741211</ele>
			<time>2014-04-13T13:12:33Z</time>
		</trkpt>
		<trkpt lat="53.8384323120117" lon="13.5207605361938">
			<ele>45.7000007629395</ele>
			<time>2014-04-13T13:12:34Z</time>
		</trkpt>
		<trkpt lat="53.8384666442871" lon="13.5208683013916">
			<ele>45.7000007629395</ele>
			<time>2014-04-13T13:12:35Z</time>
		</trkpt>
		<trkpt lat="53.8385047912598" lon="13.5209712982178">
			<ele>45.7000007629395</ele>
			<time>2014-04-13T13:12:36Z</time>
		</trkpt>
		<trkpt lat="53.8385429382324" lon="13.5210762023926">
			<ele>45.7000007629395</ele>
			<time>2014-04-13T13:12:37Z</time>
		</trkpt>
		<trkpt lat="53.8385810852051" lon="13.5211763381958">
			<ele>46.2999992370605</ele>
			<time>2014-04-13T13:12:38Z</time>
		</trkpt>
		<trkpt lat="53.838623046875" lon="13.5212774276733">
			<ele>46.2999992370605</ele>
			<time>2014-04-13T13:12:39Z</time>
		</trkpt>
		<trkpt lat="53.8386611938477" lon="13.5213861465454">
			<ele>46.4000015258789</ele>
			<time>2014-04-13T13:12:40Z</time>
		</trkpt>
		<trkpt lat="53.8387031555176" lon="13.5214881896973">
			<ele>46.2000007629395</ele>
			<time>2014-04-13T13:12:41Z</time>
		</trkpt>
		<trkpt lat="53.8387489318848" lon="13.5215826034546">
			<ele>46.4000015258789</ele>
			<time>2014-04-13T13:12:42Z</time>
		</trkpt>
		<trkpt lat="53.8387908935547" lon="13.5216770172119">
			<ele>46.7000007629395</ele>
			<time>2014-04-13T13:12:43Z</time>
		</trkpt>
		<trkpt lat="53.8388290405273" lon="13.5217790603638">
			<ele>46.5999984741211</ele>
			<time>2014-04-13T13:12:44Z</time>
		</trkpt>
		<trkpt lat="53.8388710021973" lon="13.5218744277954">
			<ele>46.5</ele>
			<time>2014-04-13T13:12:45Z</time>
		</trkpt>
		<trkpt lat="53.8389167785645" lon="13.5219717025757">
			<ele>46.7999992370605</ele>
			<time>2014-04-13T13:12:46Z</time>
		</trkpt>
		<trkpt lat="53.8389549255371" lon="13.522068977356">
			<ele>46.5999984741211</ele>
			<time>2014-04-13T13:12:47Z</time>
		</trkpt>
		<trkpt lat="53.838996887207" lon="13.5221691131592">
			<ele>46.5</ele>
			<time>2014-04-13T13:12:48Z</time>
		</trkpt>
		<trkpt lat="53.839038848877" lon="13.5222673416138">
			<ele>46.5</ele>
			<time>2014-04-13T13:12:49Z</time>
		</trkpt>
		<trkpt lat="53.8390884399414" lon="13.5223636627197">
			<ele>46.7999992370605</ele>
			<time>2014-04-13T13:12:50Z</time>
		</trkpt>
		<trkpt lat="53.8391265869141" lon="13.5224637985229">
			<ele>46.4000015258789</ele>
			<time>2014-04-13T13:12:51Z</time>
		</trkpt>
		<trkpt lat="53.8391647338867" lon="13.5225639343262">
			<ele>45.7000007629395</ele>
			<time>2014-04-13T13:12:52Z</time>
		</trkpt>
		<trkpt lat="53.8392066955566" lon="13.5226669311523">
			<ele>45.5</ele>
			<time>2014-04-13T13:12:53Z</time>
		</trkpt>
		<trkpt lat="53.8392448425293" lon="13.5227699279785">
			<ele>45.2000007629395</ele>
			<time>2014-04-13T13:12:54Z</time>
		</trkpt>
		<trkpt lat="53.839282989502" lon="13.5228700637817">
			<ele>45</ele>
			<time>2014-04-13T13:12:55Z</time>
		</trkpt>
		<trkpt lat="53.8393249511719" lon="13.5229749679565">
			<ele>45.0999984741211</ele>
			<time>2014-04-13T13:12:56Z</time>
		</trkpt>
		<trkpt lat="53.8393630981445" lon="13.5230798721313">
			<ele>45.2000007629395</ele>
			<time>2014-04-13T13:12:57Z</time>
		</trkpt>
		<trkpt lat="53.8393898010254" lon="13.523193359375">
			<ele>45.0999984741211</ele>
			<time>2014-04-13T13:12:58Z</time>
		</trkpt>
		<trkpt lat="53.8394165039063" lon="13.52330493927">
			<ele>44.7999992370605</ele>
			<time>2014-04-13T13:12:59Z</time>
		</trkpt>
		<trkpt lat="53.8394393920898" lon="13.5234251022339">
			<ele>44.5999984741211</ele>
			<time>2014-04-13T13:13:00Z</time>
		</trkpt>
		<trkpt lat="53.8394584655762" lon="13.5235414505005">
			<ele>44.5999984741211</ele>
			<time>2014-04-13T13:13:01Z</time>
		</trkpt>
		<trkpt lat="53.8394660949707" lon="13.523663520813">
			<ele>44.5</ele>
			<time>2014-04-13T13:13:02Z</time>
		</trkpt>
		<trkpt lat="53.8394660949707" lon="13.5237808227539">
			<ele>44.5999984741211</ele>
			<time>2014-04-13T13:13:03Z</time>
		</trkpt>
		<trkpt lat="53.8394660949707" lon="13.5239019393921">
			<ele>44.5</ele>
			<time>2014-04-13T13:13:04Z</time>
		</trkpt>
		<trkpt lat="53.8394622802734" lon="13.524022102356">
			<ele>44.4000015258789</ele>
			<time>2014-04-13T13:13:05Z</time>
		</trkpt>
		<trkpt lat="53.8394622802734" lon="13.5241422653198">
			<ele>44.4000015258789</ele>
			<time>2014-04-13T13:13:06Z</time>
		</trkpt>
		<trkpt lat="53.8394584655762" lon="13.5242567062378">
			<ele>44.2000007629395</ele>
			<time>2014-04-13T13:13:07Z</time>
		</trkpt>
		<trkpt lat="53.8394508361816" lon="13.5243701934814">
			<ele>44</ele>
			<time>2014-04-13T13:13:08Z</time>
		</trkpt>
		<trkpt lat="53.8394470214844" lon="13.524486541748">
			<ele>43.9000015258789</ele>
			<time>2014-04-13T13:13:09Z</time>
		</trkpt>
		<trkpt lat="53.8394432067871" lon="13.5246000289917">
			<ele>43.7999992370605</ele>
			<time>2014-04-13T13:13:10Z</time>
		</trkpt>
		<trkpt lat="53.8394432067871" lon="13.5247135162354">
			<ele>43.9000015258789</ele>
			<time>2014-04-13T13:13:11Z</time>
		</trkpt>
		<trkpt lat="53.8394393920898" lon="13.5248231887817">
			<ele>44.0999984741211</ele>
			<time>2014-04-13T13:13:12Z</time>
		</trkpt>
		<trkpt lat="53.8394393920898" lon="13.5249347686768">
			<ele>44</ele>
			<time>2014-04-13T13:13:13Z</time>
		</trkpt>
		<trkpt lat="53.8394355773926" lon="13.5250482559204">
			<ele>43.9000015258789</ele>
			<time>2014-04-13T13:13:14Z</time>
		</trkpt>
		<trkpt lat="53.8394355773926" lon="13.5251598358154">
			<ele>43.7999992370605</ele>
			<time>2014-04-13T13:13:15Z</time>
		</trkpt>
		<trkpt lat="53.8394355773926" lon="13.5252723693848">
			<ele>43.5999984741211</ele>
			<time>2014-04-13T13:13:16Z</time>
		</trkpt>
		<trkpt lat="53.8394393920898" lon="13.5253849029541">
			<ele>43.4000015258789</ele>
			<time>2014-04-13T13:13:17Z</time>
		</trkpt>
		<trkpt lat="53.8394355773926" lon="13.5254993438721">
			<ele>43.4000015258789</ele>
			<time>2014-04-13T13:13:18Z</time>
		</trkpt>
		<trkpt lat="53.8394393920898" lon="13.5256109237671">
			<ele>43.4000015258789</ele>
			<time>2014-04-13T13:13:19Z</time>
		</trkpt>
		<trkpt lat="53.8394432067871" lon="13.5257244110107">
			<ele>43.4000015258789</ele>
			<time>2014-04-13T13:13:20Z</time>
		</trkpt>
		<trkpt lat="53.8394470214844" lon="13.5258350372314">
			<ele>43.2999992370605</ele>
			<time>2014-04-13T13:13:21Z</time>
		</trkpt>
		<trkpt lat="53.8394546508789" lon="13.5259466171265">
			<ele>43.4000015258789</ele>
			<time>2014-04-13T13:13:22Z</time>
		</trkpt>
		<trkpt lat="53.8394584655762" lon="13.5260601043701">
			<ele>43.2000007629395</ele>
			<time>2014-04-13T13:13:23Z</time>
		</trkpt>
		<trkpt lat="53.8394584655762" lon="13.5261716842651">
			<ele>43.0999984741211</ele>
			<time>2014-04-13T13:13:24Z</time>
		</trkpt>
		<trkpt lat="53.8394584655762" lon="13.5262851715088">
			<ele>43.0999984741211</ele>
			<time>2014-04-13T13:13:25Z</time>
		</trkpt>
		<trkpt lat="53.8394622802734" lon="13.5263938903809">
			<ele>43.0999984741211</ele>
			<time>2014-04-13T13:13:26Z</time>
		</trkpt>
		<trkpt lat="53.8394622802734" lon="13.5265045166016">
			<ele>43.2000007629395</ele>
			<time>2014-04-13T13:13:27Z</time>
		</trkpt>
		<trkpt lat="53.8394622802734" lon="13.5266189575195">
			<ele>43.0999984741211</ele>
			<time>2014-04-13T13:13:28Z</time>
		</trkpt>
		<trkpt lat="53.8394622802734" lon="13.5267314910889">
			<ele>43.2000007629395</ele>
			<time>2014-04-13T13:13:29Z</time>
		</trkpt>
		<trkpt lat="53.839469909668" lon="13.5268449783325">
			<ele>42.7999992370605</ele>
			<time>2014-04-13T13:13:30Z</time>
		</trkpt>
		<trkpt lat="53.8394737243652" lon="13.5269575119019">
			<ele>43</ele>
			<time>2014-04-13T13:13:31Z</time>
		</trkpt>
		<trkpt lat="53.8394775390625" lon="13.5270662307739">
			<ele>43.0999984741211</ele>
			<time>2014-04-13T13:13:32Z</time>
		</trkpt>
		<trkpt lat="53.8395080566406" lon="13.5271615982056">
			<ele>43.0999984741211</ele>
			<time>2014-04-13T13:13:33Z</time>
		</trkpt>
		<trkpt lat="53.8395309448242" lon="13.5272455215454">
			<ele>43</ele>
			<time>2014-04-13T13:13:34Z</time>
		</trkpt>
		<trkpt lat="53.8395500183105" lon="13.5273275375366">
			<ele>43.0999984741211</ele>
			<time>2014-04-13T13:13:35Z</time>
		</trkpt>
		<trkpt lat="53.8395690917969" lon="13.5274095535278">
			<ele>43.0999984741211</ele>
			<time>2014-04-13T13:13:36Z</time>
		</trkpt>
		<trkpt lat="53.8395919799805" lon="13.5275220870972">
			<ele>43</ele>
			<time>2014-04-13T13:13:38Z</time>
		</trkpt>
		<trkpt lat="53.8396186828613" lon="13.5275831222534">
			<ele>42.5999984741211</ele>
			<time>2014-04-13T13:13:41Z</time>
		</trkpt>
		<trkpt lat="53.8396339416504" lon="13.5276565551758">
			<ele>42.5</ele>
			<time>2014-04-13T13:13:44Z</time>
		</trkpt>
		<trkpt lat="53.8395881652832" lon="13.5276899337769">
			<ele>39.7999992370605</ele>
			<time>2014-04-13T13:24:15Z</time>
		</trkpt>
		<trkpt lat="53.8395843505859" lon="13.5277843475342">
			<ele>39.5999984741211</ele>
			<time>2014-04-13T13:24:20Z</time>
		</trkpt>
		<trkpt lat="53.8395690917969" lon="13.527871131897">
			<ele>39.4000015258789</ele>
			<time>2014-04-13T13:24:24Z</time>
		</trkpt>
		<trkpt lat="53.8395042419434" lon="13.5278720855713">
			<ele>38.7000007629395</ele>
			<time>2014-04-13T13:24:27Z</time>
		</trkpt>
		<trkpt lat="53.8394660949707" lon="13.5279512405396">
			<ele>39.2999992370605</ele>
			<time>2014-04-13T13:24:29Z</time>
		</trkpt>
		<trkpt lat="53.8394470214844" lon="13.5280637741089">
			<ele>40.2999992370605</ele>
			<time>2014-04-13T13:24:31Z</time>
		</trkpt>
		<trkpt lat="53.8394355773926" lon="13.528190612793">
			<ele>40.7000007629395</ele>
			<time>2014-04-13T13:24:33Z</time>
		</trkpt>
		<trkpt lat="53.8394470214844" lon="13.5283346176147">
			<ele>40.5999984741211</ele>
			<time>2014-04-13T13:24:35Z</time>
		</trkpt>
		<trkpt lat="53.8394393920898" lon="13.5285243988037">
			<ele>40.7999992370605</ele>
			<time>2014-04-13T13:24:38Z</time>
		</trkpt>
		<trkpt lat="53.8394317626953" lon="13.5286502838135">
			<ele>41.0999984741211</ele>
			<time>2014-04-13T13:24:40Z</time>
		</trkpt>
		<trkpt lat="53.8394317626953" lon="13.5287656784058">
			<ele>40.9000015258789</ele>
			<time>2014-04-13T13:24:42Z</time>
		</trkpt>
		<trkpt lat="53.8394241333008" lon="13.5288763046265">
			<ele>40.2999992370605</ele>
			<time>2014-04-13T13:24:44Z</time>
		</trkpt>
		<trkpt lat="53.8394165039063" lon="13.5289878845215">
			<ele>40.5999984741211</ele>
			<time>2014-04-13T13:24:46Z</time>
		</trkpt>
		<trkpt lat="53.8394050598145" lon="13.5291080474854">
			<ele>40.2999992370605</ele>
			<time>2014-04-13T13:24:48Z</time>
		</trkpt>
		<trkpt lat="53.8393936157227" lon="13.5292453765869">
			<ele>41.2999992370605</ele>
			<time>2014-04-13T13:24:50Z</time>
		</trkpt>
		<trkpt lat="53.8393821716309" lon="13.5293970108032">
			<ele>41</ele>
			<time>2014-04-13T13:24:52Z</time>
		</trkpt>
		<trkpt lat="53.8393783569336" lon="13.5294780731201">
			<ele>41.0999984741211</ele>
			<time>2014-04-13T13:24:53Z</time>
		</trkpt>
		<trkpt lat="53.8393669128418" lon="13.5295648574829">
			<ele>41.5999984741211</ele>
			<time>2014-04-13T13:24:54Z</time>
		</trkpt>
		<trkpt lat="53.8393592834473" lon="13.5296478271484">
			<ele>41.2000007629395</ele>
			<time>2014-04-13T13:24:55Z</time>
		</trkpt>
		<trkpt lat="53.8393478393555" lon="13.5297393798828">
			<ele>41.2000007629395</ele>
			<time>2014-04-13T13:24:56Z</time>
		</trkpt>
		<trkpt lat="53.8393402099609" lon="13.5298280715942">
			<ele>41.0999984741211</ele>
			<time>2014-04-13T13:24:57Z</time>
		</trkpt>
		<trkpt lat="53.8393402099609" lon="13.5299205780029">
			<ele>41.0999984741211</ele>
			<time>2014-04-13T13:24:58Z</time>
		</trkpt>
		<trkpt lat="53.8393402099609" lon="13.5300092697144">
			<ele>41.2000007629395</ele>
			<time>2014-04-13T13:24:59Z</time>
		</trkpt>
		<trkpt lat="53.8393363952637" lon="13.5301027297974">
			<ele>41.2999992370605</ele>
			<time>2014-04-13T13:25:00Z</time>
		</trkpt>
		<trkpt lat="53.8393249511719" lon="13.5301933288574">
			<ele>41.2000007629395</ele>
			<time>2014-04-13T13:25:01Z</time>
		</trkpt>
		<trkpt lat="53.8393096923828" lon="13.5302886962891">
			<ele>41</ele>
			<time>2014-04-13T13:25:02Z</time>
		</trkpt>
		<trkpt lat="53.8392868041992" lon="13.5303916931152">
			<ele>42</ele>
			<time>2014-04-13T13:25:03Z</time>
		</trkpt>
		<trkpt lat="53.8392562866211" lon="13.5304737091064">
			<ele>41.7000007629395</ele>
			<time>2014-04-13T13:25:04Z</time>
		</trkpt>
		<trkpt lat="53.8392219543457" lon="13.5305557250977">
			<ele>41.5</ele>
			<time>2014-04-13T13:25:05Z</time>
		</trkpt>
		<trkpt lat="53.8391723632813" lon="13.5306100845337">
			<ele>41.7999992370605</ele>
			<time>2014-04-13T13:25:06Z</time>
		</trkpt>
		<trkpt lat="53.8391227722168" lon="13.5306673049927">
			<ele>41.5999984741211</ele>
			<time>2014-04-13T13:25:07Z</time>
		</trkpt>
		<trkpt lat="53.8390769958496" lon="13.5307197570801">
			<ele>41.5999984741211</ele>
			<time>2014-04-13T13:25:08Z</time>
		</trkpt>
		<trkpt lat="53.8390274047852" lon="13.5307664871216">
			<ele>41.5</ele>
			<time>2014-04-13T13:25:09Z</time>
		</trkpt>
		<trkpt lat="53.8389778137207" lon="13.5308113098145">
			<ele>41.4000015258789</ele>
			<time>2014-04-13T13:25:10Z</time>
		</trkpt>
		<trkpt lat="53.8389282226563" lon="13.5308532714844">
			<ele>41.4000015258789</ele>
			<time>2014-04-13T13:25:11Z</time>
		</trkpt>
		<trkpt lat="53.8388824462891" lon="13.5308990478516">
			<ele>41.5</ele>
			<time>2014-04-13T13:25:12Z</time>
		</trkpt>
		<trkpt lat="53.8388366699219" lon="13.5309419631958">
			<ele>41.7000007629395</ele>
			<time>2014-04-13T13:25:13Z</time>
		</trkpt>
		<trkpt lat="53.8387908935547" lon="13.5309925079346">
			<ele>41.7000007629395</ele>
			<time>2014-04-13T13:25:14Z</time>
		</trkpt>
		<trkpt lat="53.838752746582" lon="13.5310430526733">
			<ele>41.5</ele>
			<time>2014-04-13T13:25:15Z</time>
		</trkpt>
		<trkpt lat="53.8387145996094" lon="13.5310945510864">
			<ele>41.2999992370605</ele>
			<time>2014-04-13T13:25:16Z</time>
		</trkpt>
		<trkpt lat="53.838680267334" lon="13.5311555862427">
			<ele>40.9000015258789</ele>
			<time>2014-04-13T13:25:17Z</time>
		</trkpt>
		<trkpt lat="53.8386497497559" lon="13.5312232971191">
			<ele>41</ele>
			<time>2014-04-13T13:25:18Z</time>
		</trkpt>
		<trkpt lat="53.838623046875" lon="13.5312948226929">
			<ele>41.4000015258789</ele>
			<time>2014-04-13T13:25:19Z</time>
		</trkpt>
		<trkpt lat="53.8385963439941" lon="13.5313663482666">
			<ele>41.2999992370605</ele>
			<time>2014-04-13T13:25:20Z</time>
		</trkpt>
		<trkpt lat="53.8385734558105" lon="13.5314464569092">
			<ele>41.7000007629395</ele>
			<time>2014-04-13T13:25:21Z</time>
		</trkpt>
		<trkpt lat="53.8385581970215" lon="13.5315294265747">
			<ele>42.0999984741211</ele>
			<time>2014-04-13T13:25:22Z</time>
		</trkpt>
		<trkpt lat="53.8385429382324" lon="13.5316114425659">
			<ele>42</ele>
			<time>2014-04-13T13:25:23Z</time>
		</trkpt>
		<trkpt lat="53.8385314941406" lon="13.5316934585571">
			<ele>42.2999992370605</ele>
			<time>2014-04-13T13:25:24Z</time>
		</trkpt>
		<trkpt lat="53.8385276794434" lon="13.5317764282227">
			<ele>42.2999992370605</ele>
			<time>2014-04-13T13:25:25Z</time>
		</trkpt>
		<trkpt lat="53.8385200500488" lon="13.5318641662598">
			<ele>42.4000015258789</ele>
			<time>2014-04-13T13:25:26Z</time>
		</trkpt>
		<trkpt lat="53.838508605957" lon="13.5319442749023">
			<ele>42.5</ele>
			<time>2014-04-13T13:25:27Z</time>
		</trkpt>
		<trkpt lat="53.8385047912598" lon="13.5320243835449">
			<ele>42.5999984741211</ele>
			<time>2014-04-13T13:25:28Z</time>
		</trkpt>
		<trkpt lat="53.8384971618652" lon="13.5321054458618">
			<ele>42.2999992370605</ele>
			<time>2014-04-13T13:25:29Z</time>
		</trkpt>
		<trkpt lat="53.838493347168" lon="13.532187461853">
			<ele>42.2000007629395</ele>
			<time>2014-04-13T13:25:30Z</time>
		</trkpt>
		<trkpt lat="53.8384819030762" lon="13.5322704315186">
			<ele>42.5999984741211</ele>
			<time>2014-04-13T13:25:31Z</time>
		</trkpt>
		<trkpt lat="53.8384742736816" lon="13.5323467254639">
			<ele>42.5</ele>
			<time>2014-04-13T13:25:32Z</time>
		</trkpt>
		<trkpt lat="53.8384666442871" lon="13.5324239730835">
			<ele>42.2000007629395</ele>
			<time>2014-04-13T13:25:33Z</time>
		</trkpt>
		<trkpt lat="53.8384628295898" lon="13.5325021743774">
			<ele>42.0999984741211</ele>
			<time>2014-04-13T13:25:34Z</time>
		</trkpt>
		<trkpt lat="53.8384475708008" lon="13.5326614379883">
			<ele>42.5</ele>
			<time>2014-04-13T13:25:36Z</time>
		</trkpt>
		<trkpt lat="53.8384399414063" lon="13.5327434539795">
			<ele>42.7999992370605</ele>
			<time>2014-04-13T13:25:37Z</time>
		</trkpt>
		<trkpt lat="53.8384246826172" lon="13.5328235626221">
			<ele>42.9000015258789</ele>
			<time>2014-04-13T13:25:38Z</time>
		</trkpt>
		<trkpt lat="53.8384017944336" lon="13.5328912734985">
			<ele>42.9000015258789</ele>
			<time>2014-04-13T13:25:39Z</time>
		</trkpt>
		<trkpt lat="53.8383712768555" lon="13.5329599380493">
			<ele>42.9000015258789</ele>
			<time>2014-04-13T13:25:40Z</time>
		</trkpt>
		<trkpt lat="53.8383369445801" lon="13.5330152511597">
			<ele>42.7999992370605</ele>
			<time>2014-04-13T13:25:41Z</time>
		</trkpt>
		<trkpt lat="53.8382835388184" lon="13.5330219268799">
			<ele>42.7999992370605</ele>
			<time>2014-04-13T13:25:42Z</time>
		</trkpt>
		<trkpt lat="53.8382377624512" lon="13.5330247879028">
			<ele>42.5999984741211</ele>
			<time>2014-04-13T13:25:43Z</time>
		</trkpt>
		<trkpt lat="53.838191986084" lon="13.5329923629761">
			<ele>42.7000007629395</ele>
			<time>2014-04-13T13:25:44Z</time>
		</trkpt>
		<trkpt lat="53.8381423950195" lon="13.5329627990723">
			<ele>42.9000015258789</ele>
			<time>2014-04-13T13:25:45Z</time>
		</trkpt>
		<trkpt lat="53.8380928039551" lon="13.5329437255859">
			<ele>42.7999992370605</ele>
			<time>2014-04-13T13:25:46Z</time>
		</trkpt>
		<trkpt lat="53.8380355834961" lon="13.5329208374023">
			<ele>43.5</ele>
			<time>2014-04-13T13:25:47Z</time>
		</trkpt>
		<trkpt lat="53.8379821777344" lon="13.5328989028931">
			<ele>43.2000007629395</ele>
			<time>2014-04-13T13:25:48Z</time>
		</trkpt>
		<trkpt lat="53.8379287719727" lon="13.5328769683838">
			<ele>43.4000015258789</ele>
			<time>2014-04-13T13:25:49Z</time>
		</trkpt>
		<trkpt lat="53.8378715515137" lon="13.5328559875488">
			<ele>43.7000007629395</ele>
			<time>2014-04-13T13:25:50Z</time>
		</trkpt>
		<trkpt lat="53.837818145752" lon="13.5328359603882">
			<ele>43.5999984741211</ele>
			<time>2014-04-13T13:25:51Z</time>
		</trkpt>
		<trkpt lat="53.8377647399902" lon="13.5328149795532">
			<ele>43.5</ele>
			<time>2014-04-13T13:25:52Z</time>
		</trkpt>
		<trkpt lat="53.8377113342285" lon="13.5327978134155">
			<ele>43.0999984741211</ele>
			<time>2014-04-13T13:25:53Z</time>
		</trkpt>
		<trkpt lat="53.8376541137695" lon="13.532769203186">
			<ele>42.9000015258789</ele>
			<time>2014-04-13T13:25:54Z</time>
		</trkpt>
		<trkpt lat="53.8376007080078" lon="13.5327444076538">
			<ele>42.9000015258789</ele>
			<time>2014-04-13T13:25:55Z</time>
		</trkpt>
		<trkpt lat="53.8375434875488" lon="13.5327272415161">
			<ele>42.7000007629395</ele>
			<time>2014-04-13T13:25:56Z</time>
		</trkpt>
		<trkpt lat="53.8374900817871" lon="13.5327100753784">
			<ele>42.2999992370605</ele>
			<time>2014-04-13T13:25:57Z</time>
		</trkpt>
		<trkpt lat="53.8374366760254" lon="13.5326900482178">
			<ele>42.2000007629395</ele>
			<time>2014-04-13T13:25:58Z</time>
		</trkpt>
		<trkpt lat="53.8373870849609" lon="13.5326681137085">
			<ele>41.0999984741211</ele>
			<time>2014-04-13T13:25:59Z</time>
		</trkpt>
		<trkpt lat="53.8373336791992" lon="13.5326414108276">
			<ele>40.7999992370605</ele>
			<time>2014-04-13T13:26:00Z</time>
		</trkpt>
		<trkpt lat="53.8372802734375" lon="13.5326242446899">
			<ele>40.7999992370605</ele>
			<time>2014-04-13T13:26:01Z</time>
		</trkpt>
		<trkpt lat="53.8372230529785" lon="13.532600402832">
			<ele>40.7000007629395</ele>
			<time>2014-04-13T13:26:02Z</time>
		</trkpt>
		<trkpt lat="53.8371696472168" lon="13.5325899124146">
			<ele>40.0999984741211</ele>
			<time>2014-04-13T13:26:03Z</time>
		</trkpt>
		<trkpt lat="53.8371200561523" lon="13.5325784683228">
			<ele>40.7000007629395</ele>
			<time>2014-04-13T13:26:04Z</time>
		</trkpt>
		<trkpt lat="53.8370628356934" lon="13.5325603485107">
			<ele>40.9000015258789</ele>
			<time>2014-04-13T13:26:05Z</time>
		</trkpt>
		<trkpt lat="53.8370094299316" lon="13.5325412750244">
			<ele>41.2000007629395</ele>
			<time>2014-04-13T13:26:06Z</time>
		</trkpt>
		<trkpt lat="53.8369560241699" lon="13.5325241088867">
			<ele>41.2000007629395</ele>
			<time>2014-04-13T13:26:07Z</time>
		</trkpt>
		<trkpt lat="53.8369026184082" lon="13.5325040817261">
			<ele>40.9000015258789</ele>
			<time>2014-04-13T13:26:08Z</time>
		</trkpt>
		<trkpt lat="53.8368492126465" lon="13.5324935913086">
			<ele>40.7999992370605</ele>
			<time>2014-04-13T13:26:09Z</time>
		</trkpt>
		<trkpt lat="53.8367958068848" lon="13.5324945449829">
			<ele>41.2999992370605</ele>
			<time>2014-04-13T13:26:10Z</time>
		</trkpt>
		<trkpt lat="53.8367500305176" lon="13.5325021743774">
			<ele>41.5999984741211</ele>
			<time>2014-04-13T13:26:11Z</time>
		</trkpt>
		<trkpt lat="53.8367004394531" lon="13.5325269699097">
			<ele>41.7999992370605</ele>
			<time>2014-04-13T13:26:12Z</time>
		</trkpt>
		<trkpt lat="53.8366508483887" lon="13.5325489044189">
			<ele>41.2999992370605</ele>
			<time>2014-04-13T13:26:13Z</time>
		</trkpt>
		<trkpt lat="53.836597442627" lon="13.5325775146484">
			<ele>41.2999992370605</ele>
			<time>2014-04-13T13:26:14Z</time>
		</trkpt>
		<trkpt lat="53.8365440368652" lon="13.5326051712036">
			<ele>41.5</ele>
			<time>2014-04-13T13:26:15Z</time>
		</trkpt>
		<trkpt lat="53.8364906311035" lon="13.5326299667358">
			<ele>41.4000015258789</ele>
			<time>2014-04-13T13:26:16Z</time>
		</trkpt>
		<trkpt lat="53.8364372253418" lon="13.532657623291">
			<ele>41.5</ele>
			<time>2014-04-13T13:26:17Z</time>
		</trkpt>
		<trkpt lat="53.8363838195801" lon="13.5326929092407">
			<ele>41.5999984741211</ele>
			<time>2014-04-13T13:26:18Z</time>
		</trkpt>
		<trkpt lat="53.8363304138184" lon="13.5327291488647">
			<ele>42</ele>
			<time>2014-04-13T13:26:19Z</time>
		</trkpt>
		<trkpt lat="53.8362770080566" lon="13.5327644348145">
			<ele>41.9000015258789</ele>
			<time>2014-04-13T13:26:20Z</time>
		</trkpt>
		<trkpt lat="53.8362236022949" lon="13.5328016281128">
			<ele>41.7000007629395</ele>
			<time>2014-04-13T13:26:21Z</time>
		</trkpt>
		<trkpt lat="53.8361701965332" lon="13.532844543457">
			<ele>41.5999984741211</ele>
			<time>2014-04-13T13:26:22Z</time>
		</trkpt>
		<trkpt lat="53.8361167907715" lon="13.5328912734985">
			<ele>41.9000015258789</ele>
			<time>2014-04-13T13:26:23Z</time>
		</trkpt>
		<trkpt lat="53.8360595703125" lon="13.5329275131226">
			<ele>41.5999984741211</ele>
			<time>2014-04-13T13:26:24Z</time>
		</trkpt>
		<trkpt lat="53.8360023498535" lon="13.5329532623291">
			<ele>41.9000015258789</ele>
			<time>2014-04-13T13:26:25Z</time>
		</trkpt>
		<trkpt lat="53.8359527587891" lon="13.5329933166504">
			<ele>42.0999984741211</ele>
			<time>2014-04-13T13:26:26Z</time>
		</trkpt>
		<trkpt lat="53.8358917236328" lon="13.5330257415771">
			<ele>42</ele>
			<time>2014-04-13T13:26:27Z</time>
		</trkpt>
		<trkpt lat="53.8358345031738" lon="13.5330591201782">
			<ele>42.0999984741211</ele>
			<time>2014-04-13T13:26:28Z</time>
		</trkpt>
		<trkpt lat="53.8357772827148" lon="13.5330953598022">
			<ele>42.2000007629395</ele>
			<time>2014-04-13T13:26:29Z</time>
		</trkpt>
		<trkpt lat="53.8357200622559" lon="13.533130645752">
			<ele>42.5</ele>
			<time>2014-04-13T13:26:30Z</time>
		</trkpt>
		<trkpt lat="53.8356628417969" lon="13.533164024353">
			<ele>42.2000007629395</ele>
			<time>2014-04-13T13:26:31Z</time>
		</trkpt>
		<trkpt lat="53.8356056213379" lon="13.5331983566284">
			<ele>42</ele>
			<time>2014-04-13T13:26:32Z</time>
		</trkpt>
		<trkpt lat="53.8355522155762" lon="13.5332326889038">
			<ele>41.5999984741211</ele>
			<time>2014-04-13T13:26:33Z</time>
		</trkpt>
		<trkpt lat="53.8354949951172" lon="13.5332632064819">
			<ele>41.7999992370605</ele>
			<time>2014-04-13T13:26:34Z</time>
		</trkpt>
		<trkpt lat="53.8354377746582" lon="13.5333023071289">
			<ele>41.9000015258789</ele>
			<time>2014-04-13T13:26:35Z</time>
		</trkpt>
		<trkpt lat="53.8353843688965" lon="13.53333568573">
			<ele>41.5999984741211</ele>
			<time>2014-04-13T13:26:36Z</time>
		</trkpt>
		<trkpt lat="53.8353309631348" lon="13.5333709716797">
			<ele>41.7000007629395</ele>
			<time>2014-04-13T13:26:37Z</time>
		</trkpt>
		<trkpt lat="53.8352737426758" lon="13.5334062576294">
			<ele>41.2000007629395</ele>
			<time>2014-04-13T13:26:38Z</time>
		</trkpt>
		<trkpt lat="53.8352165222168" lon="13.5334386825562">
			<ele>41.2000007629395</ele>
			<time>2014-04-13T13:26:39Z</time>
		</trkpt>
		<trkpt lat="53.8351593017578" lon="13.5334720611572">
			<ele>41.0999984741211</ele>
			<time>2014-04-13T13:26:40Z</time>
		</trkpt>
		<trkpt lat="53.8351058959961" lon="13.533504486084">
			<ele>40.9000015258789</ele>
			<time>2014-04-13T13:26:41Z</time>
		</trkpt>
		<trkpt lat="53.8350486755371" lon="13.5335397720337">
			<ele>40.5999984741211</ele>
			<time>2014-04-13T13:26:42Z</time>
		</trkpt>
		<trkpt lat="53.8349914550781" lon="13.5335750579834">
			<ele>40.5</ele>
			<time>2014-04-13T13:26:43Z</time>
		</trkpt>
		<trkpt lat="53.8349380493164" lon="13.5336112976074">
			<ele>40.5</ele>
			<time>2014-04-13T13:26:44Z</time>
		</trkpt>
		<trkpt lat="53.8348846435547" lon="13.5336465835571">
			<ele>40.4000015258789</ele>
			<time>2014-04-13T13:26:45Z</time>
		</trkpt>
		<trkpt lat="53.834831237793" lon="13.5336790084839">
			<ele>40.7000007629395</ele>
			<time>2014-04-13T13:26:46Z</time>
		</trkpt>
		<trkpt lat="53.834774017334" lon="13.5337133407593">
			<ele>40.2999992370605</ele>
			<time>2014-04-13T13:26:47Z</time>
		</trkpt>
		<trkpt lat="53.8347206115723" lon="13.5337467193604">
			<ele>40.2000007629395</ele>
			<time>2014-04-13T13:26:48Z</time>
		</trkpt>
		<trkpt lat="53.8346672058105" lon="13.5337810516357">
			<ele>39.9000015258789</ele>
			<time>2014-04-13T13:26:49Z</time>
		</trkpt>
		<trkpt lat="53.8346099853516" lon="13.5338144302368">
			<ele>40</ele>
			<time>2014-04-13T13:26:50Z</time>
		</trkpt>
		<trkpt lat="53.8345565795898" lon="13.5338506698608">
			<ele>40.0999984741211</ele>
			<time>2014-04-13T13:26:51Z</time>
		</trkpt>
		<trkpt lat="53.8344993591309" lon="13.5338888168335">
			<ele>40.5</ele>
			<time>2014-04-13T13:26:52Z</time>
		</trkpt>
		<trkpt lat="53.8344459533691" lon="13.5339202880859">
			<ele>40.2000007629395</ele>
			<time>2014-04-13T13:26:53Z</time>
		</trkpt>
		<trkpt lat="53.8343887329102" lon="13.5339527130127">
			<ele>40.4000015258789</ele>
			<time>2014-04-13T13:26:54Z</time>
		</trkpt>
		<trkpt lat="53.8343353271484" lon="13.5339889526367">
			<ele>40.2999992370605</ele>
			<time>2014-04-13T13:26:55Z</time>
		</trkpt>
		<trkpt lat="53.834285736084" lon="13.5340261459351">
			<ele>40.4000015258789</ele>
			<time>2014-04-13T13:26:56Z</time>
		</trkpt>
		<trkpt lat="53.8342323303223" lon="13.5340623855591">
			<ele>40.2000007629395</ele>
			<time>2014-04-13T13:26:57Z</time>
		</trkpt>
		<trkpt lat="53.8341789245605" lon="13.5340948104858">
			<ele>40.5</ele>
			<time>2014-04-13T13:26:58Z</time>
		</trkpt>
		<trkpt lat="53.8341255187988" lon="13.5341300964355">
			<ele>40.2999992370605</ele>
			<time>2014-04-13T13:26:59Z</time>
		</trkpt>
		<trkpt lat="53.8340644836426" lon="13.5341701507568">
			<ele>40.5999984741211</ele>
			<time>2014-04-13T13:27:00Z</time>
		</trkpt>
		<trkpt lat="53.8340110778809" lon="13.534197807312">
			<ele>40.0999984741211</ele>
			<time>2014-04-13T13:27:01Z</time>
		</trkpt>
		<trkpt lat="53.8339538574219" lon="13.5342350006104">
			<ele>40.5</ele>
			<time>2014-04-13T13:27:02Z</time>
		</trkpt>
		<trkpt lat="53.8338966369629" lon="13.5342702865601">
			<ele>40.7000007629395</ele>
			<time>2014-04-13T13:27:03Z</time>
		</trkpt>
		<trkpt lat="53.8338432312012" lon="13.5342969894409">
			<ele>40.7000007629395</ele>
			<time>2014-04-13T13:27:04Z</time>
		</trkpt>
		<trkpt lat="53.8337898254395" lon="13.5343360900879">
			<ele>40.5999984741211</ele>
			<time>2014-04-13T13:27:05Z</time>
		</trkpt>
		<trkpt lat="53.833740234375" lon="13.5343608856201">
			<ele>41.2000007629395</ele>
			<time>2014-04-13T13:27:06Z</time>
		</trkpt>
		<trkpt lat="53.833683013916" lon="13.5343980789185">
			<ele>40.9000015258789</ele>
			<time>2014-04-13T13:27:07Z</time>
		</trkpt>
		<trkpt lat="53.8336296081543" lon="13.5344362258911">
			<ele>40.7999992370605</ele>
			<time>2014-04-13T13:27:08Z</time>
		</trkpt>
		<trkpt lat="53.8335762023926" lon="13.5344743728638">
			<ele>40.7000007629395</ele>
			<time>2014-04-13T13:27:09Z</time>
		</trkpt>
		<trkpt lat="53.8335266113281" lon="13.5345077514648">
			<ele>40.7999992370605</ele>
			<time>2014-04-13T13:27:10Z</time>
		</trkpt>
		<trkpt lat="53.8334655761719" lon="13.5345449447632">
			<ele>40.5</ele>
			<time>2014-04-13T13:27:11Z</time>
		</trkpt>
		<trkpt lat="53.8334121704102" lon="13.5345783233643">
			<ele>40.5999984741211</ele>
			<time>2014-04-13T13:27:12Z</time>
		</trkpt>
		<trkpt lat="53.8333549499512" lon="13.5346126556396">
			<ele>40.7000007629395</ele>
			<time>2014-04-13T13:27:13Z</time>
		</trkpt>
		<trkpt lat="53.8333015441895" lon="13.5346441268921">
			<ele>40.9000015258789</ele>
			<time>2014-04-13T13:27:14Z</time>
		</trkpt>
		<trkpt lat="53.8332481384277" lon="13.5346784591675">
			<ele>40.7000007629395</ele>
			<time>2014-04-13T13:27:15Z</time>
		</trkpt>
		<trkpt lat="53.8331985473633" lon="13.5347137451172">
			<ele>40.7999992370605</ele>
			<time>2014-04-13T13:27:16Z</time>
		</trkpt>
		<trkpt lat="53.8331451416016" lon="13.534740447998">
			<ele>40.7999992370605</ele>
			<time>2014-04-13T13:27:17Z</time>
		</trkpt>
		<trkpt lat="53.8330879211426" lon="13.5347681045532">
			<ele>40.7999992370605</ele>
			<time>2014-04-13T13:27:18Z</time>
		</trkpt>
		<trkpt lat="53.8330307006836" lon="13.5348024368286">
			<ele>40.7999992370605</ele>
			<time>2014-04-13T13:27:19Z</time>
		</trkpt>
		<trkpt lat="53.8329772949219" lon="13.534836769104">
			<ele>40.7999992370605</ele>
			<time>2014-04-13T13:27:20Z</time>
		</trkpt>
		<trkpt lat="53.8329238891602" lon="13.5348749160767">
			<ele>40.9000015258789</ele>
			<time>2014-04-13T13:27:21Z</time>
		</trkpt>
		<trkpt lat="53.8328704833984" lon="13.5349130630493">
			<ele>41.0999984741211</ele>
			<time>2014-04-13T13:27:22Z</time>
		</trkpt>
		<trkpt lat="53.832820892334" lon="13.5349559783936">
			<ele>41.2000007629395</ele>
			<time>2014-04-13T13:27:23Z</time>
		</trkpt>
		<trkpt lat="53.832763671875" lon="13.5349864959717">
			<ele>41.2000007629395</ele>
			<time>2014-04-13T13:27:24Z</time>
		</trkpt>
		<trkpt lat="53.8326988220215" lon="13.5350189208984">
			<ele>41.2000007629395</ele>
			<time>2014-04-13T13:27:25Z</time>
		</trkpt>
		<trkpt lat="53.8326454162598" lon="13.5350570678711">
			<ele>40.9000015258789</ele>
			<time>2014-04-13T13:27:26Z</time>
		</trkpt>
		<trkpt lat="53.8325805664063" lon="13.5350847244263">
			<ele>40</ele>
			<time>2014-04-13T13:27:27Z</time>
		</trkpt>
		<trkpt lat="53.8325233459473" lon="13.5351285934448">
			<ele>40.0999984741211</ele>
			<time>2014-04-13T13:27:28Z</time>
		</trkpt>
		<trkpt lat="53.8324699401855" lon="13.5351610183716">
			<ele>40.4000015258789</ele>
			<time>2014-04-13T13:27:29Z</time>
		</trkpt>
		<trkpt lat="53.8324127197266" lon="13.5351915359497">
			<ele>41</ele>
			<time>2014-04-13T13:27:30Z</time>
		</trkpt>
		<trkpt lat="53.8323554992676" lon="13.5352220535278">
			<ele>40.5</ele>
			<time>2014-04-13T13:27:31Z</time>
		</trkpt>
		<trkpt lat="53.8323020935059" lon="13.5352640151978">
			<ele>40.5</ele>
			<time>2014-04-13T13:27:32Z</time>
		</trkpt>
		<trkpt lat="53.8322410583496" lon="13.5353002548218">
			<ele>40.7000007629395</ele>
			<time>2014-04-13T13:27:33Z</time>
		</trkpt>
		<trkpt lat="53.8321838378906" lon="13.5353298187256">
			<ele>41.2999992370605</ele>
			<time>2014-04-13T13:27:34Z</time>
		</trkpt>
		<trkpt lat="53.8321266174316" lon="13.535364151001">
			<ele>41.4000015258789</ele>
			<time>2014-04-13T13:27:35Z</time>
		</trkpt>
		<trkpt lat="53.8320693969727" lon="13.5354051589966">
			<ele>41.5</ele>
			<time>2014-04-13T13:27:36Z</time>
		</trkpt>
		<trkpt lat="53.8320198059082" lon="13.5354385375977">
			<ele>41.4000015258789</ele>
			<time>2014-04-13T13:27:37Z</time>
		</trkpt>
		<trkpt lat="53.8319625854492" lon="13.535475730896">
			<ele>41.7000007629395</ele>
			<time>2014-04-13T13:27:38Z</time>
		</trkpt>
		<trkpt lat="53.8319053649902" lon="13.5355138778687">
			<ele>41.9000015258789</ele>
			<time>2014-04-13T13:27:39Z</time>
		</trkpt>
		<trkpt lat="53.8318481445313" lon="13.535548210144">
			<ele>41.2999992370605</ele>
			<time>2014-04-13T13:27:40Z</time>
		</trkpt>
		<trkpt lat="53.8317909240723" lon="13.5355844497681">
			<ele>41.2000007629395</ele>
			<time>2014-04-13T13:27:41Z</time>
		</trkpt>
		<trkpt lat="53.8317413330078" lon="13.535623550415">
			<ele>40.7999992370605</ele>
			<time>2014-04-13T13:27:42Z</time>
		</trkpt>
		<trkpt lat="53.8316879272461" lon="13.5356616973877">
			<ele>40.7999992370605</ele>
			<time>2014-04-13T13:27:43Z</time>
		</trkpt>
		<trkpt lat="53.8316383361816" lon="13.5357007980347">
			<ele>41.0999984741211</ele>
			<time>2014-04-13T13:27:44Z</time>
		</trkpt>
		<trkpt lat="53.8315811157227" lon="13.5357332229614">
			<ele>41.2000007629395</ele>
			<time>2014-04-13T13:27:45Z</time>
		</trkpt>
		<trkpt lat="53.8315277099609" lon="13.5357685089111">
			<ele>41</ele>
			<time>2014-04-13T13:27:46Z</time>
		</trkpt>
		<trkpt lat="53.8314781188965" lon="13.5358037948608">
			<ele>41.2000007629395</ele>
			<time>2014-04-13T13:27:47Z</time>
		</trkpt>
		<trkpt lat="53.8314247131348" lon="13.5358371734619">
			<ele>40.7000007629395</ele>
			<time>2014-04-13T13:27:48Z</time>
		</trkpt>
		<trkpt lat="53.831371307373" lon="13.5358743667603">
			<ele>40.4000015258789</ele>
			<time>2014-04-13T13:27:49Z</time>
		</trkpt>
		<trkpt lat="53.8313140869141" lon="13.5359153747559">
			<ele>40.2000007629395</ele>
			<time>2014-04-13T13:27:50Z</time>
		</trkpt>
		<trkpt lat="53.8312606811523" lon="13.5359506607056">
			<ele>40.5999984741211</ele>
			<time>2014-04-13T13:27:51Z</time>
		</trkpt>
		<trkpt lat="53.8312110900879" lon="13.5359907150269">
			<ele>40.5</ele>
			<time>2014-04-13T13:27:52Z</time>
		</trkpt>
		<trkpt lat="53.8311653137207" lon="13.5360288619995">
			<ele>40.7000007629395</ele>
			<time>2014-04-13T13:27:53Z</time>
		</trkpt>
		<trkpt lat="53.8311157226563" lon="13.5360641479492">
			<ele>40.7999992370605</ele>
			<time>2014-04-13T13:27:54Z</time>
		</trkpt>
		<trkpt lat="53.8310623168945" lon="13.5361070632935">
			<ele>40.5999984741211</ele>
			<time>2014-04-13T13:27:55Z</time>
		</trkpt>
		<trkpt lat="53.8310127258301" lon="13.5361452102661">
			<ele>40.5</ele>
			<time>2014-04-13T13:27:56Z</time>
		</trkpt>
		<trkpt lat="53.8309631347656" lon="13.5361890792847">
			<ele>40.5999984741211</ele>
			<time>2014-04-13T13:27:57Z</time>
		</trkpt>
		<trkpt lat="53.8309135437012" lon="13.5362348556519">
			<ele>40.5999984741211</ele>
			<time>2014-04-13T13:27:58Z</time>
		</trkpt>
		<trkpt lat="53.8308639526367" lon="13.5362863540649">
			<ele>40.4000015258789</ele>
			<time>2014-04-13T13:27:59Z</time>
		</trkpt>
		<trkpt lat="53.830810546875" lon="13.5363473892212">
			<ele>40.0999984741211</ele>
			<time>2014-04-13T13:28:00Z</time>
		</trkpt>
		<trkpt lat="53.8307571411133" lon="13.5364055633545">
			<ele>40.4000015258789</ele>
			<time>2014-04-13T13:28:01Z</time>
		</trkpt>
		<trkpt lat="53.8307075500488" lon="13.5364570617676">
			<ele>40</ele>
			<time>2014-04-13T13:28:02Z</time>
		</trkpt>
		<trkpt lat="53.8306579589844" lon="13.536524772644">
			<ele>40</ele>
			<time>2014-04-13T13:28:03Z</time>
		</trkpt>
		<trkpt lat="53.8306045532227" lon="13.5365924835205">
			<ele>40</ele>
			<time>2014-04-13T13:28:04Z</time>
		</trkpt>
		<trkpt lat="53.8305511474609" lon="13.5366554260254">
			<ele>40.0999984741211</ele>
			<time>2014-04-13T13:28:05Z</time>
		</trkpt>
		<trkpt lat="53.8305015563965" lon="13.536717414856">
			<ele>40.2000007629395</ele>
			<time>2014-04-13T13:28:06Z</time>
		</trkpt>
		<trkpt lat="53.830451965332" lon="13.5367851257324">
			<ele>40.2999992370605</ele>
			<time>2014-04-13T13:28:07Z</time>
		</trkpt>
		<trkpt lat="53.8304023742676" lon="13.5368556976318">
			<ele>40.5999984741211</ele>
			<time>2014-04-13T13:28:08Z</time>
		</trkpt>
		<trkpt lat="53.8303604125977" lon="13.5369291305542">
			<ele>41</ele>
			<time>2014-04-13T13:28:09Z</time>
		</trkpt>
		<trkpt lat="53.8303070068359" lon="13.5369987487793">
			<ele>39.7000007629395</ele>
			<time>2014-04-13T13:28:10Z</time>
		</trkpt>
		<trkpt lat="53.8302574157715" lon="13.5370788574219">
			<ele>39.7000007629395</ele>
			<time>2014-04-13T13:28:11Z</time>
		</trkpt>
		<trkpt lat="53.8302116394043" lon="13.5371618270874">
			<ele>39.5999984741211</ele>
			<time>2014-04-13T13:28:12Z</time>
		</trkpt>
		<trkpt lat="53.8301620483398" lon="13.5372285842896">
			<ele>39.2999992370605</ele>
			<time>2014-04-13T13:28:13Z</time>
		</trkpt>
		<trkpt lat="53.8301124572754" lon="13.5373058319092">
			<ele>40.0999984741211</ele>
			<time>2014-04-13T13:28:14Z</time>
		</trkpt>
		<trkpt lat="53.8300590515137" lon="13.5373849868774">
			<ele>39.7000007629395</ele>
			<time>2014-04-13T13:28:15Z</time>
		</trkpt>
		<trkpt lat="53.830005645752" lon="13.5374584197998">
			<ele>39.5999984741211</ele>
			<time>2014-04-13T13:28:16Z</time>
		</trkpt>
		<trkpt lat="53.8299598693848" lon="13.5375232696533">
			<ele>39.2999992370605</ele>
			<time>2014-04-13T13:28:17Z</time>
		</trkpt>
		<trkpt lat="53.829906463623" lon="13.5375928878784">
			<ele>39.5</ele>
			<time>2014-04-13T13:28:18Z</time>
		</trkpt>
		<trkpt lat="53.8298568725586" lon="13.5376539230347">
			<ele>39.2999992370605</ele>
			<time>2014-04-13T13:28:19Z</time>
		</trkpt>
		<trkpt lat="53.8297958374023" lon="13.5376968383789">
			<ele>39.2999992370605</ele>
			<time>2014-04-13T13:28:20Z</time>
		</trkpt>
		<trkpt lat="53.8297424316406" lon="13.5377445220947">
			<ele>39.0999984741211</ele>
			<time>2014-04-13T13:28:21Z</time>
		</trkpt>
		<trkpt lat="53.8296890258789" lon="13.5377883911133">
			<ele>39</ele>
			<time>2014-04-13T13:28:22Z</time>
		</trkpt>
		<trkpt lat="53.8296318054199" lon="13.5378341674805">
			<ele>39.2999992370605</ele>
			<time>2014-04-13T13:28:23Z</time>
		</trkpt>
		<trkpt lat="53.8295783996582" lon="13.5378723144531">
			<ele>39.5</ele>
			<time>2014-04-13T13:28:24Z</time>
		</trkpt>
		<trkpt lat="53.8295211791992" lon="13.5379133224487">
			<ele>39.7999992370605</ele>
			<time>2014-04-13T13:28:25Z</time>
		</trkpt>
		<trkpt lat="53.8294639587402" lon="13.5379505157471">
			<ele>39.7000007629395</ele>
			<time>2014-04-13T13:28:26Z</time>
		</trkpt>
		<trkpt lat="53.8294067382813" lon="13.5379800796509">
			<ele>39.5999984741211</ele>
			<time>2014-04-13T13:28:27Z</time>
		</trkpt>
		<trkpt lat="53.8293533325195" lon="13.5380096435547">
			<ele>39.5</ele>
			<time>2014-04-13T13:28:28Z</time>
		</trkpt>
		<trkpt lat="53.8292999267578" lon="13.5380382537842">
			<ele>39.7000007629395</ele>
			<time>2014-04-13T13:28:29Z</time>
		</trkpt>
		<trkpt lat="53.8292427062988" lon="13.5380592346191">
			<ele>39.5999984741211</ele>
			<time>2014-04-13T13:28:30Z</time>
		</trkpt>
		<trkpt lat="53.8291854858398" lon="13.5380811691284">
			<ele>40</ele>
			<time>2014-04-13T13:28:31Z</time>
		</trkpt>
		<trkpt lat="53.8291282653809" lon="13.5381002426147">
			<ele>39.7000007629395</ele>
			<time>2014-04-13T13:28:32Z</time>
		</trkpt>
		<trkpt lat="53.8290710449219" lon="13.5381183624268">
			<ele>40</ele>
			<time>2014-04-13T13:28:33Z</time>
		</trkpt>
		<trkpt lat="53.8290138244629" lon="13.5381298065186">
			<ele>40.2000007629395</ele>
			<time>2014-04-13T13:28:34Z</time>
		</trkpt>
		<trkpt lat="53.8289604187012" lon="13.5381364822388">
			<ele>40.2000007629395</ele>
			<time>2014-04-13T13:28:35Z</time>
		</trkpt>
		<trkpt lat="53.8289070129395" lon="13.5381450653076">
			<ele>40.5999984741211</ele>
			<time>2014-04-13T13:28:36Z</time>
		</trkpt>
		<trkpt lat="53.8288497924805" lon="13.5381555557251">
			<ele>40.5</ele>
			<time>2014-04-13T13:28:37Z</time>
		</trkpt>
		<trkpt lat="53.8287963867188" lon="13.5381593704224">
			<ele>40.5999984741211</ele>
			<time>2014-04-13T13:28:38Z</time>
		</trkpt>
		<trkpt lat="53.828742980957" lon="13.5381698608398">
			<ele>40.5999984741211</ele>
			<time>2014-04-13T13:28:39Z</time>
		</trkpt>
		<trkpt lat="53.8286933898926" lon="13.5381746292114">
			<ele>40.4000015258789</ele>
			<time>2014-04-13T13:28:40Z</time>
		</trkpt>
		<trkpt lat="53.8286437988281" lon="13.5381765365601">
			<ele>40.4000015258789</ele>
			<time>2014-04-13T13:28:41Z</time>
		</trkpt>
		<trkpt lat="53.8285942077637" lon="13.5381774902344">
			<ele>40.2000007629395</ele>
			<time>2014-04-13T13:28:42Z</time>
		</trkpt>
		<trkpt lat="53.8285446166992" lon="13.5381755828857">
			<ele>40.0999984741211</ele>
			<time>2014-04-13T13:28:43Z</time>
		</trkpt>
		<trkpt lat="53.828498840332" lon="13.5381746292114">
			<ele>40.5</ele>
			<time>2014-04-13T13:28:44Z</time>
		</trkpt>
		<trkpt lat="53.8284530639648" lon="13.5381708145142">
			<ele>40.2999992370605</ele>
			<time>2014-04-13T13:28:45Z</time>
		</trkpt>
		<trkpt lat="53.8283615112305" lon="13.5381717681885">
			<ele>40</ele>
			<time>2014-04-13T13:28:47Z</time>
		</trkpt>
		<trkpt lat="53.8282775878906" lon="13.538182258606">
			<ele>39.7999992370605</ele>
			<time>2014-04-13T13:28:49Z</time>
		</trkpt>
		<trkpt lat="53.8281898498535" lon="13.5381927490234">
			<ele>39.9000015258789</ele>
			<time>2014-04-13T13:28:51Z</time>
		</trkpt>
		<trkpt lat="53.8281440734863" lon="13.5381946563721">
			<ele>40.2000007629395</ele>
			<time>2014-04-13T13:28:52Z</time>
		</trkpt>
		<trkpt lat="53.8280601501465" lon="13.5382099151611">
			<ele>40.2000007629395</ele>
			<time>2014-04-13T13:28:54Z</time>
		</trkpt>
		<trkpt lat="53.8279800415039" lon="13.538236618042">
			<ele>40.4000015258789</ele>
			<time>2014-04-13T13:28:56Z</time>
		</trkpt>
		<trkpt lat="53.8279075622559" lon="13.5382623672485">
			<ele>40.5999984741211</ele>
			<time>2014-04-13T13:28:58Z</time>
		</trkpt>
		<trkpt lat="53.8278350830078" lon="13.5382823944092">
			<ele>40.7000007629395</ele>
			<time>2014-04-13T13:29:00Z</time>
		</trkpt>
		<trkpt lat="53.8277778625488" lon="13.5382890701294">
			<ele>40.9000015258789</ele>
			<time>2014-04-13T13:29:02Z</time>
		</trkpt>
		<trkpt lat="53.8277206420898" lon="13.5382957458496">
			<ele>41.0999984741211</ele>
			<time>2014-04-13T13:29:04Z</time>
		</trkpt>
		<trkpt lat="53.8276481628418" lon="13.5383243560791">
			<ele>40.9000015258789</ele>
			<time>2014-04-13T13:29:06Z</time>
		</trkpt>
		<trkpt lat="53.8275680541992" lon="13.5383749008179">
			<ele>40.7000007629395</ele>
			<time>2014-04-13T13:29:08Z</time>
		</trkpt>
		<trkpt lat="53.827522277832" lon="13.5384073257446">
			<ele>40.5</ele>
			<time>2014-04-13T13:29:09Z</time>
		</trkpt>
		<trkpt lat="53.8274765014648" lon="13.5384387969971">
			<ele>40.7000007629395</ele>
			<time>2014-04-13T13:29:10Z</time>
		</trkpt>
		<trkpt lat="53.8274345397949" lon="13.5384750366211">
			<ele>40.7999992370605</ele>
			<time>2014-04-13T13:29:11Z</time>
		</trkpt>
		<trkpt lat="53.8273887634277" lon="13.5385150909424">
			<ele>40.7000007629395</ele>
			<time>2014-04-13T13:29:12Z</time>
		</trkpt>
		<trkpt lat="53.8273429870605" lon="13.5385608673096">
			<ele>40.7999992370605</ele>
			<time>2014-04-13T13:29:13Z</time>
		</trkpt>
		<trkpt lat="53.8272933959961" lon="13.5386018753052">
			<ele>41</ele>
			<time>2014-04-13T13:29:14Z</time>
		</trkpt>
		<trkpt lat="53.8272476196289" lon="13.5386447906494">
			<ele>40.9000015258789</ele>
			<time>2014-04-13T13:29:15Z</time>
		</trkpt>
		<trkpt lat="53.8272018432617" lon="13.5386905670166">
			<ele>41</ele>
			<time>2014-04-13T13:29:16Z</time>
		</trkpt>
		<trkpt lat="53.8271522521973" lon="13.5387306213379">
			<ele>40.9000015258789</ele>
			<time>2014-04-13T13:29:17Z</time>
		</trkpt>
		<trkpt lat="53.8271026611328" lon="13.5387725830078">
			<ele>40.7999992370605</ele>
			<time>2014-04-13T13:29:18Z</time>
		</trkpt>
		<trkpt lat="53.8270530700684" lon="13.5388202667236">
			<ele>40.5999984741211</ele>
			<time>2014-04-13T13:29:19Z</time>
		</trkpt>
		<trkpt lat="53.8270034790039" lon="13.5388641357422">
			<ele>40.2999992370605</ele>
			<time>2014-04-13T13:29:20Z</time>
		</trkpt>
		<trkpt lat="53.8269577026367" lon="13.5389060974121">
			<ele>40.4000015258789</ele>
			<time>2014-04-13T13:29:21Z</time>
		</trkpt>
		<trkpt lat="53.8269081115723" lon="13.5389451980591">
			<ele>40.2999992370605</ele>
			<time>2014-04-13T13:29:22Z</time>
		</trkpt>
		<trkpt lat="53.8268585205078" lon="13.5389852523804">
			<ele>40.2999992370605</ele>
			<time>2014-04-13T13:29:23Z</time>
		</trkpt>
		<trkpt lat="53.8268127441406" lon="13.5390253067017">
			<ele>40.0999984741211</ele>
			<time>2014-04-13T13:29:24Z</time>
		</trkpt>
		<trkpt lat="53.8267631530762" lon="13.5390672683716">
			<ele>40</ele>
			<time>2014-04-13T13:29:25Z</time>
		</trkpt>
		<trkpt lat="53.8267097473145" lon="13.5391054153442">
			<ele>40.0999984741211</ele>
			<time>2014-04-13T13:29:26Z</time>
		</trkpt>
		<trkpt lat="53.82666015625" lon="13.5391492843628">
			<ele>40.2000007629395</ele>
			<time>2014-04-13T13:29:27Z</time>
		</trkpt>
		<trkpt lat="53.8266143798828" lon="13.5391941070557">
			<ele>40.2000007629395</ele>
			<time>2014-04-13T13:29:28Z</time>
		</trkpt>
		<trkpt lat="53.8265686035156" lon="13.5392389297485">
			<ele>40.2000007629395</ele>
			<time>2014-04-13T13:29:29Z</time>
		</trkpt>
		<trkpt lat="53.8265228271484" lon="13.53928565979">
			<ele>40.2999992370605</ele>
			<time>2014-04-13T13:29:30Z</time>
		</trkpt>
		<trkpt lat="53.826473236084" lon="13.5393304824829">
			<ele>40.2000007629395</ele>
			<time>2014-04-13T13:29:31Z</time>
		</trkpt>
		<trkpt lat="53.8264274597168" lon="13.5393657684326">
			<ele>40.5</ele>
			<time>2014-04-13T13:29:32Z</time>
		</trkpt>
		<trkpt lat="53.8263740539551" lon="13.5394105911255">
			<ele>40.5</ele>
			<time>2014-04-13T13:29:33Z</time>
		</trkpt>
		<trkpt lat="53.8263244628906" lon="13.539454460144">
			<ele>40.5999984741211</ele>
			<time>2014-04-13T13:29:34Z</time>
		</trkpt>
		<trkpt lat="53.8262748718262" lon="13.5395050048828">
			<ele>40.5</ele>
			<time>2014-04-13T13:29:35Z</time>
		</trkpt>
		<trkpt lat="53.8261985778809" lon="13.5395889282227">
			<ele>40.2000007629395</ele>
			<time>2014-04-13T13:29:37Z</time>
		</trkpt>
		<trkpt lat="53.8261566162109" lon="13.5396432876587">
			<ele>40.2000007629395</ele>
			<time>2014-04-13T13:29:38Z</time>
		</trkpt>
		<trkpt lat="53.8261184692383" lon="13.5396919250488">
			<ele>40.5999984741211</ele>
			<time>2014-04-13T13:29:39Z</time>
		</trkpt>
		<trkpt lat="53.8260765075684" lon="13.5397596359253">
			<ele>41</ele>
			<time>2014-04-13T13:29:40Z</time>
		</trkpt>
		<trkpt lat="53.8260383605957" lon="13.5398263931274">
			<ele>41.0999984741211</ele>
			<time>2014-04-13T13:29:41Z</time>
		</trkpt>
		<trkpt lat="53.8260040283203" lon="13.5398960113525">
			<ele>41.2999992370605</ele>
			<time>2014-04-13T13:29:42Z</time>
		</trkpt>
		<trkpt lat="53.8259773254395" lon="13.5399675369263">
			<ele>41</ele>
			<time>2014-04-13T13:29:43Z</time>
		</trkpt>
		<trkpt lat="53.8259506225586" lon="13.5400457382202">
			<ele>41</ele>
			<time>2014-04-13T13:29:44Z</time>
		</trkpt>
		<trkpt lat="53.825927734375" lon="13.5401229858398">
			<ele>41.0999984741211</ele>
			<time>2014-04-13T13:29:45Z</time>
		</trkpt>
		<trkpt lat="53.8259010314941" lon="13.5401983261108">
			<ele>41</ele>
			<time>2014-04-13T13:29:46Z</time>
		</trkpt>
		<trkpt lat="53.8258781433105" lon="13.5402755737305">
			<ele>40.9000015258789</ele>
			<time>2014-04-13T13:29:47Z</time>
		</trkpt>
		<trkpt lat="53.8258476257324" lon="13.5403432846069">
			<ele>40.7999992370605</ele>
			<time>2014-04-13T13:29:48Z</time>
		</trkpt>
		<trkpt lat="53.8258171081543" lon="13.5404262542725">
			<ele>41</ele>
			<time>2014-04-13T13:29:49Z</time>
		</trkpt>
		<trkpt lat="53.8257942199707" lon="13.5405054092407">
			<ele>40.9000015258789</ele>
			<time>2014-04-13T13:29:50Z</time>
		</trkpt>
		<trkpt lat="53.8257637023926" lon="13.5405855178833">
			<ele>40.7999992370605</ele>
			<time>2014-04-13T13:29:51Z</time>
		</trkpt>
		<trkpt lat="53.8257331848145" lon="13.5406589508057">
			<ele>40.7999992370605</ele>
			<time>2014-04-13T13:29:52Z</time>
		</trkpt>
		<trkpt lat="53.8257102966309" lon="13.5407428741455">
			<ele>40.7999992370605</ele>
			<time>2014-04-13T13:29:53Z</time>
		</trkpt>
		<trkpt lat="53.82568359375" lon="13.540825843811">
			<ele>40.7999992370605</ele>
			<time>2014-04-13T13:29:54Z</time>
		</trkpt>
		<trkpt lat="53.8256568908691" lon="13.5408983230591">
			<ele>40.5999984741211</ele>
			<time>2014-04-13T13:29:55Z</time>
		</trkpt>
		<trkpt lat="53.8256301879883" lon="13.5409736633301">
			<ele>40.5999984741211</ele>
			<time>2014-04-13T13:29:56Z</time>
		</trkpt>
		<trkpt lat="53.8255996704102" lon="13.5410490036011">
			<ele>40.5</ele>
			<time>2014-04-13T13:29:57Z</time>
		</trkpt>
		<trkpt lat="53.8255729675293" lon="13.5411281585693">
			<ele>40.4000015258789</ele>
			<time>2014-04-13T13:29:58Z</time>
		</trkpt>
		<trkpt lat="53.8255500793457" lon="13.541202545166">
			<ele>40.7999992370605</ele>
			<time>2014-04-13T13:29:59Z</time>
		</trkpt>
		<trkpt lat="53.8255271911621" lon="13.5412817001343">
			<ele>40.7999992370605</ele>
			<time>2014-04-13T13:30:00Z</time>
		</trkpt>
		<trkpt lat="53.825496673584" lon="13.5413675308228">
			<ele>41</ele>
			<time>2014-04-13T13:30:01Z</time>
		</trkpt>
		<trkpt lat="53.8254470825195" lon="13.5415124893188">
			<ele>41.7000007629395</ele>
			<time>2014-04-13T13:30:03Z</time>
		</trkpt>
		<trkpt lat="53.8254241943359" lon="13.5415821075439">
			<ele>42</ele>
			<time>2014-04-13T13:30:04Z</time>
		</trkpt>
		<trkpt lat="53.8253974914551" lon="13.5416536331177">
			<ele>42.2000007629395</ele>
			<time>2014-04-13T13:30:05Z</time>
		</trkpt>
		<trkpt lat="53.8253746032715" lon="13.54172706604">
			<ele>42</ele>
			<time>2014-04-13T13:30:06Z</time>
		</trkpt>
		<trkpt lat="53.8253479003906" lon="13.5418100357056">
			<ele>42</ele>
			<time>2014-04-13T13:30:07Z</time>
		</trkpt>
		<trkpt lat="53.8253173828125" lon="13.541877746582">
			<ele>42.2000007629395</ele>
			<time>2014-04-13T13:30:08Z</time>
		</trkpt>
		<trkpt lat="53.8252906799316" lon="13.5419492721558">
			<ele>42.2999992370605</ele>
			<time>2014-04-13T13:30:09Z</time>
		</trkpt>
		<trkpt lat="53.8252639770508" lon="13.5420370101929">
			<ele>41.7999992370605</ele>
			<time>2014-04-13T13:30:10Z</time>
		</trkpt>
		<trkpt lat="53.8252410888672" lon="13.5421094894409">
			<ele>41.7999992370605</ele>
			<time>2014-04-13T13:30:11Z</time>
		</trkpt>
		<trkpt lat="53.8252143859863" lon="13.5421829223633">
			<ele>41.9000015258789</ele>
			<time>2014-04-13T13:30:12Z</time>
		</trkpt>
		<trkpt lat="53.8251953125" lon="13.5422630310059">
			<ele>41.4000015258789</ele>
			<time>2014-04-13T13:30:13Z</time>
		</trkpt>
		<trkpt lat="53.8251686096191" lon="13.5423316955566">
			<ele>41.7000007629395</ele>
			<time>2014-04-13T13:30:14Z</time>
		</trkpt>
		<trkpt lat="53.8251457214355" lon="13.5424032211304">
			<ele>41.9000015258789</ele>
			<time>2014-04-13T13:30:15Z</time>
		</trkpt>
		<trkpt lat="53.8251190185547" lon="13.5424718856812">
			<ele>42.0999984741211</ele>
			<time>2014-04-13T13:30:16Z</time>
		</trkpt>
		<trkpt lat="53.8250923156738" lon="13.5425443649292">
			<ele>42.2000007629395</ele>
			<time>2014-04-13T13:30:17Z</time>
		</trkpt>
		<trkpt lat="53.8250694274902" lon="13.5426187515259">
			<ele>42.2000007629395</ele>
			<time>2014-04-13T13:30:18Z</time>
		</trkpt>
		<trkpt lat="53.8250427246094" lon="13.5426912307739">
			<ele>42.4000015258789</ele>
			<time>2014-04-13T13:30:19Z</time>
		</trkpt>
		<trkpt lat="53.8250160217285" lon="13.5427646636963">
			<ele>42.4000015258789</ele>
			<time>2014-04-13T13:30:20Z</time>
		</trkpt>
		<trkpt lat="53.8249969482422" lon="13.5428380966187">
			<ele>42.4000015258789</ele>
			<time>2014-04-13T13:30:21Z</time>
		</trkpt>
		<trkpt lat="53.8249702453613" lon="13.542911529541">
			<ele>42.5999984741211</ele>
			<time>2014-04-13T13:30:22Z</time>
		</trkpt>
		<trkpt lat="53.8249473571777" lon="13.5429887771606">
			<ele>42.5</ele>
			<time>2014-04-13T13:30:23Z</time>
		</trkpt>
		<trkpt lat="53.8249168395996" lon="13.5430593490601">
			<ele>42.9000015258789</ele>
			<time>2014-04-13T13:30:24Z</time>
		</trkpt>
		<trkpt lat="53.824893951416" lon="13.5431385040283">
			<ele>42.7999992370605</ele>
			<time>2014-04-13T13:30:25Z</time>
		</trkpt>
		<trkpt lat="53.8248710632324" lon="13.5432100296021">
			<ele>42.9000015258789</ele>
			<time>2014-04-13T13:30:26Z</time>
		</trkpt>
		<trkpt lat="53.8248443603516" lon="13.5432891845703">
			<ele>42.5999984741211</ele>
			<time>2014-04-13T13:30:27Z</time>
		</trkpt>
		<trkpt lat="53.824821472168" lon="13.5433654785156">
			<ele>42.5999984741211</ele>
			<time>2014-04-13T13:30:28Z</time>
		</trkpt>
		<trkpt lat="53.8247947692871" lon="13.5434446334839">
			<ele>42.5</ele>
			<time>2014-04-13T13:30:29Z</time>
		</trkpt>
		<trkpt lat="53.8247680664063" lon="13.5435190200806">
			<ele>42.5</ele>
			<time>2014-04-13T13:30:30Z</time>
		</trkpt>
		<trkpt lat="53.8247413635254" lon="13.5435972213745">
			<ele>42.4000015258789</ele>
			<time>2014-04-13T13:30:31Z</time>
		</trkpt>
		<trkpt lat="53.8247184753418" lon="13.5436744689941">
			<ele>42.5</ele>
			<time>2014-04-13T13:30:32Z</time>
		</trkpt>
		<trkpt lat="53.8246917724609" lon="13.5437469482422">
			<ele>42.7000007629395</ele>
			<time>2014-04-13T13:30:33Z</time>
		</trkpt>
		<trkpt lat="53.8246688842773" lon="13.5438213348389">
			<ele>42.5999984741211</ele>
			<time>2014-04-13T13:30:34Z</time>
		</trkpt>
		<trkpt lat="53.8246421813965" lon="13.5438995361328">
			<ele>42.5999984741211</ele>
			<time>2014-04-13T13:30:35Z</time>
		</trkpt>
		<trkpt lat="53.8246154785156" lon="13.5439720153809">
			<ele>42.9000015258789</ele>
			<time>2014-04-13T13:30:36Z</time>
		</trkpt>
		<trkpt lat="53.8245887756348" lon="13.5440454483032">
			<ele>43</ele>
			<time>2014-04-13T13:30:37Z</time>
		</trkpt>
		<trkpt lat="53.8245620727539" lon="13.5441198348999">
			<ele>43.0999984741211</ele>
			<time>2014-04-13T13:30:38Z</time>
		</trkpt>
		<trkpt lat="53.8245429992676" lon="13.5441980361938">
			<ele>43</ele>
			<time>2014-04-13T13:30:39Z</time>
		</trkpt>
		<trkpt lat="53.8245162963867" lon="13.5442762374878">
			<ele>43</ele>
			<time>2014-04-13T13:30:40Z</time>
		</trkpt>
		<trkpt lat="53.8244934082031" lon="13.5443506240845">
			<ele>42.9000015258789</ele>
			<time>2014-04-13T13:30:41Z</time>
		</trkpt>
		<trkpt lat="53.8244667053223" lon="13.5444221496582">
			<ele>43</ele>
			<time>2014-04-13T13:30:42Z</time>
		</trkpt>
		<trkpt lat="53.8244438171387" lon="13.5445032119751">
			<ele>42.9000015258789</ele>
			<time>2014-04-13T13:30:43Z</time>
		</trkpt>
		<trkpt lat="53.8244171142578" lon="13.5445833206177">
			<ele>42.7999992370605</ele>
			<time>2014-04-13T13:30:44Z</time>
		</trkpt>
		<trkpt lat="53.8243865966797" lon="13.5446720123291">
			<ele>42.5</ele>
			<time>2014-04-13T13:30:45Z</time>
		</trkpt>
		<trkpt lat="53.8243598937988" lon="13.5447492599487">
			<ele>42.5999984741211</ele>
			<time>2014-04-13T13:30:46Z</time>
		</trkpt>
		<trkpt lat="53.824333190918" lon="13.5448303222656">
			<ele>42.5</ele>
			<time>2014-04-13T13:30:47Z</time>
		</trkpt>
		<trkpt lat="53.8243064880371" lon="13.544903755188">
			<ele>42.7000007629395</ele>
			<time>2014-04-13T13:30:48Z</time>
		</trkpt>
		<trkpt lat="53.8242835998535" lon="13.5449886322021">
			<ele>42.7999992370605</ele>
			<time>2014-04-13T13:30:49Z</time>
		</trkpt>
		<trkpt lat="53.8242568969727" lon="13.5450687408447">
			<ele>42.5</ele>
			<time>2014-04-13T13:30:50Z</time>
		</trkpt>
		<trkpt lat="53.8242301940918" lon="13.5451507568359">
			<ele>42.5</ele>
			<time>2014-04-13T13:30:51Z</time>
		</trkpt>
		<trkpt lat="53.8242073059082" lon="13.5452346801758">
			<ele>42.2999992370605</ele>
			<time>2014-04-13T13:30:52Z</time>
		</trkpt>
		<trkpt lat="53.8241729736328" lon="13.545316696167">
			<ele>42.4000015258789</ele>
			<time>2014-04-13T13:30:53Z</time>
		</trkpt>
		<trkpt lat="53.824146270752" lon="13.5453939437866">
			<ele>42.4000015258789</ele>
			<time>2014-04-13T13:30:54Z</time>
		</trkpt>
		<trkpt lat="53.8241233825684" lon="13.5454730987549">
			<ele>42</ele>
			<time>2014-04-13T13:30:55Z</time>
		</trkpt>
		<trkpt lat="53.8240966796875" lon="13.5455589294434">
			<ele>41.7000007629395</ele>
			<time>2014-04-13T13:30:56Z</time>
		</trkpt>
		<trkpt lat="53.8240699768066" lon="13.545636177063">
			<ele>41.7999992370605</ele>
			<time>2014-04-13T13:30:57Z</time>
		</trkpt>
		<trkpt lat="53.8240432739258" lon="13.5457210540771">
			<ele>41.7000007629395</ele>
			<time>2014-04-13T13:30:58Z</time>
		</trkpt>
		<trkpt lat="53.8240165710449" lon="13.5458030700684">
			<ele>41.7999992370605</ele>
			<time>2014-04-13T13:30:59Z</time>
		</trkpt>
		<trkpt lat="53.8239860534668" lon="13.5458879470825">
			<ele>41.9000015258789</ele>
			<time>2014-04-13T13:31:00Z</time>
		</trkpt>
		<trkpt lat="53.8239593505859" lon="13.5459671020508">
			<ele>42.0999984741211</ele>
			<time>2014-04-13T13:31:01Z</time>
		</trkpt>
		<trkpt lat="53.8239250183105" lon="13.5460500717163">
			<ele>42.2000007629395</ele>
			<time>2014-04-13T13:31:02Z</time>
		</trkpt>
		<trkpt lat="53.8238983154297" lon="13.5461339950562">
			<ele>42.5</ele>
			<time>2014-04-13T13:31:03Z</time>
		</trkpt>
		<trkpt lat="53.8238677978516" lon="13.5462255477905">
			<ele>42.5</ele>
			<time>2014-04-13T13:31:04Z</time>
		</trkpt>
		<trkpt lat="53.8238372802734" lon="13.5463199615479">
			<ele>42.5</ele>
			<time>2014-04-13T13:31:05Z</time>
		</trkpt>
		<trkpt lat="53.8238105773926" lon="13.5463953018188">
			<ele>42.7000007629395</ele>
			<time>2014-04-13T13:31:06Z</time>
		</trkpt>
		<trkpt lat="53.8237762451172" lon="13.5464725494385">
			<ele>42.5999984741211</ele>
			<time>2014-04-13T13:31:07Z</time>
		</trkpt>
		<trkpt lat="53.8237457275391" lon="13.5465593338013">
			<ele>42.4000015258789</ele>
			<time>2014-04-13T13:31:08Z</time>
		</trkpt>
		<trkpt lat="53.8237190246582" lon="13.5466442108154">
			<ele>42.2999992370605</ele>
			<time>2014-04-13T13:31:09Z</time>
		</trkpt>
		<trkpt lat="53.8236885070801" lon="13.5467233657837">
			<ele>42</ele>
			<time>2014-04-13T13:31:10Z</time>
		</trkpt>
		<trkpt lat="53.823657989502" lon="13.5468082427979">
			<ele>41.7000007629395</ele>
			<time>2014-04-13T13:31:11Z</time>
		</trkpt>
		<trkpt lat="53.8236274719238" lon="13.5468902587891">
			<ele>41.4000015258789</ele>
			<time>2014-04-13T13:31:12Z</time>
		</trkpt>
		<trkpt lat="53.8235893249512" lon="13.5469722747803">
			<ele>41.2000007629395</ele>
			<time>2014-04-13T13:31:13Z</time>
		</trkpt>
		<trkpt lat="53.8235511779785" lon="13.5470514297485">
			<ele>41.2000007629395</ele>
			<time>2014-04-13T13:31:14Z</time>
		</trkpt>
		<trkpt lat="53.8235092163086" lon="13.5471220016479">
			<ele>41.2999992370605</ele>
			<time>2014-04-13T13:31:17Z</time>
		</trkpt>
		<trkpt lat="53.8233757019043" lon="13.5473251342773">
			<ele>41.5999984741211</ele>
			<time>2014-04-13T13:31:18Z</time>
		</trkpt>
		<trkpt lat="53.8233299255371" lon="13.5473852157593">
			<ele>41.4000015258789</ele>
			<time>2014-04-13T13:31:19Z</time>
		</trkpt>
		<trkpt lat="53.8232841491699" lon="13.5474538803101">
			<ele>41.2999992370605</ele>
			<time>2014-04-13T13:31:20Z</time>
		</trkpt>
		<trkpt lat="53.8232383728027" lon="13.5475158691406">
			<ele>41.2000007629395</ele>
			<time>2014-04-13T13:31:21Z</time>
		</trkpt>
		<trkpt lat="53.8231964111328" lon="13.5475826263428">
			<ele>40.9000015258789</ele>
			<time>2014-04-13T13:31:22Z</time>
		</trkpt>
		<trkpt lat="53.8231544494629" lon="13.5476360321045">
			<ele>41</ele>
			<time>2014-04-13T13:31:24Z</time>
		</trkpt>
		<trkpt lat="53.823112487793" lon="13.5476913452148">
			<ele>40.9000015258789</ele>
			<time>2014-04-13T13:31:24Z</time>
		</trkpt>
		<trkpt lat="53.8230667114258" lon="13.5477418899536">
			<ele>40.7999992370605</ele>
			<time>2014-04-13T13:31:25Z</time>
		</trkpt>
		<trkpt lat="53.8230247497559" lon="13.5477867126465">
			<ele>40.9000015258789</ele>
			<time>2014-04-13T13:31:26Z</time>
		</trkpt>
		<trkpt lat="53.8229751586914" lon="13.5478239059448">
			<ele>40.9000015258789</ele>
			<time>2014-04-13T13:31:27Z</time>
		</trkpt>
		<trkpt lat="53.822925567627" lon="13.5478525161743">
			<ele>41</ele>
			<time>2014-04-13T13:31:28Z</time>
		</trkpt>
		<trkpt lat="53.8228759765625" lon="13.5478773117065">
			<ele>40.9000015258789</ele>
			<time>2014-04-13T13:31:29Z</time>
		</trkpt>
		<trkpt lat="53.822826385498" lon="13.5478858947754">
			<ele>41</ele>
			<time>2014-04-13T13:31:30Z</time>
		</trkpt>
		<trkpt lat="53.8227767944336" lon="13.5478754043579">
			<ele>40.7999992370605</ele>
			<time>2014-04-13T13:31:31Z</time>
		</trkpt>
		<trkpt lat="53.8227272033691" lon="13.5478591918945">
			<ele>41</ele>
			<time>2014-04-13T13:31:32Z</time>
		</trkpt>
		<trkpt lat="53.8226776123047" lon="13.5478372573853">
			<ele>40.7000007629395</ele>
			<time>2014-04-13T13:31:33Z</time>
		</trkpt>
		<trkpt lat="53.8226280212402" lon="13.5478181838989">
			<ele>40.7000007629395</ele>
			<time>2014-04-13T13:31:34Z</time>
		</trkpt>
		<trkpt lat="53.8225784301758" lon="13.5477914810181">
			<ele>40.7999992370605</ele>
			<time>2014-04-13T13:31:35Z</time>
		</trkpt>
		<trkpt lat="53.8225326538086" lon="13.5477657318115">
			<ele>40.7999992370605</ele>
			<time>2014-04-13T13:31:36Z</time>
		</trkpt>
		<trkpt lat="53.8224830627441" lon="13.547739982605">
			<ele>40.5</ele>
			<time>2014-04-13T13:31:37Z</time>
		</trkpt>
		<trkpt lat="53.822437286377" lon="13.5477180480957">
			<ele>40.7000007629395</ele>
			<time>2014-04-13T13:31:38Z</time>
		</trkpt>
		<trkpt lat="53.8223915100098" lon="13.5476961135864">
			<ele>40.9000015258789</ele>
			<time>2014-04-13T13:31:39Z</time>
		</trkpt>
		<trkpt lat="53.8223457336426" lon="13.5476741790771">
			<ele>40.7999992370605</ele>
			<time>2014-04-13T13:31:40Z</time>
		</trkpt>
		<trkpt lat="53.8223037719727" lon="13.5476493835449">
			<ele>40.5999984741211</ele>
			<time>2014-04-13T13:31:41Z</time>
		</trkpt>
		<trkpt lat="53.8222579956055" lon="13.547625541687">
			<ele>40.7000007629395</ele>
			<time>2014-04-13T13:31:42Z</time>
		</trkpt>
		<trkpt lat="53.8222122192383" lon="13.5476121902466">
			<ele>41.0999984741211</ele>
			<time>2014-04-13T13:31:43Z</time>
		</trkpt>
		<trkpt lat="53.8221664428711" lon="13.5475912094116">
			<ele>40.9000015258789</ele>
			<time>2014-04-13T13:31:44Z</time>
		</trkpt>
		<trkpt lat="53.8221244812012" lon="13.5475702285767">
			<ele>41</ele>
			<time>2014-04-13T13:31:45Z</time>
		</trkpt>
		<trkpt lat="53.8220329284668" lon="13.5475301742554">
			<ele>40.7999992370605</ele>
			<time>2014-04-13T13:31:47Z</time>
		</trkpt>
		<trkpt lat="53.8219833374023" lon="13.547513961792">
			<ele>40.5</ele>
			<time>2014-04-13T13:31:48Z</time>
		</trkpt>
		<trkpt lat="53.8219337463379" lon="13.5474939346313">
			<ele>40.9000015258789</ele>
			<time>2014-04-13T13:31:49Z</time>
		</trkpt>
		<trkpt lat="53.8218841552734" lon="13.5474796295166">
			<ele>40.7000007629395</ele>
			<time>2014-04-13T13:31:50Z</time>
		</trkpt>
		<trkpt lat="53.8218421936035" lon="13.5474557876587">
			<ele>41.0999984741211</ele>
			<time>2014-04-13T13:31:51Z</time>
		</trkpt>
		<trkpt lat="53.8217964172363" lon="13.547438621521">
			<ele>41.5</ele>
			<time>2014-04-13T13:31:52Z</time>
		</trkpt>
		<trkpt lat="53.8217086791992" lon="13.5474052429199">
			<ele>41.5</ele>
			<time>2014-04-13T13:31:54Z</time>
		</trkpt>
		<trkpt lat="53.8216209411621" lon="13.5473699569702">
			<ele>41.7000007629395</ele>
			<time>2014-04-13T13:31:56Z</time>
		</trkpt>
		<trkpt lat="53.821533203125" lon="13.5473337173462">
			<ele>42.0999984741211</ele>
			<time>2014-04-13T13:31:58Z</time>
		</trkpt>
		<trkpt lat="53.8214874267578" lon="13.5473165512085">
			<ele>42.2000007629395</ele>
			<time>2014-04-13T13:31:59Z</time>
		</trkpt>
		<trkpt lat="53.8214416503906" lon="13.5473022460938">
			<ele>42</ele>
			<time>2014-04-13T13:32:00Z</time>
		</trkpt>
		<trkpt lat="53.8213958740234" lon="13.5472774505615">
			<ele>41.7999992370605</ele>
			<time>2014-04-13T13:32:01Z</time>
		</trkpt>
		<trkpt lat="53.8213539123535" lon="13.5472526550293">
			<ele>41.5</ele>
			<time>2014-04-13T13:32:02Z</time>
		</trkpt>
		<trkpt lat="53.8213043212891" lon="13.5472297668457">
			<ele>41.4000015258789</ele>
			<time>2014-04-13T13:32:03Z</time>
		</trkpt>
		<trkpt lat="53.8212585449219" lon="13.5472087860107">
			<ele>41.4000015258789</ele>
			<time>2014-04-13T13:32:04Z</time>
		</trkpt>
		<trkpt lat="53.8212127685547" lon="13.5471935272217">
			<ele>41.2999992370605</ele>
			<time>2014-04-13T13:32:05Z</time>
		</trkpt>
		<trkpt lat="53.8211669921875" lon="13.5471792221069">
			<ele>41.4000015258789</ele>
			<time>2014-04-13T13:32:06Z</time>
		</trkpt>
		<trkpt lat="53.8210868835449" lon="13.5471506118774">
			<ele>41.7000007629395</ele>
			<time>2014-04-13T13:32:08Z</time>
		</trkpt>
		<trkpt lat="53.8210029602051" lon="13.5471086502075">
			<ele>42</ele>
			<time>2014-04-13T13:32:10Z</time>
		</trkpt>
		<trkpt lat="53.820915222168" lon="13.5470676422119">
			<ele>42.2000007629395</ele>
			<time>2014-04-13T13:32:12Z</time>
		</trkpt>
		<trkpt lat="53.820873260498" lon="13.5470523834229">
			<ele>42.2000007629395</ele>
			<time>2014-04-13T13:32:13Z</time>
		</trkpt>
		<trkpt lat="53.8207893371582" lon="13.5470218658447">
			<ele>42.0999984741211</ele>
			<time>2014-04-13T13:32:15Z</time>
		</trkpt>
		<trkpt lat="53.8207092285156" lon="13.5469827651978">
			<ele>42.5999984741211</ele>
			<time>2014-04-13T13:32:17Z</time>
		</trkpt>
		<trkpt lat="53.820629119873" lon="13.546947479248">
			<ele>43</ele>
			<time>2014-04-13T13:32:19Z</time>
		</trkpt>
		<trkpt lat="53.8205490112305" lon="13.5469131469727">
			<ele>43.0999984741211</ele>
			<time>2014-04-13T13:32:21Z</time>
		</trkpt>
		<trkpt lat="53.8204765319824" lon="13.5468816757202">
			<ele>42.7999992370605</ele>
			<time>2014-04-13T13:32:23Z</time>
		</trkpt>
		<trkpt lat="53.8204040527344" lon="13.5468473434448">
			<ele>42.5999984741211</ele>
			<time>2014-04-13T13:32:25Z</time>
		</trkpt>
		<trkpt lat="53.8203353881836" lon="13.546817779541">
			<ele>42.7000007629395</ele>
			<time>2014-04-13T13:32:27Z</time>
		</trkpt>
		<trkpt lat="53.8202667236328" lon="13.5467977523804">
			<ele>42.7999992370605</ele>
			<time>2014-04-13T13:32:29Z</time>
		</trkpt>
		<trkpt lat="53.8202095031738" lon="13.5467691421509">
			<ele>42.7000007629395</ele>
			<time>2014-04-13T13:32:31Z</time>
		</trkpt>
		<trkpt lat="53.8201484680176" lon="13.54674243927">
			<ele>42.7999992370605</ele>
			<time>2014-04-13T13:32:33Z</time>
		</trkpt>
		<trkpt lat="53.8200874328613" lon="13.5467128753662">
			<ele>43.4000015258789</ele>
			<time>2014-04-13T13:32:35Z</time>
		</trkpt>
		<trkpt lat="53.8200263977051" lon="13.5466918945313">
			<ele>43.5</ele>
			<time>2014-04-13T13:32:37Z</time>
		</trkpt>
		<trkpt lat="53.8199653625488" lon="13.546669960022">
			<ele>44.0999984741211</ele>
			<time>2014-04-13T13:32:39Z</time>
		</trkpt>
		<trkpt lat="53.8199043273926" lon="13.5466413497925">
			<ele>44</ele>
			<time>2014-04-13T13:32:41Z</time>
		</trkpt>
		<trkpt lat="53.8198432922363" lon="13.5466136932373">
			<ele>43.7000007629395</ele>
			<time>2014-04-13T13:32:43Z</time>
		</trkpt>
		<trkpt lat="53.8197860717773" lon="13.5465936660767">
			<ele>43.5</ele>
			<time>2014-04-13T13:32:45Z</time>
		</trkpt>
		<trkpt lat="53.8197250366211" lon="13.5465688705444">
			<ele>43.5999984741211</ele>
			<time>2014-04-13T13:32:47Z</time>
		</trkpt>
		<trkpt lat="53.8196716308594" lon="13.5465412139893">
			<ele>43.2999992370605</ele>
			<time>2014-04-13T13:32:49Z</time>
		</trkpt>
		<trkpt lat="53.8196105957031" lon="13.5465278625488">
			<ele>42.7999992370605</ele>
			<time>2014-04-13T13:32:51Z</time>
		</trkpt>
		<trkpt lat="53.8195457458496" lon="13.5465021133423">
			<ele>43.5999984741211</ele>
			<time>2014-04-13T13:32:53Z</time>
		</trkpt>
		<trkpt lat="53.8194847106934" lon="13.5464715957642">
			<ele>44.0999984741211</ele>
			<time>2014-04-13T13:32:55Z</time>
		</trkpt>
		<trkpt lat="53.8194236755371" lon="13.546443939209">
			<ele>44.4000015258789</ele>
			<time>2014-04-13T13:32:57Z</time>
		</trkpt>
		<trkpt lat="53.8193664550781" lon="13.5464334487915">
			<ele>44.5999984741211</ele>
			<time>2014-04-13T13:32:59Z</time>
		</trkpt>
		<trkpt lat="53.8193054199219" lon="13.5464143753052">
			<ele>44.7999992370605</ele>
			<time>2014-04-13T13:33:01Z</time>
		</trkpt>
		<trkpt lat="53.8192405700684" lon="13.5464000701904">
			<ele>44.9000015258789</ele>
			<time>2014-04-13T13:33:03Z</time>
		</trkpt>
		<trkpt lat="53.8191719055176" lon="13.5463876724243">
			<ele>45.2000007629395</ele>
			<time>2014-04-13T13:33:05Z</time>
		</trkpt>
		<trkpt lat="53.8191032409668" lon="13.5463972091675">
			<ele>45.5</ele>
			<time>2014-04-13T13:33:07Z</time>
		</trkpt>
		<trkpt lat="53.819034576416" lon="13.5464544296265">
			<ele>45.2999992370605</ele>
			<time>2014-04-13T13:33:09Z</time>
		</trkpt>
		<trkpt lat="53.8189964294434" lon="13.5465631484985">
			<ele>46</ele>
			<time>2014-04-13T13:33:11Z</time>
		</trkpt>
		<trkpt lat="53.8189659118652" lon="13.5466804504395">
			<ele>46</ele>
			<time>2014-04-13T13:33:13Z</time>
		</trkpt>
		<trkpt lat="53.8189544677734" lon="13.5468006134033">
			<ele>46.4000015258789</ele>
			<time>2014-04-13T13:33:15Z</time>
		</trkpt>
		<trkpt lat="53.8189849853516" lon="13.546929359436">
			<ele>46.5</ele>
			<time>2014-04-13T13:33:17Z</time>
		</trkpt>
		<trkpt lat="53.8189926147461" lon="13.5470476150513">
			<ele>46.7000007629395</ele>
			<time>2014-04-13T13:33:19Z</time>
		</trkpt>
		<trkpt lat="53.8190078735352" lon="13.5471792221069">
			<ele>47.0999984741211</ele>
			<time>2014-04-13T13:33:21Z</time>
		</trkpt>
		<trkpt lat="53.8190307617188" lon="13.5472946166992">
			<ele>47</ele>
			<time>2014-04-13T13:33:23Z</time>
		</trkpt>
		<trkpt lat="53.819034576416" lon="13.5474128723145">
			<ele>47</ele>
			<time>2014-04-13T13:33:25Z</time>
		</trkpt>
		<trkpt lat="53.8190422058105" lon="13.5475282669067">
			<ele>47.2000007629395</ele>
			<time>2014-04-13T13:33:27Z</time>
		</trkpt>
		<trkpt lat="53.8190460205078" lon="13.5476121902466">
			<ele>47.0999984741211</ele>
			<time>2014-04-13T13:33:29Z</time>
		</trkpt>
		<trkpt lat="53.8190460205078" lon="13.547703742981">
			<ele>47.2000007629395</ele>
			<time>2014-04-13T13:33:32Z</time>
		</trkpt>
		<trkpt lat="53.8190460205078" lon="13.5477809906006">
			<ele>47.2999992370605</ele>
			<time>2014-04-13T13:33:34Z</time>
		</trkpt>
		<trkpt lat="53.8190498352051" lon="13.5478811264038">
			<ele>46.7000007629395</ele>
			<time>2014-04-13T13:33:36Z</time>
		</trkpt>
		<trkpt lat="53.8190422058105" lon="13.5479888916016">
			<ele>46.5</ele>
			<time>2014-04-13T13:33:38Z</time>
		</trkpt>
		<trkpt lat="53.8190269470215" lon="13.5480995178223">
			<ele>46.4000015258789</ele>
			<time>2014-04-13T13:33:40Z</time>
		</trkpt>
		<trkpt lat="53.8190155029297" lon="13.548225402832">
			<ele>45.9000015258789</ele>
			<time>2014-04-13T13:33:42Z</time>
		</trkpt>
		<trkpt lat="53.8190002441406" lon="13.5483617782593">
			<ele>45.5</ele>
			<time>2014-04-13T13:33:44Z</time>
		</trkpt>
		<trkpt lat="53.818977355957" lon="13.548487663269">
			<ele>45.0999984741211</ele>
			<time>2014-04-13T13:33:46Z</time>
		</trkpt>
		<trkpt lat="53.8189430236816" lon="13.5486078262329">
			<ele>44.9000015258789</ele>
			<time>2014-04-13T13:33:48Z</time>
		</trkpt>
		<trkpt lat="53.818904876709" lon="13.5487308502197">
			<ele>44.7000007629395</ele>
			<time>2014-04-13T13:33:50Z</time>
		</trkpt>
		<trkpt lat="53.8188705444336" lon="13.5488586425781">
			<ele>44.5999984741211</ele>
			<time>2014-04-13T13:33:52Z</time>
		</trkpt>
		<trkpt lat="53.81884765625" lon="13.5489645004272">
			<ele>44.5</ele>
			<time>2014-04-13T13:33:54Z</time>
		</trkpt>
		<trkpt lat="53.8188323974609" lon="13.5490531921387">
			<ele>44.2000007629395</ele>
			<time>2014-04-13T13:33:56Z</time>
		</trkpt>
		<trkpt lat="53.8188171386719" lon="13.5491485595703">
			<ele>44.4000015258789</ele>
			<time>2014-04-13T13:33:59Z</time>
		</trkpt>
		<trkpt lat="53.8188209533691" lon="13.5492992401123">
			<ele>46.2000007629395</ele>
			<time>2014-04-13T13:36:00Z</time>
		</trkpt>
		<trkpt lat="53.8188056945801" lon="13.5496530532837">
			<ele>46.2999992370605</ele>
			<time>2014-04-13T13:36:04Z</time>
		</trkpt>
		<trkpt lat="53.8188400268555" lon="13.549955368042">
			<ele>45</ele>
			<time>2014-04-13T13:36:08Z</time>
		</trkpt>
		<trkpt lat="53.8189010620117" lon="13.55029296875">
			<ele>43.4000015258789</ele>
			<time>2014-04-13T13:36:10Z</time>
		</trkpt>
		<trkpt lat="53.8189659118652" lon="13.5505418777466">
			<ele>42.5999984741211</ele>
			<time>2014-04-13T13:36:12Z</time>
		</trkpt>
		<trkpt lat="53.8189849853516" lon="13.5506410598755">
			<ele>42.9000015258789</ele>
			<time>2014-04-13T13:36:12Z</time>
		</trkpt>
		<trkpt lat="53.8190002441406" lon="13.5507164001465">
			<ele>42.2999992370605</ele>
			<time>2014-04-13T13:36:13Z</time>
		</trkpt>
		<trkpt lat="53.8190078735352" lon="13.5508232116699">
			<ele>42.9000015258789</ele>
			<time>2014-04-13T13:36:14Z</time>
		</trkpt>
		<trkpt lat="53.8190078735352" lon="13.5509243011475">
			<ele>43.0999984741211</ele>
			<time>2014-04-13T13:36:15Z</time>
		</trkpt>
		<trkpt lat="53.8190078735352" lon="13.5510177612305">
			<ele>43.0999984741211</ele>
			<time>2014-04-13T13:36:16Z</time>
		</trkpt>
		<trkpt lat="53.8190078735352" lon="13.5511150360107">
			<ele>43.0999984741211</ele>
			<time>2014-04-13T13:36:17Z</time>
		</trkpt>
		<trkpt lat="53.8190040588379" lon="13.551212310791">
			<ele>43.5</ele>
			<time>2014-04-13T13:36:19Z</time>
		</trkpt>
		<trkpt lat="53.8189964294434" lon="13.551305770874">
			<ele>43.7000007629395</ele>
			<time>2014-04-13T13:36:19Z</time>
		</trkpt>
		<trkpt lat="53.8189926147461" lon="13.5514059066772">
			<ele>43.7000007629395</ele>
			<time>2014-04-13T13:36:20Z</time>
		</trkpt>
		<trkpt lat="53.8189849853516" lon="13.5514974594116">
			<ele>43.9000015258789</ele>
			<time>2014-04-13T13:36:21Z</time>
		</trkpt>
		<trkpt lat="53.8189735412598" lon="13.5515842437744">
			<ele>44</ele>
			<time>2014-04-13T13:36:22Z</time>
		</trkpt>
		<trkpt lat="53.818962097168" lon="13.5516691207886">
			<ele>44</ele>
			<time>2014-04-13T13:36:23Z</time>
		</trkpt>
		<trkpt lat="53.8189468383789" lon="13.5517511367798">
			<ele>44</ele>
			<time>2014-04-13T13:36:24Z</time>
		</trkpt>
		<trkpt lat="53.8189315795898" lon="13.5518426895142">
			<ele>44.5</ele>
			<time>2014-04-13T13:36:25Z</time>
		</trkpt>
		<trkpt lat="53.818920135498" lon="13.5519256591797">
			<ele>43.9000015258789</ele>
			<time>2014-04-13T13:36:26Z</time>
		</trkpt>
		<trkpt lat="53.818904876709" lon="13.5520048141479">
			<ele>43.7999992370605</ele>
			<time>2014-04-13T13:36:27Z</time>
		</trkpt>
		<trkpt lat="53.8188896179199" lon="13.5520830154419">
			<ele>43.5999984741211</ele>
			<time>2014-04-13T13:36:28Z</time>
		</trkpt>
		<trkpt lat="53.8188705444336" lon="13.5521640777588">
			<ele>43.0999984741211</ele>
			<time>2014-04-13T13:36:29Z</time>
		</trkpt>
		<trkpt lat="53.8188591003418" lon="13.5522508621216">
			<ele>43.0999984741211</ele>
			<time>2014-04-13T13:36:30Z</time>
		</trkpt>
		<trkpt lat="53.8188400268555" lon="13.5523347854614">
			<ele>43.7000007629395</ele>
			<time>2014-04-13T13:36:31Z</time>
		</trkpt>
		<trkpt lat="53.8188285827637" lon="13.5524206161499">
			<ele>44.0999984741211</ele>
			<time>2014-04-13T13:36:32Z</time>
		</trkpt>
		<trkpt lat="53.8188095092773" lon="13.5525016784668">
			<ele>44</ele>
			<time>2014-04-13T13:36:33Z</time>
		</trkpt>
		<trkpt lat="53.818790435791" lon="13.5525770187378">
			<ele>44.2000007629395</ele>
			<time>2014-04-13T13:36:34Z</time>
		</trkpt>
		<trkpt lat="53.8187713623047" lon="13.5526533126831">
			<ele>44.4000015258789</ele>
			<time>2014-04-13T13:36:35Z</time>
		</trkpt>
		<trkpt lat="53.8187484741211" lon="13.5527381896973">
			<ele>44.2000007629395</ele>
			<time>2014-04-13T13:36:36Z</time>
		</trkpt>
		<trkpt lat="53.8187294006348" lon="13.552809715271">
			<ele>44.2000007629395</ele>
			<time>2014-04-13T13:36:37Z</time>
		</trkpt>
		<trkpt lat="53.8187103271484" lon="13.5528812408447">
			<ele>44.2999992370605</ele>
			<time>2014-04-13T13:36:38Z</time>
		</trkpt>
		<trkpt lat="53.8186721801758" lon="13.553014755249">
			<ele>44.5</ele>
			<time>2014-04-13T13:36:40Z</time>
		</trkpt>
		<trkpt lat="53.8186531066895" lon="13.5530939102173">
			<ele>44.7000007629395</ele>
			<time>2014-04-13T13:36:41Z</time>
		</trkpt>
		<trkpt lat="53.8186302185059" lon="13.5531625747681">
			<ele>44.7000007629395</ele>
			<time>2014-04-13T13:36:42Z</time>
		</trkpt>
		<trkpt lat="53.8186111450195" lon="13.5532331466675">
			<ele>44.4000015258789</ele>
			<time>2014-04-13T13:36:43Z</time>
		</trkpt>
		<trkpt lat="53.8185920715332" lon="13.5533113479614">
			<ele>44.5999984741211</ele>
			<time>2014-04-13T13:36:44Z</time>
		</trkpt>
		<trkpt lat="53.8185806274414" lon="13.5533905029297">
			<ele>44.5</ele>
			<time>2014-04-13T13:36:45Z</time>
		</trkpt>
		<trkpt lat="53.8185653686523" lon="13.5534734725952">
			<ele>44.4000015258789</ele>
			<time>2014-04-13T13:36:46Z</time>
		</trkpt>
		<trkpt lat="53.818546295166" lon="13.5535497665405">
			<ele>44.2000007629395</ele>
			<time>2014-04-13T13:36:47Z</time>
		</trkpt>
		<trkpt lat="53.8185272216797" lon="13.5536298751831">
			<ele>43.7999992370605</ele>
			<time>2014-04-13T13:36:48Z</time>
		</trkpt>
		<trkpt lat="53.8185081481934" lon="13.5537099838257">
			<ele>43.5999984741211</ele>
			<time>2014-04-13T13:36:49Z</time>
		</trkpt>
		<trkpt lat="53.8184928894043" lon="13.5537853240967">
			<ele>43.5</ele>
			<time>2014-04-13T13:36:50Z</time>
		</trkpt>
		<trkpt lat="53.8184852600098" lon="13.5538644790649">
			<ele>43.4000015258789</ele>
			<time>2014-04-13T13:36:51Z</time>
		</trkpt>
		<trkpt lat="53.8184814453125" lon="13.5539579391479">
			<ele>43.0999984741211</ele>
			<time>2014-04-13T13:36:52Z</time>
		</trkpt>
		<trkpt lat="53.8184623718262" lon="13.5540351867676">
			<ele>43</ele>
			<time>2014-04-13T13:36:53Z</time>
		</trkpt>
		<trkpt lat="53.8184471130371" lon="13.5541152954102">
			<ele>43</ele>
			<time>2014-04-13T13:36:54Z</time>
		</trkpt>
		<trkpt lat="53.818431854248" lon="13.5542116165161">
			<ele>43.0999984741211</ele>
			<time>2014-04-13T13:36:55Z</time>
		</trkpt>
		<trkpt lat="53.818416595459" lon="13.5543041229248">
			<ele>43.0999984741211</ele>
			<time>2014-04-13T13:36:56Z</time>
		</trkpt>
		<trkpt lat="53.8184013366699" lon="13.5543947219849">
			<ele>43</ele>
			<time>2014-04-13T13:36:57Z</time>
		</trkpt>
		<trkpt lat="53.8183860778809" lon="13.5544853210449">
			<ele>43.0999984741211</ele>
			<time>2014-04-13T13:36:58Z</time>
		</trkpt>
		<trkpt lat="53.8183708190918" lon="13.554575920105">
			<ele>43.0999984741211</ele>
			<time>2014-04-13T13:36:59Z</time>
		</trkpt>
		<trkpt lat="53.8183517456055" lon="13.5546636581421">
			<ele>43.2999992370605</ele>
			<time>2014-04-13T13:37:00Z</time>
		</trkpt>
		<trkpt lat="53.8183326721191" lon="13.5547561645508">
			<ele>43.0999984741211</ele>
			<time>2014-04-13T13:37:01Z</time>
		</trkpt>
		<trkpt lat="53.8183174133301" lon="13.5548448562622">
			<ele>43.2999992370605</ele>
			<time>2014-04-13T13:37:02Z</time>
		</trkpt>
		<trkpt lat="53.8182945251465" lon="13.5549306869507">
			<ele>43.2999992370605</ele>
			<time>2014-04-13T13:37:03Z</time>
		</trkpt>
		<trkpt lat="53.8182754516602" lon="13.5550184249878">
			<ele>43.2000007629395</ele>
			<time>2014-04-13T13:37:04Z</time>
		</trkpt>
		<trkpt lat="53.8182601928711" lon="13.5551052093506">
			<ele>43.2000007629395</ele>
			<time>2014-04-13T13:37:05Z</time>
		</trkpt>
		<trkpt lat="53.818244934082" lon="13.5551910400391">
			<ele>42.9000015258789</ele>
			<time>2014-04-13T13:37:06Z</time>
		</trkpt>
		<trkpt lat="53.8182334899902" lon="13.5552759170532">
			<ele>43</ele>
			<time>2014-04-13T13:37:07Z</time>
		</trkpt>
		<trkpt lat="53.8182182312012" lon="13.5553607940674">
			<ele>43</ele>
			<time>2014-04-13T13:37:08Z</time>
		</trkpt>
		<trkpt lat="53.8181991577148" lon="13.5554466247559">
			<ele>42.9000015258789</ele>
			<time>2014-04-13T13:37:09Z</time>
		</trkpt>
		<trkpt lat="53.8181838989258" lon="13.555534362793">
			<ele>42.9000015258789</ele>
			<time>2014-04-13T13:37:10Z</time>
		</trkpt>
		<trkpt lat="53.8181648254395" lon="13.5556240081787">
			<ele>42.7000007629395</ele>
			<time>2014-04-13T13:37:11Z</time>
		</trkpt>
		<trkpt lat="53.8181457519531" lon="13.5557079315186">
			<ele>42.5999984741211</ele>
			<time>2014-04-13T13:37:12Z</time>
		</trkpt>
		<trkpt lat="53.8181266784668" lon="13.5557975769043">
			<ele>42.5</ele>
			<time>2014-04-13T13:37:13Z</time>
		</trkpt>
		<trkpt lat="53.8181076049805" lon="13.5558862686157">
			<ele>42.0999984741211</ele>
			<time>2014-04-13T13:37:14Z</time>
		</trkpt>
		<trkpt lat="53.8180885314941" lon="13.5559711456299">
			<ele>42</ele>
			<time>2014-04-13T13:37:15Z</time>
		</trkpt>
		<trkpt lat="53.8180656433105" lon="13.556056022644">
			<ele>41.7999992370605</ele>
			<time>2014-04-13T13:37:16Z</time>
		</trkpt>
		<trkpt lat="53.8180465698242" lon="13.5561361312866">
			<ele>42</ele>
			<time>2014-04-13T13:37:17Z</time>
		</trkpt>
		<trkpt lat="53.8180236816406" lon="13.5562219619751">
			<ele>42.0999984741211</ele>
			<time>2014-04-13T13:37:18Z</time>
		</trkpt>
		<trkpt lat="53.8180046081543" lon="13.5563039779663">
			<ele>42.5999984741211</ele>
			<time>2014-04-13T13:37:19Z</time>
		</trkpt>
		<trkpt lat="53.817985534668" lon="13.5563859939575">
			<ele>42.5</ele>
			<time>2014-04-13T13:37:20Z</time>
		</trkpt>
		<trkpt lat="53.8179702758789" lon="13.556468963623">
			<ele>42.7999992370605</ele>
			<time>2014-04-13T13:37:21Z</time>
		</trkpt>
		<trkpt lat="53.8179473876953" lon="13.5565547943115">
			<ele>43.0999984741211</ele>
			<time>2014-04-13T13:37:22Z</time>
		</trkpt>
		<trkpt lat="53.8179206848145" lon="13.5566320419312">
			<ele>43</ele>
			<time>2014-04-13T13:37:23Z</time>
		</trkpt>
		<trkpt lat="53.8179054260254" lon="13.5567121505737">
			<ele>42.9000015258789</ele>
			<time>2014-04-13T13:37:24Z</time>
		</trkpt>
		<trkpt lat="53.8178863525391" lon="13.5568008422852">
			<ele>42.9000015258789</ele>
			<time>2014-04-13T13:37:25Z</time>
		</trkpt>
		<trkpt lat="53.8178634643555" lon="13.5568952560425">
			<ele>42.7999992370605</ele>
			<time>2014-04-13T13:37:26Z</time>
		</trkpt>
		<trkpt lat="53.8178405761719" lon="13.5569839477539">
			<ele>42.9000015258789</ele>
			<time>2014-04-13T13:37:27Z</time>
		</trkpt>
		<trkpt lat="53.8178215026855" lon="13.5570697784424">
			<ele>42.7999992370605</ele>
			<time>2014-04-13T13:37:28Z</time>
		</trkpt>
		<trkpt lat="53.817798614502" lon="13.5571584701538">
			<ele>42.9000015258789</ele>
			<time>2014-04-13T13:37:29Z</time>
		</trkpt>
		<trkpt lat="53.8177795410156" lon="13.5572423934937">
			<ele>43</ele>
			<time>2014-04-13T13:37:30Z</time>
		</trkpt>
		<trkpt lat="53.8177604675293" lon="13.5573282241821">
			<ele>43.2000007629395</ele>
			<time>2014-04-13T13:37:31Z</time>
		</trkpt>
		<trkpt lat="53.8177375793457" lon="13.5574188232422">
			<ele>43.5</ele>
			<time>2014-04-13T13:37:32Z</time>
		</trkpt>
		<trkpt lat="53.8177223205566" lon="13.557505607605">
			<ele>43.4000015258789</ele>
			<time>2014-04-13T13:37:33Z</time>
		</trkpt>
		<trkpt lat="53.8177032470703" lon="13.5575895309448">
			<ele>43.0999984741211</ele>
			<time>2014-04-13T13:37:34Z</time>
		</trkpt>
		<trkpt lat="53.8176803588867" lon="13.5576734542847">
			<ele>43.2999992370605</ele>
			<time>2014-04-13T13:37:35Z</time>
		</trkpt>
		<trkpt lat="53.8176612854004" lon="13.5577564239502">
			<ele>43.5</ele>
			<time>2014-04-13T13:37:36Z</time>
		</trkpt>
		<trkpt lat="53.8176383972168" lon="13.5578384399414">
			<ele>43.5999984741211</ele>
			<time>2014-04-13T13:37:37Z</time>
		</trkpt>
		<trkpt lat="53.8176193237305" lon="13.5579261779785">
			<ele>43.7000007629395</ele>
			<time>2014-04-13T13:37:38Z</time>
		</trkpt>
		<trkpt lat="53.8176002502441" lon="13.5580139160156">
			<ele>43.7999992370605</ele>
			<time>2014-04-13T13:37:39Z</time>
		</trkpt>
		<trkpt lat="53.8175811767578" lon="13.5580968856812">
			<ele>43.9000015258789</ele>
			<time>2014-04-13T13:37:40Z</time>
		</trkpt>
		<trkpt lat="53.8175582885742" lon="13.5581817626953">
			<ele>44.0999984741211</ele>
			<time>2014-04-13T13:37:41Z</time>
		</trkpt>
		<trkpt lat="53.8175354003906" lon="13.5582733154297">
			<ele>44.0999984741211</ele>
			<time>2014-04-13T13:37:42Z</time>
		</trkpt>
		<trkpt lat="53.8175201416016" lon="13.5583648681641">
			<ele>44.0999984741211</ele>
			<time>2014-04-13T13:37:43Z</time>
		</trkpt>
		<trkpt lat="53.817497253418" lon="13.5584554672241">
			<ele>44.0999984741211</ele>
			<time>2014-04-13T13:37:44Z</time>
		</trkpt>
		<trkpt lat="53.8174743652344" lon="13.5585489273071">
			<ele>44.0999984741211</ele>
			<time>2014-04-13T13:37:45Z</time>
		</trkpt>
		<trkpt lat="53.8174476623535" lon="13.5586385726929">
			<ele>44</ele>
			<time>2014-04-13T13:37:46Z</time>
		</trkpt>
		<trkpt lat="53.8174247741699" lon="13.5587205886841">
			<ele>44.2999992370605</ele>
			<time>2014-04-13T13:37:47Z</time>
		</trkpt>
		<trkpt lat="53.8174018859863" lon="13.5588121414185">
			<ele>44.7999992370605</ele>
			<time>2014-04-13T13:37:48Z</time>
		</trkpt>
		<trkpt lat="53.8173751831055" lon="13.5589027404785">
			<ele>44.7000007629395</ele>
			<time>2014-04-13T13:37:49Z</time>
		</trkpt>
		<trkpt lat="53.8173484802246" lon="13.5589971542358">
			<ele>44.7000007629395</ele>
			<time>2014-04-13T13:37:50Z</time>
		</trkpt>
		<trkpt lat="53.817325592041" lon="13.5590848922729">
			<ele>44.7999992370605</ele>
			<time>2014-04-13T13:37:51Z</time>
		</trkpt>
		<trkpt lat="53.8172988891602" lon="13.5591764450073">
			<ele>44.7000007629395</ele>
			<time>2014-04-13T13:37:52Z</time>
		</trkpt>
		<trkpt lat="53.8172760009766" lon="13.5592679977417">
			<ele>44.7000007629395</ele>
			<time>2014-04-13T13:37:53Z</time>
		</trkpt>
		<trkpt lat="53.817253112793" lon="13.5593585968018">
			<ele>44.7000007629395</ele>
			<time>2014-04-13T13:37:54Z</time>
		</trkpt>
		<trkpt lat="53.8172264099121" lon="13.5594501495361">
			<ele>44.7000007629395</ele>
			<time>2014-04-13T13:37:55Z</time>
		</trkpt>
		<trkpt lat="53.8171997070313" lon="13.5595474243164">
			<ele>44.9000015258789</ele>
			<time>2014-04-13T13:37:56Z</time>
		</trkpt>
		<trkpt lat="53.8171768188477" lon="13.5596446990967">
			<ele>44.5</ele>
			<time>2014-04-13T13:37:57Z</time>
		</trkpt>
		<trkpt lat="53.8171501159668" lon="13.559739112854">
			<ele>44.2999992370605</ele>
			<time>2014-04-13T13:37:58Z</time>
		</trkpt>
		<trkpt lat="53.8171272277832" lon="13.5598344802856">
			<ele>44.2000007629395</ele>
			<time>2014-04-13T13:37:59Z</time>
		</trkpt>
		<trkpt lat="53.8171043395996" lon="13.5599250793457">
			<ele>44.0999984741211</ele>
			<time>2014-04-13T13:38:00Z</time>
		</trkpt>
		<trkpt lat="53.8170776367188" lon="13.5600137710571">
			<ele>44.2999992370605</ele>
			<time>2014-04-13T13:38:01Z</time>
		</trkpt>
		<trkpt lat="53.8170547485352" lon="13.5601081848145">
			<ele>44.2000007629395</ele>
			<time>2014-04-13T13:38:02Z</time>
		</trkpt>
		<trkpt lat="53.8170280456543" lon="13.5602006912231">
			<ele>44.2999992370605</ele>
			<time>2014-04-13T13:38:03Z</time>
		</trkpt>
		<trkpt lat="53.8170051574707" lon="13.5602960586548">
			<ele>44.4000015258789</ele>
			<time>2014-04-13T13:38:04Z</time>
		</trkpt>
		<trkpt lat="53.8169784545898" lon="13.5603857040405">
			<ele>44.0999984741211</ele>
			<time>2014-04-13T13:38:05Z</time>
		</trkpt>
		<trkpt lat="53.8169479370117" lon="13.5604820251465">
			<ele>43.9000015258789</ele>
			<time>2014-04-13T13:38:06Z</time>
		</trkpt>
		<trkpt lat="53.8169250488281" lon="13.5605783462524">
			<ele>43.7999992370605</ele>
			<time>2014-04-13T13:38:07Z</time>
		</trkpt>
		<trkpt lat="53.8168907165527" lon="13.560676574707">
			<ele>43.9000015258789</ele>
			<time>2014-04-13T13:38:08Z</time>
		</trkpt>
		<trkpt lat="53.8168640136719" lon="13.56077003479">
			<ele>44.2000007629395</ele>
			<time>2014-04-13T13:38:09Z</time>
		</trkpt>
		<trkpt lat="53.8168411254883" lon="13.560863494873">
			<ele>43.7000007629395</ele>
			<time>2014-04-13T13:38:10Z</time>
		</trkpt>
		<trkpt lat="53.8168182373047" lon="13.5609655380249">
			<ele>43.5999984741211</ele>
			<time>2014-04-13T13:38:11Z</time>
		</trkpt>
		<trkpt lat="53.8167915344238" lon="13.5610609054565">
			<ele>43.4000015258789</ele>
			<time>2014-04-13T13:38:12Z</time>
		</trkpt>
		<trkpt lat="53.8167610168457" lon="13.5611476898193">
			<ele>43.0999984741211</ele>
			<time>2014-04-13T13:38:13Z</time>
		</trkpt>
		<trkpt lat="53.8167304992676" lon="13.561240196228">
			<ele>43.0999984741211</ele>
			<time>2014-04-13T13:38:14Z</time>
		</trkpt>
		<trkpt lat="53.816707611084" lon="13.5613317489624">
			<ele>43</ele>
			<time>2014-04-13T13:38:15Z</time>
		</trkpt>
		<trkpt lat="53.8166847229004" lon="13.5614194869995">
			<ele>43</ele>
			<time>2014-04-13T13:38:16Z</time>
		</trkpt>
		<trkpt lat="53.8166580200195" lon="13.5615100860596">
			<ele>43.0999984741211</ele>
			<time>2014-04-13T13:38:17Z</time>
		</trkpt>
		<trkpt lat="53.8166351318359" lon="13.5615949630737">
			<ele>42.7999992370605</ele>
			<time>2014-04-13T13:38:18Z</time>
		</trkpt>
		<trkpt lat="53.8166122436523" lon="13.5616798400879">
			<ele>42.9000015258789</ele>
			<time>2014-04-13T13:38:19Z</time>
		</trkpt>
		<trkpt lat="53.8165855407715" lon="13.561767578125">
			<ele>43</ele>
			<time>2014-04-13T13:38:20Z</time>
		</trkpt>
		<trkpt lat="53.8165588378906" lon="13.5618619918823">
			<ele>43.2000007629395</ele>
			<time>2014-04-13T13:38:21Z</time>
		</trkpt>
		<trkpt lat="53.8165397644043" lon="13.5619554519653">
			<ele>43.4000015258789</ele>
			<time>2014-04-13T13:38:22Z</time>
		</trkpt>
		<trkpt lat="53.8165130615234" lon="13.5620403289795">
			<ele>43.7000007629395</ele>
			<time>2014-04-13T13:38:23Z</time>
		</trkpt>
		<trkpt lat="53.8164825439453" lon="13.5621328353882">
			<ele>43.4000015258789</ele>
			<time>2014-04-13T13:38:24Z</time>
		</trkpt>
		<trkpt lat="53.8164558410645" lon="13.5622119903564">
			<ele>43.7999992370605</ele>
			<time>2014-04-13T13:38:25Z</time>
		</trkpt>
		<trkpt lat="53.8164291381836" lon="13.5623025894165">
			<ele>43.7999992370605</ele>
			<time>2014-04-13T13:38:26Z</time>
		</trkpt>
		<trkpt lat="53.81640625" lon="13.5623941421509">
			<ele>43.4000015258789</ele>
			<time>2014-04-13T13:38:27Z</time>
		</trkpt>
		<trkpt lat="53.8163795471191" lon="13.5624761581421">
			<ele>43.7000007629395</ele>
			<time>2014-04-13T13:38:28Z</time>
		</trkpt>
		<trkpt lat="53.8163566589355" lon="13.5625658035278">
			<ele>43.4000015258789</ele>
			<time>2014-04-13T13:38:29Z</time>
		</trkpt>
		<trkpt lat="53.8163299560547" lon="13.5626440048218">
			<ele>43.2999992370605</ele>
			<time>2014-04-13T13:38:30Z</time>
		</trkpt>
		<trkpt lat="53.8163032531738" lon="13.5627298355103">
			<ele>43.5</ele>
			<time>2014-04-13T13:38:31Z</time>
		</trkpt>
		<trkpt lat="53.8162727355957" lon="13.5628156661987">
			<ele>43.7000007629395</ele>
			<time>2014-04-13T13:38:32Z</time>
		</trkpt>
		<trkpt lat="53.8162460327148" lon="13.5629053115845">
			<ele>44.0999984741211</ele>
			<time>2014-04-13T13:38:33Z</time>
		</trkpt>
		<trkpt lat="53.816219329834" lon="13.5630025863647">
			<ele>43.7000007629395</ele>
			<time>2014-04-13T13:38:34Z</time>
		</trkpt>
		<trkpt lat="53.8161926269531" lon="13.5630922317505">
			<ele>43.7000007629395</ele>
			<time>2014-04-13T13:38:35Z</time>
		</trkpt>
		<trkpt lat="53.8161659240723" lon="13.5631809234619">
			<ele>43.5</ele>
			<time>2014-04-13T13:38:36Z</time>
		</trkpt>
		<trkpt lat="53.8161392211914" lon="13.5632724761963">
			<ele>43.5</ele>
			<time>2014-04-13T13:38:37Z</time>
		</trkpt>
		<trkpt lat="53.816104888916" lon="13.5633640289307">
			<ele>43.4000015258789</ele>
			<time>2014-04-13T13:38:38Z</time>
		</trkpt>
		<trkpt lat="53.8160781860352" lon="13.5634498596191">
			<ele>43.4000015258789</ele>
			<time>2014-04-13T13:38:39Z</time>
		</trkpt>
		<trkpt lat="53.816047668457" lon="13.5635414123535">
			<ele>43.2999992370605</ele>
			<time>2014-04-13T13:38:40Z</time>
		</trkpt>
		<trkpt lat="53.8160171508789" lon="13.5636301040649">
			<ele>43.5</ele>
			<time>2014-04-13T13:38:41Z</time>
		</trkpt>
		<trkpt lat="53.8159828186035" lon="13.5637187957764">
			<ele>43.5</ele>
			<time>2014-04-13T13:38:42Z</time>
		</trkpt>
		<trkpt lat="53.8159561157227" lon="13.5638103485107">
			<ele>43.5</ele>
			<time>2014-04-13T13:38:43Z</time>
		</trkpt>
		<trkpt lat="53.8159294128418" lon="13.5639009475708">
			<ele>43.2000007629395</ele>
			<time>2014-04-13T13:38:44Z</time>
		</trkpt>
		<trkpt lat="53.8158988952637" lon="13.5639867782593">
			<ele>43.2000007629395</ele>
			<time>2014-04-13T13:38:45Z</time>
		</trkpt>
		<trkpt lat="53.8158721923828" lon="13.5640687942505">
			<ele>43.2999992370605</ele>
			<time>2014-04-13T13:38:46Z</time>
		</trkpt>
		<trkpt lat="53.815845489502" lon="13.5641527175903">
			<ele>43.4000015258789</ele>
			<time>2014-04-13T13:38:47Z</time>
		</trkpt>
		<trkpt lat="53.8158226013184" lon="13.5642318725586">
			<ele>43.2000007629395</ele>
			<time>2014-04-13T13:38:48Z</time>
		</trkpt>
		<trkpt lat="53.8157958984375" lon="13.5643148422241">
			<ele>43.2000007629395</ele>
			<time>2014-04-13T13:38:49Z</time>
		</trkpt>
		<trkpt lat="53.8157691955566" lon="13.5643978118896">
			<ele>43</ele>
			<time>2014-04-13T13:38:50Z</time>
		</trkpt>
		<trkpt lat="53.8157386779785" lon="13.5644798278809">
			<ele>43</ele>
			<time>2014-04-13T13:38:51Z</time>
		</trkpt>
		<trkpt lat="53.8157119750977" lon="13.5645608901978">
			<ele>43.2999992370605</ele>
			<time>2014-04-13T13:38:52Z</time>
		</trkpt>
		<trkpt lat="53.8156814575195" lon="13.5646448135376">
			<ele>43.5999984741211</ele>
			<time>2014-04-13T13:38:53Z</time>
		</trkpt>
		<trkpt lat="53.8156547546387" lon="13.5647354125977">
			<ele>43.2000007629395</ele>
			<time>2014-04-13T13:38:54Z</time>
		</trkpt>
		<trkpt lat="53.8156242370605" lon="13.5648221969604">
			<ele>43.4000015258789</ele>
			<time>2014-04-13T13:38:55Z</time>
		</trkpt>
		<trkpt lat="53.8155937194824" lon="13.5649070739746">
			<ele>43.7000007629395</ele>
			<time>2014-04-13T13:38:56Z</time>
		</trkpt>
		<trkpt lat="53.8155670166016" lon="13.5650024414063">
			<ele>43.5</ele>
			<time>2014-04-13T13:38:57Z</time>
		</trkpt>
		<trkpt lat="53.8155364990234" lon="13.5650939941406">
			<ele>43.7000007629395</ele>
			<time>2014-04-13T13:38:58Z</time>
		</trkpt>
		<trkpt lat="53.8155097961426" lon="13.5651874542236">
			<ele>43.5999984741211</ele>
			<time>2014-04-13T13:38:59Z</time>
		</trkpt>
		<trkpt lat="53.815486907959" lon="13.5652847290039">
			<ele>43.4000015258789</ele>
			<time>2014-04-13T13:39:00Z</time>
		</trkpt>
		<trkpt lat="53.8154602050781" lon="13.5653734207153">
			<ele>43.4000015258789</ele>
			<time>2014-04-13T13:39:01Z</time>
		</trkpt>
		<trkpt lat="53.8154373168945" lon="13.5654621124268">
			<ele>43.4000015258789</ele>
			<time>2014-04-13T13:39:02Z</time>
		</trkpt>
		<trkpt lat="53.8154106140137" lon="13.5655498504639">
			<ele>43.4000015258789</ele>
			<time>2014-04-13T13:39:03Z</time>
		</trkpt>
		<trkpt lat="53.8153839111328" lon="13.5656318664551">
			<ele>43.5999984741211</ele>
			<time>2014-04-13T13:39:04Z</time>
		</trkpt>
		<trkpt lat="53.8153610229492" lon="13.565710067749">
			<ele>43.5999984741211</ele>
			<time>2014-04-13T13:39:05Z</time>
		</trkpt>
		<trkpt lat="53.8153343200684" lon="13.5657939910889">
			<ele>43.2999992370605</ele>
			<time>2014-04-13T13:39:06Z</time>
		</trkpt>
		<trkpt lat="53.815315246582" lon="13.5658807754517">
			<ele>43.4000015258789</ele>
			<time>2014-04-13T13:39:07Z</time>
		</trkpt>
		<trkpt lat="53.8152885437012" lon="13.5659618377686">
			<ele>43.5</ele>
			<time>2014-04-13T13:39:08Z</time>
		</trkpt>
		<trkpt lat="53.8152618408203" lon="13.5660438537598">
			<ele>43.4000015258789</ele>
			<time>2014-04-13T13:39:09Z</time>
		</trkpt>
		<trkpt lat="53.8152351379395" lon="13.5661249160767">
			<ele>43.4000015258789</ele>
			<time>2014-04-13T13:39:10Z</time>
		</trkpt>
		<trkpt lat="53.8152122497559" lon="13.5662107467651">
			<ele>43.2999992370605</ele>
			<time>2014-04-13T13:39:11Z</time>
		</trkpt>
		<trkpt lat="53.815185546875" lon="13.5662956237793">
			<ele>43.5999984741211</ele>
			<time>2014-04-13T13:39:12Z</time>
		</trkpt>
		<trkpt lat="53.8151626586914" lon="13.5663833618164">
			<ele>43.5999984741211</ele>
			<time>2014-04-13T13:39:13Z</time>
		</trkpt>
		<trkpt lat="53.8151359558105" lon="13.5664701461792">
			<ele>43.5999984741211</ele>
			<time>2014-04-13T13:39:14Z</time>
		</trkpt>
		<trkpt lat="53.815113067627" lon="13.5665578842163">
			<ele>43.7999992370605</ele>
			<time>2014-04-13T13:39:15Z</time>
		</trkpt>
		<trkpt lat="53.8150863647461" lon="13.5666399002075">
			<ele>43.7000007629395</ele>
			<time>2014-04-13T13:39:16Z</time>
		</trkpt>
		<trkpt lat="53.8150634765625" lon="13.5667238235474">
			<ele>43.7999992370605</ele>
			<time>2014-04-13T13:39:17Z</time>
		</trkpt>
		<trkpt lat="53.8150405883789" lon="13.566801071167">
			<ele>43.7000007629395</ele>
			<time>2014-04-13T13:39:18Z</time>
		</trkpt>
		<trkpt lat="53.815013885498" lon="13.5668783187866">
			<ele>43.7000007629395</ele>
			<time>2014-04-13T13:39:19Z</time>
		</trkpt>
		<trkpt lat="53.8149871826172" lon="13.5669603347778">
			<ele>43.7000007629395</ele>
			<time>2014-04-13T13:39:20Z</time>
		</trkpt>
		<trkpt lat="53.8149642944336" lon="13.567042350769">
			<ele>43.7000007629395</ele>
			<time>2014-04-13T13:39:21Z</time>
		</trkpt>
		<trkpt lat="53.8149375915527" lon="13.5671272277832">
			<ele>43.5999984741211</ele>
			<time>2014-04-13T13:39:22Z</time>
		</trkpt>
		<trkpt lat="53.8149147033691" lon="13.5672149658203">
			<ele>43.5999984741211</ele>
			<time>2014-04-13T13:39:23Z</time>
		</trkpt>
		<trkpt lat="53.8148880004883" lon="13.5672998428345">
			<ele>43.5999984741211</ele>
			<time>2014-04-13T13:39:24Z</time>
		</trkpt>
		<trkpt lat="53.8148612976074" lon="13.5673837661743">
			<ele>43.2999992370605</ele>
			<time>2014-04-13T13:39:25Z</time>
		</trkpt>
		<trkpt lat="53.8148345947266" lon="13.5674705505371">
			<ele>43.2999992370605</ele>
			<time>2014-04-13T13:39:26Z</time>
		</trkpt>
		<trkpt lat="53.814811706543" lon="13.5675535202026">
			<ele>43.2000007629395</ele>
			<time>2014-04-13T13:39:27Z</time>
		</trkpt>
		<trkpt lat="53.8147888183594" lon="13.5676364898682">
			<ele>43.2999992370605</ele>
			<time>2014-04-13T13:39:28Z</time>
		</trkpt>
		<trkpt lat="53.8147621154785" lon="13.5677089691162">
			<ele>43.5</ele>
			<time>2014-04-13T13:39:29Z</time>
		</trkpt>
		<trkpt lat="53.8147354125977" lon="13.5677976608276">
			<ele>42.9000015258789</ele>
			<time>2014-04-13T13:39:30Z</time>
		</trkpt>
		<trkpt lat="53.8147125244141" lon="13.5678834915161">
			<ele>42.9000015258789</ele>
			<time>2014-04-13T13:39:31Z</time>
		</trkpt>
		<trkpt lat="53.8146896362305" lon="13.5679712295532">
			<ele>43</ele>
			<time>2014-04-13T13:39:32Z</time>
		</trkpt>
		<trkpt lat="53.8146629333496" lon="13.5680589675903">
			<ele>42.9000015258789</ele>
			<time>2014-04-13T13:39:33Z</time>
		</trkpt>
		<trkpt lat="53.8146362304688" lon="13.5681428909302">
			<ele>43</ele>
			<time>2014-04-13T13:39:34Z</time>
		</trkpt>
		<trkpt lat="53.8146133422852" lon="13.568229675293">
			<ele>43</ele>
			<time>2014-04-13T13:39:35Z</time>
		</trkpt>
		<trkpt lat="53.8145790100098" lon="13.5683212280273">
			<ele>43.0999984741211</ele>
			<time>2014-04-13T13:39:36Z</time>
		</trkpt>
		<trkpt lat="53.8145599365234" lon="13.5684032440186">
			<ele>43.2000007629395</ele>
			<time>2014-04-13T13:39:37Z</time>
		</trkpt>
		<trkpt lat="53.814525604248" lon="13.5684862136841">
			<ele>43</ele>
			<time>2014-04-13T13:39:38Z</time>
		</trkpt>
		<trkpt lat="53.8145027160645" lon="13.5685777664185">
			<ele>42.9000015258789</ele>
			<time>2014-04-13T13:39:39Z</time>
		</trkpt>
		<trkpt lat="53.8144760131836" lon="13.5686702728271">
			<ele>42.5999984741211</ele>
			<time>2014-04-13T13:39:40Z</time>
		</trkpt>
		<trkpt lat="53.8144493103027" lon="13.5687589645386">
			<ele>42.5</ele>
			<time>2014-04-13T13:39:41Z</time>
		</trkpt>
		<trkpt lat="53.8144264221191" lon="13.5688438415527">
			<ele>42.5</ele>
			<time>2014-04-13T13:39:42Z</time>
		</trkpt>
		<trkpt lat="53.814395904541" lon="13.5689315795898">
			<ele>42.5</ele>
			<time>2014-04-13T13:39:43Z</time>
		</trkpt>
		<trkpt lat="53.8143692016602" lon="13.5690155029297">
			<ele>42.5999984741211</ele>
			<time>2014-04-13T13:39:44Z</time>
		</trkpt>
		<trkpt lat="53.8143424987793" lon="13.5691080093384">
			<ele>42.7000007629395</ele>
			<time>2014-04-13T13:39:45Z</time>
		</trkpt>
		<trkpt lat="53.8143196105957" lon="13.5691967010498">
			<ele>42.7999992370605</ele>
			<time>2014-04-13T13:39:46Z</time>
		</trkpt>
		<trkpt lat="53.8142929077148" lon="13.5692796707153">
			<ele>42.9000015258789</ele>
			<time>2014-04-13T13:39:47Z</time>
		</trkpt>
		<trkpt lat="53.814266204834" lon="13.5693645477295">
			<ele>43</ele>
			<time>2014-04-13T13:39:48Z</time>
		</trkpt>
		<trkpt lat="53.8142433166504" lon="13.5694484710693">
			<ele>43.2000007629395</ele>
			<time>2014-04-13T13:39:49Z</time>
		</trkpt>
		<trkpt lat="53.8142204284668" lon="13.5695400238037">
			<ele>43.7999992370605</ele>
			<time>2014-04-13T13:39:50Z</time>
		</trkpt>
		<trkpt lat="53.8141937255859" lon="13.5696325302124">
			<ele>43.7999992370605</ele>
			<time>2014-04-13T13:39:51Z</time>
		</trkpt>
		<trkpt lat="53.8141708374023" lon="13.5697202682495">
			<ele>44.2000007629395</ele>
			<time>2014-04-13T13:39:52Z</time>
		</trkpt>
		<trkpt lat="53.8141593933105" lon="13.5698213577271">
			<ele>45.5999984741211</ele>
			<time>2014-04-13T13:39:53Z</time>
		</trkpt>
		<trkpt lat="53.8141288757324" lon="13.5699195861816">
			<ele>45.2999992370605</ele>
			<time>2014-04-13T13:39:54Z</time>
		</trkpt>
		<trkpt lat="53.8141098022461" lon="13.5700149536133">
			<ele>45.4000015258789</ele>
			<time>2014-04-13T13:39:55Z</time>
		</trkpt>
		<trkpt lat="53.8140830993652" lon="13.570107460022">
			<ele>45.4000015258789</ele>
			<time>2014-04-13T13:39:56Z</time>
		</trkpt>
		<trkpt lat="53.8140563964844" lon="13.5702018737793">
			<ele>45.2999992370605</ele>
			<time>2014-04-13T13:39:57Z</time>
		</trkpt>
		<trkpt lat="53.8140296936035" lon="13.5702953338623">
			<ele>45.5</ele>
			<time>2014-04-13T13:39:58Z</time>
		</trkpt>
		<trkpt lat="53.8140068054199" lon="13.5703868865967">
			<ele>45.2999992370605</ele>
			<time>2014-04-13T13:39:59Z</time>
		</trkpt>
		<trkpt lat="53.8139839172363" lon="13.5704860687256">
			<ele>45.2999992370605</ele>
			<time>2014-04-13T13:40:00Z</time>
		</trkpt>
		<trkpt lat="53.8139533996582" lon="13.5705862045288">
			<ele>45.4000015258789</ele>
			<time>2014-04-13T13:40:01Z</time>
		</trkpt>
		<trkpt lat="53.8139266967773" lon="13.5706729888916">
			<ele>45.2999992370605</ele>
			<time>2014-04-13T13:40:02Z</time>
		</trkpt>
		<trkpt lat="53.8139114379883" lon="13.5707578659058">
			<ele>45.5999984741211</ele>
			<time>2014-04-13T13:40:03Z</time>
		</trkpt>
		<trkpt lat="53.813892364502" lon="13.5708436965942">
			<ele>45.5999984741211</ele>
			<time>2014-04-13T13:40:04Z</time>
		</trkpt>
		<trkpt lat="53.8138694763184" lon="13.5709409713745">
			<ele>45.5</ele>
			<time>2014-04-13T13:40:05Z</time>
		</trkpt>
		<trkpt lat="53.813850402832" lon="13.5710344314575">
			<ele>45.2000007629395</ele>
			<time>2014-04-13T13:40:06Z</time>
		</trkpt>
		<trkpt lat="53.8138313293457" lon="13.5711212158203">
			<ele>45.7999992370605</ele>
			<time>2014-04-13T13:40:07Z</time>
		</trkpt>
		<trkpt lat="53.8138160705566" lon="13.5712118148804">
			<ele>45.7000007629395</ele>
			<time>2014-04-13T13:40:08Z</time>
		</trkpt>
		<trkpt lat="53.8137969970703" lon="13.571310043335">
			<ele>45.5</ele>
			<time>2014-04-13T13:40:09Z</time>
		</trkpt>
		<trkpt lat="53.8137817382813" lon="13.5714159011841">
			<ele>44.9000015258789</ele>
			<time>2014-04-13T13:40:10Z</time>
		</trkpt>
		<trkpt lat="53.8137626647949" lon="13.5715198516846">
			<ele>44.7999992370605</ele>
			<time>2014-04-13T13:40:11Z</time>
		</trkpt>
		<trkpt lat="53.8137397766113" lon="13.5716104507446">
			<ele>45.2999992370605</ele>
			<time>2014-04-13T13:40:12Z</time>
		</trkpt>
		<trkpt lat="53.8137130737305" lon="13.5717105865479">
			<ele>45.2000007629395</ele>
			<time>2014-04-13T13:40:13Z</time>
		</trkpt>
		<trkpt lat="53.8136901855469" lon="13.5718555450439">
			<ele>43</ele>
			<time>2014-04-13T13:40:15Z</time>
		</trkpt>
		<trkpt lat="53.8136787414551" lon="13.5719623565674">
			<ele>43.7000007629395</ele>
			<time>2014-04-13T13:40:16Z</time>
		</trkpt>
		<trkpt lat="53.8136711120605" lon="13.5720500946045">
			<ele>43.5999984741211</ele>
			<time>2014-04-13T13:40:17Z</time>
		</trkpt>
		<trkpt lat="53.8136558532715" lon="13.5721292495728">
			<ele>43.5</ele>
			<time>2014-04-13T13:40:18Z</time>
		</trkpt>
		<trkpt lat="53.8136367797852" lon="13.5722141265869">
			<ele>43.5999984741211</ele>
			<time>2014-04-13T13:40:19Z</time>
		</trkpt>
		<trkpt lat="53.8136177062988" lon="13.572301864624">
			<ele>43.9000015258789</ele>
			<time>2014-04-13T13:40:20Z</time>
		</trkpt>
		<trkpt lat="53.813606262207" lon="13.5723962783813">
			<ele>43.9000015258789</ele>
			<time>2014-04-13T13:40:21Z</time>
		</trkpt>
		<trkpt lat="53.8135948181152" lon="13.5724792480469">
			<ele>44</ele>
			<time>2014-04-13T13:40:22Z</time>
		</trkpt>
		<trkpt lat="53.8135757446289" lon="13.5725755691528">
			<ele>44</ele>
			<time>2014-04-13T13:40:23Z</time>
		</trkpt>
		<trkpt lat="53.8135566711426" lon="13.5726671218872">
			<ele>44.5999984741211</ele>
			<time>2014-04-13T13:40:24Z</time>
		</trkpt>
		<trkpt lat="53.8135375976563" lon="13.5727577209473">
			<ele>44.4000015258789</ele>
			<time>2014-04-13T13:40:25Z</time>
		</trkpt>
		<trkpt lat="53.8135185241699" lon="13.5728454589844">
			<ele>44.2999992370605</ele>
			<time>2014-04-13T13:40:26Z</time>
		</trkpt>
		<trkpt lat="53.8135032653809" lon="13.5729322433472">
			<ele>44.2999992370605</ele>
			<time>2014-04-13T13:40:27Z</time>
		</trkpt>
		<trkpt lat="53.8134841918945" lon="13.5730152130127">
			<ele>44.5</ele>
			<time>2014-04-13T13:40:28Z</time>
		</trkpt>
		<trkpt lat="53.8134651184082" lon="13.5731039047241">
			<ele>44.7000007629395</ele>
			<time>2014-04-13T13:40:29Z</time>
		</trkpt>
		<trkpt lat="53.8134460449219" lon="13.5731925964355">
			<ele>44.7000007629395</ele>
			<time>2014-04-13T13:40:30Z</time>
		</trkpt>
		<trkpt lat="53.8134307861328" lon="13.5732889175415">
			<ele>44.4000015258789</ele>
			<time>2014-04-13T13:40:31Z</time>
		</trkpt>
		<trkpt lat="53.8134155273438" lon="13.5733785629272">
			<ele>44.2000007629395</ele>
			<time>2014-04-13T13:40:32Z</time>
		</trkpt>
		<trkpt lat="53.8134002685547" lon="13.5734643936157">
			<ele>44</ele>
			<time>2014-04-13T13:40:33Z</time>
		</trkpt>
		<trkpt lat="53.8133850097656" lon="13.5735549926758">
			<ele>44</ele>
			<time>2014-04-13T13:40:34Z</time>
		</trkpt>
		<trkpt lat="53.8133697509766" lon="13.5736532211304">
			<ele>43.7999992370605</ele>
			<time>2014-04-13T13:40:35Z</time>
		</trkpt>
		<trkpt lat="53.8133506774902" lon="13.5737352371216">
			<ele>43.7000007629395</ele>
			<time>2014-04-13T13:40:36Z</time>
		</trkpt>
		<trkpt lat="53.8133354187012" lon="13.573826789856">
			<ele>43.7000007629395</ele>
			<time>2014-04-13T13:40:37Z</time>
		</trkpt>
		<trkpt lat="53.8133163452148" lon="13.5739164352417">
			<ele>43.7999992370605</ele>
			<time>2014-04-13T13:40:38Z</time>
		</trkpt>
		<trkpt lat="53.8132972717285" lon="13.5740013122559">
			<ele>43.7000007629395</ele>
			<time>2014-04-13T13:40:39Z</time>
		</trkpt>
		<trkpt lat="53.8132781982422" lon="13.5740938186646">
			<ele>43.7000007629395</ele>
			<time>2014-04-13T13:40:40Z</time>
		</trkpt>
		<trkpt lat="53.8132591247559" lon="13.5741853713989">
			<ele>43.7999992370605</ele>
			<time>2014-04-13T13:40:41Z</time>
		</trkpt>
		<trkpt lat="53.8132438659668" lon="13.5742692947388">
			<ele>44.0999984741211</ele>
			<time>2014-04-13T13:40:42Z</time>
		</trkpt>
		<trkpt lat="53.8132247924805" lon="13.5743494033813">
			<ele>44</ele>
			<time>2014-04-13T13:40:43Z</time>
		</trkpt>
		<trkpt lat="53.8132057189941" lon="13.5744276046753">
			<ele>43.5</ele>
			<time>2014-04-13T13:40:44Z</time>
		</trkpt>
		<trkpt lat="53.8131866455078" lon="13.5745058059692">
			<ele>43.4000015258789</ele>
			<time>2014-04-13T13:40:45Z</time>
		</trkpt>
		<trkpt lat="53.8131790161133" lon="13.5745811462402">
			<ele>43.5999984741211</ele>
			<time>2014-04-13T13:40:46Z</time>
		</trkpt>
		<trkpt lat="53.8131675720215" lon="13.5746622085571">
			<ele>44.4000015258789</ele>
			<time>2014-04-13T13:40:47Z</time>
		</trkpt>
		<trkpt lat="53.8131408691406" lon="13.5747985839844">
			<ele>44.2999992370605</ele>
			<time>2014-04-13T13:40:49Z</time>
		</trkpt>
		<trkpt lat="53.8131332397461" lon="13.5748777389526">
			<ele>44.4000015258789</ele>
			<time>2014-04-13T13:40:50Z</time>
		</trkpt>
		<trkpt lat="53.813117980957" lon="13.5749568939209">
			<ele>44.5</ele>
			<time>2014-04-13T13:40:51Z</time>
		</trkpt>
		<trkpt lat="53.8131065368652" lon="13.5750360488892">
			<ele>44.5999984741211</ele>
			<time>2014-04-13T13:40:52Z</time>
		</trkpt>
		<trkpt lat="53.8130912780762" lon="13.5751132965088">
			<ele>44.7999992370605</ele>
			<time>2014-04-13T13:40:53Z</time>
		</trkpt>
		<trkpt lat="53.8130798339844" lon="13.5751924514771">
			<ele>44.7999992370605</ele>
			<time>2014-04-13T13:40:54Z</time>
		</trkpt>
		<trkpt lat="53.8130645751953" lon="13.5752820968628">
			<ele>44.9000015258789</ele>
			<time>2014-04-13T13:40:55Z</time>
		</trkpt>
		<trkpt lat="53.8130569458008" lon="13.5753650665283">
			<ele>44.7999992370605</ele>
			<time>2014-04-13T13:40:56Z</time>
		</trkpt>
		<trkpt lat="53.8130416870117" lon="13.5754489898682">
			<ele>44.9000015258789</ele>
			<time>2014-04-13T13:40:57Z</time>
		</trkpt>
		<trkpt lat="53.8130264282227" lon="13.5755310058594">
			<ele>44.7999992370605</ele>
			<time>2014-04-13T13:40:58Z</time>
		</trkpt>
		<trkpt lat="53.8130111694336" lon="13.5756139755249">
			<ele>44.9000015258789</ele>
			<time>2014-04-13T13:40:59Z</time>
		</trkpt>
		<trkpt lat="53.8129997253418" lon="13.5756988525391">
			<ele>44.9000015258789</ele>
			<time>2014-04-13T13:41:00Z</time>
		</trkpt>
		<trkpt lat="53.81298828125" lon="13.5757818222046">
			<ele>44.7999992370605</ele>
			<time>2014-04-13T13:41:01Z</time>
		</trkpt>
		<trkpt lat="53.8129730224609" lon="13.5758686065674">
			<ele>44.9000015258789</ele>
			<time>2014-04-13T13:41:02Z</time>
		</trkpt>
		<trkpt lat="53.8129615783691" lon="13.5759468078613">
			<ele>45</ele>
			<time>2014-04-13T13:41:03Z</time>
		</trkpt>
		<trkpt lat="53.8129463195801" lon="13.5760297775269">
			<ele>44.7000007629395</ele>
			<time>2014-04-13T13:41:04Z</time>
		</trkpt>
		<trkpt lat="53.812931060791" lon="13.5761127471924">
			<ele>44.7000007629395</ele>
			<time>2014-04-13T13:41:05Z</time>
		</trkpt>
		<trkpt lat="53.8129196166992" lon="13.5761995315552">
			<ele>44.4000015258789</ele>
			<time>2014-04-13T13:41:06Z</time>
		</trkpt>
		<trkpt lat="53.8129081726074" lon="13.5762844085693">
			<ele>44.2000007629395</ele>
			<time>2014-04-13T13:41:07Z</time>
		</trkpt>
		<trkpt lat="53.8128929138184" lon="13.5763654708862">
			<ele>44.2000007629395</ele>
			<time>2014-04-13T13:41:08Z</time>
		</trkpt>
		<trkpt lat="53.8128814697266" lon="13.5764493942261">
			<ele>44.2000007629395</ele>
			<time>2014-04-13T13:41:09Z</time>
		</trkpt>
		<trkpt lat="53.8128700256348" lon="13.5765361785889">
			<ele>43.9000015258789</ele>
			<time>2014-04-13T13:41:10Z</time>
		</trkpt>
		<trkpt lat="53.812858581543" lon="13.576621055603">
			<ele>43.5999984741211</ele>
			<time>2014-04-13T13:41:11Z</time>
		</trkpt>
		<trkpt lat="53.8128433227539" lon="13.5767002105713">
			<ele>43.7000007629395</ele>
			<time>2014-04-13T13:41:12Z</time>
		</trkpt>
		<trkpt lat="53.8128280639648" lon="13.5767793655396">
			<ele>43.5999984741211</ele>
			<time>2014-04-13T13:41:13Z</time>
		</trkpt>
		<trkpt lat="53.8128204345703" lon="13.5768594741821">
			<ele>43.7000007629395</ele>
			<time>2014-04-13T13:41:14Z</time>
		</trkpt>
		<trkpt lat="53.8128051757813" lon="13.5769367218018">
			<ele>44</ele>
			<time>2014-04-13T13:41:15Z</time>
		</trkpt>
		<trkpt lat="53.8127899169922" lon="13.5770120620728">
			<ele>43.9000015258789</ele>
			<time>2014-04-13T13:41:16Z</time>
		</trkpt>
		<trkpt lat="53.8127708435059" lon="13.5770950317383">
			<ele>44.0999984741211</ele>
			<time>2014-04-13T13:41:17Z</time>
		</trkpt>
		<trkpt lat="53.8127593994141" lon="13.5771780014038">
			<ele>44.2999992370605</ele>
			<time>2014-04-13T13:41:18Z</time>
		</trkpt>
		<trkpt lat="53.8127403259277" lon="13.5772647857666">
			<ele>44.2000007629395</ele>
			<time>2014-04-13T13:41:19Z</time>
		</trkpt>
		<trkpt lat="53.8127288818359" lon="13.5773496627808">
			<ele>44.2999992370605</ele>
			<time>2014-04-13T13:41:20Z</time>
		</trkpt>
		<trkpt lat="53.8127136230469" lon="13.5774402618408">
			<ele>44</ele>
			<time>2014-04-13T13:41:21Z</time>
		</trkpt>
		<trkpt lat="53.8126983642578" lon="13.5775299072266">
			<ele>43.7000007629395</ele>
			<time>2014-04-13T13:41:22Z</time>
		</trkpt>
		<trkpt lat="53.8126831054688" lon="13.5776176452637">
			<ele>43.7000007629395</ele>
			<time>2014-04-13T13:41:23Z</time>
		</trkpt>
		<trkpt lat="53.812671661377" lon="13.5777053833008">
			<ele>43.5999984741211</ele>
			<time>2014-04-13T13:41:24Z</time>
		</trkpt>
		<trkpt lat="53.8126602172852" lon="13.5777978897095">
			<ele>43.2999992370605</ele>
			<time>2014-04-13T13:41:25Z</time>
		</trkpt>
		<trkpt lat="53.8126449584961" lon="13.5778827667236">
			<ele>43.4000015258789</ele>
			<time>2014-04-13T13:41:26Z</time>
		</trkpt>
		<trkpt lat="53.8126373291016" lon="13.5779685974121">
			<ele>43.2999992370605</ele>
			<time>2014-04-13T13:41:27Z</time>
		</trkpt>
		<trkpt lat="53.8126220703125" lon="13.5780572891235">
			<ele>43.5999984741211</ele>
			<time>2014-04-13T13:41:28Z</time>
		</trkpt>
		<trkpt lat="53.8126106262207" lon="13.5781517028809">
			<ele>43.4000015258789</ele>
			<time>2014-04-13T13:41:29Z</time>
		</trkpt>
		<trkpt lat="53.8125991821289" lon="13.5782413482666">
			<ele>43.4000015258789</ele>
			<time>2014-04-13T13:41:30Z</time>
		</trkpt>
		<trkpt lat="53.8125877380371" lon="13.5783243179321">
			<ele>43.5999984741211</ele>
			<time>2014-04-13T13:41:31Z</time>
		</trkpt>
		<trkpt lat="53.812572479248" lon="13.5784015655518">
			<ele>43.7000007629395</ele>
			<time>2014-04-13T13:41:32Z</time>
		</trkpt>
		<trkpt lat="53.812557220459" lon="13.5784845352173">
			<ele>43.5</ele>
			<time>2014-04-13T13:41:33Z</time>
		</trkpt>
		<trkpt lat="53.8125457763672" lon="13.5785665512085">
			<ele>43.7000007629395</ele>
			<time>2014-04-13T13:41:34Z</time>
		</trkpt>
		<trkpt lat="53.8125305175781" lon="13.5786762237549">
			<ele>43.9000015258789</ele>
			<time>2014-04-13T13:41:35Z</time>
		</trkpt>
		<trkpt lat="53.8125152587891" lon="13.5787630081177">
			<ele>44.0999984741211</ele>
			<time>2014-04-13T13:41:36Z</time>
		</trkpt>
		<trkpt lat="53.8125" lon="13.5788516998291">
			<ele>44.2999992370605</ele>
			<time>2014-04-13T13:41:37Z</time>
		</trkpt>
		<trkpt lat="53.8124809265137" lon="13.5789337158203">
			<ele>45.0999984741211</ele>
			<time>2014-04-13T13:41:38Z</time>
		</trkpt>
		<trkpt lat="53.8124618530273" lon="13.5790157318115">
			<ele>45.0999984741211</ele>
			<time>2014-04-13T13:41:39Z</time>
		</trkpt>
		<trkpt lat="53.8124504089355" lon="13.5790958404541">
			<ele>45.2000007629395</ele>
			<time>2014-04-13T13:41:40Z</time>
		</trkpt>
		<trkpt lat="53.8124389648438" lon="13.5791797637939">
			<ele>45.0999984741211</ele>
			<time>2014-04-13T13:41:41Z</time>
		</trkpt>
		<trkpt lat="53.812427520752" lon="13.5792675018311">
			<ele>45</ele>
			<time>2014-04-13T13:41:42Z</time>
		</trkpt>
		<trkpt lat="53.8124122619629" lon="13.5793523788452">
			<ele>45.0999984741211</ele>
			<time>2014-04-13T13:41:43Z</time>
		</trkpt>
		<trkpt lat="53.8123970031738" lon="13.579442024231">
			<ele>44.7000007629395</ele>
			<time>2014-04-13T13:41:44Z</time>
		</trkpt>
		<trkpt lat="53.8123893737793" lon="13.579535484314">
			<ele>44.7999992370605</ele>
			<time>2014-04-13T13:41:45Z</time>
		</trkpt>
		<trkpt lat="53.8123741149902" lon="13.579628944397">
			<ele>44.7999992370605</ele>
			<time>2014-04-13T13:41:46Z</time>
		</trkpt>
		<trkpt lat="53.8123550415039" lon="13.5797204971313">
			<ele>44.4000015258789</ele>
			<time>2014-04-13T13:41:47Z</time>
		</trkpt>
		<trkpt lat="53.8123397827148" lon="13.5798101425171">
			<ele>44.5</ele>
			<time>2014-04-13T13:41:48Z</time>
		</trkpt>
		<trkpt lat="53.812328338623" lon="13.5799016952515">
			<ele>44.5999984741211</ele>
			<time>2014-04-13T13:41:49Z</time>
		</trkpt>
		<trkpt lat="53.8123092651367" lon="13.5799894332886">
			<ele>44.5</ele>
			<time>2014-04-13T13:41:50Z</time>
		</trkpt>
		<trkpt lat="53.8122863769531" lon="13.5800743103027">
			<ele>44.5</ele>
			<time>2014-04-13T13:41:51Z</time>
		</trkpt>
		<trkpt lat="53.8122634887695" lon="13.5801553726196">
			<ele>44.5999984741211</ele>
			<time>2014-04-13T13:41:52Z</time>
		</trkpt>
		<trkpt lat="53.8122367858887" lon="13.5802316665649">
			<ele>44.5999984741211</ele>
			<time>2014-04-13T13:41:53Z</time>
		</trkpt>
		<trkpt lat="53.8122062683105" lon="13.5802993774414">
			<ele>44.5</ele>
			<time>2014-04-13T13:41:54Z</time>
		</trkpt>
		<trkpt lat="53.8121719360352" lon="13.5803670883179">
			<ele>44.7999992370605</ele>
			<time>2014-04-13T13:41:55Z</time>
		</trkpt>
		<trkpt lat="53.812141418457" lon="13.5804376602173">
			<ele>44.5999984741211</ele>
			<time>2014-04-13T13:41:56Z</time>
		</trkpt>
		<trkpt lat="53.8121109008789" lon="13.5805158615112">
			<ele>44.5999984741211</ele>
			<time>2014-04-13T13:41:57Z</time>
		</trkpt>
		<trkpt lat="53.8120803833008" lon="13.5805892944336">
			<ele>44.5</ele>
			<time>2014-04-13T13:41:59Z</time>
		</trkpt>
		<trkpt lat="53.8120231628418" lon="13.5807361602783">
			<ele>44.5</ele>
			<time>2014-04-13T13:42:00Z</time>
		</trkpt>
		<trkpt lat="53.8119888305664" lon="13.5807991027832">
			<ele>44.4000015258789</ele>
			<time>2014-04-13T13:42:01Z</time>
		</trkpt>
		<trkpt lat="53.8119583129883" lon="13.5808668136597">
			<ele>44.2000007629395</ele>
			<time>2014-04-13T13:42:02Z</time>
		</trkpt>
		<trkpt lat="53.8119239807129" lon="13.5809259414673">
			<ele>44.2000007629395</ele>
			<time>2014-04-13T13:42:03Z</time>
		</trkpt>
		<trkpt lat="53.8118896484375" lon="13.5809764862061">
			<ele>44</ele>
			<time>2014-04-13T13:42:04Z</time>
		</trkpt>
		<trkpt lat="53.8118515014648" lon="13.5810241699219">
			<ele>44</ele>
			<time>2014-04-13T13:42:05Z</time>
		</trkpt>
		<trkpt lat="53.8118171691895" lon="13.5810708999634">
			<ele>43.7999992370605</ele>
			<time>2014-04-13T13:42:06Z</time>
		</trkpt>
		<trkpt lat="53.8117523193359" lon="13.5811710357666">
			<ele>43.5999984741211</ele>
			<time>2014-04-13T13:42:08Z</time>
		</trkpt>
		<trkpt lat="53.811695098877" lon="13.5812711715698">
			<ele>43.4000015258789</ele>
			<time>2014-04-13T13:42:10Z</time>
		</trkpt>
		<trkpt lat="53.8116455078125" lon="13.5813493728638">
			<ele>43.2000007629395</ele>
			<time>2014-04-13T13:42:12Z</time>
		</trkpt>
		<trkpt lat="53.8116264343262" lon="13.5814208984375">
			<ele>43.7000007629395</ele>
			<time>2014-04-13T13:42:14Z</time>
		</trkpt>
		<trkpt lat="53.8116416931152" lon="13.5815134048462">
			<ele>43.5</ele>
			<time>2014-04-13T13:42:16Z</time>
		</trkpt>
		<trkpt lat="53.8116836547852" lon="13.5816202163696">
			<ele>44.2000007629395</ele>
			<time>2014-04-13T13:42:18Z</time>
		</trkpt>
		<trkpt lat="53.8117446899414" lon="13.5817251205444">
			<ele>44.5999984741211</ele>
			<time>2014-04-13T13:42:20Z</time>
		</trkpt>
		<trkpt lat="53.8117980957031" lon="13.5818462371826">
			<ele>44.2000007629395</ele>
			<time>2014-04-13T13:42:22Z</time>
		</trkpt>
		<trkpt lat="53.8118286132813" lon="13.5819044113159">
			<ele>43.9000015258789</ele>
			<time>2014-04-13T13:42:23Z</time>
		</trkpt>
		<trkpt lat="53.8118591308594" lon="13.5819606781006">
			<ele>43.7999992370605</ele>
			<time>2014-04-13T13:42:25Z</time>
		</trkpt>
		<trkpt lat="53.8119277954102" lon="13.5820970535278">
			<ele>44.2999992370605</ele>
			<time>2014-04-13T13:42:26Z</time>
		</trkpt>
		<trkpt lat="53.8119659423828" lon="13.5821619033813">
			<ele>43.5999984741211</ele>
			<time>2014-04-13T13:42:27Z</time>
		</trkpt>
		<trkpt lat="53.8119926452637" lon="13.5822334289551">
			<ele>43.5</ele>
			<time>2014-04-13T13:42:28Z</time>
		</trkpt>
		<trkpt lat="53.8120307922363" lon="13.5823030471802">
			<ele>43.5</ele>
			<time>2014-04-13T13:42:29Z</time>
		</trkpt>
		<trkpt lat="53.812068939209" lon="13.5823764801025">
			<ele>43.4000015258789</ele>
			<time>2014-04-13T13:42:30Z</time>
		</trkpt>
		<trkpt lat="53.8120918273926" lon="13.5824575424194">
			<ele>43.5</ele>
			<time>2014-04-13T13:42:31Z</time>
		</trkpt>
		<trkpt lat="53.8121299743652" lon="13.5825233459473">
			<ele>43.5999984741211</ele>
			<time>2014-04-13T13:42:32Z</time>
		</trkpt>
		<trkpt lat="53.8121681213379" lon="13.582592010498">
			<ele>43.7999992370605</ele>
			<time>2014-04-13T13:42:33Z</time>
		</trkpt>
		<trkpt lat="53.8122024536133" lon="13.5826587677002">
			<ele>44.4000015258789</ele>
			<time>2014-04-13T13:42:34Z</time>
		</trkpt>
		<trkpt lat="53.8122444152832" lon="13.5827350616455">
			<ele>44.5999984741211</ele>
			<time>2014-04-13T13:42:35Z</time>
		</trkpt>
		<trkpt lat="53.8122787475586" lon="13.5828151702881">
			<ele>44.2999992370605</ele>
			<time>2014-04-13T13:42:36Z</time>
		</trkpt>
		<trkpt lat="53.812313079834" lon="13.5828876495361">
			<ele>44.2999992370605</ele>
			<time>2014-04-13T13:42:37Z</time>
		</trkpt>
		<trkpt lat="53.8123474121094" lon="13.5829582214355">
			<ele>44.7999992370605</ele>
			<time>2014-04-13T13:42:38Z</time>
		</trkpt>
		<trkpt lat="53.812385559082" lon="13.5830307006836">
			<ele>45.0999984741211</ele>
			<time>2014-04-13T13:42:39Z</time>
		</trkpt>
		<trkpt lat="53.8124237060547" lon="13.5831117630005">
			<ele>45.2000007629395</ele>
			<time>2014-04-13T13:42:40Z</time>
		</trkpt>
		<trkpt lat="53.8124656677246" lon="13.5831842422485">
			<ele>45.4000015258789</ele>
			<time>2014-04-13T13:42:41Z</time>
		</trkpt>
		<trkpt lat="53.8125" lon="13.5832576751709">
			<ele>45.2999992370605</ele>
			<time>2014-04-13T13:42:42Z</time>
		</trkpt>
		<trkpt lat="53.8125381469727" lon="13.5833358764648">
			<ele>45.2999992370605</ele>
			<time>2014-04-13T13:42:43Z</time>
		</trkpt>
		<trkpt lat="53.8125762939453" lon="13.5834074020386">
			<ele>45.0999984741211</ele>
			<time>2014-04-13T13:42:44Z</time>
		</trkpt>
		<trkpt lat="53.812614440918" lon="13.5834817886353">
			<ele>45.0999984741211</ele>
			<time>2014-04-13T13:42:45Z</time>
		</trkpt>
		<trkpt lat="53.8126449584961" lon="13.5835599899292">
			<ele>44.9000015258789</ele>
			<time>2014-04-13T13:42:46Z</time>
		</trkpt>
		<trkpt lat="53.8126831054688" lon="13.5836353302002">
			<ele>45.2000007629395</ele>
			<time>2014-04-13T13:42:47Z</time>
		</trkpt>
		<trkpt lat="53.8127174377441" lon="13.5837173461914">
			<ele>45.0999984741211</ele>
			<time>2014-04-13T13:42:48Z</time>
		</trkpt>
		<trkpt lat="53.8127479553223" lon="13.583794593811">
			<ele>45.5</ele>
			<time>2014-04-13T13:42:49Z</time>
		</trkpt>
		<trkpt lat="53.8127746582031" lon="13.5838680267334">
			<ele>45.9000015258789</ele>
			<time>2014-04-13T13:42:50Z</time>
		</trkpt>
		<trkpt lat="53.8128089904785" lon="13.5839490890503">
			<ele>45.5999984741211</ele>
			<time>2014-04-13T13:42:51Z</time>
		</trkpt>
		<trkpt lat="53.8128395080566" lon="13.5840291976929">
			<ele>45.4000015258789</ele>
			<time>2014-04-13T13:42:52Z</time>
		</trkpt>
		<trkpt lat="53.8128662109375" lon="13.5841102600098">
			<ele>45.2000007629395</ele>
			<time>2014-04-13T13:42:53Z</time>
		</trkpt>
		<trkpt lat="53.8128929138184" lon="13.5841941833496">
			<ele>45.0999984741211</ele>
			<time>2014-04-13T13:42:54Z</time>
		</trkpt>
		<trkpt lat="53.8129196166992" lon="13.5842790603638">
			<ele>45</ele>
			<time>2014-04-13T13:42:56Z</time>
		</trkpt>
		<trkpt lat="53.8129806518555" lon="13.5844430923462">
			<ele>45.2999992370605</ele>
			<time>2014-04-13T13:42:57Z</time>
		</trkpt>
		<trkpt lat="53.8130073547363" lon="13.5845327377319">
			<ele>45.5</ele>
			<time>2014-04-13T13:42:58Z</time>
		</trkpt>
		<trkpt lat="53.8130302429199" lon="13.5846281051636">
			<ele>45.2999992370605</ele>
			<time>2014-04-13T13:42:59Z</time>
		</trkpt>
		<trkpt lat="53.8130531311035" lon="13.5847158432007">
			<ele>45.2000007629395</ele>
			<time>2014-04-13T13:43:01Z</time>
		</trkpt>
		<trkpt lat="53.8130798339844" lon="13.5848064422607">
			<ele>45.2999992370605</ele>
			<time>2014-04-13T13:43:01Z</time>
		</trkpt>
		<trkpt lat="53.8131065368652" lon="13.5848999023438">
			<ele>45.4000015258789</ele>
			<time>2014-04-13T13:43:02Z</time>
		</trkpt>
		<trkpt lat="53.8131294250488" lon="13.5849905014038">
			<ele>45.5</ele>
			<time>2014-04-13T13:43:03Z</time>
		</trkpt>
		<trkpt lat="53.8131561279297" lon="13.5850849151611">
			<ele>45.2999992370605</ele>
			<time>2014-04-13T13:43:04Z</time>
		</trkpt>
		<trkpt lat="53.8131828308105" lon="13.5851802825928">
			<ele>45.5</ele>
			<time>2014-04-13T13:43:05Z</time>
		</trkpt>
		<trkpt lat="53.8132095336914" lon="13.5852727890015">
			<ele>45.2999992370605</ele>
			<time>2014-04-13T13:43:06Z</time>
		</trkpt>
		<trkpt lat="53.813232421875" lon="13.5853700637817">
			<ele>45.0999984741211</ele>
			<time>2014-04-13T13:43:07Z</time>
		</trkpt>
		<trkpt lat="53.8132591247559" lon="13.5854663848877">
			<ele>45.0999984741211</ele>
			<time>2014-04-13T13:43:08Z</time>
		</trkpt>
		<trkpt lat="53.8132820129395" lon="13.5855627059937">
			<ele>45.2000007629395</ele>
			<time>2014-04-13T13:43:09Z</time>
		</trkpt>
		<trkpt lat="53.8133087158203" lon="13.5856628417969">
			<ele>45.2999992370605</ele>
			<time>2014-04-13T13:43:10Z</time>
		</trkpt>
		<trkpt lat="53.8133316040039" lon="13.5857582092285">
			<ele>45.4000015258789</ele>
			<time>2014-04-13T13:43:11Z</time>
		</trkpt>
		<trkpt lat="53.8133583068848" lon="13.5858554840088">
			<ele>45.5</ele>
			<time>2014-04-13T13:43:12Z</time>
		</trkpt>
		<trkpt lat="53.8133850097656" lon="13.5859518051147">
			<ele>45.7000007629395</ele>
			<time>2014-04-13T13:43:13Z</time>
		</trkpt>
		<trkpt lat="53.8134078979492" lon="13.586049079895">
			<ele>45.7000007629395</ele>
			<time>2014-04-13T13:43:14Z</time>
		</trkpt>
		<trkpt lat="53.8134346008301" lon="13.5861501693726">
			<ele>45.7000007629395</ele>
			<time>2014-04-13T13:43:15Z</time>
		</trkpt>
		<trkpt lat="53.8134613037109" lon="13.5862426757813">
			<ele>45.4000015258789</ele>
			<time>2014-04-13T13:43:16Z</time>
		</trkpt>
		<trkpt lat="53.8134918212891" lon="13.5863380432129">
			<ele>45.5</ele>
			<time>2014-04-13T13:43:17Z</time>
		</trkpt>
		<trkpt lat="53.8135147094727" lon="13.5864353179932">
			<ele>45.2999992370605</ele>
			<time>2014-04-13T13:43:18Z</time>
		</trkpt>
		<trkpt lat="53.8135414123535" lon="13.5865354537964">
			<ele>45.4000015258789</ele>
			<time>2014-04-13T13:43:19Z</time>
		</trkpt>
		<trkpt lat="53.8135719299316" lon="13.5866384506226">
			<ele>45.5999984741211</ele>
			<time>2014-04-13T13:43:20Z</time>
		</trkpt>
		<trkpt lat="53.8135948181152" lon="13.5867366790771">
			<ele>45.5</ele>
			<time>2014-04-13T13:43:21Z</time>
		</trkpt>
		<trkpt lat="53.8136215209961" lon="13.5868368148804">
			<ele>45.4000015258789</ele>
			<time>2014-04-13T13:43:22Z</time>
		</trkpt>
		<trkpt lat="53.813648223877" lon="13.5869407653809">
			<ele>45.0999984741211</ele>
			<time>2014-04-13T13:43:23Z</time>
		</trkpt>
		<trkpt lat="53.8136711120605" lon="13.587043762207">
			<ele>45.0999984741211</ele>
			<time>2014-04-13T13:43:24Z</time>
		</trkpt>
		<trkpt lat="53.8136978149414" lon="13.5871438980103">
			<ele>45.4000015258789</ele>
			<time>2014-04-13T13:43:25Z</time>
		</trkpt>
		<trkpt lat="53.8137283325195" lon="13.5872488021851">
			<ele>45.2000007629395</ele>
			<time>2014-04-13T13:43:26Z</time>
		</trkpt>
		<trkpt lat="53.8137550354004" lon="13.5873527526855">
			<ele>45.2999992370605</ele>
			<time>2014-04-13T13:43:27Z</time>
		</trkpt>
		<trkpt lat="53.8137817382813" lon="13.587459564209">
			<ele>45.4000015258789</ele>
			<time>2014-04-13T13:43:28Z</time>
		</trkpt>
		<trkpt lat="53.8138084411621" lon="13.5875616073608">
			<ele>45.4000015258789</ele>
			<time>2014-04-13T13:43:29Z</time>
		</trkpt>
		<trkpt lat="53.8138313293457" lon="13.58766746521">
			<ele>45.2000007629395</ele>
			<time>2014-04-13T13:43:30Z</time>
		</trkpt>
		<trkpt lat="53.8138618469238" lon="13.5877742767334">
			<ele>45</ele>
			<time>2014-04-13T13:43:31Z</time>
		</trkpt>
		<trkpt lat="53.8138885498047" lon="13.5878820419312">
			<ele>45</ele>
			<time>2014-04-13T13:43:32Z</time>
		</trkpt>
		<trkpt lat="53.8139190673828" lon="13.5879859924316">
			<ele>44.7000007629395</ele>
			<time>2014-04-13T13:43:33Z</time>
		</trkpt>
		<trkpt lat="53.8139495849609" lon="13.5880889892578">
			<ele>45</ele>
			<time>2014-04-13T13:43:34Z</time>
		</trkpt>
		<trkpt lat="53.8139762878418" lon="13.5881910324097">
			<ele>45.2000007629395</ele>
			<time>2014-04-13T13:43:35Z</time>
		</trkpt>
		<trkpt lat="53.8140068054199" lon="13.5882911682129">
			<ele>45.5</ele>
			<time>2014-04-13T13:43:36Z</time>
		</trkpt>
		<trkpt lat="53.8140335083008" lon="13.5883884429932">
			<ele>45.5</ele>
			<time>2014-04-13T13:43:37Z</time>
		</trkpt>
		<trkpt lat="53.8140563964844" lon="13.5884857177734">
			<ele>45.5</ele>
			<time>2014-04-13T13:43:38Z</time>
		</trkpt>
		<trkpt lat="53.814079284668" lon="13.5885877609253">
			<ele>45.5999984741211</ele>
			<time>2014-04-13T13:43:39Z</time>
		</trkpt>
		<trkpt lat="53.8141059875488" lon="13.5886859893799">
			<ele>45.7999992370605</ele>
			<time>2014-04-13T13:43:40Z</time>
		</trkpt>
		<trkpt lat="53.814136505127" lon="13.5887851715088">
			<ele>45.9000015258789</ele>
			<time>2014-04-13T13:43:41Z</time>
		</trkpt>
		<trkpt lat="53.8141593933105" lon="13.5888891220093">
			<ele>46</ele>
			<time>2014-04-13T13:43:42Z</time>
		</trkpt>
		<trkpt lat="53.8141860961914" lon="13.5889940261841">
			<ele>46</ele>
			<time>2014-04-13T13:43:43Z</time>
		</trkpt>
		<trkpt lat="53.8142127990723" lon="13.5890960693359">
			<ele>45.7999992370605</ele>
			<time>2014-04-13T13:43:44Z</time>
		</trkpt>
		<trkpt lat="53.8142395019531" lon="13.5892009735107">
			<ele>45.7999992370605</ele>
			<time>2014-04-13T13:43:45Z</time>
		</trkpt>
		<trkpt lat="53.8142623901367" lon="13.5893039703369">
			<ele>45.7999992370605</ele>
			<time>2014-04-13T13:43:46Z</time>
		</trkpt>
		<trkpt lat="53.8142929077148" lon="13.5894107818604">
			<ele>45.5999984741211</ele>
			<time>2014-04-13T13:43:47Z</time>
		</trkpt>
		<trkpt lat="53.814323425293" lon="13.5895128250122">
			<ele>45.5999984741211</ele>
			<time>2014-04-13T13:43:48Z</time>
		</trkpt>
		<trkpt lat="53.8143501281738" lon="13.589617729187">
			<ele>45.5999984741211</ele>
			<time>2014-04-13T13:43:49Z</time>
		</trkpt>
		<trkpt lat="53.8143768310547" lon="13.5897197723389">
			<ele>45.7000007629395</ele>
			<time>2014-04-13T13:43:50Z</time>
		</trkpt>
		<trkpt lat="53.8144073486328" lon="13.5898275375366">
			<ele>46</ele>
			<time>2014-04-13T13:43:51Z</time>
		</trkpt>
		<trkpt lat="53.8144302368164" lon="13.5899314880371">
			<ele>46.2000007629395</ele>
			<time>2014-04-13T13:43:52Z</time>
		</trkpt>
		<trkpt lat="53.8144569396973" lon="13.590033531189">
			<ele>46.0999984741211</ele>
			<time>2014-04-13T13:43:53Z</time>
		</trkpt>
		<trkpt lat="53.8144836425781" lon="13.5901403427124">
			<ele>46.2999992370605</ele>
			<time>2014-04-13T13:43:54Z</time>
		</trkpt>
		<trkpt lat="53.8145141601563" lon="13.5902442932129">
			<ele>46.2999992370605</ele>
			<time>2014-04-13T13:43:55Z</time>
		</trkpt>
		<trkpt lat="53.8145446777344" lon="13.5903491973877">
			<ele>46.2999992370605</ele>
			<time>2014-04-13T13:43:56Z</time>
		</trkpt>
		<trkpt lat="53.8145751953125" lon="13.5904550552368">
			<ele>46.5999984741211</ele>
			<time>2014-04-13T13:43:57Z</time>
		</trkpt>
		<trkpt lat="53.8146018981934" lon="13.5905628204346">
			<ele>46.5999984741211</ele>
			<time>2014-04-13T13:43:58Z</time>
		</trkpt>
		<trkpt lat="53.8146324157715" lon="13.5906686782837">
			<ele>46.7000007629395</ele>
			<time>2014-04-13T13:43:59Z</time>
		</trkpt>
		<trkpt lat="53.8146629333496" lon="13.5907773971558">
			<ele>46.5</ele>
			<time>2014-04-13T13:44:00Z</time>
		</trkpt>
		<trkpt lat="53.8146934509277" lon="13.5908823013306">
			<ele>46.4000015258789</ele>
			<time>2014-04-13T13:44:01Z</time>
		</trkpt>
		<trkpt lat="53.8147163391113" lon="13.5909862518311">
			<ele>46.5999984741211</ele>
			<time>2014-04-13T13:44:02Z</time>
		</trkpt>
		<trkpt lat="53.8147430419922" lon="13.5910940170288">
			<ele>46.5999984741211</ele>
			<time>2014-04-13T13:44:03Z</time>
		</trkpt>
		<trkpt lat="53.814769744873" lon="13.5911998748779">
			<ele>46.5999984741211</ele>
			<time>2014-04-13T13:44:04Z</time>
		</trkpt>
		<trkpt lat="53.8147964477539" lon="13.5913105010986">
			<ele>46.5999984741211</ele>
			<time>2014-04-13T13:44:05Z</time>
		</trkpt>
		<trkpt lat="53.814826965332" lon="13.5914106369019">
			<ele>46.5</ele>
			<time>2014-04-13T13:44:06Z</time>
		</trkpt>
		<trkpt lat="53.8148536682129" lon="13.591516494751">
			<ele>46.5999984741211</ele>
			<time>2014-04-13T13:44:07Z</time>
		</trkpt>
		<trkpt lat="53.814884185791" lon="13.5916299819946">
			<ele>46.7000007629395</ele>
			<time>2014-04-13T13:44:08Z</time>
		</trkpt>
		<trkpt lat="53.8149147033691" lon="13.5917301177979">
			<ele>46.5</ele>
			<time>2014-04-13T13:44:09Z</time>
		</trkpt>
		<trkpt lat="53.81494140625" lon="13.5918312072754">
			<ele>46.5999984741211</ele>
			<time>2014-04-13T13:44:10Z</time>
		</trkpt>
		<trkpt lat="53.8149719238281" lon="13.5919322967529">
			<ele>46.7000007629395</ele>
			<time>2014-04-13T13:44:11Z</time>
		</trkpt>
		<trkpt lat="53.8150024414063" lon="13.5920372009277">
			<ele>46.7000007629395</ele>
			<time>2014-04-13T13:44:12Z</time>
		</trkpt>
		<trkpt lat="53.8150291442871" lon="13.5921401977539">
			<ele>46.5999984741211</ele>
			<time>2014-04-13T13:44:13Z</time>
		</trkpt>
		<trkpt lat="53.815055847168" lon="13.5922451019287">
			<ele>46.7000007629395</ele>
			<time>2014-04-13T13:44:14Z</time>
		</trkpt>
		<trkpt lat="53.8150863647461" lon="13.5923509597778">
			<ele>46.7999992370605</ele>
			<time>2014-04-13T13:44:15Z</time>
		</trkpt>
		<trkpt lat="53.815113067627" lon="13.5924549102783">
			<ele>46.7999992370605</ele>
			<time>2014-04-13T13:44:16Z</time>
		</trkpt>
		<trkpt lat="53.8151435852051" lon="13.5925626754761">
			<ele>46.5</ele>
			<time>2014-04-13T13:44:17Z</time>
		</trkpt>
		<trkpt lat="53.8151702880859" lon="13.5926685333252">
			<ele>46.5</ele>
			<time>2014-04-13T13:44:18Z</time>
		</trkpt>
		<trkpt lat="53.8152008056641" lon="13.5927705764771">
			<ele>46.5999984741211</ele>
			<time>2014-04-13T13:44:19Z</time>
		</trkpt>
		<trkpt lat="53.8152236938477" lon="13.5928783416748">
			<ele>46.4000015258789</ele>
			<time>2014-04-13T13:44:20Z</time>
		</trkpt>
		<trkpt lat="53.8152465820313" lon="13.592978477478">
			<ele>46.5999984741211</ele>
			<time>2014-04-13T13:44:21Z</time>
		</trkpt>
		<trkpt lat="53.8152770996094" lon="13.5930776596069">
			<ele>46.5999984741211</ele>
			<time>2014-04-13T13:44:22Z</time>
		</trkpt>
		<trkpt lat="53.8153038024902" lon="13.5931730270386">
			<ele>46.7999992370605</ele>
			<time>2014-04-13T13:44:23Z</time>
		</trkpt>
		<trkpt lat="53.8153305053711" lon="13.5932769775391">
			<ele>47.0999984741211</ele>
			<time>2014-04-13T13:44:24Z</time>
		</trkpt>
		<trkpt lat="53.815357208252" lon="13.5933771133423">
			<ele>47.2000007629395</ele>
			<time>2014-04-13T13:44:25Z</time>
		</trkpt>
		<trkpt lat="53.8153800964355" lon="13.5934724807739">
			<ele>46.9000015258789</ele>
			<time>2014-04-13T13:44:26Z</time>
		</trkpt>
		<trkpt lat="53.8154106140137" lon="13.593578338623">
			<ele>47.0999984741211</ele>
			<time>2014-04-13T13:44:27Z</time>
		</trkpt>
		<trkpt lat="53.8154373168945" lon="13.5936822891235">
			<ele>46.9000015258789</ele>
			<time>2014-04-13T13:44:28Z</time>
		</trkpt>
		<trkpt lat="53.8154640197754" lon="13.5937786102295">
			<ele>47</ele>
			<time>2014-04-13T13:44:29Z</time>
		</trkpt>
		<trkpt lat="53.815486907959" lon="13.59388256073">
			<ele>47.2000007629395</ele>
			<time>2014-04-13T13:44:30Z</time>
		</trkpt>
		<trkpt lat="53.8155136108398" lon="13.5939855575562">
			<ele>47</ele>
			<time>2014-04-13T13:44:31Z</time>
		</trkpt>
		<trkpt lat="53.8155403137207" lon="13.5940895080566">
			<ele>47</ele>
			<time>2014-04-13T13:44:32Z</time>
		</trkpt>
		<trkpt lat="53.8155708312988" lon="13.5941944122314">
			<ele>47</ele>
			<time>2014-04-13T13:44:33Z</time>
		</trkpt>
		<trkpt lat="53.8155975341797" lon="13.5943031311035">
			<ele>47</ele>
			<time>2014-04-13T13:44:34Z</time>
		</trkpt>
		<trkpt lat="53.8156204223633" lon="13.5944061279297">
			<ele>47.0999984741211</ele>
			<time>2014-04-13T13:44:35Z</time>
		</trkpt>
		<trkpt lat="53.8156433105469" lon="13.5945072174072">
			<ele>46.9000015258789</ele>
			<time>2014-04-13T13:44:36Z</time>
		</trkpt>
		<trkpt lat="53.815673828125" lon="13.5946025848389">
			<ele>47.0999984741211</ele>
			<time>2014-04-13T13:44:37Z</time>
		</trkpt>
		<trkpt lat="53.8157043457031" lon="13.5947017669678">
			<ele>47</ele>
			<time>2014-04-13T13:44:38Z</time>
		</trkpt>
		<trkpt lat="53.815731048584" lon="13.5948028564453">
			<ele>46.9000015258789</ele>
			<time>2014-04-13T13:44:39Z</time>
		</trkpt>
		<trkpt lat="53.8157577514648" lon="13.5949058532715">
			<ele>47</ele>
			<time>2014-04-13T13:44:40Z</time>
		</trkpt>
		<trkpt lat="53.8157806396484" lon="13.5950145721436">
			<ele>47</ele>
			<time>2014-04-13T13:44:41Z</time>
		</trkpt>
		<trkpt lat="53.8158111572266" lon="13.595118522644">
			<ele>47.0999984741211</ele>
			<time>2014-04-13T13:44:42Z</time>
		</trkpt>
		<trkpt lat="53.8158340454102" lon="13.5952167510986">
			<ele>46.9000015258789</ele>
			<time>2014-04-13T13:44:43Z</time>
		</trkpt>
		<trkpt lat="53.8158645629883" lon="13.5953168869019">
			<ele>46.9000015258789</ele>
			<time>2014-04-13T13:44:44Z</time>
		</trkpt>
		<trkpt lat="53.8158912658691" lon="13.5954179763794">
			<ele>47.2999992370605</ele>
			<time>2014-04-13T13:44:45Z</time>
		</trkpt>
		<trkpt lat="53.8159141540527" lon="13.5955219268799">
			<ele>47.7000007629395</ele>
			<time>2014-04-13T13:44:46Z</time>
		</trkpt>
		<trkpt lat="53.8159408569336" lon="13.5956363677979">
			<ele>47.5</ele>
			<time>2014-04-13T13:44:47Z</time>
		</trkpt>
		<trkpt lat="53.8159675598145" lon="13.5957508087158">
			<ele>47.5999984741211</ele>
			<time>2014-04-13T13:44:48Z</time>
		</trkpt>
		<trkpt lat="53.8159942626953" lon="13.5958642959595">
			<ele>47.7999992370605</ele>
			<time>2014-04-13T13:44:49Z</time>
		</trkpt>
		<trkpt lat="53.8160247802734" lon="13.5959692001343">
			<ele>48.2000007629395</ele>
			<time>2014-04-13T13:44:50Z</time>
		</trkpt>
		<trkpt lat="53.8160552978516" lon="13.5960721969604">
			<ele>48.2000007629395</ele>
			<time>2014-04-13T13:44:51Z</time>
		</trkpt>
		<trkpt lat="53.8160858154297" lon="13.5961828231812">
			<ele>48.2999992370605</ele>
			<time>2014-04-13T13:44:52Z</time>
		</trkpt>
		<trkpt lat="53.8161125183105" lon="13.5962886810303">
			<ele>48.2999992370605</ele>
			<time>2014-04-13T13:44:53Z</time>
		</trkpt>
		<trkpt lat="53.8161430358887" lon="13.596396446228">
			<ele>48.2999992370605</ele>
			<time>2014-04-13T13:44:54Z</time>
		</trkpt>
		<trkpt lat="53.8161735534668" lon="13.5964994430542">
			<ele>48.4000015258789</ele>
			<time>2014-04-13T13:44:55Z</time>
		</trkpt>
		<trkpt lat="53.8162002563477" lon="13.5966053009033">
			<ele>48.2000007629395</ele>
			<time>2014-04-13T13:44:56Z</time>
		</trkpt>
		<trkpt lat="53.8162307739258" lon="13.5967044830322">
			<ele>48</ele>
			<time>2014-04-13T13:44:57Z</time>
		</trkpt>
		<trkpt lat="53.8162612915039" lon="13.5968017578125">
			<ele>48.0999984741211</ele>
			<time>2014-04-13T13:44:58Z</time>
		</trkpt>
		<trkpt lat="53.8162879943848" lon="13.5969038009644">
			<ele>48.2000007629395</ele>
			<time>2014-04-13T13:44:59Z</time>
		</trkpt>
		<trkpt lat="53.8163146972656" lon="13.5970058441162">
			<ele>48.0999984741211</ele>
			<time>2014-04-13T13:45:00Z</time>
		</trkpt>
		<trkpt lat="53.8163375854492" lon="13.5971059799194">
			<ele>48</ele>
			<time>2014-04-13T13:45:01Z</time>
		</trkpt>
		<trkpt lat="53.8163642883301" lon="13.5972013473511">
			<ele>48.0999984741211</ele>
			<time>2014-04-13T13:45:02Z</time>
		</trkpt>
		<trkpt lat="53.8163948059082" lon="13.5972967147827">
			<ele>48.0999984741211</ele>
			<time>2014-04-13T13:45:03Z</time>
		</trkpt>
		<trkpt lat="53.8164253234863" lon="13.59739112854">
			<ele>48.0999984741211</ele>
			<time>2014-04-13T13:45:04Z</time>
		</trkpt>
		<trkpt lat="53.8164596557617" lon="13.5974779129028">
			<ele>48.2000007629395</ele>
			<time>2014-04-13T13:45:05Z</time>
		</trkpt>
		<trkpt lat="53.8164901733398" lon="13.5975694656372">
			<ele>48.0999984741211</ele>
			<time>2014-04-13T13:45:06Z</time>
		</trkpt>
		<trkpt lat="53.8165245056152" lon="13.5976619720459">
			<ele>48.5</ele>
			<time>2014-04-13T13:45:07Z</time>
		</trkpt>
		<trkpt lat="53.8165588378906" lon="13.597752571106">
			<ele>48.5</ele>
			<time>2014-04-13T13:45:08Z</time>
		</trkpt>
		<trkpt lat="53.8165893554688" lon="13.597846031189">
			<ele>48.2999992370605</ele>
			<time>2014-04-13T13:45:09Z</time>
		</trkpt>
		<trkpt lat="53.8166236877441" lon="13.5979385375977">
			<ele>48.0999984741211</ele>
			<time>2014-04-13T13:45:10Z</time>
		</trkpt>
		<trkpt lat="53.8166580200195" lon="13.598030090332">
			<ele>47.9000015258789</ele>
			<time>2014-04-13T13:45:11Z</time>
		</trkpt>
		<trkpt lat="53.8166961669922" lon="13.5981273651123">
			<ele>47.7999992370605</ele>
			<time>2014-04-13T13:45:12Z</time>
		</trkpt>
		<trkpt lat="53.8167304992676" lon="13.598219871521">
			<ele>47.7999992370605</ele>
			<time>2014-04-13T13:45:13Z</time>
		</trkpt>
		<trkpt lat="53.8167686462402" lon="13.5983142852783">
			<ele>47.7000007629395</ele>
			<time>2014-04-13T13:45:14Z</time>
		</trkpt>
		<trkpt lat="53.8168029785156" lon="13.5984086990356">
			<ele>47.7999992370605</ele>
			<time>2014-04-13T13:45:15Z</time>
		</trkpt>
		<trkpt lat="53.8168411254883" lon="13.598503112793">
			<ele>47.7999992370605</ele>
			<time>2014-04-13T13:45:16Z</time>
		</trkpt>
		<trkpt lat="53.8168792724609" lon="13.5985984802246">
			<ele>48</ele>
			<time>2014-04-13T13:45:17Z</time>
		</trkpt>
		<trkpt lat="53.8169174194336" lon="13.5986919403076">
			<ele>48</ele>
			<time>2014-04-13T13:45:18Z</time>
		</trkpt>
		<trkpt lat="53.816951751709" lon="13.5987825393677">
			<ele>47.7999992370605</ele>
			<time>2014-04-13T13:45:19Z</time>
		</trkpt>
		<trkpt lat="53.8169860839844" lon="13.5988807678223">
			<ele>47.7999992370605</ele>
			<time>2014-04-13T13:45:20Z</time>
		</trkpt>
		<trkpt lat="53.817024230957" lon="13.598973274231">
			<ele>47.5999984741211</ele>
			<time>2014-04-13T13:45:21Z</time>
		</trkpt>
		<trkpt lat="53.8170585632324" lon="13.5990695953369">
			<ele>47.5</ele>
			<time>2014-04-13T13:45:22Z</time>
		</trkpt>
		<trkpt lat="53.8170967102051" lon="13.5991630554199">
			<ele>47.4000015258789</ele>
			<time>2014-04-13T13:45:23Z</time>
		</trkpt>
		<trkpt lat="53.8171348571777" lon="13.5992574691772">
			<ele>47.5</ele>
			<time>2014-04-13T13:45:24Z</time>
		</trkpt>
		<trkpt lat="53.8171691894531" lon="13.5993547439575">
			<ele>47.4000015258789</ele>
			<time>2014-04-13T13:45:25Z</time>
		</trkpt>
		<trkpt lat="53.817211151123" lon="13.5994491577148">
			<ele>47.2000007629395</ele>
			<time>2014-04-13T13:45:26Z</time>
		</trkpt>
		<trkpt lat="53.8172492980957" lon="13.5995388031006">
			<ele>47.2999992370605</ele>
			<time>2014-04-13T13:45:27Z</time>
		</trkpt>
		<trkpt lat="53.8172874450684" lon="13.5996313095093">
			<ele>47.2999992370605</ele>
			<time>2014-04-13T13:45:28Z</time>
		</trkpt>
		<trkpt lat="53.8173217773438" lon="13.5997219085693">
			<ele>47.2999992370605</ele>
			<time>2014-04-13T13:45:29Z</time>
		</trkpt>
		<trkpt lat="53.8173522949219" lon="13.5998125076294">
			<ele>47.5</ele>
			<time>2014-04-13T13:45:30Z</time>
		</trkpt>
		<trkpt lat="53.8173866271973" lon="13.5999059677124">
			<ele>47.5999984741211</ele>
			<time>2014-04-13T13:45:31Z</time>
		</trkpt>
		<trkpt lat="53.8174209594727" lon="13.5999975204468">
			<ele>47.5</ele>
			<time>2014-04-13T13:45:32Z</time>
		</trkpt>
		<trkpt lat="53.817455291748" lon="13.6000947952271">
			<ele>47.5</ele>
			<time>2014-04-13T13:45:33Z</time>
		</trkpt>
		<trkpt lat="53.8174934387207" lon="13.6001825332642">
			<ele>47.5</ele>
			<time>2014-04-13T13:45:34Z</time>
		</trkpt>
		<trkpt lat="53.8175277709961" lon="13.6002721786499">
			<ele>47.5</ele>
			<time>2014-04-13T13:45:35Z</time>
		</trkpt>
		<trkpt lat="53.8175621032715" lon="13.60036277771">
			<ele>47.2999992370605</ele>
			<time>2014-04-13T13:45:36Z</time>
		</trkpt>
		<trkpt lat="53.8175964355469" lon="13.6004524230957">
			<ele>47.5</ele>
			<time>2014-04-13T13:45:37Z</time>
		</trkpt>
		<trkpt lat="53.8176307678223" lon="13.6005411148071">
			<ele>47.5</ele>
			<time>2014-04-13T13:45:38Z</time>
		</trkpt>
		<trkpt lat="53.8176689147949" lon="13.6006317138672">
			<ele>47.5999984741211</ele>
			<time>2014-04-13T13:45:39Z</time>
		</trkpt>
		<trkpt lat="53.8177032470703" lon="13.6007223129272">
			<ele>47.4000015258789</ele>
			<time>2014-04-13T13:45:40Z</time>
		</trkpt>
		<trkpt lat="53.8177375793457" lon="13.6008081436157">
			<ele>47.5</ele>
			<time>2014-04-13T13:45:41Z</time>
		</trkpt>
		<trkpt lat="53.8177719116211" lon="13.6008987426758">
			<ele>47.2999992370605</ele>
			<time>2014-04-13T13:45:42Z</time>
		</trkpt>
		<trkpt lat="53.8178062438965" lon="13.6009855270386">
			<ele>47.0999984741211</ele>
			<time>2014-04-13T13:45:43Z</time>
		</trkpt>
		<trkpt lat="53.8178405761719" lon="13.6010732650757">
			<ele>47.0999984741211</ele>
			<time>2014-04-13T13:45:44Z</time>
		</trkpt>
		<trkpt lat="53.8178749084473" lon="13.6011581420898">
			<ele>47.2000007629395</ele>
			<time>2014-04-13T13:45:45Z</time>
		</trkpt>
		<trkpt lat="53.8179092407227" lon="13.6012468338013">
			<ele>47.0999984741211</ele>
			<time>2014-04-13T13:45:46Z</time>
		</trkpt>
		<trkpt lat="53.817943572998" lon="13.6013345718384">
			<ele>47</ele>
			<time>2014-04-13T13:45:47Z</time>
		</trkpt>
		<trkpt lat="53.8179779052734" lon="13.6014204025269">
			<ele>47.0999984741211</ele>
			<time>2014-04-13T13:45:48Z</time>
		</trkpt>
		<trkpt lat="53.8180084228516" lon="13.6015100479126">
			<ele>47.0999984741211</ele>
			<time>2014-04-13T13:45:49Z</time>
		</trkpt>
		<trkpt lat="53.818042755127" lon="13.6015958786011">
			<ele>47</ele>
			<time>2014-04-13T13:45:50Z</time>
		</trkpt>
		<trkpt lat="53.8180770874023" lon="13.6016798019409">
			<ele>47</ele>
			<time>2014-04-13T13:45:51Z</time>
		</trkpt>
		<trkpt lat="53.8181114196777" lon="13.6017646789551">
			<ele>46.5999984741211</ele>
			<time>2014-04-13T13:45:52Z</time>
		</trkpt>
		<trkpt lat="53.8181419372559" lon="13.6018514633179">
			<ele>47.2000007629395</ele>
			<time>2014-04-13T13:45:53Z</time>
		</trkpt>
		<trkpt lat="53.818172454834" lon="13.6019382476807">
			<ele>47.2000007629395</ele>
			<time>2014-04-13T13:45:54Z</time>
		</trkpt>
		<trkpt lat="53.8182067871094" lon="13.6020202636719">
			<ele>47.2999992370605</ele>
			<time>2014-04-13T13:45:55Z</time>
		</trkpt>
		<trkpt lat="53.8182373046875" lon="13.6021070480347">
			<ele>47.5</ele>
			<time>2014-04-13T13:45:56Z</time>
		</trkpt>
		<trkpt lat="53.8182716369629" lon="13.6021938323975">
			<ele>47.7000007629395</ele>
			<time>2014-04-13T13:45:57Z</time>
		</trkpt>
		<trkpt lat="53.8183059692383" lon="13.6022748947144">
			<ele>47.7999992370605</ele>
			<time>2014-04-13T13:45:58Z</time>
		</trkpt>
		<trkpt lat="53.8183364868164" lon="13.6023635864258">
			<ele>47.7000007629395</ele>
			<time>2014-04-13T13:45:59Z</time>
		</trkpt>
		<trkpt lat="53.8183670043945" lon="13.6024560928345">
			<ele>47.5999984741211</ele>
			<time>2014-04-13T13:46:00Z</time>
		</trkpt>
		<trkpt lat="53.8184013366699" lon="13.6025362014771">
			<ele>48</ele>
			<time>2014-04-13T13:46:01Z</time>
		</trkpt>
		<trkpt lat="53.818431854248" lon="13.6026229858398">
			<ele>47.7999992370605</ele>
			<time>2014-04-13T13:46:02Z</time>
		</trkpt>
		<trkpt lat="53.8184623718262" lon="13.6027002334595">
			<ele>47.5999984741211</ele>
			<time>2014-04-13T13:46:03Z</time>
		</trkpt>
		<trkpt lat="53.8184928894043" lon="13.6027927398682">
			<ele>47.9000015258789</ele>
			<time>2014-04-13T13:46:04Z</time>
		</trkpt>
		<trkpt lat="53.8185234069824" lon="13.6028709411621">
			<ele>47.9000015258789</ele>
			<time>2014-04-13T13:46:05Z</time>
		</trkpt>
		<trkpt lat="53.8185577392578" lon="13.6029472351074">
			<ele>47.7000007629395</ele>
			<time>2014-04-13T13:46:06Z</time>
		</trkpt>
		<trkpt lat="53.8185882568359" lon="13.6030254364014">
			<ele>47.7999992370605</ele>
			<time>2014-04-13T13:46:07Z</time>
		</trkpt>
		<trkpt lat="53.8186149597168" lon="13.6031084060669">
			<ele>47.7999992370605</ele>
			<time>2014-04-13T13:46:08Z</time>
		</trkpt>
		<trkpt lat="53.8186492919922" lon="13.603199005127">
			<ele>47.7000007629395</ele>
			<time>2014-04-13T13:46:09Z</time>
		</trkpt>
		<trkpt lat="53.8186836242676" lon="13.6032743453979">
			<ele>47.7000007629395</ele>
			<time>2014-04-13T13:46:10Z</time>
		</trkpt>
		<trkpt lat="53.8187141418457" lon="13.6033554077148">
			<ele>48.2000007629395</ele>
			<time>2014-04-13T13:46:11Z</time>
		</trkpt>
		<trkpt lat="53.8187446594238" lon="13.6034393310547">
			<ele>48.4000015258789</ele>
			<time>2014-04-13T13:46:12Z</time>
		</trkpt>
		<trkpt lat="53.8187789916992" lon="13.6035099029541">
			<ele>47.7999992370605</ele>
			<time>2014-04-13T13:46:13Z</time>
		</trkpt>
		<trkpt lat="53.8188095092773" lon="13.6035823822021">
			<ele>47.5999984741211</ele>
			<time>2014-04-13T13:46:14Z</time>
		</trkpt>
		<trkpt lat="53.8188438415527" lon="13.6036529541016">
			<ele>47.5</ele>
			<time>2014-04-13T13:46:15Z</time>
		</trkpt>
		<trkpt lat="53.8188743591309" lon="13.6037397384644">
			<ele>47.7999992370605</ele>
			<time>2014-04-13T13:46:16Z</time>
		</trkpt>
		<trkpt lat="53.818904876709" lon="13.6038217544556">
			<ele>47.7999992370605</ele>
			<time>2014-04-13T13:46:17Z</time>
		</trkpt>
		<trkpt lat="53.8189315795898" lon="13.6039047241211">
			<ele>47.7000007629395</ele>
			<time>2014-04-13T13:46:18Z</time>
		</trkpt>
		<trkpt lat="53.818962097168" lon="13.6039876937866">
			<ele>47.2999992370605</ele>
			<time>2014-04-13T13:46:19Z</time>
		</trkpt>
		<trkpt lat="53.8189926147461" lon="13.6040706634521">
			<ele>47</ele>
			<time>2014-04-13T13:46:20Z</time>
		</trkpt>
		<trkpt lat="53.8190231323242" lon="13.6041536331177">
			<ele>46.9000015258789</ele>
			<time>2014-04-13T13:46:21Z</time>
		</trkpt>
		<trkpt lat="53.8190574645996" lon="13.6042375564575">
			<ele>47</ele>
			<time>2014-04-13T13:46:22Z</time>
		</trkpt>
		<trkpt lat="53.8190841674805" lon="13.6043252944946">
			<ele>46.7999992370605</ele>
			<time>2014-04-13T13:46:23Z</time>
		</trkpt>
		<trkpt lat="53.8191184997559" lon="13.6044073104858">
			<ele>46.5999984741211</ele>
			<time>2014-04-13T13:46:24Z</time>
		</trkpt>
		<trkpt lat="53.8191528320313" lon="13.6044883728027">
			<ele>46.7999992370605</ele>
			<time>2014-04-13T13:46:25Z</time>
		</trkpt>
		<trkpt lat="53.8191833496094" lon="13.6045703887939">
			<ele>47</ele>
			<time>2014-04-13T13:46:26Z</time>
		</trkpt>
		<trkpt lat="53.8192100524902" lon="13.6046524047852">
			<ele>46.7999992370605</ele>
			<time>2014-04-13T13:46:27Z</time>
		</trkpt>
		<trkpt lat="53.8192405700684" lon="13.6047391891479">
			<ele>46.7000007629395</ele>
			<time>2014-04-13T13:46:28Z</time>
		</trkpt>
		<trkpt lat="53.8192710876465" lon="13.6048231124878">
			<ele>46.7000007629395</ele>
			<time>2014-04-13T13:46:29Z</time>
		</trkpt>
		<trkpt lat="53.8192977905273" lon="13.6049098968506">
			<ele>46.7000007629395</ele>
			<time>2014-04-13T13:46:30Z</time>
		</trkpt>
		<trkpt lat="53.8193244934082" lon="13.6049976348877">
			<ele>46.9000015258789</ele>
			<time>2014-04-13T13:46:31Z</time>
		</trkpt>
		<trkpt lat="53.8193550109863" lon="13.6050853729248">
			<ele>47</ele>
			<time>2014-04-13T13:46:32Z</time>
		</trkpt>
		<trkpt lat="53.8193817138672" lon="13.6051778793335">
			<ele>46.7999992370605</ele>
			<time>2014-04-13T13:46:33Z</time>
		</trkpt>
		<trkpt lat="53.819408416748" lon="13.6052665710449">
			<ele>46.9000015258789</ele>
			<time>2014-04-13T13:46:34Z</time>
		</trkpt>
		<trkpt lat="53.8194389343262" lon="13.6053504943848">
			<ele>46.9000015258789</ele>
			<time>2014-04-13T13:46:35Z</time>
		</trkpt>
		<trkpt lat="53.819465637207" lon="13.6054353713989">
			<ele>47</ele>
			<time>2014-04-13T13:46:36Z</time>
		</trkpt>
		<trkpt lat="53.8194923400879" lon="13.6055240631104">
			<ele>46.9000015258789</ele>
			<time>2014-04-13T13:46:37Z</time>
		</trkpt>
		<trkpt lat="53.8195266723633" lon="13.6056108474731">
			<ele>47</ele>
			<time>2014-04-13T13:46:38Z</time>
		</trkpt>
		<trkpt lat="53.8195571899414" lon="13.6057033538818">
			<ele>47.0999984741211</ele>
			<time>2014-04-13T13:46:39Z</time>
		</trkpt>
		<trkpt lat="53.8195877075195" lon="13.6057958602905">
			<ele>47</ele>
			<time>2014-04-13T13:46:40Z</time>
		</trkpt>
		<trkpt lat="53.8196144104004" lon="13.605881690979">
			<ele>46.9000015258789</ele>
			<time>2014-04-13T13:46:41Z</time>
		</trkpt>
		<trkpt lat="53.8196449279785" lon="13.6059722900391">
			<ele>46.9000015258789</ele>
			<time>2014-04-13T13:46:42Z</time>
		</trkpt>
		<trkpt lat="53.8196754455566" lon="13.6060647964478">
			<ele>46.9000015258789</ele>
			<time>2014-04-13T13:46:43Z</time>
		</trkpt>
		<trkpt lat="53.8197059631348" lon="13.6061563491821">
			<ele>46.9000015258789</ele>
			<time>2014-04-13T13:46:44Z</time>
		</trkpt>
		<trkpt lat="53.8197364807129" lon="13.6062488555908">
			<ele>47</ele>
			<time>2014-04-13T13:46:45Z</time>
		</trkpt>
		<trkpt lat="53.819766998291" lon="13.6063375473022">
			<ele>47.2000007629395</ele>
			<time>2014-04-13T13:46:46Z</time>
		</trkpt>
		<trkpt lat="53.8198013305664" lon="13.606427192688">
			<ele>47.2000007629395</ele>
			<time>2014-04-13T13:46:47Z</time>
		</trkpt>
		<trkpt lat="53.8198318481445" lon="13.6065216064453">
			<ele>47.4000015258789</ele>
			<time>2014-04-13T13:46:48Z</time>
		</trkpt>
		<trkpt lat="53.8198623657227" lon="13.606614112854">
			<ele>47.4000015258789</ele>
			<time>2014-04-13T13:46:49Z</time>
		</trkpt>
		<trkpt lat="53.8198928833008" lon="13.6067028045654">
			<ele>47.2000007629395</ele>
			<time>2014-04-13T13:46:50Z</time>
		</trkpt>
		<trkpt lat="53.8199234008789" lon="13.6067934036255">
			<ele>47.2000007629395</ele>
			<time>2014-04-13T13:46:51Z</time>
		</trkpt>
		<trkpt lat="53.8199501037598" lon="13.6068878173828">
			<ele>47.0999984741211</ele>
			<time>2014-04-13T13:46:52Z</time>
		</trkpt>
		<trkpt lat="53.8199806213379" lon="13.6069812774658">
			<ele>46.7999992370605</ele>
			<time>2014-04-13T13:46:53Z</time>
		</trkpt>
		<trkpt lat="53.820011138916" lon="13.6070756912231">
			<ele>46.7000007629395</ele>
			<time>2014-04-13T13:46:54Z</time>
		</trkpt>
		<trkpt lat="53.8200378417969" lon="13.6071701049805">
			<ele>46.7000007629395</ele>
			<time>2014-04-13T13:46:55Z</time>
		</trkpt>
		<trkpt lat="53.820068359375" lon="13.6072645187378">
			<ele>46.7999992370605</ele>
			<time>2014-04-13T13:46:56Z</time>
		</trkpt>
		<trkpt lat="53.8200988769531" lon="13.6073598861694">
			<ele>46.7000007629395</ele>
			<time>2014-04-13T13:46:57Z</time>
		</trkpt>
		<trkpt lat="53.8201332092285" lon="13.6074533462524">
			<ele>46.7999992370605</ele>
			<time>2014-04-13T13:46:58Z</time>
		</trkpt>
		<trkpt lat="53.8201637268066" lon="13.6075477600098">
			<ele>46.9000015258789</ele>
			<time>2014-04-13T13:46:59Z</time>
		</trkpt>
		<trkpt lat="53.8201942443848" lon="13.6076469421387">
			<ele>46.9000015258789</ele>
			<time>2014-04-13T13:47:00Z</time>
		</trkpt>
		<trkpt lat="53.8202247619629" lon="13.607741355896">
			<ele>47</ele>
			<time>2014-04-13T13:47:01Z</time>
		</trkpt>
		<trkpt lat="53.8202590942383" lon="13.6078405380249">
			<ele>46.9000015258789</ele>
			<time>2014-04-13T13:47:02Z</time>
		</trkpt>
		<trkpt lat="53.8202857971191" lon="13.6079359054565">
			<ele>46.7999992370605</ele>
			<time>2014-04-13T13:47:03Z</time>
		</trkpt>
		<trkpt lat="53.8203163146973" lon="13.6080341339111">
			<ele>47</ele>
			<time>2014-04-13T13:47:04Z</time>
		</trkpt>
		<trkpt lat="53.8203506469727" lon="13.6081285476685">
			<ele>47</ele>
			<time>2014-04-13T13:47:05Z</time>
		</trkpt>
		<trkpt lat="53.820384979248" lon="13.6082239151001">
			<ele>47</ele>
			<time>2014-04-13T13:47:06Z</time>
		</trkpt>
		<trkpt lat="53.8204154968262" lon="13.6083183288574">
			<ele>47.0999984741211</ele>
			<time>2014-04-13T13:47:07Z</time>
		</trkpt>
		<trkpt lat="53.8204498291016" lon="13.6084136962891">
			<ele>47</ele>
			<time>2014-04-13T13:47:08Z</time>
		</trkpt>
		<trkpt lat="53.8204765319824" lon="13.6085081100464">
			<ele>47</ele>
			<time>2014-04-13T13:47:09Z</time>
		</trkpt>
		<trkpt lat="53.8205070495605" lon="13.608603477478">
			<ele>46.9000015258789</ele>
			<time>2014-04-13T13:47:10Z</time>
		</trkpt>
		<trkpt lat="53.8205375671387" lon="13.6087026596069">
			<ele>47</ele>
			<time>2014-04-13T13:47:11Z</time>
		</trkpt>
		<trkpt lat="53.8205680847168" lon="13.6087942123413">
			<ele>47.0999984741211</ele>
			<time>2014-04-13T13:47:12Z</time>
		</trkpt>
		<trkpt lat="53.8205986022949" lon="13.6088886260986">
			<ele>47.0999984741211</ele>
			<time>2014-04-13T13:47:13Z</time>
		</trkpt>
		<trkpt lat="53.820629119873" lon="13.6089849472046">
			<ele>47.4000015258789</ele>
			<time>2014-04-13T13:47:14Z</time>
		</trkpt>
		<trkpt lat="53.8206634521484" lon="13.609076499939">
			<ele>47.4000015258789</ele>
			<time>2014-04-13T13:47:15Z</time>
		</trkpt>
		<trkpt lat="53.8206939697266" lon="13.6091728210449">
			<ele>47.5999984741211</ele>
			<time>2014-04-13T13:47:16Z</time>
		</trkpt>
		<trkpt lat="53.820728302002" lon="13.6092691421509">
			<ele>47.5</ele>
			<time>2014-04-13T13:47:17Z</time>
		</trkpt>
		<trkpt lat="53.8207588195801" lon="13.6093645095825">
			<ele>47.4000015258789</ele>
			<time>2014-04-13T13:47:18Z</time>
		</trkpt>
		<trkpt lat="53.8207893371582" lon="13.6094560623169">
			<ele>47.5</ele>
			<time>2014-04-13T13:47:19Z</time>
		</trkpt>
		<trkpt lat="53.8208236694336" lon="13.6095495223999">
			<ele>47.5</ele>
			<time>2014-04-13T13:47:20Z</time>
		</trkpt>
		<trkpt lat="53.8208541870117" lon="13.6096429824829">
			<ele>47.2999992370605</ele>
			<time>2014-04-13T13:47:21Z</time>
		</trkpt>
		<trkpt lat="53.8208847045898" lon="13.6097393035889">
			<ele>47.2000007629395</ele>
			<time>2014-04-13T13:47:22Z</time>
		</trkpt>
		<trkpt lat="53.8209190368652" lon="13.6098356246948">
			<ele>47.2000007629395</ele>
			<time>2014-04-13T13:47:23Z</time>
		</trkpt>
		<trkpt lat="53.8209495544434" lon="13.6099348068237">
			<ele>47.0999984741211</ele>
			<time>2014-04-13T13:47:24Z</time>
		</trkpt>
		<trkpt lat="53.8209838867188" lon="13.610032081604">
			<ele>47.0999984741211</ele>
			<time>2014-04-13T13:47:25Z</time>
		</trkpt>
		<trkpt lat="53.8210144042969" lon="13.6101236343384">
			<ele>47.2999992370605</ele>
			<time>2014-04-13T13:47:26Z</time>
		</trkpt>
		<trkpt lat="53.8210487365723" lon="13.610221862793">
			<ele>47.2000007629395</ele>
			<time>2014-04-13T13:47:27Z</time>
		</trkpt>
		<trkpt lat="53.8210830688477" lon="13.6103162765503">
			<ele>47.2000007629395</ele>
			<time>2014-04-13T13:47:28Z</time>
		</trkpt>
		<trkpt lat="53.8211097717285" lon="13.6104173660278">
			<ele>47.0999984741211</ele>
			<time>2014-04-13T13:47:29Z</time>
		</trkpt>
		<trkpt lat="53.8211402893066" lon="13.6105136871338">
			<ele>47.2999992370605</ele>
			<time>2014-04-13T13:47:30Z</time>
		</trkpt>
		<trkpt lat="53.821174621582" lon="13.6106061935425">
			<ele>47.2000007629395</ele>
			<time>2014-04-13T13:47:31Z</time>
		</trkpt>
		<trkpt lat="53.8212051391602" lon="13.6107025146484">
			<ele>47.2000007629395</ele>
			<time>2014-04-13T13:47:32Z</time>
		</trkpt>
		<trkpt lat="53.821231842041" lon="13.6107997894287">
			<ele>47.0999984741211</ele>
			<time>2014-04-13T13:47:33Z</time>
		</trkpt>
		<trkpt lat="53.8212661743164" lon="13.6108932495117">
			<ele>47.0999984741211</ele>
			<time>2014-04-13T13:47:34Z</time>
		</trkpt>
		<trkpt lat="53.8212966918945" lon="13.6109886169434">
			<ele>47.2000007629395</ele>
			<time>2014-04-13T13:47:35Z</time>
		</trkpt>
		<trkpt lat="53.8213272094727" lon="13.6110820770264">
			<ele>47.0999984741211</ele>
			<time>2014-04-13T13:47:36Z</time>
		</trkpt>
		<trkpt lat="53.8213577270508" lon="13.6111764907837">
			<ele>47.2000007629395</ele>
			<time>2014-04-13T13:47:37Z</time>
		</trkpt>
		<trkpt lat="53.8213882446289" lon="13.6112651824951">
			<ele>47.2999992370605</ele>
			<time>2014-04-13T13:47:38Z</time>
		</trkpt>
		<trkpt lat="53.821418762207" lon="13.6113634109497">
			<ele>47.2000007629395</ele>
			<time>2014-04-13T13:47:39Z</time>
		</trkpt>
		<trkpt lat="53.8214530944824" lon="13.6114597320557">
			<ele>47.2999992370605</ele>
			<time>2014-04-13T13:47:40Z</time>
		</trkpt>
		<trkpt lat="53.8214836120605" lon="13.6115608215332">
			<ele>47.2000007629395</ele>
			<time>2014-04-13T13:47:41Z</time>
		</trkpt>
		<trkpt lat="53.8215179443359" lon="13.6116590499878">
			<ele>47.2000007629395</ele>
			<time>2014-04-13T13:47:42Z</time>
		</trkpt>
		<trkpt lat="53.8215484619141" lon="13.6117582321167">
			<ele>47.2000007629395</ele>
			<time>2014-04-13T13:47:43Z</time>
		</trkpt>
		<trkpt lat="53.8215789794922" lon="13.611855506897">
			<ele>47.0999984741211</ele>
			<time>2014-04-13T13:47:44Z</time>
		</trkpt>
		<trkpt lat="53.8216094970703" lon="13.6119546890259">
			<ele>47.0999984741211</ele>
			<time>2014-04-13T13:47:45Z</time>
		</trkpt>
		<trkpt lat="53.8216438293457" lon="13.6120519638062">
			<ele>47.0999984741211</ele>
			<time>2014-04-13T13:47:46Z</time>
		</trkpt>
		<trkpt lat="53.8216781616211" lon="13.6121482849121">
			<ele>47.2999992370605</ele>
			<time>2014-04-13T13:47:47Z</time>
		</trkpt>
		<trkpt lat="53.8217086791992" lon="13.6122417449951">
			<ele>47.2999992370605</ele>
			<time>2014-04-13T13:47:48Z</time>
		</trkpt>
		<trkpt lat="53.8217391967773" lon="13.6123352050781">
			<ele>47.4000015258789</ele>
			<time>2014-04-13T13:47:49Z</time>
		</trkpt>
		<trkpt lat="53.8217735290527" lon="13.6124296188354">
			<ele>47.2999992370605</ele>
			<time>2014-04-13T13:47:50Z</time>
		</trkpt>
		<trkpt lat="53.8218040466309" lon="13.6125240325928">
			<ele>47.4000015258789</ele>
			<time>2014-04-13T13:47:51Z</time>
		</trkpt>
		<trkpt lat="53.821834564209" lon="13.6126165390015">
			<ele>47.5999984741211</ele>
			<time>2014-04-13T13:47:52Z</time>
		</trkpt>
		<trkpt lat="53.8218650817871" lon="13.6127119064331">
			<ele>47.4000015258789</ele>
			<time>2014-04-13T13:47:53Z</time>
		</trkpt>
		<trkpt lat="53.821891784668" lon="13.6128053665161">
			<ele>47.5999984741211</ele>
			<time>2014-04-13T13:47:54Z</time>
		</trkpt>
		<trkpt lat="53.8219223022461" lon="13.6129007339478">
			<ele>47.5999984741211</ele>
			<time>2014-04-13T13:47:55Z</time>
		</trkpt>
		<trkpt lat="53.8219528198242" lon="13.6129951477051">
			<ele>47.5999984741211</ele>
			<time>2014-04-13T13:47:56Z</time>
		</trkpt>
		<trkpt lat="53.8219833374023" lon="13.6130933761597">
			<ele>47.4000015258789</ele>
			<time>2014-04-13T13:47:57Z</time>
		</trkpt>
		<trkpt lat="53.8220138549805" lon="13.613187789917">
			<ele>47.4000015258789</ele>
			<time>2014-04-13T13:47:58Z</time>
		</trkpt>
		<trkpt lat="53.8220443725586" lon="13.6132822036743">
			<ele>47.5999984741211</ele>
			<time>2014-04-13T13:47:59Z</time>
		</trkpt>
		<trkpt lat="53.8220748901367" lon="13.6133804321289">
			<ele>47.7000007629395</ele>
			<time>2014-04-13T13:48:00Z</time>
		</trkpt>
		<trkpt lat="53.8221054077148" lon="13.6134719848633">
			<ele>47.5999984741211</ele>
			<time>2014-04-13T13:48:01Z</time>
		</trkpt>
		<trkpt lat="53.822135925293" lon="13.613564491272">
			<ele>47.5999984741211</ele>
			<time>2014-04-13T13:48:02Z</time>
		</trkpt>
		<trkpt lat="53.8221664428711" lon="13.613657951355">
			<ele>47.7000007629395</ele>
			<time>2014-04-13T13:48:03Z</time>
		</trkpt>
		<trkpt lat="53.8221969604492" lon="13.6137542724609">
			<ele>47.4000015258789</ele>
			<time>2014-04-13T13:48:04Z</time>
		</trkpt>
		<trkpt lat="53.8222274780273" lon="13.6138496398926">
			<ele>47.4000015258789</ele>
			<time>2014-04-13T13:48:05Z</time>
		</trkpt>
		<trkpt lat="53.8222541809082" lon="13.6139459609985">
			<ele>47.4000015258789</ele>
			<time>2014-04-13T13:48:06Z</time>
		</trkpt>
		<trkpt lat="53.8222885131836" lon="13.6140365600586">
			<ele>47.5</ele>
			<time>2014-04-13T13:48:07Z</time>
		</trkpt>
		<trkpt lat="53.8223152160645" lon="13.6141300201416">
			<ele>47.5</ele>
			<time>2014-04-13T13:48:08Z</time>
		</trkpt>
		<trkpt lat="53.8223457336426" lon="13.614221572876">
			<ele>47.5</ele>
			<time>2014-04-13T13:48:09Z</time>
		</trkpt>
		<trkpt lat="53.822380065918" lon="13.6143131256104">
			<ele>47.9000015258789</ele>
			<time>2014-04-13T13:48:10Z</time>
		</trkpt>
		<trkpt lat="53.8224105834961" lon="13.614405632019">
			<ele>47.9000015258789</ele>
			<time>2014-04-13T13:48:11Z</time>
		</trkpt>
		<trkpt lat="53.8224411010742" lon="13.6144971847534">
			<ele>47.7999992370605</ele>
			<time>2014-04-13T13:48:12Z</time>
		</trkpt>
		<trkpt lat="53.8224716186523" lon="13.6145887374878">
			<ele>47.7999992370605</ele>
			<time>2014-04-13T13:48:13Z</time>
		</trkpt>
		<trkpt lat="53.8224983215332" lon="13.6146774291992">
			<ele>47.7000007629395</ele>
			<time>2014-04-13T13:48:14Z</time>
		</trkpt>
		<trkpt lat="53.8225326538086" lon="13.6147699356079">
			<ele>47.9000015258789</ele>
			<time>2014-04-13T13:48:15Z</time>
		</trkpt>
		<trkpt lat="53.8225593566895" lon="13.6148624420166">
			<ele>47.7999992370605</ele>
			<time>2014-04-13T13:48:16Z</time>
		</trkpt>
		<trkpt lat="53.8225898742676" lon="13.614953994751">
			<ele>47.7999992370605</ele>
			<time>2014-04-13T13:48:17Z</time>
		</trkpt>
		<trkpt lat="53.822624206543" lon="13.6150484085083">
			<ele>47.7999992370605</ele>
			<time>2014-04-13T13:48:18Z</time>
		</trkpt>
		<trkpt lat="53.8226547241211" lon="13.6151361465454">
			<ele>47.7999992370605</ele>
			<time>2014-04-13T13:48:19Z</time>
		</trkpt>
		<trkpt lat="53.8226852416992" lon="13.6152257919312">
			<ele>47.9000015258789</ele>
			<time>2014-04-13T13:48:20Z</time>
		</trkpt>
		<trkpt lat="53.8227119445801" lon="13.6153163909912">
			<ele>47.7999992370605</ele>
			<time>2014-04-13T13:48:21Z</time>
		</trkpt>
		<trkpt lat="53.8227424621582" lon="13.6154069900513">
			<ele>47.9000015258789</ele>
			<time>2014-04-13T13:48:22Z</time>
		</trkpt>
		<trkpt lat="53.8227729797363" lon="13.6155033111572">
			<ele>47.5999984741211</ele>
			<time>2014-04-13T13:48:23Z</time>
		</trkpt>
		<trkpt lat="53.8228034973145" lon="13.6155967712402">
			<ele>47.5</ele>
			<time>2014-04-13T13:48:24Z</time>
		</trkpt>
		<trkpt lat="53.8228340148926" lon="13.6156845092773">
			<ele>47.5</ele>
			<time>2014-04-13T13:48:25Z</time>
		</trkpt>
		<trkpt lat="53.8228645324707" lon="13.615777015686">
			<ele>47.2999992370605</ele>
			<time>2014-04-13T13:48:26Z</time>
		</trkpt>
		<trkpt lat="53.8228912353516" lon="13.615870475769">
			<ele>47.2999992370605</ele>
			<time>2014-04-13T13:48:27Z</time>
		</trkpt>
		<trkpt lat="53.8229217529297" lon="13.6159610748291">
			<ele>47.2999992370605</ele>
			<time>2014-04-13T13:48:28Z</time>
		</trkpt>
		<trkpt lat="53.8229484558105" lon="13.6160545349121">
			<ele>47.4000015258789</ele>
			<time>2014-04-13T13:48:29Z</time>
		</trkpt>
		<trkpt lat="53.8229789733887" lon="13.6161479949951">
			<ele>47.4000015258789</ele>
			<time>2014-04-13T13:48:30Z</time>
		</trkpt>
		<trkpt lat="53.8230094909668" lon="13.6162395477295">
			<ele>47.2000007629395</ele>
			<time>2014-04-13T13:48:31Z</time>
		</trkpt>
		<trkpt lat="53.8230400085449" lon="13.6163339614868">
			<ele>47.2000007629395</ele>
			<time>2014-04-13T13:48:32Z</time>
		</trkpt>
		<trkpt lat="53.823070526123" lon="13.6164264678955">
			<ele>47.4000015258789</ele>
			<time>2014-04-13T13:48:33Z</time>
		</trkpt>
		<trkpt lat="53.8231010437012" lon="13.6165170669556">
			<ele>47.4000015258789</ele>
			<time>2014-04-13T13:48:34Z</time>
		</trkpt>
		<trkpt lat="53.8231315612793" lon="13.6166048049927">
			<ele>47.2999992370605</ele>
			<time>2014-04-13T13:48:35Z</time>
		</trkpt>
		<trkpt lat="53.8231620788574" lon="13.6166982650757">
			<ele>47.2999992370605</ele>
			<time>2014-04-13T13:48:36Z</time>
		</trkpt>
		<trkpt lat="53.8231964111328" lon="13.6167879104614">
			<ele>47.2999992370605</ele>
			<time>2014-04-13T13:48:37Z</time>
		</trkpt>
		<trkpt lat="53.8232231140137" lon="13.6168842315674">
			<ele>47.2999992370605</ele>
			<time>2014-04-13T13:48:38Z</time>
		</trkpt>
		<trkpt lat="53.8232536315918" lon="13.6169805526733">
			<ele>47.2999992370605</ele>
			<time>2014-04-13T13:48:39Z</time>
		</trkpt>
		<trkpt lat="53.8232879638672" lon="13.6170663833618">
			<ele>47.2999992370605</ele>
			<time>2014-04-13T13:48:40Z</time>
		</trkpt>
		<trkpt lat="53.8233184814453" lon="13.6171607971191">
			<ele>47.4000015258789</ele>
			<time>2014-04-13T13:48:41Z</time>
		</trkpt>
		<trkpt lat="53.8233489990234" lon="13.6172552108765">
			<ele>47.5</ele>
			<time>2014-04-13T13:48:42Z</time>
		</trkpt>
		<trkpt lat="53.8233833312988" lon="13.6173496246338">
			<ele>47.5999984741211</ele>
			<time>2014-04-13T13:48:43Z</time>
		</trkpt>
		<trkpt lat="53.823413848877" lon="13.6174478530884">
			<ele>47.5999984741211</ele>
			<time>2014-04-13T13:48:44Z</time>
		</trkpt>
		<trkpt lat="53.8234405517578" lon="13.6175441741943">
			<ele>47.7999992370605</ele>
			<time>2014-04-13T13:48:45Z</time>
		</trkpt>
		<trkpt lat="53.8234710693359" lon="13.6176414489746">
			<ele>47.9000015258789</ele>
			<time>2014-04-13T13:48:46Z</time>
		</trkpt>
		<trkpt lat="53.8235015869141" lon="13.6177387237549">
			<ele>47.9000015258789</ele>
			<time>2014-04-13T13:48:47Z</time>
		</trkpt>
		<trkpt lat="53.8235359191895" lon="13.6178350448608">
			<ele>48.0999984741211</ele>
			<time>2014-04-13T13:48:48Z</time>
		</trkpt>
		<trkpt lat="53.8235664367676" lon="13.6179304122925">
			<ele>48.0999984741211</ele>
			<time>2014-04-13T13:48:49Z</time>
		</trkpt>
		<trkpt lat="53.8235969543457" lon="13.6180248260498">
			<ele>48.0999984741211</ele>
			<time>2014-04-13T13:48:50Z</time>
		</trkpt>
		<trkpt lat="53.8236274719238" lon="13.6181221008301">
			<ele>48</ele>
			<time>2014-04-13T13:48:51Z</time>
		</trkpt>
		<trkpt lat="53.8236656188965" lon="13.618218421936">
			<ele>47.5</ele>
			<time>2014-04-13T13:48:52Z</time>
		</trkpt>
		<trkpt lat="53.8236999511719" lon="13.6183156967163">
			<ele>47.5</ele>
			<time>2014-04-13T13:48:53Z</time>
		</trkpt>
		<trkpt lat="53.8237380981445" lon="13.6184024810791">
			<ele>47.4000015258789</ele>
			<time>2014-04-13T13:48:54Z</time>
		</trkpt>
		<trkpt lat="53.8237800598145" lon="13.6184921264648">
			<ele>47</ele>
			<time>2014-04-13T13:48:55Z</time>
		</trkpt>
		<trkpt lat="53.8238182067871" lon="13.6185684204102">
			<ele>47.0999984741211</ele>
			<time>2014-04-13T13:48:56Z</time>
		</trkpt>
		<trkpt lat="53.823860168457" lon="13.6186466217041">
			<ele>47.0999984741211</ele>
			<time>2014-04-13T13:48:57Z</time>
		</trkpt>
		<trkpt lat="53.823902130127" lon="13.618727684021">
			<ele>46.7000007629395</ele>
			<time>2014-04-13T13:48:58Z</time>
		</trkpt>
		<trkpt lat="53.8239479064941" lon="13.6188068389893">
			<ele>46.9000015258789</ele>
			<time>2014-04-13T13:48:59Z</time>
		</trkpt>
		<trkpt lat="53.8239936828613" lon="13.6188745498657">
			<ele>46.7999992370605</ele>
			<time>2014-04-13T13:49:00Z</time>
		</trkpt>
		<trkpt lat="53.8240394592285" lon="13.6189432144165">
			<ele>46.7999992370605</ele>
			<time>2014-04-13T13:49:01Z</time>
		</trkpt>
		<trkpt lat="53.8240928649902" lon="13.6190147399902">
			<ele>46.7999992370605</ele>
			<time>2014-04-13T13:49:02Z</time>
		</trkpt>
		<trkpt lat="53.8241424560547" lon="13.6190795898438">
			<ele>47.4000015258789</ele>
			<time>2014-04-13T13:49:03Z</time>
		</trkpt>
		<trkpt lat="53.8241844177246" lon="13.6191434860229">
			<ele>46.7000007629395</ele>
			<time>2014-04-13T13:49:04Z</time>
		</trkpt>
		<trkpt lat="53.8242301940918" lon="13.6192092895508">
			<ele>46.9000015258789</ele>
			<time>2014-04-13T13:49:05Z</time>
		</trkpt>
		<trkpt lat="53.8242797851563" lon="13.6192836761475">
			<ele>47</ele>
			<time>2014-04-13T13:49:06Z</time>
		</trkpt>
		<trkpt lat="53.8243293762207" lon="13.619348526001">
			<ele>47.0999984741211</ele>
			<time>2014-04-13T13:49:07Z</time>
		</trkpt>
		<trkpt lat="53.8243827819824" lon="13.6194086074829">
			<ele>46.7000007629395</ele>
			<time>2014-04-13T13:49:08Z</time>
		</trkpt>
		<trkpt lat="53.8244323730469" lon="13.6194763183594">
			<ele>47.0999984741211</ele>
			<time>2014-04-13T13:49:09Z</time>
		</trkpt>
		<trkpt lat="53.8244819641113" lon="13.6195316314697">
			<ele>47.2999992370605</ele>
			<time>2014-04-13T13:49:10Z</time>
		</trkpt>
		<trkpt lat="53.8245315551758" lon="13.6195955276489">
			<ele>47.5</ele>
			<time>2014-04-13T13:49:11Z</time>
		</trkpt>
		<trkpt lat="53.824577331543" lon="13.6196632385254">
			<ele>47.7999992370605</ele>
			<time>2014-04-13T13:49:12Z</time>
		</trkpt>
		<trkpt lat="53.8246192932129" lon="13.6197347640991">
			<ele>47.2999992370605</ele>
			<time>2014-04-13T13:49:13Z</time>
		</trkpt>
		<trkpt lat="53.8246688842773" lon="13.6197900772095">
			<ele>47.2999992370605</ele>
			<time>2014-04-13T13:49:14Z</time>
		</trkpt>
		<trkpt lat="53.8247146606445" lon="13.6198472976685">
			<ele>46.7999992370605</ele>
			<time>2014-04-13T13:49:15Z</time>
		</trkpt>
		<trkpt lat="53.8247566223145" lon="13.6199111938477">
			<ele>46.5</ele>
			<time>2014-04-13T13:49:16Z</time>
		</trkpt>
		<trkpt lat="53.8248023986816" lon="13.6199760437012">
			<ele>46.2000007629395</ele>
			<time>2014-04-13T13:49:17Z</time>
		</trkpt>
		<trkpt lat="53.8248481750488" lon="13.6200389862061">
			<ele>46.5</ele>
			<time>2014-04-13T13:49:18Z</time>
		</trkpt>
		<trkpt lat="53.8248977661133" lon="13.6200981140137">
			<ele>46.5</ele>
			<time>2014-04-13T13:49:19Z</time>
		</trkpt>
		<trkpt lat="53.8249473571777" lon="13.6201581954956">
			<ele>46.4000015258789</ele>
			<time>2014-04-13T13:49:20Z</time>
		</trkpt>
		<trkpt lat="53.8250007629395" lon="13.6202144622803">
			<ele>46.4000015258789</ele>
			<time>2014-04-13T13:49:21Z</time>
		</trkpt>
		<trkpt lat="53.8250465393066" lon="13.6202840805054">
			<ele>46.0999984741211</ele>
			<time>2014-04-13T13:49:22Z</time>
		</trkpt>
		<trkpt lat="53.8250923156738" lon="13.6203460693359">
			<ele>46.2999992370605</ele>
			<time>2014-04-13T13:49:23Z</time>
		</trkpt>
		<trkpt lat="53.825138092041" lon="13.6204032897949">
			<ele>46.2000007629395</ele>
			<time>2014-04-13T13:49:24Z</time>
		</trkpt>
		<trkpt lat="53.8251876831055" lon="13.6204614639282">
			<ele>46.0999984741211</ele>
			<time>2014-04-13T13:49:25Z</time>
		</trkpt>
		<trkpt lat="53.8252334594727" lon="13.6205177307129">
			<ele>46.4000015258789</ele>
			<time>2014-04-13T13:49:26Z</time>
		</trkpt>
		<trkpt lat="53.8252792358398" lon="13.6205778121948">
			<ele>46.4000015258789</ele>
			<time>2014-04-13T13:49:27Z</time>
		</trkpt>
		<trkpt lat="53.825325012207" lon="13.6206321716309">
			<ele>45.7999992370605</ele>
			<time>2014-04-13T13:49:28Z</time>
		</trkpt>
		<trkpt lat="53.825366973877" lon="13.6206922531128">
			<ele>45.9000015258789</ele>
			<time>2014-04-13T13:49:29Z</time>
		</trkpt>
		<trkpt lat="53.8254127502441" lon="13.6207437515259">
			<ele>45.7999992370605</ele>
			<time>2014-04-13T13:49:30Z</time>
		</trkpt>
		<trkpt lat="53.8254508972168" lon="13.620792388916">
			<ele>45.4000015258789</ele>
			<time>2014-04-13T13:49:31Z</time>
		</trkpt>
		<trkpt lat="53.8254928588867" lon="13.620849609375">
			<ele>45.7999992370605</ele>
			<time>2014-04-13T13:49:32Z</time>
		</trkpt>
		<trkpt lat="53.8255386352539" lon="13.6209096908569">
			<ele>45.7999992370605</ele>
			<time>2014-04-13T13:49:33Z</time>
		</trkpt>
		<trkpt lat="53.8255805969238" lon="13.6209726333618">
			<ele>45.7999992370605</ele>
			<time>2014-04-13T13:49:34Z</time>
		</trkpt>
		<trkpt lat="53.8256225585938" lon="13.6210250854492">
			<ele>45.9000015258789</ele>
			<time>2014-04-13T13:49:35Z</time>
		</trkpt>
		<trkpt lat="53.8256645202637" lon="13.6210823059082">
			<ele>45.7999992370605</ele>
			<time>2014-04-13T13:49:36Z</time>
		</trkpt>
		<trkpt lat="53.8257064819336" lon="13.6211376190186">
			<ele>45.7999992370605</ele>
			<time>2014-04-13T13:49:37Z</time>
		</trkpt>
		<trkpt lat="53.8257522583008" lon="13.6211957931519">
			<ele>46</ele>
			<time>2014-04-13T13:49:38Z</time>
		</trkpt>
		<trkpt lat="53.825798034668" lon="13.6212558746338">
			<ele>46</ele>
			<time>2014-04-13T13:49:39Z</time>
		</trkpt>
		<trkpt lat="53.8258399963379" lon="13.6213150024414">
			<ele>45.9000015258789</ele>
			<time>2014-04-13T13:49:40Z</time>
		</trkpt>
		<trkpt lat="53.8258857727051" lon="13.6213750839233">
			<ele>45.9000015258789</ele>
			<time>2014-04-13T13:49:41Z</time>
		</trkpt>
		<trkpt lat="53.8259315490723" lon="13.621431350708">
			<ele>46.2000007629395</ele>
			<time>2014-04-13T13:49:42Z</time>
		</trkpt>
		<trkpt lat="53.8259773254395" lon="13.6214876174927">
			<ele>46.2999992370605</ele>
			<time>2014-04-13T13:49:43Z</time>
		</trkpt>
		<trkpt lat="53.8260154724121" lon="13.621545791626">
			<ele>46.2000007629395</ele>
			<time>2014-04-13T13:49:44Z</time>
		</trkpt>
		<trkpt lat="53.826057434082" lon="13.6216020584106">
			<ele>46.2999992370605</ele>
			<time>2014-04-13T13:49:45Z</time>
		</trkpt>
		<trkpt lat="53.826099395752" lon="13.6216583251953">
			<ele>46.2999992370605</ele>
			<time>2014-04-13T13:49:46Z</time>
		</trkpt>
		<trkpt lat="53.8261413574219" lon="13.6217136383057">
			<ele>46.2999992370605</ele>
			<time>2014-04-13T13:49:47Z</time>
		</trkpt>
		<trkpt lat="53.8261871337891" lon="13.621768951416">
			<ele>46.2999992370605</ele>
			<time>2014-04-13T13:49:48Z</time>
		</trkpt>
		<trkpt lat="53.8262252807617" lon="13.6218185424805">
			<ele>46</ele>
			<time>2014-04-13T13:49:49Z</time>
		</trkpt>
		<trkpt lat="53.8262672424316" lon="13.6218748092651">
			<ele>46.0999984741211</ele>
			<time>2014-04-13T13:49:50Z</time>
		</trkpt>
		<trkpt lat="53.8263092041016" lon="13.6219329833984">
			<ele>46</ele>
			<time>2014-04-13T13:49:51Z</time>
		</trkpt>
		<trkpt lat="53.8263511657715" lon="13.6219968795776">
			<ele>45.9000015258789</ele>
			<time>2014-04-13T13:49:52Z</time>
		</trkpt>
		<trkpt lat="53.8263931274414" lon="13.6220531463623">
			<ele>46.0999984741211</ele>
			<time>2014-04-13T13:49:53Z</time>
		</trkpt>
		<trkpt lat="53.8264350891113" lon="13.6221103668213">
			<ele>46.0999984741211</ele>
			<time>2014-04-13T13:49:54Z</time>
		</trkpt>
		<trkpt lat="53.8264808654785" lon="13.6221599578857">
			<ele>46.4000015258789</ele>
			<time>2014-04-13T13:49:55Z</time>
		</trkpt>
		<trkpt lat="53.8265228271484" lon="13.622218132019">
			<ele>46.4000015258789</ele>
			<time>2014-04-13T13:49:56Z</time>
		</trkpt>
		<trkpt lat="53.8265647888184" lon="13.6222696304321">
			<ele>46.2999992370605</ele>
			<time>2014-04-13T13:49:57Z</time>
		</trkpt>
		<trkpt lat="53.8266105651855" lon="13.6223211288452">
			<ele>46.0999984741211</ele>
			<time>2014-04-13T13:49:58Z</time>
		</trkpt>
		<trkpt lat="53.8266525268555" lon="13.6223726272583">
			<ele>46.4000015258789</ele>
			<time>2014-04-13T13:49:59Z</time>
		</trkpt>
		<trkpt lat="53.8266944885254" lon="13.6224241256714">
			<ele>46.4000015258789</ele>
			<time>2014-04-13T13:50:00Z</time>
		</trkpt>
		<trkpt lat="53.8267402648926" lon="13.6224765777588">
			<ele>46.2000007629395</ele>
			<time>2014-04-13T13:50:01Z</time>
		</trkpt>
		<trkpt lat="53.8267822265625" lon="13.6225309371948">
			<ele>46.2999992370605</ele>
			<time>2014-04-13T13:50:02Z</time>
		</trkpt>
		<trkpt lat="53.8268280029297" lon="13.6225852966309">
			<ele>46.2000007629395</ele>
			<time>2014-04-13T13:50:03Z</time>
		</trkpt>
		<trkpt lat="53.8268737792969" lon="13.6226387023926">
			<ele>46.0999984741211</ele>
			<time>2014-04-13T13:50:04Z</time>
		</trkpt>
		<trkpt lat="53.8269119262695" lon="13.6226987838745">
			<ele>46</ele>
			<time>2014-04-13T13:50:05Z</time>
		</trkpt>
		<trkpt lat="53.8269538879395" lon="13.6227550506592">
			<ele>46.0999984741211</ele>
			<time>2014-04-13T13:50:06Z</time>
		</trkpt>
		<trkpt lat="53.8269996643066" lon="13.6228122711182">
			<ele>46.0999984741211</ele>
			<time>2014-04-13T13:50:07Z</time>
		</trkpt>
		<trkpt lat="53.8270416259766" lon="13.6228704452515">
			<ele>46</ele>
			<time>2014-04-13T13:50:08Z</time>
		</trkpt>
		<trkpt lat="53.8270797729492" lon="13.6229295730591">
			<ele>46</ele>
			<time>2014-04-13T13:50:09Z</time>
		</trkpt>
		<trkpt lat="53.8271217346191" lon="13.6229906082153">
			<ele>46</ele>
			<time>2014-04-13T13:50:10Z</time>
		</trkpt>
		<trkpt lat="53.8271675109863" lon="13.6230497360229">
			<ele>45.7999992370605</ele>
			<time>2014-04-13T13:50:11Z</time>
		</trkpt>
		<trkpt lat="53.8272132873535" lon="13.6231088638306">
			<ele>45.7000007629395</ele>
			<time>2014-04-13T13:50:12Z</time>
		</trkpt>
		<trkpt lat="53.8272552490234" lon="13.6231641769409">
			<ele>45.5</ele>
			<time>2014-04-13T13:50:13Z</time>
		</trkpt>
		<trkpt lat="53.8272972106934" lon="13.6232194900513">
			<ele>45</ele>
			<time>2014-04-13T13:50:14Z</time>
		</trkpt>
		<trkpt lat="53.8273429870605" lon="13.6232748031616">
			<ele>44.9000015258789</ele>
			<time>2014-04-13T13:50:15Z</time>
		</trkpt>
		<trkpt lat="53.8273849487305" lon="13.623330116272">
			<ele>44.7999992370605</ele>
			<time>2014-04-13T13:50:16Z</time>
		</trkpt>
		<trkpt lat="53.8274307250977" lon="13.6233901977539">
			<ele>44.7999992370605</ele>
			<time>2014-04-13T13:50:17Z</time>
		</trkpt>
		<trkpt lat="53.8274765014648" lon="13.6234464645386">
			<ele>44.7000007629395</ele>
			<time>2014-04-13T13:50:18Z</time>
		</trkpt>
		<trkpt lat="53.8275184631348" lon="13.6235055923462">
			<ele>44.7000007629395</ele>
			<time>2014-04-13T13:50:19Z</time>
		</trkpt>
		<trkpt lat="53.827564239502" lon="13.6235685348511">
			<ele>44.5999984741211</ele>
			<time>2014-04-13T13:50:20Z</time>
		</trkpt>
		<trkpt lat="53.8276062011719" lon="13.6236295700073">
			<ele>44.5999984741211</ele>
			<time>2014-04-13T13:50:21Z</time>
		</trkpt>
		<trkpt lat="53.8276519775391" lon="13.6236925125122">
			<ele>44.5</ele>
			<time>2014-04-13T13:50:22Z</time>
		</trkpt>
		<trkpt lat="53.827693939209" lon="13.6237621307373">
			<ele>44.2000007629395</ele>
			<time>2014-04-13T13:50:23Z</time>
		</trkpt>
		<trkpt lat="53.8277320861816" lon="13.6238298416138">
			<ele>44.4000015258789</ele>
			<time>2014-04-13T13:50:24Z</time>
		</trkpt>
		<trkpt lat="53.8277702331543" lon="13.6239013671875">
			<ele>44.2999992370605</ele>
			<time>2014-04-13T13:50:25Z</time>
		</trkpt>
		<trkpt lat="53.8278121948242" lon="13.6239738464355">
			<ele>44.2999992370605</ele>
			<time>2014-04-13T13:50:26Z</time>
		</trkpt>
		<trkpt lat="53.8278465270996" lon="13.6240482330322">
			<ele>44.2000007629395</ele>
			<time>2014-04-13T13:50:27Z</time>
		</trkpt>
		<trkpt lat="53.8278846740723" lon="13.6241264343262">
			<ele>44.2999992370605</ele>
			<time>2014-04-13T13:50:28Z</time>
		</trkpt>
		<trkpt lat="53.8279228210449" lon="13.6242036819458">
			<ele>44.2999992370605</ele>
			<time>2014-04-13T13:50:29Z</time>
		</trkpt>
		<trkpt lat="53.8279571533203" lon="13.6242818832397">
			<ele>44.5</ele>
			<time>2014-04-13T13:50:30Z</time>
		</trkpt>
		<trkpt lat="53.8279914855957" lon="13.624363899231">
			<ele>44.5999984741211</ele>
			<time>2014-04-13T13:50:31Z</time>
		</trkpt>
		<trkpt lat="53.8280220031738" lon="13.6244506835938">
			<ele>44.5999984741211</ele>
			<time>2014-04-13T13:50:32Z</time>
		</trkpt>
		<trkpt lat="53.8280563354492" lon="13.6245374679565">
			<ele>44.5999984741211</ele>
			<time>2014-04-13T13:50:33Z</time>
		</trkpt>
		<trkpt lat="53.8280868530273" lon="13.6246242523193">
			<ele>44.5999984741211</ele>
			<time>2014-04-13T13:50:34Z</time>
		</trkpt>
		<trkpt lat="53.8281173706055" lon="13.6247138977051">
			<ele>44.4000015258789</ele>
			<time>2014-04-13T13:50:35Z</time>
		</trkpt>
		<trkpt lat="53.8281478881836" lon="13.6248054504395">
			<ele>44.5</ele>
			<time>2014-04-13T13:50:36Z</time>
		</trkpt>
		<trkpt lat="53.8281784057617" lon="13.6248970031738">
			<ele>44.5999984741211</ele>
			<time>2014-04-13T13:50:37Z</time>
		</trkpt>
		<trkpt lat="53.8282051086426" lon="13.6249904632568">
			<ele>44.9000015258789</ele>
			<time>2014-04-13T13:50:38Z</time>
		</trkpt>
		<trkpt lat="53.8282279968262" lon="13.6250839233398">
			<ele>44.9000015258789</ele>
			<time>2014-04-13T13:50:39Z</time>
		</trkpt>
		<trkpt lat="53.8282508850098" lon="13.6251773834229">
			<ele>45</ele>
			<time>2014-04-13T13:50:40Z</time>
		</trkpt>
		<trkpt lat="53.8282737731934" lon="13.6252717971802">
			<ele>45.0999984741211</ele>
			<time>2014-04-13T13:50:41Z</time>
		</trkpt>
		<trkpt lat="53.8282928466797" lon="13.6253662109375">
			<ele>45</ele>
			<time>2014-04-13T13:50:42Z</time>
		</trkpt>
		<trkpt lat="53.8283157348633" lon="13.6254644393921">
			<ele>44.9000015258789</ele>
			<time>2014-04-13T13:50:43Z</time>
		</trkpt>
		<trkpt lat="53.8283386230469" lon="13.6255617141724">
			<ele>44.9000015258789</ele>
			<time>2014-04-13T13:50:44Z</time>
		</trkpt>
		<trkpt lat="53.8283576965332" lon="13.6256589889526">
			<ele>44.7999992370605</ele>
			<time>2014-04-13T13:50:45Z</time>
		</trkpt>
		<trkpt lat="53.8283805847168" lon="13.6257600784302">
			<ele>44.7000007629395</ele>
			<time>2014-04-13T13:50:46Z</time>
		</trkpt>
		<trkpt lat="53.8283996582031" lon="13.6258592605591">
			<ele>44.5</ele>
			<time>2014-04-13T13:50:47Z</time>
		</trkpt>
		<trkpt lat="53.8284187316895" lon="13.6259603500366">
			<ele>44.7000007629395</ele>
			<time>2014-04-13T13:50:48Z</time>
		</trkpt>
		<trkpt lat="53.8284378051758" lon="13.6260614395142">
			<ele>44.7000007629395</ele>
			<time>2014-04-13T13:50:49Z</time>
		</trkpt>
		<trkpt lat="53.8284606933594" lon="13.626166343689">
			<ele>44.7000007629395</ele>
			<time>2014-04-13T13:50:50Z</time>
		</trkpt>
		<trkpt lat="53.828483581543" lon="13.6262674331665">
			<ele>44.9000015258789</ele>
			<time>2014-04-13T13:50:51Z</time>
		</trkpt>
		<trkpt lat="53.8285026550293" lon="13.6263732910156">
			<ele>45.0999984741211</ele>
			<time>2014-04-13T13:50:52Z</time>
		</trkpt>
		<trkpt lat="53.8285293579102" lon="13.6264791488647">
			<ele>45</ele>
			<time>2014-04-13T13:50:53Z</time>
		</trkpt>
		<trkpt lat="53.8285484313965" lon="13.6265811920166">
			<ele>45.0999984741211</ele>
			<time>2014-04-13T13:50:54Z</time>
		</trkpt>
		<trkpt lat="53.8285675048828" lon="13.626690864563">
			<ele>45</ele>
			<time>2014-04-13T13:50:55Z</time>
		</trkpt>
		<trkpt lat="53.8285903930664" lon="13.6267948150635">
			<ele>44.9000015258789</ele>
			<time>2014-04-13T13:50:56Z</time>
		</trkpt>
		<trkpt lat="53.8286094665527" lon="13.6269035339355">
			<ele>44.7999992370605</ele>
			<time>2014-04-13T13:50:57Z</time>
		</trkpt>
		<trkpt lat="53.8286285400391" lon="13.627010345459">
			<ele>44.5</ele>
			<time>2014-04-13T13:50:58Z</time>
		</trkpt>
		<trkpt lat="53.8286514282227" lon="13.6271171569824">
			<ele>44</ele>
			<time>2014-04-13T13:50:59Z</time>
		</trkpt>
		<trkpt lat="53.828670501709" lon="13.6272220611572">
			<ele>43.5999984741211</ele>
			<time>2014-04-13T13:51:00Z</time>
		</trkpt>
		<trkpt lat="53.8286895751953" lon="13.6273221969604">
			<ele>43.2999992370605</ele>
			<time>2014-04-13T13:51:01Z</time>
		</trkpt>
		<trkpt lat="53.8287124633789" lon="13.6274309158325">
			<ele>43.2999992370605</ele>
			<time>2014-04-13T13:51:02Z</time>
		</trkpt>
		<trkpt lat="53.8287315368652" lon="13.6275396347046">
			<ele>43.2999992370605</ele>
			<time>2014-04-13T13:51:03Z</time>
		</trkpt>
		<trkpt lat="53.8287544250488" lon="13.6276435852051">
			<ele>43</ele>
			<time>2014-04-13T13:51:04Z</time>
		</trkpt>
		<trkpt lat="53.8287734985352" lon="13.6277475357056">
			<ele>42.7000007629395</ele>
			<time>2014-04-13T13:51:05Z</time>
		</trkpt>
		<trkpt lat="53.8287925720215" lon="13.6278533935547">
			<ele>42.5</ele>
			<time>2014-04-13T13:51:06Z</time>
		</trkpt>
		<trkpt lat="53.8288154602051" lon="13.6279602050781">
			<ele>42.5</ele>
			<time>2014-04-13T13:51:07Z</time>
		</trkpt>
		<trkpt lat="53.8288383483887" lon="13.6280679702759">
			<ele>42.5</ele>
			<time>2014-04-13T13:51:08Z</time>
		</trkpt>
		<trkpt lat="53.828857421875" lon="13.628173828125">
			<ele>42.2999992370605</ele>
			<time>2014-04-13T13:51:09Z</time>
		</trkpt>
		<trkpt lat="53.8288764953613" lon="13.6282777786255">
			<ele>42.2000007629395</ele>
			<time>2014-04-13T13:51:10Z</time>
		</trkpt>
		<trkpt lat="53.8288955688477" lon="13.6283760070801">
			<ele>42.0999984741211</ele>
			<time>2014-04-13T13:51:11Z</time>
		</trkpt>
		<trkpt lat="53.8289108276367" lon="13.6284790039063">
			<ele>41.9000015258789</ele>
			<time>2014-04-13T13:51:12Z</time>
		</trkpt>
		<trkpt lat="53.8289260864258" lon="13.6285715103149">
			<ele>41.9000015258789</ele>
			<time>2014-04-13T13:51:13Z</time>
		</trkpt>
		<trkpt lat="53.8289375305176" lon="13.6286659240723">
			<ele>42</ele>
			<time>2014-04-13T13:51:14Z</time>
		</trkpt>
		<trkpt lat="53.8289642333984" lon="13.628776550293">
			<ele>42.7000007629395</ele>
			<time>2014-04-13T13:51:15Z</time>
		</trkpt>
		<trkpt lat="53.8289909362793" lon="13.6288785934448">
			<ele>42.4000015258789</ele>
			<time>2014-04-13T13:51:16Z</time>
		</trkpt>
		<trkpt lat="53.8290100097656" lon="13.6289758682251">
			<ele>42.2999992370605</ele>
			<time>2014-04-13T13:51:17Z</time>
		</trkpt>
		<trkpt lat="53.8290328979492" lon="13.6290817260742">
			<ele>42.5999984741211</ele>
			<time>2014-04-13T13:51:18Z</time>
		</trkpt>
		<trkpt lat="53.8290481567383" lon="13.6291742324829">
			<ele>42.2999992370605</ele>
			<time>2014-04-13T13:51:19Z</time>
		</trkpt>
		<trkpt lat="53.8290634155273" lon="13.6292819976807">
			<ele>42</ele>
			<time>2014-04-13T13:51:20Z</time>
		</trkpt>
		<trkpt lat="53.8290977478027" lon="13.6293859481812">
			<ele>42</ele>
			<time>2014-04-13T13:51:21Z</time>
		</trkpt>
		<trkpt lat="53.8291091918945" lon="13.6294784545898">
			<ele>41.2000007629395</ele>
			<time>2014-04-13T13:51:22Z</time>
		</trkpt>
		<trkpt lat="53.8291282653809" lon="13.629584312439">
			<ele>42</ele>
			<time>2014-04-13T13:51:23Z</time>
		</trkpt>
		<trkpt lat="53.8291473388672" lon="13.6296863555908">
			<ele>41.7000007629395</ele>
			<time>2014-04-13T13:51:24Z</time>
		</trkpt>
		<trkpt lat="53.8291664123535" lon="13.6297817230225">
			<ele>42.0999984741211</ele>
			<time>2014-04-13T13:51:25Z</time>
		</trkpt>
		<trkpt lat="53.8291893005371" lon="13.6298770904541">
			<ele>42.5999984741211</ele>
			<time>2014-04-13T13:51:26Z</time>
		</trkpt>
		<trkpt lat="53.8292045593262" lon="13.6299772262573">
			<ele>42.5</ele>
			<time>2014-04-13T13:51:27Z</time>
		</trkpt>
		<trkpt lat="53.8292236328125" lon="13.6300773620605">
			<ele>42.5</ele>
			<time>2014-04-13T13:51:28Z</time>
		</trkpt>
		<trkpt lat="53.8292465209961" lon="13.6301746368408">
			<ele>42.7000007629395</ele>
			<time>2014-04-13T13:51:29Z</time>
		</trkpt>
		<trkpt lat="53.8292694091797" lon="13.6302757263184">
			<ele>43</ele>
			<time>2014-04-13T13:51:30Z</time>
		</trkpt>
		<trkpt lat="53.829288482666" lon="13.6303730010986">
			<ele>43</ele>
			<time>2014-04-13T13:51:31Z</time>
		</trkpt>
		<trkpt lat="53.8293113708496" lon="13.6304740905762">
			<ele>42.7999992370605</ele>
			<time>2014-04-13T13:51:32Z</time>
		</trkpt>
		<trkpt lat="53.8293304443359" lon="13.6305704116821">
			<ele>42.7000007629395</ele>
			<time>2014-04-13T13:51:33Z</time>
		</trkpt>
		<trkpt lat="53.8293533325195" lon="13.6306705474854">
			<ele>43.0999984741211</ele>
			<time>2014-04-13T13:51:34Z</time>
		</trkpt>
		<trkpt lat="53.8293724060059" lon="13.6307706832886">
			<ele>43.5</ele>
			<time>2014-04-13T13:51:35Z</time>
		</trkpt>
		<trkpt lat="53.8293952941895" lon="13.6308650970459">
			<ele>43.7999992370605</ele>
			<time>2014-04-13T13:51:36Z</time>
		</trkpt>
		<trkpt lat="53.8294105529785" lon="13.6309604644775">
			<ele>44</ele>
			<time>2014-04-13T13:51:37Z</time>
		</trkpt>
		<trkpt lat="53.8294334411621" lon="13.6310567855835">
			<ele>44</ele>
			<time>2014-04-13T13:51:38Z</time>
		</trkpt>
		<trkpt lat="53.8294525146484" lon="13.6311492919922">
			<ele>44.0999984741211</ele>
			<time>2014-04-13T13:51:39Z</time>
		</trkpt>
		<trkpt lat="53.8294715881348" lon="13.6312437057495">
			<ele>44.0999984741211</ele>
			<time>2014-04-13T13:51:40Z</time>
		</trkpt>
		<trkpt lat="53.8294868469238" lon="13.6313400268555">
			<ele>44.2000007629395</ele>
			<time>2014-04-13T13:51:41Z</time>
		</trkpt>
		<trkpt lat="53.8295097351074" lon="13.6314325332642">
			<ele>44.5</ele>
			<time>2014-04-13T13:51:42Z</time>
		</trkpt>
		<trkpt lat="53.8295288085938" lon="13.6315259933472">
			<ele>44.7000007629395</ele>
			<time>2014-04-13T13:51:43Z</time>
		</trkpt>
		<trkpt lat="53.8295440673828" lon="13.6316175460815">
			<ele>44.5</ele>
			<time>2014-04-13T13:51:44Z</time>
		</trkpt>
		<trkpt lat="53.8295593261719" lon="13.6317090988159">
			<ele>44.2000007629395</ele>
			<time>2014-04-13T13:51:45Z</time>
		</trkpt>
		<trkpt lat="53.8295783996582" lon="13.6318035125732">
			<ele>44.5</ele>
			<time>2014-04-13T13:51:46Z</time>
		</trkpt>
		<trkpt lat="53.8295974731445" lon="13.6318960189819">
			<ele>44.5999984741211</ele>
			<time>2014-04-13T13:51:47Z</time>
		</trkpt>
		<trkpt lat="53.8296203613281" lon="13.6319904327393">
			<ele>44.5</ele>
			<time>2014-04-13T13:51:48Z</time>
		</trkpt>
		<trkpt lat="53.8296356201172" lon="13.6320858001709">
			<ele>44.5999984741211</ele>
			<time>2014-04-13T13:51:49Z</time>
		</trkpt>
		<trkpt lat="53.8296546936035" lon="13.6321773529053">
			<ele>44.0999984741211</ele>
			<time>2014-04-13T13:51:50Z</time>
		</trkpt>
		<trkpt lat="53.8296737670898" lon="13.6322736740112">
			<ele>44.0999984741211</ele>
			<time>2014-04-13T13:51:51Z</time>
		</trkpt>
		<trkpt lat="53.8296928405762" lon="13.6323680877686">
			<ele>44.2000007629395</ele>
			<time>2014-04-13T13:51:52Z</time>
		</trkpt>
		<trkpt lat="53.8297080993652" lon="13.6324672698975">
			<ele>44.2999992370605</ele>
			<time>2014-04-13T13:51:53Z</time>
		</trkpt>
		<trkpt lat="53.8297271728516" lon="13.6325607299805">
			<ele>44.2000007629395</ele>
			<time>2014-04-13T13:51:54Z</time>
		</trkpt>
		<trkpt lat="53.8297500610352" lon="13.6326589584351">
			<ele>44.2000007629395</ele>
			<time>2014-04-13T13:51:55Z</time>
		</trkpt>
		<trkpt lat="53.8297729492188" lon="13.6327562332153">
			<ele>44.2000007629395</ele>
			<time>2014-04-13T13:51:56Z</time>
		</trkpt>
		<trkpt lat="53.8297920227051" lon="13.6328506469727">
			<ele>44.0999984741211</ele>
			<time>2014-04-13T13:51:57Z</time>
		</trkpt>
		<trkpt lat="53.8298110961914" lon="13.6329488754272">
			<ele>44.2000007629395</ele>
			<time>2014-04-13T13:52:01Z</time>
		</trkpt>
		<trkpt lat="53.8298721313477" lon="13.633228302002">
			<ele>44.5999984741211</ele>
			<time>2014-04-13T13:52:01Z</time>
		</trkpt>
		<trkpt lat="53.8298873901367" lon="13.6333208084106">
			<ele>44.5999984741211</ele>
			<time>2014-04-13T13:52:02Z</time>
		</trkpt>
		<trkpt lat="53.8299026489258" lon="13.6334161758423">
			<ele>44.4000015258789</ele>
			<time>2014-04-13T13:52:03Z</time>
		</trkpt>
		<trkpt lat="53.8299217224121" lon="13.6335124969482">
			<ele>44.2999992370605</ele>
			<time>2014-04-13T13:52:04Z</time>
		</trkpt>
		<trkpt lat="53.8299407958984" lon="13.6336097717285">
			<ele>44.4000015258789</ele>
			<time>2014-04-13T13:52:05Z</time>
		</trkpt>
		<trkpt lat="53.8299598693848" lon="13.6337041854858">
			<ele>44.2000007629395</ele>
			<time>2014-04-13T13:52:06Z</time>
		</trkpt>
		<trkpt lat="53.8299751281738" lon="13.6338043212891">
			<ele>44.0999984741211</ele>
			<time>2014-04-13T13:52:07Z</time>
		</trkpt>
		<trkpt lat="53.8299942016602" lon="13.6339054107666">
			<ele>44.2999992370605</ele>
			<time>2014-04-13T13:52:08Z</time>
		</trkpt>
		<trkpt lat="53.8300132751465" lon="13.6340045928955">
			<ele>44.5</ele>
			<time>2014-04-13T13:52:09Z</time>
		</trkpt>
		<trkpt lat="53.8300285339355" lon="13.6341018676758">
			<ele>44.4000015258789</ele>
			<time>2014-04-13T13:52:10Z</time>
		</trkpt>
		<trkpt lat="53.8300476074219" lon="13.6342000961304">
			<ele>44.5</ele>
			<time>2014-04-13T13:52:11Z</time>
		</trkpt>
		<trkpt lat="53.8300704956055" lon="13.6342916488647">
			<ele>44.2000007629395</ele>
			<time>2014-04-13T13:52:13Z</time>
		</trkpt>
		<trkpt lat="53.8301124572754" lon="13.6344881057739">
			<ele>44.0999984741211</ele>
			<time>2014-04-13T13:52:14Z</time>
		</trkpt>
		<trkpt lat="53.8301277160645" lon="13.6345911026001">
			<ele>44</ele>
			<time>2014-04-13T13:52:15Z</time>
		</trkpt>
		<trkpt lat="53.8301467895508" lon="13.634690284729">
			<ele>43.9000015258789</ele>
			<time>2014-04-13T13:52:16Z</time>
		</trkpt>
		<trkpt lat="53.8301658630371" lon="13.6347932815552">
			<ele>44</ele>
			<time>2014-04-13T13:52:17Z</time>
		</trkpt>
		<trkpt lat="53.8301849365234" lon="13.6348924636841">
			<ele>44.2000007629395</ele>
			<time>2014-04-13T13:52:18Z</time>
		</trkpt>
		<trkpt lat="53.8302040100098" lon="13.6349925994873">
			<ele>44.4000015258789</ele>
			<time>2014-04-13T13:52:19Z</time>
		</trkpt>
		<trkpt lat="53.8302230834961" lon="13.6350946426392">
			<ele>44.2000007629395</ele>
			<time>2014-04-13T13:52:20Z</time>
		</trkpt>
		<trkpt lat="53.8302459716797" lon="13.6351947784424">
			<ele>44.4000015258789</ele>
			<time>2014-04-13T13:52:21Z</time>
		</trkpt>
		<trkpt lat="53.8302688598633" lon="13.6352987289429">
			<ele>44.5</ele>
			<time>2014-04-13T13:52:22Z</time>
		</trkpt>
		<trkpt lat="53.8302879333496" lon="13.6354007720947">
			<ele>44.5999984741211</ele>
			<time>2014-04-13T13:52:23Z</time>
		</trkpt>
		<trkpt lat="53.8303070068359" lon="13.6355018615723">
			<ele>44.7999992370605</ele>
			<time>2014-04-13T13:52:24Z</time>
		</trkpt>
		<trkpt lat="53.8303298950195" lon="13.6356019973755">
			<ele>45</ele>
			<time>2014-04-13T13:52:25Z</time>
		</trkpt>
		<trkpt lat="53.8303527832031" lon="13.635703086853">
			<ele>44.9000015258789</ele>
			<time>2014-04-13T13:52:26Z</time>
		</trkpt>
		<trkpt lat="53.8303718566895" lon="13.6358041763306">
			<ele>44.7000007629395</ele>
			<time>2014-04-13T13:52:27Z</time>
		</trkpt>
		<trkpt lat="53.8303871154785" lon="13.6359090805054">
			<ele>44.7000007629395</ele>
			<time>2014-04-13T13:52:28Z</time>
		</trkpt>
		<trkpt lat="53.8304061889648" lon="13.6360130310059">
			<ele>44.2999992370605</ele>
			<time>2014-04-13T13:52:29Z</time>
		</trkpt>
		<trkpt lat="53.8304290771484" lon="13.6361131668091">
			<ele>44.4000015258789</ele>
			<time>2014-04-13T13:52:30Z</time>
		</trkpt>
		<trkpt lat="53.8304481506348" lon="13.6362142562866">
			<ele>44.4000015258789</ele>
			<time>2014-04-13T13:52:31Z</time>
		</trkpt>
		<trkpt lat="53.8304672241211" lon="13.6363182067871">
			<ele>44.4000015258789</ele>
			<time>2014-04-13T13:52:32Z</time>
		</trkpt>
		<trkpt lat="53.8304862976074" lon="13.636420249939">
			<ele>44.2000007629395</ele>
			<time>2014-04-13T13:52:33Z</time>
		</trkpt>
		<trkpt lat="53.830509185791" lon="13.6365232467651">
			<ele>44.0999984741211</ele>
			<time>2014-04-13T13:52:34Z</time>
		</trkpt>
		<trkpt lat="53.8305282592773" lon="13.6366262435913">
			<ele>44.2000007629395</ele>
			<time>2014-04-13T13:52:35Z</time>
		</trkpt>
		<trkpt lat="53.8305511474609" lon="13.6367254257202">
			<ele>44.2000007629395</ele>
			<time>2014-04-13T13:52:36Z</time>
		</trkpt>
		<trkpt lat="53.83056640625" lon="13.6368265151978">
			<ele>44.2000007629395</ele>
			<time>2014-04-13T13:52:37Z</time>
		</trkpt>
		<trkpt lat="53.8305854797363" lon="13.6369285583496">
			<ele>44.0999984741211</ele>
			<time>2014-04-13T13:52:38Z</time>
		</trkpt>
		<trkpt lat="53.8306045532227" lon="13.6370296478271">
			<ele>43.9000015258789</ele>
			<time>2014-04-13T13:52:39Z</time>
		</trkpt>
		<trkpt lat="53.830623626709" lon="13.6371326446533">
			<ele>44.0999984741211</ele>
			<time>2014-04-13T13:52:40Z</time>
		</trkpt>
		<trkpt lat="53.8306427001953" lon="13.6372337341309">
			<ele>44</ele>
			<time>2014-04-13T13:52:41Z</time>
		</trkpt>
		<trkpt lat="53.8306617736816" lon="13.6373329162598">
			<ele>43.7999992370605</ele>
			<time>2014-04-13T13:52:42Z</time>
		</trkpt>
		<trkpt lat="53.830680847168" lon="13.6374349594116">
			<ele>43.7000007629395</ele>
			<time>2014-04-13T13:52:43Z</time>
		</trkpt>
		<trkpt lat="53.8307037353516" lon="13.6375417709351">
			<ele>43.5999984741211</ele>
			<time>2014-04-13T13:52:44Z</time>
		</trkpt>
		<trkpt lat="53.8307228088379" lon="13.6376438140869">
			<ele>43.7000007629395</ele>
			<time>2014-04-13T13:52:45Z</time>
		</trkpt>
		<trkpt lat="53.8307456970215" lon="13.6377449035645">
			<ele>43.5</ele>
			<time>2014-04-13T13:52:46Z</time>
		</trkpt>
		<trkpt lat="53.8307647705078" lon="13.637843132019">
			<ele>43.5</ele>
			<time>2014-04-13T13:52:47Z</time>
		</trkpt>
		<trkpt lat="53.8307838439941" lon="13.6379461288452">
			<ele>43.7000007629395</ele>
			<time>2014-04-13T13:52:48Z</time>
		</trkpt>
		<trkpt lat="53.8308029174805" lon="13.6380491256714">
			<ele>43.7000007629395</ele>
			<time>2014-04-13T13:52:49Z</time>
		</trkpt>
		<trkpt lat="53.8308219909668" lon="13.6381502151489">
			<ele>43.7999992370605</ele>
			<time>2014-04-13T13:52:50Z</time>
		</trkpt>
		<trkpt lat="53.8308448791504" lon="13.6382522583008">
			<ele>43.5999984741211</ele>
			<time>2014-04-13T13:52:51Z</time>
		</trkpt>
		<trkpt lat="53.8308639526367" lon="13.6383514404297">
			<ele>43.7000007629395</ele>
			<time>2014-04-13T13:52:52Z</time>
		</trkpt>
		<trkpt lat="53.8308868408203" lon="13.6384553909302">
			<ele>43.5999984741211</ele>
			<time>2014-04-13T13:52:53Z</time>
		</trkpt>
		<trkpt lat="53.8309059143066" lon="13.6385593414307">
			<ele>43.5999984741211</ele>
			<time>2014-04-13T13:52:54Z</time>
		</trkpt>
		<trkpt lat="53.830924987793" lon="13.6386604309082">
			<ele>43.9000015258789</ele>
			<time>2014-04-13T13:52:55Z</time>
		</trkpt>
		<trkpt lat="53.8309478759766" lon="13.6387586593628">
			<ele>44.0999984741211</ele>
			<time>2014-04-13T13:52:56Z</time>
		</trkpt>
		<trkpt lat="53.8309669494629" lon="13.638858795166">
			<ele>43.9000015258789</ele>
			<time>2014-04-13T13:52:57Z</time>
		</trkpt>
		<trkpt lat="53.8309898376465" lon="13.6389627456665">
			<ele>43.7999992370605</ele>
			<time>2014-04-13T13:52:58Z</time>
		</trkpt>
		<trkpt lat="53.8310089111328" lon="13.6390600204468">
			<ele>43.7999992370605</ele>
			<time>2014-04-13T13:52:59Z</time>
		</trkpt>
		<trkpt lat="53.8310317993164" lon="13.6391582489014">
			<ele>43.9000015258789</ele>
			<time>2014-04-13T13:53:00Z</time>
		</trkpt>
		<trkpt lat="53.8310546875" lon="13.6392593383789">
			<ele>43.7000007629395</ele>
			<time>2014-04-13T13:53:01Z</time>
		</trkpt>
		<trkpt lat="53.8310775756836" lon="13.6393547058105">
			<ele>43.9000015258789</ele>
			<time>2014-04-13T13:53:02Z</time>
		</trkpt>
		<trkpt lat="53.8311004638672" lon="13.6394491195679">
			<ele>44</ele>
			<time>2014-04-13T13:53:03Z</time>
		</trkpt>
		<trkpt lat="53.8311233520508" lon="13.6395492553711">
			<ele>44</ele>
			<time>2014-04-13T13:53:04Z</time>
		</trkpt>
		<trkpt lat="53.8311500549316" lon="13.6396455764771">
			<ele>44</ele>
			<time>2014-04-13T13:53:05Z</time>
		</trkpt>
		<trkpt lat="53.8311729431152" lon="13.6397409439087">
			<ele>44.0999984741211</ele>
			<time>2014-04-13T13:53:06Z</time>
		</trkpt>
		<trkpt lat="53.8311996459961" lon="13.6398334503174">
			<ele>44.4000015258789</ele>
			<time>2014-04-13T13:53:07Z</time>
		</trkpt>
		<trkpt lat="53.831226348877" lon="13.6399250030518">
			<ele>44.5</ele>
			<time>2014-04-13T13:53:08Z</time>
		</trkpt>
		<trkpt lat="53.8312530517578" lon="13.6400165557861">
			<ele>44.7000007629395</ele>
			<time>2014-04-13T13:53:09Z</time>
		</trkpt>
		<trkpt lat="53.8312835693359" lon="13.6401090621948">
			<ele>44.7999992370605</ele>
			<time>2014-04-13T13:53:10Z</time>
		</trkpt>
		<trkpt lat="53.8313102722168" lon="13.6401958465576">
			<ele>44.9000015258789</ele>
			<time>2014-04-13T13:53:11Z</time>
		</trkpt>
		<trkpt lat="53.8313446044922" lon="13.6402835845947">
			<ele>45.2000007629395</ele>
			<time>2014-04-13T13:53:12Z</time>
		</trkpt>
		<trkpt lat="53.831371307373" lon="13.6403713226318">
			<ele>45.4000015258789</ele>
			<time>2014-04-13T13:53:13Z</time>
		</trkpt>
		<trkpt lat="53.8314018249512" lon="13.6404590606689">
			<ele>45.7000007629395</ele>
			<time>2014-04-13T13:53:14Z</time>
		</trkpt>
		<trkpt lat="53.831428527832" lon="13.6405458450317">
			<ele>45.5999984741211</ele>
			<time>2014-04-13T13:53:15Z</time>
		</trkpt>
		<trkpt lat="53.8314590454102" lon="13.6406326293945">
			<ele>45.5</ele>
			<time>2014-04-13T13:53:16Z</time>
		</trkpt>
		<trkpt lat="53.831485748291" lon="13.6407175064087">
			<ele>45.5</ele>
			<time>2014-04-13T13:53:17Z</time>
		</trkpt>
		<trkpt lat="53.8315124511719" lon="13.6407909393311">
			<ele>44.2999992370605</ele>
			<time>2014-04-13T13:53:18Z</time>
		</trkpt>
		<trkpt lat="53.8315353393555" lon="13.6408672332764">
			<ele>43.2999992370605</ele>
			<time>2014-04-13T13:53:19Z</time>
		</trkpt>
		<trkpt lat="53.8315811157227" lon="13.6409559249878">
			<ele>44.7999992370605</ele>
			<time>2014-04-13T13:53:20Z</time>
		</trkpt>
		<trkpt lat="53.8316116333008" lon="13.6410360336304">
			<ele>45.2000007629395</ele>
			<time>2014-04-13T13:53:21Z</time>
		</trkpt>
		<trkpt lat="53.8316421508789" lon="13.6411142349243">
			<ele>45.4000015258789</ele>
			<time>2014-04-13T13:53:22Z</time>
		</trkpt>
		<trkpt lat="53.8316764831543" lon="13.6411914825439">
			<ele>45.5999984741211</ele>
			<time>2014-04-13T13:53:23Z</time>
		</trkpt>
		<trkpt lat="53.8317108154297" lon="13.6412677764893">
			<ele>45.7000007629395</ele>
			<time>2014-04-13T13:53:24Z</time>
		</trkpt>
		<trkpt lat="53.8317451477051" lon="13.6413431167603">
			<ele>45.7000007629395</ele>
			<time>2014-04-13T13:53:25Z</time>
		</trkpt>
		<trkpt lat="53.8317832946777" lon="13.6414194107056">
			<ele>45.7000007629395</ele>
			<time>2014-04-13T13:53:26Z</time>
		</trkpt>
		<trkpt lat="53.8318138122559" lon="13.6414957046509">
			<ele>45.7999992370605</ele>
			<time>2014-04-13T13:53:27Z</time>
		</trkpt>
		<trkpt lat="53.8318481445313" lon="13.6415700912476">
			<ele>46.0999984741211</ele>
			<time>2014-04-13T13:53:28Z</time>
		</trkpt>
		<trkpt lat="53.8318824768066" lon="13.6416425704956">
			<ele>46</ele>
			<time>2014-04-13T13:53:29Z</time>
		</trkpt>
		<trkpt lat="53.831916809082" lon="13.6417112350464">
			<ele>46.2999992370605</ele>
			<time>2014-04-13T13:53:30Z</time>
		</trkpt>
		<trkpt lat="53.8319549560547" lon="13.6417798995972">
			<ele>46.7000007629395</ele>
			<time>2014-04-13T13:53:31Z</time>
		</trkpt>
		<trkpt lat="53.8319892883301" lon="13.6418476104736">
			<ele>46.5999984741211</ele>
			<time>2014-04-13T13:53:32Z</time>
		</trkpt>
		<trkpt lat="53.8320236206055" lon="13.6419143676758">
			<ele>46.5999984741211</ele>
			<time>2014-04-13T13:53:33Z</time>
		</trkpt>
		<trkpt lat="53.8320617675781" lon="13.6419878005981">
			<ele>46.2999992370605</ele>
			<time>2014-04-13T13:53:34Z</time>
		</trkpt>
		<trkpt lat="53.8320999145508" lon="13.6420574188232">
			<ele>46.2999992370605</ele>
			<time>2014-04-13T13:53:35Z</time>
		</trkpt>
		<trkpt lat="53.8321342468262" lon="13.6421241760254">
			<ele>46.5999984741211</ele>
			<time>2014-04-13T13:53:36Z</time>
		</trkpt>
		<trkpt lat="53.8321685791016" lon="13.6421937942505">
			<ele>46.5999984741211</ele>
			<time>2014-04-13T13:53:37Z</time>
		</trkpt>
		<trkpt lat="53.832202911377" lon="13.6422624588013">
			<ele>46.9000015258789</ele>
			<time>2014-04-13T13:53:38Z</time>
		</trkpt>
		<trkpt lat="53.8322410583496" lon="13.6423254013062">
			<ele>46.7999992370605</ele>
			<time>2014-04-13T13:53:39Z</time>
		</trkpt>
		<trkpt lat="53.832275390625" lon="13.6423835754395">
			<ele>46.5999984741211</ele>
			<time>2014-04-13T13:53:40Z</time>
		</trkpt>
		<trkpt lat="53.8323097229004" lon="13.6424436569214">
			<ele>46.2000007629395</ele>
			<time>2014-04-13T13:53:41Z</time>
		</trkpt>
		<trkpt lat="53.8323440551758" lon="13.6425046920776">
			<ele>46.5999984741211</ele>
			<time>2014-04-13T13:53:42Z</time>
		</trkpt>
		<trkpt lat="53.8323822021484" lon="13.6425647735596">
			<ele>46.4000015258789</ele>
			<time>2014-04-13T13:53:43Z</time>
		</trkpt>
		<trkpt lat="53.8324127197266" lon="13.6426296234131">
			<ele>46.4000015258789</ele>
			<time>2014-04-13T13:53:44Z</time>
		</trkpt>
		<trkpt lat="53.8324508666992" lon="13.6426877975464">
			<ele>46.2000007629395</ele>
			<time>2014-04-13T13:53:45Z</time>
		</trkpt>
		<trkpt lat="53.8324851989746" lon="13.6427507400513">
			<ele>46.2000007629395</ele>
			<time>2014-04-13T13:53:46Z</time>
		</trkpt>
		<trkpt lat="53.8325233459473" lon="13.6428136825562">
			<ele>46.2999992370605</ele>
			<time>2014-04-13T13:53:47Z</time>
		</trkpt>
		<trkpt lat="53.8325576782227" lon="13.6428852081299">
			<ele>46.5</ele>
			<time>2014-04-13T13:53:48Z</time>
		</trkpt>
		<trkpt lat="53.8325958251953" lon="13.6429491043091">
			<ele>46.5999984741211</ele>
			<time>2014-04-13T13:53:49Z</time>
		</trkpt>
		<trkpt lat="53.8326416015625" lon="13.6430225372314">
			<ele>48.4000015258789</ele>
			<time>2014-04-13T13:53:50Z</time>
		</trkpt>
		<trkpt lat="53.8326759338379" lon="13.6430864334106">
			<ele>48.5</ele>
			<time>2014-04-13T13:53:51Z</time>
		</trkpt>
		<trkpt lat="53.8327178955078" lon="13.6431474685669">
			<ele>48.5999984741211</ele>
			<time>2014-04-13T13:53:52Z</time>
		</trkpt>
		<trkpt lat="53.8327522277832" lon="13.6432151794434">
			<ele>48.5999984741211</ele>
			<time>2014-04-13T13:53:54Z</time>
		</trkpt>
		<trkpt lat="53.8328247070313" lon="13.6433582305908">
			<ele>48.5</ele>
			<time>2014-04-13T13:53:57Z</time>
		</trkpt>
		<trkpt lat="53.8329048156738" lon="13.6434965133667">
			<ele>48.2000007629395</ele>
			<time>2014-04-13T13:53:57Z</time>
		</trkpt>
		<trkpt lat="53.8329429626465" lon="13.6435604095459">
			<ele>47.7999992370605</ele>
			<time>2014-04-13T13:53:58Z</time>
		</trkpt>
		<trkpt lat="53.8329849243164" lon="13.643627166748">
			<ele>47.2000007629395</ele>
			<time>2014-04-13T13:53:59Z</time>
		</trkpt>
		<trkpt lat="53.8330192565918" lon="13.643705368042">
			<ele>47.4000015258789</ele>
			<time>2014-04-13T13:54:01Z</time>
		</trkpt>
		<trkpt lat="53.8330993652344" lon="13.6438455581665">
			<ele>47.5</ele>
			<time>2014-04-13T13:54:02Z</time>
		</trkpt>
		<trkpt lat="53.833137512207" lon="13.6439170837402">
			<ele>47.5</ele>
			<time>2014-04-13T13:54:03Z</time>
		</trkpt>
		<trkpt lat="53.833179473877" lon="13.6439895629883">
			<ele>47.2000007629395</ele>
			<time>2014-04-13T13:54:04Z</time>
		</trkpt>
		<trkpt lat="53.8332214355469" lon="13.6440620422363">
			<ele>46.9000015258789</ele>
			<time>2014-04-13T13:54:05Z</time>
		</trkpt>
		<trkpt lat="53.8332557678223" lon="13.6441431045532">
			<ele>46.5999984741211</ele>
			<time>2014-04-13T13:54:06Z</time>
		</trkpt>
		<trkpt lat="53.8332901000977" lon="13.6442108154297">
			<ele>46.7000007629395</ele>
			<time>2014-04-13T13:54:07Z</time>
		</trkpt>
		<trkpt lat="53.8333320617676" lon="13.6442842483521">
			<ele>46.2999992370605</ele>
			<time>2014-04-13T13:54:08Z</time>
		</trkpt>
		<trkpt lat="53.8333740234375" lon="13.6443510055542">
			<ele>46.2000007629395</ele>
			<time>2014-04-13T13:54:09Z</time>
		</trkpt>
		<trkpt lat="53.8334159851074" lon="13.644419670105">
			<ele>46.5</ele>
			<time>2014-04-13T13:54:10Z</time>
		</trkpt>
		<trkpt lat="53.8334579467773" lon="13.6444911956787">
			<ele>46.7000007629395</ele>
			<time>2014-04-13T13:54:11Z</time>
		</trkpt>
		<trkpt lat="53.83349609375" lon="13.6445655822754">
			<ele>46.7000007629395</ele>
			<time>2014-04-13T13:54:12Z</time>
		</trkpt>
		<trkpt lat="53.8335380554199" lon="13.6446399688721">
			<ele>47.2999992370605</ele>
			<time>2014-04-13T13:54:13Z</time>
		</trkpt>
		<trkpt lat="53.8335800170898" lon="13.6447105407715">
			<ele>47.2000007629395</ele>
			<time>2014-04-13T13:54:14Z</time>
		</trkpt>
		<trkpt lat="53.8336181640625" lon="13.6447820663452">
			<ele>46.2999992370605</ele>
			<time>2014-04-13T13:54:15Z</time>
		</trkpt>
		<trkpt lat="53.8336639404297" lon="13.6448545455933">
			<ele>45.7000007629395</ele>
			<time>2014-04-13T13:54:16Z</time>
		</trkpt>
		<trkpt lat="53.8337059020996" lon="13.6449251174927">
			<ele>45.2999992370605</ele>
			<time>2014-04-13T13:54:17Z</time>
		</trkpt>
		<trkpt lat="53.8337440490723" lon="13.6450023651123">
			<ele>45.9000015258789</ele>
			<time>2014-04-13T13:54:18Z</time>
		</trkpt>
		<trkpt lat="53.8337860107422" lon="13.6450710296631">
			<ele>45.0999984741211</ele>
			<time>2014-04-13T13:54:19Z</time>
		</trkpt>
		<trkpt lat="53.8338241577148" lon="13.6451501846313">
			<ele>45.0999984741211</ele>
			<time>2014-04-13T13:54:20Z</time>
		</trkpt>
		<trkpt lat="53.8338623046875" lon="13.6452236175537">
			<ele>45.2000007629395</ele>
			<time>2014-04-13T13:54:21Z</time>
		</trkpt>
		<trkpt lat="53.8339004516602" lon="13.6452970504761">
			<ele>44.7999992370605</ele>
			<time>2014-04-13T13:54:22Z</time>
		</trkpt>
		<trkpt lat="53.8339424133301" lon="13.6453666687012">
			<ele>45.0999984741211</ele>
			<time>2014-04-13T13:54:23Z</time>
		</trkpt>
		<trkpt lat="53.833984375" lon="13.6454334259033">
			<ele>45</ele>
			<time>2014-04-13T13:54:24Z</time>
		</trkpt>
		<trkpt lat="53.8340301513672" lon="13.6455059051514">
			<ele>44.9000015258789</ele>
			<time>2014-04-13T13:54:25Z</time>
		</trkpt>
		<trkpt lat="53.8340759277344" lon="13.6455717086792">
			<ele>45.0999984741211</ele>
			<time>2014-04-13T13:54:26Z</time>
		</trkpt>
		<trkpt lat="53.834114074707" lon="13.6456422805786">
			<ele>45.2999992370605</ele>
			<time>2014-04-13T13:54:27Z</time>
		</trkpt>
		<trkpt lat="53.8341522216797" lon="13.6457109451294">
			<ele>44.7000007629395</ele>
			<time>2014-04-13T13:54:28Z</time>
		</trkpt>
		<trkpt lat="53.8341979980469" lon="13.6457805633545">
			<ele>44.9000015258789</ele>
			<time>2014-04-13T13:54:29Z</time>
		</trkpt>
		<trkpt lat="53.8342361450195" lon="13.6458492279053">
			<ele>44.7999992370605</ele>
			<time>2014-04-13T13:54:30Z</time>
		</trkpt>
		<trkpt lat="53.8342704772949" lon="13.6459140777588">
			<ele>44.7999992370605</ele>
			<time>2014-04-13T13:54:31Z</time>
		</trkpt>
		<trkpt lat="53.8343048095703" lon="13.6459798812866">
			<ele>44.9000015258789</ele>
			<time>2014-04-13T13:54:32Z</time>
		</trkpt>
		<trkpt lat="53.8343505859375" lon="13.6460523605347">
			<ele>45.0999984741211</ele>
			<time>2014-04-13T13:54:33Z</time>
		</trkpt>
		<trkpt lat="53.8343925476074" lon="13.6461143493652">
			<ele>45</ele>
			<time>2014-04-13T13:54:34Z</time>
		</trkpt>
		<trkpt lat="53.8344230651855" lon="13.6461925506592">
			<ele>44.9000015258789</ele>
			<time>2014-04-13T13:54:35Z</time>
		</trkpt>
		<trkpt lat="53.8344650268555" lon="13.6462564468384">
			<ele>45</ele>
			<time>2014-04-13T13:54:36Z</time>
		</trkpt>
		<trkpt lat="53.8345069885254" lon="13.6463356018066">
			<ele>44.5999984741211</ele>
			<time>2014-04-13T13:54:37Z</time>
		</trkpt>
		<trkpt lat="53.8345375061035" lon="13.6464033126831">
			<ele>44.0999984741211</ele>
			<time>2014-04-13T13:54:38Z</time>
		</trkpt>
		<trkpt lat="53.8345794677734" lon="13.6464738845825">
			<ele>43.9000015258789</ele>
			<time>2014-04-13T13:54:39Z</time>
		</trkpt>
		<trkpt lat="53.8346252441406" lon="13.6465463638306">
			<ele>43.7000007629395</ele>
			<time>2014-04-13T13:54:40Z</time>
		</trkpt>
		<trkpt lat="53.8346672058105" lon="13.6466112136841">
			<ele>43.9000015258789</ele>
			<time>2014-04-13T13:54:41Z</time>
		</trkpt>
		<trkpt lat="53.8347091674805" lon="13.6466808319092">
			<ele>43.5999984741211</ele>
			<time>2014-04-13T13:54:42Z</time>
		</trkpt>
		<trkpt lat="53.8347473144531" lon="13.6467447280884">
			<ele>43.2999992370605</ele>
			<time>2014-04-13T13:54:43Z</time>
		</trkpt>
		<trkpt lat="53.8347854614258" lon="13.6468191146851">
			<ele>42.7000007629395</ele>
			<time>2014-04-13T13:54:44Z</time>
		</trkpt>
		<trkpt lat="53.8348274230957" lon="13.6468944549561">
			<ele>42.5</ele>
			<time>2014-04-13T13:54:45Z</time>
		</trkpt>
		<trkpt lat="53.8348655700684" lon="13.6469678878784">
			<ele>42.2000007629395</ele>
			<time>2014-04-13T13:54:46Z</time>
		</trkpt>
		<trkpt lat="53.834903717041" lon="13.6470432281494">
			<ele>41.4000015258789</ele>
			<time>2014-04-13T13:54:47Z</time>
		</trkpt>
		<trkpt lat="53.8349418640137" lon="13.6471195220947">
			<ele>41.5999984741211</ele>
			<time>2014-04-13T13:54:50Z</time>
		</trkpt>
		<trkpt lat="53.8350601196289" lon="13.6473455429077">
			<ele>40.7000007629395</ele>
			<time>2014-04-13T13:54:51Z</time>
		</trkpt>
		<trkpt lat="53.8350982666016" lon="13.6474256515503">
			<ele>40.4000015258789</ele>
			<time>2014-04-13T13:54:53Z</time>
		</trkpt>
		<trkpt lat="53.8351783752441" lon="13.6475791931152">
			<ele>40.5999984741211</ele>
			<time>2014-04-13T13:54:54Z</time>
		</trkpt>
		<trkpt lat="53.8352203369141" lon="13.6476602554321">
			<ele>40.2999992370605</ele>
			<time>2014-04-13T13:54:55Z</time>
		</trkpt>
		<trkpt lat="53.835262298584" lon="13.6477375030518">
			<ele>40.5</ele>
			<time>2014-04-13T13:54:56Z</time>
		</trkpt>
		<trkpt lat="53.8353042602539" lon="13.6478137969971">
			<ele>40</ele>
			<time>2014-04-13T13:54:57Z</time>
		</trkpt>
		<trkpt lat="53.8353462219238" lon="13.6478900909424">
			<ele>40.0999984741211</ele>
			<time>2014-04-13T13:54:58Z</time>
		</trkpt>
		<trkpt lat="53.8353881835938" lon="13.6479740142822">
			<ele>40.2000007629395</ele>
			<time>2014-04-13T13:54:59Z</time>
		</trkpt>
		<trkpt lat="53.8354339599609" lon="13.6480569839478">
			<ele>40.2000007629395</ele>
			<time>2014-04-13T13:55:00Z</time>
		</trkpt>
		<trkpt lat="53.8354721069336" lon="13.6481323242188">
			<ele>40.0999984741211</ele>
			<time>2014-04-13T13:55:01Z</time>
		</trkpt>
		<trkpt lat="53.8355178833008" lon="13.6482057571411">
			<ele>40.4000015258789</ele>
			<time>2014-04-13T13:55:02Z</time>
		</trkpt>
		<trkpt lat="53.8355598449707" lon="13.648268699646">
			<ele>39.9000015258789</ele>
			<time>2014-04-13T13:55:03Z</time>
		</trkpt>
		<trkpt lat="53.8356094360352" lon="13.6483383178711">
			<ele>39.7999992370605</ele>
			<time>2014-04-13T13:55:04Z</time>
		</trkpt>
		<trkpt lat="53.8356475830078" lon="13.6484174728394">
			<ele>39.5999984741211</ele>
			<time>2014-04-13T13:55:05Z</time>
		</trkpt>
		<trkpt lat="53.8356895446777" lon="13.648494720459">
			<ele>39.4000015258789</ele>
			<time>2014-04-13T13:55:06Z</time>
		</trkpt>
		<trkpt lat="53.8357315063477" lon="13.6485757827759">
			<ele>39.2999992370605</ele>
			<time>2014-04-13T13:55:07Z</time>
		</trkpt>
		<trkpt lat="53.8357772827148" lon="13.648645401001">
			<ele>40</ele>
			<time>2014-04-13T13:55:08Z</time>
		</trkpt>
		<trkpt lat="53.8358116149902" lon="13.6487140655518">
			<ele>38.4000015258789</ele>
			<time>2014-04-13T13:55:09Z</time>
		</trkpt>
		<trkpt lat="53.8358497619629" lon="13.6487827301025">
			<ele>38.7999992370605</ele>
			<time>2014-04-13T13:55:10Z</time>
		</trkpt>
		<trkpt lat="53.8358955383301" lon="13.648853302002">
			<ele>38.5999984741211</ele>
			<time>2014-04-13T13:55:11Z</time>
		</trkpt>
		<trkpt lat="53.8359336853027" lon="13.6489295959473">
			<ele>38.5999984741211</ele>
			<time>2014-04-13T13:55:14Z</time>
		</trkpt>
		<trkpt lat="53.8360176086426" lon="13.6490621566772">
			<ele>38.5999984741211</ele>
			<time>2014-04-13T13:55:17Z</time>
		</trkpt>
		<trkpt lat="53.8361015319824" lon="13.6491975784302">
			<ele>38.7000007629395</ele>
			<time>2014-04-13T13:55:19Z</time>
		</trkpt>
		<trkpt lat="53.8361778259277" lon="13.6493301391602">
			<ele>38.7999992370605</ele>
			<time>2014-04-13T13:55:19Z</time>
		</trkpt>
		<trkpt lat="53.8362121582031" lon="13.6493949890137">
			<ele>38.4000015258789</ele>
			<time>2014-04-13T13:55:20Z</time>
		</trkpt>
		<trkpt lat="53.8362503051758" lon="13.649468421936">
			<ele>38.5</ele>
			<time>2014-04-13T13:55:21Z</time>
		</trkpt>
		<trkpt lat="53.8362846374512" lon="13.649528503418">
			<ele>37.7999992370605</ele>
			<time>2014-04-13T13:55:22Z</time>
		</trkpt>
		<trkpt lat="53.8363189697266" lon="13.6495962142944">
			<ele>37.7999992370605</ele>
			<time>2014-04-13T13:55:23Z</time>
		</trkpt>
		<trkpt lat="53.836353302002" lon="13.6496572494507">
			<ele>37.7000007629395</ele>
			<time>2014-04-13T13:55:24Z</time>
		</trkpt>
		<trkpt lat="53.8363876342773" lon="13.6497211456299">
			<ele>37.7000007629395</ele>
			<time>2014-04-13T13:55:25Z</time>
		</trkpt>
		<trkpt lat="53.8364219665527" lon="13.6497917175293">
			<ele>37.9000015258789</ele>
			<time>2014-04-13T13:55:26Z</time>
		</trkpt>
		<trkpt lat="53.8364524841309" lon="13.6498556137085">
			<ele>37.5</ele>
			<time>2014-04-13T13:55:27Z</time>
		</trkpt>
		<trkpt lat="53.8364906311035" lon="13.6499128341675">
			<ele>37.7999992370605</ele>
			<time>2014-04-13T13:55:28Z</time>
		</trkpt>
		<trkpt lat="53.8365249633789" lon="13.649974822998">
			<ele>37.7000007629395</ele>
			<time>2014-04-13T13:55:29Z</time>
		</trkpt>
		<trkpt lat="53.8365592956543" lon="13.65003490448">
			<ele>38</ele>
			<time>2014-04-13T13:55:30Z</time>
		</trkpt>
		<trkpt lat="53.8365936279297" lon="13.6500940322876">
			<ele>38.2999992370605</ele>
			<time>2014-04-13T13:55:31Z</time>
		</trkpt>
		<trkpt lat="53.8366241455078" lon="13.6501522064209">
			<ele>38.7000007629395</ele>
			<time>2014-04-13T13:55:32Z</time>
		</trkpt>
		<trkpt lat="53.8366584777832" lon="13.6502094268799">
			<ele>38.9000015258789</ele>
			<time>2014-04-13T13:55:33Z</time>
		</trkpt>
		<trkpt lat="53.8366928100586" lon="13.6502666473389">
			<ele>38.9000015258789</ele>
			<time>2014-04-13T13:55:34Z</time>
		</trkpt>
		<trkpt lat="53.8367233276367" lon="13.6503276824951">
			<ele>39</ele>
			<time>2014-04-13T13:55:35Z</time>
		</trkpt>
		<trkpt lat="53.8367538452148" lon="13.6503877639771">
			<ele>38.9000015258789</ele>
			<time>2014-04-13T13:55:36Z</time>
		</trkpt>
		<trkpt lat="53.8368186950684" lon="13.6504964828491">
			<ele>38.4000015258789</ele>
			<time>2014-04-13T13:55:38Z</time>
		</trkpt>
		<trkpt lat="53.8368797302246" lon="13.6506071090698">
			<ele>38</ele>
			<time>2014-04-13T13:55:40Z</time>
		</trkpt>
		<trkpt lat="53.8369407653809" lon="13.6507167816162">
			<ele>37.9000015258789</ele>
			<time>2014-04-13T13:55:42Z</time>
		</trkpt>
		<trkpt lat="53.836971282959" lon="13.6507730484009">
			<ele>38</ele>
			<time>2014-04-13T13:55:43Z</time>
		</trkpt>
		<trkpt lat="53.8370323181152" lon="13.6508855819702">
			<ele>38.5</ele>
			<time>2014-04-13T13:55:45Z</time>
		</trkpt>
		<trkpt lat="53.8370971679688" lon="13.650993347168">
			<ele>38.7000007629395</ele>
			<time>2014-04-13T13:55:47Z</time>
		</trkpt>
		<trkpt lat="53.837158203125" lon="13.6510992050171">
			<ele>38.7999992370605</ele>
			<time>2014-04-13T13:55:49Z</time>
		</trkpt>
		<trkpt lat="53.8371887207031" lon="13.6511554718018">
			<ele>39</ele>
			<time>2014-04-13T13:55:50Z</time>
		</trkpt>
		<trkpt lat="53.8372497558594" lon="13.6512584686279">
			<ele>38.5999984741211</ele>
			<time>2014-04-13T13:55:52Z</time>
		</trkpt>
		<trkpt lat="53.8373107910156" lon="13.6513605117798">
			<ele>38.7999992370605</ele>
			<time>2014-04-13T13:55:54Z</time>
		</trkpt>
		<trkpt lat="53.8373680114746" lon="13.6514530181885">
			<ele>38.7999992370605</ele>
			<time>2014-04-13T13:55:56Z</time>
		</trkpt>
		<trkpt lat="53.8374252319336" lon="13.6515550613403">
			<ele>38.7000007629395</ele>
			<time>2014-04-13T13:55:58Z</time>
		</trkpt>
		<trkpt lat="53.8374862670898" lon="13.6516590118408">
			<ele>38.7999992370605</ele>
			<time>2014-04-13T13:56:00Z</time>
		</trkpt>
		<trkpt lat="53.8375434875488" lon="13.6517677307129">
			<ele>39.2000007629395</ele>
			<time>2014-04-13T13:56:02Z</time>
		</trkpt>
		<trkpt lat="53.837574005127" lon="13.6518230438232">
			<ele>39.2000007629395</ele>
			<time>2014-04-13T13:56:03Z</time>
		</trkpt>
		<trkpt lat="53.8376045227051" lon="13.6518774032593">
			<ele>39.2000007629395</ele>
			<time>2014-04-13T13:56:04Z</time>
		</trkpt>
		<trkpt lat="53.8376693725586" lon="13.6519842147827">
			<ele>39.5</ele>
			<time>2014-04-13T13:56:06Z</time>
		</trkpt>
		<trkpt lat="53.837703704834" lon="13.6520385742188">
			<ele>39.5</ele>
			<time>2014-04-13T13:56:07Z</time>
		</trkpt>
		<trkpt lat="53.837760925293" lon="13.6521453857422">
			<ele>39.5999984741211</ele>
			<time>2014-04-13T13:56:09Z</time>
		</trkpt>
		<trkpt lat="53.8377914428711" lon="13.6522035598755">
			<ele>39.7999992370605</ele>
			<time>2014-04-13T13:56:10Z</time>
		</trkpt>
		<trkpt lat="53.8378524780273" lon="13.6523103713989">
			<ele>39.5</ele>
			<time>2014-04-13T13:56:12Z</time>
		</trkpt>
		<trkpt lat="53.8379096984863" lon="13.6524267196655">
			<ele>39.4000015258789</ele>
			<time>2014-04-13T13:56:14Z</time>
		</trkpt>
		<trkpt lat="53.8379402160645" lon="13.6524820327759">
			<ele>39.0999984741211</ele>
			<time>2014-04-13T13:56:15Z</time>
		</trkpt>
		<trkpt lat="53.8379745483398" lon="13.6525344848633">
			<ele>38.9000015258789</ele>
			<time>2014-04-13T13:56:16Z</time>
		</trkpt>
		<trkpt lat="53.8380088806152" lon="13.6525897979736">
			<ele>39.0999984741211</ele>
			<time>2014-04-13T13:56:17Z</time>
		</trkpt>
		<trkpt lat="53.8380699157715" lon="13.6526927947998">
			<ele>39.2999992370605</ele>
			<time>2014-04-13T13:56:21Z</time>
		</trkpt>
		<trkpt lat="53.8381729125977" lon="13.6528453826904">
			<ele>39.2999992370605</ele>
			<time>2014-04-13T13:56:22Z</time>
		</trkpt>
		<trkpt lat="53.8382377624512" lon="13.6529407501221">
			<ele>39.4000015258789</ele>
			<time>2014-04-13T13:56:25Z</time>
		</trkpt>
		<trkpt lat="53.8382759094238" lon="13.6529846191406">
			<ele>39.5999984741211</ele>
			<time>2014-04-13T13:56:25Z</time>
		</trkpt>
		<trkpt lat="53.8383140563965" lon="13.6530342102051">
			<ele>39.7000007629395</ele>
			<time>2014-04-13T13:56:26Z</time>
		</trkpt>
		<trkpt lat="53.8383483886719" lon="13.6530895233154">
			<ele>39.7000007629395</ele>
			<time>2014-04-13T13:56:27Z</time>
		</trkpt>
		<trkpt lat="53.8383827209473" lon="13.6531419754028">
			<ele>39.7999992370605</ele>
			<time>2014-04-13T13:56:28Z</time>
		</trkpt>
		<trkpt lat="53.8384170532227" lon="13.6531972885132">
			<ele>40</ele>
			<time>2014-04-13T13:56:29Z</time>
		</trkpt>
		<trkpt lat="53.8384552001953" lon="13.653244972229">
			<ele>40.0999984741211</ele>
			<time>2014-04-13T13:56:30Z</time>
		</trkpt>
		<trkpt lat="53.8384895324707" lon="13.6532945632935">
			<ele>40.0999984741211</ele>
			<time>2014-04-13T13:56:31Z</time>
		</trkpt>
		<trkpt lat="53.8385314941406" lon="13.6533422470093">
			<ele>40</ele>
			<time>2014-04-13T13:56:32Z</time>
		</trkpt>
		<trkpt lat="53.8385696411133" lon="13.6533918380737">
			<ele>40.2000007629395</ele>
			<time>2014-04-13T13:56:33Z</time>
		</trkpt>
		<trkpt lat="53.8386077880859" lon="13.6534404754639">
			<ele>40.2000007629395</ele>
			<time>2014-04-13T13:56:34Z</time>
		</trkpt>
		<trkpt lat="53.8386459350586" lon="13.653489112854">
			<ele>40.5</ele>
			<time>2014-04-13T13:56:35Z</time>
		</trkpt>
		<trkpt lat="53.8386840820313" lon="13.6535358428955">
			<ele>40.5999984741211</ele>
			<time>2014-04-13T13:56:37Z</time>
		</trkpt>
		<trkpt lat="53.8387222290039" lon="13.6535797119141">
			<ele>40.5999984741211</ele>
			<time>2014-04-13T13:56:38Z</time>
		</trkpt>
		<trkpt lat="53.8387565612793" lon="13.6536245346069">
			<ele>40.5999984741211</ele>
			<time>2014-04-13T13:56:39Z</time>
		</trkpt>
		<trkpt lat="53.8387908935547" lon="13.6536779403687">
			<ele>40.7000007629395</ele>
			<time>2014-04-13T13:56:41Z</time>
		</trkpt>
		<trkpt lat="53.8388252258301" lon="13.6537351608276">
			<ele>40.7000007629395</ele>
			<time>2014-04-13T13:56:41Z</time>
		</trkpt>
		<trkpt lat="53.8388938903809" lon="13.6538419723511">
			<ele>40.7999992370605</ele>
			<time>2014-04-13T13:56:42Z</time>
		</trkpt>
		<trkpt lat="53.8389320373535" lon="13.6538934707642">
			<ele>40.7999992370605</ele>
			<time>2014-04-13T13:56:44Z</time>
		</trkpt>
		<trkpt lat="53.8389739990234" lon="13.65394115448">
			<ele>40.7999992370605</ele>
			<time>2014-04-13T13:56:44Z</time>
		</trkpt>
		<trkpt lat="53.8390159606934" lon="13.6539897918701">
			<ele>40.7000007629395</ele>
			<time>2014-04-13T13:56:45Z</time>
		</trkpt>
		<trkpt lat="53.8390579223633" lon="13.6540403366089">
			<ele>41</ele>
			<time>2014-04-13T13:56:48Z</time>
		</trkpt>
		<trkpt lat="53.8391380310059" lon="13.6541481018066">
			<ele>40.7999992370605</ele>
			<time>2014-04-13T13:56:49Z</time>
		</trkpt>
		<trkpt lat="53.839183807373" lon="13.6542024612427">
			<ele>40.7999992370605</ele>
			<time>2014-04-13T13:56:49Z</time>
		</trkpt>
		<trkpt lat="53.839225769043" lon="13.6542568206787">
			<ele>40.9000015258789</ele>
			<time>2014-04-13T13:56:50Z</time>
		</trkpt>
		<trkpt lat="53.8392715454102" lon="13.6543054580688">
			<ele>40.7999992370605</ele>
			<time>2014-04-13T13:56:51Z</time>
		</trkpt>
		<trkpt lat="53.8393173217773" lon="13.6543579101563">
			<ele>40.5</ele>
			<time>2014-04-13T13:56:52Z</time>
		</trkpt>
		<trkpt lat="53.8393592834473" lon="13.654411315918">
			<ele>40.7999992370605</ele>
			<time>2014-04-13T13:56:53Z</time>
		</trkpt>
		<trkpt lat="53.8394050598145" lon="13.6544666290283">
			<ele>40.5999984741211</ele>
			<time>2014-04-13T13:56:54Z</time>
		</trkpt>
		<trkpt lat="53.8394508361816" lon="13.6545276641846">
			<ele>40.4000015258789</ele>
			<time>2014-04-13T13:56:55Z</time>
		</trkpt>
		<trkpt lat="53.8394927978516" lon="13.6545848846436">
			<ele>40.4000015258789</ele>
			<time>2014-04-13T13:56:56Z</time>
		</trkpt>
		<trkpt lat="53.8395385742188" lon="13.6546459197998">
			<ele>40.5999984741211</ele>
			<time>2014-04-13T13:56:57Z</time>
		</trkpt>
		<trkpt lat="53.8395805358887" lon="13.6547021865845">
			<ele>40.7999992370605</ele>
			<time>2014-04-13T13:56:58Z</time>
		</trkpt>
		<trkpt lat="53.8396224975586" lon="13.6547584533691">
			<ele>40.9000015258789</ele>
			<time>2014-04-13T13:56:59Z</time>
		</trkpt>
		<trkpt lat="53.8396644592285" lon="13.6548042297363">
			<ele>40.9000015258789</ele>
			<time>2014-04-13T13:57:00Z</time>
		</trkpt>
		<trkpt lat="53.8397026062012" lon="13.654857635498">
			<ele>40.9000015258789</ele>
			<time>2014-04-13T13:57:01Z</time>
		</trkpt>
		<trkpt lat="53.8397483825684" lon="13.6549119949341">
			<ele>41.0999984741211</ele>
			<time>2014-04-13T13:57:02Z</time>
		</trkpt>
		<trkpt lat="53.839786529541" lon="13.6549654006958">
			<ele>41</ele>
			<time>2014-04-13T13:57:03Z</time>
		</trkpt>
		<trkpt lat="53.8398284912109" lon="13.6550178527832">
			<ele>40.7000007629395</ele>
			<time>2014-04-13T13:57:04Z</time>
		</trkpt>
		<trkpt lat="53.8398666381836" lon="13.6550693511963">
			<ele>40.7000007629395</ele>
			<time>2014-04-13T13:57:05Z</time>
		</trkpt>
		<trkpt lat="53.8399047851563" lon="13.6551246643066">
			<ele>41</ele>
			<time>2014-04-13T13:57:06Z</time>
		</trkpt>
		<trkpt lat="53.8399467468262" lon="13.655177116394">
			<ele>41.2000007629395</ele>
			<time>2014-04-13T13:57:07Z</time>
		</trkpt>
		<trkpt lat="53.8399887084961" lon="13.6552314758301">
			<ele>41.2999992370605</ele>
			<time>2014-04-13T13:57:08Z</time>
		</trkpt>
		<trkpt lat="53.8400268554688" lon="13.6552791595459">
			<ele>41.5</ele>
			<time>2014-04-13T13:57:09Z</time>
		</trkpt>
		<trkpt lat="53.8400688171387" lon="13.655327796936">
			<ele>41.5</ele>
			<time>2014-04-13T13:57:10Z</time>
		</trkpt>
		<trkpt lat="53.8401145935059" lon="13.6553773880005">
			<ele>41.4000015258789</ele>
			<time>2014-04-13T13:57:11Z</time>
		</trkpt>
		<trkpt lat="53.8401527404785" lon="13.6554222106934">
			<ele>41.4000015258789</ele>
			<time>2014-04-13T13:57:12Z</time>
		</trkpt>
		<trkpt lat="53.8401908874512" lon="13.6554841995239">
			<ele>41.4000015258789</ele>
			<time>2014-04-13T13:57:13Z</time>
		</trkpt>
		<trkpt lat="53.8402328491211" lon="13.655535697937">
			<ele>41.2999992370605</ele>
			<time>2014-04-13T13:57:14Z</time>
		</trkpt>
		<trkpt lat="53.8402709960938" lon="13.6555862426758">
			<ele>41.2000007629395</ele>
			<time>2014-04-13T13:57:15Z</time>
		</trkpt>
		<trkpt lat="53.8403091430664" lon="13.6556425094604">
			<ele>41.0999984741211</ele>
			<time>2014-04-13T13:57:16Z</time>
		</trkpt>
		<trkpt lat="53.8403511047363" lon="13.6556987762451">
			<ele>41.0999984741211</ele>
			<time>2014-04-13T13:57:17Z</time>
		</trkpt>
		<trkpt lat="53.8403930664063" lon="13.6557512283325">
			<ele>41.2000007629395</ele>
			<time>2014-04-13T13:57:18Z</time>
		</trkpt>
		<trkpt lat="53.8404273986816" lon="13.6558027267456">
			<ele>41.2000007629395</ele>
			<time>2014-04-13T13:57:19Z</time>
		</trkpt>
		<trkpt lat="53.840461730957" lon="13.6558513641357">
			<ele>41.4000015258789</ele>
			<time>2014-04-13T13:57:20Z</time>
		</trkpt>
		<trkpt lat="53.8404998779297" lon="13.6559057235718">
			<ele>41.5999984741211</ele>
			<time>2014-04-13T13:57:21Z</time>
		</trkpt>
		<trkpt lat="53.8405494689941" lon="13.6559553146362">
			<ele>41.9000015258789</ele>
			<time>2014-04-13T13:57:22Z</time>
		</trkpt>
		<trkpt lat="53.8405838012695" lon="13.6560125350952">
			<ele>41.5999984741211</ele>
			<time>2014-04-13T13:57:23Z</time>
		</trkpt>
		<trkpt lat="53.8406181335449" lon="13.6560640335083">
			<ele>41.5999984741211</ele>
			<time>2014-04-13T13:57:24Z</time>
		</trkpt>
		<trkpt lat="53.8406600952148" lon="13.6561136245728">
			<ele>41.7999992370605</ele>
			<time>2014-04-13T13:57:25Z</time>
		</trkpt>
		<trkpt lat="53.8406982421875" lon="13.6561574935913">
			<ele>42</ele>
			<time>2014-04-13T13:57:26Z</time>
		</trkpt>
		<trkpt lat="53.8407402038574" lon="13.6562080383301">
			<ele>42.4000015258789</ele>
			<time>2014-04-13T13:57:27Z</time>
		</trkpt>
		<trkpt lat="53.8407821655273" lon="13.6562557220459">
			<ele>42.2000007629395</ele>
			<time>2014-04-13T13:57:28Z</time>
		</trkpt>
		<trkpt lat="53.8408164978027" lon="13.6563081741333">
			<ele>42.4000015258789</ele>
			<time>2014-04-13T13:57:29Z</time>
		</trkpt>
		<trkpt lat="53.8408584594727" lon="13.656364440918">
			<ele>42.5</ele>
			<time>2014-04-13T13:57:30Z</time>
		</trkpt>
		<trkpt lat="53.8409004211426" lon="13.656418800354">
			<ele>42.7999992370605</ele>
			<time>2014-04-13T13:57:31Z</time>
		</trkpt>
		<trkpt lat="53.8409385681152" lon="13.6564712524414">
			<ele>43</ele>
			<time>2014-04-13T13:57:32Z</time>
		</trkpt>
		<trkpt lat="53.8409805297852" lon="13.6565170288086">
			<ele>42.7999992370605</ele>
			<time>2014-04-13T13:57:33Z</time>
		</trkpt>
		<trkpt lat="53.8410186767578" lon="13.656566619873">
			<ele>43.2000007629395</ele>
			<time>2014-04-13T13:57:34Z</time>
		</trkpt>
		<trkpt lat="53.8410568237305" lon="13.6566171646118">
			<ele>43</ele>
			<time>2014-04-13T13:57:35Z</time>
		</trkpt>
		<trkpt lat="53.8410949707031" lon="13.6566715240479">
			<ele>42.9000015258789</ele>
			<time>2014-04-13T13:57:36Z</time>
		</trkpt>
		<trkpt lat="53.8411293029785" lon="13.6567239761353">
			<ele>42.4000015258789</ele>
			<time>2014-04-13T13:57:37Z</time>
		</trkpt>
		<trkpt lat="53.8411712646484" lon="13.656774520874">
			<ele>42.2999992370605</ele>
			<time>2014-04-13T13:57:38Z</time>
		</trkpt>
		<trkpt lat="53.8412094116211" lon="13.6568202972412">
			<ele>41.7000007629395</ele>
			<time>2014-04-13T13:57:39Z</time>
		</trkpt>
		<trkpt lat="53.8412437438965" lon="13.6568689346313">
			<ele>41.7999992370605</ele>
			<time>2014-04-13T13:57:40Z</time>
		</trkpt>
		<trkpt lat="53.8412857055664" lon="13.6569147109985">
			<ele>41.0999984741211</ele>
			<time>2014-04-13T13:57:41Z</time>
		</trkpt>
		<trkpt lat="53.8413505554199" lon="13.6570072174072">
			<ele>40.7999992370605</ele>
			<time>2014-04-13T13:57:43Z</time>
		</trkpt>
		<trkpt lat="53.8413925170898" lon="13.6570615768433">
			<ele>40.9000015258789</ele>
			<time>2014-04-13T13:57:44Z</time>
		</trkpt>
		<trkpt lat="53.8414306640625" lon="13.6571054458618">
			<ele>41.4000015258789</ele>
			<time>2014-04-13T13:57:45Z</time>
		</trkpt>
		<trkpt lat="53.841495513916" lon="13.6571788787842">
			<ele>41.4000015258789</ele>
			<time>2014-04-13T13:57:47Z</time>
		</trkpt>
		<trkpt lat="53.8415374755859" lon="13.6572322845459">
			<ele>41.5</ele>
			<time>2014-04-13T13:57:48Z</time>
		</trkpt>
		<trkpt lat="53.8415718078613" lon="13.6572828292847">
			<ele>41.2000007629395</ele>
			<time>2014-04-13T13:57:49Z</time>
		</trkpt>
		<trkpt lat="53.841609954834" lon="13.6573333740234">
			<ele>40.9000015258789</ele>
			<time>2014-04-13T13:57:50Z</time>
		</trkpt>
		<trkpt lat="53.8416786193848" lon="13.6574258804321">
			<ele>40.7000007629395</ele>
			<time>2014-04-13T13:57:52Z</time>
		</trkpt>
		<trkpt lat="53.8417205810547" lon="13.6574668884277">
			<ele>40.7999992370605</ele>
			<time>2014-04-13T13:57:53Z</time>
		</trkpt>
		<trkpt lat="53.8417549133301" lon="13.6575145721436">
			<ele>40.7999992370605</ele>
			<time>2014-04-13T13:57:54Z</time>
		</trkpt>
		<trkpt lat="53.8417930603027" lon="13.6575622558594">
			<ele>41</ele>
			<time>2014-04-13T13:57:55Z</time>
		</trkpt>
		<trkpt lat="53.8418579101563" lon="13.6576557159424">
			<ele>40.2000007629395</ele>
			<time>2014-04-13T13:57:57Z</time>
		</trkpt>
		<trkpt lat="53.8418960571289" lon="13.6577005386353">
			<ele>39.5999984741211</ele>
			<time>2014-04-13T13:57:58Z</time>
		</trkpt>
		<trkpt lat="53.841968536377" lon="13.6577978134155">
			<ele>38.7999992370605</ele>
			<time>2014-04-13T13:58:00Z</time>
		</trkpt>
		<trkpt lat="53.8420372009277" lon="13.6579008102417">
			<ele>38.7999992370605</ele>
			<time>2014-04-13T13:58:02Z</time>
		</trkpt>
		<trkpt lat="53.8420753479004" lon="13.6579418182373">
			<ele>38.9000015258789</ele>
			<time>2014-04-13T13:58:03Z</time>
		</trkpt>
		<trkpt lat="53.842113494873" lon="13.6579885482788">
			<ele>39.0999984741211</ele>
			<time>2014-04-13T13:58:04Z</time>
		</trkpt>
		<trkpt lat="53.8421783447266" lon="13.658091545105">
			<ele>40.2999992370605</ele>
			<time>2014-04-13T13:58:06Z</time>
		</trkpt>
		<trkpt lat="53.8422164916992" lon="13.6581382751465">
			<ele>40.5</ele>
			<time>2014-04-13T13:58:07Z</time>
		</trkpt>
		<trkpt lat="53.8422508239746" lon="13.658185005188">
			<ele>40.9000015258789</ele>
			<time>2014-04-13T13:58:08Z</time>
		</trkpt>
		<trkpt lat="53.8423156738281" lon="13.6582775115967">
			<ele>41.4000015258789</ele>
			<time>2014-04-13T13:58:10Z</time>
		</trkpt>
		<trkpt lat="53.8423805236816" lon="13.6583652496338">
			<ele>41.4000015258789</ele>
			<time>2014-04-13T13:58:12Z</time>
		</trkpt>
		<trkpt lat="53.8424186706543" lon="13.6584091186523">
			<ele>41.0999984741211</ele>
			<time>2014-04-13T13:58:13Z</time>
		</trkpt>
		<trkpt lat="53.8424835205078" lon="13.6584939956665">
			<ele>41.2999992370605</ele>
			<time>2014-04-13T13:58:15Z</time>
		</trkpt>
		<trkpt lat="53.8425254821777" lon="13.658543586731">
			<ele>41.4000015258789</ele>
			<time>2014-04-13T13:58:16Z</time>
		</trkpt>
		<trkpt lat="53.8425674438477" lon="13.6585893630981">
			<ele>41.7000007629395</ele>
			<time>2014-04-13T13:58:17Z</time>
		</trkpt>
		<trkpt lat="53.8426055908203" lon="13.6586389541626">
			<ele>41.7999992370605</ele>
			<time>2014-04-13T13:58:18Z</time>
		</trkpt>
		<trkpt lat="53.8426399230957" lon="13.6586885452271">
			<ele>41.7000007629395</ele>
			<time>2014-04-13T13:58:19Z</time>
		</trkpt>
		<trkpt lat="53.8426818847656" lon="13.6587381362915">
			<ele>41.7000007629395</ele>
			<time>2014-04-13T13:58:20Z</time>
		</trkpt>
		<trkpt lat="53.8427200317383" lon="13.658784866333">
			<ele>42</ele>
			<time>2014-04-13T13:58:21Z</time>
		</trkpt>
		<trkpt lat="53.8427581787109" lon="13.6588296890259">
			<ele>42.2000007629395</ele>
			<time>2014-04-13T13:58:22Z</time>
		</trkpt>
		<trkpt lat="53.8427925109863" lon="13.6588821411133">
			<ele>42.2999992370605</ele>
			<time>2014-04-13T13:58:23Z</time>
		</trkpt>
		<trkpt lat="53.842830657959" lon="13.6589326858521">
			<ele>42.5</ele>
			<time>2014-04-13T13:58:24Z</time>
		</trkpt>
		<trkpt lat="53.8428688049316" lon="13.6589803695679">
			<ele>42.5</ele>
			<time>2014-04-13T13:58:25Z</time>
		</trkpt>
		<trkpt lat="53.842903137207" lon="13.6590347290039">
			<ele>42.4000015258789</ele>
			<time>2014-04-13T13:58:26Z</time>
		</trkpt>
		<trkpt lat="53.8429374694824" lon="13.6590795516968">
			<ele>42.2000007629395</ele>
			<time>2014-04-13T13:58:27Z</time>
		</trkpt>
		<trkpt lat="53.8429756164551" lon="13.659125328064">
			<ele>42.2000007629395</ele>
			<time>2014-04-13T13:58:28Z</time>
		</trkpt>
		<trkpt lat="53.8430099487305" lon="13.6591739654541">
			<ele>42.2999992370605</ele>
			<time>2014-04-13T13:58:29Z</time>
		</trkpt>
		<trkpt lat="53.8430519104004" lon="13.6592216491699">
			<ele>42.2999992370605</ele>
			<time>2014-04-13T13:58:30Z</time>
		</trkpt>
		<trkpt lat="53.8431167602539" lon="13.6593160629272">
			<ele>41.9000015258789</ele>
			<time>2014-04-13T13:58:32Z</time>
		</trkpt>
		<trkpt lat="53.8431587219238" lon="13.6593637466431">
			<ele>41.7999992370605</ele>
			<time>2014-04-13T13:58:33Z</time>
		</trkpt>
		<trkpt lat="53.8431930541992" lon="13.6594123840332">
			<ele>41.9000015258789</ele>
			<time>2014-04-13T13:58:34Z</time>
		</trkpt>
		<trkpt lat="53.84326171875" lon="13.6595039367676">
			<ele>42.2999992370605</ele>
			<time>2014-04-13T13:58:36Z</time>
		</trkpt>
		<trkpt lat="53.8432998657227" lon="13.6595497131348">
			<ele>42.4000015258789</ele>
			<time>2014-04-13T13:58:37Z</time>
		</trkpt>
		<trkpt lat="53.8433380126953" lon="13.6596012115479">
			<ele>42.5</ele>
			<time>2014-04-13T13:58:38Z</time>
		</trkpt>
		<trkpt lat="53.8434028625488" lon="13.6596965789795">
			<ele>42.2999992370605</ele>
			<time>2014-04-13T13:58:40Z</time>
		</trkpt>
		<trkpt lat="53.8434715270996" lon="13.6597919464111">
			<ele>42.5999984741211</ele>
			<time>2014-04-13T13:58:42Z</time>
		</trkpt>
		<trkpt lat="53.8435096740723" lon="13.6598377227783">
			<ele>42.5999984741211</ele>
			<time>2014-04-13T13:58:43Z</time>
		</trkpt>
		<trkpt lat="53.843578338623" lon="13.65993309021">
			<ele>42.7000007629395</ele>
			<time>2014-04-13T13:58:45Z</time>
		</trkpt>
		<trkpt lat="53.8436470031738" lon="13.6600227355957">
			<ele>42.7999992370605</ele>
			<time>2014-04-13T13:58:47Z</time>
		</trkpt>
		<trkpt lat="53.8437156677246" lon="13.6601057052612">
			<ele>43.2999992370605</ele>
			<time>2014-04-13T13:58:49Z</time>
		</trkpt>
		<trkpt lat="53.8437538146973" lon="13.6601495742798">
			<ele>43.5999984741211</ele>
			<time>2014-04-13T13:58:50Z</time>
		</trkpt>
		<trkpt lat="53.8438301086426" lon="13.6602249145508">
			<ele>43.2000007629395</ele>
			<time>2014-04-13T13:58:52Z</time>
		</trkpt>
		<trkpt lat="53.8439064025879" lon="13.6603012084961">
			<ele>43.4000015258789</ele>
			<time>2014-04-13T13:58:54Z</time>
		</trkpt>
		<trkpt lat="53.8439788818359" lon="13.6603765487671">
			<ele>43.9000015258789</ele>
			<time>2014-04-13T13:58:56Z</time>
		</trkpt>
		<trkpt lat="53.8440551757813" lon="13.6604480743408">
			<ele>44.2000007629395</ele>
			<time>2014-04-13T13:58:58Z</time>
		</trkpt>
		<trkpt lat="53.844123840332" lon="13.6605339050293">
			<ele>44.2000007629395</ele>
			<time>2014-04-13T13:59:00Z</time>
		</trkpt>
		<trkpt lat="53.8441734313965" lon="13.6606550216675">
			<ele>44.2999992370605</ele>
			<time>2014-04-13T13:59:02Z</time>
		</trkpt>
		<trkpt lat="53.8442001342773" lon="13.6607160568237">
			<ele>43.7999992370605</ele>
			<time>2014-04-13T13:59:03Z</time>
		</trkpt>
		<trkpt lat="53.8442611694336" lon="13.660816192627">
			<ele>43.5</ele>
			<time>2014-04-13T13:59:05Z</time>
		</trkpt>
		<trkpt lat="53.8442993164063" lon="13.6608686447144">
			<ele>43.4000015258789</ele>
			<time>2014-04-13T13:59:06Z</time>
		</trkpt>
		<trkpt lat="53.8443374633789" lon="13.6609163284302">
			<ele>43.4000015258789</ele>
			<time>2014-04-13T13:59:07Z</time>
		</trkpt>
		<trkpt lat="53.8444137573242" lon="13.6610107421875">
			<ele>44.4000015258789</ele>
			<time>2014-04-13T13:59:09Z</time>
		</trkpt>
		<trkpt lat="53.8444519042969" lon="13.6610641479492">
			<ele>44.4000015258789</ele>
			<time>2014-04-13T13:59:10Z</time>
		</trkpt>
		<trkpt lat="53.8444900512695" lon="13.6611089706421">
			<ele>44.5</ele>
			<time>2014-04-13T13:59:11Z</time>
		</trkpt>
		<trkpt lat="53.8445281982422" lon="13.6611490249634">
			<ele>44.4000015258789</ele>
			<time>2014-04-13T13:59:12Z</time>
		</trkpt>
		<trkpt lat="53.8446044921875" lon="13.6612234115601">
			<ele>45</ele>
			<time>2014-04-13T13:59:14Z</time>
		</trkpt>
		<trkpt lat="53.8446846008301" lon="13.6611824035645">
			<ele>45.2999992370605</ele>
			<time>2014-04-13T13:59:16Z</time>
		</trkpt>
		<trkpt lat="53.8447532653809" lon="13.6611099243164">
			<ele>45.2000007629395</ele>
			<time>2014-04-13T13:59:18Z</time>
		</trkpt>
		<trkpt lat="53.8448333740234" lon="13.6611232757568">
			<ele>45.2000007629395</ele>
			<time>2014-04-13T13:59:20Z</time>
		</trkpt>
		<trkpt lat="53.8449096679688" lon="13.6611919403076">
			<ele>45.0999984741211</ele>
			<time>2014-04-13T13:59:22Z</time>
		</trkpt>
		<trkpt lat="53.8449516296387" lon="13.6612300872803">
			<ele>45</ele>
			<time>2014-04-13T13:59:24Z</time>
		</trkpt>
		<trkpt lat="53.8450317382813" lon="13.661304473877">
			<ele>45.2999992370605</ele>
			<time>2014-04-13T13:59:25Z</time>
		</trkpt>
		<trkpt lat="53.8450698852539" lon="13.6613426208496">
			<ele>45.4000015258789</ele>
			<time>2014-04-13T13:59:26Z</time>
		</trkpt>
		<trkpt lat="53.8451461791992" lon="13.661413192749">
			<ele>45.5</ele>
			<time>2014-04-13T13:59:28Z</time>
		</trkpt>
		<trkpt lat="53.84521484375" lon="13.6614875793457">
			<ele>45.9000015258789</ele>
			<time>2014-04-13T13:59:30Z</time>
		</trkpt>
		<trkpt lat="53.845287322998" lon="13.6615657806396">
			<ele>46.2000007629395</ele>
			<time>2014-04-13T13:59:32Z</time>
		</trkpt>
		<trkpt lat="53.8453483581543" lon="13.661639213562">
			<ele>46.5999984741211</ele>
			<time>2014-04-13T13:59:34Z</time>
		</trkpt>
		<trkpt lat="53.8454093933105" lon="13.6617069244385">
			<ele>46.7000007629395</ele>
			<time>2014-04-13T13:59:36Z</time>
		</trkpt>
		<trkpt lat="53.8454666137695" lon="13.6617746353149">
			<ele>46.5999984741211</ele>
			<time>2014-04-13T13:59:38Z</time>
		</trkpt>
		<trkpt lat="53.8455200195313" lon="13.6618413925171">
			<ele>46.7999992370605</ele>
			<time>2014-04-13T13:59:40Z</time>
		</trkpt>
		<trkpt lat="53.8455696105957" lon="13.6619100570679">
			<ele>46.7000007629395</ele>
			<time>2014-04-13T13:59:42Z</time>
		</trkpt>
		<trkpt lat="53.8456192016602" lon="13.6619787216187">
			<ele>46.7999992370605</ele>
			<time>2014-04-13T13:59:44Z</time>
		</trkpt>
		<trkpt lat="53.8456649780273" lon="13.6620397567749">
			<ele>46.7999992370605</ele>
			<time>2014-04-13T13:59:46Z</time>
		</trkpt>
		<trkpt lat="53.8457107543945" lon="13.6620998382568">
			<ele>46.5999984741211</ele>
			<time>2014-04-13T13:59:48Z</time>
		</trkpt>
		<trkpt lat="53.8457565307617" lon="13.6621675491333">
			<ele>46.9000015258789</ele>
			<time>2014-04-13T13:59:50Z</time>
		</trkpt>
		<trkpt lat="53.8458023071289" lon="13.6622362136841">
			<ele>47.2000007629395</ele>
			<time>2014-04-13T13:59:52Z</time>
		</trkpt>
		<trkpt lat="53.8458480834961" lon="13.6623048782349">
			<ele>47.4000015258789</ele>
			<time>2014-04-13T13:59:54Z</time>
		</trkpt>
		<trkpt lat="53.845890045166" lon="13.6623754501343">
			<ele>47.5999984741211</ele>
			<time>2014-04-13T13:59:56Z</time>
		</trkpt>
		<trkpt lat="53.8459320068359" lon="13.6624460220337">
			<ele>47.9000015258789</ele>
			<time>2014-04-13T13:59:58Z</time>
		</trkpt>
		<trkpt lat="53.8459739685059" lon="13.6625127792358">
			<ele>47.9000015258789</ele>
			<time>2014-04-13T14:00:00Z</time>
		</trkpt>
		<trkpt lat="53.8460159301758" lon="13.6625852584839">
			<ele>47.9000015258789</ele>
			<time>2014-04-13T14:00:02Z</time>
		</trkpt>
		<trkpt lat="53.8460578918457" lon="13.6626605987549">
			<ele>48.4000015258789</ele>
			<time>2014-04-13T14:00:04Z</time>
		</trkpt>
		<trkpt lat="53.8461036682129" lon="13.6627397537231">
			<ele>48.4000015258789</ele>
			<time>2014-04-13T14:00:06Z</time>
		</trkpt>
		<trkpt lat="53.8461456298828" lon="13.6628227233887">
			<ele>48.7000007629395</ele>
			<time>2014-04-13T14:00:08Z</time>
		</trkpt>
		<trkpt lat="53.8461837768555" lon="13.6629056930542">
			<ele>48.4000015258789</ele>
			<time>2014-04-13T14:00:10Z</time>
		</trkpt>
		<trkpt lat="53.8462257385254" lon="13.6629934310913">
			<ele>48.4000015258789</ele>
			<time>2014-04-13T14:00:12Z</time>
		</trkpt>
		<trkpt lat="53.846263885498" lon="13.6630754470825">
			<ele>48.4000015258789</ele>
			<time>2014-04-13T14:00:14Z</time>
		</trkpt>
		<trkpt lat="53.8462982177734" lon="13.6631622314453">
			<ele>48.7999992370605</ele>
			<time>2014-04-13T14:00:16Z</time>
		</trkpt>
		<trkpt lat="53.8463401794434" lon="13.6632480621338">
			<ele>48.7999992370605</ele>
			<time>2014-04-13T14:00:18Z</time>
		</trkpt>
		<trkpt lat="53.8463706970215" lon="13.6633253097534">
			<ele>48.4000015258789</ele>
			<time>2014-04-13T14:00:20Z</time>
		</trkpt>
		<trkpt lat="53.8464050292969" lon="13.6634120941162">
			<ele>48.2999992370605</ele>
			<time>2014-04-13T14:00:22Z</time>
		</trkpt>
		<trkpt lat="53.846435546875" lon="13.6635131835938">
			<ele>48.7999992370605</ele>
			<time>2014-04-13T14:00:24Z</time>
		</trkpt>
		<trkpt lat="53.8464584350586" lon="13.6635808944702">
			<ele>48</ele>
			<time>2014-04-13T14:00:25Z</time>
		</trkpt>
		<trkpt lat="53.846508026123" lon="13.6637201309204">
			<ele>47.5999984741211</ele>
			<time>2014-04-13T14:00:27Z</time>
		</trkpt>
		<trkpt lat="53.8465309143066" lon="13.663800239563">
			<ele>47.2999992370605</ele>
			<time>2014-04-13T14:00:28Z</time>
		</trkpt>
		<trkpt lat="53.8465576171875" lon="13.6638870239258">
			<ele>47</ele>
			<time>2014-04-13T14:00:29Z</time>
		</trkpt>
		<trkpt lat="53.8465843200684" lon="13.6639728546143">
			<ele>46.7999992370605</ele>
			<time>2014-04-13T14:00:30Z</time>
		</trkpt>
		<trkpt lat="53.8466110229492" lon="13.6640720367432">
			<ele>46.0999984741211</ele>
			<time>2014-04-13T14:00:31Z</time>
		</trkpt>
		<trkpt lat="53.8466339111328" lon="13.664176940918">
			<ele>46</ele>
			<time>2014-04-13T14:00:32Z</time>
		</trkpt>
		<trkpt lat="53.8466453552246" lon="13.6642761230469">
			<ele>46</ele>
			<time>2014-04-13T14:00:33Z</time>
		</trkpt>
		<trkpt lat="53.8466606140137" lon="13.664379119873">
			<ele>46</ele>
			<time>2014-04-13T14:00:34Z</time>
		</trkpt>
		<trkpt lat="53.8466911315918" lon="13.6644678115845">
			<ele>46</ele>
			<time>2014-04-13T14:00:35Z</time>
		</trkpt>
		<trkpt lat="53.846736907959" lon="13.6645393371582">
			<ele>45.5999984741211</ele>
			<time>2014-04-13T14:00:36Z</time>
		</trkpt>
		<trkpt lat="53.8467826843262" lon="13.6646022796631">
			<ele>45.9000015258789</ele>
			<time>2014-04-13T14:00:37Z</time>
		</trkpt>
		<trkpt lat="53.8468208312988" lon="13.6646595001221">
			<ele>46.0999984741211</ele>
			<time>2014-04-13T14:00:38Z</time>
		</trkpt>
		<trkpt lat="53.8468589782715" lon="13.6647281646729">
			<ele>46</ele>
			<time>2014-04-13T14:00:39Z</time>
		</trkpt>
		<trkpt lat="53.8468971252441" lon="13.6647930145264">
			<ele>45.7999992370605</ele>
			<time>2014-04-13T14:00:40Z</time>
		</trkpt>
		<trkpt lat="53.8469314575195" lon="13.6648540496826">
			<ele>45.9000015258789</ele>
			<time>2014-04-13T14:00:41Z</time>
		</trkpt>
		<trkpt lat="53.8469657897949" lon="13.6649131774902">
			<ele>45.9000015258789</ele>
			<time>2014-04-13T14:00:42Z</time>
		</trkpt>
		<trkpt lat="53.8470001220703" lon="13.6649742126465">
			<ele>45.9000015258789</ele>
			<time>2014-04-13T14:00:43Z</time>
		</trkpt>
		<trkpt lat="53.8470344543457" lon="13.6650352478027">
			<ele>46.0999984741211</ele>
			<time>2014-04-13T14:00:44Z</time>
		</trkpt>
		<trkpt lat="53.8470726013184" lon="13.6650981903076">
			<ele>46</ele>
			<time>2014-04-13T14:00:45Z</time>
		</trkpt>
		<trkpt lat="53.8471069335938" lon="13.6651630401611">
			<ele>46</ele>
			<time>2014-04-13T14:00:46Z</time>
		</trkpt>
		<trkpt lat="53.8471450805664" lon="13.6652164459229">
			<ele>46.0999984741211</ele>
			<time>2014-04-13T14:00:47Z</time>
		</trkpt>
		<trkpt lat="53.8471908569336" lon="13.6652603149414">
			<ele>46.4000015258789</ele>
			<time>2014-04-13T14:00:48Z</time>
		</trkpt>
		<trkpt lat="53.8472366333008" lon="13.6652927398682">
			<ele>46.4000015258789</ele>
			<time>2014-04-13T14:00:49Z</time>
		</trkpt>
		<trkpt lat="53.8472862243652" lon="13.6653213500977">
			<ele>46.5</ele>
			<time>2014-04-13T14:00:50Z</time>
		</trkpt>
		<trkpt lat="53.8473281860352" lon="13.6653594970703">
			<ele>46.5999984741211</ele>
			<time>2014-04-13T14:00:51Z</time>
		</trkpt>
		<trkpt lat="53.8473663330078" lon="13.6654138565063">
			<ele>46.5999984741211</ele>
			<time>2014-04-13T14:00:52Z</time>
		</trkpt>
		<trkpt lat="53.8474006652832" lon="13.6654758453369">
			<ele>46.7000007629395</ele>
			<time>2014-04-13T14:00:53Z</time>
		</trkpt>
		<trkpt lat="53.8474349975586" lon="13.6655387878418">
			<ele>46.5999984741211</ele>
			<time>2014-04-13T14:00:54Z</time>
		</trkpt>
		<trkpt lat="53.847469329834" lon="13.6656007766724">
			<ele>46.5999984741211</ele>
			<time>2014-04-13T14:00:55Z</time>
		</trkpt>
		<trkpt lat="53.8475074768066" lon="13.6656656265259">
			<ele>46.5999984741211</ele>
			<time>2014-04-13T14:00:56Z</time>
		</trkpt>
		<trkpt lat="53.8475456237793" lon="13.6657266616821">
			<ele>46.7999992370605</ele>
			<time>2014-04-13T14:00:57Z</time>
		</trkpt>
		<trkpt lat="53.8475761413574" lon="13.6657848358154">
			<ele>46.5999984741211</ele>
			<time>2014-04-13T14:00:58Z</time>
		</trkpt>
		<trkpt lat="53.8476142883301" lon="13.665843963623">
			<ele>46.9000015258789</ele>
			<time>2014-04-13T14:00:59Z</time>
		</trkpt>
		<trkpt lat="53.8476486206055" lon="13.6659078598022">
			<ele>46.9000015258789</ele>
			<time>2014-04-13T14:01:00Z</time>
		</trkpt>
		<trkpt lat="53.8476829528809" lon="13.6659641265869">
			<ele>47.2999992370605</ele>
			<time>2014-04-13T14:01:01Z</time>
		</trkpt>
		<trkpt lat="53.8477172851563" lon="13.6660308837891">
			<ele>47.5</ele>
			<time>2014-04-13T14:01:02Z</time>
		</trkpt>
		<trkpt lat="53.8477478027344" lon="13.6660919189453">
			<ele>47.2999992370605</ele>
			<time>2014-04-13T14:01:03Z</time>
		</trkpt>
		<trkpt lat="53.847785949707" lon="13.6661558151245">
			<ele>47.4000015258789</ele>
			<time>2014-04-13T14:01:04Z</time>
		</trkpt>
		<trkpt lat="53.8478202819824" lon="13.6662158966064">
			<ele>47.5</ele>
			<time>2014-04-13T14:01:05Z</time>
		</trkpt>
		<trkpt lat="53.8478507995605" lon="13.6662750244141">
			<ele>47.5999984741211</ele>
			<time>2014-04-13T14:01:06Z</time>
		</trkpt>
		<trkpt lat="53.8478851318359" lon="13.6663360595703">
			<ele>47.7999992370605</ele>
			<time>2014-04-13T14:01:07Z</time>
		</trkpt>
		<trkpt lat="53.8479194641113" lon="13.6663990020752">
			<ele>47.7999992370605</ele>
			<time>2014-04-13T14:01:08Z</time>
		</trkpt>
		<trkpt lat="53.8479499816895" lon="13.6664590835571">
			<ele>47.7999992370605</ele>
			<time>2014-04-13T14:01:09Z</time>
		</trkpt>
		<trkpt lat="53.8479804992676" lon="13.6665163040161">
			<ele>48</ele>
			<time>2014-04-13T14:01:10Z</time>
		</trkpt>
		<trkpt lat="53.8480110168457" lon="13.666576385498">
			<ele>48.0999984741211</ele>
			<time>2014-04-13T14:01:11Z</time>
		</trkpt>
		<trkpt lat="53.8480415344238" lon="13.6666402816772">
			<ele>48</ele>
			<time>2014-04-13T14:01:12Z</time>
		</trkpt>
		<trkpt lat="53.848072052002" lon="13.6667051315308">
			<ele>48</ele>
			<time>2014-04-13T14:01:13Z</time>
		</trkpt>
		<trkpt lat="53.8481063842773" lon="13.66676902771">
			<ele>47.9000015258789</ele>
			<time>2014-04-13T14:01:14Z</time>
		</trkpt>
		<trkpt lat="53.8481369018555" lon="13.6668281555176">
			<ele>47.7000007629395</ele>
			<time>2014-04-13T14:01:15Z</time>
		</trkpt>
		<trkpt lat="53.8481636047363" lon="13.6668920516968">
			<ele>47.5999984741211</ele>
			<time>2014-04-13T14:01:16Z</time>
		</trkpt>
		<trkpt lat="53.8481941223145" lon="13.666955947876">
			<ele>47.7999992370605</ele>
			<time>2014-04-13T14:01:17Z</time>
		</trkpt>
		<trkpt lat="53.8482246398926" lon="13.6670169830322">
			<ele>47.5999984741211</ele>
			<time>2014-04-13T14:01:18Z</time>
		</trkpt>
		<trkpt lat="53.8482551574707" lon="13.6670799255371">
			<ele>47.5999984741211</ele>
			<time>2014-04-13T14:01:19Z</time>
		</trkpt>
		<trkpt lat="53.8483123779297" lon="13.6672039031982">
			<ele>48</ele>
			<time>2014-04-13T14:01:21Z</time>
		</trkpt>
		<trkpt lat="53.8483428955078" lon="13.6672697067261">
			<ele>48</ele>
			<time>2014-04-13T14:01:22Z</time>
		</trkpt>
		<trkpt lat="53.8483734130859" lon="13.6673307418823">
			<ele>48</ele>
			<time>2014-04-13T14:01:23Z</time>
		</trkpt>
		<trkpt lat="53.8484077453613" lon="13.6673917770386">
			<ele>47.7999992370605</ele>
			<time>2014-04-13T14:01:24Z</time>
		</trkpt>
		<trkpt lat="53.8484344482422" lon="13.6674547195435">
			<ele>47.9000015258789</ele>
			<time>2014-04-13T14:01:25Z</time>
		</trkpt>
		<trkpt lat="53.848461151123" lon="13.6675186157227">
			<ele>48.0999984741211</ele>
			<time>2014-04-13T14:01:26Z</time>
		</trkpt>
		<trkpt lat="53.8485221862793" lon="13.6676378250122">
			<ele>48.4000015258789</ele>
			<time>2014-04-13T14:01:28Z</time>
		</trkpt>
		<trkpt lat="53.8485527038574" lon="13.6676959991455">
			<ele>48.4000015258789</ele>
			<time>2014-04-13T14:01:29Z</time>
		</trkpt>
		<trkpt lat="53.8485870361328" lon="13.6677522659302">
			<ele>48.5999984741211</ele>
			<time>2014-04-13T14:01:30Z</time>
		</trkpt>
		<trkpt lat="53.8486175537109" lon="13.667818069458">
			<ele>48.5999984741211</ele>
			<time>2014-04-13T14:01:31Z</time>
		</trkpt>
		<trkpt lat="53.8486709594727" lon="13.6679382324219">
			<ele>48.4000015258789</ele>
			<time>2014-04-13T14:01:33Z</time>
		</trkpt>
		<trkpt lat="53.8486976623535" lon="13.6679973602295">
			<ele>48.5999984741211</ele>
			<time>2014-04-13T14:01:34Z</time>
		</trkpt>
		<trkpt lat="53.8487548828125" lon="13.6681251525879">
			<ele>48.5</ele>
			<time>2014-04-13T14:01:36Z</time>
		</trkpt>
		<trkpt lat="53.8487815856934" lon="13.66819190979">
			<ele>48.7000007629395</ele>
			<time>2014-04-13T14:01:37Z</time>
		</trkpt>
		<trkpt lat="53.8488159179688" lon="13.6682577133179">
			<ele>49</ele>
			<time>2014-04-13T14:01:38Z</time>
		</trkpt>
		<trkpt lat="53.8488464355469" lon="13.6683197021484">
			<ele>48.9000015258789</ele>
			<time>2014-04-13T14:01:39Z</time>
		</trkpt>
		<trkpt lat="53.848876953125" lon="13.6683778762817">
			<ele>49.0999984741211</ele>
			<time>2014-04-13T14:01:40Z</time>
		</trkpt>
		<trkpt lat="53.8489074707031" lon="13.668438911438">
			<ele>49</ele>
			<time>2014-04-13T14:01:41Z</time>
		</trkpt>
		<trkpt lat="53.848934173584" lon="13.6685056686401">
			<ele>49.0999984741211</ele>
			<time>2014-04-13T14:01:42Z</time>
		</trkpt>
		<trkpt lat="53.8489646911621" lon="13.6685647964478">
			<ele>49.0999984741211</ele>
			<time>2014-04-13T14:01:43Z</time>
		</trkpt>
		<trkpt lat="53.8489952087402" lon="13.6686296463013">
			<ele>49</ele>
			<time>2014-04-13T14:01:44Z</time>
		</trkpt>
		<trkpt lat="53.8490257263184" lon="13.6686887741089">
			<ele>48.7000007629395</ele>
			<time>2014-04-13T14:01:45Z</time>
		</trkpt>
		<trkpt lat="53.8490600585938" lon="13.6687507629395">
			<ele>49</ele>
			<time>2014-04-13T14:01:46Z</time>
		</trkpt>
		<trkpt lat="53.8490982055664" lon="13.6688184738159">
			<ele>49.2999992370605</ele>
			<time>2014-04-13T14:01:47Z</time>
		</trkpt>
		<trkpt lat="53.8491249084473" lon="13.6688814163208">
			<ele>49.5999984741211</ele>
			<time>2014-04-13T14:01:48Z</time>
		</trkpt>
		<trkpt lat="53.8491592407227" lon="13.6689357757568">
			<ele>49.5</ele>
			<time>2014-04-13T14:01:49Z</time>
		</trkpt>
		<trkpt lat="53.8491859436035" lon="13.669002532959">
			<ele>49.5999984741211</ele>
			<time>2014-04-13T14:01:50Z</time>
		</trkpt>
		<trkpt lat="53.8492164611816" lon="13.6690692901611">
			<ele>49.7999992370605</ele>
			<time>2014-04-13T14:01:51Z</time>
		</trkpt>
		<trkpt lat="53.849250793457" lon="13.6691312789917">
			<ele>49.7999992370605</ele>
			<time>2014-04-13T14:01:52Z</time>
		</trkpt>
		<trkpt lat="53.8492813110352" lon="13.6691942214966">
			<ele>49.7999992370605</ele>
			<time>2014-04-13T14:01:53Z</time>
		</trkpt>
		<trkpt lat="53.8493156433105" lon="13.669261932373">
			<ele>49.9000015258789</ele>
			<time>2014-04-13T14:01:54Z</time>
		</trkpt>
		<trkpt lat="53.8493499755859" lon="13.6693334579468">
			<ele>49.5</ele>
			<time>2014-04-13T14:01:55Z</time>
		</trkpt>
		<trkpt lat="53.8493881225586" lon="13.6694097518921">
			<ele>49.7000007629395</ele>
			<time>2014-04-13T14:01:56Z</time>
		</trkpt>
		<trkpt lat="53.8494186401367" lon="13.6694822311401">
			<ele>49.7000007629395</ele>
			<time>2014-04-13T14:01:57Z</time>
		</trkpt>
		<trkpt lat="53.8494529724121" lon="13.6695508956909">
			<ele>49.7999992370605</ele>
			<time>2014-04-13T14:01:58Z</time>
		</trkpt>
		<trkpt lat="53.8494911193848" lon="13.6696176528931">
			<ele>49.7999992370605</ele>
			<time>2014-04-13T14:01:59Z</time>
		</trkpt>
		<trkpt lat="53.8495216369629" lon="13.6696844100952">
			<ele>49.9000015258789</ele>
			<time>2014-04-13T14:02:00Z</time>
		</trkpt>
		<trkpt lat="53.8495559692383" lon="13.6697540283203">
			<ele>50.0999984741211</ele>
			<time>2014-04-13T14:02:01Z</time>
		</trkpt>
		<trkpt lat="53.8495903015137" lon="13.6698274612427">
			<ele>50.0999984741211</ele>
			<time>2014-04-13T14:02:02Z</time>
		</trkpt>
		<trkpt lat="53.8496284484863" lon="13.6698961257935">
			<ele>50.2000007629395</ele>
			<time>2014-04-13T14:02:03Z</time>
		</trkpt>
		<trkpt lat="53.849666595459" lon="13.6699695587158">
			<ele>50</ele>
			<time>2014-04-13T14:02:04Z</time>
		</trkpt>
		<trkpt lat="53.8496971130371" lon="13.6700382232666">
			<ele>50.2999992370605</ele>
			<time>2014-04-13T14:02:05Z</time>
		</trkpt>
		<trkpt lat="53.8497314453125" lon="13.6701021194458">
			<ele>50.5</ele>
			<time>2014-04-13T14:02:06Z</time>
		</trkpt>
		<trkpt lat="53.8497619628906" lon="13.670166015625">
			<ele>50.7000007629395</ele>
			<time>2014-04-13T14:02:07Z</time>
		</trkpt>
		<trkpt lat="53.8498001098633" lon="13.6702299118042">
			<ele>50.7000007629395</ele>
			<time>2014-04-13T14:02:08Z</time>
		</trkpt>
		<trkpt lat="53.8498268127441" lon="13.6703033447266">
			<ele>50.9000015258789</ele>
			<time>2014-04-13T14:02:09Z</time>
		</trkpt>
		<trkpt lat="53.8498573303223" lon="13.6703729629517">
			<ele>50.7000007629395</ele>
			<time>2014-04-13T14:02:10Z</time>
		</trkpt>
		<trkpt lat="53.8498916625977" lon="13.6704435348511">
			<ele>50.7999992370605</ele>
			<time>2014-04-13T14:02:11Z</time>
		</trkpt>
		<trkpt lat="53.849925994873" lon="13.670506477356">
			<ele>50.7000007629395</ele>
			<time>2014-04-13T14:02:12Z</time>
		</trkpt>
		<trkpt lat="53.8499641418457" lon="13.6705713272095">
			<ele>50.5999984741211</ele>
			<time>2014-04-13T14:02:13Z</time>
		</trkpt>
		<trkpt lat="53.8499946594238" lon="13.6706399917603">
			<ele>50.5</ele>
			<time>2014-04-13T14:02:14Z</time>
		</trkpt>
		<trkpt lat="53.8500328063965" lon="13.6707057952881">
			<ele>49.9000015258789</ele>
			<time>2014-04-13T14:02:15Z</time>
		</trkpt>
		<trkpt lat="53.8500633239746" lon="13.670768737793">
			<ele>49.9000015258789</ele>
			<time>2014-04-13T14:02:16Z</time>
		</trkpt>
		<trkpt lat="53.8500938415527" lon="13.6708240509033">
			<ele>50.0999984741211</ele>
			<time>2014-04-13T14:02:17Z</time>
		</trkpt>
		<trkpt lat="53.8501281738281" lon="13.6708831787109">
			<ele>50</ele>
			<time>2014-04-13T14:02:18Z</time>
		</trkpt>
		<trkpt lat="53.8501586914063" lon="13.6709508895874">
			<ele>50.0999984741211</ele>
			<time>2014-04-13T14:02:19Z</time>
		</trkpt>
		<trkpt lat="53.8501930236816" lon="13.6710205078125">
			<ele>49.7999992370605</ele>
			<time>2014-04-13T14:02:20Z</time>
		</trkpt>
		<trkpt lat="53.8502235412598" lon="13.671085357666">
			<ele>49.7000007629395</ele>
			<time>2014-04-13T14:02:21Z</time>
		</trkpt>
		<trkpt lat="53.8502502441406" lon="13.6711492538452">
			<ele>49.7000007629395</ele>
			<time>2014-04-13T14:02:22Z</time>
		</trkpt>
		<trkpt lat="53.8502731323242" lon="13.671217918396">
			<ele>49.7000007629395</ele>
			<time>2014-04-13T14:02:23Z</time>
		</trkpt>
		<trkpt lat="53.8502998352051" lon="13.6712818145752">
			<ele>48.9000015258789</ele>
			<time>2014-04-13T14:02:24Z</time>
		</trkpt>
		<trkpt lat="53.8503341674805" lon="13.6713438034058">
			<ele>49.5</ele>
			<time>2014-04-13T14:02:25Z</time>
		</trkpt>
		<trkpt lat="53.8503952026367" lon="13.6714544296265">
			<ele>50.2000007629395</ele>
			<time>2014-04-13T14:02:27Z</time>
		</trkpt>
		<trkpt lat="53.8504600524902" lon="13.6715660095215">
			<ele>49.9000015258789</ele>
			<time>2014-04-13T14:02:29Z</time>
		</trkpt>
		<trkpt lat="53.8504905700684" lon="13.6716327667236">
			<ele>50</ele>
			<time>2014-04-13T14:02:30Z</time>
		</trkpt>
		<trkpt lat="53.8505210876465" lon="13.6716957092285">
			<ele>50.0999984741211</ele>
			<time>2014-04-13T14:02:31Z</time>
		</trkpt>
		<trkpt lat="53.8505516052246" lon="13.6717662811279">
			<ele>50.0999984741211</ele>
			<time>2014-04-13T14:02:32Z</time>
		</trkpt>
		<trkpt lat="53.8505821228027" lon="13.6718292236328">
			<ele>50.0999984741211</ele>
			<time>2014-04-13T14:02:33Z</time>
		</trkpt>
		<trkpt lat="53.8506126403809" lon="13.6718950271606">
			<ele>50.0999984741211</ele>
			<time>2014-04-13T14:02:34Z</time>
		</trkpt>
		<trkpt lat="53.850643157959" lon="13.6719570159912">
			<ele>50.2999992370605</ele>
			<time>2014-04-13T14:02:35Z</time>
		</trkpt>
		<trkpt lat="53.8506736755371" lon="13.6720285415649">
			<ele>50.2999992370605</ele>
			<time>2014-04-13T14:02:36Z</time>
		</trkpt>
		<trkpt lat="53.8507041931152" lon="13.6721048355103">
			<ele>50.2000007629395</ele>
			<time>2014-04-13T14:02:37Z</time>
		</trkpt>
		<trkpt lat="53.8507347106934" lon="13.6721706390381">
			<ele>50.2000007629395</ele>
			<time>2014-04-13T14:02:38Z</time>
		</trkpt>
		<trkpt lat="53.8507690429688" lon="13.6722412109375">
			<ele>50</ele>
			<time>2014-04-13T14:02:39Z</time>
		</trkpt>
		<trkpt lat="53.8507995605469" lon="13.6723117828369">
			<ele>49.9000015258789</ele>
			<time>2014-04-13T14:02:40Z</time>
		</trkpt>
		<trkpt lat="53.8508262634277" lon="13.6723775863647">
			<ele>49.9000015258789</ele>
			<time>2014-04-13T14:02:41Z</time>
		</trkpt>
		<trkpt lat="53.8508567810059" lon="13.6724433898926">
			<ele>49.9000015258789</ele>
			<time>2014-04-13T14:02:42Z</time>
		</trkpt>
		<trkpt lat="53.8508834838867" lon="13.6725196838379">
			<ele>49.5</ele>
			<time>2014-04-13T14:02:43Z</time>
		</trkpt>
		<trkpt lat="53.8509101867676" lon="13.6725978851318">
			<ele>49.2000007629395</ele>
			<time>2014-04-13T14:02:44Z</time>
		</trkpt>
		<trkpt lat="53.8509368896484" lon="13.672664642334">
			<ele>49.2999992370605</ele>
			<time>2014-04-13T14:02:45Z</time>
		</trkpt>
		<trkpt lat="53.8509635925293" lon="13.6727333068848">
			<ele>49.5</ele>
			<time>2014-04-13T14:02:46Z</time>
		</trkpt>
		<trkpt lat="53.8509864807129" lon="13.6728029251099">
			<ele>49.5</ele>
			<time>2014-04-13T14:02:47Z</time>
		</trkpt>
		<trkpt lat="53.851016998291" lon="13.6728811264038">
			<ele>49.2999992370605</ele>
			<time>2014-04-13T14:02:48Z</time>
		</trkpt>
		<trkpt lat="53.8510437011719" lon="13.6729669570923">
			<ele>49.7999992370605</ele>
			<time>2014-04-13T14:02:49Z</time>
		</trkpt>
		<trkpt lat="53.8510704040527" lon="13.6730451583862">
			<ele>49.9000015258789</ele>
			<time>2014-04-13T14:02:50Z</time>
		</trkpt>
		<trkpt lat="53.8511047363281" lon="13.6731300354004">
			<ele>49.7000007629395</ele>
			<time>2014-04-13T14:02:51Z</time>
		</trkpt>
		<trkpt lat="53.851131439209" lon="13.6732120513916">
			<ele>49.5</ele>
			<time>2014-04-13T14:02:52Z</time>
		</trkpt>
		<trkpt lat="53.8511619567871" lon="13.6732978820801">
			<ele>50</ele>
			<time>2014-04-13T14:02:53Z</time>
		</trkpt>
		<trkpt lat="53.851188659668" lon="13.6733808517456">
			<ele>50.2000007629395</ele>
			<time>2014-04-13T14:02:54Z</time>
		</trkpt>
		<trkpt lat="53.8512191772461" lon="13.6734628677368">
			<ele>50.2999992370605</ele>
			<time>2014-04-13T14:02:55Z</time>
		</trkpt>
		<trkpt lat="53.8512496948242" lon="13.6735563278198">
			<ele>50.0999984741211</ele>
			<time>2014-04-13T14:02:56Z</time>
		</trkpt>
		<trkpt lat="53.8512840270996" lon="13.6736392974854">
			<ele>50.4000015258789</ele>
			<time>2014-04-13T14:02:57Z</time>
		</trkpt>
		<trkpt lat="53.851318359375" lon="13.6737365722656">
			<ele>50.7000007629395</ele>
			<time>2014-04-13T14:02:58Z</time>
		</trkpt>
		<trkpt lat="53.8513488769531" lon="13.6738290786743">
			<ele>50.5</ele>
			<time>2014-04-13T14:02:59Z</time>
		</trkpt>
		<trkpt lat="53.8513793945313" lon="13.6739292144775">
			<ele>50.4000015258789</ele>
			<time>2014-04-13T14:03:00Z</time>
		</trkpt>
		<trkpt lat="53.8514137268066" lon="13.6740312576294">
			<ele>50.2999992370605</ele>
			<time>2014-04-13T14:03:01Z</time>
		</trkpt>
		<trkpt lat="53.851448059082" lon="13.6741323471069">
			<ele>50.2999992370605</ele>
			<time>2014-04-13T14:03:02Z</time>
		</trkpt>
		<trkpt lat="53.851490020752" lon="13.6742362976074">
			<ele>50.0999984741211</ele>
			<time>2014-04-13T14:03:03Z</time>
		</trkpt>
		<trkpt lat="53.8515243530273" lon="13.6743431091309">
			<ele>50</ele>
			<time>2014-04-13T14:03:04Z</time>
		</trkpt>
		<trkpt lat="53.8515625" lon="13.6744470596313">
			<ele>50.0999984741211</ele>
			<time>2014-04-13T14:03:05Z</time>
		</trkpt>
		<trkpt lat="53.8516044616699" lon="13.6745567321777">
			<ele>50.2000007629395</ele>
			<time>2014-04-13T14:03:06Z</time>
		</trkpt>
		<trkpt lat="53.8516426086426" lon="13.6746692657471">
			<ele>50.0999984741211</ele>
			<time>2014-04-13T14:03:07Z</time>
		</trkpt>
		<trkpt lat="53.8516807556152" lon="13.6747817993164">
			<ele>50</ele>
			<time>2014-04-13T14:03:08Z</time>
		</trkpt>
		<trkpt lat="53.8517227172852" lon="13.6748819351196">
			<ele>50.4000015258789</ele>
			<time>2014-04-13T14:03:09Z</time>
		</trkpt>
		<trkpt lat="53.8517646789551" lon="13.6749935150146">
			<ele>50.4000015258789</ele>
			<time>2014-04-13T14:03:10Z</time>
		</trkpt>
		<trkpt lat="53.8517990112305" lon="13.6751070022583">
			<ele>50.5</ele>
			<time>2014-04-13T14:03:11Z</time>
		</trkpt>
		<trkpt lat="53.8518409729004" lon="13.6752223968506">
			<ele>50.4000015258789</ele>
			<time>2014-04-13T14:03:12Z</time>
		</trkpt>
		<trkpt lat="53.851879119873" lon="13.6753492355347">
			<ele>50</ele>
			<time>2014-04-13T14:03:13Z</time>
		</trkpt>
		<trkpt lat="53.851921081543" lon="13.6754627227783">
			<ele>50</ele>
			<time>2014-04-13T14:03:14Z</time>
		</trkpt>
		<trkpt lat="53.8519554138184" lon="13.6755657196045">
			<ele>49.2999992370605</ele>
			<time>2014-04-13T14:03:15Z</time>
		</trkpt>
		<trkpt lat="53.851993560791" lon="13.6756744384766">
			<ele>48.5999984741211</ele>
			<time>2014-04-13T14:03:16Z</time>
		</trkpt>
		<trkpt lat="53.8520355224609" lon="13.6757783889771">
			<ele>48.2000007629395</ele>
			<time>2014-04-13T14:03:17Z</time>
		</trkpt>
		<trkpt lat="53.8520736694336" lon="13.6758871078491">
			<ele>47.9000015258789</ele>
			<time>2014-04-13T14:03:18Z</time>
		</trkpt>
		<trkpt lat="53.8521156311035" lon="13.6759996414185">
			<ele>47.7999992370605</ele>
			<time>2014-04-13T14:03:19Z</time>
		</trkpt>
		<trkpt lat="53.8521537780762" lon="13.6761112213135">
			<ele>47.7999992370605</ele>
			<time>2014-04-13T14:03:20Z</time>
		</trkpt>
		<trkpt lat="53.8521919250488" lon="13.6762342453003">
			<ele>47.2000007629395</ele>
			<time>2014-04-13T14:03:21Z</time>
		</trkpt>
		<trkpt lat="53.8522300720215" lon="13.676344871521">
			<ele>46.7000007629395</ele>
			<time>2014-04-13T14:03:22Z</time>
		</trkpt>
		<trkpt lat="53.8522720336914" lon="13.6764688491821">
			<ele>46.2999992370605</ele>
			<time>2014-04-13T14:03:23Z</time>
		</trkpt>
		<trkpt lat="53.8523101806641" lon="13.676586151123">
			<ele>45.9000015258789</ele>
			<time>2014-04-13T14:03:26Z</time>
		</trkpt>
		<trkpt lat="53.8524208068848" lon="13.6769495010376">
			<ele>46.2999992370605</ele>
			<time>2014-04-13T14:03:28Z</time>
		</trkpt>
		<trkpt lat="53.8524284362793" lon="13.6770658493042">
			<ele>45.2999992370605</ele>
			<time>2014-04-13T14:03:28Z</time>
		</trkpt>
		<trkpt lat="53.8524475097656" lon="13.6771831512451">
			<ele>45</ele>
			<time>2014-04-13T14:03:30Z</time>
		</trkpt>
		<trkpt lat="53.8524322509766" lon="13.6772871017456">
			<ele>45.2999992370605</ele>
			<time>2014-04-13T14:03:32Z</time>
		</trkpt>
		<trkpt lat="53.852424621582" lon="13.6773777008057">
			<ele>45</ele>
			<time>2014-04-13T14:03:35Z</time>
		</trkpt>
		<trkpt lat="53.8524322509766" lon="13.6774682998657">
			<ele>42.0999984741211</ele>
			<time>2014-04-13T14:03:47Z</time>
		</trkpt>
		<trkpt lat="53.8524932861328" lon="13.6775684356689">
			<ele>42.2000007629395</ele>
			<time>2014-04-13T14:03:50Z</time>
		</trkpt>
		<trkpt lat="53.8525733947754" lon="13.677604675293">
			<ele>42.5999984741211</ele>
			<time>2014-04-13T14:03:52Z</time>
		</trkpt>
		<trkpt lat="53.8526153564453" lon="13.6776218414307">
			<ele>42.7000007629395</ele>
			<time>2014-04-13T14:03:53Z</time>
		</trkpt>
		<trkpt lat="53.8527030944824" lon="13.677698135376">
			<ele>42.2000007629395</ele>
			<time>2014-04-13T14:03:55Z</time>
		</trkpt>
		<trkpt lat="53.8527450561523" lon="13.6777439117432">
			<ele>42</ele>
			<time>2014-04-13T14:03:56Z</time>
		</trkpt>
		<trkpt lat="53.852783203125" lon="13.677806854248">
			<ele>41.7999992370605</ele>
			<time>2014-04-13T14:03:56Z</time>
		</trkpt>
		<trkpt lat="53.8528137207031" lon="13.6778831481934">
			<ele>41.9000015258789</ele>
			<time>2014-04-13T14:03:57Z</time>
		</trkpt>
		<trkpt lat="53.852855682373" lon="13.6779584884644">
			<ele>41.5999984741211</ele>
			<time>2014-04-13T14:03:58Z</time>
		</trkpt>
		<trkpt lat="53.8529090881348" lon="13.6780166625977">
			<ele>42</ele>
			<time>2014-04-13T14:03:59Z</time>
		</trkpt>
		<trkpt lat="53.8529586791992" lon="13.6780729293823">
			<ele>41.7999992370605</ele>
			<time>2014-04-13T14:04:00Z</time>
		</trkpt>
		<trkpt lat="53.8530120849609" lon="13.678129196167">
			<ele>41.9000015258789</ele>
			<time>2014-04-13T14:04:01Z</time>
		</trkpt>
		<trkpt lat="53.8530578613281" lon="13.6782112121582">
			<ele>41.9000015258789</ele>
			<time>2014-04-13T14:04:02Z</time>
		</trkpt>
		<trkpt lat="53.8531074523926" lon="13.678295135498">
			<ele>41.7999992370605</ele>
			<time>2014-04-13T14:04:03Z</time>
		</trkpt>
		<trkpt lat="53.853141784668" lon="13.6783857345581">
			<ele>42</ele>
			<time>2014-04-13T14:04:04Z</time>
		</trkpt>
		<trkpt lat="53.8531799316406" lon="13.6784725189209">
			<ele>41.5999984741211</ele>
			<time>2014-04-13T14:04:05Z</time>
		</trkpt>
		<trkpt lat="53.8532180786133" lon="13.6785554885864">
			<ele>41.5</ele>
			<time>2014-04-13T14:04:06Z</time>
		</trkpt>
		<trkpt lat="53.8532562255859" lon="13.6786413192749">
			<ele>41.7000007629395</ele>
			<time>2014-04-13T14:04:07Z</time>
		</trkpt>
		<trkpt lat="53.8533058166504" lon="13.6787147521973">
			<ele>42.2000007629395</ele>
			<time>2014-04-13T14:04:08Z</time>
		</trkpt>
		<trkpt lat="53.8533515930176" lon="13.6787996292114">
			<ele>42.2000007629395</ele>
			<time>2014-04-13T14:04:09Z</time>
		</trkpt>
		<trkpt lat="53.8533973693848" lon="13.6788711547852">
			<ele>42.4000015258789</ele>
			<time>2014-04-13T14:04:10Z</time>
		</trkpt>
		<trkpt lat="53.8534507751465" lon="13.678955078125">
			<ele>42.4000015258789</ele>
			<time>2014-04-13T14:04:11Z</time>
		</trkpt>
		<trkpt lat="53.8534927368164" lon="13.679027557373">
			<ele>42.4000015258789</ele>
			<time>2014-04-13T14:04:12Z</time>
		</trkpt>
		<trkpt lat="53.8535385131836" lon="13.6791009902954">
			<ele>42.5</ele>
			<time>2014-04-13T14:04:13Z</time>
		</trkpt>
		<trkpt lat="53.8535766601563" lon="13.679178237915">
			<ele>42.7000007629395</ele>
			<time>2014-04-13T14:04:14Z</time>
		</trkpt>
		<trkpt lat="53.8536224365234" lon="13.6792583465576">
			<ele>42.9000015258789</ele>
			<time>2014-04-13T14:04:15Z</time>
		</trkpt>
		<trkpt lat="53.8536682128906" lon="13.67933177948">
			<ele>43.0999984741211</ele>
			<time>2014-04-13T14:04:16Z</time>
		</trkpt>
		<trkpt lat="53.8537139892578" lon="13.6794090270996">
			<ele>43</ele>
			<time>2014-04-13T14:04:17Z</time>
		</trkpt>
		<trkpt lat="53.8537483215332" lon="13.6794948577881">
			<ele>43.7000007629395</ele>
			<time>2014-04-13T14:04:18Z</time>
		</trkpt>
		<trkpt lat="53.8537788391113" lon="13.6795673370361">
			<ele>43.2999992370605</ele>
			<time>2014-04-13T14:04:19Z</time>
		</trkpt>
		<trkpt lat="53.8538246154785" lon="13.6796436309814">
			<ele>43.7999992370605</ele>
			<time>2014-04-13T14:04:20Z</time>
		</trkpt>
		<trkpt lat="53.8538780212402" lon="13.6797037124634">
			<ele>43.5</ele>
			<time>2014-04-13T14:04:21Z</time>
		</trkpt>
		<trkpt lat="53.8539276123047" lon="13.6797714233398">
			<ele>43.5999984741211</ele>
			<time>2014-04-13T14:04:22Z</time>
		</trkpt>
		<trkpt lat="53.8539733886719" lon="13.6798439025879">
			<ele>43.7000007629395</ele>
			<time>2014-04-13T14:04:24Z</time>
		</trkpt>
		<trkpt lat="53.8540153503418" lon="13.6799154281616">
			<ele>43.9000015258789</ele>
			<time>2014-04-13T14:04:24Z</time>
		</trkpt>
		<trkpt lat="53.8540573120117" lon="13.6799793243408">
			<ele>44.2000007629395</ele>
			<time>2014-04-13T14:04:25Z</time>
		</trkpt>
		<trkpt lat="53.8540954589844" lon="13.6800508499146">
			<ele>44.5</ele>
			<time>2014-04-13T14:04:26Z</time>
		</trkpt>
		<trkpt lat="53.8541374206543" lon="13.680121421814">
			<ele>44.5</ele>
			<time>2014-04-13T14:04:27Z</time>
		</trkpt>
		<trkpt lat="53.8541793823242" lon="13.6801910400391">
			<ele>44.5</ele>
			<time>2014-04-13T14:04:28Z</time>
		</trkpt>
		<trkpt lat="53.8542213439941" lon="13.6802577972412">
			<ele>44.0999984741211</ele>
			<time>2014-04-13T14:04:29Z</time>
		</trkpt>
		<trkpt lat="53.8542556762695" lon="13.6803274154663">
			<ele>43.0999984741211</ele>
			<time>2014-04-13T14:04:30Z</time>
		</trkpt>
		<trkpt lat="53.8543014526367" lon="13.6803855895996">
			<ele>42.4000015258789</ele>
			<time>2014-04-13T14:04:31Z</time>
		</trkpt>
		<trkpt lat="53.8543395996094" lon="13.6804389953613">
			<ele>42.4000015258789</ele>
			<time>2014-04-13T14:04:32Z</time>
		</trkpt>
		<trkpt lat="53.8543853759766" lon="13.6804990768433">
			<ele>41.9000015258789</ele>
			<time>2014-04-13T14:04:33Z</time>
		</trkpt>
		<trkpt lat="53.8544082641602" lon="13.6805782318115">
			<ele>42.5</ele>
			<time>2014-04-13T14:04:34Z</time>
		</trkpt>
		<trkpt lat="53.8544425964355" lon="13.6806392669678">
			<ele>41.7999992370605</ele>
			<time>2014-04-13T14:04:35Z</time>
		</trkpt>
		<trkpt lat="53.8544692993164" lon="13.6807136535645">
			<ele>41.2999992370605</ele>
			<time>2014-04-13T14:04:36Z</time>
		</trkpt>
		<trkpt lat="53.8545036315918" lon="13.6807765960693">
			<ele>41</ele>
			<time>2014-04-13T14:04:37Z</time>
		</trkpt>
		<trkpt lat="53.8545265197754" lon="13.6808624267578">
			<ele>41.7999992370605</ele>
			<time>2014-04-13T14:04:38Z</time>
		</trkpt>
		<trkpt lat="53.8545722961426" lon="13.6809349060059">
			<ele>41.4000015258789</ele>
			<time>2014-04-13T14:04:39Z</time>
		</trkpt>
		<trkpt lat="53.8546104431152" lon="13.6810150146484">
			<ele>42</ele>
			<time>2014-04-13T14:04:40Z</time>
		</trkpt>
		<trkpt lat="53.8546524047852" lon="13.6810903549194">
			<ele>42.7000007629395</ele>
			<time>2014-04-13T14:04:41Z</time>
		</trkpt>
		<trkpt lat="53.8547325134277" lon="13.6811494827271">
			<ele>43.0999984741211</ele>
			<time>2014-04-13T14:04:42Z</time>
		</trkpt>
		<trkpt lat="53.8547744750977" lon="13.6811962127686">
			<ele>43.0999984741211</ele>
			<time>2014-04-13T14:04:43Z</time>
		</trkpt>
		<trkpt lat="53.854808807373" lon="13.6812496185303">
			<ele>43.9000015258789</ele>
			<time>2014-04-13T14:04:44Z</time>
		</trkpt>
		<trkpt lat="53.8548774719238" lon="13.6813507080078">
			<ele>44.5</ele>
			<time>2014-04-13T14:04:46Z</time>
		</trkpt>
		<trkpt lat="53.8549156188965" lon="13.6814012527466">
			<ele>44.5</ele>
			<time>2014-04-13T14:04:47Z</time>
		</trkpt>
		<trkpt lat="53.8549461364746" lon="13.6814603805542">
			<ele>45.5</ele>
			<time>2014-04-13T14:04:48Z</time>
		</trkpt>
		<trkpt lat="53.8549995422363" lon="13.68150806427">
			<ele>45.7000007629395</ele>
			<time>2014-04-13T14:04:49Z</time>
		</trkpt>
		<trkpt lat="53.8550300598145" lon="13.6815700531006">
			<ele>45.7000007629395</ele>
			<time>2014-04-13T14:04:50Z</time>
		</trkpt>
		<trkpt lat="53.8550643920898" lon="13.6816492080688">
			<ele>45.2999992370605</ele>
			<time>2014-04-13T14:04:51Z</time>
		</trkpt>
		<trkpt lat="53.8551025390625" lon="13.6817169189453">
			<ele>45.0999984741211</ele>
			<time>2014-04-13T14:04:52Z</time>
		</trkpt>
		<trkpt lat="53.8551368713379" lon="13.6817789077759">
			<ele>46</ele>
			<time>2014-04-13T14:04:53Z</time>
		</trkpt>
		<trkpt lat="53.8552093505859" lon="13.6818809509277">
			<ele>45.9000015258789</ele>
			<time>2014-04-13T14:04:55Z</time>
		</trkpt>
		<trkpt lat="53.8552780151367" lon="13.681981086731">
			<ele>44.5</ele>
			<time>2014-04-13T14:04:57Z</time>
		</trkpt>
		<trkpt lat="53.8553123474121" lon="13.6820478439331">
			<ele>43.9000015258789</ele>
			<time>2014-04-13T14:04:58Z</time>
		</trkpt>
		<trkpt lat="53.855354309082" lon="13.6821069717407">
			<ele>43.7000007629395</ele>
			<time>2014-04-13T14:04:59Z</time>
		</trkpt>
		<trkpt lat="53.8553848266602" lon="13.6821689605713">
			<ele>43.7999992370605</ele>
			<time>2014-04-13T14:05:00Z</time>
		</trkpt>
		<trkpt lat="53.855411529541" lon="13.6822395324707">
			<ele>44.0999984741211</ele>
			<time>2014-04-13T14:05:01Z</time>
		</trkpt>
		<trkpt lat="53.8554458618164" lon="13.6823167800903">
			<ele>45</ele>
			<time>2014-04-13T14:05:02Z</time>
		</trkpt>
		<trkpt lat="53.8554611206055" lon="13.6823997497559">
			<ele>45</ele>
			<time>2014-04-13T14:05:03Z</time>
		</trkpt>
		<trkpt lat="53.8554840087891" lon="13.6824645996094">
			<ele>44.2999992370605</ele>
			<time>2014-04-13T14:05:04Z</time>
		</trkpt>
		<trkpt lat="53.8555145263672" lon="13.6825437545776">
			<ele>44.5</ele>
			<time>2014-04-13T14:05:05Z</time>
		</trkpt>
		<trkpt lat="53.855541229248" lon="13.6826133728027">
			<ele>44.4000015258789</ele>
			<time>2014-04-13T14:05:06Z</time>
		</trkpt>
		<trkpt lat="53.8555755615234" lon="13.6827583312988">
			<ele>45.5</ele>
			<time>2014-04-13T14:05:08Z</time>
		</trkpt>
		<trkpt lat="53.8556022644043" lon="13.6828260421753">
			<ele>45.0999984741211</ele>
			<time>2014-04-13T14:05:09Z</time>
		</trkpt>
		<trkpt lat="53.855655670166" lon="13.6829490661621">
			<ele>45.4000015258789</ele>
			<time>2014-04-13T14:05:11Z</time>
		</trkpt>
		<trkpt lat="53.8556900024414" lon="13.6830024719238">
			<ele>44.2999992370605</ele>
			<time>2014-04-13T14:05:12Z</time>
		</trkpt>
		<trkpt lat="53.8557243347168" lon="13.6831245422363">
			<ele>44.5999984741211</ele>
			<time>2014-04-13T14:05:14Z</time>
		</trkpt>
		<trkpt lat="53.8557319641113" lon="13.6832542419434">
			<ele>45.0999984741211</ele>
			<time>2014-04-13T14:05:16Z</time>
		</trkpt>
		<trkpt lat="53.8557434082031" lon="13.6833801269531">
			<ele>44.7000007629395</ele>
			<time>2014-04-13T14:05:18Z</time>
		</trkpt>
		<trkpt lat="53.8557281494141" lon="13.6835145950317">
			<ele>44.5999984741211</ele>
			<time>2014-04-13T14:05:20Z</time>
		</trkpt>
		<trkpt lat="53.855712890625" lon="13.6836442947388">
			<ele>44.5</ele>
			<time>2014-04-13T14:05:22Z</time>
		</trkpt>
		<trkpt lat="53.8556938171387" lon="13.6837882995605">
			<ele>44.4000015258789</ele>
			<time>2014-04-13T14:05:24Z</time>
		</trkpt>
		<trkpt lat="53.8556938171387" lon="13.6839141845703">
			<ele>45.2999992370605</ele>
			<time>2014-04-13T14:05:26Z</time>
		</trkpt>
		<trkpt lat="53.8557090759277" lon="13.6840209960938">
			<ele>45.2000007629395</ele>
			<time>2014-04-13T14:05:28Z</time>
		</trkpt>
		<trkpt lat="53.8557167053223" lon="13.6841449737549">
			<ele>45.5</ele>
			<time>2014-04-13T14:05:30Z</time>
		</trkpt>
		<trkpt lat="53.8557205200195" lon="13.684253692627">
			<ele>45.4000015258789</ele>
			<time>2014-04-13T14:05:32Z</time>
		</trkpt>
		<trkpt lat="53.8557281494141" lon="13.6843767166138">
			<ele>45.9000015258789</ele>
			<time>2014-04-13T14:05:34Z</time>
		</trkpt>
		<trkpt lat="53.8557090759277" lon="13.6844892501831">
			<ele>45.4000015258789</ele>
			<time>2014-04-13T14:05:36Z</time>
		</trkpt>
		<trkpt lat="53.8556938171387" lon="13.6845865249634">
			<ele>45</ele>
			<time>2014-04-13T14:05:38Z</time>
		</trkpt>
		<trkpt lat="53.8556709289551" lon="13.6847019195557">
			<ele>45.0999984741211</ele>
			<time>2014-04-13T14:05:40Z</time>
		</trkpt>
		<trkpt lat="53.8556518554688" lon="13.6848287582397">
			<ele>45.0999984741211</ele>
			<time>2014-04-13T14:05:42Z</time>
		</trkpt>
		<trkpt lat="53.8556442260742" lon="13.6849336624146">
			<ele>47</ele>
			<time>2014-04-13T14:05:43Z</time>
		</trkpt>
		<trkpt lat="53.8556251525879" lon="13.685019493103">
			<ele>47.7000007629395</ele>
			<time>2014-04-13T14:05:44Z</time>
		</trkpt>
		<trkpt lat="53.8555946350098" lon="13.6851530075073">
			<ele>47.7000007629395</ele>
			<time>2014-04-13T14:05:46Z</time>
		</trkpt>
		<trkpt lat="53.855598449707" lon="13.6852293014526">
			<ele>49</ele>
			<time>2014-04-13T14:05:47Z</time>
		</trkpt>
		<trkpt lat="53.8555908203125" lon="13.6853761672974">
			<ele>51.9000015258789</ele>
			<time>2014-04-13T14:05:49Z</time>
		</trkpt>
		<trkpt lat="53.8555946350098" lon="13.6855125427246">
			<ele>52.4000015258789</ele>
			<time>2014-04-13T14:05:51Z</time>
		</trkpt>
		<trkpt lat="53.8556022644043" lon="13.6855983734131">
			<ele>53</ele>
			<time>2014-04-13T14:05:53Z</time>
		</trkpt>
		<trkpt lat="53.8556060791016" lon="13.6857099533081">
			<ele>52.5</ele>
			<time>2014-04-13T14:05:55Z</time>
		</trkpt>
		<trkpt lat="53.8556098937988" lon="13.6857995986938">
			<ele>52.2999992370605</ele>
			<time>2014-04-13T14:05:57Z</time>
		</trkpt>
		<trkpt lat="53.8556175231934" lon="13.6859149932861">
			<ele>51.7000007629395</ele>
			<time>2014-04-13T14:05:59Z</time>
		</trkpt>
		<trkpt lat="53.8556175231934" lon="13.6859922409058">
			<ele>50.9000015258789</ele>
			<time>2014-04-13T14:06:01Z</time>
		</trkpt>
		<trkpt lat="53.8556213378906" lon="13.6860885620117">
			<ele>50.7000007629395</ele>
			<time>2014-04-13T14:06:03Z</time>
		</trkpt>
		<trkpt lat="53.8556251525879" lon="13.6862077713013">
			<ele>50.7000007629395</ele>
			<time>2014-04-13T14:06:05Z</time>
		</trkpt>
		<trkpt lat="53.8556137084961" lon="13.6863269805908">
			<ele>50.5999984741211</ele>
			<time>2014-04-13T14:06:07Z</time>
		</trkpt>
		<trkpt lat="53.8556022644043" lon="13.6864356994629">
			<ele>51.0999984741211</ele>
			<time>2014-04-13T14:06:09Z</time>
		</trkpt>
		<trkpt lat="53.8555946350098" lon="13.6865758895874">
			<ele>49.5</ele>
			<time>2014-04-13T14:06:11Z</time>
		</trkpt>
		<trkpt lat="53.8555946350098" lon="13.6867027282715">
			<ele>49.7000007629395</ele>
			<time>2014-04-13T14:06:13Z</time>
		</trkpt>
		<trkpt lat="53.8555908203125" lon="13.6868352890015">
			<ele>46.5999984741211</ele>
			<time>2014-04-13T14:06:15Z</time>
		</trkpt>
		<trkpt lat="53.8555908203125" lon="13.6869707107544">
			<ele>46</ele>
			<time>2014-04-13T14:06:17Z</time>
		</trkpt>
		<trkpt lat="53.8555908203125" lon="13.6870470046997">
			<ele>45.7000007629395</ele>
			<time>2014-04-13T14:06:19Z</time>
		</trkpt>
		<trkpt lat="53.8555946350098" lon="13.6871242523193">
			<ele>46.2999992370605</ele>
			<time>2014-04-13T14:06:19Z</time>
		</trkpt>
		<trkpt lat="53.8556022644043" lon="13.6872749328613">
			<ele>46.9000015258789</ele>
			<time>2014-04-13T14:06:21Z</time>
		</trkpt>
		<trkpt lat="53.8556060791016" lon="13.6873531341553">
			<ele>47.4000015258789</ele>
			<time>2014-04-13T14:06:22Z</time>
		</trkpt>
		<trkpt lat="53.8555870056152" lon="13.6874895095825">
			<ele>46.5999984741211</ele>
			<time>2014-04-13T14:06:24Z</time>
		</trkpt>
		<trkpt lat="53.8555641174316" lon="13.6875715255737">
			<ele>45.5999984741211</ele>
			<time>2014-04-13T14:06:25Z</time>
		</trkpt>
		<trkpt lat="53.855525970459" lon="13.687686920166">
			<ele>45.5</ele>
			<time>2014-04-13T14:06:27Z</time>
		</trkpt>
		<trkpt lat="53.8554801940918" lon="13.6878204345703">
			<ele>45.5999984741211</ele>
			<time>2014-04-13T14:06:29Z</time>
		</trkpt>
		<trkpt lat="53.8554496765137" lon="13.6879739761353">
			<ele>46.5999984741211</ele>
			<time>2014-04-13T14:06:31Z</time>
		</trkpt>
		<trkpt lat="53.8554382324219" lon="13.688099861145">
			<ele>47.2999992370605</ele>
			<time>2014-04-13T14:06:33Z</time>
		</trkpt>
		<trkpt lat="53.8554229736328" lon="13.6882057189941">
			<ele>46.7999992370605</ele>
			<time>2014-04-13T14:06:35Z</time>
		</trkpt>
		<trkpt lat="53.8554267883301" lon="13.6882848739624">
			<ele>46.5999984741211</ele>
			<time>2014-04-13T14:06:37Z</time>
		</trkpt>
		<trkpt lat="53.8554267883301" lon="13.6883935928345">
			<ele>45.2999992370605</ele>
			<time>2014-04-13T14:06:40Z</time>
		</trkpt>
		<trkpt lat="53.8554229736328" lon="13.6884822845459">
			<ele>44.0999984741211</ele>
			<time>2014-04-13T14:06:43Z</time>
		</trkpt>
		<trkpt lat="53.8554344177246" lon="13.688570022583">
			<ele>44.7999992370605</ele>
			<time>2014-04-13T14:06:45Z</time>
		</trkpt>
		<trkpt lat="53.8554420471191" lon="13.688645362854">
			<ele>44.7000007629395</ele>
			<time>2014-04-13T14:06:46Z</time>
		</trkpt>
		<trkpt lat="53.8554420471191" lon="13.6887674331665">
			<ele>45.2999992370605</ele>
			<time>2014-04-13T14:06:48Z</time>
		</trkpt>
		<trkpt lat="53.8554382324219" lon="13.6888904571533">
			<ele>45.5999984741211</ele>
			<time>2014-04-13T14:06:50Z</time>
		</trkpt>
		<trkpt lat="53.8554344177246" lon="13.6890296936035">
			<ele>47.7999992370605</ele>
			<time>2014-04-13T14:06:52Z</time>
		</trkpt>
		<trkpt lat="53.8554344177246" lon="13.6891832351685">
			<ele>47.9000015258789</ele>
			<time>2014-04-13T14:06:54Z</time>
		</trkpt>
		<trkpt lat="53.8554306030273" lon="13.6892642974854">
			<ele>48</ele>
			<time>2014-04-13T14:06:55Z</time>
		</trkpt>
		<trkpt lat="53.8554267883301" lon="13.6893453598022">
			<ele>48</ele>
			<time>2014-04-13T14:06:56Z</time>
		</trkpt>
		<trkpt lat="53.8554229736328" lon="13.6894245147705">
			<ele>47.9000015258789</ele>
			<time>2014-04-13T14:06:57Z</time>
		</trkpt>
		<trkpt lat="53.8554229736328" lon="13.689507484436">
			<ele>47.5999984741211</ele>
			<time>2014-04-13T14:06:58Z</time>
		</trkpt>
		<trkpt lat="53.8554229736328" lon="13.6895942687988">
			<ele>47.5999984741211</ele>
			<time>2014-04-13T14:06:59Z</time>
		</trkpt>
		<trkpt lat="53.8554191589355" lon="13.6896772384644">
			<ele>47.5</ele>
			<time>2014-04-13T14:07:00Z</time>
		</trkpt>
		<trkpt lat="53.8554153442383" lon="13.6897649765015">
			<ele>47.7000007629395</ele>
			<time>2014-04-13T14:07:01Z</time>
		</trkpt>
		<trkpt lat="53.8554077148438" lon="13.6898555755615">
			<ele>47.4000015258789</ele>
			<time>2014-04-13T14:07:02Z</time>
		</trkpt>
		<trkpt lat="53.8554039001465" lon="13.6899480819702">
			<ele>47.4000015258789</ele>
			<time>2014-04-13T14:07:03Z</time>
		</trkpt>
		<trkpt lat="53.8554039001465" lon="13.6900405883789">
			<ele>47.5</ele>
			<time>2014-04-13T14:07:04Z</time>
		</trkpt>
		<trkpt lat="53.8554000854492" lon="13.690131187439">
			<ele>47.2000007629395</ele>
			<time>2014-04-13T14:07:05Z</time>
		</trkpt>
		<trkpt lat="53.855396270752" lon="13.6902189254761">
			<ele>46.7999992370605</ele>
			<time>2014-04-13T14:07:06Z</time>
		</trkpt>
		<trkpt lat="53.8554000854492" lon="13.6903123855591">
			<ele>46.7999992370605</ele>
			<time>2014-04-13T14:07:07Z</time>
		</trkpt>
		<trkpt lat="53.855396270752" lon="13.6904020309448">
			<ele>46.9000015258789</ele>
			<time>2014-04-13T14:07:08Z</time>
		</trkpt>
		<trkpt lat="53.8553848266602" lon="13.6904878616333">
			<ele>47.0999984741211</ele>
			<time>2014-04-13T14:07:10Z</time>
		</trkpt>
		<trkpt lat="53.8553771972656" lon="13.6905755996704">
			<ele>46.9000015258789</ele>
			<time>2014-04-13T14:07:10Z</time>
		</trkpt>
		<trkpt lat="53.8553657531738" lon="13.6906623840332">
			<ele>47.2000007629395</ele>
			<time>2014-04-13T14:07:11Z</time>
		</trkpt>
		<trkpt lat="53.855354309082" lon="13.6907377243042">
			<ele>47.2999992370605</ele>
			<time>2014-04-13T14:07:12Z</time>
		</trkpt>
		<trkpt lat="53.8553466796875" lon="13.6908292770386">
			<ele>47.0999984741211</ele>
			<time>2014-04-13T14:07:13Z</time>
		</trkpt>
		<trkpt lat="53.855339050293" lon="13.6909122467041">
			<ele>47.2999992370605</ele>
			<time>2014-04-13T14:07:14Z</time>
		</trkpt>
		<trkpt lat="53.8553276062012" lon="13.6910047531128">
			<ele>47.0999984741211</ele>
			<time>2014-04-13T14:07:15Z</time>
		</trkpt>
		<trkpt lat="53.8553123474121" lon="13.6910934448242">
			<ele>47.5</ele>
			<time>2014-04-13T14:07:16Z</time>
		</trkpt>
		<trkpt lat="53.8553123474121" lon="13.6911849975586">
			<ele>47.7000007629395</ele>
			<time>2014-04-13T14:07:17Z</time>
		</trkpt>
		<trkpt lat="53.8553047180176" lon="13.6912956237793">
			<ele>47.5</ele>
			<time>2014-04-13T14:07:18Z</time>
		</trkpt>
		<trkpt lat="53.8552894592285" lon="13.6913976669312">
			<ele>47.7000007629395</ele>
			<time>2014-04-13T14:07:19Z</time>
		</trkpt>
		<trkpt lat="53.8552703857422" lon="13.6914873123169">
			<ele>47.5999984741211</ele>
			<time>2014-04-13T14:07:20Z</time>
		</trkpt>
		<trkpt lat="53.8552703857422" lon="13.6915903091431">
			<ele>47.4000015258789</ele>
			<time>2014-04-13T14:07:21Z</time>
		</trkpt>
		<trkpt lat="53.8552665710449" lon="13.6916980743408">
			<ele>47.4000015258789</ele>
			<time>2014-04-13T14:07:22Z</time>
		</trkpt>
		<trkpt lat="53.8552398681641" lon="13.6918029785156">
			<ele>46.7000007629395</ele>
			<time>2014-04-13T14:07:23Z</time>
		</trkpt>
		<trkpt lat="53.8552322387695" lon="13.6919097900391">
			<ele>46.7000007629395</ele>
			<time>2014-04-13T14:07:24Z</time>
		</trkpt>
		<trkpt lat="53.8552284240723" lon="13.6920022964478">
			<ele>47.0999984741211</ele>
			<time>2014-04-13T14:07:25Z</time>
		</trkpt>
		<trkpt lat="53.8552284240723" lon="13.6920900344849">
			<ele>46.5</ele>
			<time>2014-04-13T14:07:27Z</time>
		</trkpt>
		<trkpt lat="53.8552284240723" lon="13.6921834945679">
			<ele>46.5</ele>
			<time>2014-04-13T14:07:27Z</time>
		</trkpt>
		<trkpt lat="53.855224609375" lon="13.6922807693481">
			<ele>46.2000007629395</ele>
			<time>2014-04-13T14:07:28Z</time>
		</trkpt>
		<trkpt lat="53.8552169799805" lon="13.6923780441284">
			<ele>44.5999984741211</ele>
			<time>2014-04-13T14:07:29Z</time>
		</trkpt>
		<trkpt lat="53.8552207946777" lon="13.6924781799316">
			<ele>44.2999992370605</ele>
			<time>2014-04-13T14:07:30Z</time>
		</trkpt>
		<trkpt lat="53.8552169799805" lon="13.6925811767578">
			<ele>44.4000015258789</ele>
			<time>2014-04-13T14:07:31Z</time>
		</trkpt>
		<trkpt lat="53.8552017211914" lon="13.6926822662354">
			<ele>44.2999992370605</ele>
			<time>2014-04-13T14:07:32Z</time>
		</trkpt>
		<trkpt lat="53.8551750183105" lon="13.6927852630615">
			<ele>44.5</ele>
			<time>2014-04-13T14:07:33Z</time>
		</trkpt>
		<trkpt lat="53.8551788330078" lon="13.6928958892822">
			<ele>44.5</ele>
			<time>2014-04-13T14:07:34Z</time>
		</trkpt>
		<trkpt lat="53.8551902770996" lon="13.6929931640625">
			<ele>44</ele>
			<time>2014-04-13T14:07:35Z</time>
		</trkpt>
		<trkpt lat="53.8552360534668" lon="13.6930503845215">
			<ele>45.0999984741211</ele>
			<time>2014-04-13T14:07:36Z</time>
		</trkpt>
		<trkpt lat="53.855297088623" lon="13.6931219100952">
			<ele>45.2000007629395</ele>
			<time>2014-04-13T14:07:37Z</time>
		</trkpt>
		<trkpt lat="53.855339050293" lon="13.6932125091553">
			<ele>45.0999984741211</ele>
			<time>2014-04-13T14:07:38Z</time>
		</trkpt>
		<trkpt lat="53.8553771972656" lon="13.6933135986328">
			<ele>45.0999984741211</ele>
			<time>2014-04-13T14:07:39Z</time>
		</trkpt>
		<trkpt lat="53.8554153442383" lon="13.6934118270874">
			<ele>45.0999984741211</ele>
			<time>2014-04-13T14:07:40Z</time>
		</trkpt>
		<trkpt lat="53.8554496765137" lon="13.6935024261475">
			<ele>44.9000015258789</ele>
			<time>2014-04-13T14:07:41Z</time>
		</trkpt>
		<trkpt lat="53.8554840087891" lon="13.6936025619507">
			<ele>44.7999992370605</ele>
			<time>2014-04-13T14:07:42Z</time>
		</trkpt>
		<trkpt lat="53.8555030822754" lon="13.693696975708">
			<ele>45</ele>
			<time>2014-04-13T14:07:43Z</time>
		</trkpt>
		<trkpt lat="53.8555335998535" lon="13.693793296814">
			<ele>44.4000015258789</ele>
			<time>2014-04-13T14:07:45Z</time>
		</trkpt>
		<trkpt lat="53.8555564880371" lon="13.6938962936401">
			<ele>44</ele>
			<time>2014-04-13T14:07:45Z</time>
		</trkpt>
		<trkpt lat="53.8555755615234" lon="13.6940059661865">
			<ele>43.9000015258789</ele>
			<time>2014-04-13T14:07:46Z</time>
		</trkpt>
		<trkpt lat="53.8555946350098" lon="13.6941175460815">
			<ele>43.7000007629395</ele>
			<time>2014-04-13T14:07:47Z</time>
		</trkpt>
		<trkpt lat="53.8556137084961" lon="13.6942253112793">
			<ele>44</ele>
			<time>2014-04-13T14:07:48Z</time>
		</trkpt>
		<trkpt lat="53.8556327819824" lon="13.6943426132202">
			<ele>44.2999992370605</ele>
			<time>2014-04-13T14:07:49Z</time>
		</trkpt>
		<trkpt lat="53.8556594848633" lon="13.6944646835327">
			<ele>44.7000007629395</ele>
			<time>2014-04-13T14:07:50Z</time>
		</trkpt>
		<trkpt lat="53.8556900024414" lon="13.6945676803589">
			<ele>45.0999984741211</ele>
			<time>2014-04-13T14:07:51Z</time>
		</trkpt>
		<trkpt lat="53.8557243347168" lon="13.6946935653687">
			<ele>45.5999984741211</ele>
			<time>2014-04-13T14:07:52Z</time>
		</trkpt>
		<trkpt lat="53.8557319641113" lon="13.6947937011719">
			<ele>46.5999984741211</ele>
			<time>2014-04-13T14:07:53Z</time>
		</trkpt>
		<trkpt lat="53.8557548522949" lon="13.6949005126953">
			<ele>47</ele>
			<time>2014-04-13T14:07:54Z</time>
		</trkpt>
		<trkpt lat="53.855770111084" lon="13.6950082778931">
			<ele>47.2000007629395</ele>
			<time>2014-04-13T14:07:55Z</time>
		</trkpt>
		<trkpt lat="53.8557815551758" lon="13.6951265335083">
			<ele>47.2000007629395</ele>
			<time>2014-04-13T14:07:56Z</time>
		</trkpt>
		<trkpt lat="53.8557968139648" lon="13.6952342987061">
			<ele>47.2999992370605</ele>
			<time>2014-04-13T14:07:57Z</time>
		</trkpt>
		<trkpt lat="53.8558158874512" lon="13.6953468322754">
			<ele>47.4000015258789</ele>
			<time>2014-04-13T14:07:58Z</time>
		</trkpt>
		<trkpt lat="53.8558349609375" lon="13.6954555511475">
			<ele>47.5999984741211</ele>
			<time>2014-04-13T14:07:59Z</time>
		</trkpt>
		<trkpt lat="53.855842590332" lon="13.6955614089966">
			<ele>46.9000015258789</ele>
			<time>2014-04-13T14:08:00Z</time>
		</trkpt>
		<trkpt lat="53.855842590332" lon="13.6956739425659">
			<ele>47.2999992370605</ele>
			<time>2014-04-13T14:08:01Z</time>
		</trkpt>
		<trkpt lat="53.855842590332" lon="13.695782661438">
			<ele>47.2000007629395</ele>
			<time>2014-04-13T14:08:02Z</time>
		</trkpt>
		<trkpt lat="53.855827331543" lon="13.6958904266357">
			<ele>46.7999992370605</ele>
			<time>2014-04-13T14:08:03Z</time>
		</trkpt>
		<trkpt lat="53.8558235168457" lon="13.6960067749023">
			<ele>46.7000007629395</ele>
			<time>2014-04-13T14:08:04Z</time>
		</trkpt>
		<trkpt lat="53.8558044433594" lon="13.6960973739624">
			<ele>46.4000015258789</ele>
			<time>2014-04-13T14:08:05Z</time>
		</trkpt>
		<trkpt lat="53.8557815551758" lon="13.6962041854858">
			<ele>46.2999992370605</ele>
			<time>2014-04-13T14:08:06Z</time>
		</trkpt>
		<trkpt lat="53.8557662963867" lon="13.696307182312">
			<ele>46.5999984741211</ele>
			<time>2014-04-13T14:08:08Z</time>
		</trkpt>
		<trkpt lat="53.8557434082031" lon="13.6964130401611">
			<ele>46.2999992370605</ele>
			<time>2014-04-13T14:08:08Z</time>
		</trkpt>
		<trkpt lat="53.8557205200195" lon="13.6965179443359">
			<ele>46.5</ele>
			<time>2014-04-13T14:08:09Z</time>
		</trkpt>
		<trkpt lat="53.8556976318359" lon="13.6966247558594">
			<ele>46.5</ele>
			<time>2014-04-13T14:08:10Z</time>
		</trkpt>
		<trkpt lat="53.8556785583496" lon="13.6967325210571">
			<ele>46.4000015258789</ele>
			<time>2014-04-13T14:08:11Z</time>
		</trkpt>
		<trkpt lat="53.8556632995605" lon="13.696834564209">
			<ele>46.4000015258789</ele>
			<time>2014-04-13T14:08:12Z</time>
		</trkpt>
		<trkpt lat="53.8556442260742" lon="13.6969394683838">
			<ele>46.4000015258789</ele>
			<time>2014-04-13T14:08:13Z</time>
		</trkpt>
		<trkpt lat="53.855640411377" lon="13.6970567703247">
			<ele>46.5</ele>
			<time>2014-04-13T14:08:14Z</time>
		</trkpt>
		<trkpt lat="53.8556098937988" lon="13.6971597671509">
			<ele>46.5999984741211</ele>
			<time>2014-04-13T14:08:15Z</time>
		</trkpt>
		<trkpt lat="53.8555908203125" lon="13.6972675323486">
			<ele>46.5999984741211</ele>
			<time>2014-04-13T14:08:16Z</time>
		</trkpt>
		<trkpt lat="53.8555717468262" lon="13.697377204895">
			<ele>46.5999984741211</ele>
			<time>2014-04-13T14:08:17Z</time>
		</trkpt>
		<trkpt lat="53.8555603027344" lon="13.6974782943726">
			<ele>46.5</ele>
			<time>2014-04-13T14:08:18Z</time>
		</trkpt>
		<trkpt lat="53.8555564880371" lon="13.6975898742676">
			<ele>46.2000007629395</ele>
			<time>2014-04-13T14:08:19Z</time>
		</trkpt>
		<trkpt lat="53.855541229248" lon="13.6976985931396">
			<ele>46.2000007629395</ele>
			<time>2014-04-13T14:08:20Z</time>
		</trkpt>
		<trkpt lat="53.8555221557617" lon="13.6977987289429">
			<ele>46.2000007629395</ele>
			<time>2014-04-13T14:08:21Z</time>
		</trkpt>
		<trkpt lat="53.8555068969727" lon="13.6979122161865">
			<ele>46.2000007629395</ele>
			<time>2014-04-13T14:08:22Z</time>
		</trkpt>
		<trkpt lat="53.8554878234863" lon="13.6980133056641">
			<ele>45.5</ele>
			<time>2014-04-13T14:08:23Z</time>
		</trkpt>
		<trkpt lat="53.8554458618164" lon="13.6981010437012">
			<ele>44.7000007629395</ele>
			<time>2014-04-13T14:08:24Z</time>
		</trkpt>
		<trkpt lat="53.855411529541" lon="13.6982069015503">
			<ele>45</ele>
			<time>2014-04-13T14:08:25Z</time>
		</trkpt>
		<trkpt lat="53.8553848266602" lon="13.6983051300049">
			<ele>45</ele>
			<time>2014-04-13T14:08:26Z</time>
		</trkpt>
		<trkpt lat="53.8553657531738" lon="13.6984014511108">
			<ele>44.7000007629395</ele>
			<time>2014-04-13T14:08:27Z</time>
		</trkpt>
		<trkpt lat="53.8553581237793" lon="13.6985015869141">
			<ele>44.5999984741211</ele>
			<time>2014-04-13T14:08:28Z</time>
		</trkpt>
		<trkpt lat="53.8553428649902" lon="13.6986246109009">
			<ele>44.4000015258789</ele>
			<time>2014-04-13T14:08:29Z</time>
		</trkpt>
		<trkpt lat="53.8553314208984" lon="13.6987457275391">
			<ele>44.5999984741211</ele>
			<time>2014-04-13T14:08:30Z</time>
		</trkpt>
		<trkpt lat="53.8553123474121" lon="13.6988410949707">
			<ele>44.7000007629395</ele>
			<time>2014-04-13T14:08:31Z</time>
		</trkpt>
		<trkpt lat="53.8552589416504" lon="13.6989526748657">
			<ele>45.5999984741211</ele>
			<time>2014-04-13T14:08:32Z</time>
		</trkpt>
		<trkpt lat="53.8552284240723" lon="13.699028968811">
			<ele>45.5</ele>
			<time>2014-04-13T14:08:33Z</time>
		</trkpt>
		<trkpt lat="53.8551940917969" lon="13.6991100311279">
			<ele>44.9000015258789</ele>
			<time>2014-04-13T14:08:34Z</time>
		</trkpt>
		<trkpt lat="53.8551597595215" lon="13.6992149353027">
			<ele>45.5</ele>
			<time>2014-04-13T14:08:35Z</time>
		</trkpt>
		<trkpt lat="53.8551368713379" lon="13.6993141174316">
			<ele>45.5</ele>
			<time>2014-04-13T14:08:36Z</time>
		</trkpt>
		<trkpt lat="53.855110168457" lon="13.699387550354">
			<ele>46.5999984741211</ele>
			<time>2014-04-13T14:08:37Z</time>
		</trkpt>
		<trkpt lat="53.8550643920898" lon="13.6994905471802">
			<ele>43.7999992370605</ele>
			<time>2014-04-13T14:08:39Z</time>
		</trkpt>
		<trkpt lat="53.855052947998" lon="13.6995687484741">
			<ele>43.2000007629395</ele>
			<time>2014-04-13T14:08:40Z</time>
		</trkpt>
		<trkpt lat="53.8550338745117" lon="13.699670791626">
			<ele>43.0999984741211</ele>
			<time>2014-04-13T14:08:41Z</time>
		</trkpt>
		<trkpt lat="53.8550033569336" lon="13.6997785568237">
			<ele>42.4000015258789</ele>
			<time>2014-04-13T14:08:42Z</time>
		</trkpt>
		<trkpt lat="53.8549880981445" lon="13.6998720169067">
			<ele>42.7999992370605</ele>
			<time>2014-04-13T14:08:43Z</time>
		</trkpt>
		<trkpt lat="53.85498046875" lon="13.6999711990356">
			<ele>42.5</ele>
			<time>2014-04-13T14:08:44Z</time>
		</trkpt>
		<trkpt lat="53.8549957275391" lon="13.7000675201416">
			<ele>41.0999984741211</ele>
			<time>2014-04-13T14:08:45Z</time>
		</trkpt>
		<trkpt lat="53.8550224304199" lon="13.7001495361328">
			<ele>40.9000015258789</ele>
			<time>2014-04-13T14:08:46Z</time>
		</trkpt>
		<trkpt lat="53.8550567626953" lon="13.7002143859863">
			<ele>41.4000015258789</ele>
			<time>2014-04-13T14:08:47Z</time>
		</trkpt>
		<trkpt lat="53.8551025390625" lon="13.7002773284912">
			<ele>41.2000007629395</ele>
			<time>2014-04-13T14:08:48Z</time>
		</trkpt>
		<trkpt lat="53.855152130127" lon="13.700343132019">
			<ele>41.5</ele>
			<time>2014-04-13T14:08:49Z</time>
		</trkpt>
		<trkpt lat="53.8552017211914" lon="13.7004079818726">
			<ele>41.4000015258789</ele>
			<time>2014-04-13T14:08:50Z</time>
		</trkpt>
		<trkpt lat="53.8552589416504" lon="13.7004671096802">
			<ele>41.4000015258789</ele>
			<time>2014-04-13T14:08:51Z</time>
		</trkpt>
		<trkpt lat="53.8553009033203" lon="13.7005395889282">
			<ele>41.7999992370605</ele>
			<time>2014-04-13T14:08:52Z</time>
		</trkpt>
		<trkpt lat="53.855339050293" lon="13.7006130218506">
			<ele>42.7999992370605</ele>
			<time>2014-04-13T14:08:53Z</time>
		</trkpt>
		<trkpt lat="53.8553810119629" lon="13.7006807327271">
			<ele>42.5999984741211</ele>
			<time>2014-04-13T14:08:54Z</time>
		</trkpt>
		<trkpt lat="53.8554306030273" lon="13.7007503509521">
			<ele>42.4000015258789</ele>
			<time>2014-04-13T14:08:55Z</time>
		</trkpt>
		<trkpt lat="53.8554801940918" lon="13.7007999420166">
			<ele>42.5</ele>
			<time>2014-04-13T14:08:56Z</time>
		</trkpt>
		<trkpt lat="53.8555297851563" lon="13.700831413269">
			<ele>42</ele>
			<time>2014-04-13T14:08:57Z</time>
		</trkpt>
		<trkpt lat="53.8555793762207" lon="13.7008800506592">
			<ele>41.7999992370605</ele>
			<time>2014-04-13T14:08:58Z</time>
		</trkpt>
		<trkpt lat="53.8556327819824" lon="13.7009010314941">
			<ele>41.2000007629395</ele>
			<time>2014-04-13T14:08:59Z</time>
		</trkpt>
		<trkpt lat="53.8556938171387" lon="13.7009038925171">
			<ele>41.4000015258789</ele>
			<time>2014-04-13T14:09:00Z</time>
		</trkpt>
		<trkpt lat="53.8557472229004" lon="13.7009077072144">
			<ele>41.5</ele>
			<time>2014-04-13T14:09:01Z</time>
		</trkpt>
		<trkpt lat="53.8558006286621" lon="13.7009029388428">
			<ele>41</ele>
			<time>2014-04-13T14:09:02Z</time>
		</trkpt>
		<trkpt lat="53.8558616638184" lon="13.7009134292603">
			<ele>40.5999984741211</ele>
			<time>2014-04-13T14:09:03Z</time>
		</trkpt>
		<trkpt lat="53.8559188842773" lon="13.7009439468384">
			<ele>40.2000007629395</ele>
			<time>2014-04-13T14:09:04Z</time>
		</trkpt>
	</trkseg>
</trk>

</gpx>